
Distance (Route):
Temperature : 12°C
Humidity : 0%
Pressure : 0hPa| Receiver | Frames | First received | Last received |
|---|---|---|---|
| BIOWL1-15 | 1234 | 2026-09-01 10:46:29 | 2026-09-01 13:51:41 |
| DM0DOS-11 | 1042 | 2026-09-01 10:45:43 | 2026-09-01 20:54:05 |
| HSKMA3-T | 740 | 2026-09-01 11:18:17 | 2026-09-01 13:50:24 |
| DL1XH-west | 680 | 2026-09-01 11:07:02 | 2026-09-01 13:21:46 |
| DO2JMG | 560 | 2026-09-01 11:08:14 | 2026-09-01 13:47:08 |
| DL1XH1-15 | 520 | 2026-09-01 11:07:40 | 2026-09-01 13:21:51 |
| AA1-15 | 374 | 2026-09-01 11:30:18 | 2026-09-01 12:56:38 |
| DL1NUX | 297 | 2026-09-01 11:24:02 | 2026-09-01 13:07:05 |
| DL1XH-15 | 249 | 2026-09-01 11:18:29 | 2026-09-01 13:04:43 |
| DD8BA-10 | 233 | 2026-09-01 10:53:35 | 2026-09-01 13:29:04 |
| GOEST3-10 | 159 | 2026-09-01 11:26:17 | 2026-09-01 13:11:22 |
| DL3AQ-11 | 148 | 2026-09-01 10:56:52 | 2026-09-01 13:36:00 |
| DJ2DS-15 | 146 | 2026-09-01 10:58:08 | 2026-09-01 13:25:12 |
| DB0DAN | 138 | 2026-09-01 11:07:25 | 2026-09-01 13:41:40 |
| DO3DL | 108 | 2026-09-01 11:40:21 | 2026-09-01 13:31:03 |
| DO9LL-15 | 78 | 2026-09-01 10:47:03 | 2026-09-01 13:35:05 |
| DH3RM | 76 | 2026-09-01 10:48:12 | 2026-09-01 11:35:56 |
| DJ2KF-10 | 74 | 2026-09-01 10:47:00 | 2026-09-01 13:24:47 |
| BIOWL9-15 | 68 | 2026-09-01 10:51:48 | 2026-09-01 13:48:47 |
| DL4BBY-15 | 68 | 2026-09-01 10:57:44 | 2026-09-01 13:39:35 |
| DB0UT-7 | 60 | 2026-09-01 10:49:44 | 2026-09-01 13:38:49 |
| DD1CC9-15 | 58 | 2026-09-01 10:47:11 | 2026-09-01 13:36:32 |
| AU51GT2 | 56 | 2026-09-01 10:50:29 | 2026-09-01 13:13:46 |
| DD1CC8 | 55 | 2026-09-01 10:51:41 | 2026-09-01 13:44:01 |
| DO1YAY-16 | 55 | 2026-09-01 10:51:46 | 2026-09-01 12:57:01 |
| DL8DAS-14 | 53 | 2026-09-01 10:48:35 | 2026-09-01 13:13:24 |
| DO2KSM | 51 | 2026-09-01 10:47:10 | 2026-09-01 13:24:56 |
| DD1CC1-15 | 48 | 2026-09-01 10:52:37 | 2026-09-01 13:16:39 |
| BUE01 | 44 | 2026-09-01 11:02:11 | 2026-09-01 13:32:59 |
| DL1ZP-14 | 44 | 2026-09-01 11:03:52 | 2026-09-01 13:17:59 |
| DO3MHA-11 | 42 | 2026-09-01 11:38:22 | 2026-09-01 12:37:27 |
| DJ8HS-15 | 41 | 2026-09-01 11:28:09 | 2026-09-01 12:58:04 |
| DB0NH | 39 | 2026-09-01 11:11:10 | 2026-09-01 13:25:28 |
| DO2SHX-10 | 37 | 2026-09-01 11:57:13 | 2026-09-01 12:16:47 |
| DD1CC2-15 | 36 | 2026-09-01 11:41:31 | 2026-09-01 13:42:36 |
| HTAHTA | 35 | 2026-09-01 10:58:17 | 2026-09-01 13:08:42 |
| DD1CC3-15 | 35 | 2026-09-01 11:48:22 | 2026-09-01 13:43:35 |
| SONCRA | 32 | 2026-09-01 11:19:26 | 2026-09-01 13:39:12 |
| SO1NDE-10 | 32 | 2026-09-01 11:24:01 | 2026-09-01 13:06:37 |
| WPPR-10 | 31 | 2026-09-01 10:47:21 | 2026-09-01 13:06:33 |
| DL4XJ-10 | 30 | 2026-09-01 12:01:23 | 2026-09-01 13:23:51 |
| DL8DAS-15 | 29 | 2026-09-01 10:47:12 | 2026-09-01 12:32:21 |
| DK9SH | 27 | 2026-09-01 11:56:09 | 2026-09-01 13:50:13 |
| BIOWL7-15 | 20 | 2026-09-01 10:51:10 | 2026-09-01 13:46:55 |
| DC6BW-12 | 20 | 2026-09-01 12:13:00 | 2026-09-01 13:16:35 |
| WEDDY | 19 | 2026-09-01 11:40:57 | 2026-09-01 12:36:20 |
| DL3OBA | 18 | 2026-09-01 13:00:25 | 2026-09-01 13:31:05 |
| S3001 | 17 | 2026-09-01 11:35:27 | 2026-09-01 12:45:19 |
| DF8AY | 17 | 2026-09-01 12:06:42 | 2026-09-01 12:26:35 |
| DO3MHA-12 | 16 | 2026-09-01 11:39:37 | 2026-09-01 12:36:39 |
| DL1CLM-18 | 15 | 2026-09-01 11:12:18 | 2026-09-01 13:20:54 |
| EDDB2-12 | 15 | 2026-09-01 12:09:14 | 2026-09-01 12:55:48 |
| DB0ND-19 | 13 | 2026-09-01 11:06:41 | 2026-09-01 13:29:58 |
| EDDB2-11 | 13 | 2026-09-01 11:51:34 | 2026-09-01 12:44:21 |
| AM1SDL-15 | 11 | 2026-09-01 11:32:45 | 2026-09-01 12:51:37 |
| NBG1-10 | 9 | 2026-09-01 11:20:06 | 2026-09-01 13:03:59 |
| DL8OAI-8 | 8 | 2026-09-01 12:05:39 | 2026-09-01 13:30:20 |
| DJ3KS | 7 | 2026-09-01 10:59:06 | 2026-09-01 11:49:32 |
| DL1LOL-11 | 5 | 2026-09-01 12:19:07 | 2026-09-01 13:26:11 |
| DJTTGO | 4 | 2026-09-01 11:58:10 | 2026-09-01 12:22:03 |
| DF5WG-10 | 2 | 2026-09-01 12:01:26 | 2026-09-01 12:02:11 |
| Receiver | Date | Latitude | Longitude | Direction | Speed | Altitude | Climb | Temperature | Humidity | Pressure | Voltage | Killtimer | Uptime | BKT | XDATA |
|---|---|---|---|---|---|---|---|---|---|---|---|---|---|---|---|
| DM0DOS-11 | 2026-09-01 20:54:05 | 51.61580 | 8.93822 | 324° | 0km/h | 401m | 0m/s | 12°C | 0% | 0hPa | 2.8V | 00:00:00 | 10:36:08 | 00:00:00 | |
| DM0DOS-11 | 2026-09-01 20:53:48 | 51.61580 | 8.93822 | 299° | 0km/h | 402m | 0.1m/s | 12.1°C | 0% | 0hPa | 2.8V | 00:00:00 | 10:35:51 | 00:00:00 | |
| DM0DOS-11 | 2026-09-01 20:53:05 | 51.61581 | 8.93823 | 45° | 0km/h | 401m | -0m/s | 12.2°C | 0% | 0hPa | 2.8V | 00:00:00 | 10:35:08 | 00:00:00 | |
| DM0DOS-11 | 2026-09-01 20:52:17 | 51.61579 | 8.93822 | 333° | 0km/h | 402m | 0m/s | 12.1°C | 0% | 0hPa | 2.8V | 00:00:00 | 10:34:20 | 00:00:00 | |
| DM0DOS-11 | 2026-09-01 20:51:49 | 51.61578 | 8.93821 | 317° | 0km/h | 400m | -0m/s | 11.9°C | 0% | 0hPa | 2.8V | 00:00:00 | 10:33:52 | 00:00:00 | |
| DM0DOS-11 | 2026-09-01 20:51:43 | 51.61578 | 8.93821 | 256° | 0km/h | 401m | 0m/s | 11.8°C | 0% | 0hPa | 2.8V | 00:00:00 | 10:33:48 | 00:00:00 | |
| DM0DOS-11 | 2026-09-01 20:51:43 | 51.61578 | 8.93821 | 98° | 0km/h | 401m | -0m/s | 11.7°C | 0% | 0hPa | 2.8V | 00:00:00 | 10:33:46 | 00:00:00 | |
| DM0DOS-11 | 2026-09-01 20:51:11 | 51.61579 | 8.93820 | 33° | 0km/h | 403m | 0.1m/s | 12.1°C | 0% | 0hPa | 2.8V | 00:00:00 | 10:33:14 | 00:00:00 | |
| DM0DOS-11 | 2026-09-01 20:50:38 | 51.61579 | 8.93820 | 117° | 0km/h | 399m | 0.1m/s | 12°C | 0% | 0hPa | 2.8V | 00:00:00 | 10:32:43 | 00:00:00 | |
| DM0DOS-11 | 2026-09-01 20:50:38 | 51.61579 | 8.93820 | 45° | 0km/h | 399m | -0m/s | 11.7°C | 0% | 0hPa | 2.8V | 00:00:00 | 10:32:41 | 00:00:00 | |
| DM0DOS-11 | 2026-09-01 20:50:06 | 51.61579 | 8.93822 | 108° | 0km/h | 400m | 0m/s | 12.6°C | 0% | 0hPa | 2.8V | 00:00:00 | 10:32:09 | 00:00:00 | |
| DM0DOS-11 | 2026-09-01 20:49:47 | 51.61578 | 8.93821 | 157° | 0km/h | 400m | 0m/s | 12.1°C | 0% | 0hPa | 2.8V | 00:00:00 | 10:31:52 | 00:00:00 | |
| DM0DOS-11 | 2026-09-01 20:49:47 | 51.61578 | 8.93821 | 243° | 0km/h | 400m | -0m/s | 12.1°C | 0% | 0hPa | 2.8V | 00:00:00 | 10:31:50 | 00:00:00 | |
| DM0DOS-11 | 2026-09-01 20:49:42 | 51.61578 | 8.93822 | 230° | 0km/h | 400m | -0m/s | 12.3°C | 0% | 0hPa | 2.8V | 00:00:00 | 10:31:48 | 00:00:00 | |
| DM0DOS-11 | 2026-09-01 20:49:42 | 51.61578 | 8.93822 | 240° | 0km/h | 400m | 0m/s | 12.2°C | 0% | 0hPa | 2.8V | 00:00:00 | 10:31:45 | 00:00:00 | |
| DM0DOS-11 | 2026-09-01 20:49:36 | 51.61578 | 8.93822 | 335° | 0km/h | 399m | 0.1m/s | 12°C | 0% | 0hPa | 2.8V | 00:00:00 | 10:31:43 | 00:00:00 | |
| DM0DOS-11 | 2026-09-01 20:49:36 | 51.61579 | 8.93822 | 194° | 0km/h | 399m | -0.1m/s | 12.4°C | 0% | 0hPa | 2.8V | 00:00:00 | 10:31:39 | 00:00:00 | |
| DM0DOS-11 | 2026-09-01 20:49:25 | 51.61578 | 8.93822 | 168° | 0km/h | 399m | -0m/s | 12.2°C | 0% | 0hPa | 2.8V | 00:00:00 | 10:31:30 | 00:00:00 | |
| DM0DOS-11 | 2026-09-01 20:49:25 | 51.61578 | 8.93822 | 317° | 0km/h | 400m | -0m/s | 12.1°C | 0% | 0hPa | 2.8V | 00:00:00 | 10:31:28 | 00:00:00 | |
| DM0DOS-11 | 2026-09-01 20:49:15 | 51.61578 | 8.93821 | 267° | 0km/h | 400m | -0m/s | 12.3°C | 0% | 0hPa | 2.8V | 00:00:00 | 10:31:18 | 00:00:00 | |
| DM0DOS-11 | 2026-09-01 20:49:07 | 51.61579 | 8.93822 | 308° | 0km/h | 400m | -0.1m/s | 12.2°C | 0% | 0hPa | 2.8V | 00:00:00 | 10:31:10 | 00:00:00 | |
| DM0DOS-11 | 2026-09-01 20:48:51 | 51.61579 | 8.93823 | 202° | 0km/h | 398m | -0.1m/s | 12.3°C | 0% | 0hPa | 2.8V | 00:00:00 | 10:30:54 | 00:00:00 | |
| DM0DOS-11 | 2026-09-01 20:47:54 | 51.61579 | 8.93823 | 198° | 0km/h | 401m | -0.1m/s | 12.1°C | 0% | 0hPa | 2.8V | 00:00:00 | 10:29:57 | 00:00:00 | |
| DM0DOS-11 | 2026-09-01 20:47:40 | 51.61580 | 8.93823 | 236° | 0km/h | 403m | -0m/s | 0°C | 0% | 0hPa | 2.8V | 00:00:00 | 10:29:46 | 00:00:00 | |
| DM0DOS-11 | 2026-09-01 20:47:40 | 51.61580 | 8.93823 | 346° | 0km/h | 403m | -0.1m/s | 0°C | 0% | 0hPa | 2.8V | 00:00:00 | 10:29:43 | 00:00:00 | |
| DM0DOS-11 | 2026-09-01 20:47:31 | 51.61580 | 8.93823 | 161° | 0km/h | 402m | -0.1m/s | 0°C | 0% | 0hPa | 2.8V | 00:00:00 | 10:29:34 | 00:00:00 | |
| DM0DOS-11 | 2026-09-01 20:46:13 | 51.61578 | 8.93824 | 348° | 0km/h | 398m | -0m/s | 0°C | 0% | 0hPa | 2.8V | 00:00:00 | 10:28:16 | 00:00:00 | |
| DM0DOS-11 | 2026-09-01 20:45:50 | 51.61578 | 8.93824 | 297° | 0km/h | 401m | 0m/s | 0°C | 0% | 0hPa | 2.8V | 00:00:00 | 10:27:53 | 00:00:00 | |
| DM0DOS-11 | 2026-09-01 20:41:24 | 51.61578 | 8.93824 | 329° | 0km/h | 397m | -0.1m/s | 0°C | 0% | 0hPa | 2.8V | 00:00:00 | 10:23:27 | 00:00:00 | |
| DM0DOS-11 | 2026-09-01 20:39:41 | 51.61580 | 8.93824 | 319° | 0km/h | 403m | 0m/s | 0°C | 0% | 0hPa | 2.8V | 00:00:00 | 10:21:49 | 00:00:00 | |
| DM0DOS-11 | 2026-09-01 20:39:41 | 51.61580 | 8.93824 | 323° | 0km/h | 403m | 0.1m/s | 0°C | 0% | 0hPa | 2.8V | 00:00:00 | 10:21:44 | 00:00:00 | |
| DM0DOS-11 | 2026-09-01 15:55:31 | 51.61577 | 8.93821 | 249° | 0km/h | 398m | 0.1m/s | 16.5°C | 84.9% | 977.4hPa | 2.9V | 04:59:14 | 05:37:34 | 00:00:00 | |
| DM0DOS-11 | 2026-09-01 15:47:52 | 51.61578 | 8.93822 | 290° | 0km/h | 399m | 0m/s | 16.3°C | 86.5% | 977.3hPa | 2.9V | 05:06:53 | 05:29:55 | 00:00:00 | |
| DM0DOS-11 | 2026-09-01 14:32:28 | 51.61578 | 8.93822 | 325° | 0km/h | 397m | -0.1m/s | 14.8°C | 95.9% | 977.5hPa | 2.9V | 06:22:17 | 04:14:31 | 00:00:00 | |
| DM0DOS-11 | 2026-09-01 14:32:17 | 51.61578 | 8.93821 | 263° | 0km/h | 396m | 0.2m/s | 14.9°C | 95.8% | 977.5hPa | 2.9V | 06:22:28 | 04:14:20 | 00:00:00 | |
| DM0DOS-11 | 2026-09-01 14:28:46 | 51.61578 | 8.93822 | 70° | 0km/h | 398m | -0m/s | 14.7°C | 97.1% | 977.6hPa | 2.9V | 06:25:59 | 04:10:49 | 00:00:00 | |
| DM0DOS-11 | 2026-09-01 14:28:07 | 51.61578 | 8.93822 | 81° | 0km/h | 398m | -0.1m/s | 14.7°C | 97.4% | 977.7hPa | 2.9V | 06:26:34 | 04:10:14 | 00:00:00 | |
| DM0DOS-11 | 2026-09-01 14:28:07 | 51.61578 | 8.93822 | 280° | 0km/h | 398m | -0m/s | 14.7°C | 99.9% | 977.6hPa | 2.9V | 06:26:37 | 04:10:11 | 00:00:00 | |
| DM0DOS-11 | 2026-09-01 14:27:57 | 51.61578 | 8.93821 | 161° | 0km/h | 398m | -0.1m/s | 14.5°C | 99.3% | 977.6hPa | 2.9V | 06:26:47 | 04:10:01 | 00:00:00 | |
| DM0DOS-11 | 2026-09-01 14:22:01 | 51.61577 | 8.93820 | 326° | 0km/h | 397m | -0.1m/s | 14.5°C | 97.4% | 977.6hPa | 2.9V | 06:32:44 | 04:04:04 | 00:00:00 | |
| DM0DOS-11 | 2026-09-01 14:20:42 | 51.61576 | 8.93818 | 287° | 0km/h | 399m | 0.2m/s | 14.7°C | 97.7% | 977.7hPa | 2.9V | 06:34:04 | 04:02:44 | 00:00:00 | |
| DM0DOS-11 | 2026-09-01 13:51:54 | 51.61588 | 8.93721 | 107° | 26km/h | 407m | -1.5m/s | 15.9°C | 87% | 976.1hPa | 2.8V | 07:02:48 | 03:34:00 | 00:00:00 | |
| DM0DOS-11 | 2026-09-01 13:51:54 | 51.61594 | 8.93682 | 99° | 24km/h | 413m | -1.6m/s | 15.9°C | 86.5% | 975.8hPa | 2.8V | 07:02:52 | 03:33:56 | 00:00:00 | |
| DM0DOS-11 | 2026-09-01 13:51:47 | 51.61600 | 8.93644 | 108° | 24km/h | 419m | -1.4m/s | 15.8°C | 86.6% | 974.9hPa | 2.8V | 07:02:56 | 03:33:52 | 00:00:00 | |
| DM0DOS-11 | 2026-09-01 13:51:41 | 51.61604 | 8.93589 | 84° | 16km/h | 425m | -1.2m/s | 15.7°C | 87.2% | 974.4hPa | 2.7V | 07:03:02 | 03:33:46 | 00:00:00 | |
| DM0DOS-11 | 2026-09-01 13:51:41 | 51.61603 | 8.93576 | 76° | 15km/h | 426m | -0.9m/s | 15.7°C | 86.8% | 974.2hPa | 2.8V | 07:03:04 | 03:33:44 | 00:00:00 | |
| BIOWL1-15 | 2026-09-01 13:51:41 | 51.61604 | 8.93596 | 90° | 18km/h | 424m | -0.8m/s | 15.7°C | 90.6% | 974.5hPa | 2.8V | 07:03:27 | 03:33:47 | 00:00:00 | |
| BIOWL1-15 | 2026-09-01 13:51:36 | 51.61602 | 8.93571 | 80° | 15km/h | 428m | -2.3m/s | 15.8°C | 87.5% | 974hPa | 2.8V | 07:03:27 | 03:33:43 | 00:00:00 | |
| BIOWL1-15 | 2026-09-01 13:51:36 | 51.61602 | 8.93565 | 80° | 15km/h | 430m | -2.1m/s | 15.7°C | 88% | 973.7hPa | 2.8V | 07:03:27 | 03:33:42 | 00:00:00 | |
| DM0DOS-11 | 2026-09-01 13:51:35 | 51.61602 | 8.93565 | 80° | 15km/h | 430m | -2.1m/s | 15.7°C | 85.9% | 973.7hPa | 2.8V | 07:03:06 | 03:33:42 | 00:00:00 | |
| BIOWL1-15 | 2026-09-01 13:51:32 | 51.61601 | 8.93553 | 86° | 16km/h | 435m | -2.8m/s | 15.8°C | 89.7% | 973.1hPa | 2.8V | 07:03:27 | 03:33:40 | 00:00:00 | |
| BIOWL1-15 | 2026-09-01 13:51:31 | 51.61601 | 8.93547 | 86° | 16km/h | 438m | -2.6m/s | 15.7°C | 89.1% | 972.9hPa | 2.8V | 07:03:27 | 03:33:39 | 00:00:00 | |
| BIOWL1-15 | 2026-09-01 13:51:29 | 51.61601 | 8.93529 | 89° | 15km/h | 446m | -2.3m/s | 15.6°C | 90.5% | 971.9hPa | 2.8V | 07:03:27 | 03:33:36 | 00:00:00 | |
| DM0DOS-11 | 2026-09-01 13:51:29 | 51.61600 | 8.93519 | 89° | 15km/h | 451m | -2.5m/s | 15.6°C | 85.8% | 971.2hPa | 2.8V | 07:03:14 | 03:33:34 | 00:00:00 | |
| BIOWL1-15 | 2026-09-01 13:51:29 | 51.61600 | 8.93524 | 89° | 15km/h | 449m | -2.8m/s | 15.6°C | 89.8% | 971.7hPa | 2.8V | 07:03:27 | 03:33:35 | 00:00:00 | |
| BIOWL1-15 | 2026-09-01 13:51:25 | 51.61600 | 8.93513 | 88° | 13km/h | 454m | -2.9m/s | 15.6°C | 89.5% | 970.8hPa | 2.8V | 07:03:27 | 03:33:33 | 00:00:00 | |
| BIOWL1-15 | 2026-09-01 13:51:24 | 51.61600 | 8.93496 | 95° | 13km/h | 460m | -2m/s | 15.5°C | 86.7% | 970.2hPa | 2.8V | 07:03:27 | 03:33:30 | 00:00:00 | |
| DM0DOS-11 | 2026-09-01 13:51:23 | 51.61600 | 8.93496 | 95° | 13km/h | 460m | -2m/s | 15.4°C | 84.1% | 970.2hPa | 2.8V | 07:03:18 | 03:33:30 | 00:00:00 | |
| DM0DOS-11 | 2026-09-01 13:51:23 | 51.61601 | 8.93486 | 102° | 15km/h | 464m | -2m/s | 15.4°C | 82% | 969.5hPa | 2.8V | 07:03:20 | 03:33:28 | 00:00:00 | |
| DM0DOS-11 | 2026-09-01 13:51:23 | 51.61604 | 8.93474 | 117° | 18km/h | 467m | -0.9m/s | 15.4°C | 82.4% | 969.3hPa | 2.8V | 07:03:22 | 03:33:26 | 00:00:00 | |
| BIOWL1-15 | 2026-09-01 13:51:20 | 51.61606 | 8.93467 | 114° | 20km/h | 468m | -2.1m/s | 15.4°C | 86.9% | 969.3hPa | 2.8V | 07:03:27 | 03:33:25 | 00:00:00 | |
| BIOWL1-15 | 2026-09-01 13:51:20 | 51.61609 | 8.93459 | 124° | 22km/h | 471m | -2.7m/s | 15.4°C | 87.9% | 969hPa | 2.8V | 07:03:27 | 03:33:24 | 00:00:00 | |
| BIOWL1-15 | 2026-09-01 13:51:17 | 51.61612 | 8.93451 | 119° | 26km/h | 473m | -2.3m/s | 15.4°C | 87.4% | 968.7hPa | 2.8V | 07:03:27 | 03:33:23 | 00:00:00 | |
| DM0DOS-11 | 2026-09-01 13:51:17 | 51.61609 | 8.93459 | 124° | 22km/h | 471m | -2.7m/s | 15.4°C | 82.8% | 969hPa | 2.8V | 07:03:24 | 03:33:24 | 00:00:00 | |
| BIOWL1-15 | 2026-09-01 13:51:13 | 51.61619 | 8.93434 | 120° | 27km/h | 477m | -1.9m/s | 15.3°C | 87.4% | 968.2hPa | 2.8V | 07:03:27 | 03:33:21 | 00:00:00 | |
| BIOWL1-15 | 2026-09-01 13:51:12 | 51.61622 | 8.93424 | 119° | 27km/h | 479m | -1.3m/s | 15.3°C | 87.6% | 967.9hPa | 2.8V | 07:04:18 | 03:33:20 | 00:00:00 | |
| DM0DOS-11 | 2026-09-01 13:51:11 | 51.61628 | 8.93405 | 113° | 26km/h | 482m | -1.8m/s | 15.2°C | 83.1% | 967.5hPa | 2.7V | 07:03:30 | 03:33:18 | 00:00:00 | |
| BIOWL1-15 | 2026-09-01 13:51:11 | 51.61631 | 8.93395 | 106° | 29km/h | 483m | -1.3m/s | 15.2°C | 87.7% | 967.3hPa | 2.8V | 07:04:18 | 03:33:17 | 00:00:00 | |
| BIOWL1-15 | 2026-09-01 13:51:10 | 51.61633 | 8.93384 | 103° | 26km/h | 485m | -2.1m/s | 15.2°C | 88% | 967.1hPa | 2.8V | 07:04:18 | 03:33:16 | 00:00:00 | |
| BIOWL1-15 | 2026-09-01 13:51:06 | 51.61638 | 8.93313 | 121° | 16km/h | 502m | -1.9m/s | 15°C | 87% | 965.4hPa | 2.8V | 07:04:18 | 03:33:07 | 00:00:00 | |
| BIOWL1-15 | 2026-09-01 13:51:06 | 51.61641 | 8.93307 | 124° | 18km/h | 504m | -2.1m/s | 15°C | 88.1% | 965.2hPa | 2.8V | 07:04:18 | 03:33:06 | 00:00:00 | |
| DM0DOS-11 | 2026-09-01 13:51:05 | 51.61635 | 8.93345 | 90° | 20km/h | 492m | -2.1m/s | 15.1°C | 83.9% | 966.5hPa | 2.8V | 07:03:36 | 03:33:12 | 00:00:00 | |
| DM0DOS-11 | 2026-09-01 13:51:05 | 51.61637 | 8.93318 | 106° | 15km/h | 500m | -2.2m/s | 15.1°C | 85% | 965.6hPa | 2.8V | 07:03:40 | 03:33:08 | 00:00:00 | |
| BIOWL1-15 | 2026-09-01 13:51:03 | 51.61643 | 8.93300 | 120° | 22km/h | 506m | -1.4m/s | 15°C | 89% | 964.9hPa | 2.8V | 07:04:18 | 03:33:05 | 00:00:00 | |
| BIOWL1-15 | 2026-09-01 13:51:00 | 51.61646 | 8.93291 | 117° | 26km/h | 508m | -1.6m/s | 15°C | 88.4% | 964.9hPa | 2.8V | 07:04:18 | 03:33:04 | 00:00:00 | |
| DM0DOS-11 | 2026-09-01 13:50:59 | 51.61651 | 8.93272 | 109° | 26km/h | 511m | -2.5m/s | 15°C | 83.6% | 964.3hPa | 2.8V | 07:03:46 | 03:33:02 | 00:00:00 | |
| BIOWL1-15 | 2026-09-01 13:50:54 | 51.61651 | 8.93272 | 110° | 26km/h | 511m | -2.5m/s | 15°C | 87.7% | 964.3hPa | 2.8V | 07:04:18 | 03:33:02 | 00:00:00 | |
| DM0DOS-11 | 2026-09-01 13:50:53 | 51.61655 | 8.93251 | 101° | 27km/h | 516m | -1.7m/s | 14.9°C | 83.6% | 963.9hPa | 2.8V | 07:03:48 | 03:33:00 | 00:00:00 | |
| DM0DOS-11 | 2026-09-01 13:50:53 | 51.61657 | 8.93230 | 94° | 24km/h | 520m | -2.2m/s | 14.9°C | 83.5% | 963.4hPa | 2.8V | 07:03:50 | 03:32:58 | 00:00:00 | |
| BIOWL1-15 | 2026-09-01 13:50:53 | 51.61653 | 8.93262 | 108° | 27km/h | 514m | -2.1m/s | 15°C | 86.4% | 963.9hPa | 2.8V | 07:04:18 | 03:33:01 | 00:00:00 | |
| BIOWL1-15 | 2026-09-01 13:50:51 | 51.61656 | 8.93240 | 97° | 27km/h | 518m | -1.8m/s | 14.9°C | 86.3% | 963.5hPa | 2.8V | 07:04:18 | 03:32:59 | 00:00:00 | |
| BIOWL1-15 | 2026-09-01 13:50:50 | 51.61658 | 8.93212 | 98° | 20km/h | 524m | -2.1m/s | 14.9°C | 88% | 962.8hPa | 2.8V | 07:04:18 | 03:32:56 | 00:00:00 | |
| BIOWL1-15 | 2026-09-01 13:50:49 | 51.61659 | 8.93205 | 109° | 16km/h | 526m | -1.5m/s | 14.8°C | 87.9% | 962.9hPa | 2.8V | 07:04:18 | 03:32:55 | 00:00:00 | |
| DM0DOS-11 | 2026-09-01 13:50:47 | 51.61660 | 8.93199 | 112° | 16km/h | 528m | -1.9m/s | 14.8°C | 84.6% | 962.6hPa | 2.8V | 07:03:54 | 03:32:54 | 00:00:00 | |
| DM0DOS-11 | 2026-09-01 13:50:47 | 51.61664 | 8.93186 | 118° | 20km/h | 532m | -2.2m/s | 14.8°C | 85% | 962.1hPa | 2.8V | 07:03:56 | 03:32:52 | 00:00:00 | |
| BIOWL1-15 | 2026-09-01 13:50:46 | 51.61664 | 8.93186 | 119° | 20km/h | 532m | -2.2m/s | 14.8°C | 87.5% | 962.1hPa | 2.8V | 07:04:18 | 03:32:52 | 00:00:00 | |
| BIOWL1-15 | 2026-09-01 13:50:45 | 51.61667 | 8.93179 | 116° | 22km/h | 535m | -1.9m/s | 14.8°C | 86.8% | 962hPa | 2.8V | 07:04:18 | 03:32:51 | 00:00:00 | |
| DM0DOS-11 | 2026-09-01 13:50:41 | 51.61678 | 8.93133 | 99° | 26km/h | 543m | -2.2m/s | 14.7°C | 84.6% | 961hPa | 2.8V | 07:04:02 | 03:32:46 | 00:00:00 | |
| DM0DOS-11 | 2026-09-01 13:50:41 | 51.61679 | 8.93100 | 97° | 27km/h | 550m | -2.7m/s | 14.7°C | 85.2% | 960.4hPa | 2.8V | 07:04:05 | 03:32:43 | 00:00:00 | |
| BIOWL1-15 | 2026-09-01 13:50:41 | 51.61671 | 8.93162 | 113° | 24km/h | 538m | -1.4m/s | 14.7°C | 86.3% | 961.4hPa | 2.8V | 07:04:18 | 03:32:49 | 00:00:00 | |
| BIOWL1-15 | 2026-09-01 13:50:39 | 51.61680 | 8.93088 | 92° | 29km/h | 554m | -3.9m/s | 14.6°C | 90.7% | 960hPa | 2.8V | 07:04:18 | 03:32:42 | 00:00:00 | |
| BIOWL1-15 | 2026-09-01 13:50:39 | 51.61680 | 8.93077 | 88° | 27km/h | 557m | -3.3m/s | 14.6°C | 90.9% | 959.5hPa | 2.8V | 07:04:18 | 03:32:41 | 00:00:00 | |
| DM0DOS-11 | 2026-09-01 13:50:35 | 51.61679 | 8.93065 | 88° | 27km/h | 561m | -2.8m/s | 14.6°C | 86.5% | 959.3hPa | 2.8V | 07:04:08 | 03:32:40 | 00:00:00 | |
| DM0DOS-11 | 2026-09-01 13:50:35 | 51.61679 | 8.93045 | 84° | 24km/h | 567m | -2.5m/s | 14.5°C | 86.2% | 958.5hPa | 2.8V | 07:04:10 | 03:32:38 | 00:00:00 | |
| BIOWL1-15 | 2026-09-01 13:50:34 | 51.61679 | 8.93065 | 88° | 27km/h | 561m | -2.8m/s | 14.6°C | 91.3% | 959.3hPa | 2.8V | 07:04:18 | 03:32:40 | 00:00:00 | |
| BIOWL1-15 | 2026-09-01 13:50:30 | 51.61679 | 8.93045 | 85° | 24km/h | 567m | -2.5m/s | 14.5°C | 89.8% | 958.5hPa | 2.8V | 07:04:18 | 03:32:38 | 00:00:00 | |
| DM0DOS-11 | 2026-09-01 13:50:29 | 51.61678 | 8.93029 | 93° | 18km/h | 572m | -2.6m/s | 14.4°C | 86.4% | 958.1hPa | 2.8V | 07:04:12 | 03:32:36 | 00:00:00 | |
| DM0DOS-11 | 2026-09-01 13:50:29 | 51.61679 | 8.93016 | 108° | 16km/h | 577m | -2m/s | 14.4°C | 86.7% | 957.4hPa | 2.8V | 07:04:14 | 03:32:34 | 00:00:00 | |
| DM0DOS-11 | 2026-09-01 13:50:29 | 51.61683 | 8.93003 | 116° | 18km/h | 580m | -1.8m/s | 14.4°C | 86.1% | 957hPa | 2.8V | 07:04:16 | 03:32:32 | 00:00:00 | |
| BIOWL1-15 | 2026-09-01 13:50:28 | 51.61679 | 8.93022 | 103° | 16km/h | 575m | -2.1m/s | 14.4°C | 88.8% | 957.8hPa | 2.8V | 07:04:18 | 03:32:35 | 00:00:00 | |
| BIOWL1-15 | 2026-09-01 13:50:28 | 51.61680 | 8.93016 | 108° | 16km/h | 577m | -2m/s | 14.4°C | 89% | 957.4hPa | 2.8V | 07:04:18 | 03:32:34 | 00:00:00 | |
| BIOWL1-15 | 2026-09-01 13:50:25 | 51.61681 | 8.93009 | 117° | 16km/h | 579m | -1.3m/s | 14.4°C | 89.4% | 957.5hPa | 2.8V | 07:04:18 | 03:32:33 | 00:00:00 | |
| HSKMA3-T | 2026-09-01 13:50:24 | 51.61683 | 8.93003 | 116° | 18km/h | 580m | -1.8m/s | 14.4°C | 89.1% | 957hPa | 2.8V | 07:06:00 | 03:32:32 | 00:00:00 | |
| BIOWL1-15 | 2026-09-01 13:50:23 | 51.61694 | 8.92968 | 118° | 20km/h | 594m | -2.8m/s | 14.2°C | 90.3% | 955.7hPa | 2.8V | 07:05:09 | 03:32:27 | 00:00:00 | |
| BIOWL1-15 | 2026-09-01 13:50:18 | 51.61696 | 8.92961 | 120° | 20km/h | 598m | -3.4m/s | 14.2°C | 90.6% | 955.3hPa | 2.8V | 07:05:09 | 03:32:26 | 00:00:00 | |
| BIOWL1-15 | 2026-09-01 13:50:17 | 51.61720 | 8.92871 | 108° | 24km/h | 635m | -3.9m/s | 13.9°C | 91% | 951hPa | 2.8V | 07:05:09 | 03:32:15 | 00:00:00 | |
| BIOWL1-15 | 2026-09-01 13:50:14 | 51.61725 | 8.92850 | 111° | 27km/h | 643m | -4m/s | 13.8°C | 90.9% | 950.1hPa | 2.8V | 07:05:09 | 03:32:13 | 00:00:00 | |
| DK9SH | 2026-09-01 13:50:13 | 51.61705 | 8.92932 | 115° | 20km/h | 611m | -3.2m/s | 14.1°C | 87.1% | 953.7hPa | 2.8V | 07:05:00 | 00:00:00 | 00:00:00 | |
| DM0DOS-11 | 2026-09-01 13:50:11 | 51.61715 | 8.92898 | 110° | 24km/h | 623m | -3.9m/s | 14°C | 87.6% | 952.3hPa | 2.8V | 07:04:30 | 03:32:18 | 00:00:00 | |
| DM0DOS-11 | 2026-09-01 13:50:11 | 51.61718 | 8.92880 | 107° | 26km/h | 631m | -4.1m/s | 13.9°C | 87.5% | 951.5hPa | 2.8V | 07:04:32 | 03:32:16 | 00:00:00 | |
| BIOWL1-15 | 2026-09-01 13:50:07 | 51.61728 | 8.92840 | 113° | 27km/h | 646m | -3.4m/s | 13.8°C | 91.1% | 949.6hPa | 2.8V | 07:05:09 | 03:32:12 | 00:00:00 | |
| HSKMA3-T | 2026-09-01 13:50:06 | 51.61723 | 8.92861 | 112° | 27km/h | 639m | -3.7m/s | 13.8°C | 90.6% | 950.6hPa | 2.8V | 07:06:00 | 03:32:14 | 00:00:00 | |
| DM0DOS-11 | 2026-09-01 13:50:05 | 51.61733 | 8.92817 | 106° | 29km/h | 654m | -3.9m/s | 13.7°C | 88.8% | 948.9hPa | 2.8V | 07:04:38 | 03:32:10 | 00:00:00 | |
| BIOWL1-15 | 2026-09-01 13:50:05 | 51.61730 | 8.92829 | 112° | 33km/h | 650m | -3.2m/s | 13.7°C | 91.5% | 949.4hPa | 2.8V | 07:05:09 | 03:32:11 | 00:00:00 | |
| BIOWL1-15 | 2026-09-01 13:50:01 | 51.61735 | 8.92806 | 111° | 29km/h | 659m | -4.2m/s | 13.7°C | 91.7% | 948.7hPa | 2.8V | 07:05:09 | 03:32:09 | 00:00:00 | |
| BIOWL1-15 | 2026-09-01 13:49:59 | 51.61740 | 8.92783 | 102° | 31km/h | 667m | -2.8m/s | 13.6°C | 91.6% | 947.7hPa | 2.8V | 07:05:09 | 03:32:07 | 00:00:00 | |
| DM0DOS-11 | 2026-09-01 13:49:59 | 51.61742 | 8.92770 | 108° | 37km/h | 670m | -2.1m/s | 13.6°C | 89.2% | 947.4hPa | 2.8V | 07:04:42 | 03:32:06 | 00:00:00 | |
| DM0DOS-11 | 2026-09-01 13:49:59 | 51.61747 | 8.92743 | 107° | 33km/h | 675m | -2.2m/s | 13.5°C | 89.6% | 946.8hPa | 2.8V | 07:04:44 | 03:32:04 | 00:00:00 | |
| BIOWL1-15 | 2026-09-01 13:49:57 | 51.61744 | 8.92756 | 105° | 35km/h | 672m | -1.8m/s | 13.5°C | 90.3% | 947.1hPa | 2.8V | 07:05:09 | 03:32:05 | 00:00:00 | |
| BIOWL1-15 | 2026-09-01 13:49:56 | 51.61747 | 8.92743 | 108° | 33km/h | 675m | -2.2m/s | 13.5°C | 91.8% | 946.8hPa | 2.8V | 07:05:09 | 03:32:04 | 00:00:00 | |
| BIOWL1-15 | 2026-09-01 13:49:54 | 51.61758 | 8.92687 | 108° | 38km/h | 685m | -1.2m/s | 13.5°C | 95.4% | 945.9hPa | 2.8V | 07:05:09 | 03:32:00 | 00:00:00 | |
| BIOWL1-15 | 2026-09-01 13:49:53 | 51.61761 | 8.92673 | 108° | 38km/h | 686m | -1.1m/s | 13.5°C | 96.4% | 945.5hPa | 2.8V | 07:05:09 | 03:31:59 | 00:00:00 | |
| DM0DOS-11 | 2026-09-01 13:49:53 | 51.61765 | 8.92658 | 108° | 38km/h | 687m | -1.3m/s | 13.5°C | 90.5% | 945.4hPa | 2.8V | 07:04:50 | 03:31:58 | 00:00:00 | |
| BIOWL1-15 | 2026-09-01 13:49:49 | 51.61767 | 8.92643 | 107° | 40km/h | 689m | -1.9m/s | 13.5°C | 94.4% | 945.2hPa | 2.8V | 07:05:09 | 03:31:57 | 00:00:00 | |
| BIOWL1-15 | 2026-09-01 13:49:48 | 51.61774 | 8.92597 | 100° | 37km/h | 696m | -2.5m/s | 13.4°C | 95% | 944.3hPa | 2.8V | 07:05:09 | 03:31:54 | 00:00:00 | |
| BIOWL1-15 | 2026-09-01 13:49:47 | 51.61776 | 8.92581 | 102° | 42km/h | 699m | -2.5m/s | 13.3°C | 97.1% | 944.2hPa | 2.8V | 07:05:09 | 03:31:53 | 00:00:00 | |
| BIOWL1-15 | 2026-09-01 13:49:43 | 51.61782 | 8.92496 | 94° | 42km/h | 712m | -1.7m/s | 13.3°C | 85.1% | 942.5hPa | 2.7V | 07:05:09 | 03:31:48 | 00:00:00 | |
| DM0DOS-11 | 2026-09-01 13:49:41 | 51.61782 | 8.92464 | 90° | 37km/h | 716m | -2.2m/s | 13.2°C | 82.2% | 942.1hPa | 2.8V | 07:05:02 | 03:31:46 | 00:00:00 | |
| DM0DOS-11 | 2026-09-01 13:49:41 | 51.61784 | 8.92437 | 97° | 31km/h | 721m | -2.6m/s | 13.1°C | 81.9% | 941.5hPa | 2.8V | 07:05:04 | 03:31:44 | 00:00:00 | |
| HSKMA3-T | 2026-09-01 13:49:39 | 51.61782 | 8.92480 | 91° | 40km/h | 714m | -2m/s | 13.2°C | 84.2% | 942.4hPa | 2.8V | 07:06:00 | 03:31:47 | 00:00:00 | |
| BIOWL1-15 | 2026-09-01 13:49:37 | 51.61783 | 8.92450 | 95° | 33km/h | 719m | -2.3m/s | 13.2°C | 83.7% | 941.9hPa | 2.8V | 07:05:09 | 03:31:45 | 00:00:00 | |
| BIOWL1-15 | 2026-09-01 13:49:36 | 51.61784 | 8.92437 | 98° | 31km/h | 721m | -2.6m/s | 13.1°C | 83.7% | 941.5hPa | 2.8V | 07:05:09 | 03:31:44 | 00:00:00 | |
| BIOWL1-15 | 2026-09-01 13:49:34 | 51.61788 | 8.92412 | 108° | 33km/h | 727m | -3.3m/s | 13.2°C | 83.8% | 941hPa | 2.8V | 07:05:09 | 03:31:42 | 00:00:00 | |
| BIOWL1-15 | 2026-09-01 13:49:33 | 51.61790 | 8.92399 | 107° | 37km/h | 730m | -3.6m/s | 13.2°C | 83.7% | 940.5hPa | 2.8V | 07:05:09 | 03:31:41 | 00:00:00 | |
| BIOWL1-15 | 2026-09-01 13:49:31 | 51.61796 | 8.92368 | 108° | 42km/h | 737m | -3.4m/s | 13.1°C | 86% | 939.7hPa | 2.8V | 07:05:09 | 03:31:39 | 00:00:00 | |
| BIOWL1-15 | 2026-09-01 13:49:29 | 51.61803 | 8.92332 | 105° | 49km/h | 743m | -2.5m/s | 13°C | 86.9% | 939.1hPa | 2.8V | 07:06:00 | 03:31:37 | 00:00:00 | |
| BIOWL1-15 | 2026-09-01 13:49:27 | 51.61808 | 8.92291 | 100° | 51km/h | 748m | -2.7m/s | 12.9°C | 88.4% | 938.5hPa | 2.8V | 07:06:00 | 03:31:35 | 00:00:00 | |
| BIOWL1-15 | 2026-09-01 13:49:25 | 51.61812 | 8.92251 | 97° | 49km/h | 754m | -2.6m/s | 12.9°C | 88.9% | 938hPa | 2.8V | 07:06:00 | 03:31:33 | 00:00:00 | |
| BIOWL1-15 | 2026-09-01 13:49:24 | 51.61813 | 8.92231 | 95° | 51km/h | 758m | -3m/s | 12.9°C | 88.5% | 937.5hPa | 2.8V | 07:06:00 | 03:31:32 | 00:00:00 | |
| DM0DOS-11 | 2026-09-01 13:49:24 | 51.61816 | 8.92118 | 97° | 38km/h | 775m | -2.4m/s | 12.7°C | 83.6% | 935.5hPa | 2.8V | 07:05:22 | 03:31:26 | 00:00:00 | |
| BIOWL1-15 | 2026-09-01 13:49:22 | 51.61815 | 8.92190 | 95° | 47km/h | 764m | -2.6m/s | 12.8°C | 88.7% | 936.5hPa | 2.8V | 07:06:00 | 03:31:30 | 00:00:00 | |
| BIOWL1-15 | 2026-09-01 13:49:21 | 51.61816 | 8.92135 | 93° | 42km/h | 773m | -2.5m/s | 12.8°C | 87.1% | 935.8hPa | 2.8V | 07:06:00 | 03:31:27 | 00:00:00 | |
| BIOWL1-15 | 2026-09-01 13:49:20 | 51.61816 | 8.92118 | 97° | 38km/h | 775m | -2.4m/s | 12.7°C | 87.8% | 935.5hPa | 2.8V | 07:06:00 | 03:31:26 | 00:00:00 | |
| DM0DOS-11 | 2026-09-01 13:49:17 | 51.61820 | 8.92090 | 108° | 37km/h | 780m | -2.7m/s | 12.7°C | 83.2% | 935hPa | 2.8V | 07:05:24 | 03:31:24 | 00:00:00 | |
| HSKMA3-T | 2026-09-01 13:49:17 | 51.61818 | 8.92104 | 103° | 37km/h | 778m | -1.9m/s | 12.7°C | 87.7% | 935.3hPa | 2.8V | 07:06:00 | 03:31:25 | 00:00:00 | |
| BIOWL1-15 | 2026-09-01 13:49:16 | 51.61824 | 8.92076 | 113° | 37km/h | 782m | -1.8m/s | 12.7°C | 86.2% | 935hPa | 2.8V | 07:06:00 | 03:31:23 | 00:00:00 | |
| BIOWL1-15 | 2026-09-01 13:49:16 | 51.61827 | 8.92061 | 113° | 38km/h | 784m | -1.7m/s | 12.7°C | 86.2% | 934.9hPa | 2.8V | 07:06:00 | 03:31:22 | 00:00:00 | |
| BIOWL1-15 | 2026-09-01 13:49:13 | 51.61831 | 8.92046 | 114° | 42km/h | 786m | -2m/s | 12.7°C | 86% | 934.6hPa | 2.8V | 07:06:00 | 03:31:21 | 00:00:00 | |
| DK9SH | 2026-09-01 13:49:11 | 51.61836 | 8.92030 | 114° | 44km/h | 789m | -2.1m/s | 12.7°C | 82.8% | 934.4hPa | 2.8V | 07:06:00 | 00:00:00 | 00:00:00 | |
| DM0DOS-11 | 2026-09-01 13:49:11 | 51.61853 | 8.91954 | 108° | 51km/h | 797m | -2.7m/s | 12.6°C | 82.9% | 933.5hPa | 2.8V | 07:05:32 | 03:31:16 | 00:00:00 | |
| BIOWL1-15 | 2026-09-01 13:49:11 | 51.61840 | 8.92012 | 112° | 47km/h | 790m | -1.7m/s | 12.6°C | 86.4% | 934.3hPa | 2.8V | 07:06:00 | 03:31:19 | 00:00:00 | |
| BIOWL1-15 | 2026-09-01 13:49:10 | 51.61845 | 8.91994 | 111° | 49km/h | 792m | -2.2m/s | 12.6°C | 85.4% | 934hPa | 2.8V | 07:06:00 | 03:31:18 | 00:00:00 | |
| BIOWL1-15 | 2026-09-01 13:49:09 | 51.61849 | 8.91974 | 110° | 51km/h | 795m | -2.5m/s | 12.6°C | 85.6% | 933.8hPa | 2.8V | 07:06:00 | 03:31:17 | 00:00:00 | |
| HSKMA3-T | 2026-09-01 13:49:07 | 51.61857 | 8.91934 | 104° | 53km/h | 800m | -2.5m/s | 12.5°C | 86.6% | 933.1hPa | 2.8V | 07:06:00 | 03:31:15 | 00:00:00 | |
| BIOWL1-15 | 2026-09-01 13:49:05 | 51.61863 | 8.91890 | 101° | 57km/h | 806m | -2.5m/s | 12.5°C | 86.4% | 932.4hPa | 2.8V | 07:06:00 | 03:31:13 | 00:00:00 | |
| DM0DOS-11 | 2026-09-01 13:49:05 | 51.61870 | 8.91824 | 95° | 57km/h | 814m | -2.5m/s | 12.4°C | 83.2% | 931.6hPa | 2.8V | 07:05:38 | 03:31:10 | 00:00:00 | |
| DM0DOS-11 | 2026-09-01 13:49:05 | 51.61872 | 8.91779 | 95° | 53km/h | 820m | -2.7m/s | 12.3°C | 84.1% | 930.9hPa | 2.8V | 07:05:40 | 03:31:08 | 00:00:00 | |
| BIOWL1-15 | 2026-09-01 13:49:04 | 51.61866 | 8.91868 | 102° | 55km/h | 808m | -3m/s | 12.5°C | 86.8% | 932.1hPa | 2.8V | 07:06:00 | 03:31:12 | 00:00:00 | |
| BIOWL1-15 | 2026-09-01 13:49:02 | 51.61870 | 8.91824 | 96° | 57km/h | 814m | -2.5m/s | 12.4°C | 86.7% | 931.6hPa | 2.8V | 07:06:00 | 03:31:10 | 00:00:00 | |
| BIOWL1-15 | 2026-09-01 13:49:00 | 51.61872 | 8.91779 | 95° | 53km/h | 820m | -2.7m/s | 12.3°C | 87.3% | 930.9hPa | 2.8V | 07:06:00 | 03:31:08 | 00:00:00 | |
| BIOWL1-15 | 2026-09-01 13:48:59 | 51.61873 | 8.91758 | 93° | 51km/h | 822m | -2.7m/s | 12.3°C | 87.4% | 930.5hPa | 2.8V | 07:06:00 | 03:31:07 | 00:00:00 | |
| BIOWL1-15 | 2026-09-01 13:48:57 | 51.61873 | 8.91717 | 90° | 51km/h | 828m | -3m/s | 12.3°C | 87.2% | 929.9hPa | 2.8V | 07:06:00 | 03:31:05 | 00:00:00 | |
| BIOWL1-15 | 2026-09-01 13:48:55 | 51.61873 | 8.91676 | 91° | 46km/h | 834m | -2.8m/s | 12.2°C | 87.7% | 929.3hPa | 2.8V | 07:06:00 | 03:31:03 | 00:00:00 | |
| DM0DOS-11 | 2026-09-01 13:48:53 | 51.61874 | 8.91623 | 92° | 40km/h | 842m | -2.6m/s | 12.1°C | 84.6% | 928.5hPa | 2.8V | 07:05:48 | 03:31:00 | 00:00:00 | |
| DM0DOS-11 | 2026-09-01 13:48:53 | 51.61880 | 8.91542 | 102° | 42km/h | 856m | -2.5m/s | 12°C | 84.9% | 926.9hPa | 2.8V | 07:05:53 | 03:30:55 | 00:00:00 | |
| BIOWL1-15 | 2026-09-01 13:48:53 | 51.61874 | 8.91607 | 95° | 40km/h | 845m | -2.8m/s | 12.1°C | 87.7% | 928.2hPa | 2.8V | 07:06:00 | 03:30:59 | 00:00:00 | |
| HSKMA3-T | 2026-09-01 13:48:52 | 51.61874 | 8.91623 | 93° | 40km/h | 842m | -2.6m/s | 12.1°C | 87.7% | 928.5hPa | 2.8V | 07:06:00 | 03:31:00 | 00:00:00 | |
| BIOWL1-15 | 2026-09-01 13:48:49 | 51.61876 | 8.91574 | 98° | 40km/h | 850m | -2.8m/s | 12°C | 88% | 927.5hPa | 2.8V | 07:06:00 | 03:30:57 | 00:00:00 | |
| BIOWL1-15 | 2026-09-01 13:48:48 | 51.61889 | 8.91492 | 108° | 44km/h | 863m | -2.5m/s | 11.9°C | 88.6% | 926.2hPa | 2.8V | 07:06:00 | 03:30:52 | 00:00:00 | |
| DM0DOS-11 | 2026-09-01 13:48:47 | 51.61889 | 8.91492 | 108° | 44km/h | 863m | -2.5m/s | 11.9°C | 85.6% | 926.2hPa | 2.8V | 07:05:56 | 03:30:52 | 00:00:00 | |
| BIOWL1-15 | 2026-09-01 13:48:47 | 51.61892 | 8.91474 | 107° | 47km/h | 866m | -2.4m/s | 11.9°C | 88.7% | 925.6hPa | 2.8V | 07:06:00 | 03:30:51 | 00:00:00 | |
| BIOWL9-15 | 2026-09-01 13:48:47 | 51.61883 | 8.91526 | 105° | 40km/h | 858m | -2.5m/s | 12.0°C | 85.1% | 926.6hPa | 2.8V | 00:00:00 | 00:00:00 | 00:00:00 | |
| BIOWL1-15 | 2026-09-01 13:48:41 | 51.61904 | 8.91418 | 107° | 51km/h | 873m | -2.7m/s | 11.9°C | 90.1% | 924.9hPa | 2.8V | 07:06:00 | 03:30:48 | 00:00:00 | |
| HSKMA3-T | 2026-09-01 13:48:41 | 51.61900 | 8.91438 | 108° | 47km/h | 871m | -2.7m/s | 11.9°C | 89.2% | 925.2hPa | 2.8V | 07:06:00 | 03:30:49 | 00:00:00 | |
| DM0DOS-11 | 2026-09-01 13:48:41 | 51.61904 | 8.91418 | 106° | 51km/h | 873m | -2.7m/s | 11.9°C | 87.6% | 924.9hPa | 2.8V | 07:06:00 | 03:30:48 | 00:00:00 | |
| DM0DOS-11 | 2026-09-01 13:48:41 | 51.61911 | 8.91377 | 104° | 55km/h | 879m | -2.6m/s | 11.9°C | 88% | 924.3hPa | 2.8V | 07:06:02 | 03:30:46 | 00:00:00 | |
| BIOWL1-15 | 2026-09-01 13:48:41 | 51.61908 | 8.91398 | 105° | 53km/h | 876m | -2.5m/s | 11.9°C | 90.4% | 924.7hPa | 2.8V | 07:06:51 | 03:30:47 | 00:00:00 | |
| BIOWL1-15 | 2026-09-01 13:48:38 | 51.61911 | 8.91377 | 105° | 55km/h | 879m | -2.6m/s | 11.9°C | 90% | 924.3hPa | 2.8V | 07:06:51 | 03:30:46 | 00:00:00 | |
| BIOWL1-15 | 2026-09-01 13:48:36 | 51.61920 | 8.91312 | 99° | 55km/h | 887m | -2.6m/s | 11.9°C | 91.3% | 923.4hPa | 2.8V | 07:06:51 | 03:30:43 | 00:00:00 | |
| BIOWL1-15 | 2026-09-01 13:48:36 | 51.61921 | 8.91290 | 95° | 53km/h | 889m | -3m/s | 11.8°C | 91.7% | 923.2hPa | 2.8V | 07:06:51 | 03:30:42 | 00:00:00 | |
| DM0DOS-11 | 2026-09-01 13:48:35 | 51.61921 | 8.91290 | 94° | 53km/h | 889m | -3m/s | 11.8°C | 89.1% | 923.2hPa | 2.8V | 07:06:06 | 03:30:42 | 00:00:00 | |
| DM0DOS-11 | 2026-09-01 13:48:35 | 51.61923 | 8.91247 | 93° | 51km/h | 895m | -2.9m/s | 11.8°C | 89.2% | 922.5hPa | 2.8V | 07:06:08 | 03:30:40 | 00:00:00 | |
| DM0DOS-11 | 2026-09-01 13:48:35 | 51.61924 | 8.91205 | 88° | 47km/h | 901m | -2.8m/s | 11.8°C | 89.5% | 921.8hPa | 2.8V | 07:06:10 | 03:30:38 | 00:00:00 | |
| BIOWL1-15 | 2026-09-01 13:48:32 | 51.61924 | 8.91205 | 89° | 47km/h | 901m | -2.8m/s | 11.8°C | 92.5% | 921.8hPa | 2.8V | 07:06:51 | 03:30:38 | 00:00:00 | |
| HSKMA3-T | 2026-09-01 13:48:31 | 51.61924 | 8.91226 | 91° | 53km/h | 898m | -3.1m/s | 11.8°C | 92.7% | 922.1hPa | 2.8V | 07:06:51 | 03:30:39 | 00:00:00 | |
| DM0DOS-11 | 2026-09-01 13:48:29 | 51.61923 | 8.91166 | 88° | 47km/h | 907m | -2.8m/s | 11.7°C | 89.7% | 921.1hPa | 2.7V | 07:06:12 | 03:30:36 | 00:00:00 | |
| BIOWL1-15 | 2026-09-01 13:48:28 | 51.61923 | 8.91166 | 88° | 47km/h | 907m | -2.8m/s | 11.7°C | 92.8% | 921.1hPa | 2.7V | 07:06:51 | 03:30:36 | 00:00:00 | |
| BIOWL1-15 | 2026-09-01 13:48:27 | 51.61923 | 8.91147 | 89° | 46km/h | 910m | -2.8m/s | 11.7°C | 93.2% | 921hPa | 2.8V | 07:06:51 | 03:30:35 | 00:00:00 | |
| BIOWL1-15 | 2026-09-01 13:48:26 | 51.61923 | 8.91129 | 88° | 42km/h | 913m | -2.7m/s | 11.6°C | 93.5% | 920.6hPa | 2.8V | 07:06:51 | 03:30:34 | 00:00:00 | |
| DM0DOS-11 | 2026-09-01 13:48:23 | 51.61924 | 8.91063 | 96° | 38km/h | 923m | -2.4m/s | 11.6°C | 91.7% | 919.4hPa | 2.8V | 07:06:18 | 03:30:30 | 00:00:00 | |
| DM0DOS-11 | 2026-09-01 13:48:23 | 51.61927 | 8.91032 | 103° | 38km/h | 928m | -2.5m/s | 11.5°C | 92.1% | 918.8hPa | 2.8V | 07:06:20 | 03:30:28 | 00:00:00 | |
| BIOWL1-15 | 2026-09-01 13:48:22 | 51.61927 | 8.91032 | 104° | 38km/h | 928m | -2.5m/s | 11.5°C | 94.8% | 918.8hPa | 2.8V | 07:06:51 | 03:30:28 | 00:00:00 | |
| HSKMA3-T | 2026-09-01 13:48:21 | 51.61926 | 8.91048 | 98° | 40km/h | 925m | -2.6m/s | 11.6°C | 94.1% | 919.1hPa | 2.8V | 07:06:51 | 03:30:29 | 00:00:00 | |
| BIOWL1-15 | 2026-09-01 13:48:18 | 51.61933 | 8.91000 | 109° | 40km/h | 933m | -2.6m/s | 11.5°C | 95.6% | 918.2hPa | 2.8V | 07:06:51 | 03:30:26 | 00:00:00 | |
| DM0DOS-11 | 2026-09-01 13:48:17 | 51.61959 | 8.90874 | 106° | 51km/h | 951m | -2.7m/s | 11.4°C | 93.1% | 916hPa | 2.7V | 07:06:29 | 03:30:19 | 00:00:00 | |
| BIOWL1-15 | 2026-09-01 13:48:16 | 51.61940 | 8.90968 | 110° | 46km/h | 938m | -2.7m/s | 11.5°C | 96.4% | 917.5hPa | 2.8V | 07:06:51 | 03:30:24 | 00:00:00 | |
| BIOWL1-15 | 2026-09-01 13:48:14 | 51.61959 | 8.90874 | 107° | 51km/h | 952m | -2.7m/s | 11.4°C | 96% | 916hPa | 2.7V | 07:06:51 | 03:30:19 | 00:00:00 | |
| DM0DOS-11 | 2026-09-01 13:48:11 | 51.61963 | 8.90853 | 102° | 55km/h | 954m | -2.6m/s | 11.4°C | 94.5% | 915.8hPa | 2.8V | 07:06:30 | 03:30:18 | 00:00:00 | |
| DM0DOS-11 | 2026-09-01 13:48:11 | 51.61971 | 8.90768 | 94° | 51km/h | 965m | -2.9m/s | 11.3°C | 95% | 914.5hPa | 2.8V | 07:06:34 | 03:30:14 | 00:00:00 | |
| BIOWL1-15 | 2026-09-01 13:48:11 | 51.61965 | 8.90832 | 103° | 53km/h | 957m | -2.7m/s | 11.4°C | 96.5% | 915.5hPa | 2.8V | 07:06:51 | 03:30:17 | 00:00:00 | |
| HSKMA3-T | 2026-09-01 13:48:10 | 51.61962 | 8.90853 | 103° | 55km/h | 954m | -2.6m/s | 11.4°C | 97.2% | 915.8hPa | 2.8V | 07:06:51 | 03:30:18 | 00:00:00 | |
| BIOWL1-15 | 2026-09-01 13:48:07 | 51.61973 | 8.90725 | 94° | 51km/h | 970m | -2.6m/s | 11.3°C | 97.2% | 914hPa | 2.8V | 07:06:51 | 03:30:12 | 00:00:00 | |
| BIOWL1-15 | 2026-09-01 13:48:07 | 51.61973 | 8.90705 | 90° | 49km/h | 973m | -2.5m/s | 11.2°C | 97.8% | 913.7hPa | 2.8V | 07:06:51 | 03:30:11 | 00:00:00 | |
| DM0DOS-11 | 2026-09-01 13:48:05 | 51.61973 | 8.90647 | 89° | 46km/h | 981m | -2.5m/s | 11.1°C | 94.4% | 912.9hPa | 2.8V | 07:06:40 | 03:30:08 | 00:00:00 | |
| BIOWL1-15 | 2026-09-01 13:48:01 | 51.61973 | 8.90665 | 87° | 46km/h | 978m | -2.8m/s | 11.2°C | 97.7% | 913.1hPa | 2.8V | 07:06:51 | 03:30:09 | 00:00:00 | |
| HSKMA3-T | 2026-09-01 13:48:00 | 51.61973 | 8.90647 | 89° | 46km/h | 981m | -2.6m/s | 11.1°C | 97.1% | 912.9hPa | 2.8V | 07:06:51 | 03:30:08 | 00:00:00 | |
| BIOWL1-15 | 2026-09-01 13:47:59 | 51.61973 | 8.90629 | 88° | 44km/h | 983m | -2.8m/s | 11.1°C | 97.5% | 912.5hPa | 2.8V | 07:06:51 | 03:30:07 | 00:00:00 | |
| BIOWL1-15 | 2026-09-01 13:47:57 | 51.61976 | 8.90549 | 104° | 37km/h | 995m | -2.5m/s | 11°C | 98.5% | 911.3hPa | 2.8V | 07:06:51 | 03:30:02 | 00:00:00 | |
| BIOWL1-15 | 2026-09-01 13:47:57 | 51.61978 | 8.90534 | 106° | 38km/h | 998m | -2.7m/s | 11°C | 98.1% | 910.9hPa | 2.8V | 07:06:51 | 03:30:01 | 00:00:00 | |
| BIOWL1-15 | 2026-09-01 13:47:52 | 51.61996 | 8.90449 | 106° | 49km/h | 1011m | -2m/s | 10.9°C | 99.4% | 909.6hPa | 2.8V | 07:07:42 | 03:29:56 | 00:00:00 | |
| BIOWL1-15 | 2026-09-01 13:47:51 | 51.62000 | 8.90429 | 104° | 49km/h | 1013m | -2.8m/s | 10.9°C | 99.4% | 909.2hPa | 2.8V | 07:07:42 | 03:29:55 | 00:00:00 | |
| HSKMA3-T | 2026-09-01 13:47:49 | 51.61993 | 8.90468 | 109° | 47km/h | 1008m | -2.3m/s | 11°C | 99.2% | 910hPa | 2.8V | 07:06:51 | 03:29:57 | 00:00:00 | |
| BIOWL1-15 | 2026-09-01 13:47:45 | 51.62005 | 8.90371 | 94° | 46km/h | 1020m | -2.3m/s | 10.9°C | 99.9% | 908.8hPa | 2.8V | 07:07:42 | 03:29:52 | 00:00:00 | |
| BIOWL1-15 | 2026-09-01 13:47:45 | 51.62006 | 8.90352 | 91° | 46km/h | 1023m | -2.3m/s | 10.9°C | 100% | 908.3hPa | 2.8V | 07:07:42 | 03:29:51 | 00:00:00 | |
| BIOWL9-15 | 2026-09-01 13:47:44 | 51.62005 | 8.90371 | 93° | 46km/h | 1020m | -2.3m/s | 10.9°C | 97.5% | 908.8hPa | 2.8V | 00:00:00 | 00:00:00 | 00:00:00 | |
| DM0DOS-11 | 2026-09-01 13:47:42 | 51.62006 | 8.90317 | 92° | 40km/h | 1027m | -2.3m/s | 10.8°C | 97.5% | 907.9hPa | 2.8V | 07:06:59 | 03:29:49 | 00:00:00 | |
| DM0DOS-11 | 2026-09-01 13:47:42 | 51.62012 | 8.90257 | 104° | 38km/h | 1036m | -2.2m/s | 10.8°C | 97.1% | 906.9hPa | 2.8V | 07:07:03 | 03:29:45 | 00:00:00 | |
| BIOWL1-15 | 2026-09-01 13:47:41 | 51.62006 | 8.90317 | 92° | 40km/h | 1027m | -2.3m/s | 10.9°C | 100% | 908hPa | 2.8V | 07:07:42 | 03:29:49 | 00:00:00 | |
| BIOWL1-15 | 2026-09-01 13:47:39 | 51.62008 | 8.90287 | 97° | 37km/h | 1032m | -2.4m/s | 10.8°C | 99.3% | 907.4hPa | 2.7V | 07:07:42 | 03:29:47 | 00:00:00 | |
| BIOWL1-15 | 2026-09-01 13:47:38 | 51.62010 | 8.90272 | 103° | 37km/h | 1034m | -2.4m/s | 10.8°C | 99.9% | 907hPa | 2.8V | 07:07:42 | 03:29:46 | 00:00:00 | |
| BIOWL1-15 | 2026-09-01 13:47:37 | 51.62012 | 8.90257 | 105° | 38km/h | 1036m | -2.2m/s | 10.8°C | 99.5% | 906.9hPa | 2.8V | 07:07:42 | 03:29:45 | 00:00:00 | |
| DM0DOS-11 | 2026-09-01 13:47:36 | 51.62018 | 8.90225 | 106° | 44km/h | 1042m | -2.5m/s | 10.7°C | 98.4% | 906.3hPa | 2.8V | 07:07:05 | 03:29:43 | 00:00:00 | |
| DM0DOS-11 | 2026-09-01 13:47:36 | 51.62025 | 8.90188 | 104° | 49km/h | 1047m | -2.2m/s | 10.7°C | 97.1% | 905.9hPa | 2.8V | 07:07:07 | 03:29:41 | 00:00:00 | |
| DM0DOS-11 | 2026-09-01 13:47:36 | 51.62029 | 8.90149 | 96° | 47km/h | 1052m | -2.5m/s | 10.7°C | 99.4% | 905.3hPa | 2.8V | 07:07:09 | 03:29:39 | 00:00:00 | |
| BIOWL1-15 | 2026-09-01 13:47:35 | 51.62018 | 8.90225 | 107° | 44km/h | 1042m | -2.5m/s | 10.7°C | 100% | 906.3hPa | 2.8V | 07:07:42 | 03:29:43 | 00:00:00 | |
| BIOWL1-15 | 2026-09-01 13:47:33 | 51.62025 | 8.90188 | 104° | 49km/h | 1047m | -2.2m/s | 10.7°C | 98.6% | 905.9hPa | 2.8V | 07:07:42 | 03:29:41 | 00:00:00 | |
| BIOWL1-15 | 2026-09-01 13:47:31 | 51.62029 | 8.90149 | 96° | 47km/h | 1052m | -2.5m/s | 10.7°C | 100% | 905.3hPa | 2.8V | 07:07:42 | 03:29:39 | 00:00:00 | |
| DM0DOS-11 | 2026-09-01 13:47:30 | 51.62031 | 8.90112 | 92° | 42km/h | 1056m | -2.1m/s | 10.6°C | 98.5% | 904.9hPa | 2.8V | 07:07:11 | 03:29:37 | 00:00:00 | |
| DM0DOS-11 | 2026-09-01 13:47:30 | 51.62035 | 8.90051 | 103° | 37km/h | 1065m | -2.8m/s | 10.6°C | 0% | 903.9hPa | 2.8V | 07:07:15 | 03:29:33 | 00:00:00 | |
| BIOWL1-15 | 2026-09-01 13:47:30 | 51.62030 | 8.90130 | 94° | 46km/h | 1054m | -2.2m/s | 10.7°C | 99.7% | 905hPa | 2.8V | 07:07:42 | 03:29:38 | 00:00:00 | |
| BIOWL1-15 | 2026-09-01 13:47:29 | 51.62031 | 8.90112 | 92° | 42km/h | 1056m | -2.1m/s | 10.6°C | 99.5% | 904.9hPa | 2.8V | 07:07:42 | 03:29:37 | 00:00:00 | |
| BIOWL1-15 | 2026-09-01 13:47:28 | 51.62031 | 8.90096 | 92° | 38km/h | 1059m | -2m/s | 10.6°C | 100% | 904.6hPa | 2.8V | 07:07:42 | 03:29:36 | 00:00:00 | |
| HSKMA3-T | 2026-09-01 13:47:27 | 51.62032 | 8.90080 | 97° | 37km/h | 1060m | -1.8m/s | 10.6°C | 100% | 904.3hPa | 2.8V | 07:07:42 | 03:29:35 | 00:00:00 | |
| BIOWL1-15 | 2026-09-01 13:47:26 | 51.62035 | 8.90050 | 104° | 37km/h | 1065m | -2.8m/s | 10.6°C | 100% | 903.9hPa | 2.8V | 07:07:42 | 03:29:33 | 00:00:00 | |
| BIOWL1-15 | 2026-09-01 13:47:26 | 51.62038 | 8.90035 | 105° | 40km/h | 1067m | -2.2m/s | 10.6°C | 100% | 903.5hPa | 2.7V | 07:07:42 | 03:29:32 | 00:00:00 | |
| DM0DOS-11 | 2026-09-01 13:47:24 | 51.62046 | 8.89984 | 102° | 47km/h | 1074m | -2.2m/s | 10.6°C | 99.5% | 902.8hPa | 2.8V | 07:07:19 | 03:29:29 | 00:00:00 | |
| BIOWL1-15 | 2026-09-01 13:47:22 | 51.62048 | 8.89843 | 88° | 37km/h | 1095m | -2.9m/s | 10.4°C | 100% | 900.7hPa | 2.8V | 07:07:42 | 03:29:21 | 00:00:00 | |
| BIOWL1-15 | 2026-09-01 13:47:22 | 51.62048 | 8.89828 | 91° | 35km/h | 1097m | -2.3m/s | 10.5°C | 100% | 900.3hPa | 2.8V | 07:07:42 | 03:29:20 | 00:00:00 | |
| HSKMA3-T | 2026-09-01 13:47:17 | 51.62050 | 8.89908 | 90° | 44km/h | 1084m | -2.3m/s | 10.5°C | 100% | 901.8hPa | 2.8V | 07:07:42 | 03:29:25 | 00:00:00 | |
| BIOWL1-15 | 2026-09-01 13:47:17 | 51.62049 | 8.89814 | 93° | 33km/h | 1099m | -2m/s | 10.4°C | 100% | 900.1hPa | 2.8V | 07:07:42 | 03:29:19 | 00:00:00 | |
| BIOWL1-15 | 2026-09-01 13:47:09 | 51.62050 | 8.89788 | 99° | 33km/h | 1104m | -2.5m/s | 10.4°C | 100% | 899.5hPa | 2.7V | 07:07:42 | 03:29:17 | 00:00:00 | |
| DO2JMG | 2026-09-01 13:47:08 | 51.62052 | 8.89774 | 102° | 33km/h | 1106m | -2.2m/s | 10.4°C | 100% | 899.3hPa | 2.8V | 07:07:42 | 03:29:16 | 00:00:00 | |
| BIOWL1-15 | 2026-09-01 13:47:07 | 51.62054 | 8.89761 | 107° | 35km/h | 1108m | -2.1m/s | 10.4°C | 100% | 899hPa | 2.8V | 07:07:42 | 03:29:15 | 00:00:00 | |
| DM0DOS-11 | 2026-09-01 13:47:06 | 51.62060 | 8.89733 | 107° | 38km/h | 1113m | -2.4m/s | 10.3°C | 0% | 898.6hPa | 2.8V | 07:07:35 | 03:29:13 | 00:00:00 | |
| DM0DOS-11 | 2026-09-01 13:47:06 | 51.62066 | 8.89702 | 109° | 40km/h | 1118m | -2.3m/s | 10.3°C | 0% | 897.9hPa | 2.8V | 07:07:37 | 03:29:11 | 00:00:00 | |
| DM0DOS-11 | 2026-09-01 13:47:06 | 51.62072 | 8.89669 | 106° | 46km/h | 1123m | -2.6m/s | 10.3°C | 0% | 897.5hPa | 2.8V | 07:07:39 | 03:29:09 | 00:00:00 | |
| BIOWL1-15 | 2026-09-01 13:47:05 | 51.62060 | 8.89733 | 108° | 38km/h | 1113m | -2.4m/s | 10.3°C | 100% | 898.6hPa | 2.8V | 07:07:42 | 03:29:13 | 00:00:00 | |
| BIOWL1-15 | 2026-09-01 13:47:04 | 51.62063 | 8.89718 | 107° | 38km/h | 1116m | -2.6m/s | 10.3°C | 100% | 898.2hPa | 2.8V | 07:07:42 | 03:29:12 | 00:00:00 | |
| BIOWL1-15 | 2026-09-01 13:47:03 | 51.62066 | 8.89702 | 109° | 40km/h | 1118m | -2.3m/s | 10.3°C | 100% | 897.9hPa | 2.8V | 07:07:42 | 03:29:11 | 00:00:00 | |
| DO2JMG | 2026-09-01 13:47:02 | 51.62069 | 8.89686 | 108° | 44km/h | 1120m | -2.9m/s | 10.3°C | 100% | 897.8hPa | 2.8V | 07:07:42 | 03:29:10 | 00:00:00 | |
| BIOWL1-15 | 2026-09-01 13:47:01 | 51.62072 | 8.89669 | 107° | 46km/h | 1123m | -2.7m/s | 10.3°C | 100% | 897.5hPa | 2.8V | 07:07:42 | 03:29:09 | 00:00:00 | |
| DM0DOS-11 | 2026-09-01 13:47:00 | 51.62078 | 8.89633 | 102° | 46km/h | 1128m | -2.2m/s | 10.3°C | 0% | 896.8hPa | 2.8V | 07:07:41 | 03:29:07 | 00:00:00 | |
| BIOWL1-15 | 2026-09-01 13:47:00 | 51.62076 | 8.89651 | 105° | 46km/h | 1126m | -2.5m/s | 10.3°C | 100% | 897.2hPa | 2.8V | 07:07:42 | 03:29:08 | 00:00:00 | |
| BIOWL1-15 | 2026-09-01 13:46:58 | 51.62082 | 8.89595 | 99° | 49km/h | 1133m | -2.2m/s | 10.2°C | 100% | 896.3hPa | 2.8V | 07:08:33 | 03:29:05 | 00:00:00 | |
| DO2JMG | 2026-09-01 13:46:58 | 51.62081 | 8.89614 | 99° | 47km/h | 1130m | -2.4m/s | 10.3°C | 100% | 896.6hPa | 2.8V | 07:07:42 | 03:29:06 | 00:00:00 | |
| HSKMA3-T | 2026-09-01 13:46:56 | 51.62084 | 8.89576 | 95° | 46km/h | 1135m | -2.8m/s | 10.2°C | 100% | 896.1hPa | 2.8V | 07:08:33 | 03:29:04 | 00:00:00 | |
| BIOWL7-15 | 2026-09-01 13:46:55 | 51.62084 | 8.89576 | 96° | 46km/h | 1135m | -2.8m/s | 10.2°C | 0% | 896.2hPa | 2.8V | 00:00:00 | 00:00:00 | 00:00:00 | |
| DM0DOS-11 | 2026-09-01 13:46:55 | 51.62086 | 8.89481 | 88° | 44km/h | 1148m | -2.5m/s | 10.2°C | 0% | 894.6hPa | 2.8V | 07:07:49 | 03:28:59 | 00:00:00 | |
| DM0DOS-11 | 2026-09-01 13:46:55 | 51.62085 | 8.89445 | 85° | 44km/h | 1152m | -2.4m/s | 10.1°C | 0% | 893.9hPa | 2.8V | 07:07:51 | 03:28:57 | 00:00:00 | |
| BIOWL1-15 | 2026-09-01 13:46:54 | 51.62086 | 8.89537 | 92° | 49km/h | 1140m | -2.7m/s | 10.2°C | 100% | 895.4hPa | 2.7V | 07:08:33 | 03:29:02 | 00:00:00 | |
| BIOWL1-15 | 2026-09-01 13:46:52 | 51.62086 | 8.89499 | 89° | 44km/h | 1145m | -2.4m/s | 10.2°C | 100% | 894.8hPa | 2.8V | 07:08:33 | 03:29:00 | 00:00:00 | |
| BIOWL1-15 | 2026-09-01 13:46:51 | 51.62086 | 8.89481 | 89° | 44km/h | 1148m | -2.5m/s | 10.2°C | 100% | 894.6hPa | 2.8V | 07:08:33 | 03:28:59 | 00:00:00 | |
| BIOWL1-15 | 2026-09-01 13:46:49 | 51.62085 | 8.89445 | 86° | 44km/h | 1152m | -2.4m/s | 10.1°C | 100% | 893.9hPa | 2.8V | 07:08:33 | 03:28:57 | 00:00:00 | |
| DM0DOS-11 | 2026-09-01 13:46:48 | 51.62080 | 8.89381 | 81° | 37km/h | 1163m | -2.5m/s | 10.1°C | 0% | 892.8hPa | 2.8V | 07:07:55 | 03:28:53 | 00:00:00 | |
| BIOWL1-15 | 2026-09-01 13:46:47 | 51.62083 | 8.89411 | 84° | 40km/h | 1158m | -2.5m/s | 10.1°C | 100% | 893.3hPa | 2.8V | 07:08:33 | 03:28:55 | 00:00:00 | |
| BIOWL1-15 | 2026-09-01 13:46:45 | 51.62080 | 8.89381 | 81° | 37km/h | 1163m | -2.5m/s | 10.1°C | 100% | 892.8hPa | 2.8V | 07:08:33 | 03:28:53 | 00:00:00 | |
| BIOWL1-15 | 2026-09-01 13:46:43 | 51.62078 | 8.89353 | 84° | 33km/h | 1168m | -2.9m/s | 10.1°C | 100% | 892.2hPa | 2.8V | 07:08:33 | 03:28:51 | 00:00:00 | |
| DM0DOS-11 | 2026-09-01 13:46:42 | 51.62077 | 8.89327 | 89° | 31km/h | 1173m | -2.4m/s | 10.1°C | 0% | 891.8hPa | 2.8V | 07:07:59 | 03:28:49 | 00:00:00 | |
| DM0DOS-11 | 2026-09-01 13:46:42 | 51.62077 | 8.89301 | 95° | 33km/h | 1178m | -2.4m/s | 10.1°C | 0% | 891.2hPa | 2.8V | 07:08:01 | 03:28:47 | 00:00:00 | |
| DM0DOS-11 | 2026-09-01 13:46:42 | 51.62080 | 8.89272 | 98° | 38km/h | 1183m | -2.4m/s | 10.1°C | 0% | 890.6hPa | 2.8V | 07:08:03 | 03:28:45 | 00:00:00 | |
| BIOWL1-15 | 2026-09-01 13:46:42 | 51.62077 | 8.89340 | 86° | 33km/h | 1171m | -2.6m/s | 10.1°C | 100% | 891.8hPa | 2.8V | 07:08:33 | 03:28:50 | 00:00:00 | |
| BIOWL1-15 | 2026-09-01 13:46:40 | 51.62077 | 8.89314 | 92° | 33km/h | 1176m | -2.4m/s | 10.1°C | 100% | 891.3hPa | 2.7V | 07:08:33 | 03:28:48 | 00:00:00 | |
| BIOWL1-15 | 2026-09-01 13:46:38 | 51.62079 | 8.89287 | 99° | 37km/h | 1180m | -2.4m/s | 10.1°C | 100% | 890.9hPa | 2.8V | 07:08:33 | 03:28:46 | 00:00:00 | |
| BIOWL1-15 | 2026-09-01 13:46:37 | 51.62085 | 8.89203 | 94° | 46km/h | 1194m | -2.9m/s | 10.1°C | 100% | 889.4hPa | 2.8V | 07:08:33 | 03:28:41 | 00:00:00 | |
| DM0DOS-11 | 2026-09-01 13:46:36 | 51.62085 | 8.89203 | 93° | 44km/h | 1194m | -2.9m/s | 10.1°C | 0% | 889.4hPa | 2.8V | 07:08:07 | 03:28:41 | 00:00:00 | |
| HSKMA3-T | 2026-09-01 13:46:35 | 51.62083 | 8.89239 | 97° | 44km/h | 1188m | -3.1m/s | 10.1°C | 100% | 890.1hPa | 2.8V | 07:08:33 | 03:28:43 | 00:00:00 | |
| BIOWL1-15 | 2026-09-01 13:46:32 | 51.62086 | 8.89185 | 93° | 46km/h | 1197m | -2.8m/s | 10.1°C | 100% | 889.2hPa | 2.8V | 07:08:33 | 03:28:40 | 00:00:00 | |
| BIOWL1-15 | 2026-09-01 13:46:31 | 51.62086 | 8.89166 | 91° | 46km/h | 1200m | -2.9m/s | 10.1°C | 100% | 888.9hPa | 2.8V | 07:08:33 | 03:28:39 | 00:00:00 | |
| BIOWL1-15 | 2026-09-01 13:46:29 | 51.62085 | 8.89109 | 86° | 47km/h | 1208m | -2.8m/s | 10°C | 100% | 887.9hPa | 2.8V | 07:08:33 | 03:28:36 | 00:00:00 | |
| BIOWL1-15 | 2026-09-01 13:46:29 | 51.62084 | 8.89090 | 85° | 46km/h | 1211m | -2.9m/s | 10°C | 100% | 887.5hPa | 2.8V | 07:08:33 | 03:28:35 | 00:00:00 | |
| HSKMA3-T | 2026-09-01 13:46:25 | 51.62081 | 8.89053 | 80° | 46km/h | 1216m | -2.9m/s | 10°C | 100% | 887hPa | 2.8V | 07:08:33 | 03:28:33 | 00:00:00 | |
| DM0DOS-11 | 2026-09-01 13:46:24 | 51.62076 | 8.89018 | 75° | 42km/h | 1222m | -2.9m/s | 9.9°C | 0% | 886.1hPa | 2.8V | 07:08:17 | 03:28:31 | 00:00:00 | |
| BIOWL1-15 | 2026-09-01 13:46:23 | 51.62076 | 8.89018 | 75° | 44km/h | 1222m | -2.9m/s | 10°C | 100% | 886.2hPa | 2.8V | 07:08:33 | 03:28:31 | 00:00:00 | |
| BIOWL1-15 | 2026-09-01 13:46:21 | 51.62070 | 8.88985 | 72° | 40km/h | 1228m | -3m/s | 9.9°C | 100% | 885.6hPa | 2.8V | 07:08:33 | 03:28:29 | 00:00:00 | |
| BIOWL1-15 | 2026-09-01 13:46:20 | 51.62067 | 8.88971 | 72° | 38km/h | 1231m | -2.9m/s | 9.9°C | 100% | 885.5hPa | 2.8V | 07:08:33 | 03:28:28 | 00:00:00 | |
| BIOWL1-15 | 2026-09-01 13:46:19 | 51.62064 | 8.88956 | 72° | 37km/h | 1234m | -2.8m/s | 9.9°C | 100% | 885hPa | 2.8V | 07:08:33 | 03:28:27 | 00:00:00 | |
| DM0DOS-11 | 2026-09-01 13:46:18 | 51.62059 | 8.88929 | 74° | 35km/h | 1239m | -2.9m/s | 9.9°C | 0% | 884.5hPa | 2.8V | 07:08:23 | 03:28:25 | 00:00:00 | |
| DM0DOS-11 | 2026-09-01 13:46:18 | 51.62055 | 8.88903 | 78° | 31km/h | 1245m | -2.7m/s | 9.9°C | 0% | 884hPa | 2.8V | 07:08:25 | 03:28:23 | 00:00:00 | |
| DM0DOS-11 | 2026-09-01 13:46:18 | 51.62053 | 8.88878 | 82° | 31km/h | 1250m | -2.9m/s | 9.8°C | 0% | 883.3hPa | 2.8V | 07:08:27 | 03:28:21 | 00:00:00 | |
| BIOWL1-15 | 2026-09-01 13:46:17 | 51.62057 | 8.88916 | 77° | 33km/h | 1242m | -2.9m/s | 9.9°C | 100% | 884.2hPa | 2.8V | 07:08:33 | 03:28:24 | 00:00:00 | |
| BIOWL1-15 | 2026-09-01 13:46:17 | 51.62055 | 8.88903 | 79° | 31km/h | 1245m | -2.7m/s | 9.9°C | 100% | 884hPa | 2.8V | 07:08:33 | 03:28:23 | 00:00:00 | |
| HSKMA3-T | 2026-09-01 13:46:14 | 51.62054 | 8.88890 | 81° | 31km/h | 1248m | -2.7m/s | 9.8°C | 100% | 883.6hPa | 2.8V | 07:08:33 | 03:28:22 | 00:00:00 | |
| BIOWL1-15 | 2026-09-01 13:46:14 | 51.62052 | 8.88865 | 85° | 31km/h | 1253m | -2.9m/s | 9.8°C | 100% | 883hPa | 2.7V | 07:08:33 | 03:28:20 | 00:00:00 | |
| DM0DOS-11 | 2026-09-01 13:46:12 | 51.62051 | 8.88827 | 90° | 33km/h | 1262m | -2.9m/s | 9.7°C | 0% | 882.1hPa | 2.8V | 07:08:31 | 03:28:17 | 00:00:00 | |
| BIOWL1-15 | 2026-09-01 13:46:11 | 51.62051 | 8.88853 | 87° | 31km/h | 1256m | -3m/s | 9.8°C | 100% | 882.8hPa | 2.8V | 07:08:33 | 03:28:19 | 00:00:00 | |
| BIOWL1-15 | 2026-09-01 13:46:10 | 51.62051 | 8.88840 | 89° | 31km/h | 1259m | -2.8m/s | 9.8°C | 100% | 882.4hPa | 2.8V | 07:08:33 | 03:28:18 | 00:00:00 | |
| BIOWL1-15 | 2026-09-01 13:46:08 | 51.62052 | 8.88782 | 93° | 40km/h | 1270m | -2.7m/s | 9.6°C | 100% | 881.2hPa | 2.8V | 07:09:24 | 03:28:14 | 00:00:00 | |
| BIOWL1-15 | 2026-09-01 13:46:08 | 51.62053 | 8.88765 | 92° | 42km/h | 1273m | -2.7m/s | 9.6°C | 100% | 881.1hPa | 2.8V | 07:09:24 | 03:28:13 | 00:00:00 | |
| DM0DOS-11 | 2026-09-01 13:46:06 | 51.62053 | 8.88765 | 91° | 42km/h | 1273m | -2.7m/s | 9.6°C | 0% | 881.1hPa | 2.8V | 07:08:35 | 03:28:13 | 00:00:00 | |
| DM0DOS-11 | 2026-09-01 13:46:06 | 51.62051 | 8.88692 | 83° | 46km/h | 1284m | -3m/s | 9.4°C | 0% | 879.7hPa | 2.8V | 07:08:39 | 03:28:09 | 00:00:00 | |
| BIOWL1-15 | 2026-09-01 13:46:06 | 51.62053 | 8.88748 | 90° | 44km/h | 1276m | -2.8m/s | 9.5°C | 100% | 880.8hPa | 2.8V | 07:09:24 | 03:28:12 | 00:00:00 | |
| HSKMA3-T | 2026-09-01 13:46:03 | 51.62053 | 8.88729 | 88° | 46km/h | 1278m | -2.8m/s | 9.5°C | 100% | 880.4hPa | 2.8V | 07:09:24 | 03:28:11 | 00:00:00 | |
| BIOWL1-15 | 2026-09-01 13:46:02 | 51.62039 | 8.88601 | 73° | 44km/h | 1299m | -2.9m/s | 9.3°C | 100% | 878.1hPa | 2.8V | 07:09:24 | 03:28:04 | 00:00:00 | |
| BIOWL1-15 | 2026-09-01 13:46:01 | 51.62035 | 8.88584 | 72° | 42km/h | 1302m | -2.9m/s | 9.3°C | 100% | 878hPa | 2.8V | 07:09:24 | 03:28:03 | 00:00:00 | |
| DM0DOS-11 | 2026-09-01 13:46:00 | 51.62047 | 8.88655 | 78° | 47km/h | 1290m | -3m/s | 9.4°C | 0% | 879.1hPa | 2.7V | 07:08:41 | 03:28:07 | 00:00:00 | |
| DM0DOS-11 | 2026-09-01 13:46:00 | 51.62035 | 8.88584 | 72° | 42km/h | 1301m | -2.9m/s | 9.3°C | 0% | 878hPa | 2.8V | 07:08:45 | 03:28:03 | 00:00:00 | |
| BIOWL1-15 | 2026-09-01 13:45:53 | 51.62022 | 8.88524 | 71° | 35km/h | 1313m | -3m/s | 9.2°C | 100% | 876.5hPa | 2.8V | 07:09:24 | 03:27:59 | 00:00:00 | |
| HSKMA3-T | 2026-09-01 13:45:52 | 51.62025 | 8.88538 | 70° | 37km/h | 1311m | -2.9m/s | 9.2°C | 100% | 876.9hPa | 2.8V | 07:09:24 | 03:28:00 | 00:00:00 | |
| BIOWL1-15 | 2026-09-01 13:45:49 | 51.62015 | 8.88486 | 78° | 31km/h | 1322m | -3.2m/s | 9.1°C | 100% | 875.6hPa | 2.8V | 07:09:24 | 03:27:56 | 00:00:00 | |
| BIOWL1-15 | 2026-09-01 13:45:49 | 51.62014 | 8.88473 | 82° | 31km/h | 1325m | -3.2m/s | 9.1°C | 100% | 875.5hPa | 2.8V | 07:09:24 | 03:27:55 | 00:00:00 | |
| BIOWL1-15 | 2026-09-01 13:45:45 | 51.62014 | 8.88385 | 91° | 42km/h | 1344m | -3.2m/s | 9°C | 100% | 873.4hPa | 2.8V | 07:09:24 | 03:27:49 | 00:00:00 | |
| HSKMA3-T | 2026-09-01 13:45:42 | 51.62013 | 8.88402 | 92° | 40km/h | 1341m | -3.2m/s | 9°C | 100% | 873.8hPa | 2.8V | 07:09:24 | 03:27:50 | 00:00:00 | |
| BIOWL1-15 | 2026-09-01 13:45:39 | 51.62013 | 8.88331 | 87° | 46km/h | 1354m | -3.2m/s | 8.9°C | 100% | 872.5hPa | 2.8V | 07:09:24 | 03:27:46 | 00:00:00 | |
| BIOWL1-15 | 2026-09-01 13:45:39 | 51.62012 | 8.88312 | 85° | 46km/h | 1357m | -3.1m/s | 8.9°C | 100% | 872hPa | 2.8V | 07:09:24 | 03:27:45 | 00:00:00 | |
| DM0DOS-11 | 2026-09-01 13:45:38 | 51.62012 | 8.88312 | 84° | 46km/h | 1357m | -3.1m/s | 8.9°C | 0% | 872hPa | 2.8V | 07:09:03 | 03:27:45 | 00:00:00 | |
| DM0DOS-11 | 2026-09-01 13:45:38 | 51.62009 | 8.88275 | 80° | 46km/h | 1363m | -3m/s | 8.9°C | 0% | 871.5hPa | 2.8V | 07:09:05 | 03:27:43 | 00:00:00 | |
| DO2JMG | 2026-09-01 13:45:36 | 51.62011 | 8.88294 | 83° | 46km/h | 1360m | -3.2m/s | 8.9°C | 100% | 871.6hPa | 2.8V | 07:10:15 | 03:27:44 | 00:00:00 | |
| BIOWL1-15 | 2026-09-01 13:45:35 | 51.62009 | 8.88275 | 80° | 46km/h | 1363m | -3m/s | 8.9°C | 100% | 871.5hPa | 2.8V | 07:09:24 | 03:27:43 | 00:00:00 | |
| BIOWL1-15 | 2026-09-01 13:45:33 | 51.62004 | 8.88239 | 76° | 46km/h | 1369m | -3m/s | 8.8°C | 100% | 870.8hPa | 2.7V | 07:09:24 | 03:27:41 | 00:00:00 | |
| DM0DOS-11 | 2026-09-01 13:45:32 | 51.61998 | 8.88205 | 72° | 42km/h | 1374m | -3m/s | 8.8°C | 0% | 870.2hPa | 2.8V | 07:09:09 | 03:27:39 | 00:00:00 | |
| DM0DOS-11 | 2026-09-01 13:45:32 | 51.61992 | 8.88174 | 70° | 38km/h | 1380m | -2.9m/s | 8.8°C | 0% | 869.6hPa | 2.8V | 07:09:11 | 03:27:37 | 00:00:00 | |
| BIOWL1-15 | 2026-09-01 13:45:32 | 51.62001 | 8.88222 | 74° | 44km/h | 1372m | -2.9m/s | 8.8°C | 100% | 870.6hPa | 2.8V | 07:09:24 | 03:27:40 | 00:00:00 | |
| HSKMA3-T | 2026-09-01 13:45:31 | 51.61998 | 8.88205 | 72° | 42km/h | 1375m | -3m/s | 8.8°C | 100% | 870.2hPa | 2.8V | 07:09:24 | 03:27:39 | 00:00:00 | |
| BIOWL1-15 | 2026-09-01 13:45:30 | 51.61995 | 8.88189 | 71° | 40km/h | 1377m | -3m/s | 8.8°C | 100% | 870.1hPa | 2.8V | 07:09:24 | 03:27:38 | 00:00:00 | |
| BIOWL1-15 | 2026-09-01 13:45:29 | 51.61992 | 8.88174 | 71° | 38km/h | 1380m | -2.9m/s | 8.8°C | 100% | 869.6hPa | 2.8V | 07:09:24 | 03:27:37 | 00:00:00 | |
| BIOWL1-15 | 2026-09-01 13:45:27 | 51.61986 | 8.88146 | 72° | 35km/h | 1387m | -3m/s | 8.7°C | 100% | 869hPa | 2.8V | 07:09:24 | 03:27:35 | 00:00:00 | |
| BIOWL1-15 | 2026-09-01 13:45:26 | 51.61983 | 8.88133 | 73° | 33km/h | 1390m | -3.2m/s | 8.7°C | 100% | 868.6hPa | 2.8V | 07:09:24 | 03:27:34 | 00:00:00 | |
| BIOWL1-15 | 2026-09-01 13:45:25 | 51.61981 | 8.88120 | 75° | 31km/h | 1393m | -3.1m/s | 8.7°C | 100% | 868.2hPa | 2.8V | 07:09:24 | 03:27:33 | 00:00:00 | |
| BIOWL1-15 | 2026-09-01 13:45:23 | 51.61978 | 8.88095 | 83° | 31km/h | 1399m | -3.2m/s | 8.6°C | 100% | 867.7hPa | 2.8V | 07:09:24 | 03:27:31 | 00:00:00 | |
| BIOWL1-15 | 2026-09-01 13:45:22 | 51.61977 | 8.88027 | 93° | 38km/h | 1414m | -3m/s | 8.5°C | 100% | 866.1hPa | 2.8V | 07:09:24 | 03:27:26 | 00:00:00 | |
| DM0DOS-11 | 2026-09-01 13:45:21 | 51.61977 | 8.88056 | 91° | 33km/h | 1408m | -3m/s | 8.6°C | 0% | 866.7hPa | 2.7V | 07:09:20 | 03:27:28 | 00:00:00 | |
| HSKMA3-T | 2026-09-01 13:45:20 | 51.61977 | 8.88056 | 91° | 33km/h | 1408m | -3m/s | 8.6°C | 100% | 866.7hPa | 2.7V | 07:09:24 | 03:27:28 | 00:00:00 | |
| BIOWL1-15 | 2026-09-01 13:45:19 | 51.61978 | 8.88012 | 93° | 40km/h | 1417m | -3m/s | 8.5°C | 100% | 865.7hPa | 2.8V | 07:09:24 | 03:27:25 | 00:00:00 | |
| BIOWL1-15 | 2026-09-01 13:45:16 | 51.61976 | 8.87903 | 82° | 47km/h | 1435m | -3.1m/s | 8.4°C | 100% | 863.7hPa | 2.8V | 07:10:15 | 03:27:19 | 00:00:00 | |
| BIOWL1-15 | 2026-09-01 13:45:15 | 51.61974 | 8.87884 | 80° | 47km/h | 1438m | -3.1m/s | 8.4°C | 100% | 863.6hPa | 2.8V | 07:10:15 | 03:27:18 | 00:00:00 | |
| DM0DOS-11 | 2026-09-01 13:45:15 | 51.61979 | 8.87960 | 89° | 46km/h | 1426m | -3m/s | 8.5°C | 0% | 864.8hPa | 2.8V | 07:09:26 | 03:27:22 | 00:00:00 | |
| DM0DOS-11 | 2026-09-01 13:45:15 | 51.61974 | 8.87884 | 80° | 47km/h | 1438m | -3.1m/s | 8.4°C | 0% | 863.6hPa | 2.8V | 07:09:30 | 03:27:18 | 00:00:00 | |
| HSKMA3-T | 2026-09-01 13:45:09 | 51.61972 | 8.87865 | 78° | 46km/h | 1441m | -3.3m/s | 8.3°C | 100% | 863hPa | 2.8V | 07:10:15 | 03:27:17 | 00:00:00 | |
| BIOWL1-15 | 2026-09-01 13:45:08 | 51.61969 | 8.87847 | 76° | 46km/h | 1444m | -3.4m/s | 8.4°C | 100% | 862.8hPa | 2.8V | 07:10:15 | 03:27:16 | 00:00:00 | |
| BIOWL1-15 | 2026-09-01 13:45:06 | 51.61953 | 8.87765 | 70° | 38km/h | 1460m | -3.4m/s | 8.1°C | 100% | 861hPa | 2.8V | 07:10:15 | 03:27:11 | 00:00:00 | |
| DO2JMG | 2026-09-01 13:45:06 | 51.61963 | 8.87812 | 72° | 44km/h | 1451m | -3.2m/s | 8.2°C | 100% | 862hPa | 2.8V | 07:10:15 | 03:27:14 | 00:00:00 | |
| BIOWL1-15 | 2026-09-01 13:45:06 | 51.61950 | 8.87751 | 71° | 37km/h | 1464m | -3.4m/s | 8.1°C | 100% | 860.8hPa | 2.8V | 07:10:15 | 03:27:10 | 00:00:00 | |
| BIOWL1-15 | 2026-09-01 13:45:00 | 51.61945 | 8.87724 | 74° | 33km/h | 1470m | -3.2m/s | 8.1°C | 100% | 860hPa | 2.8V | 07:10:15 | 03:27:08 | 00:00:00 | |
| BIOWL1-15 | 2026-09-01 13:44:59 | 51.61943 | 8.87711 | 76° | 31km/h | 1473m | -3.3m/s | 8°C | 100% | 859.5hPa | 2.8V | 07:10:15 | 03:27:07 | 00:00:00 | |
| BIOWL1-15 | 2026-09-01 13:44:58 | 51.61939 | 8.87673 | 86° | 33km/h | 1484m | -3.6m/s | 8°C | 100% | 858.5hPa | 2.8V | 07:10:15 | 03:27:04 | 00:00:00 | |
| BIOWL1-15 | 2026-09-01 13:44:57 | 51.61939 | 8.87660 | 88° | 33km/h | 1487m | -3.3m/s | 7.9°C | 100% | 858.1hPa | 2.7V | 07:10:15 | 03:27:03 | 00:00:00 | |
| BIOWL1-15 | 2026-09-01 13:44:53 | 51.61939 | 8.87632 | 92° | 37km/h | 1494m | -3.4m/s | 7.8°C | 100% | 857.6hPa | 2.8V | 07:10:15 | 03:27:01 | 00:00:00 | |
| DO2JMG | 2026-09-01 13:44:50 | 51.61940 | 8.87585 | 91° | 42km/h | 1504m | -3.6m/s | 7.8°C | 100% | 856.6hPa | 2.8V | 07:10:15 | 03:26:58 | 00:00:00 | |
| HSKMA3-T | 2026-09-01 13:44:49 | 51.61940 | 8.87567 | 90° | 44km/h | 1508m | -3.4m/s | 7.8°C | 100% | 856.1hPa | 2.8V | 07:10:15 | 03:26:57 | 00:00:00 | |
| BIOWL1-15 | 2026-09-01 13:44:47 | 51.61939 | 8.87531 | 86° | 46km/h | 1514m | -3.2m/s | 7.7°C | 100% | 855.5hPa | 2.8V | 07:10:15 | 03:26:55 | 00:00:00 | |
| BIOWL1-15 | 2026-09-01 13:44:45 | 51.61936 | 8.87493 | 79° | 47km/h | 1521m | -3.4m/s | 7.7°C | 100% | 854.8hPa | 2.8V | 07:10:15 | 03:26:53 | 00:00:00 | |
| BIOWL1-15 | 2026-09-01 13:44:44 | 51.61934 | 8.87475 | 78° | 46km/h | 1524m | -3.4m/s | 7.7°C | 100% | 854.4hPa | 2.8V | 07:10:15 | 03:26:52 | 00:00:00 | |
| BIOWL1-15 | 2026-09-01 13:44:43 | 51.61931 | 8.87457 | 76° | 46km/h | 1528m | -3.4m/s | 7.7°C | 100% | 854.1hPa | 2.8V | 07:10:15 | 03:26:51 | 00:00:00 | |
| DK9SH | 2026-09-01 13:44:42 | 51.61931 | 8.87457 | 77° | 46km/h | 1528m | -3.4m/s | 7.7°C | 0% | 854.1hPa | 2.8V | 07:10:00 | 00:00:00 | 00:00:00 | |
| DM0DOS-11 | 2026-09-01 13:44:42 | 51.61918 | 8.87391 | 69° | 38km/h | 1541m | -3.7m/s | 7.5°C | 0% | 852.7hPa | 2.8V | 07:10:01 | 03:26:47 | 00:00:00 | |
| BIOWL1-15 | 2026-09-01 13:44:41 | 51.61925 | 8.87423 | 71° | 42km/h | 1534m | -3.4m/s | 7.6°C | 100% | 853.3hPa | 2.8V | 07:10:15 | 03:26:49 | 00:00:00 | |
| BIOWL1-15 | 2026-09-01 13:44:40 | 51.61922 | 8.87407 | 71° | 42km/h | 1538m | -3.7m/s | 7.6°C | 100% | 853hPa | 2.8V | 07:10:15 | 03:26:48 | 00:00:00 | |
| BIOWL1-15 | 2026-09-01 13:44:39 | 51.61918 | 8.87391 | 70° | 38km/h | 1541m | -3.7m/s | 7.5°C | 100% | 852.7hPa | 2.8V | 07:10:15 | 03:26:47 | 00:00:00 | |
| HSKMA3-T | 2026-09-01 13:44:38 | 51.61915 | 8.87376 | 70° | 38km/h | 1545m | -3.9m/s | 7.5°C | 100% | 852.2hPa | 2.8V | 07:10:15 | 03:26:46 | 00:00:00 | |
| BIOWL1-15 | 2026-09-01 13:44:37 | 51.61912 | 8.87362 | 68° | 37km/h | 1549m | -3.5m/s | 7.5°C | 100% | 851.9hPa | 2.8V | 07:10:15 | 03:26:45 | 00:00:00 | |
| DO2JMG | 2026-09-01 13:44:35 | 51.61906 | 8.87335 | 72° | 33km/h | 1556m | -3.5m/s | 7.5°C | 100% | 851.3hPa | 2.8V | 07:10:15 | 03:26:43 | 00:00:00 | |
| BIOWL1-15 | 2026-09-01 13:44:35 | 51.61903 | 8.87323 | 71° | 31km/h | 1559m | -3.5m/s | 7.4°C | 100% | 850.7hPa | 2.8V | 07:10:15 | 03:26:42 | 00:00:00 | |
| DO2JMG | 2026-09-01 13:44:33 | 51.61900 | 8.87310 | 73° | 33km/h | 1562m | -3.3m/s | 7.4°C | 100% | 850.5hPa | 2.8V | 07:10:15 | 03:26:41 | 00:00:00 | |
| DO2JMG | 2026-09-01 13:44:32 | 51.61898 | 8.87298 | 78° | 31km/h | 1566m | -3.4m/s | 7.4°C | 100% | 850.1hPa | 2.8V | 07:10:15 | 03:26:40 | 00:00:00 | |
| DO2JMG | 2026-09-01 13:44:31 | 51.61897 | 8.87286 | 80° | 31km/h | 1569m | -3.3m/s | 7.4°C | 100% | 849.7hPa | 2.8V | 07:10:15 | 03:26:39 | 00:00:00 | |
| DM0DOS-11 | 2026-09-01 13:44:30 | 51.61890 | 8.87180 | 75° | 44km/h | 1591m | -3.2m/s | 7.4°C | 0% | 847.4hPa | 2.8V | 07:10:16 | 03:26:32 | 00:00:00 | |
| DO2JMG | 2026-09-01 13:44:29 | 51.61895 | 8.87260 | 89° | 33km/h | 1576m | -3.4m/s | 7.5°C | 100% | 849hPa | 2.8V | 07:10:15 | 03:26:37 | 00:00:00 | |
| HSKMA3-T | 2026-09-01 13:44:28 | 51.61895 | 8.87246 | 89° | 37km/h | 1579m | -3m/s | 7.5°C | 100% | 848.5hPa | 2.8V | 07:10:15 | 03:26:36 | 00:00:00 | |
| DO2JMG | 2026-09-01 13:44:27 | 51.61895 | 8.87231 | 88° | 38km/h | 1582m | -3.3m/s | 7.5°C | 100% | 848.3hPa | 2.8V | 07:10:15 | 03:26:35 | 00:00:00 | |
| DO2JMG | 2026-09-01 13:44:26 | 51.61894 | 8.87215 | 85° | 42km/h | 1585m | -3m/s | 7.5°C | 100% | 848.1hPa | 2.8V | 07:10:15 | 03:26:34 | 00:00:00 | |
| BIOWL1-15 | 2026-09-01 13:44:25 | 51.61893 | 8.87198 | 78° | 42km/h | 1588m | -3.1m/s | 7.4°C | 100% | 847.7hPa | 2.8V | 07:10:15 | 03:26:33 | 00:00:00 | |
| DM0DOS-11 | 2026-09-01 13:44:24 | 51.61880 | 8.87131 | 67° | 42km/h | 1601m | -3.4m/s | 7.4°C | 0% | 846.5hPa | 2.8V | 07:10:19 | 03:26:29 | 00:00:00 | |
| DM0DOS-11 | 2026-09-01 13:44:24 | 51.61872 | 8.87101 | 65° | 37km/h | 1608m | -3m/s | 7.3°C | 0% | 845.9hPa | 2.8V | 07:10:21 | 03:26:27 | 00:00:00 | |
| DO2JMG | 2026-09-01 13:44:24 | 51.61890 | 8.87180 | 76° | 44km/h | 1591m | -3.2m/s | 7.4°C | 100% | 847.5hPa | 2.8V | 07:14:30 | 03:26:32 | 00:00:00 | |
| DO2JMG | 2026-09-01 13:44:22 | 51.61884 | 8.87146 | 70° | 42km/h | 1597m | -3.3m/s | 7.4°C | 100% | 846.9hPa | 2.8V | 07:14:30 | 03:26:30 | 00:00:00 | |
| DO2JMG | 2026-09-01 13:44:21 | 51.61880 | 8.87131 | 68° | 42km/h | 1601m | -3.4m/s | 7.4°C | 100% | 846.5hPa | 2.8V | 07:14:30 | 03:26:29 | 00:00:00 | |
| BIOWL1-15 | 2026-09-01 13:44:19 | 51.61872 | 8.87101 | 66° | 37km/h | 1608m | -3m/s | 7.3°C | 100% | 845.9hPa | 2.8V | 07:11:06 | 03:26:27 | 00:00:00 | |
| DO2JMG | 2026-09-01 13:44:18 | 51.61869 | 8.87088 | 67° | 35km/h | 1611m | -2.8m/s | 7.3°C | 100% | 845.6hPa | 2.7V | 07:14:30 | 03:26:26 | 00:00:00 | |
| BIOWL1-15 | 2026-09-01 13:44:17 | 51.61865 | 8.87075 | 70° | 33km/h | 1613m | -3m/s | 7.3°C | 100% | 845.2hPa | 2.8V | 07:11:06 | 03:26:25 | 00:00:00 | |
| BIOWL1-15 | 2026-09-01 13:44:16 | 51.61863 | 8.87063 | 70° | 31km/h | 1616m | -3m/s | 7.3°C | 100% | 845hPa | 2.8V | 07:11:06 | 03:26:24 | 00:00:00 | |
| DO2JMG | 2026-09-01 13:44:15 | 51.61860 | 8.87051 | 70° | 29km/h | 1619m | -3.3m/s | 7.4°C | 100% | 844.4hPa | 2.8V | 07:14:30 | 03:26:23 | 00:00:00 | |
| BIOWL1-15 | 2026-09-01 13:44:14 | 51.61858 | 8.87040 | 75° | 29km/h | 1622m | -3.4m/s | 7.4°C | 100% | 844.4hPa | 2.8V | 07:11:06 | 03:26:22 | 00:00:00 | |
| BIOWL1-15 | 2026-09-01 13:44:13 | 51.61856 | 8.87028 | 79° | 27km/h | 1626m | -3.2m/s | 7.4°C | 100% | 843.9hPa | 2.8V | 07:11:06 | 03:26:21 | 00:00:00 | |
| DM0DOS-11 | 2026-09-01 13:44:12 | 51.61852 | 8.86981 | 85° | 33km/h | 1637m | -2.4m/s | 7.4°C | 0% | 842.9hPa | 2.8V | 07:10:31 | 03:26:17 | 00:00:00 | |
| DM0DOS-11 | 2026-09-01 13:44:12 | 51.61851 | 8.86952 | 82° | 40km/h | 1642m | -2.3m/s | 7.4°C | 0% | 842.4hPa | 2.8V | 07:10:33 | 03:26:15 | 00:00:00 | |
| BIOWL1-15 | 2026-09-01 13:44:11 | 51.61854 | 8.87006 | 84° | 29km/h | 1632m | -2.8m/s | 7.4°C | 100% | 843.4hPa | 2.8V | 07:11:06 | 03:26:19 | 00:00:00 | |
| BIOWL1-15 | 2026-09-01 13:44:10 | 51.61853 | 8.86994 | 84° | 31km/h | 1635m | -2.7m/s | 7.4°C | 100% | 843.2hPa | 2.8V | 07:11:06 | 03:26:18 | 00:00:00 | |
| BIOWL1-15 | 2026-09-01 13:44:08 | 51.61852 | 8.86967 | 85° | 37km/h | 1640m | -2.2m/s | 7.4°C | 100% | 842.6hPa | 2.8V | 07:11:06 | 03:26:16 | 00:00:00 | |
| BIOWL1-15 | 2026-09-01 13:44:07 | 51.61851 | 8.86952 | 82° | 40km/h | 1642m | -2.3m/s | 7.4°C | 100% | 842.4hPa | 2.8V | 07:11:06 | 03:26:15 | 00:00:00 | |
| HSKMA3-T | 2026-09-01 13:44:06 | 51.61849 | 8.86936 | 79° | 40km/h | 1644m | -2.7m/s | 7.3°C | 100% | 842.1hPa | 2.7V | 07:11:06 | 03:26:14 | 00:00:00 | |
| DM0DOS-11 | 2026-09-01 13:44:06 | 51.61840 | 8.86886 | 68° | 40km/h | 1652m | -2.7m/s | 7.2°C | 0% | 841.2hPa | 2.8V | 07:10:37 | 03:26:11 | 00:00:00 | |
| BIOWL1-15 | 2026-09-01 13:44:06 | 51.61836 | 8.86871 | 66° | 38km/h | 1654m | -2m/s | 7.2°C | 100% | 841hPa | 2.8V | 07:11:06 | 03:26:10 | 00:00:00 | |
| BIOWL1-15 | 2026-09-01 13:44:03 | 51.61832 | 8.86858 | 68° | 35km/h | 1656m | -2.4m/s | 7.2°C | 100% | 840.8hPa | 2.8V | 07:11:06 | 03:26:09 | 00:00:00 | |
| DD1CC8 | 2026-09-01 13:44:01 | 51.61830 | 8.86845 | 73° | 31km/h | 1658m | -2.2m/s | 7.3°C | 100.0% | 840.5hPa | 2.8V | 00:00:00 | 00:00:00 | 00:00:00 | |
| DM0DOS-11 | 2026-09-01 13:44:00 | 51.61826 | 8.86806 | 87° | 33km/h | 1665m | -2m/s | 7.2°C | 0% | 839.8hPa | 2.8V | 07:10:43 | 03:26:05 | 00:00:00 | |
| BIOWL1-15 | 2026-09-01 13:43:59 | 51.61828 | 8.86832 | 80° | 31km/h | 1661m | -2.4m/s | 7.2°C | 100% | 840.3hPa | 2.8V | 07:11:06 | 03:26:07 | 00:00:00 | |
| BIOWL1-15 | 2026-09-01 13:43:57 | 51.61826 | 8.86806 | 88° | 33km/h | 1665m | -2m/s | 7.2°C | 100% | 839.9hPa | 2.8V | 07:11:06 | 03:26:05 | 00:00:00 | |
| HSKMA3-T | 2026-09-01 13:43:55 | 51.61824 | 8.86777 | 85° | 38km/h | 1670m | -2.6m/s | 7.2°C | 100% | 839.2hPa | 2.8V | 07:11:06 | 03:26:03 | 00:00:00 | |
| DM0DOS-11 | 2026-09-01 13:43:54 | 51.61816 | 8.86714 | 72° | 40km/h | 1677m | -1.8m/s | 7.1°C | 0% | 838.6hPa | 2.8V | 07:10:49 | 03:25:59 | 00:00:00 | |
| BIOWL1-15 | 2026-09-01 13:43:54 | 51.61813 | 8.86698 | 71° | 40km/h | 1679m | -1.5m/s | 7.1°C | 100% | 838.4hPa | 2.8V | 07:11:06 | 03:25:58 | 00:00:00 | |
| BIOWL1-15 | 2026-09-01 13:43:53 | 51.61810 | 8.86683 | 69° | 38km/h | 1681m | -1.4m/s | 7.1°C | 100% | 838.4hPa | 2.8V | 07:11:06 | 03:25:57 | 00:00:00 | |
| DM0DOS-11 | 2026-09-01 13:43:48 | 51.61802 | 8.86656 | 65° | 35km/h | 1685m | -2.3m/s | 7.1°C | 0% | 837.9hPa | 2.8V | 07:10:53 | 03:25:55 | 00:00:00 | |
| BIOWL1-15 | 2026-09-01 13:43:47 | 51.61799 | 8.86643 | 65° | 35km/h | 1687m | -2.4m/s | 7.1°C | 100% | 837.7hPa | 2.8V | 07:11:06 | 03:25:54 | 00:00:00 | |
| HSKMA3-T | 2026-09-01 13:43:45 | 51.61795 | 8.86630 | 62° | 37km/h | 1689m | -2.1m/s | 7.1°C | 100% | 837.5hPa | 2.8V | 07:11:06 | 03:25:53 | 00:00:00 | |
| BIOWL1-15 | 2026-09-01 13:43:43 | 51.61787 | 8.86606 | 62° | 31km/h | 1694m | -1.8m/s | 7°C | 100% | 837hPa | 2.8V | 07:11:06 | 03:25:51 | 00:00:00 | |
| DM0DOS-11 | 2026-09-01 13:43:42 | 51.61780 | 8.86583 | 64° | 29km/h | 1697m | -1.9m/s | 7°C | 0% | 836.7hPa | 2.8V | 07:10:59 | 03:25:49 | 00:00:00 | |
| BIOWL1-15 | 2026-09-01 13:43:42 | 51.61777 | 8.86573 | 67° | 27km/h | 1699m | -1.4m/s | 7°C | 100% | 836.3hPa | 2.8V | 07:11:06 | 03:25:48 | 00:00:00 | |
| BIOWL1-15 | 2026-09-01 13:43:41 | 51.61775 | 8.86563 | 71° | 27km/h | 1701m | -2m/s | 7°C | 100% | 836.3hPa | 2.8V | 07:11:06 | 03:25:47 | 00:00:00 | |
| BIOWL1-15 | 2026-09-01 13:43:37 | 51.61771 | 8.86542 | 74° | 26km/h | 1704m | -2.1m/s | 7°C | 100% | 835.9hPa | 2.8V | 07:11:06 | 03:25:45 | 00:00:00 | |
| BIOWL9-15 | 2026-09-01 13:43:36 | 51.61769 | 8.86532 | 72° | 26km/h | 1706m | -1.7m/s | 7.0°C | 100.0% | 835.9hPa | 2.8V | 00:00:00 | 00:00:00 | 00:00:00 | |
| DD1CC3-15 | 2026-09-01 13:43:35 | 51.61769 | 8.86532 | 74° | 26km/h | 1706m | -1.7m/s | 7.0°C | 112.9% | 835.9hPa | 2.8V | 07:11:00 | 00:00:00 | 00:00:00 | |
| DM0DOS-11 | 2026-09-01 13:43:35 | 51.61763 | 8.86473 | 79° | 35km/h | 1713m | -1m/s | 7°C | 0% | 834.9hPa | 2.8V | 07:11:09 | 03:25:39 | 00:00:00 | |
| BIOWL1-15 | 2026-09-01 13:43:35 | 51.61765 | 8.86499 | 83° | 29km/h | 1711m | -1.4m/s | 7°C | 100% | 835.2hPa | 2.8V | 07:11:57 | 03:25:41 | 00:00:00 | |
| HSKMA3-T | 2026-09-01 13:43:34 | 51.61766 | 8.86510 | 80° | 27km/h | 1710m | -1.5m/s | 7°C | 100% | 835.2hPa | 2.8V | 07:11:06 | 03:25:42 | 00:00:00 | |
| BIOWL1-15 | 2026-09-01 13:43:32 | 51.61764 | 8.86486 | 81° | 33km/h | 1712m | -1.1m/s | 7°C | 100% | 835hPa | 2.8V | 07:11:57 | 03:25:40 | 00:00:00 | |
| BIOWL1-15 | 2026-09-01 13:43:31 | 51.61759 | 8.86443 | 77° | 40km/h | 1715m | -1.5m/s | 7°C | 100% | 834.7hPa | 2.8V | 07:11:57 | 03:25:37 | 00:00:00 | |
| DM0DOS-11 | 2026-09-01 13:43:30 | 51.61753 | 8.86411 | 72° | 42km/h | 1718m | -1.6m/s | 7°C | 0% | 834.5hPa | 2.8V | 07:11:13 | 03:25:35 | 00:00:00 | |
| BIOWL1-15 | 2026-09-01 13:43:30 | 51.61756 | 8.86427 | 75° | 42km/h | 1717m | -1.5m/s | 7°C | 100% | 834.5hPa | 2.8V | 07:11:57 | 03:25:36 | 00:00:00 | |
| BIOWL1-15 | 2026-09-01 13:43:27 | 51.61754 | 8.86411 | 73° | 42km/h | 1718m | -1.6m/s | 7°C | 100% | 834.5hPa | 2.8V | 07:11:57 | 03:25:35 | 00:00:00 | |
| BIOWL1-15 | 2026-09-01 13:43:25 | 51.61735 | 8.86335 | 64° | 40km/h | 1728m | -1.8m/s | 7°C | 100% | 833.6hPa | 2.8V | 07:11:57 | 03:25:30 | 00:00:00 | |
| BIOWL1-15 | 2026-09-01 13:43:25 | 51.61731 | 8.86321 | 59° | 37km/h | 1729m | -1.7m/s | 7°C | 100% | 833.5hPa | 2.8V | 07:11:57 | 03:25:29 | 00:00:00 | |
| DM0DOS-11 | 2026-09-01 13:43:24 | 51.61731 | 8.86322 | 59° | 37km/h | 1729m | -1.7m/s | 7°C | 0% | 833.5hPa | 2.8V | 07:11:19 | 03:25:29 | 00:00:00 | |
| HSKMA3-T | 2026-09-01 13:43:23 | 51.61739 | 8.86350 | 65° | 38km/h | 1726m | -1.7m/s | 7°C | 100% | 833.7hPa | 2.8V | 07:11:57 | 03:25:31 | 00:00:00 | |
| BIOWL1-15 | 2026-09-01 13:43:19 | 51.61721 | 8.86297 | 57° | 33km/h | 1733m | -1.6m/s | 7°C | 100% | 833.2hPa | 2.7V | 07:11:57 | 03:25:27 | 00:00:00 | |
| DM0DOS-11 | 2026-09-01 13:43:18 | 51.61713 | 8.86275 | 57° | 29km/h | 1736m | -1.7m/s | 6.9°C | 0% | 833hPa | 2.8V | 07:11:23 | 03:25:25 | 00:00:00 | |
| BIOWL1-15 | 2026-09-01 13:43:17 | 51.61712 | 8.86275 | 58° | 29km/h | 1736m | -1.7m/s | 6.9°C | 100% | 833hPa | 2.8V | 07:11:57 | 03:25:25 | 00:00:00 | |
| BIOWL1-15 | 2026-09-01 13:43:15 | 51.61703 | 8.86245 | 69° | 27km/h | 1741m | -1.3m/s | 6.9°C | 100% | 832.4hPa | 2.8V | 07:11:57 | 03:25:22 | 00:00:00 | |
| BIOWL1-15 | 2026-09-01 13:43:15 | 51.61701 | 8.86235 | 75° | 29km/h | 1742m | -1.4m/s | 6.9°C | 100% | 832.3hPa | 2.8V | 07:11:57 | 03:25:21 | 00:00:00 | |
| HSKMA3-T | 2026-09-01 13:43:12 | 51.61699 | 8.86223 | 77° | 29km/h | 1743m | -1m/s | 6.9°C | 100% | 832.2hPa | 2.7V | 07:11:57 | 03:25:20 | 00:00:00 | |
| DM0DOS-11 | 2026-09-01 13:43:11 | 51.61696 | 8.86198 | 80° | 37km/h | 1746m | -0.9m/s | 7°C | 0% | 831.7hPa | 2.7V | 07:11:30 | 03:25:18 | 00:00:00 | |
| DM0DOS-11 | 2026-09-01 13:43:11 | 51.61692 | 8.86167 | 77° | 40km/h | 1748m | -1.6m/s | 6.9°C | 0% | 831.7hPa | 2.8V | 07:11:32 | 03:25:16 | 00:00:00 | |
| BIOWL1-15 | 2026-09-01 13:43:11 | 51.61694 | 8.86183 | 79° | 38km/h | 1747m | -1.1m/s | 6.9°C | 100% | 831.9hPa | 2.8V | 07:11:57 | 03:25:17 | 00:00:00 | |
| DO2JMG | 2026-09-01 13:43:10 | 51.61696 | 8.86198 | 80° | 37km/h | 1746m | -0.9m/s | 7°C | 100% | 831.7hPa | 2.7V | 07:14:30 | 03:25:18 | 00:00:00 | |
| DO2JMG | 2026-09-01 13:43:08 | 51.61692 | 8.86167 | 78° | 40km/h | 1748m | -1.6m/s | 6.9°C | 100% | 831.7hPa | 2.8V | 07:14:30 | 03:25:16 | 00:00:00 | |
| BIOWL1-15 | 2026-09-01 13:43:07 | 51.61690 | 8.86152 | 75° | 38km/h | 1750m | -1.3m/s | 6.9°C | 100% | 831.5hPa | 2.7V | 07:11:57 | 03:25:15 | 00:00:00 | |
| DO2JMG | 2026-09-01 13:43:06 | 51.61687 | 8.86136 | 76° | 42km/h | 1751m | -1.2m/s | 6.9°C | 100% | 831.4hPa | 2.8V | 07:14:30 | 03:25:14 | 00:00:00 | |
| DM0DOS-11 | 2026-09-01 13:43:05 | 51.61681 | 8.86103 | 67° | 40km/h | 1754m | -1.2m/s | 7°C | 0% | 831.2hPa | 2.8V | 07:11:36 | 03:25:12 | 00:00:00 | |
| DM0DOS-11 | 2026-09-01 13:43:05 | 51.61662 | 8.86043 | 60° | 40km/h | 1758m | -1.4m/s | 7°C | 0% | 830.6hPa | 2.8V | 07:11:40 | 03:25:08 | 00:00:00 | |
| BIOWL1-15 | 2026-09-01 13:43:05 | 51.61680 | 8.86103 | 67° | 40km/h | 1754m | -1.2m/s | 6.9°C | 100% | 831.2hPa | 2.8V | 07:11:57 | 03:25:12 | 00:00:00 | |
| DO2JMG | 2026-09-01 13:43:03 | 51.61676 | 8.86087 | 68° | 42km/h | 1754m | -0.9m/s | 6.9°C | 100% | 831.1hPa | 2.8V | 07:14:30 | 03:25:11 | 00:00:00 | |
| HSKMA3-T | 2026-09-01 13:43:02 | 51.61672 | 8.86072 | 63° | 42km/h | 1756m | -1.4m/s | 7°C | 100% | 831hPa | 2.7V | 07:11:57 | 03:25:10 | 00:00:00 | |
| BIOWL1-15 | 2026-09-01 13:43:01 | 51.61662 | 8.86043 | 61° | 40km/h | 1758m | -1.4m/s | 6.9°C | 100% | 830.6hPa | 2.8V | 07:11:57 | 03:25:08 | 00:00:00 | |
| BIOWL1-15 | 2026-09-01 13:43:01 | 51.61657 | 8.86029 | 59° | 38km/h | 1760m | -1.5m/s | 6.9°C | 100% | 830.4hPa | 2.8V | 07:11:57 | 03:25:07 | 00:00:00 | |
| DK9SH | 2026-09-01 13:43:00 | 51.61667 | 8.86057 | 61° | 40km/h | 1757m | -1.3m/s | 6.9°C | 0% | 830.7hPa | 2.8V | 07:11:00 | 00:00:00 | 00:00:00 | |
| DM0DOS-11 | 2026-09-01 13:42:59 | 51.61633 | 8.85970 | 57° | 33km/h | 1765m | -1.2m/s | 6.8°C | 0% | 829.8hPa | 2.8V | 07:11:46 | 03:25:02 | 00:00:00 | |
| BIOWL1-15 | 2026-09-01 13:42:57 | 51.61647 | 8.86005 | 57° | 35km/h | 1762m | -1m/s | 6.9°C | 100% | 830.3hPa | 2.7V | 07:11:57 | 03:25:05 | 00:00:00 | |
| BIOWL1-15 | 2026-09-01 13:42:55 | 51.61637 | 8.85982 | 56° | 33km/h | 1764m | -0.8m/s | 6.9°C | 100% | 830hPa | 2.8V | 07:11:57 | 03:25:03 | 00:00:00 | |
| BIOWL1-15 | 2026-09-01 13:42:53 | 51.61629 | 8.85960 | 58° | 29km/h | 1766m | -0.8m/s | 6.9°C | 100% | 829.8hPa | 2.7V | 07:11:57 | 03:25:01 | 00:00:00 | |
| BIOWL1-15 | 2026-09-01 13:42:51 | 51.61621 | 8.85940 | 62° | 27km/h | 1767m | -1m/s | 7°C | 100% | 829.6hPa | 2.8V | 07:11:57 | 03:24:59 | 00:00:00 | |
| BIOWL1-15 | 2026-09-01 13:42:50 | 51.61618 | 8.85930 | 68° | 27km/h | 1768m | -1.6m/s | 7°C | 100% | 829.5hPa | 2.8V | 07:11:57 | 03:24:58 | 00:00:00 | |
| BIOWL1-15 | 2026-09-01 13:42:49 | 51.61616 | 8.85919 | 74° | 27km/h | 1770m | -1.5m/s | 7°C | 100% | 829.4hPa | 2.7V | 07:11:57 | 03:24:57 | 00:00:00 | |
| DM0DOS-11 | 2026-09-01 13:42:47 | 51.61605 | 8.85851 | 71° | 42km/h | 1778m | -2.3m/s | 6.9°C | 0% | 828.5hPa | 2.8V | 07:11:56 | 03:24:52 | 00:00:00 | |
| BIOWL1-15 | 2026-09-01 13:42:47 | 51.61612 | 8.85895 | 77° | 33km/h | 1773m | -1.5m/s | 7°C | 100% | 829.1hPa | 2.8V | 07:11:57 | 03:24:55 | 00:00:00 | |
| BIOWL1-15 | 2026-09-01 13:42:46 | 51.61610 | 8.85882 | 76° | 35km/h | 1775m | -1.9m/s | 7°C | 100% | 828.9hPa | 2.7V | 07:11:57 | 03:24:54 | 00:00:00 | |
| BIOWL1-15 | 2026-09-01 13:42:45 | 51.61608 | 8.85867 | 76° | 38km/h | 1776m | -1.8m/s | 7°C | 100% | 828.7hPa | 2.7V | 07:11:57 | 03:24:53 | 00:00:00 | |
| BIOWL1-15 | 2026-09-01 13:42:43 | 51.61601 | 8.85835 | 69° | 42km/h | 1780m | -2.5m/s | 6.9°C | 100% | 828.3hPa | 2.8V | 07:11:57 | 03:24:51 | 00:00:00 | |
| BIOWL1-15 | 2026-09-01 13:42:42 | 51.61597 | 8.85819 | 68° | 44km/h | 1783m | -2.1m/s | 6.9°C | 100% | 828.1hPa | 2.7V | 07:12:48 | 03:24:50 | 00:00:00 | |
| DM0DOS-11 | 2026-09-01 13:42:41 | 51.61588 | 8.85787 | 62° | 44km/h | 1786m | -1.7m/s | 6.9°C | 0% | 827.6hPa | 2.8V | 07:12:00 | 03:24:48 | 00:00:00 | |
| BIOWL1-15 | 2026-09-01 13:42:40 | 51.61588 | 8.85787 | 62° | 44km/h | 1786m | -1.7m/s | 6.9°C | 100% | 827.6hPa | 2.8V | 07:12:48 | 03:24:48 | 00:00:00 | |
| BIOWL1-15 | 2026-09-01 13:42:38 | 51.61572 | 8.85746 | 54° | 38km/h | 1792m | -1.1m/s | 6.8°C | 100% | 827.2hPa | 2.7V | 07:12:48 | 03:24:45 | 00:00:00 | |
| BIOWL1-15 | 2026-09-01 13:42:38 | 51.61567 | 8.85734 | 54° | 33km/h | 1793m | -1.3m/s | 6.6°C | 100% | 827hPa | 2.8V | 07:12:48 | 03:24:44 | 00:00:00 | |
| DD1CC2-15 | 2026-09-01 13:42:36 | 51.61572 | 8.85745 | 55° | 38km/h | 1792m | -1.1m/s | 6.8°C | 111.2% | 827.2hPa | 2.7V | 07:12:00 | 00:00:00 | 00:00:00 | |
| DM0DOS-11 | 2026-09-01 13:42:35 | 51.61559 | 8.85712 | 66° | 29km/h | 1795m | -1.1m/s | 6.8°C | 0% | 826.7hPa | 2.7V | 07:12:06 | 03:24:42 | 00:00:00 | |
| DM0DOS-11 | 2026-09-01 13:42:35 | 51.61554 | 8.85688 | 76° | 33km/h | 1797m | -1.4m/s | 6.5°C | 0% | 826.6hPa | 2.7V | 07:12:08 | 03:24:40 | 00:00:00 | |
| BIOWL1-15 | 2026-09-01 13:42:35 | 51.61562 | 8.85723 | 57° | 31km/h | 1794m | -1.2m/s | 6.7°C | 100% | 826.9hPa | 2.8V | 07:12:48 | 03:24:43 | 00:00:00 | |
| BIOWL1-15 | 2026-09-01 13:42:34 | 51.61559 | 8.85712 | 66° | 29km/h | 1795m | -1.1m/s | 6.8°C | 100% | 826.7hPa | 2.7V | 07:12:48 | 03:24:42 | 00:00:00 | |
| DO2JMG | 2026-09-01 13:42:33 | 51.61556 | 8.85701 | 75° | 31km/h | 1796m | -1m/s | 6.7°C | 100% | 826.8hPa | 2.7V | 07:14:30 | 03:24:41 | 00:00:00 | |
| DO2JMG | 2026-09-01 13:42:32 | 51.61554 | 8.85688 | 76° | 33km/h | 1797m | -1.4m/s | 6.6°C | 100% | 826.6hPa | 2.7V | 07:14:30 | 03:24:40 | 00:00:00 | |
| BIOWL1-15 | 2026-09-01 13:42:32 | 51.61552 | 8.85675 | 80° | 35km/h | 1799m | -1.1m/s | 6.4°C | 100% | 826.4hPa | 2.8V | 07:12:48 | 03:24:39 | 00:00:00 | |
| HSKMA3-T | 2026-09-01 13:42:30 | 51.61551 | 8.85660 | 79° | 37km/h | 1800m | -1.2m/s | 6.4°C | 100% | 826.3hPa | 2.7V | 07:12:48 | 03:24:38 | 00:00:00 | |
| DM0DOS-11 | 2026-09-01 13:42:29 | 51.61541 | 8.85600 | 72° | 40km/h | 1804m | -1.5m/s | 6.6°C | 0% | 825.7hPa | 2.8V | 07:12:14 | 03:24:34 | 00:00:00 | |
| BIOWL1-15 | 2026-09-01 13:42:28 | 51.61541 | 8.85600 | 72° | 40km/h | 1804m | -1.5m/s | 6.6°C | 100% | 825.7hPa | 2.8V | 07:12:48 | 03:24:34 | 00:00:00 | |
| BIOWL1-15 | 2026-09-01 13:42:24 | 51.61530 | 8.85552 | 64° | 42km/h | 1808m | -1.7m/s | 6.4°C | 100% | 825.4hPa | 2.6V | 07:12:48 | 03:24:31 | 00:00:00 | |
| BIOWL1-15 | 2026-09-01 13:42:24 | 51.61525 | 8.85536 | 62° | 42km/h | 1810m | -1.7m/s | 6.4°C | 100% | 825.1hPa | 2.8V | 07:12:48 | 03:24:30 | 00:00:00 | |
| BIOWL1-15 | 2026-09-01 13:42:20 | 51.61515 | 8.85507 | 59° | 40km/h | 1814m | -2.3m/s | 6.7°C | 100% | 824.8hPa | 2.8V | 07:12:48 | 03:24:28 | 00:00:00 | |
| BIOWL1-15 | 2026-09-01 13:42:19 | 51.61510 | 8.85493 | 59° | 38km/h | 1816m | -2.2m/s | 6.7°C | 100% | 824.6hPa | 2.8V | 07:12:48 | 03:24:27 | 00:00:00 | |
| BIOWL1-15 | 2026-09-01 13:42:17 | 51.61500 | 8.85468 | 63° | 35km/h | 1820m | -2m/s | 6.7°C | 100% | 824.2hPa | 2.7V | 07:12:48 | 03:24:25 | 00:00:00 | |
| BIOWL1-15 | 2026-09-01 13:42:15 | 51.61491 | 8.85429 | 72° | 35km/h | 1827m | -2.3m/s | 6.7°C | 100% | 823.7hPa | 2.7V | 07:12:48 | 03:24:22 | 00:00:00 | |
| BIOWL1-15 | 2026-09-01 13:42:15 | 51.61488 | 8.85415 | 74° | 37km/h | 1829m | -2.7m/s | 6.7°C | 100% | 823.3hPa | 2.7V | 07:12:48 | 03:24:21 | 00:00:00 | |
| DO2JMG | 2026-09-01 13:42:12 | 51.61485 | 8.85401 | 72° | 38km/h | 1832m | -2m/s | 6.6°C | 100% | 823.2hPa | 2.7V | 07:14:30 | 03:24:20 | 00:00:00 | |
| BIOWL1-15 | 2026-09-01 13:42:11 | 51.61482 | 8.85385 | 71° | 42km/h | 1834m | -1.7m/s | 6.6°C | 100% | 823.1hPa | 2.7V | 07:12:48 | 03:24:19 | 00:00:00 | |
| HSKMA3-T | 2026-09-01 13:42:09 | 51.61473 | 8.85353 | 62° | 44km/h | 1838m | -2m/s | 6.6°C | 100% | 822.7hPa | 2.8V | 07:12:48 | 03:24:17 | 00:00:00 | |
| BIOWL1-15 | 2026-09-01 13:42:08 | 51.61468 | 8.85337 | 60° | 44km/h | 1840m | -2.3m/s | 6.6°C | 100% | 822.5hPa | 2.7V | 07:12:48 | 03:24:16 | 00:00:00 | |
| BIOWL1-15 | 2026-09-01 13:42:06 | 51.61457 | 8.85308 | 55° | 42km/h | 1844m | -2.2m/s | 6.6°C | 100% | 822hPa | 2.8V | 07:12:48 | 03:24:14 | 00:00:00 | |
| DM0DOS-11 | 2026-09-01 13:42:05 | 51.61445 | 8.85282 | 54° | 38km/h | 1848m | -2.3m/s | 6.5°C | 0% | 821.5hPa | 2.8V | 07:12:36 | 03:24:12 | 00:00:00 | |
| DM0DOS-11 | 2026-09-01 13:42:05 | 51.61425 | 8.85237 | 58° | 31km/h | 1854m | -1.3m/s | 6.3°C | 0% | 821hPa | 2.8V | 07:12:40 | 03:24:08 | 00:00:00 | |
| BIOWL1-15 | 2026-09-01 13:42:05 | 51.61451 | 8.85295 | 53° | 38km/h | 1846m | -1.9m/s | 6.6°C | 100% | 821.9hPa | 2.8V | 07:12:48 | 03:24:13 | 00:00:00 | |
| BIOWL1-15 | 2026-09-01 13:42:04 | 51.61445 | 8.85282 | 54° | 38km/h | 1848m | -2.3m/s | 6.6°C | 100% | 821.5hPa | 2.8V | 07:12:48 | 03:24:12 | 00:00:00 | |
| DO2JMG | 2026-09-01 13:42:03 | 51.61440 | 8.85270 | 53° | 35km/h | 1850m | -1.5m/s | 6.5°C | 100% | 821.4hPa | 2.8V | 07:14:30 | 03:24:11 | 00:00:00 | |
| BIOWL1-15 | 2026-09-01 13:42:02 | 51.61434 | 8.85259 | 55° | 35km/h | 1852m | -0.9m/s | 6.4°C | 100% | 821.2hPa | 2.7V | 07:12:48 | 03:24:10 | 00:00:00 | |
| BIOWL1-15 | 2026-09-01 13:42:01 | 51.61430 | 8.85248 | 57° | 31km/h | 1853m | -1.3m/s | 6.4°C | 100% | 821.1hPa | 2.7V | 07:12:48 | 03:24:09 | 00:00:00 | |
| DO2JMG | 2026-09-01 13:42:00 | 51.61425 | 8.85237 | 59° | 31km/h | 1854m | -1.3m/s | 6.3°C | 100% | 821hPa | 2.8V | 07:14:30 | 03:24:08 | 00:00:00 | |
| BIOWL1-15 | 2026-09-01 13:41:59 | 51.61411 | 8.85176 | 76° | 38km/h | 1860m | -1.2m/s | 6.1°C | 100% | 820.4hPa | 2.8V | 07:12:48 | 03:24:03 | 00:00:00 | |
| HSKMA3-T | 2026-09-01 13:41:58 | 51.61419 | 8.85215 | 68° | 31km/h | 1856m | -1.1m/s | 6.1°C | 100% | 820.8hPa | 2.7V | 07:12:48 | 03:24:06 | 00:00:00 | |
| DO2JMG | 2026-09-01 13:41:56 | 51.61414 | 8.85190 | 74° | 35km/h | 1859m | -1.3m/s | 6.1°C | 100% | 820.4hPa | 2.8V | 07:14:30 | 03:24:04 | 00:00:00 | |
| DO2JMG | 2026-09-01 13:41:54 | 51.61409 | 8.85160 | 76° | 40km/h | 1861m | -0.9m/s | 6°C | 100% | 820.3hPa | 2.7V | 07:14:30 | 03:24:02 | 00:00:00 | |
| BIOWL1-15 | 2026-09-01 13:41:53 | 51.61403 | 8.85128 | 71° | 44km/h | 1864m | -1.1m/s | 6.1°C | 100% | 820hPa | 2.7V | 07:12:48 | 03:24:00 | 00:00:00 | |
| DO2JMG | 2026-09-01 13:41:53 | 51.61406 | 8.85144 | 73° | 42km/h | 1862m | -1.1m/s | 6.1°C | 100% | 820.1hPa | 2.7V | 07:14:30 | 03:24:01 | 00:00:00 | |
| BIOWL1-15 | 2026-09-01 13:41:53 | 51.61399 | 8.85111 | 66° | 46km/h | 1865m | -1.8m/s | 6.1°C | 100% | 819.9hPa | 2.6V | 07:13:39 | 03:23:59 | 00:00:00 | |
| BIOWL1-15 | 2026-09-01 13:41:50 | 51.61394 | 8.85094 | 65° | 44km/h | 1867m | -1.2m/s | 5.9°C | 100% | 819.8hPa | 2.8V | 07:13:39 | 03:23:58 | 00:00:00 | |
| BIOWL1-15 | 2026-09-01 13:41:48 | 51.61372 | 8.85035 | 54° | 38km/h | 1872m | -1.4m/s | 6.2°C | 100% | 819.2hPa | 2.7V | 07:13:39 | 03:23:54 | 00:00:00 | |
| DM0DOS-11 | 2026-09-01 13:41:47 | 51.61352 | 8.84988 | 62° | 33km/h | 1877m | -1.2m/s | 6.1°C | 0% | 818.7hPa | 2.7V | 07:12:58 | 03:23:50 | 00:00:00 | |
| HSKMA3-T | 2026-09-01 13:41:47 | 51.61377 | 8.85048 | 56° | 40km/h | 1871m | -1.6m/s | 6°C | 100% | 819.3hPa | 2.7V | 07:13:39 | 03:23:55 | 00:00:00 | |
| BIOWL1-15 | 2026-09-01 13:41:44 | 51.61352 | 8.84988 | 63° | 33km/h | 1877m | -1.2m/s | 6.1°C | 100% | 818.7hPa | 2.7V | 07:13:39 | 03:23:50 | 00:00:00 | |
| DB0DAN | 2026-09-01 13:41:40 | 51.61346 | 8.84963 | 71° | 33km/h | 1879m | -0.9m/s | 6.1°C | 100% | 818.64hPa | 2.6V | 00:00:00 | 00:00:00 | 00:00:00 | |
| BIOWL1-15 | 2026-09-01 13:41:40 | 51.61346 | 8.84963 | 71° | 35km/h | 1879m | -0.9m/s | 6.1°C | 100% | 818.6hPa | 2.6V | 07:13:39 | 03:23:48 | 00:00:00 | |
| BIOWL1-15 | 2026-09-01 13:41:39 | 51.61343 | 8.84950 | 75° | 35km/h | 1880m | -0.8m/s | 6.1°C | 100% | 818.5hPa | 2.7V | 07:13:39 | 03:23:47 | 00:00:00 | |
| BIOWL1-15 | 2026-09-01 13:41:38 | 51.61340 | 8.84936 | 73° | 37km/h | 1881m | -0.2m/s | 6.1°C | 100% | 818.4hPa | 2.7V | 07:13:39 | 03:23:46 | 00:00:00 | |
| HSKMA3-T | 2026-09-01 13:41:36 | 51.61335 | 8.84907 | 74° | 38km/h | 1882m | -0.9m/s | 6.1°C | 100% | 818.3hPa | 2.7V | 07:13:39 | 03:23:44 | 00:00:00 | |
| BIOWL1-15 | 2026-09-01 13:41:35 | 51.61333 | 8.84892 | 78° | 38km/h | 1884m | -1.1m/s | 6.1°C | 100% | 818.1hPa | 2.7V | 07:13:39 | 03:23:43 | 00:00:00 | |
| DM0DOS-11 | 2026-09-01 13:41:35 | 51.61320 | 8.84810 | 78° | 42km/h | 1889m | -0.9m/s | 6.1°C | 0% | 817.7hPa | 2.6V | 07:13:10 | 03:23:38 | 00:00:00 | |
| BIOWL1-15 | 2026-09-01 13:41:34 | 51.61330 | 8.84876 | 76° | 42km/h | 1885m | -0.5m/s | 6.1°C | 100% | 818.1hPa | 2.7V | 07:13:39 | 03:23:42 | 00:00:00 | |
| BIOWL1-15 | 2026-09-01 13:41:33 | 51.61328 | 8.84860 | 76° | 40km/h | 1885m | -0.6m/s | 6.1°C | 100% | 818hPa | 2.7V | 07:13:39 | 03:23:41 | 00:00:00 | |
| DO2JMG | 2026-09-01 13:41:32 | 51.61325 | 8.84843 | 77° | 44km/h | 1886m | -0.9m/s | 6.1°C | 100% | 818.1hPa | 2.7V | 07:14:30 | 03:23:40 | 00:00:00 | |
| BIOWL1-15 | 2026-09-01 13:41:31 | 51.61323 | 8.84826 | 76° | 42km/h | 1887m | -1.4m/s | 6.1°C | 100% | 817.8hPa | 2.7V | 07:13:39 | 03:23:39 | 00:00:00 | |
| DO2JMG | 2026-09-01 13:41:30 | 51.61320 | 8.84810 | 78° | 42km/h | 1889m | -0.9m/s | 6.1°C | 100% | 817.7hPa | 2.6V | 07:14:30 | 03:23:38 | 00:00:00 | |
| DM0DOS-11 | 2026-09-01 13:41:29 | 51.61299 | 8.84706 | 62° | 46km/h | 1894m | -0.2m/s | 6.1°C | 0% | 817.2hPa | 2.7V | 07:13:16 | 03:23:32 | 00:00:00 | |
| DO2JMG | 2026-09-01 13:41:28 | 51.61315 | 8.84775 | 74° | 44km/h | 1890m | -1.3m/s | 6.1°C | 100% | 817.5hPa | 2.7V | 07:14:30 | 03:23:36 | 00:00:00 | |
| DO2JMG | 2026-09-01 13:41:27 | 51.61312 | 8.84758 | 73° | 44km/h | 1892m | -1m/s | 6.1°C | 100% | 817.5hPa | 2.7V | 07:14:30 | 03:23:35 | 00:00:00 | |
| DB0DAN | 2026-09-01 13:41:25 | 51.61304 | 8.84723 | 67° | 46km/h | 1893m | -0.2m/s | 6.1°C | 100% | 817.22hPa | 2.7V | 00:00:00 | 00:00:00 | 00:00:00 | |
| HSKMA3-T | 2026-09-01 13:41:25 | 51.61304 | 8.84723 | 67° | 47km/h | 1893m | -0.2m/s | 6.1°C | 100% | 817.2hPa | 2.7V | 07:13:39 | 03:23:33 | 00:00:00 | |
| BIOWL1-15 | 2026-09-01 13:41:25 | 51.61293 | 8.84690 | 60° | 46km/h | 1894m | -0.8m/s | 6.1°C | 100% | 817.2hPa | 2.7V | 07:13:39 | 03:23:31 | 00:00:00 | |
| DO2JMG | 2026-09-01 13:41:24 | 51.61299 | 8.84706 | 63° | 46km/h | 1894m | -0.2m/s | 6.1°C | 100% | 817.2hPa | 2.7V | 07:14:30 | 03:23:32 | 00:00:00 | |
| DO2JMG | 2026-09-01 13:41:22 | 51.61288 | 8.84674 | 59° | 44km/h | 1895m | -0.7m/s | 6.1°C | 100% | 817.1hPa | 2.7V | 07:14:30 | 03:23:30 | 00:00:00 | |
| BIOWL1-15 | 2026-09-01 13:41:21 | 51.61276 | 8.84645 | 58° | 42km/h | 1898m | -1.3m/s | 6.2°C | 100% | 816.8hPa | 2.6V | 07:13:39 | 03:23:28 | 00:00:00 | |
| DO2JMG | 2026-09-01 13:41:21 | 51.61282 | 8.84659 | 58° | 42km/h | 1896m | -1.9m/s | 6.1°C | 100% | 817hPa | 2.7V | 07:14:30 | 03:23:29 | 00:00:00 | |
| DO2JMG | 2026-09-01 13:41:19 | 51.61271 | 8.84631 | 58° | 40km/h | 1900m | -1.2m/s | 6.3°C | 100% | 816.7hPa | 2.7V | 07:14:30 | 03:23:27 | 00:00:00 | |
| DO2JMG | 2026-09-01 13:41:18 | 51.61266 | 8.84617 | 59° | 40km/h | 1901m | -1.7m/s | 6.3°C | 100% | 816.4hPa | 2.7V | 07:14:30 | 03:23:26 | 00:00:00 | |
| DM0DOS-11 | 2026-09-01 13:41:17 | 51.61248 | 8.84564 | 65° | 35km/h | 1905m | -1m/s | 6.2°C | 0% | 816hPa | 2.7V | 07:13:26 | 03:23:22 | 00:00:00 | |
| DM0DOS-11 | 2026-09-01 13:41:17 | 51.61242 | 8.84539 | 67° | 33km/h | 1907m | -1.1m/s | 6.2°C | 0% | 815.9hPa | 2.7V | 07:13:28 | 03:23:20 | 00:00:00 | |
| DO2JMG | 2026-09-01 13:41:16 | 51.61256 | 8.84590 | 63° | 37km/h | 1903m | -0.6m/s | 6.3°C | 100% | 816.3hPa | 2.7V | 07:14:30 | 03:23:24 | 00:00:00 | |
| HSKMA3-T | 2026-09-01 13:41:15 | 51.61252 | 8.84577 | 65° | 35km/h | 1904m | -1m/s | 6.3°C | 100% | 816.2hPa | 2.7V | 07:13:39 | 03:23:23 | 00:00:00 | |
| BIOWL1-15 | 2026-09-01 13:41:13 | 51.61239 | 8.84526 | 70° | 33km/h | 1908m | -1.6m/s | 6.3°C | 100% | 815.8hPa | 2.7V | 07:13:39 | 03:23:19 | 00:00:00 | |
| DO2JMG | 2026-09-01 13:41:12 | 51.61242 | 8.84539 | 68° | 33km/h | 1907m | -1.1m/s | 6.2°C | 100% | 815.9hPa | 2.7V | 07:14:30 | 03:23:20 | 00:00:00 | |
| DB0DAN | 2026-09-01 13:41:10 | 51.61236 | 8.84513 | 71° | 31km/h | 1910m | -0.9m/s | 6.3°C | 100% | 815.65hPa | 2.6V | 00:00:00 | 00:00:00 | 00:00:00 | |
| DO2JMG | 2026-09-01 13:41:10 | 51.61236 | 8.84513 | 71° | 33km/h | 1910m | -0.9m/s | 6.3°C | 100% | 815.6hPa | 2.6V | 07:14:30 | 03:23:18 | 00:00:00 | |
| DO2JMG | 2026-09-01 13:41:09 | 51.61234 | 8.84500 | 75° | 35km/h | 1911m | -1m/s | 6.3°C | 100% | 815.7hPa | 2.7V | 07:14:30 | 03:23:17 | 00:00:00 | |
| BIOWL1-15 | 2026-09-01 13:41:08 | 51.61219 | 8.84406 | 75° | 44km/h | 1922m | -2.2m/s | 6.2°C | 100% | 814.6hPa | 2.7V | 07:13:39 | 03:23:11 | 00:00:00 | |
| DO2JMG | 2026-09-01 13:41:07 | 51.61229 | 8.84472 | 76° | 38km/h | 1913m | -1.7m/s | 6.3°C | 100% | 815.3hPa | 2.7V | 07:14:30 | 03:23:15 | 00:00:00 | |
| DO2JMG | 2026-09-01 13:41:06 | 51.61227 | 8.84456 | 76° | 40km/h | 1915m | -2.2m/s | 6.3°C | 100% | 815.3hPa | 2.7V | 07:14:30 | 03:23:14 | 00:00:00 | |
| DM0DOS-11 | 2026-09-01 13:41:06 | 51.61216 | 8.84389 | 73° | 46km/h | 1924m | -2.3m/s | 6.2°C | 0% | 814.5hPa | 2.7V | 07:13:38 | 03:23:10 | 00:00:00 | |
| HSKMA3-T | 2026-09-01 13:41:04 | 51.61222 | 8.84424 | 77° | 44km/h | 1919m | -2.1m/s | 6.3°C | 100% | 814.9hPa | 2.7V | 07:13:39 | 03:23:12 | 00:00:00 | |
| BIOWL1-15 | 2026-09-01 13:41:04 | 51.61216 | 8.84389 | 74° | 46km/h | 1924m | -2.3m/s | 6.2°C | 100% | 814.5hPa | 2.7V | 07:13:39 | 03:23:10 | 00:00:00 | |
| BIOWL1-15 | 2026-09-01 13:41:00 | 51.61209 | 8.84353 | 71° | 47km/h | 1928m | -1.8m/s | 6.1°C | 100% | 813.9hPa | 2.6V | 07:14:30 | 03:23:08 | 00:00:00 | |
| BIOWL1-15 | 2026-09-01 13:40:59 | 51.61206 | 8.84335 | 69° | 46km/h | 1930m | -1.9m/s | 6°C | 100% | 813.9hPa | 2.7V | 07:14:30 | 03:23:07 | 00:00:00 | |
| BIOWL1-15 | 2026-09-01 13:40:57 | 51.61197 | 8.84299 | 66° | 47km/h | 1933m | -1.9m/s | 6°C | 100% | 813.4hPa | 2.7V | 07:14:30 | 03:23:05 | 00:00:00 | |
| DB0DAN | 2026-09-01 13:40:55 | 51.61187 | 8.84264 | 66° | 46km/h | 1937m | -1.6m/s | 6°C | 100% | 813.13hPa | 2.7V | 00:00:00 | 00:00:00 | 00:00:00 | |
| BIOWL1-15 | 2026-09-01 13:40:55 | 51.61187 | 8.84264 | 66° | 47km/h | 1937m | -1.6m/s | 6°C | 100% | 813.1hPa | 2.7V | 07:14:30 | 03:23:03 | 00:00:00 | |
| BIOWL1-15 | 2026-09-01 13:40:54 | 51.61182 | 8.84246 | 63° | 47km/h | 1939m | -1.8m/s | 6°C | 100% | 813hPa | 2.7V | 07:14:30 | 03:23:02 | 00:00:00 | |
| DM0DOS-11 | 2026-09-01 13:40:53 | 51.61151 | 8.84160 | 62° | 33km/h | 1946m | -1m/s | 5.8°C | 0% | 812.2hPa | 2.8V | 07:13:52 | 03:22:56 | 00:00:00 | |
| HSKMA3-T | 2026-09-01 13:40:53 | 51.61177 | 8.84229 | 62° | 46km/h | 1940m | -1.6m/s | 6°C | 100% | 812.8hPa | 2.7V | 07:14:30 | 03:23:01 | 00:00:00 | |
| DO2JMG | 2026-09-01 13:40:52 | 51.61171 | 8.84213 | 60° | 46km/h | 1942m | -1.9m/s | 5.9°C | 100% | 812.5hPa | 2.7V | 07:14:30 | 03:23:00 | 00:00:00 | |
| BIOWL1-15 | 2026-09-01 13:40:52 | 51.61165 | 8.84198 | 57° | 42km/h | 1944m | -1.3m/s | 5.8°C | 100% | 812.2hPa | 2.7V | 07:14:30 | 03:22:59 | 00:00:00 | |
| BIOWL1-15 | 2026-09-01 13:40:50 | 51.61160 | 8.84184 | 57° | 38km/h | 1945m | -0.6m/s | 5.9°C | 100% | 812.5hPa | 2.7V | 07:14:30 | 03:22:58 | 00:00:00 | |
| BIOWL1-15 | 2026-09-01 13:40:48 | 51.61151 | 8.84160 | 63° | 33km/h | 1946m | -1m/s | 5.8°C | 100% | 812.2hPa | 2.8V | 07:14:30 | 03:22:56 | 00:00:00 | |
| DM0DOS-11 | 2026-09-01 13:40:47 | 51.61140 | 8.84108 | 76° | 37km/h | 1951m | -1.4m/s | 5.8°C | 0% | 811.7hPa | 2.7V | 07:13:56 | 03:22:52 | 00:00:00 | |
| BIOWL1-15 | 2026-09-01 13:40:47 | 51.61147 | 8.84148 | 67° | 33km/h | 1947m | -0.9m/s | 5.8°C | 100% | 812.1hPa | 2.7V | 07:14:30 | 03:22:55 | 00:00:00 | |
| DO2JMG | 2026-09-01 13:40:45 | 51.61142 | 8.84122 | 75° | 35km/h | 1950m | -1.8m/s | 5.8°C | 100% | 811.9hPa | 2.7V | 07:14:30 | 03:22:53 | 00:00:00 | |
| DO2JMG | 2026-09-01 13:40:44 | 51.61140 | 8.84108 | 77° | 37km/h | 1951m | -1.4m/s | 5.8°C | 100% | 811.7hPa | 2.7V | 07:14:30 | 03:22:52 | 00:00:00 | |
| HSKMA3-T | 2026-09-01 13:40:43 | 51.61137 | 8.84093 | 78° | 38km/h | 1953m | -1.5m/s | 5.8°C | 100% | 811.6hPa | 2.8V | 07:14:30 | 03:22:51 | 00:00:00 | |
| DO2JMG | 2026-09-01 13:40:42 | 51.61135 | 8.84077 | 78° | 40km/h | 1954m | -1.5m/s | 5.8°C | 100% | 811.4hPa | 2.7V | 07:14:30 | 03:22:50 | 00:00:00 | |
| BIOWL1-15 | 2026-09-01 13:40:42 | 51.61131 | 8.84044 | 77° | 42km/h | 1956m | -1.2m/s | 5.9°C | 100% | 811.1hPa | 2.7V | 07:14:30 | 03:22:48 | 00:00:00 | |
| DO2JMG | 2026-09-01 13:40:42 | 51.61133 | 8.84061 | 78° | 42km/h | 1955m | -0.7m/s | 5.8°C | 100% | 811.3hPa | 2.7V | 07:14:30 | 03:22:49 | 00:00:00 | |
| DM0DOS-11 | 2026-09-01 13:40:41 | 51.61117 | 8.83976 | 66° | 46km/h | 1957m | 0.1m/s | 5.8°C | 0% | 811hPa | 2.8V | 07:14:04 | 03:22:44 | 00:00:00 | |
| DB0DAN | 2026-09-01 13:40:40 | 51.61131 | 8.84044 | 77° | 40km/h | 1956m | -1.2m/s | 5.9°C | 100% | 811.15hPa | 2.7V | 00:00:00 | 00:00:00 | 00:00:00 | |
| DO2JMG | 2026-09-01 13:40:40 | 51.61128 | 8.84027 | 76° | 44km/h | 1957m | -0.6m/s | 5.9°C | 100% | 811.1hPa | 2.8V | 07:14:30 | 03:22:47 | 00:00:00 | |
| BIOWL1-15 | 2026-09-01 13:40:38 | 51.61125 | 8.84010 | 73° | 44km/h | 1957m | -0.1m/s | 5.9°C | 100% | 811hPa | 2.8V | 07:14:30 | 03:22:46 | 00:00:00 | |
| BIOWL1-15 | 2026-09-01 13:40:37 | 51.61113 | 8.83960 | 64° | 44km/h | 1958m | -0.6m/s | 5.8°C | 100% | 811hPa | 2.8V | 07:14:30 | 03:22:43 | 00:00:00 | |
| DO2JMG | 2026-09-01 13:40:36 | 51.61117 | 8.83976 | 66° | 46km/h | 1957m | 0.2m/s | 5.8°C | 100% | 811hPa | 2.8V | 07:14:30 | 03:22:44 | 00:00:00 | |
| BIOWL1-15 | 2026-09-01 13:40:36 | 51.61108 | 8.83945 | 62° | 40km/h | 1958m | -0.6m/s | 5.8°C | 100% | 810.9hPa | 2.7V | 07:14:30 | 03:22:42 | 00:00:00 | |
| HSKMA3-T | 2026-09-01 13:40:33 | 51.61103 | 8.83930 | 61° | 38km/h | 1959m | -0.5m/s | 5.7°C | 100% | 810.9hPa | 2.7V | 07:14:30 | 03:22:41 | 00:00:00 | |
| BIOWL1-15 | 2026-09-01 13:40:32 | 51.61094 | 8.83903 | 63° | 37km/h | 1962m | -1.6m/s | 5.7°C | 100% | 810.5hPa | 2.7V | 07:14:30 | 03:22:39 | 00:00:00 | |
| BIOWL1-15 | 2026-09-01 13:40:32 | 51.61090 | 8.83890 | 64° | 35km/h | 1963m | -1.3m/s | 5.7°C | 100% | 810.4hPa | 2.7V | 07:14:30 | 03:22:38 | 00:00:00 | |
| BIOWL9-15 | 2026-09-01 13:40:30 | 51.61090 | 8.83890 | 64° | 35km/h | 1963m | -1.3m/s | 5.7°C | 100.0% | 810.4hPa | 2.7V | 00:00:00 | 00:00:00 | 00:00:00 | |
| BIOWL7-15 | 2026-09-01 13:40:29 | 51.61090 | 8.83890 | 65° | 35km/h | 1963m | -1.3m/s | 5.7°C | 0% | 810.4hPa | 2.7V | 00:00:00 | 00:00:00 | 00:00:00 | |
| DD1CC3-15 | 2026-09-01 13:40:29 | 51.61090 | 8.83890 | 65° | 35km/h | 1963m | -1.3m/s | 5.7°C | 123.7% | 810.4hPa | 2.7V | 07:14:00 | 00:00:00 | 00:00:00 | |
| DM0DOS-11 | 2026-09-01 13:40:29 | 51.61077 | 8.83838 | 73° | 35km/h | 1966m | -0.7m/s | 5.8°C | 0% | 810.2hPa | 2.7V | 07:14:14 | 03:22:34 | 00:00:00 | |
| BIOWL1-15 | 2026-09-01 13:40:28 | 51.61080 | 8.83851 | 72° | 33km/h | 1965m | -1.1m/s | 5.8°C | 100% | 810.1hPa | 2.7V | 07:14:30 | 03:22:35 | 00:00:00 | |
| BIOWL1-15 | 2026-09-01 13:40:28 | 51.61077 | 8.83838 | 73° | 35km/h | 1966m | -0.7m/s | 5.8°C | 100% | 810.2hPa | 2.7V | 07:14:30 | 03:22:34 | 00:00:00 | |
| DB0DAN | 2026-09-01 13:40:25 | 51.61075 | 8.83825 | 75° | 33km/h | 1967m | -0.4m/s | 5.7°C | 100% | 810.04hPa | 2.7V | 00:00:00 | 00:00:00 | 00:00:00 | |
| BIOWL1-15 | 2026-09-01 13:40:24 | 51.61073 | 8.83811 | 75° | 37km/h | 1967m | 0.3m/s | 5.7°C | 100% | 810.1hPa | 2.7V | 07:14:30 | 03:22:32 | 00:00:00 | |
| DD1CC8 | 2026-09-01 13:40:23 | 51.61070 | 8.83796 | 74° | 38km/h | 1967m | -0.0m/s | 5.7°C | 100.0% | 810.0hPa | 2.7V | 00:00:00 | 00:00:00 | 00:00:00 | |
| DM0DOS-11 | 2026-09-01 13:40:23 | 51.61061 | 8.83750 | 67° | 38km/h | 1967m | -0.6m/s | 5.7°C | 0% | 810.1hPa | 2.7V | 07:14:20 | 03:22:28 | 00:00:00 | |
| BIOWL1-15 | 2026-09-01 13:40:22 | 51.61054 | 8.83722 | 71° | 37km/h | 1970m | -1.6m/s | 5.7°C | 100% | 809.9hPa | 2.7V | 07:14:30 | 03:22:26 | 00:00:00 | |
| BIOWL1-15 | 2026-09-01 13:40:22 | 51.61051 | 8.83708 | 74° | 38km/h | 1971m | -1.6m/s | 5.7°C | 100% | 809.6hPa | 2.7V | 07:14:30 | 03:22:25 | 00:00:00 | |
| HSKMA3-T | 2026-09-01 13:40:22 | 51.61067 | 8.83780 | 74° | 40km/h | 1967m | -0.3m/s | 5.7°C | 100% | 810.2hPa | 2.7V | 07:14:30 | 03:22:30 | 00:00:00 | |
| DM0DOS-11 | 2026-09-01 13:40:17 | 51.61048 | 8.83692 | 75° | 40km/h | 1973m | -1.4m/s | 5.7°C | 0% | 809.3hPa | 2.7V | 07:14:24 | 03:22:24 | 00:00:00 | |
| DM0DOS-11 | 2026-09-01 13:40:17 | 51.61042 | 8.83659 | 71° | 44km/h | 1976m | -1.8m/s | 5.7°C | 0% | 809.3hPa | 2.7V | 07:14:26 | 03:22:22 | 00:00:00 | |
| DM0DOS-11 | 2026-09-01 13:40:17 | 51.61034 | 8.83626 | 65° | 42km/h | 1980m | -1.9m/s | 5.6°C | 0% | 808.8hPa | 2.7V | 07:14:28 | 03:22:20 | 00:00:00 | |
| DO2JMG | 2026-09-01 13:40:16 | 51.61048 | 8.83692 | 75° | 40km/h | 1973m | -1.5m/s | 5.7°C | 100% | 809.3hPa | 2.7V | 07:14:30 | 03:22:24 | 00:00:00 | |
| BIOWL1-15 | 2026-09-01 13:40:14 | 51.61042 | 8.83659 | 72° | 44km/h | 1976m | -1.8m/s | 5.7°C | 100% | 809.3hPa | 2.7V | 07:14:30 | 03:22:22 | 00:00:00 | |
| HSKMA3-T | 2026-09-01 13:40:12 | 51.61034 | 8.83626 | 65° | 42km/h | 1980m | -1.9m/s | 5.6°C | 100% | 808.8hPa | 2.7V | 07:14:30 | 03:22:20 | 00:00:00 | |
| DO2JMG | 2026-09-01 13:40:11 | 51.61030 | 8.83611 | 63° | 38km/h | 1982m | -1.8m/s | 5.6°C | 100% | 808.7hPa | 2.6V | 07:14:30 | 03:22:19 | 00:00:00 | |
| DM0DOS-11 | 2026-09-01 13:40:11 | 51.61026 | 8.83597 | 64° | 37km/h | 1983m | -1.6m/s | 5.6°C | 0% | 808.5hPa | 2.7V | 07:14:30 | 03:22:18 | 00:00:00 | |
| DO2JMG | 2026-09-01 13:40:09 | 51.61022 | 8.83584 | 66° | 35km/h | 1985m | -1.8m/s | 5.6°C | 100% | 808.2hPa | 2.7V | 07:20:27 | 03:22:17 | 00:00:00 | |
| DO2JMG | 2026-09-01 13:40:08 | 51.61018 | 8.83571 | 69° | 37km/h | 1987m | -2.1m/s | 5.6°C | 100% | 808.2hPa | 2.7V | 07:20:27 | 03:22:16 | 00:00:00 | |
| DO2JMG | 2026-09-01 13:40:06 | 51.61012 | 8.83542 | 70° | 40km/h | 1991m | -1.9m/s | 5.6°C | 100% | 807.7hPa | 2.7V | 07:20:27 | 03:22:14 | 00:00:00 | |
| DO2JMG | 2026-09-01 13:40:05 | 51.61008 | 8.83526 | 70° | 42km/h | 1993m | -2.1m/s | 5.6°C | 100% | 807.6hPa | 2.7V | 07:20:27 | 03:22:13 | 00:00:00 | |
| DM0DOS-11 | 2026-09-01 13:40:05 | 51.61004 | 8.83510 | 69° | 42km/h | 1995m | -2.2m/s | 5.6°C | 0% | 807.3hPa | 2.7V | 07:14:36 | 03:22:12 | 00:00:00 | |
| DM0DOS-11 | 2026-09-01 13:40:05 | 51.60996 | 8.83479 | 65° | 40km/h | 1999m | -2.3m/s | 5.5°C | 0% | 806.8hPa | 2.7V | 07:14:38 | 03:22:10 | 00:00:00 | |
| DM0DOS-11 | 2026-09-01 13:40:05 | 51.60989 | 8.83450 | 71° | 37km/h | 2004m | -2m/s | 5.3°C | 0% | 806.5hPa | 2.7V | 07:14:40 | 03:22:08 | 00:00:00 | |
| DO2JMG | 2026-09-01 13:40:03 | 51.61000 | 8.83494 | 67° | 42km/h | 1997m | -2.3m/s | 5.5°C | 100% | 807.2hPa | 2.7V | 07:20:27 | 03:22:11 | 00:00:00 | |
| DO2JMG | 2026-09-01 13:40:02 | 51.60996 | 8.83479 | 66° | 40km/h | 2000m | -2.3m/s | 5.5°C | 100% | 806.8hPa | 2.7V | 07:20:27 | 03:22:10 | 00:00:00 | |
| HSKMA3-T | 2026-09-01 13:40:01 | 51.60992 | 8.83464 | 67° | 38km/h | 2002m | -2m/s | 5.4°C | 100% | 806.7hPa | 2.7V | 07:15:21 | 03:22:09 | 00:00:00 | |
| BIOWL1-15 | 2026-09-01 13:39:57 | 51.60981 | 8.83405 | 75° | 42km/h | 2010m | -2.3m/s | 5.3°C | 100% | 805.8hPa | 2.7V | 07:15:21 | 03:22:05 | 00:00:00 | |
| DB0DAN | 2026-09-01 13:39:55 | 51.60975 | 8.83373 | 67° | 40km/h | 2015m | -2.1m/s | 5.4°C | 100% | 805.42hPa | 2.7V | 00:00:00 | 00:00:00 | 00:00:00 | |
| DM0DOS-11 | 2026-09-01 13:39:55 | 51.60952 | 8.83286 | 71° | 40km/h | 2027m | -2.2m/s | 5.2°C | 0% | 804.1hPa | 2.7V | 07:14:51 | 03:21:57 | 00:00:00 | |
| DO2JMG | 2026-09-01 13:39:52 | 51.60962 | 8.83330 | 66° | 37km/h | 2021m | -2.1m/s | 5.4°C | 100% | 804.8hPa | 2.6V | 07:20:27 | 03:22:00 | 00:00:00 | |
| HSKMA3-T | 2026-09-01 13:39:50 | 51.60955 | 8.83301 | 72° | 38km/h | 2025m | -2.2m/s | 5.2°C | 100% | 804.4hPa | 2.8V | 07:15:21 | 03:21:58 | 00:00:00 | |
| BIOWL1-15 | 2026-09-01 13:39:47 | 51.60945 | 8.83255 | 66° | 42km/h | 2031m | -2m/s | 5.1°C | 100% | 803.7hPa | 2.7V | 07:15:21 | 03:21:55 | 00:00:00 | |
| DM0DOS-11 | 2026-09-01 13:39:44 | 51.60916 | 8.83136 | 66° | 42km/h | 2046m | -1.7m/s | 4.9°C | 0% | 802.4hPa | 2.7V | 07:15:01 | 03:21:47 | 00:00:00 | |
| DO2JMG | 2026-09-01 13:39:41 | 51.60923 | 8.83167 | 73° | 40km/h | 2042m | -1.8m/s | 4.9°C | 100% | 802.7hPa | 2.7V | 07:20:27 | 03:21:49 | 00:00:00 | |
| DB0DAN | 2026-09-01 13:39:40 | 51.60919 | 8.83152 | 70° | 40km/h | 2044m | -1.7m/s | 4.9°C | 100% | 802.6hPa | 2.7V | 00:00:00 | 00:00:00 | 00:00:00 | |
| HSKMA3-T | 2026-09-01 13:39:39 | 51.60916 | 8.83136 | 67° | 42km/h | 2046m | -1.7m/s | 4.9°C | 100% | 802.4hPa | 2.7V | 07:15:21 | 03:21:47 | 00:00:00 | |
| DM0DOS-11 | 2026-09-01 13:39:39 | 51.60897 | 8.83066 | 73° | 38km/h | 2053m | -1.5m/s | 4.9°C | 0% | 801.7hPa | 2.6V | 07:15:06 | 03:21:42 | 00:00:00 | |
| BIOWL1-15 | 2026-09-01 13:39:37 | 51.60907 | 8.83106 | 64° | 38km/h | 2049m | -1.6m/s | 4.9°C | 100% | 802.1hPa | 2.7V | 07:15:21 | 03:21:45 | 00:00:00 | |
| DD1CC2-15 | 2026-09-01 13:39:36 | 51.60900 | 8.83080 | 72° | 35km/h | 2052m | -1.5m/s | 4.9°C | 116.0% | 801.8hPa | 2.7V | 07:15:00 | 00:00:00 | 00:00:00 | |
| DL4BBY-15 | 2026-09-01 13:39:35 | 51.60900 | 8.83080 | 71° | 35km/h | 2052m | -1.4m/s | 2.4°C | 0% | 0hPa | 2.7V | 00:00:00 | 00:00:00 | 00:00:00 | |
| DM0DOS-11 | 2026-09-01 13:39:34 | 51.60879 | 8.82988 | 61° | 38km/h | 2060m | -1.4m/s | 4.8°C | 0% | 801hPa | 2.7V | 07:15:11 | 03:21:37 | 00:00:00 | |
| DO2JMG | 2026-09-01 13:39:30 | 51.60884 | 8.83003 | 65° | 40km/h | 2059m | -1.3m/s | 4.8°C | 100% | 801.1hPa | 2.7V | 07:20:27 | 03:21:38 | 00:00:00 | |
| DM0DOS-11 | 2026-09-01 13:39:29 | 51.60860 | 8.82921 | 70° | 38km/h | 2068m | -1.5m/s | 4.8°C | 0% | 800hPa | 2.7V | 07:15:16 | 03:21:32 | 00:00:00 | |
| HSKMA3-T | 2026-09-01 13:39:28 | 51.60874 | 8.82975 | 61° | 37km/h | 2062m | -1.7m/s | 4.8°C | 100% | 800.8hPa | 2.7V | 07:15:21 | 03:21:36 | 00:00:00 | |
| BIOWL1-15 | 2026-09-01 13:39:26 | 51.60866 | 8.82949 | 66° | 35km/h | 2065m | -1.8m/s | 4.8°C | 100% | 800.3hPa | 2.7V | 07:15:21 | 03:21:34 | 00:00:00 | |
| DB0DAN | 2026-09-01 13:39:25 | 51.60863 | 8.82936 | 69° | 35km/h | 2067m | -1.5m/s | 4.8°C | 100% | 800.21hPa | 2.6V | 00:00:00 | 00:00:00 | 00:00:00 | |
| DM0DOS-11 | 2026-09-01 13:39:23 | 51.60836 | 8.82847 | 59° | 38km/h | 2076m | -1.4m/s | 4.7°C | 0% | 799.3hPa | 2.7V | 07:15:21 | 03:21:27 | 00:00:00 | |
| HSKMA3-T | 2026-09-01 13:39:17 | 51.60827 | 8.82820 | 64° | 37km/h | 2079m | -1.5m/s | 4.7°C | 100% | 799.1hPa | 2.7V | 07:16:12 | 03:21:25 | 00:00:00 | |
| BIOWL1-15 | 2026-09-01 13:39:16 | 51.60824 | 8.82807 | 68° | 38km/h | 2080m | -1.4m/s | 4.7°C | 100% | 799hPa | 2.6V | 07:16:12 | 03:21:24 | 00:00:00 | |
| DM0DOS-11 | 2026-09-01 13:39:14 | 51.60816 | 8.82776 | 66° | 42km/h | 2083m | -1.3m/s | 4.7°C | 0% | 798.8hPa | 2.7V | 07:15:26 | 03:21:22 | 00:00:00 | |
| DM0DOS-11 | 2026-09-01 13:39:14 | 51.60788 | 8.82692 | 65° | 35km/h | 2091m | -1m/s | 4.6°C | 0% | 797.8hPa | 2.7V | 07:15:32 | 03:21:16 | 00:00:00 | |
| SONCRA | 2026-09-01 13:39:12 | 51.60807 | 8.82745 | 62° | 40km/h | 2086m | -1.6m/s | 4.7°C | 100.0% | 798.5hPa | 2.7V | 00:00:00 | 00:00:00 | 00:00:00 | |
| DB0DAN | 2026-09-01 13:39:10 | 51.60797 | 8.82717 | 60° | 37km/h | 2088m | -1m/s | 4.6°C | 100% | 798.14hPa | 2.7V | 00:00:00 | 00:00:00 | 00:00:00 | |
| BIOWL1-15 | 2026-09-01 13:39:09 | 51.60778 | 8.82649 | 69° | 40km/h | 2093m | -1.1m/s | 4.6°C | 100% | 797.8hPa | 2.7V | 07:16:12 | 03:21:13 | 00:00:00 | |
| DM0DOS-11 | 2026-09-01 13:39:09 | 51.60770 | 8.82620 | 64° | 38km/h | 2096m | -1.2m/s | 4.6°C | 0% | 797.5hPa | 2.7V | 07:15:37 | 03:21:11 | 00:00:00 | |
| HSKMA3-T | 2026-09-01 13:39:07 | 51.60785 | 8.82679 | 69° | 37km/h | 2092m | -1m/s | 4.6°C | 100% | 797.9hPa | 2.6V | 07:16:12 | 03:21:15 | 00:00:00 | |
| DD1CC3-15 | 2026-09-01 13:39:06 | 51.60785 | 8.82679 | 70° | 37km/h | 2092m | -1.0m/s | 4.6°C | 121.8% | 797.9hPa | 2.6V | 07:16:00 | 00:00:00 | 00:00:00 | |
| DM0DOS-11 | 2026-09-01 13:39:03 | 51.60752 | 8.82549 | 68° | 42km/h | 2103m | -1.4m/s | 4.6°C | 0% | 796.9hPa | 2.6V | 07:15:42 | 03:21:06 | 00:00:00 | |
| DM0DOS-11 | 2026-09-01 13:38:58 | 51.60729 | 8.82478 | 64° | 35km/h | 2109m | -1.2m/s | 4.6°C | 0% | 796.2hPa | 2.7V | 07:15:47 | 03:21:01 | 00:00:00 | |
| HSKMA3-T | 2026-09-01 13:38:56 | 51.60744 | 8.82518 | 61° | 42km/h | 2105m | -1.5m/s | 4.7°C | 100% | 796.5hPa | 2.7V | 07:16:12 | 03:21:04 | 00:00:00 | |
| BIOWL1-15 | 2026-09-01 13:38:54 | 51.60734 | 8.82490 | 60° | 37km/h | 2108m | -1.3m/s | 4.6°C | 100% | 796.2hPa | 2.7V | 07:16:12 | 03:21:02 | 00:00:00 | |
| DD1CC8 | 2026-09-01 13:38:50 | 51.60719 | 8.82435 | 71° | 38km/h | 2113m | -1.3m/s | 4.6°C | 100.0% | 795.7hPa | 2.7V | 00:00:00 | 00:00:00 | 00:00:00 | |
| DB0UT-7 | 2026-09-01 13:38:49 | 51.60716 | 8.82420 | 70° | 38km/h | 2115m | -1.3m/s | 4.5°C | 0% | 795.6hPa | 2.7V | 00:00:00 | 00:00:00 | 00:00:00 | |
| DM0DOS-11 | 2026-09-01 13:38:48 | 51.60693 | 8.82332 | 68° | 38km/h | 2124m | -1.8m/s | 4.5°C | 0% | 794.8hPa | 2.7V | 07:15:57 | 03:20:51 | 00:00:00 | |
| HSKMA3-T | 2026-09-01 13:38:46 | 51.60704 | 8.82375 | 66° | 38km/h | 2119m | -1.5m/s | 4.6°C | 100% | 795.3hPa | 2.7V | 07:16:12 | 03:20:54 | 00:00:00 | |
| BIOWL1-15 | 2026-09-01 13:38:43 | 51.60693 | 8.82332 | 69° | 38km/h | 2124m | -1.8m/s | 4.5°C | 100% | 794.8hPa | 2.7V | 07:16:12 | 03:20:51 | 00:00:00 | |
| DM0DOS-11 | 2026-09-01 13:38:43 | 51.60674 | 8.82261 | 70° | 37km/h | 2131m | -1.5m/s | 4.5°C | 0% | 794hPa | 2.7V | 07:16:02 | 03:20:46 | 00:00:00 | |
| DO2JMG | 2026-09-01 13:38:40 | 51.60681 | 8.82288 | 64° | 37km/h | 2128m | -1m/s | 4.5°C | 100% | 794.2hPa | 2.6V | 07:20:27 | 03:20:48 | 00:00:00 | |
| DB0DAN | 2026-09-01 13:38:40 | 51.60681 | 8.82288 | 64° | 35km/h | 2128m | -1m/s | 4.5°C | 100% | 794.22hPa | 2.6V | 00:00:00 | 00:00:00 | 00:00:00 | |
| HSKMA3-T | 2026-09-01 13:38:36 | 51.60668 | 8.82233 | 70° | 38km/h | 2134m | -1.3m/s | 4.5°C | 100% | 793.9hPa | 2.7V | 07:16:12 | 03:20:44 | 00:00:00 | |
| BIOWL1-15 | 2026-09-01 13:38:34 | 51.60654 | 8.82176 | 71° | 37km/h | 2138m | -1.2m/s | 4.5°C | 100% | 793.3hPa | 2.7V | 07:16:12 | 03:20:40 | 00:00:00 | |
| DM0DOS-11 | 2026-09-01 13:38:33 | 51.60639 | 8.82115 | 62° | 42km/h | 2142m | -1.2m/s | 4.6°C | 0% | 792.9hPa | 2.7V | 07:16:12 | 03:20:36 | 00:00:00 | |
| DO2JMG | 2026-09-01 13:38:30 | 51.60647 | 8.82146 | 70° | 42km/h | 2140m | -1.2m/s | 4.5°C | 100% | 793.2hPa | 2.7V | 07:20:27 | 03:20:38 | 00:00:00 | |
| DB0UT-7 | 2026-09-01 13:38:29 | 51.60643 | 8.82130 | 67° | 40km/h | 2142m | -1.0m/s | 4.5°C | 0% | 793.0hPa | 2.6V | 00:00:00 | 03:20:37 | 00:00:00 | |
| DM0DOS-11 | 2026-09-01 13:38:28 | 51.60614 | 8.82026 | 65° | 40km/h | 2151m | -1.4m/s | 4.4°C | 0% | 792.1hPa | 2.6V | 07:16:18 | 03:20:30 | 00:00:00 | |
| BIOWL1-15 | 2026-09-01 13:38:26 | 51.60596 | 8.81956 | 72° | 38km/h | 2157m | -1.4m/s | 4.4°C | 100% | 791.5hPa | 2.7V | 07:17:03 | 03:20:25 | 00:00:00 | |
| DB0DAN | 2026-09-01 13:38:25 | 51.60625 | 8.82071 | 67° | 37km/h | 2147m | -1.4m/s | 4.5°C | 100% | 792.57hPa | 2.7V | 00:00:00 | 00:00:00 | 00:00:00 | |
| HSKMA3-T | 2026-09-01 13:38:25 | 51.60625 | 8.82071 | 67° | 38km/h | 2147m | -1.4m/s | 4.5°C | 100% | 792.6hPa | 2.7V | 07:17:03 | 03:20:33 | 00:00:00 | |
| DD1CC3-15 | 2026-09-01 13:38:25 | 51.60625 | 8.82071 | 68° | 38km/h | 2147m | -1.4m/s | 4.5°C | 123.5% | 792.6hPa | 2.7V | 07:17:00 | 00:00:00 | 00:00:00 | |
| DD1CC8 | 2026-09-01 13:38:19 | 51.60602 | 8.81984 | 69° | 35km/h | 2155m | -1.2m/s | 4.5°C | 100.0% | 791.7hPa | 2.7V | 00:00:00 | 00:00:00 | 00:00:00 | |
| DM0DOS-11 | 2026-09-01 13:38:16 | 51.60575 | 8.81868 | 73° | 38km/h | 2164m | -0.8m/s | 4.4°C | 0% | 790.7hPa | 2.7V | 07:16:29 | 03:20:19 | 00:00:00 | |
| HSKMA3-T | 2026-09-01 13:38:14 | 51.60585 | 8.81911 | 65° | 38km/h | 2161m | -1m/s | 4.4°C | 100% | 791hPa | 2.6V | 07:17:03 | 03:20:22 | 00:00:00 | |
| DD1CC2-15 | 2026-09-01 13:38:12 | 51.60581 | 8.81896 | 68° | 37km/h | 2162m | -1.0m/s | 4.4°C | 123.7% | 791.0hPa | 2.7V | 07:17:00 | 00:00:00 | 00:00:00 | |
| DB0DAN | 2026-09-01 13:38:10 | 51.60572 | 8.81853 | 72° | 37km/h | 2165m | -1.1m/s | 4.4°C | 100% | 790.59hPa | 2.7V | 00:00:00 | 00:00:00 | 00:00:00 | |
| BIOWL1-15 | 2026-09-01 13:38:09 | 51.60569 | 8.81838 | 70° | 40km/h | 2166m | -0.9m/s | 4.4°C | 100% | 790.6hPa | 2.7V | 07:17:03 | 03:20:17 | 00:00:00 | |
| DM0DOS-11 | 2026-09-01 13:38:06 | 51.60540 | 8.81721 | 64° | 38km/h | 2173m | -0.8m/s | 4.2°C | 0% | 789.9hPa | 2.7V | 07:16:39 | 03:20:09 | 00:00:00 | |
| HSKMA3-T | 2026-09-01 13:38:03 | 51.60548 | 8.81750 | 69° | 42km/h | 2171m | -0.8m/s | 4.2°C | 100% | 790hPa | 2.7V | 07:17:03 | 03:20:11 | 00:00:00 | |
| DO2JMG | 2026-09-01 13:38:01 | 51.60540 | 8.81721 | 65° | 38km/h | 2173m | -0.9m/s | 4.2°C | 100% | 789.9hPa | 2.7V | 07:20:27 | 03:20:09 | 00:00:00 | |
| DM0DOS-11 | 2026-09-01 13:38:01 | 51.60519 | 8.81632 | 67° | 42km/h | 2179m | -1.2m/s | 4.3°C | 0% | 789.4hPa | 2.7V | 07:16:45 | 03:20:03 | 00:00:00 | |
| BIOWL1-15 | 2026-09-01 13:37:58 | 51.60529 | 8.81679 | 71° | 38km/h | 2176m | -1.1m/s | 4.2°C | 100% | 789.7hPa | 2.7V | 07:17:03 | 03:20:06 | 00:00:00 | |
| DB0DAN | 2026-09-01 13:37:55 | 51.60519 | 8.81632 | 68° | 40km/h | 2179m | -1.2m/s | 4.3°C | 100% | 789.43hPa | 2.7V | 00:00:00 | 00:00:00 | 00:00:00 | |
| DM0DOS-11 | 2026-09-01 13:37:55 | 51.60500 | 8.81558 | 72° | 40km/h | 2186m | -1.4m/s | 4.3°C | 0% | 788.7hPa | 2.7V | 07:16:50 | 03:19:58 | 00:00:00 | |
| HSKMA3-T | 2026-09-01 13:37:52 | 51.60507 | 8.81587 | 69° | 38km/h | 2183m | -1.4m/s | 4.3°C | 100% | 788.8hPa | 2.7V | 07:17:03 | 03:20:00 | 00:00:00 | |
| DO2JMG | 2026-09-01 13:37:50 | 51.60501 | 8.81558 | 72° | 40km/h | 2186m | -1.5m/s | 4.3°C | 100% | 788.7hPa | 2.7V | 07:20:27 | 03:19:58 | 00:00:00 | |
| DM0DOS-11 | 2026-09-01 13:37:50 | 51.60484 | 8.81485 | 73° | 37km/h | 2192m | -1.1m/s | 4.3°C | 0% | 788.1hPa | 2.7V | 07:16:55 | 03:19:53 | 00:00:00 | |
| BIOWL1-15 | 2026-09-01 13:37:47 | 51.60487 | 8.81499 | 70° | 37km/h | 2191m | -1.3m/s | 4.3°C | 100% | 788.3hPa | 2.7V | 07:17:03 | 03:19:54 | 00:00:00 | |
| DM0DOS-11 | 2026-09-01 13:37:45 | 51.60469 | 8.81408 | 68° | 40km/h | 2198m | -1.1m/s | 4.2°C | 0% | 787.5hPa | 2.6V | 07:17:00 | 03:19:48 | 00:00:00 | |
| HSKMA3-T | 2026-09-01 13:37:41 | 51.60472 | 8.81423 | 69° | 42km/h | 2197m | -1m/s | 4.3°C | 100% | 787.7hPa | 2.7V | 07:17:03 | 03:19:49 | 00:00:00 | |
| DB0DAN | 2026-09-01 13:37:40 | 51.60469 | 8.81408 | 69° | 38km/h | 2198m | -1.1m/s | 4.2°C | 100% | 787.52hPa | 2.6V | 00:00:00 | 00:00:00 | 00:00:00 | |
| DO2JMG | 2026-09-01 13:37:39 | 51.60465 | 8.81393 | 70° | 38km/h | 2199m | -1m/s | 4.2°C | 100% | 787.4hPa | 2.7V | 07:20:27 | 03:19:47 | 00:00:00 | |
| BIOWL1-15 | 2026-09-01 13:37:39 | 51.60459 | 8.81362 | 72° | 42km/h | 2201m | -1.4m/s | 4.2°C | 100% | 787.2hPa | 2.7V | 07:17:03 | 03:19:45 | 00:00:00 | |
| SONCRA | 2026-09-01 13:37:39 | 51.60462 | 8.81377 | 71° | 38km/h | 2200m | -1.1m/s | 4.2°C | 100.0% | 787.3hPa | 2.7V | 00:00:00 | 00:00:00 | 00:00:00 | |
| DM0DOS-11 | 2026-09-01 13:37:35 | 51.60437 | 8.81257 | 73° | 40km/h | 2209m | -1m/s | 4.1°C | 0% | 786.6hPa | 2.7V | 07:17:10 | 03:19:38 | 00:00:00 | |
| HSKMA3-T | 2026-09-01 13:37:30 | 51.60437 | 8.81257 | 74° | 40km/h | 2209m | -1m/s | 4.1°C | 100% | 786.6hPa | 2.7V | 07:17:54 | 03:19:38 | 00:00:00 | |
| DM0DOS-11 | 2026-09-01 13:37:30 | 51.60420 | 8.81183 | 67° | 40km/h | 2213m | -1.1m/s | 4°C | 0% | 786.1hPa | 2.7V | 07:17:15 | 03:19:33 | 00:00:00 | |
| BIOWL1-15 | 2026-09-01 13:37:28 | 51.60423 | 8.81198 | 69° | 38km/h | 2212m | -1.1m/s | 4°C | 100% | 786.1hPa | 2.7V | 07:17:54 | 03:19:34 | 00:00:00 | |
| DB0DAN | 2026-09-01 13:37:25 | 51.60420 | 8.81183 | 68° | 38km/h | 2213m | -1.1m/s | 4°C | 100% | 786.07hPa | 2.7V | 00:00:00 | 00:00:00 | 00:00:00 | |
| DO2JMG | 2026-09-01 13:37:21 | 51.60403 | 8.81125 | 66° | 35km/h | 2218m | -1.2m/s | 4°C | 100% | 785.7hPa | 2.7V | 07:20:27 | 03:19:29 | 00:00:00 | |
| DM0DOS-11 | 2026-09-01 13:37:20 | 51.60400 | 8.81112 | 70° | 33km/h | 2219m | -1m/s | 4°C | 0% | 785.4hPa | 2.7V | 07:17:20 | 03:19:28 | 00:00:00 | |
| DM0DOS-11 | 2026-09-01 13:37:20 | 51.60387 | 8.81038 | 70° | 42km/h | 2224m | -0.9m/s | 4.1°C | 0% | 785hPa | 2.7V | 07:17:25 | 03:19:23 | 00:00:00 | |
| HSKMA3-T | 2026-09-01 13:37:19 | 51.60398 | 8.81099 | 76° | 35km/h | 2220m | -1.1m/s | 4.1°C | 100% | 785.4hPa | 2.7V | 07:17:54 | 03:19:27 | 00:00:00 | |
| BIOWL1-15 | 2026-09-01 13:37:16 | 51.60391 | 8.81054 | 74° | 42km/h | 2224m | -0.9m/s | 4.1°C | 100% | 785.1hPa | 2.6V | 07:17:54 | 03:19:24 | 00:00:00 | |
| DM0DOS-11 | 2026-09-01 13:37:15 | 51.60369 | 8.80963 | 70° | 38km/h | 2228m | -0.5m/s | 4.1°C | 0% | 784.4hPa | 2.7V | 07:17:30 | 03:19:18 | 00:00:00 | |
| BIOWL7-15 | 2026-09-01 13:37:11 | 51.60375 | 8.80992 | 67° | 38km/h | 2227m | -0.7m/s | 4.1°C | 0% | 784.6hPa | 2.7V | 00:00:00 | 00:00:00 | 00:00:00 | |
| DB0DAN | 2026-09-01 13:37:10 | 51.60369 | 8.80963 | 71° | 37km/h | 2229m | -0.5m/s | 4.1°C | 100% | 784.45hPa | 2.7V | 00:00:00 | 00:00:00 | 00:00:00 | |
| DO2JMG | 2026-09-01 13:37:10 | 51.60369 | 8.80963 | 71° | 38km/h | 2229m | -0.5m/s | 4.1°C | 100% | 784.5hPa | 2.7V | 07:20:27 | 03:19:18 | 00:00:00 | |
| DM0DOS-11 | 2026-09-01 13:37:10 | 51.60350 | 8.80888 | 66° | 38km/h | 2233m | -0.9m/s | 4.1°C | 0% | 784.1hPa | 2.7V | 07:17:35 | 03:19:13 | 00:00:00 | |
| HSKMA3-T | 2026-09-01 13:37:08 | 51.60362 | 8.80933 | 70° | 40km/h | 2230m | -1m/s | 4.1°C | 100% | 784.4hPa | 2.6V | 07:17:54 | 03:19:16 | 00:00:00 | |
| SONCRA | 2026-09-01 13:37:08 | 51.60358 | 8.80918 | 67° | 40km/h | 2231m | -1.0m/s | 4.1°C | 100.0% | 784.4hPa | 2.6V | 00:00:00 | 00:00:00 | 00:00:00 | |
| DB0UT-7 | 2026-09-01 13:37:06 | 51.60354 | 8.80903 | 66° | 40km/h | 2232m | -1.0m/s | 4.1°C | 0% | 784.1hPa | 2.6V | 00:00:00 | 00:00:00 | 00:00:00 | |
| DM0DOS-11 | 2026-09-01 13:37:05 | 51.60332 | 8.80813 | 66° | 40km/h | 2237m | -1m/s | 4.2°C | 0% | 783.7hPa | 2.6V | 07:17:40 | 03:19:08 | 00:00:00 | |
| BIOWL1-15 | 2026-09-01 13:37:05 | 51.60350 | 8.80888 | 67° | 38km/h | 2233m | -0.9m/s | 4.1°C | 100% | 784.1hPa | 2.7V | 07:17:54 | 03:19:13 | 00:00:00 | |
| DD1CC3-15 | 2026-09-01 13:37:02 | 51.60343 | 8.80859 | 71° | 40km/h | 2234m | -0.7m/s | 4.2°C | 123.8% | 784.0hPa | 2.7V | 07:17:00 | 00:00:00 | 00:00:00 | |
| DM0DOS-11 | 2026-09-01 13:36:59 | 51.60316 | 8.80736 | 72° | 42km/h | 2242m | -1.2m/s | 4.2°C | 0% | 783.2hPa | 2.7V | 07:17:45 | 03:19:03 | 00:00:00 | |
| HSKMA3-T | 2026-09-01 13:36:57 | 51.60321 | 8.80768 | 74° | 40km/h | 2240m | -0.8m/s | 4.2°C | 100% | 783.4hPa | 2.7V | 07:17:54 | 03:19:05 | 00:00:00 | |
| DB0DAN | 2026-09-01 13:36:55 | 51.60316 | 8.80736 | 72° | 40km/h | 2242m | -1.3m/s | 4.2°C | 100% | 783.17hPa | 2.7V | 00:00:00 | 00:00:00 | 00:00:00 | |
| BIOWL1-15 | 2026-09-01 13:36:55 | 51.60316 | 8.80736 | 72° | 42km/h | 2242m | -1.3m/s | 4.2°C | 100% | 783.2hPa | 2.7V | 07:17:54 | 03:19:03 | 00:00:00 | |
| BIOWL9-15 | 2026-09-01 13:36:53 | 51.60306 | 8.80691 | 72° | 37km/h | 2245m | -1.0m/s | 4.0°C | 100.0% | 782.9hPa | 2.7V | 00:00:00 | 00:00:00 | 00:00:00 | |
| DM0DOS-11 | 2026-09-01 13:36:50 | 51.60285 | 8.80582 | 70° | 38km/h | 2255m | -1.5m/s | 4.2°C | 0% | 782.1hPa | 2.7V | 07:17:55 | 03:18:53 | 00:00:00 | |
| HSKMA3-T | 2026-09-01 13:36:46 | 51.60288 | 8.80597 | 70° | 40km/h | 2253m | -1.9m/s | 4.2°C | 100% | 782.2hPa | 2.7V | 07:17:54 | 03:18:54 | 00:00:00 | |
| BIOWL1-15 | 2026-09-01 13:36:45 | 51.60285 | 8.80582 | 71° | 38km/h | 2255m | -1.5m/s | 4.2°C | 100% | 782.1hPa | 2.7V | 07:18:45 | 03:18:53 | 00:00:00 | |
| DD1CC3-15 | 2026-09-01 13:36:42 | 51.60277 | 8.80538 | 74° | 40km/h | 2259m | -1.6m/s | 4.1°C | 123.2% | 781.6hPa | 2.7V | 07:18:00 | 00:00:00 | 00:00:00 | |
| DB0DAN | 2026-09-01 13:36:40 | 51.60270 | 8.80506 | 68° | 38km/h | 2261m | -1.3m/s | 4.2°C | 100% | 781.31hPa | 2.7V | 00:00:00 | 00:00:00 | 00:00:00 | |
| HSKMA3-T | 2026-09-01 13:36:35 | 51.60253 | 8.80431 | 73° | 42km/h | 2270m | -1.7m/s | 4.1°C | 100% | 780.6hPa | 2.7V | 07:18:45 | 03:18:43 | 00:00:00 | |
| BIOWL1-15 | 2026-09-01 13:36:34 | 51.60249 | 8.80415 | 71° | 44km/h | 2271m | -1.6m/s | 4.1°C | 100% | 780.5hPa | 2.7V | 07:18:45 | 03:18:42 | 00:00:00 | |
| DD1CC9-15 | 2026-09-01 13:36:32 | 51.60245 | 8.80398 | 69° | 42km/h | 2273m | -1.7m/s | 4.1°C | 121.9% | 780.3hPa | 2.7V | 00:00:00 | 00:00:00 | 00:00:00 | |
| BIOWL7-15 | 2026-09-01 13:36:31 | 51.60242 | 8.80383 | 68° | 40km/h | 2274m | -1.6m/s | 4.1°C | 0% | 780.3hPa | 2.7V | 07:18:00 | 00:00:00 | 00:00:00 | |
| DM0DOS-11 | 2026-09-01 13:36:30 | 51.60214 | 8.80277 | 67° | 40km/h | 2286m | -1.7m/s | 4°C | 0% | 779hPa | 2.7V | 07:18:15 | 03:18:33 | 00:00:00 | |
| DD1CC2-15 | 2026-09-01 13:36:28 | 51.60230 | 8.80339 | 70° | 40km/h | 2280m | -1.9m/s | 4.1°C | 120.8% | 779.7hPa | 2.7V | 07:18:00 | 00:00:00 | 00:00:00 | |
| DK9SH | 2026-09-01 13:36:27 | 51.60227 | 8.80323 | 68° | 42km/h | 2282m | -1.3m/s | 4.0°C | 0% | 779.5hPa | 2.7V | 07:18:00 | 00:00:00 | 00:00:00 | |
| DB0DAN | 2026-09-01 13:36:25 | 51.60214 | 8.80277 | 67° | 38km/h | 2286m | -1.7m/s | 4°C | 100% | 778.98hPa | 2.7V | 00:00:00 | 00:00:00 | 00:00:00 | |
| DM0DOS-11 | 2026-09-01 13:36:25 | 51.60194 | 8.80199 | 65° | 40km/h | 2294m | -1.2m/s | 3.8°C | 0% | 778.2hPa | 2.7V | 07:18:20 | 03:18:28 | 00:00:00 | |
| HSKMA3-T | 2026-09-01 13:36:24 | 51.60210 | 8.80262 | 69° | 42km/h | 2288m | -1.7m/s | 4°C | 100% | 778.9hPa | 2.7V | 07:18:45 | 03:18:32 | 00:00:00 | |
| DO2JMG | 2026-09-01 13:36:23 | 51.60207 | 8.80246 | 69° | 42km/h | 2289m | -1.6m/s | 4°C | 100% | 778.7hPa | 2.7V | 07:20:27 | 03:18:31 | 00:00:00 | |
| BIOWL1-15 | 2026-09-01 13:36:23 | 51.60190 | 8.80184 | 68° | 37km/h | 2295m | -1.4m/s | 3.9°C | 100% | 778.2hPa | 2.7V | 07:18:45 | 03:18:27 | 00:00:00 | |
| BIOWL9-15 | 2026-09-01 13:36:21 | 51.60198 | 8.80214 | 65° | 42km/h | 2292m | -1.4m/s | 3.8°C | 100.0% | 778.5hPa | 2.7V | 00:00:00 | 00:00:00 | 00:00:00 | |
| DM0DOS-11 | 2026-09-01 13:36:20 | 51.60180 | 8.80124 | 76° | 42km/h | 2302m | -1.9m/s | 3.8°C | 0% | 777.5hPa | 2.7V | 07:18:25 | 03:18:23 | 00:00:00 | |
| DM0DOS-11 | 2026-09-01 13:36:15 | 51.60160 | 8.80043 | 63° | 38km/h | 2310m | -1.4m/s | 3.7°C | 0% | 776.8hPa | 2.7V | 07:18:30 | 03:18:18 | 00:00:00 | |
| HSKMA3-T | 2026-09-01 13:36:14 | 51.60177 | 8.80107 | 73° | 44km/h | 2304m | -1.8m/s | 3.8°C | 100% | 777.4hPa | 2.7V | 07:18:45 | 03:18:22 | 00:00:00 | |
| DO2JMG | 2026-09-01 13:36:13 | 51.60173 | 8.80090 | 69° | 46km/h | 2306m | -1.7m/s | 3.8°C | 100% | 777.2hPa | 2.6V | 07:20:27 | 03:18:21 | 00:00:00 | |
| DB0DAN | 2026-09-01 13:36:10 | 51.60160 | 8.80043 | 63° | 37km/h | 2310m | -1.4m/s | 3.7°C | 100% | 776.79hPa | 2.7V | 00:00:00 | 00:00:00 | 00:00:00 | |
| BIOWL1-15 | 2026-09-01 13:36:10 | 51.60152 | 8.80016 | 70° | 37km/h | 2314m | -2.1m/s | 3.7°C | 100% | 776.5hPa | 2.7V | 07:18:45 | 03:18:16 | 00:00:00 | |
| DD1CC2-15 | 2026-09-01 13:36:07 | 51.60152 | 8.80016 | 71° | 37km/h | 2314m | -2.1m/s | 3.7°C | 118.6% | 776.5hPa | 2.7V | 07:18:00 | 00:00:00 | 00:00:00 | |
| DM0DOS-11 | 2026-09-01 13:36:06 | 51.60143 | 8.79971 | 73° | 42km/h | 2320m | -2.2m/s | 3.7°C | 0% | 775.8hPa | 2.7V | 07:18:35 | 03:18:13 | 00:00:00 | |
| DM0DOS-11 | 2026-09-01 13:36:06 | 51.60124 | 8.79890 | 70° | 42km/h | 2330m | -1.7m/s | 3.7°C | 0% | 774.9hPa | 2.7V | 07:18:40 | 03:18:08 | 00:00:00 | |
| HSKMA3-T | 2026-09-01 13:36:03 | 51.60136 | 8.79938 | 68° | 44km/h | 2324m | -1.7m/s | 3.7°C | 100% | 775.4hPa | 2.7V | 07:18:45 | 03:18:11 | 00:00:00 | |
| DO2JMG | 2026-09-01 13:36:02 | 51.60132 | 8.79921 | 68° | 42km/h | 2326m | -2.1m/s | 3.7°C | 100% | 775.3hPa | 2.7V | 07:20:27 | 03:18:10 | 00:00:00 | |
| BIOWL1-15 | 2026-09-01 13:36:02 | 51.60124 | 8.79890 | 71° | 42km/h | 2330m | -1.7m/s | 3.7°C | 100% | 774.9hPa | 2.7V | 07:18:45 | 03:18:08 | 00:00:00 | |
| DL3AQ-11 | 2026-09-01 13:36:00 | 51.60121 | 8.79873 | 73° | 42km/h | 2331m | -2.0m/s | 3.7°C | 100.0% | 774.8hPa | 2.7V | 00:00:00 | 00:00:00 | 00:00:00 | |
| DB0DAN | 2026-09-01 13:35:55 | 51.60105 | 8.79803 | 64° | 42km/h | 2338m | -1.3m/s | 3.6°C | 100% | 774.07hPa | 2.7V | 00:00:00 | 00:00:00 | 00:00:00 | |
| DM0DOS-11 | 2026-09-01 13:35:55 | 51.60087 | 8.79732 | 77° | 37km/h | 2344m | -1.5m/s | 3.6°C | 0% | 773.6hPa | 2.7V | 07:18:50 | 03:17:58 | 00:00:00 | |
| HSKMA3-T | 2026-09-01 13:35:52 | 51.60092 | 8.79760 | 70° | 35km/h | 2341m | -1.4m/s | 3.7°C | 100% | 773.8hPa | 2.7V | 07:19:36 | 03:18:00 | 00:00:00 | |
| BIOWL1-15 | 2026-09-01 13:35:50 | 51.60087 | 8.79732 | 77° | 37km/h | 2344m | -1.5m/s | 3.6°C | 100% | 773.6hPa | 2.7V | 07:19:36 | 03:17:58 | 00:00:00 | |
| DD1CC2-15 | 2026-09-01 13:35:47 | 51.60082 | 8.79701 | 78° | 42km/h | 2347m | -2.0m/s | 3.6°C | 120.2% | 773.1hPa | 2.7V | 07:19:00 | 00:00:00 | 00:00:00 | |
| DB0UT-7 | 2026-09-01 13:35:46 | 51.60077 | 8.79666 | 73° | 38km/h | 2351m | -1.5m/s | 3.5°C | 0% | 772.8hPa | 2.7V | 00:00:00 | 00:00:00 | 00:00:00 | |
| DM0DOS-11 | 2026-09-01 13:35:45 | 51.60058 | 8.79575 | 77° | 37km/h | 2359m | -1.2m/s | 3.5°C | 0% | 772.1hPa | 2.7V | 07:19:00 | 03:17:48 | 00:00:00 | |
| DD1CC8 | 2026-09-01 13:35:44 | 51.60070 | 8.79632 | 68° | 40km/h | 2354m | -1.7m/s | 3.5°C | 100.0% | 772.6hPa | 2.7V | 00:00:00 | 00:00:00 | 00:00:00 | |
| BIOWL1-15 | 2026-09-01 13:35:41 | 51.60056 | 8.79560 | 78° | 40km/h | 2360m | -1.4m/s | 3.5°C | 100% | 772hPa | 2.7V | 07:19:36 | 03:17:47 | 00:00:00 | |
| HSKMA3-T | 2026-09-01 13:35:41 | 51.60060 | 8.79589 | 75° | 35km/h | 2357m | -1.2m/s | 3.5°C | 100% | 772.2hPa | 2.7V | 07:19:36 | 03:17:49 | 00:00:00 | |
| DB0DAN | 2026-09-01 13:35:40 | 51.60058 | 8.79575 | 78° | 35km/h | 2359m | -1.3m/s | 3.5°C | 100% | 772.15hPa | 2.7V | 00:00:00 | 00:00:00 | 00:00:00 | |
| DM0DOS-11 | 2026-09-01 13:35:39 | 51.60044 | 8.79497 | 68° | 37km/h | 2364m | -0.8m/s | 3.5°C | 0% | 771.6hPa | 2.7V | 07:19:05 | 03:17:43 | 00:00:00 | |
| HSKMA3-T | 2026-09-01 13:35:32 | 51.60035 | 8.79443 | 81° | 37km/h | 2369m | -1.4m/s | 3.5°C | 100% | 771hPa | 2.7V | 07:19:36 | 03:17:39 | 00:00:00 | |
| DM0DOS-11 | 2026-09-01 13:35:30 | 51.60033 | 8.79428 | 81° | 38km/h | 2370m | -1.4m/s | 3.5°C | 0% | 771hPa | 2.7V | 07:19:10 | 03:17:38 | 00:00:00 | |
| DM0DOS-11 | 2026-09-01 13:35:30 | 51.60019 | 8.79350 | 68° | 38km/h | 2378m | -1.5m/s | 3.5°C | 0% | 770.3hPa | 2.7V | 07:19:15 | 03:17:33 | 00:00:00 | |
| BIOWL1-15 | 2026-09-01 13:35:29 | 51.60031 | 8.79413 | 79° | 40km/h | 2372m | -1.4m/s | 3.5°C | 100% | 770.8hPa | 2.6V | 07:19:36 | 03:17:37 | 00:00:00 | |
| DD1CC2-15 | 2026-09-01 13:35:27 | 51.60029 | 8.79396 | 77° | 42km/h | 2373m | -1.6m/s | 3.5°C | 128.7% | 770.6hPa | 2.7V | 07:19:00 | 00:00:00 | 00:00:00 | |
| DB0DAN | 2026-09-01 13:35:25 | 51.60019 | 8.79350 | 68° | 37km/h | 2378m | -1.5m/s | 3.5°C | 100% | 770.31hPa | 2.7V | 00:00:00 | 00:00:00 | 00:00:00 | |
| DM0DOS-11 | 2026-09-01 13:35:25 | 51.60005 | 8.79277 | 75° | 40km/h | 2385m | -1.7m/s | 3.4°C | 0% | 769.5hPa | 2.7V | 07:19:20 | 03:17:28 | 00:00:00 | |
| HSKMA3-T | 2026-09-01 13:35:21 | 51.60008 | 8.79293 | 76° | 38km/h | 2384m | -1.3m/s | 3.4°C | 100% | 769.8hPa | 2.7V | 07:19:36 | 03:17:29 | 00:00:00 | |
| DM0DOS-11 | 2026-09-01 13:35:20 | 51.59991 | 8.79202 | 76° | 37km/h | 2391m | -0.7m/s | 3.4°C | 0% | 769hPa | 2.6V | 07:19:25 | 03:17:23 | 00:00:00 | |
| BIOWL1-15 | 2026-09-01 13:35:18 | 51.60000 | 8.79246 | 72° | 40km/h | 2388m | -1.3m/s | 3.4°C | 100% | 769.2hPa | 2.7V | 07:19:36 | 03:17:26 | 00:00:00 | |
| DM0DOS-11 | 2026-09-01 13:35:15 | 51.59981 | 8.79129 | 76° | 35km/h | 2397m | -1.5m/s | 3.3°C | 0% | 768.6hPa | 2.7V | 07:19:30 | 03:17:18 | 00:00:00 | |
| HSKMA3-T | 2026-09-01 13:35:10 | 51.59981 | 8.79129 | 76° | 35km/h | 2397m | -1.5m/s | 3.3°C | 100% | 768.6hPa | 2.7V | 07:19:36 | 03:17:18 | 00:00:00 | |
| DB0DAN | 2026-09-01 13:35:10 | 51.59981 | 8.79129 | 76° | 33km/h | 2397m | -1.5m/s | 3.3°C | 100% | 768.64hPa | 2.7V | 00:00:00 | 00:00:00 | 00:00:00 | |
| BIOWL1-15 | 2026-09-01 13:35:07 | 51.59976 | 8.79088 | 82° | 37km/h | 2400m | -0.6m/s | 3.3°C | 100% | 768.3hPa | 2.7V | 07:19:36 | 03:17:15 | 00:00:00 | |
| DB0UT-7 | 2026-09-01 13:35:06 | 51.59975 | 8.79072 | 82° | 38km/h | 2401m | -1.1m/s | 3.3°C | 0% | 768.0hPa | 2.7V | 00:00:00 | 00:00:00 | 00:00:00 | |
| DO9LL-15 | 2026-09-01 13:35:05 | 51.59973 | 8.79056 | 81° | 40km/h | 2402m | -0.1m/s | 3.3°C | 0% | 767.8hPa | 2.7V | 00:00:00 | 03:17:13 | 00:00:00 | |
| DM0DOS-11 | 2026-09-01 13:35:04 | 51.59962 | 8.78966 | 80° | 35km/h | 2405m | -1.1m/s | 3.3°C | 0% | 767.7hPa | 2.7V | 07:19:41 | 03:17:07 | 00:00:00 | |
| HSKMA3-T | 2026-09-01 13:35:00 | 51.59963 | 8.78981 | 80° | 35km/h | 2404m | -0.7m/s | 3.4°C | 100% | 767.8hPa | 2.7V | 07:20:27 | 03:17:08 | 00:00:00 | |
| DM0DOS-11 | 2026-09-01 13:34:59 | 51.59951 | 8.78896 | 74° | 33km/h | 2406m | 0m/s | 3.3°C | 0% | 767.5hPa | 2.7V | 07:19:46 | 03:17:02 | 00:00:00 | |
| BIOWL1-15 | 2026-09-01 13:34:59 | 51.59958 | 8.78937 | 77° | 37km/h | 2406m | -0.5m/s | 3.3°C | 100% | 767.5hPa | 2.7V | 07:20:27 | 03:17:05 | 00:00:00 | |
| DB0DAN | 2026-09-01 13:34:55 | 51.59953 | 8.78909 | 73° | 33km/h | 2407m | 0m/s | 3.3°C | 100% | 767.52hPa | 2.6V | 00:00:00 | 00:00:00 | 00:00:00 | |
| DM0DOS-11 | 2026-09-01 13:34:54 | 51.59941 | 8.78823 | 75° | 42km/h | 2407m | -0.4m/s | 3.3°C | 0% | 767.4hPa | 2.7V | 07:19:51 | 03:16:57 | 00:00:00 | |
| DO2JMG | 2026-09-01 13:34:52 | 51.59947 | 8.78869 | 80° | 35km/h | 2407m | -0.4m/s | 3.3°C | 100% | 767.4hPa | 2.7V | 07:20:27 | 03:17:00 | 00:00:00 | |
| DL3AQ-11 | 2026-09-01 13:34:51 | 51.59943 | 8.78839 | 77° | 38km/h | 2407m | 0.0m/s | 3.3°C | 100.0% | 767.5hPa | 2.7V | 00:00:00 | 00:00:00 | 00:00:00 | |
| DM0DOS-11 | 2026-09-01 13:34:49 | 51.59927 | 8.78746 | 80° | 35km/h | 2410m | -0.4m/s | 3.4°C | 0% | 767.2hPa | 2.7V | 07:19:56 | 03:16:52 | 00:00:00 | |
| HSKMA3-T | 2026-09-01 13:34:49 | 51.59941 | 8.78823 | 75° | 42km/h | 2407m | -0.4m/s | 3.3°C | 100% | 767.4hPa | 2.7V | 07:20:27 | 03:16:57 | 00:00:00 | |
| BIOWL1-15 | 2026-09-01 13:34:46 | 51.59932 | 8.78775 | 73° | 38km/h | 2409m | -0.6m/s | 3.3°C | 100% | 767.2hPa | 2.7V | 07:20:27 | 03:16:54 | 00:00:00 | |
| DB0UT-7 | 2026-09-01 13:34:46 | 51.59932 | 8.78775 | 73° | 35km/h | 2409m | -0.5m/s | 3.2°C | 0% | 767.2hPa | 2.7V | 07:19:00 | 03:16:54 | 00:00:00 | |
| DD1CC2-15 | 2026-09-01 13:34:45 | 51.59932 | 8.78775 | 74° | 38km/h | 2409m | -0.6m/s | 3.3°C | 121.1% | 767.2hPa | 2.7V | 07:20:00 | 00:00:00 | 00:00:00 | |
| DM0DOS-11 | 2026-09-01 13:34:44 | 51.59923 | 8.78674 | 82° | 35km/h | 2413m | -0.5m/s | 3.3°C | 0% | 766.9hPa | 2.7V | 07:20:01 | 03:16:47 | 00:00:00 | |
| DO2JMG | 2026-09-01 13:34:41 | 51.59925 | 8.78703 | 86° | 37km/h | 2412m | -0.6m/s | 3.3°C | 100% | 767hPa | 2.6V | 07:20:27 | 03:16:49 | 00:00:00 | |
| DB0DAN | 2026-09-01 13:34:40 | 51.59924 | 8.78688 | 84° | 35km/h | 2412m | -0.6m/s | 3.3°C | 100% | 767.06hPa | 2.7V | 00:00:00 | 00:00:00 | 00:00:00 | |
| HSKMA3-T | 2026-09-01 13:34:39 | 51.59923 | 8.78674 | 83° | 35km/h | 2413m | -0.5m/s | 3.3°C | 100% | 766.9hPa | 2.7V | 07:20:27 | 03:16:47 | 00:00:00 | |
| BIOWL1-15 | 2026-09-01 13:34:38 | 51.59915 | 8.78565 | 80° | 37km/h | 2425m | -1.9m/s | 3.2°C | 100% | 766hPa | 2.7V | 07:20:27 | 03:16:39 | 00:00:00 | |
| DM0DOS-11 | 2026-09-01 13:34:34 | 51.59911 | 8.78536 | 78° | 35km/h | 2428m | -1.8m/s | 3.1°C | 0% | 765.7hPa | 2.7V | 07:20:11 | 03:16:37 | 00:00:00 | |
| HSKMA3-T | 2026-09-01 13:34:29 | 51.59911 | 8.78536 | 78° | 35km/h | 2428m | -1.8m/s | 3.2°C | 100% | 765.7hPa | 2.7V | 07:20:27 | 03:16:37 | 00:00:00 | |
| DB0DAN | 2026-09-01 13:34:25 | 51.59906 | 8.78480 | 84° | 35km/h | 2437m | -2.5m/s | 3.2°C | 100% | 764.74hPa | 2.7V | 00:00:00 | 00:00:00 | 00:00:00 | |
| DM0DOS-11 | 2026-09-01 13:34:24 | 51.59898 | 8.78398 | 84° | 31km/h | 2454m | -3m/s | 3.4°C | 0% | 763.2hPa | 2.7V | 07:20:21 | 03:16:27 | 00:00:00 | |
| BIOWL1-15 | 2026-09-01 13:34:22 | 51.59902 | 8.78436 | 78° | 35km/h | 2445m | -3.2m/s | 3.2°C | 100% | 764.1hPa | 2.7V | 07:20:27 | 03:16:30 | 00:00:00 | |
| DO2JMG | 2026-09-01 13:34:19 | 51.59898 | 8.78398 | 85° | 31km/h | 2454m | -3m/s | 3.4°C | 100% | 763.2hPa | 2.7V | 07:20:27 | 03:16:27 | 00:00:00 | |
| HSKMA3-T | 2026-09-01 13:34:18 | 51.59898 | 8.78385 | 85° | 31km/h | 2457m | -3.2m/s | 3.4°C | 100% | 762.8hPa | 2.7V | 07:20:27 | 03:16:26 | 00:00:00 | |
| BIOWL9-15 | 2026-09-01 13:34:17 | 51.59896 | 8.78372 | 80° | 31km/h | 2460m | -2.9m/s | 3.2°C | 100.0% | 762.5hPa | 2.7V | 00:00:00 | 00:00:00 | 00:00:00 | |
| DM0DOS-11 | 2026-09-01 13:34:14 | 51.59884 | 8.78268 | 73° | 35km/h | 2483m | -2.7m/s | 2.9°C | 0% | 760.3hPa | 2.7V | 07:20:31 | 03:16:17 | 00:00:00 | |
| BIOWL1-15 | 2026-09-01 13:34:11 | 51.59888 | 8.78295 | 79° | 35km/h | 2477m | -2.6m/s | 3°C | 100% | 761hPa | 2.7V | 07:21:18 | 03:16:19 | 00:00:00 | |
| DB0DAN | 2026-09-01 13:34:10 | 51.59886 | 8.78281 | 76° | 33km/h | 2480m | -2.9m/s | 2.9°C | 100% | 760.61hPa | 2.7V | 00:00:00 | 00:00:00 | 00:00:00 | |
| DO2JMG | 2026-09-01 13:34:08 | 51.59882 | 8.78255 | 73° | 31km/h | 2486m | -2.9m/s | 2.9°C | 100% | 760hPa | 2.6V | 07:21:18 | 03:16:16 | 00:00:00 | |
| HSKMA3-T | 2026-09-01 13:34:07 | 51.59879 | 8.78243 | 75° | 29km/h | 2489m | -2.9m/s | 2.8°C | 100% | 759.8hPa | 2.7V | 07:21:18 | 03:16:15 | 00:00:00 | |
| DB0UT-7 | 2026-09-01 13:34:06 | 51.59878 | 8.78232 | 79° | 31km/h | 2491m | -2.6m/s | 2.8°C | 0% | 759.5hPa | 2.7V | 00:00:00 | 03:16:14 | 00:00:00 | |
| DM0DOS-11 | 2026-09-01 13:34:04 | 51.59863 | 8.78142 | 71° | 29km/h | 2510m | -2.6m/s | 2.4°C | 99.9% | 757.8hPa | 2.7V | 07:20:41 | 03:16:07 | 00:00:00 | |
| BIOWL1-15 | 2026-09-01 13:34:01 | 51.59868 | 8.78166 | 71° | 33km/h | 2505m | -2.8m/s | 2.6°C | 100% | 758.3hPa | 2.6V | 07:21:18 | 03:16:09 | 00:00:00 | |
| DO2JMG | 2026-09-01 13:33:58 | 51.59861 | 8.78131 | 74° | 29km/h | 2513m | -2.6m/s | 2.4°C | 99% | 757.6hPa | 2.7V | 07:21:18 | 03:16:06 | 00:00:00 | |
| HSKMA3-T | 2026-09-01 13:33:56 | 51.59856 | 8.78106 | 73° | 33km/h | 2518m | -2.5m/s | 2.3°C | 96.6% | 757.2hPa | 2.7V | 07:21:18 | 03:16:04 | 00:00:00 | |
| DB0DAN | 2026-09-01 13:33:55 | 51.59854 | 8.78094 | 70° | 31km/h | 2521m | -2.4m/s | 2.3°C | 96.2% | 756.94hPa | 2.7V | 00:00:00 | 00:00:00 | 00:00:00 | |
| DM0DOS-11 | 2026-09-01 13:33:54 | 51.59851 | 8.78082 | 66° | 31km/h | 2523m | -2.5m/s | 2.3°C | 97.9% | 756.7hPa | 2.7V | 07:20:46 | 03:16:02 | 00:00:00 | |
| DM0DOS-11 | 2026-09-01 13:33:54 | 51.59838 | 8.78024 | 74° | 33km/h | 2534m | -2.4m/s | 2.2°C | 0% | 755.6hPa | 2.7V | 07:20:51 | 03:15:57 | 00:00:00 | |
| BIOWL1-15 | 2026-09-01 13:33:51 | 51.59842 | 8.78048 | 72° | 27km/h | 2530m | -2.1m/s | 2.2°C | 100% | 756hPa | 2.6V | 07:21:18 | 03:15:59 | 00:00:00 | |
| DO2JMG | 2026-09-01 13:33:48 | 51.59836 | 8.78011 | 72° | 35km/h | 2537m | -2.4m/s | 2.2°C | 100% | 755.3hPa | 2.7V | 07:21:18 | 03:15:56 | 00:00:00 | |
| BIOWL9-15 | 2026-09-01 13:33:46 | 51.59829 | 8.77985 | 65° | 33km/h | 2542m | -2.7m/s | 2.7°C | 100.0% | 754.8hPa | 2.7V | 00:00:00 | 00:00:00 | 00:00:00 | |
| BIOWL1-15 | 2026-09-01 13:33:45 | 51.59814 | 8.77927 | 68° | 33km/h | 2555m | -2.5m/s | 2.1°C | 100% | 753.7hPa | 2.7V | 07:21:18 | 03:15:49 | 00:00:00 | |
| HSKMA3-T | 2026-09-01 13:33:45 | 51.59826 | 8.77973 | 65° | 31km/h | 2544m | -2.6m/s | 2.7°C | 100% | 754.5hPa | 2.7V | 07:21:18 | 03:15:53 | 00:00:00 | |
| DM0DOS-11 | 2026-09-01 13:33:44 | 51.59822 | 8.77962 | 67° | 29km/h | 2547m | -2.6m/s | 2.4°C | 0% | 754.3hPa | 2.7V | 07:20:56 | 03:15:52 | 00:00:00 | |
| DM0DOS-11 | 2026-09-01 13:33:44 | 51.59807 | 8.77901 | 62° | 35km/h | 2559m | -2.4m/s | 2.1°C | 98% | 753.1hPa | 2.7V | 07:21:01 | 03:15:47 | 00:00:00 | |
| DK9SH | 2026-09-01 13:33:43 | 51.59822 | 8.77962 | 68° | 29km/h | 2547m | -2.6m/s | 2.4°C | 0% | 754.3hPa | 2.7V | 07:21:00 | 00:00:00 | 00:00:00 | |
| DB0DAN | 2026-09-01 13:33:40 | 51.59811 | 8.77914 | 65° | 33km/h | 2557m | -2.4m/s | 2.1°C | 99.8% | 753.43hPa | 2.7V | 00:00:00 | 00:00:00 | 00:00:00 | |
| DD1CC8 | 2026-09-01 13:33:40 | 51.59807 | 8.77901 | 62° | 35km/h | 2559m | -2.4m/s | 2.1°C | 97.0% | 753.1hPa | 2.7V | 00:00:00 | 00:00:00 | 00:00:00 | |
| DM0DOS-11 | 2026-09-01 13:33:39 | 51.59790 | 8.77843 | 71° | 31km/h | 2573m | -2.6m/s | 2°C | 98.5% | 752hPa | 2.7V | 07:21:06 | 03:15:42 | 00:00:00 | |
| DO2JMG | 2026-09-01 13:33:37 | 51.59799 | 8.77878 | 62° | 31km/h | 2565m | -2.9m/s | 2.1°C | 100% | 752.5hPa | 2.6V | 07:21:18 | 03:15:45 | 00:00:00 | |
| HSKMA3-T | 2026-09-01 13:33:35 | 51.59793 | 8.77855 | 70° | 31km/h | 2571m | -2.6m/s | 2°C | 100% | 752.1hPa | 2.7V | 07:21:18 | 03:15:43 | 00:00:00 | |
| DM0DOS-11 | 2026-09-01 13:33:34 | 51.59775 | 8.77783 | 66° | 29km/h | 2586m | -2.5m/s | 1.9°C | 98.4% | 750.7hPa | 2.7V | 07:21:11 | 03:15:37 | 00:00:00 | |
| BIOWL1-15 | 2026-09-01 13:33:31 | 51.59781 | 8.77806 | 66° | 33km/h | 2581m | -2.6m/s | 1.9°C | 100% | 751.1hPa | 2.7V | 07:21:18 | 03:15:39 | 00:00:00 | |
| SONCRA | 2026-09-01 13:33:30 | 51.59778 | 8.77794 | 65° | 29km/h | 2583m | -2.5m/s | 1.9°C | 98.0% | 750.9hPa | 2.7V | 00:00:00 | 00:00:00 | 00:00:00 | |
| DM0DOS-11 | 2026-09-01 13:33:29 | 51.59760 | 8.77727 | 60° | 31km/h | 2598m | -2.5m/s | 1.9°C | 97.8% | 749.7hPa | 2.7V | 07:21:16 | 03:15:32 | 00:00:00 | |
| DO2JMG | 2026-09-01 13:33:26 | 51.59767 | 8.77750 | 66° | 31km/h | 2593m | -2.4m/s | 1.9°C | 98.1% | 750.1hPa | 2.6V | 07:21:18 | 03:15:34 | 00:00:00 | |
| DB0DAN | 2026-09-01 13:33:25 | 51.59763 | 8.77738 | 62° | 31km/h | 2596m | -2.5m/s | 1.9°C | 97% | 749.86hPa | 2.7V | 00:00:00 | 00:00:00 | 00:00:00 | |
| HSKMA3-T | 2026-09-01 13:33:25 | 51.59763 | 8.77738 | 62° | 31km/h | 2596m | -2.5m/s | 1.9°C | 98.2% | 749.9hPa | 2.7V | 07:21:18 | 03:15:33 | 00:00:00 | |
| DM0DOS-11 | 2026-09-01 13:33:24 | 51.59746 | 8.77672 | 76° | 31km/h | 2612m | -2.9m/s | 1.9°C | 96.4% | 748.4hPa | 2.6V | 07:21:21 | 03:15:27 | 00:00:00 | |
| DO2JMG | 2026-09-01 13:33:16 | 51.59738 | 8.77636 | 65° | 29km/h | 2621m | -2.7m/s | 1.9°C | 97.9% | 747.6hPa | 2.7V | 07:22:09 | 03:15:24 | 00:00:00 | |
| DM0DOS-11 | 2026-09-01 13:33:14 | 51.59732 | 8.77615 | 63° | 27km/h | 2627m | -3m/s | 1.8°C | 96.5% | 747hPa | 2.7V | 07:21:26 | 03:15:22 | 00:00:00 | |
| DM0DOS-11 | 2026-09-01 13:33:14 | 51.59716 | 8.77561 | 59° | 33km/h | 2641m | -3.1m/s | 1.9°C | 94.4% | 745.8hPa | 2.7V | 07:21:31 | 03:15:17 | 00:00:00 | |
| HSKMA3-T | 2026-09-01 13:33:14 | 51.59732 | 8.77615 | 64° | 27km/h | 2627m | -3m/s | 1.8°C | 97.4% | 747hPa | 2.7V | 07:22:09 | 03:15:22 | 00:00:00 | |
| DB0DAN | 2026-09-01 13:33:10 | 51.59720 | 8.77572 | 64° | 31km/h | 2638m | -2.9m/s | 1.9°C | 93.9% | 746.09hPa | 2.7V | 00:00:00 | 00:00:00 | 00:00:00 | |
| BIOWL1-15 | 2026-09-01 13:33:08 | 51.59704 | 8.77530 | 63° | 27km/h | 2650m | -2.9m/s | 1.8°C | 96.3% | 744.8hPa | 2.7V | 07:22:09 | 03:15:14 | 00:00:00 | |
| DO2JMG | 2026-09-01 13:33:05 | 51.59701 | 8.77519 | 68° | 27km/h | 2653m | -2.7m/s | 1.8°C | 95.8% | 744.7hPa | 2.7V | 07:22:09 | 03:15:13 | 00:00:00 | |
| HSKMA3-T | 2026-09-01 13:33:04 | 51.59699 | 8.77508 | 69° | 31km/h | 2656m | -2.5m/s | 1.8°C | 95.9% | 744.4hPa | 2.7V | 07:22:09 | 03:15:12 | 00:00:00 | |
| DL3AQ-11 | 2026-09-01 13:33:03 | 51.59696 | 8.77497 | 66° | 29km/h | 2658m | -2.4m/s | 1.8°C | 93.2% | 744.1hPa | 2.7V | 00:00:00 | 00:00:00 | 00:00:00 | |
| DK9SH | 2026-09-01 13:33:02 | 51.59696 | 8.77497 | 68° | 31km/h | 2658m | -2.4m/s | 1.8°C | 93.2% | 744.1hPa | 2.7V | 07:22:00 | 00:00:00 | 00:00:00 | |
| DM0DOS-11 | 2026-09-01 13:32:59 | 51.59669 | 8.77402 | 64° | 27km/h | 2681m | -2.5m/s | 1.6°C | 94.9% | 742.1hPa | 2.7V | 07:21:46 | 03:15:02 | 00:00:00 | |
| BUE01 | 2026-09-01 13:32:59 | 51.59683 | 8.77455 | 66° | 26km/h | 2668m | -2.4m/s | 1.7°C | 93.4% | 743.2hPa | 2.6V | 00:00:00 | 00:00:00 | 00:00:00 | |
| DB0DAN | 2026-09-01 13:32:55 | 51.59672 | 8.77412 | 65° | 27km/h | 2679m | -2.4m/s | 1.6°C | 94.2% | 742.19hPa | 2.6V | 00:00:00 | 00:00:00 | 00:00:00 | |
| DO2JMG | 2026-09-01 13:32:55 | 51.59672 | 8.77412 | 65° | 29km/h | 2679m | -2.4m/s | 1.6°C | 96.4% | 742.2hPa | 2.6V | 07:22:09 | 03:15:03 | 00:00:00 | |
| HSKMA3-T | 2026-09-01 13:32:54 | 51.59669 | 8.77402 | 65° | 27km/h | 2681m | -2.5m/s | 1.6°C | 96.3% | 742.1hPa | 2.7V | 07:22:09 | 03:15:02 | 00:00:00 | |
| DL3AQ-11 | 2026-09-01 13:32:51 | 51.59659 | 8.77360 | 66° | 29km/h | 2692m | -2.8m/s | 1.5°C | 93.5% | 741.1hPa | 2.7V | 00:00:00 | 00:00:00 | 00:00:00 | |
| DO9LL-15 | 2026-09-01 13:32:50 | 51.59658 | 8.77360 | 67° | 27km/h | 2692m | -2.7m/s | 1.5°C | 94.4% | 741.1hPa | 2.7V | 00:00:00 | 03:14:58 | 00:00:00 | |
| DM0DOS-11 | 2026-09-01 13:32:49 | 51.59642 | 8.77298 | 62° | 27km/h | 2708m | -2.7m/s | 1.4°C | 94.8% | 739.6hPa | 2.7V | 07:21:56 | 03:14:52 | 00:00:00 | |
| DO2JMG | 2026-09-01 13:32:45 | 51.59645 | 8.77308 | 66° | 29km/h | 2706m | -3m/s | 1.5°C | 95.1% | 739.8hPa | 2.7V | 07:22:09 | 03:14:53 | 00:00:00 | |
| BIOWL9-15 | 2026-09-01 13:32:44 | 51.59642 | 8.77298 | 62° | 27km/h | 2708m | -2.7m/s | 1.4°C | 93.8% | 739.6hPa | 2.6V | 00:00:00 | 00:00:00 | 00:00:00 | |
| HSKMA3-T | 2026-09-01 13:32:43 | 51.59639 | 8.77288 | 61° | 26km/h | 2712m | -2.9m/s | 1.3°C | 96.3% | 739.2hPa | 2.6V | 07:22:09 | 03:14:51 | 00:00:00 | |
| DK9SH | 2026-09-01 13:32:41 | 51.59636 | 8.77279 | 66° | 26km/h | 2715m | -3.3m/s | 1.3°C | 94.4% | 739.1hPa | 2.7V | 07:22:00 | 00:00:00 | 00:00:00 | |
| DB0DAN | 2026-09-01 13:32:40 | 51.59631 | 8.77259 | 68° | 26km/h | 2721m | -3.1m/s | 1.3°C | 93.3% | 738.31hPa | 2.7V | 00:00:00 | 00:00:00 | 00:00:00 | |
| DL3AQ-11 | 2026-09-01 13:32:40 | 51.59628 | 8.77249 | 66° | 27km/h | 2724m | -2.9m/s | 1.4°C | 93.1% | 738.2hPa | 2.7V | 00:00:00 | 00:00:00 | 00:00:00 | |
| DD1CC8 | 2026-09-01 13:32:38 | 51.59622 | 8.77229 | 59° | 26km/h | 2729m | -2.6m/s | 1.4°C | 91.5% | 737.6hPa | 2.7V | 00:00:00 | 00:00:00 | 00:00:00 | |
| DM0DOS-11 | 2026-09-01 13:32:37 | 51.59612 | 8.77203 | 64° | 24km/h | 2737m | -2.7m/s | 1.4°C | 91.6% | 736.9hPa | 2.7V | 07:22:06 | 03:14:42 | 00:00:00 | |
| DO2JMG | 2026-09-01 13:32:34 | 51.59612 | 8.77203 | 65° | 24km/h | 2737m | -2.7m/s | 1.4°C | 94.4% | 736.9hPa | 2.7V | 07:22:09 | 03:14:42 | 00:00:00 | |
| BIOWL1-15 | 2026-09-01 13:32:33 | 51.59610 | 8.77193 | 64° | 27km/h | 2740m | -2.6m/s | 1.4°C | 94.7% | 736.6hPa | 2.7V | 07:22:09 | 03:14:41 | 00:00:00 | |
| HSKMA3-T | 2026-09-01 13:32:32 | 51.59606 | 8.77183 | 61° | 29km/h | 2742m | -2.6m/s | 1.3°C | 94.9% | 736.4hPa | 2.7V | 07:22:09 | 03:14:40 | 00:00:00 | |
| DO9LL-15 | 2026-09-01 13:32:30 | 51.59599 | 8.77164 | 56° | 26km/h | 2747m | -2.5m/s | 1.3°C | 92.6% | 735.8hPa | 2.7V | 07:22:00 | 03:14:38 | 00:00:00 | |
| DM0DOS-11 | 2026-09-01 13:32:29 | 51.59582 | 8.77106 | 68° | 29km/h | 2762m | -2.5m/s | 1.3°C | 91.3% | 734.6hPa | 2.7V | 07:22:16 | 03:14:32 | 00:00:00 | |
| BUE01 | 2026-09-01 13:32:28 | 51.59591 | 8.77146 | 60° | 24km/h | 2752m | -2.4m/s | 1.3°C | 90.1% | 735.5hPa | 2.6V | 00:00:00 | 00:00:00 | 00:00:00 | |
| BIOWL7-15 | 2026-09-01 13:32:26 | 51.59588 | 8.77137 | 68° | 24km/h | 2755m | -2.3m/s | 1.3°C | 90.2% | 735.2hPa | 2.6V | 00:00:00 | 00:00:00 | 00:00:00 | |
| DB0DAN | 2026-09-01 13:32:25 | 51.59584 | 8.77117 | 71° | 26km/h | 2759m | -2.5m/s | 1.3°C | 90.4% | 734.84hPa | 2.6V | 00:00:00 | 00:00:00 | 00:00:00 | |
| DO2JMG | 2026-09-01 13:32:24 | 51.59582 | 8.77106 | 68° | 29km/h | 2762m | -2.5m/s | 1.3°C | 93.3% | 734.6hPa | 2.7V | 07:23:51 | 03:14:32 | 00:00:00 | |
| BIOWL1-15 | 2026-09-01 13:32:23 | 51.59579 | 8.77096 | 66° | 29km/h | 2765m | -2.8m/s | 1.3°C | 93.5% | 734.3hPa | 2.7V | 07:23:00 | 03:14:31 | 00:00:00 | |
| HSKMA3-T | 2026-09-01 13:32:21 | 51.59573 | 8.77076 | 65° | 26km/h | 2770m | -2.9m/s | 1.2°C | 93.9% | 733.9hPa | 2.7V | 07:23:00 | 03:14:29 | 00:00:00 | |
| DM0DOS-11 | 2026-09-01 13:32:19 | 51.59550 | 8.76999 | 63° | 27km/h | 2793m | -2.5m/s | 1°C | 92.8% | 731.8hPa | 2.6V | 07:22:27 | 03:14:21 | 00:00:00 | |
| DO2JMG | 2026-09-01 13:32:13 | 51.59550 | 8.76999 | 64° | 27km/h | 2793m | -2.5m/s | 1°C | 95.2% | 731.9hPa | 2.6V | 07:23:51 | 03:14:21 | 00:00:00 | |
| HSKMA3-T | 2026-09-01 13:32:11 | 51.59543 | 8.76979 | 60° | 27km/h | 2798m | -2.7m/s | 0.9°C | 95.4% | 731.4hPa | 2.7V | 07:23:00 | 03:14:19 | 00:00:00 | |
| DB0DAN | 2026-09-01 13:32:10 | 51.59540 | 8.76969 | 62° | 26km/h | 2801m | -2.7m/s | 0.9°C | 92.3% | 731.08hPa | 2.7V | 00:00:00 | 00:00:00 | 00:00:00 | |
| DO9LL-15 | 2026-09-01 13:32:10 | 51.59540 | 8.76969 | 63° | 27km/h | 2801m | -2.6m/s | 0.9°C | 93.3% | 731.0hPa | 2.7V | 00:00:00 | 03:14:18 | 00:00:00 | |
| DD1CC8 | 2026-09-01 13:32:07 | 51.59527 | 8.76927 | 58° | 27km/h | 2811m | -2.6m/s | 0.8°C | 93.1% | 730.2hPa | 2.7V | 00:00:00 | 00:00:00 | 00:00:00 | |
| DM0DOS-11 | 2026-09-01 13:32:06 | 51.59513 | 8.76881 | 72° | 27km/h | 2824m | -2.6m/s | 0.7°C | 95% | 729.1hPa | 2.7V | 07:22:39 | 03:14:09 | 00:00:00 | |
| DO2JMG | 2026-09-01 13:32:03 | 51.59517 | 8.76900 | 66° | 24km/h | 2818m | -2.6m/s | 0.7°C | 96.6% | 729.4hPa | 2.6V | 07:23:51 | 03:14:11 | 00:00:00 | |
| HSKMA3-T | 2026-09-01 13:32:01 | 51.59513 | 8.76881 | 73° | 27km/h | 2824m | -2.6m/s | 0.7°C | 97% | 729.1hPa | 2.7V | 07:23:00 | 03:14:09 | 00:00:00 | |
| BIOWL1-15 | 2026-09-01 13:32:00 | 51.59510 | 8.76870 | 69° | 27km/h | 2827m | -2.9m/s | 0.7°C | 96.3% | 728.6hPa | 2.7V | 07:23:00 | 03:14:08 | 00:00:00 | |
| DL3AQ-11 | 2026-09-01 13:32:00 | 51.59508 | 8.76859 | 65° | 27km/h | 2829m | -2.8m/s | 0.7°C | 93.5% | 728.5hPa | 2.7V | 00:00:00 | 00:00:00 | 00:00:00 | |
| SONCRA | 2026-09-01 13:31:57 | 51.59501 | 8.76840 | 60° | 26km/h | 2835m | -2.6m/s | 0.6°C | 92.7% | 728.0hPa | 2.7V | 00:00:00 | 00:00:00 | 00:00:00 | |
| DM0DOS-11 | 2026-09-01 13:31:56 | 51.59483 | 8.76781 | 59° | 27km/h | 2851m | -2.5m/s | 0.5°C | 94.8% | 726.6hPa | 2.7V | 07:22:49 | 03:13:59 | 00:00:00 | |
| DB0DAN | 2026-09-01 13:31:55 | 51.59495 | 8.76822 | 66° | 24km/h | 2840m | -2.7m/s | 0.6°C | 92.9% | 727.56hPa | 2.7V | 00:00:00 | 00:00:00 | 00:00:00 | |
| DO2JMG | 2026-09-01 13:31:52 | 51.59486 | 8.76791 | 60° | 29km/h | 2848m | -2.6m/s | 0.5°C | 96.7% | 726.8hPa | 2.6V | 07:23:51 | 03:14:00 | 00:00:00 | |
| HSKMA3-T | 2026-09-01 13:31:50 | 51.59479 | 8.76772 | 63° | 27km/h | 2854m | -2.6m/s | 0.4°C | 97.2% | 726.4hPa | 2.7V | 07:23:00 | 03:13:58 | 00:00:00 | |
| BIOWL1-15 | 2026-09-01 13:31:49 | 51.59476 | 8.76762 | 67° | 27km/h | 2856m | -2.5m/s | 0.4°C | 97.3% | 726.1hPa | 2.7V | 07:23:00 | 03:13:57 | 00:00:00 | |
| DO9LL-15 | 2026-09-01 13:31:49 | 51.59476 | 8.76762 | 67° | 29km/h | 2856m | -2.5m/s | 0.4°C | 95.1% | 726.1hPa | 2.7V | 00:00:00 | 03:13:57 | 00:00:00 | |
| DM0DOS-11 | 2026-09-01 13:31:46 | 51.59453 | 8.76679 | 63° | 31km/h | 2876m | -2.4m/s | 0.3°C | 94.5% | 724.3hPa | 2.7V | 07:22:59 | 03:13:49 | 00:00:00 | |
| DO2JMG | 2026-09-01 13:31:42 | 51.59453 | 8.76679 | 64° | 31km/h | 2876m | -2.4m/s | 0.3°C | 97.3% | 724.3hPa | 2.7V | 07:23:51 | 03:13:49 | 00:00:00 | |
| DM0DOS-11 | 2026-09-01 13:31:41 | 51.59436 | 8.76628 | 62° | 29km/h | 2888m | -2.5m/s | 0.1°C | 95.5% | 723.1hPa | 2.6V | 07:23:04 | 03:13:44 | 00:00:00 | |
| DB0DAN | 2026-09-01 13:31:40 | 51.59449 | 8.76668 | 60° | 29km/h | 2878m | -2.4m/s | 0.3°C | 93.9% | 724.09hPa | 2.7V | 00:00:00 | 00:00:00 | 00:00:00 | |
| HSKMA3-T | 2026-09-01 13:31:40 | 51.59449 | 8.76668 | 60° | 29km/h | 2878m | -2.4m/s | 0.3°C | 97.5% | 724.1hPa | 2.7V | 07:23:00 | 03:13:48 | 00:00:00 | |
| BIOWL1-15 | 2026-09-01 13:31:39 | 51.59446 | 8.76658 | 59° | 29km/h | 2881m | -2.3m/s | 0.2°C | 97.5% | 723.9hPa | 2.7V | 07:23:51 | 03:13:47 | 00:00:00 | |
| DM0DOS-11 | 2026-09-01 13:31:36 | 51.59417 | 8.76576 | 65° | 29km/h | 2899m | -2.1m/s | 0°C | 97.1% | 722.1hPa | 2.7V | 07:23:09 | 03:13:39 | 00:00:00 | |
| DO2JMG | 2026-09-01 13:31:31 | 51.59417 | 8.76576 | 65° | 29km/h | 2899m | -2.1m/s | 0°C | 97.8% | 722.1hPa | 2.7V | 07:23:51 | 03:13:39 | 00:00:00 | |
| BIOWL1-15 | 2026-09-01 13:31:30 | 51.59407 | 8.76541 | 64° | 33km/h | 2904m | -2.1m/s | 0°C | 98.9% | 721.7hPa | 2.7V | 07:23:51 | 03:13:36 | 00:00:00 | |
| HSKMA3-T | 2026-09-01 13:31:30 | 51.59414 | 8.76565 | 66° | 33km/h | 2900m | -2m/s | 0°C | 97.8% | 722hPa | 2.7V | 07:23:51 | 03:13:38 | 00:00:00 | |
| DO2JMG | 2026-09-01 13:31:21 | 51.59383 | 8.76459 | 61° | 31km/h | 2919m | -2m/s | -0.2°C | 98.9% | 720.3hPa | 2.7V | 07:23:51 | 03:13:29 | 00:00:00 | |
| DM0DOS-11 | 2026-09-01 13:31:21 | 51.59383 | 8.76459 | 60° | 31km/h | 2919m | -2m/s | -0.1°C | 97.8% | 720.3hPa | 2.7V | 07:23:19 | 03:13:29 | 00:00:00 | |
| DM0DOS-11 | 2026-09-01 13:31:21 | 51.59364 | 8.76401 | 57° | 35km/h | 2929m | -2.1m/s | -0.3°C | 98.2% | 719.4hPa | 2.7V | 07:23:24 | 03:13:24 | 00:00:00 | |
| BIOWL1-15 | 2026-09-01 13:31:20 | 51.59372 | 8.76425 | 63° | 33km/h | 2925m | -2.4m/s | -0.2°C | 98.7% | 719.8hPa | 2.7V | 07:23:51 | 03:13:26 | 00:00:00 | |
| HSKMA3-T | 2026-09-01 13:31:19 | 51.59376 | 8.76437 | 63° | 31km/h | 2923m | -2.2m/s | -0.2°C | 99.1% | 720hPa | 2.6V | 07:23:51 | 03:13:27 | 00:00:00 | |
| DM0DOS-11 | 2026-09-01 13:31:16 | 51.59346 | 8.76343 | 67° | 33km/h | 2939m | -1.7m/s | -0.3°C | 99% | 718.5hPa | 2.7V | 07:23:29 | 03:13:19 | 00:00:00 | |
| DO2JMG | 2026-09-01 13:31:10 | 51.59342 | 8.76331 | 65° | 33km/h | 2941m | -1.5m/s | -0.3°C | 97.8% | 718.3hPa | 2.6V | 07:23:51 | 03:13:18 | 00:00:00 | |
| BIOWL1-15 | 2026-09-01 13:31:08 | 51.59335 | 8.76308 | 61° | 29km/h | 2944m | -2m/s | -0.3°C | 99.1% | 718hPa | 2.7V | 07:23:51 | 03:13:16 | 00:00:00 | |
| DM0DOS-11 | 2026-09-01 13:31:07 | 51.59328 | 8.76287 | 68° | 29km/h | 2948m | -2.7m/s | -0.3°C | 98.1% | 717.7hPa | 2.7V | 07:23:34 | 03:13:14 | 00:00:00 | |
| DB0UT-7 | 2026-09-01 13:31:06 | 51.59329 | 8.76287 | 69° | 35km/h | 2948m | -2.6m/s | -0.3°C | 98.1% | 717.6hPa | 2.7V | 00:00:00 | 00:00:00 | 00:00:00 | |
| DL3OBA | 2026-09-01 13:31:05 | 51.59328 | 8.76287 | 70° | 29km/h | 2948m | -2.7m/s | -0.3°C | 97.0% | 717.7hPa | 2.7V | 07:23:00 | 00:00:00 | 00:00:00 | |
| BIOWL7-15 | 2026-09-01 13:31:04 | 51.59326 | 8.76275 | 71° | 31km/h | 2951m | -2.7m/s | -0.3°C | 96.6% | 717.4hPa | 2.7V | 00:00:00 | 00:00:00 | 00:00:00 | |
| DO3DL | 2026-09-01 13:31:03 | 51.59323 | 8.76263 | 71° | 33km/h | 2954m | -2.6m/s | -0.4°C | 97.5% | 717.1hPa | 2.7V | 00:00:00 | 00:00:00 | 00:00:00 | |
| DM0DOS-11 | 2026-09-01 13:31:01 | 51.59312 | 8.76226 | 62° | 33km/h | 2961m | -2.5m/s | -0.4°C | 98.6% | 716.5hPa | 2.7V | 07:23:39 | 03:13:09 | 00:00:00 | |
| DM0DOS-11 | 2026-09-01 13:31:01 | 51.59296 | 8.76163 | 68° | 37km/h | 2976m | -2.8m/s | -0.3°C | 96.4% | 715.3hPa | 2.7V | 07:23:44 | 03:13:04 | 00:00:00 | |
| DO2JMG | 2026-09-01 13:30:59 | 51.59306 | 8.76203 | 67° | 31km/h | 2967m | -2.9m/s | -0.4°C | 99.5% | 716hPa | 2.7V | 07:23:51 | 03:13:07 | 00:00:00 | |
| BIOWL1-15 | 2026-09-01 13:30:58 | 51.59296 | 8.76163 | 68° | 37km/h | 2976m | -2.8m/s | -0.3°C | 97.4% | 715.3hPa | 2.7V | 07:23:51 | 03:13:04 | 00:00:00 | |
| HSKMA3-T | 2026-09-01 13:30:57 | 51.59300 | 8.76177 | 70° | 37km/h | 2973m | -2.8m/s | -0.3°C | 98% | 715.6hPa | 2.7V | 07:23:51 | 03:13:05 | 00:00:00 | |
| DM0DOS-11 | 2026-09-01 13:30:56 | 51.59278 | 8.76095 | 68° | 38km/h | 2990m | -2.6m/s | -0.4°C | 97.3% | 714hPa | 2.7V | 07:23:49 | 03:12:59 | 00:00:00 | |
| BUE01 | 2026-09-01 13:30:55 | 51.59293 | 8.76149 | 65° | 37km/h | 2979m | -3.1m/s | -0.3°C | 95.7% | 715.0hPa | 2.7V | 00:00:00 | 00:00:00 | 00:00:00 | |
| DM0DOS-11 | 2026-09-01 13:30:51 | 51.59258 | 8.76028 | 66° | 35km/h | 3004m | -3m/s | -0.4°C | 95.7% | 712.8hPa | 2.7V | 07:23:54 | 03:12:54 | 00:00:00 | |
| BIOWL1-15 | 2026-09-01 13:30:48 | 51.59258 | 8.76028 | 67° | 35km/h | 3004m | -3m/s | -0.4°C | 96.9% | 712.8hPa | 2.7V | 07:24:42 | 03:12:54 | 00:00:00 | |
| HSKMA3-T | 2026-09-01 13:30:47 | 51.59262 | 8.76041 | 64° | 35km/h | 3001m | -3m/s | -0.4°C | 96.7% | 713.1hPa | 2.7V | 07:24:42 | 03:12:55 | 00:00:00 | |
| DO2JMG | 2026-09-01 13:30:44 | 51.59252 | 8.76001 | 69° | 38km/h | 3010m | -2.9m/s | -0.6°C | 98.4% | 712.2hPa | 2.7V | 07:24:42 | 03:12:52 | 00:00:00 | |
| DL3OBA | 2026-09-01 13:30:42 | 51.59248 | 8.75986 | 69° | 38km/h | 3013m | -3.1m/s | -0.6°C | 97.0% | 712.0hPa | 2.7V | 07:24:00 | 00:00:00 | 00:00:00 | |
| DM0DOS-11 | 2026-09-01 13:30:41 | 51.59227 | 8.75892 | 74° | 40km/h | 3034m | -3m/s | -0.6°C | 96.3% | 710.1hPa | 2.7V | 07:24:04 | 03:12:44 | 00:00:00 | |
| HSKMA3-T | 2026-09-01 13:30:37 | 51.59229 | 8.75907 | 75° | 37km/h | 3031m | -2.9m/s | -0.7°C | 98.2% | 710.3hPa | 2.7V | 07:24:42 | 03:12:45 | 00:00:00 | |
| BIOWL1-15 | 2026-09-01 13:30:36 | 51.59220 | 8.75861 | 69° | 40km/h | 3040m | -3.1m/s | -0.6°C | 95.9% | 709.6hPa | 2.7V | 07:24:42 | 03:12:42 | 00:00:00 | |
| DO2JMG | 2026-09-01 13:30:33 | 51.59217 | 8.75846 | 69° | 38km/h | 3043m | -3.1m/s | -0.6°C | 96% | 709.4hPa | 2.7V | 07:24:42 | 03:12:41 | 00:00:00 | |
| DM0DOS-11 | 2026-09-01 13:30:31 | 51.59196 | 8.75741 | 70° | 40km/h | 3064m | -2.8m/s | -0.6°C | 93.4% | 707.5hPa | 2.7V | 07:24:14 | 03:12:34 | 00:00:00 | |
| HSKMA3-T | 2026-09-01 13:30:26 | 51.59196 | 8.75741 | 70° | 40km/h | 3064m | -2.8m/s | -0.7°C | 94.7% | 707.5hPa | 2.7V | 07:24:42 | 03:12:34 | 00:00:00 | |
| BIOWL1-15 | 2026-09-01 13:30:25 | 51.59193 | 8.75726 | 73° | 38km/h | 3067m | -2.7m/s | -0.7°C | 95.4% | 707.2hPa | 2.7V | 07:24:42 | 03:12:33 | 00:00:00 | |
| DB0DAN | 2026-09-01 13:30:25 | 51.59193 | 8.75726 | 73° | 37km/h | 3067m | -2.7m/s | -0.7°C | 92.5% | 707.17hPa | 2.7V | 00:00:00 | 00:00:00 | 00:00:00 | |
| DO2JMG | 2026-09-01 13:30:23 | 51.59188 | 8.75696 | 79° | 38km/h | 3073m | -3.6m/s | -0.7°C | 94.9% | 706.8hPa | 2.7V | 07:24:42 | 03:12:31 | 00:00:00 | |
| DO3DL | 2026-09-01 13:30:22 | 51.59188 | 8.75696 | 80° | 38km/h | 3073m | -3.6m/s | -0.7°C | 90.9% | 706.8hPa | 2.7V | 07:24:00 | 00:00:00 | 00:00:00 | |
| DL3OBA | 2026-09-01 13:30:21 | 51.59186 | 8.75680 | 78° | 40km/h | 3077m | -3.7m/s | -0.7°C | 91.0% | 706.5hPa | 2.7V | 07:24:00 | 00:00:00 | 00:00:00 | |
| DL8OAI-8 | 2026-09-01 13:30:20 | 51.59184 | 8.75664 | 76° | 42km/h | 3080m | -3.3m/s | -0.7°C | 90.3% | 706.2hPa | 2.7V | 00:00:00 | 00:00:00 | 00:00:00 | |
| DK9SH | 2026-09-01 13:30:18 | 51.59177 | 8.75632 | 73° | 40km/h | 3086m | -3.3m/s | -0.7°C | 90.0% | 705.5hPa | 2.7V | 07:24:00 | 00:00:00 | 00:00:00 | |
| DM0DOS-11 | 2026-09-01 13:30:17 | 51.59169 | 8.75587 | 75° | 40km/h | 3096m | -3.2m/s | -0.7°C | 90.4% | 704.5hPa | 2.7V | 07:24:24 | 03:12:24 | 00:00:00 | |
| HSKMA3-T | 2026-09-01 13:30:17 | 51.59166 | 8.75571 | 74° | 40km/h | 3100m | -3.1m/s | -0.8°C | 92.1% | 704.4hPa | 2.7V | 07:24:42 | 03:12:23 | 00:00:00 | |
| BIOWL1-15 | 2026-09-01 13:30:16 | 51.59163 | 8.75556 | 72° | 40km/h | 3103m | -3m/s | -0.8°C | 92.2% | 704.1hPa | 2.7V | 07:24:42 | 03:12:22 | 00:00:00 | |
| DO2JMG | 2026-09-01 13:30:12 | 51.59158 | 8.75526 | 73° | 37km/h | 3109m | -3.2m/s | -0.7°C | 92% | 703.5hPa | 2.7V | 07:24:42 | 03:12:20 | 00:00:00 | |
| DM0DOS-11 | 2026-09-01 13:30:11 | 51.59155 | 8.75512 | 75° | 38km/h | 3112m | -2.9m/s | -0.7°C | 88.8% | 703.2hPa | 2.7V | 07:24:29 | 03:12:19 | 00:00:00 | |
| DM0DOS-11 | 2026-09-01 13:30:11 | 51.59141 | 8.75436 | 72° | 38km/h | 3127m | -3.3m/s | -0.8°C | 88.9% | 701.9hPa | 2.7V | 07:24:34 | 03:12:14 | 00:00:00 | |
| DB0DAN | 2026-09-01 13:30:10 | 51.59153 | 8.75496 | 75° | 38km/h | 3115m | -3.2m/s | -0.7°C | 88.2% | 702.89hPa | 2.7V | 00:00:00 | 00:00:00 | 00:00:00 | |
| BIOWL9-15 | 2026-09-01 13:30:09 | 51.59150 | 8.75481 | 73° | 38km/h | 3118m | -3.1m/s | -0.8°C | 88.7% | 702.8hPa | 2.7V | 00:00:00 | 00:00:00 | 00:00:00 | |
| DM0DOS-11 | 2026-09-01 13:30:06 | 51.59127 | 8.75359 | 74° | 38km/h | 3144m | -3.6m/s | -1°C | 89.7% | 700.4hPa | 2.7V | 07:24:39 | 03:12:09 | 00:00:00 | |
| HSKMA3-T | 2026-09-01 13:30:05 | 51.59138 | 8.75422 | 75° | 38km/h | 3130m | -3.6m/s | -0.9°C | 92.1% | 701.6hPa | 2.7V | 07:24:42 | 03:12:13 | 00:00:00 | |
| DO2JMG | 2026-09-01 13:30:02 | 51.59129 | 8.75374 | 73° | 40km/h | 3141m | -3.3m/s | -1°C | 91.9% | 700.6hPa | 2.7V | 07:24:42 | 03:12:10 | 00:00:00 | |
| DM0DOS-11 | 2026-09-01 13:30:01 | 51.59114 | 8.75283 | 71° | 38km/h | 3161m | -3.1m/s | -1.1°C | 90.1% | 698.9hPa | 2.7V | 07:24:44 | 03:12:04 | 00:00:00 | |
| DL3AQ-11 | 2026-09-01 13:29:59 | 51.59122 | 8.75329 | 78° | 38km/h | 3151m | -3.3m/s | -1.1°C | 88.7% | 699.8hPa | 2.7V | 00:00:00 | 00:00:00 | 00:00:00 | |
| DB0ND-19 | 2026-09-01 13:29:58 | 51.59112 | 8.75268 | 73° | 37km/h | 3164m | -3.3m/s | -1.2°C | 88.2% | 698.7hPa | 2.7V | 00:00:00 | 00:00:00 | 00:00:00 | |
| DM0DOS-11 | 2026-09-01 13:29:56 | 51.59103 | 8.75206 | 75° | 42km/h | 3177m | -3.3m/s | -1.3°C | 91.1% | 697.5hPa | 2.7V | 07:24:49 | 03:11:59 | 00:00:00 | |
| DB0DAN | 2026-09-01 13:29:55 | 51.59112 | 8.75268 | 73° | 37km/h | 3164m | -3.3m/s | -1.2°C | 88.2% | 698.68hPa | 2.7V | 00:00:00 | 00:00:00 | 00:00:00 | |
| HSKMA3-T | 2026-09-01 13:29:54 | 51.59109 | 8.75253 | 76° | 38km/h | 3167m | -3.2m/s | -1.2°C | 91.8% | 698.4hPa | 2.7V | 07:25:33 | 03:12:02 | 00:00:00 | |
| BIOWL1-15 | 2026-09-01 13:29:52 | 51.59105 | 8.75222 | 78° | 40km/h | 3174m | -3.3m/s | -1.3°C | 93.1% | 697.8hPa | 2.7V | 07:25:33 | 03:12:00 | 00:00:00 | |
| DO2JMG | 2026-09-01 13:29:51 | 51.59102 | 8.75206 | 76° | 42km/h | 3177m | -3.3m/s | -1.3°C | 94% | 697.5hPa | 2.7V | 07:25:33 | 03:11:59 | 00:00:00 | |
| DO3DL | 2026-09-01 13:29:49 | 51.59099 | 8.75190 | 74° | 40km/h | 3181m | -3.4m/s | -1.3°C | 89.5% | 697.4hPa | 2.7V | 07:25:00 | 00:00:00 | 00:00:00 | |
| DD1CC3-15 | 2026-09-01 13:29:48 | 51.59097 | 8.75174 | 73° | 38km/h | 3184m | -3.1m/s | -1.3°C | 89.4% | 697.0hPa | 2.7V | 07:25:00 | 00:00:00 | 00:00:00 | |
| DM0DOS-11 | 2026-09-01 13:29:46 | 51.59074 | 8.75047 | 74° | 40km/h | 3208m | -3.3m/s | -1.3°C | 87.6% | 694.9hPa | 2.7V | 07:24:59 | 03:11:49 | 00:00:00 | |
| BIOWL1-15 | 2026-09-01 13:29:44 | 51.59074 | 8.75048 | 74° | 40km/h | 3208m | -3.3m/s | -1.3°C | 90.7% | 694.9hPa | 2.7V | 07:25:33 | 03:11:49 | 00:00:00 | |
| HSKMA3-T | 2026-09-01 13:29:44 | 51.59080 | 8.75080 | 72° | 44km/h | 3202m | -3m/s | -1.2°C | 89.9% | 695.4hPa | 2.7V | 07:25:33 | 03:11:51 | 00:00:00 | |
| DL4BBY-15 | 2026-09-01 13:29:42 | 51.59076 | 8.75064 | 73° | 46km/h | 3204m | -3.2m/s | -3.6°C | 0% | 0hPa | 2.7V | 00:00:00 | 00:00:00 | 00:00:00 | |
| DL3OBA | 2026-09-01 13:29:41 | 51.59077 | 8.75064 | 73° | 42km/h | 3205m | -3.3m/s | -1.3°C | 85.4% | 695.2hPa | 2.7V | 07:25:00 | 00:00:00 | 00:00:00 | |
| DB0DAN | 2026-09-01 13:29:40 | 51.59071 | 8.75032 | 77° | 38km/h | 3211m | -3.1m/s | -1.3°C | 85.9% | 694.54hPa | 2.7V | 00:00:00 | 00:00:00 | 00:00:00 | |
| DO2JMG | 2026-09-01 13:29:38 | 51.59067 | 8.74998 | 77° | 42km/h | 3217m | -3.1m/s | -1.4°C | 91.1% | 694hPa | 2.7V | 07:25:33 | 03:11:46 | 00:00:00 | |
| BIOWL9-15 | 2026-09-01 13:29:38 | 51.59067 | 8.74998 | 76° | 42km/h | 3217m | -3.1m/s | -1.4°C | 87.5% | 694.0hPa | 2.7V | 00:00:00 | 00:00:00 | 00:00:00 | |
| DO3DL | 2026-09-01 13:29:37 | 51.59066 | 8.74998 | 78° | 42km/h | 3217m | -3.1m/s | -1.4°C | 87.5% | 694.0hPa | 2.7V | 07:25:00 | 00:00:00 | 00:00:00 | |
| DM0DOS-11 | 2026-09-01 13:29:36 | 51.59047 | 8.74884 | 70° | 44km/h | 3238m | -2.9m/s | -1.6°C | 87.9% | 692.4hPa | 2.7V | 07:25:09 | 03:11:39 | 00:00:00 | |
| HSKMA3-T | 2026-09-01 13:29:33 | 51.59054 | 8.74918 | 76° | 42km/h | 3233m | -3m/s | -1.5°C | 89% | 692.8hPa | 2.7V | 07:25:33 | 03:11:41 | 00:00:00 | |
| BIOWL1-15 | 2026-09-01 13:29:30 | 51.59044 | 8.74867 | 70° | 42km/h | 3241m | -3.1m/s | -1.6°C | 90.1% | 691.9hPa | 2.7V | 07:25:33 | 03:11:38 | 00:00:00 | |
| DO2JMG | 2026-09-01 13:29:27 | 51.59034 | 8.74820 | 74° | 42km/h | 3250m | -3m/s | -1.7°C | 92% | 691.3hPa | 2.7V | 07:25:33 | 03:11:35 | 00:00:00 | |
| DM0DOS-11 | 2026-09-01 13:29:26 | 51.59031 | 8.74803 | 72° | 42km/h | 3253m | -3.1m/s | -1.8°C | 88.4% | 691hPa | 2.7V | 07:25:14 | 03:11:34 | 00:00:00 | |
| DM0DOS-11 | 2026-09-01 13:29:26 | 51.59016 | 8.74722 | 76° | 44km/h | 3268m | -2.9m/s | -1.9°C | 90.2% | 689.6hPa | 2.7V | 07:25:19 | 03:11:29 | 00:00:00 | |
| DB0DAN | 2026-09-01 13:29:25 | 51.59028 | 8.74787 | 72° | 40km/h | 3256m | -3.2m/s | -1.8°C | 88.9% | 690.75hPa | 2.7V | 00:00:00 | 00:00:00 | 00:00:00 | |
| HSKMA3-T | 2026-09-01 13:29:23 | 51.59021 | 8.74755 | 73° | 40km/h | 3262m | -3.1m/s | -1.9°C | 92.6% | 690.2hPa | 2.6V | 07:25:33 | 03:11:31 | 00:00:00 | |
| BIOWL1-15 | 2026-09-01 13:29:20 | 51.59013 | 8.74704 | 75° | 46km/h | 3271m | -2.8m/s | -2°C | 94% | 689.4hPa | 2.7V | 07:25:33 | 03:11:28 | 00:00:00 | |
| DO2JMG | 2026-09-01 13:29:17 | 51.59002 | 8.74653 | 69° | 42km/h | 3280m | -2.9m/s | -2.1°C | 91.8% | 688.7hPa | 2.6V | 07:25:33 | 03:11:25 | 00:00:00 | |
| DM0DOS-11 | 2026-09-01 13:29:17 | 51.58999 | 8.74637 | 70° | 38km/h | 3283m | -3m/s | -2.1°C | 89% | 688.3hPa | 2.7V | 07:25:24 | 03:11:24 | 00:00:00 | |
| HSKMA3-T | 2026-09-01 13:29:13 | 51.58990 | 8.74591 | 74° | 42km/h | 3292m | -3m/s | -2.2°C | 91.3% | 687.6hPa | 2.7V | 07:25:33 | 03:11:21 | 00:00:00 | |
| DM0DOS-11 | 2026-09-01 13:29:11 | 51.58967 | 8.74478 | 74° | 44km/h | 3311m | -2.6m/s | -2.4°C | 91.2% | 685.9hPa | 2.7V | 07:25:34 | 03:11:14 | 00:00:00 | |
| DB0DAN | 2026-09-01 13:29:10 | 51.58980 | 8.74542 | 69° | 40km/h | 3300m | -2.7m/s | -2.3°C | 89.2% | 686.87hPa | 2.7V | 00:00:00 | 00:00:00 | 00:00:00 | |
| BIOWL1-15 | 2026-09-01 13:29:10 | 51.58973 | 8.74510 | 73° | 40km/h | 3306m | -2.9m/s | -2.3°C | 91.9% | 686.5hPa | 2.7V | 07:25:33 | 03:11:16 | 00:00:00 | |
| DO2JMG | 2026-09-01 13:29:06 | 51.58967 | 8.74478 | 75° | 44km/h | 3311m | -2.6m/s | -2.4°C | 93.1% | 685.9hPa | 2.7V | 07:26:24 | 03:11:14 | 00:00:00 | |
| DD8BA-10 | 2026-09-01 13:29:04 | 51.58960 | 8.74443 | 69° | 44km/h | 3316m | -2.4m/s | -2.4°C | 94.2% | 685.4hPa | 2.7V | 07:25:00 | 00:00:00 | 00:00:00 | |
| DM0DOS-11 | 2026-09-01 13:29:03 | 51.58947 | 8.74394 | 67° | 40km/h | 3324m | -2.4m/s | -2.5°C | 94.9% | 684.8hPa | 2.7V | 07:25:39 | 03:11:09 | 00:00:00 | |
| HSKMA3-T | 2026-09-01 13:29:02 | 51.58951 | 8.74410 | 66° | 42km/h | 3321m | -2.6m/s | -2.5°C | 96% | 684.9hPa | 2.6V | 07:26:24 | 03:11:10 | 00:00:00 | |
| BIOWL1-15 | 2026-09-01 13:28:59 | 51.58940 | 8.74362 | 73° | 44km/h | 3329m | -2.5m/s | -2.6°C | 95.6% | 684.4hPa | 2.7V | 07:26:24 | 03:11:07 | 00:00:00 | |
| DO9LL-15 | 2026-09-01 13:28:59 | 51.58940 | 8.74362 | 74° | 46km/h | 3329m | -2.4m/s | -2.5°C | 95.0% | 684.3hPa | 2.7V | 00:00:00 | 03:11:07 | 00:00:00 | |
| DM0DOS-11 | 2026-09-01 13:28:56 | 51.58930 | 8.74308 | 70° | 46km/h | 3337m | -3m/s | -2.7°C | 94.7% | 683.8hPa | 2.7V | 07:25:44 | 03:11:04 | 00:00:00 | |
| DM0DOS-11 | 2026-09-01 13:28:56 | 51.58913 | 8.74222 | 72° | 46km/h | 3350m | -2.7m/s | -2.8°C | 93.3% | 682.4hPa | 2.7V | 07:25:49 | 03:10:59 | 00:00:00 | |
| DB0DAN | 2026-09-01 13:28:55 | 51.58926 | 8.74291 | 70° | 42km/h | 3339m | -2.5m/s | -2.7°C | 92.1% | 683.38hPa | 2.7V | 00:00:00 | 00:00:00 | 00:00:00 | |
| DO2JMG | 2026-09-01 13:28:55 | 51.58926 | 8.74291 | 70° | 44km/h | 3339m | -2.5m/s | -2.7°C | 94.4% | 683.4hPa | 2.7V | 07:26:24 | 03:11:03 | 00:00:00 | |
| HSKMA3-T | 2026-09-01 13:28:51 | 51.58913 | 8.74222 | 72° | 46km/h | 3350m | -2.7m/s | -2.8°C | 93.7% | 682.4hPa | 2.7V | 07:26:24 | 03:10:59 | 00:00:00 | |
| BIOWL1-15 | 2026-09-01 13:28:49 | 51.58898 | 8.74153 | 72° | 46km/h | 3361m | -2.6m/s | -2.9°C | 94.8% | 681.5hPa | 2.6V | 07:26:24 | 03:10:55 | 00:00:00 | |
| DD1CC3-15 | 2026-09-01 13:28:47 | 51.58901 | 8.74170 | 73° | 44km/h | 3358m | -2.8m/s | -2.8°C | 94.7% | 681.9hPa | 2.7V | 07:26:00 | 00:00:00 | 00:00:00 | |
| DM0DOS-11 | 2026-09-01 13:28:46 | 51.58875 | 8.74050 | 72° | 46km/h | 3377m | -2.4m/s | -2.9°C | 97.8% | 680.2hPa | 2.7V | 07:25:59 | 03:10:49 | 00:00:00 | |
| DO2JMG | 2026-09-01 13:28:44 | 51.58886 | 8.74101 | 68° | 46km/h | 3369m | -2.9m/s | -2.9°C | 97.6% | 680.8hPa | 2.7V | 07:26:24 | 03:10:52 | 00:00:00 | |
| DD8BA-10 | 2026-09-01 13:28:44 | 51.58886 | 8.74101 | 69° | 46km/h | 3369m | -2.8m/s | -2.8°C | 97.4% | 680.8hPa | 2.7V | 00:00:00 | 00:00:00 | 00:00:00 | |
| DO3DL | 2026-09-01 13:28:42 | 51.58882 | 8.74084 | 70° | 44km/h | 3372m | -2.9m/s | -2.9°C | 95.6% | 680.7hPa | 2.7V | 07:26:00 | 00:00:00 | 00:00:00 | |
| DM0DOS-11 | 2026-09-01 13:28:41 | 51.58856 | 8.73960 | 72° | 47km/h | 3389m | -2.2m/s | -2.9°C | 99.5% | 679.2hPa | 2.7V | 07:26:04 | 03:10:44 | 00:00:00 | |
| HSKMA3-T | 2026-09-01 13:28:41 | 51.58875 | 8.74050 | 73° | 46km/h | 3377m | -2.4m/s | -2.9°C | 98.4% | 680.2hPa | 2.7V | 07:26:24 | 03:10:49 | 00:00:00 | |
| DB0DAN | 2026-09-01 13:28:40 | 51.58871 | 8.74032 | 72° | 46km/h | 3379m | -2.5m/s | -2.9°C | 97% | 679.99hPa | 2.7V | 00:00:00 | 00:00:00 | 00:00:00 | |
| BIOWL1-15 | 2026-09-01 13:28:39 | 51.58859 | 8.73978 | 71° | 46km/h | 3387m | -2.3m/s | -2.9°C | 99.2% | 679.4hPa | 2.6V | 07:26:24 | 03:10:45 | 00:00:00 | |
| DO2JMG | 2026-09-01 13:28:34 | 51.58848 | 8.73922 | 70° | 49km/h | 3393m | -2.1m/s | -3°C | 100% | 678.9hPa | 2.7V | 07:26:24 | 03:10:42 | 00:00:00 | |
| DD8BA-10 | 2026-09-01 13:28:34 | 51.58848 | 8.73922 | 71° | 47km/h | 3394m | -2.1m/s | -2.9°C | 0% | 678.8hPa | 2.7V | 00:00:00 | 00:00:00 | 00:00:00 | |
| DM0DOS-11 | 2026-09-01 13:28:33 | 51.58836 | 8.73868 | 72° | 47km/h | 3400m | -2m/s | -3°C | 0% | 678.2hPa | 2.7V | 07:26:09 | 03:10:39 | 00:00:00 | |
| HSKMA3-T | 2026-09-01 13:28:30 | 51.58832 | 8.73849 | 73° | 47km/h | 3402m | -2.3m/s | -3°C | 100% | 678hPa | 2.7V | 07:26:24 | 03:10:38 | 00:00:00 | |
| DO9LL-15 | 2026-09-01 13:28:29 | 51.58829 | 8.73831 | 72° | 47km/h | 3404m | -2.0m/s | -3.0°C | 0% | 677.8hPa | 2.6V | 00:00:00 | 03:10:37 | 00:00:00 | |
| DO3DL | 2026-09-01 13:28:28 | 51.58828 | 8.73831 | 72° | 49km/h | 3404m | -2.1m/s | -3.0°C | 0% | 677.9hPa | 2.7V | 07:26:00 | 00:00:00 | 00:00:00 | |
| DM0DOS-11 | 2026-09-01 13:28:27 | 51.58816 | 8.73777 | 70° | 46km/h | 3411m | -2.4m/s | -3°C | 0% | 677.2hPa | 2.7V | 07:26:14 | 03:10:34 | 00:00:00 | |
| BIOWL1-15 | 2026-09-01 13:28:26 | 51.58816 | 8.73777 | 71° | 46km/h | 3411m | -2.4m/s | -3.1°C | 100% | 677.2hPa | 2.7V | 07:26:24 | 03:10:34 | 00:00:00 | |
| DB0DAN | 2026-09-01 13:28:25 | 51.58812 | 8.73760 | 72° | 44km/h | 3414m | -2.3m/s | -3°C | 100% | 677.01hPa | 2.7V | 00:00:00 | 00:00:00 | 00:00:00 | |
| DO2JMG | 2026-09-01 13:28:23 | 51.58804 | 8.73723 | 68° | 47km/h | 3418m | -2.2m/s | -3.1°C | 100% | 676.6hPa | 2.6V | 07:26:24 | 03:10:31 | 00:00:00 | |
| DO3DL | 2026-09-01 13:28:22 | 51.58804 | 8.73723 | 69° | 47km/h | 3418m | -2.2m/s | -3.1°C | 0% | 676.6hPa | 2.7V | 07:26:00 | 00:00:00 | 00:00:00 | |
| DM0DOS-11 | 2026-09-01 13:28:21 | 51.58796 | 8.73688 | 69° | 46km/h | 3423m | -2.3m/s | -3.1°C | 0% | 676.3hPa | 2.7V | 07:26:19 | 03:10:29 | 00:00:00 | |
| DM0DOS-11 | 2026-09-01 13:28:21 | 51.58774 | 8.73593 | 69° | 49km/h | 3433m | -2.2m/s | -3.1°C | 0% | 675.3hPa | 2.7V | 07:26:24 | 03:10:24 | 00:00:00 | |
| HSKMA3-T | 2026-09-01 13:28:19 | 51.58787 | 8.73651 | 71° | 51km/h | 3427m | -2.1m/s | -3.1°C | 100% | 675.9hPa | 2.7V | 07:26:24 | 03:10:27 | 00:00:00 | |
| BIOWL1-15 | 2026-09-01 13:28:18 | 51.58774 | 8.73593 | 69° | 49km/h | 3433m | -2.2m/s | -3.1°C | 100% | 675.3hPa | 2.7V | 07:26:24 | 03:10:24 | 00:00:00 | |
| DO2JMG | 2026-09-01 13:28:13 | 51.58762 | 8.73536 | 72° | 49km/h | 3439m | -2.1m/s | -3.2°C | 100% | 674.8hPa | 2.7V | 07:27:15 | 03:10:21 | 00:00:00 | |
| DM0DOS-11 | 2026-09-01 13:28:13 | 51.58754 | 8.73498 | 70° | 46km/h | 3443m | -2m/s | -3.2°C | 0% | 674.5hPa | 2.7V | 07:26:29 | 03:10:19 | 00:00:00 | |
| DL4BBY-15 | 2026-09-01 13:28:12 | 51.58758 | 8.73517 | 71° | 42km/h | 3441m | -2.0m/s | -5.5°C | 0% | 0hPa | 2.7V | 00:00:00 | 00:00:00 | 00:00:00 | |
| DB0DAN | 2026-09-01 13:28:10 | 51.58750 | 8.73481 | 73° | 42km/h | 3445m | -1.9m/s | -3.3°C | 100% | 674.42hPa | 2.7V | 00:00:00 | 00:00:00 | 00:00:00 | |
| HSKMA3-T | 2026-09-01 13:28:09 | 51.58747 | 8.73463 | 75° | 44km/h | 3447m | -2.1m/s | -3.3°C | 100% | 674.2hPa | 2.7V | 07:27:15 | 03:10:17 | 00:00:00 | |
| DD1CC3-15 | 2026-09-01 13:28:07 | 51.58744 | 8.73446 | 75° | 46km/h | 3449m | -2.3m/s | -3.3°C | 104.4% | 673.9hPa | 2.6V | 07:27:00 | 00:00:00 | 00:00:00 | |
| DM0DOS-11 | 2026-09-01 13:28:06 | 51.58738 | 8.73411 | 71° | 44km/h | 3454m | -2.1m/s | -3.3°C | 0% | 673.6hPa | 2.6V | 07:26:34 | 03:10:14 | 00:00:00 | |
| DM0DOS-11 | 2026-09-01 13:28:06 | 51.58724 | 8.73326 | 77° | 47km/h | 3464m | -2.3m/s | -3.4°C | 0% | 672.8hPa | 2.7V | 07:26:39 | 03:10:09 | 00:00:00 | |
| BIOWL1-15 | 2026-09-01 13:28:06 | 51.58732 | 8.73379 | 75° | 42km/h | 3458m | -2.1m/s | -3.3°C | 100% | 673.2hPa | 2.7V | 07:27:15 | 03:10:12 | 00:00:00 | |
| DO2JMG | 2026-09-01 13:28:03 | 51.58729 | 8.73362 | 78° | 44km/h | 3460m | -2m/s | -3.4°C | 100% | 673.1hPa | 2.7V | 07:27:15 | 03:10:11 | 00:00:00 | |
| DM0DOS-11 | 2026-09-01 13:28:01 | 51.58706 | 8.73239 | 73° | 42km/h | 3475m | -1.9m/s | -3.5°C | 0% | 671.8hPa | 2.6V | 07:26:44 | 03:10:04 | 00:00:00 | |
| HSKMA3-T | 2026-09-01 13:27:58 | 51.58713 | 8.73272 | 68° | 46km/h | 3471m | -2.3m/s | -3.5°C | 100% | 672.3hPa | 2.7V | 07:27:15 | 03:10:06 | 00:00:00 | |
| DO3DL | 2026-09-01 13:27:57 | 51.58709 | 8.73255 | 70° | 44km/h | 3474m | -2.3m/s | -3.4°C | 0% | 671.9hPa | 2.7V | 07:27:00 | 00:00:00 | 00:00:00 | |
| DM0DOS-11 | 2026-09-01 13:27:56 | 51.58693 | 8.73154 | 76° | 42km/h | 3484m | -1.2m/s | -3.6°C | 99.5% | 671.1hPa | 2.7V | 07:26:49 | 03:09:59 | 00:00:00 | |
| DB0DAN | 2026-09-01 13:27:55 | 51.58703 | 8.73222 | 76° | 40km/h | 3477m | -1.6m/s | -3.5°C | 100% | 671.66hPa | 2.7V | 00:00:00 | 00:00:00 | 00:00:00 | |
| BIOWL1-15 | 2026-09-01 13:27:55 | 51.58698 | 8.73189 | 79° | 44km/h | 3480m | -1.7m/s | -3.6°C | 98.3% | 671.3hPa | 2.7V | 07:27:15 | 03:10:01 | 00:00:00 | |
| DO2JMG | 2026-09-01 13:27:52 | 51.58696 | 8.73171 | 77° | 44km/h | 3482m | -1.7m/s | -3.6°C | 97.6% | 671.1hPa | 2.7V | 07:27:15 | 03:10:00 | 00:00:00 | |
| HSKMA3-T | 2026-09-01 13:27:47 | 51.58685 | 8.73094 | 81° | 37km/h | 3487m | -1.2m/s | -3.5°C | 95% | 670.7hPa | 2.6V | 07:27:15 | 03:09:55 | 00:00:00 | |
| BIOWL1-15 | 2026-09-01 13:27:43 | 51.58676 | 8.73032 | 71° | 40km/h | 3491m | -1.1m/s | -3.6°C | 95% | 670.4hPa | 2.7V | 07:27:15 | 03:09:51 | 00:00:00 | |
| DM0DOS-11 | 2026-09-01 13:27:43 | 51.58669 | 8.73002 | 71° | 38km/h | 3494m | -1.3m/s | -3.5°C | 89.6% | 670.2hPa | 2.7V | 07:26:59 | 03:09:49 | 00:00:00 | |
| DO2JMG | 2026-09-01 13:27:41 | 51.58669 | 8.73002 | 72° | 38km/h | 3494m | -1.3m/s | -3.5°C | 90.8% | 670.2hPa | 2.7V | 07:27:15 | 03:09:49 | 00:00:00 | |
| DB0DAN | 2026-09-01 13:27:40 | 51.58666 | 8.72987 | 75° | 37km/h | 3495m | -1.4m/s | -3.4°C | 87.2% | 670.11hPa | 2.7V | 00:00:00 | 00:00:00 | 00:00:00 | |
| HSKMA3-T | 2026-09-01 13:27:36 | 51.58655 | 8.72921 | 71° | 42km/h | 3500m | -1.5m/s | -3.2°C | 83.9% | 669.7hPa | 2.7V | 07:27:15 | 03:09:44 | 00:00:00 | |
| BIOWL1-15 | 2026-09-01 13:27:32 | 51.58645 | 8.72863 | 82° | 35km/h | 3506m | -1.6m/s | -2.8°C | 70.4% | 669.1hPa | 2.7V | 07:27:15 | 03:09:40 | 00:00:00 | |
| DM0DOS-11 | 2026-09-01 13:27:31 | 51.58635 | 8.72784 | 78° | 31km/h | 3517m | -2.1m/s | -3.3°C | 80.8% | 668.3hPa | 2.7V | 07:27:14 | 03:09:34 | 00:00:00 | |
| DO2JMG | 2026-09-01 13:27:30 | 51.58642 | 8.72835 | 80° | 35km/h | 3509m | -1.7m/s | -3.2°C | 76% | 668.9hPa | 2.6V | 07:27:15 | 03:09:38 | 00:00:00 | |
| DD1CC8 | 2026-09-01 13:27:27 | 51.58637 | 8.72796 | 76° | 31km/h | 3514m | -2.3m/s | -3.4°C | 80.1% | 668.4hPa | 2.7V | 00:00:00 | 00:00:00 | 00:00:00 | |
| DM0DOS-11 | 2026-09-01 13:27:26 | 51.58625 | 8.72720 | 74° | 31km/h | 3526m | -2.2m/s | -3.4°C | 79.5% | 667.6hPa | 2.7V | 07:27:19 | 03:09:29 | 00:00:00 | |
| HSKMA3-T | 2026-09-01 13:27:26 | 51.58635 | 8.72784 | 78° | 31km/h | 3517m | -2.2m/s | -3.3°C | 80.5% | 668.3hPa | 2.7V | 07:27:15 | 03:09:34 | 00:00:00 | |
| DB0DAN | 2026-09-01 13:27:25 | 51.58633 | 8.72771 | 78° | 31km/h | 3519m | -1.6m/s | -3.3°C | 77.2% | 668.11hPa | 2.7V | 00:00:00 | 00:00:00 | 00:00:00 | |
| BIOWL1-15 | 2026-09-01 13:27:22 | 51.58627 | 8.72732 | 74° | 31km/h | 3523m | -2.3m/s | -3.4°C | 80.7% | 667.7hPa | 2.7V | 07:28:06 | 03:09:30 | 00:00:00 | |
| DM0DOS-11 | 2026-09-01 13:27:21 | 51.58611 | 8.72654 | 72° | 35km/h | 3535m | -1.9m/s | -3.1°C | 68.4% | 666.7hPa | 2.6V | 07:27:24 | 03:09:24 | 00:00:00 | |
| DO2JMG | 2026-09-01 13:27:20 | 51.58623 | 8.72707 | 75° | 33km/h | 3528m | -1.9m/s | -3.4°C | 80.5% | 667.4hPa | 2.7V | 07:28:06 | 03:09:28 | 00:00:00 | |
| HSKMA3-T | 2026-09-01 13:27:15 | 51.58609 | 8.72641 | 77° | 35km/h | 3538m | -2.1m/s | -3.2°C | 71.5% | 666.6hPa | 2.7V | 07:28:06 | 03:09:23 | 00:00:00 | |
| DD8BA-10 | 2026-09-01 13:27:14 | 51.58606 | 8.72627 | 79° | 33km/h | 3540m | -2.1m/s | -3.2°C | 67.5% | 666.3hPa | 2.7V | 00:00:00 | 00:00:00 | 00:00:00 | |
| DM0DOS-11 | 2026-09-01 13:27:13 | 51.58601 | 8.72586 | 78° | 33km/h | 3546m | -1.8m/s | -3.6°C | 78.7% | 665.8hPa | 2.7V | 07:27:29 | 03:09:19 | 00:00:00 | |
| BIOWL1-15 | 2026-09-01 13:27:11 | 51.58601 | 8.72586 | 78° | 33km/h | 3546m | -1.8m/s | -3.6°C | 75.9% | 665.9hPa | 2.7V | 07:28:06 | 03:09:19 | 00:00:00 | |
| DB0DAN | 2026-09-01 13:27:10 | 51.58599 | 8.72572 | 81° | 31km/h | 3548m | -1.3m/s | -3.6°C | 77.9% | 665.7hPa | 2.7V | 00:00:00 | 00:00:00 | 00:00:00 | |
| DO2JMG | 2026-09-01 13:27:09 | 51.58598 | 8.72559 | 82° | 33km/h | 3549m | -1.3m/s | -3.6°C | 77.4% | 665.6hPa | 2.7V | 07:28:06 | 03:09:17 | 00:00:00 | |
| DL4BBY-15 | 2026-09-01 13:27:09 | 51.58598 | 8.72559 | 82° | 33km/h | 3549m | -1.2m/s | -5.9°C | 0% | 0hPa | 2.7V | 00:00:00 | 00:00:00 | 00:00:00 | |
| DM0DOS-11 | 2026-09-01 13:27:07 | 51.58593 | 8.72519 | 78° | 31km/h | 3553m | -1.6m/s | -2.6°C | 52.1% | 665.3hPa | 2.7V | 07:27:34 | 03:09:14 | 00:00:00 | |
| DM0DOS-11 | 2026-09-01 13:27:07 | 51.58587 | 8.72441 | 85° | 31km/h | 3563m | -1.8m/s | -2.9°C | 61.3% | 664.4hPa | 2.7V | 07:27:40 | 03:09:08 | 00:00:00 | |
| HSKMA3-T | 2026-09-01 13:27:04 | 51.58591 | 8.72493 | 83° | 33km/h | 3557m | -1.8m/s | -3.4°C | 69% | 664.9hPa | 2.7V | 07:28:06 | 03:09:12 | 00:00:00 | |
| BIOWL1-15 | 2026-09-01 13:27:01 | 51.58588 | 8.72454 | 84° | 31km/h | 3562m | -1.5m/s | -3.3°C | 68.1% | 664.5hPa | 2.7V | 07:28:06 | 03:09:09 | 00:00:00 | |
| DO2JMG | 2026-09-01 13:26:58 | 51.58587 | 8.72416 | 89° | 33km/h | 3567m | -1.7m/s | -2.2°C | 48.1% | 664.1hPa | 2.7V | 07:28:06 | 03:09:06 | 00:00:00 | |
| DD1CC8 | 2026-09-01 13:26:56 | 51.58586 | 8.72389 | 84° | 31km/h | 3570m | -1.6m/s | -2.1°C | 39.1% | 663.8hPa | 2.6V | 00:00:00 | 00:00:00 | 00:00:00 | |
| DB0DAN | 2026-09-01 13:26:55 | 51.58585 | 8.72376 | 86° | 31km/h | 3572m | -1.7m/s | -2.1°C | 39.7% | 663.67hPa | 2.6V | 00:00:00 | 00:00:00 | 00:00:00 | |
| DD8BA-10 | 2026-09-01 13:26:54 | 51.58584 | 8.72362 | 88° | 33km/h | 3574m | -1.8m/s | -2.0°C | 39.5% | 663.4hPa | 2.7V | 00:00:00 | 00:00:00 | 00:00:00 | |
| HSKMA3-T | 2026-09-01 13:26:54 | 51.58584 | 8.72363 | 88° | 33km/h | 3574m | -1.8m/s | -2.1°C | 43% | 663.5hPa | 2.6V | 07:28:06 | 03:09:02 | 00:00:00 | |
| DM0DOS-11 | 2026-09-01 13:26:53 | 51.58581 | 8.72307 | 82° | 33km/h | 3581m | -1.7m/s | -2°C | 36% | 662.9hPa | 2.7V | 07:27:50 | 03:08:58 | 00:00:00 | |
| DO2JMG | 2026-09-01 13:26:48 | 51.58579 | 8.72281 | 86° | 33km/h | 3585m | -1.8m/s | -2.1°C | 41.7% | 662.5hPa | 2.7V | 07:28:06 | 03:08:56 | 00:00:00 | |
| SONCRA | 2026-09-01 13:26:47 | 51.58578 | 8.72254 | 85° | 31km/h | 3589m | -1.9m/s | -2.1°C | 35.6% | 662.3hPa | 2.7V | 00:00:00 | 00:00:00 | 00:00:00 | |
| HSKMA3-T | 2026-09-01 13:26:43 | 51.58578 | 8.72214 | 92° | 35km/h | 3594m | -1.8m/s | -1.9°C | 34.9% | 661.8hPa | 2.7V | 07:28:06 | 03:08:51 | 00:00:00 | |
| BIOWL1-15 | 2026-09-01 13:26:41 | 51.58577 | 8.72158 | 90° | 35km/h | 3601m | -1.9m/s | -2°C | 35% | 661.2hPa | 2.7V | 07:28:06 | 03:08:47 | 00:00:00 | |
| DM0DOS-11 | 2026-09-01 13:26:40 | 51.58577 | 8.72172 | 87° | 35km/h | 3599m | -1.6m/s | -2°C | 31.2% | 661.3hPa | 2.7V | 07:28:00 | 03:08:48 | 00:00:00 | |
| DM0DOS-11 | 2026-09-01 13:26:40 | 51.58575 | 8.72100 | 83° | 35km/h | 3608m | -1.9m/s | -2.1°C | 30.8% | 660.6hPa | 2.7V | 07:28:05 | 03:08:43 | 00:00:00 | |
| DB0DAN | 2026-09-01 13:26:40 | 51.58577 | 8.72172 | 88° | 33km/h | 3599m | -1.6m/s | -2°C | 30.7% | 661.32hPa | 2.7V | 00:00:00 | 00:00:00 | 00:00:00 | |
| DO2JMG | 2026-09-01 13:26:38 | 51.58577 | 8.72144 | 89° | 37km/h | 3603m | -1.9m/s | -2°C | 35.1% | 661hPa | 2.6V | 07:28:06 | 03:08:46 | 00:00:00 | |
| DL3OBA | 2026-09-01 13:26:36 | 51.58576 | 8.72129 | 88° | 37km/h | 3605m | -1.9m/s | -2.0°C | 30.6% | 660.9hPa | 2.7V | 07:28:00 | 00:00:00 | 00:00:00 | |
| DM0DOS-11 | 2026-09-01 13:26:35 | 51.58573 | 8.72029 | 86° | 35km/h | 3618m | -1.9m/s | -2.1°C | 31.4% | 659.9hPa | 2.7V | 07:28:10 | 03:08:38 | 00:00:00 | |
| HSKMA3-T | 2026-09-01 13:26:32 | 51.58574 | 8.72058 | 89° | 35km/h | 3614m | -2m/s | -2.1°C | 34.8% | 660.1hPa | 2.7V | 07:28:57 | 03:08:40 | 00:00:00 | |
| DD1CC9-15 | 2026-09-01 13:26:31 | 51.58573 | 8.72058 | 90° | 35km/h | 3614m | -2.0m/s | -2.1°C | 30.8% | 660.1hPa | 2.7V | 00:00:00 | 00:00:00 | 00:00:00 | |
| DM0DOS-11 | 2026-09-01 13:26:30 | 51.58572 | 8.71957 | 89° | 37km/h | 3627m | -2m/s | -2.2°C | 31.6% | 659.1hPa | 2.7V | 07:28:15 | 03:08:33 | 00:00:00 | |
| BIOWL1-15 | 2026-09-01 13:26:29 | 51.58572 | 8.72016 | 89° | 35km/h | 3620m | -2m/s | -2.2°C | 35.1% | 659.7hPa | 2.6V | 07:28:57 | 03:08:37 | 00:00:00 | |
| DO2JMG | 2026-09-01 13:26:27 | 51.58572 | 8.71987 | 91° | 37km/h | 3623m | -2m/s | -2.2°C | 35.2% | 659.3hPa | 2.7V | 07:28:57 | 03:08:35 | 00:00:00 | |
| DB0DAN | 2026-09-01 13:26:25 | 51.58572 | 8.71957 | 90° | 35km/h | 3627m | -2m/s | -2.2°C | 31.1% | 659.12hPa | 2.7V | 00:00:00 | 00:00:00 | 00:00:00 | |
| DM0DOS-11 | 2026-09-01 13:26:25 | 51.58574 | 8.71883 | 89° | 35km/h | 3637m | -1.8m/s | -2.2°C | 32.1% | 658.3hPa | 2.6V | 07:28:20 | 03:08:28 | 00:00:00 | |
| HSKMA3-T | 2026-09-01 13:26:21 | 51.58574 | 8.71898 | 91° | 37km/h | 3635m | -1.9m/s | -2.2°C | 35.9% | 658.4hPa | 2.6V | 07:28:57 | 03:08:29 | 00:00:00 | |
| DD8BA-10 | 2026-09-01 13:26:21 | 51.58574 | 8.71898 | 91° | 35km/h | 3635m | -1.9m/s | -2.2°C | 32.1% | 658.4hPa | 2.6V | 00:00:00 | 00:00:00 | 00:00:00 | |
| DM0DOS-11 | 2026-09-01 13:26:20 | 51.58575 | 8.71812 | 87° | 35km/h | 3647m | -1.9m/s | -2.3°C | 32.8% | 657.4hPa | 2.6V | 07:28:25 | 03:08:23 | 00:00:00 | |
| BIOWL1-15 | 2026-09-01 13:26:18 | 51.58574 | 8.71856 | 93° | 35km/h | 3641m | -2.2m/s | -2.3°C | 35.9% | 658hPa | 2.7V | 07:28:57 | 03:08:26 | 00:00:00 | |
| DO2JMG | 2026-09-01 13:26:16 | 51.58575 | 8.71827 | 90° | 37km/h | 3645m | -2m/s | -2.3°C | 36.3% | 657.6hPa | 2.7V | 07:28:57 | 03:08:24 | 00:00:00 | |
| DB0UT-7 | 2026-09-01 13:26:16 | 51.58575 | 8.71827 | 91° | 35km/h | 3645m | -1.9m/s | -2.3°C | 32.7% | 657.5hPa | 2.7V | 00:00:00 | 00:00:00 | 00:00:00 | |
| DL3OBA | 2026-09-01 13:26:15 | 51.58575 | 8.71827 | 91° | 37km/h | 3645m | -2.0m/s | -2.3°C | 32.2% | 657.6hPa | 2.7V | 07:28:00 | 00:00:00 | 00:00:00 | |
| DD1CC2-15 | 2026-09-01 13:26:12 | 51.58574 | 8.71784 | 91° | 35km/h | 3652m | -2.1m/s | -2.4°C | 32.5% | 657.1hPa | 2.7V | 07:28:00 | 00:00:00 | 00:00:00 | |
| DL1LOL-11 | 2026-09-01 13:26:11 | 51.58574 | 8.71770 | 91° | 37km/h | 3654m | -2.1m/s | -2.4°C | 32.6% | 656.9hPa | 2.7V | 00:00:00 | 00:00:00 | 00:00:00 | |
| DB0DAN | 2026-09-01 13:26:10 | 51.58574 | 8.71740 | 86° | 35km/h | 3658m | -2.1m/s | -2.4°C | 32.7% | 656.53hPa | 2.7V | 00:00:00 | 00:00:00 | 00:00:00 | |
| HSKMA3-T | 2026-09-01 13:26:10 | 51.58574 | 8.71740 | 86° | 37km/h | 3658m | -2.1m/s | -2.4°C | 37% | 656.5hPa | 2.7V | 07:28:57 | 03:08:18 | 00:00:00 | |
| BIOWL1-15 | 2026-09-01 13:26:09 | 51.58573 | 8.71698 | 91° | 37km/h | 3664m | -2.2m/s | -2.4°C | 37.6% | 656hPa | 2.6V | 07:28:57 | 03:08:15 | 00:00:00 | |
| DO2JMG | 2026-09-01 13:26:06 | 51.58573 | 8.71683 | 89° | 37km/h | 3666m | -2.3m/s | -2.5°C | 38.5% | 655.7hPa | 2.7V | 07:28:57 | 03:08:14 | 00:00:00 | |
| HSKMA3-T | 2026-09-01 13:26:00 | 51.58572 | 8.71597 | 88° | 35km/h | 3680m | -2.5m/s | -2.6°C | 40.1% | 654.6hPa | 2.6V | 07:28:57 | 03:08:08 | 00:00:00 | |
| BIOWL1-15 | 2026-09-01 13:25:56 | 51.58570 | 8.71511 | 88° | 35km/h | 3696m | -2.6m/s | -2.6°C | 39.3% | 653.3hPa | 2.7V | 07:28:57 | 03:08:02 | 00:00:00 | |
| DB0DAN | 2026-09-01 13:25:55 | 51.58571 | 8.71525 | 86° | 33km/h | 3693m | -2.6m/s | -2.6°C | 34.4% | 653.58hPa | 2.7V | 00:00:00 | 00:00:00 | 00:00:00 | |
| DO2JMG | 2026-09-01 13:25:55 | 51.58571 | 8.71525 | 86° | 35km/h | 3693m | -2.6m/s | -2.6°C | 39.2% | 653.6hPa | 2.7V | 07:28:57 | 03:08:03 | 00:00:00 | |
| DM0DOS-11 | 2026-09-01 13:25:55 | 51.58571 | 8.71525 | 85° | 35km/h | 3693m | -2.6m/s | -2.6°C | 34.9% | 653.6hPa | 2.7V | 07:28:45 | 03:08:03 | 00:00:00 | |
| DD1CC8 | 2026-09-01 13:25:54 | 51.58570 | 8.71511 | 87° | 33km/h | 3696m | -2.6m/s | -2.6°C | 34.4% | 653.3hPa | 2.7V | 00:00:00 | 00:00:00 | 00:00:00 | |
| DO3DL | 2026-09-01 13:25:52 | 51.58570 | 8.71497 | 90° | 35km/h | 3699m | -2.8m/s | -2.6°C | 34.6% | 653.0hPa | 2.7V | 07:28:00 | 00:00:00 | 00:00:00 | |
| DD8BA-10 | 2026-09-01 13:25:51 | 51.58569 | 8.71468 | 85° | 37km/h | 3704m | -2.6m/s | -2.6°C | 35.5% | 652.6hPa | 2.7V | 00:00:00 | 00:00:00 | 00:00:00 | |
| DM0DOS-11 | 2026-09-01 13:25:50 | 51.58565 | 8.71381 | 85° | 35km/h | 3720m | -2.7m/s | -2.8°C | 35.8% | 651.4hPa | 2.7V | 07:28:55 | 03:07:53 | 00:00:00 | |
| HSKMA3-T | 2026-09-01 13:25:49 | 51.58568 | 8.71439 | 87° | 35km/h | 3709m | -2.8m/s | -2.7°C | 40% | 652.2hPa | 2.7V | 07:28:57 | 03:07:57 | 00:00:00 | |
| DB0UT-7 | 2026-09-01 13:25:46 | 51.58566 | 8.71395 | 85° | 37km/h | 3718m | -2.8m/s | -2.7°C | 35.7% | 651.6hPa | 2.7V | 00:00:00 | 03:07:54 | 00:00:00 | |
| DM0DOS-11 | 2026-09-01 13:25:45 | 51.58562 | 8.71308 | 84° | 35km/h | 3734m | -2.8m/s | -2.8°C | 36% | 650.1hPa | 2.7V | 07:29:00 | 03:07:48 | 00:00:00 | |
| DO2JMG | 2026-09-01 13:25:44 | 51.58565 | 8.71367 | 87° | 35km/h | 3723m | -2.7m/s | -2.8°C | 39.9% | 651.1hPa | 2.6V | 07:28:57 | 03:07:52 | 00:00:00 | |
| DD1CC3-15 | 2026-09-01 13:25:43 | 51.58564 | 8.71367 | 88° | 35km/h | 3723m | -2.7m/s | -2.8°C | 35.2% | 651.1hPa | 2.7V | 07:28:00 | 00:00:00 | 00:00:00 | |
| DB0DAN | 2026-09-01 13:25:40 | 51.58562 | 8.71308 | 85° | 33km/h | 3734m | -2.8m/s | -2.8°C | 35.4% | 650.11hPa | 2.7V | 00:00:00 | 00:00:00 | 00:00:00 | |
| DM0DOS-11 | 2026-09-01 13:25:40 | 51.58558 | 8.71234 | 83° | 37km/h | 3749m | -3m/s | -2.9°C | 37.9% | 649hPa | 2.6V | 07:29:05 | 03:07:43 | 00:00:00 | |
| HSKMA3-T | 2026-09-01 13:25:38 | 51.58561 | 8.71279 | 86° | 38km/h | 3740m | -2.8m/s | -2.8°C | 41% | 649.7hPa | 2.7V | 07:29:48 | 03:07:46 | 00:00:00 | |
| BIOWL1-15 | 2026-09-01 13:25:35 | 51.58556 | 8.71204 | 85° | 38km/h | 3755m | -3.1m/s | -2.9°C | 43.5% | 648.5hPa | 2.7V | 07:29:48 | 03:07:41 | 00:00:00 | |
| DO2JMG | 2026-09-01 13:25:34 | 51.58556 | 8.71219 | 85° | 37km/h | 3752m | -2.9m/s | -2.9°C | 42.6% | 648.8hPa | 2.7V | 07:29:48 | 03:07:42 | 00:00:00 | |
| DM0DOS-11 | 2026-09-01 13:25:33 | 51.58552 | 8.71158 | 83° | 37km/h | 3764m | -3.1m/s | -2.9°C | 41.3% | 647.9hPa | 2.7V | 07:29:10 | 03:07:38 | 00:00:00 | |
| DO3DL | 2026-09-01 13:25:32 | 51.58556 | 8.71204 | 86° | 38km/h | 3755m | -3.1m/s | -2.9°C | 38.8% | 648.5hPa | 2.7V | 07:29:00 | 00:00:00 | 00:00:00 | |
| DL3AQ-11 | 2026-09-01 13:25:31 | 51.58552 | 8.71158 | 83° | 35km/h | 3764m | -3.1m/s | -2.9°C | 40.6% | 647.9hPa | 2.7V | 00:00:00 | 00:00:00 | 00:00:00 | |
| BIOWL9-15 | 2026-09-01 13:25:30 | 51.58551 | 8.71144 | 84° | 37km/h | 3767m | -3.1m/s | -2.9°C | 42.0% | 647.6hPa | 2.7V | 00:00:00 | 00:00:00 | 00:00:00 | |
| DO9LL-15 | 2026-09-01 13:25:29 | 51.58551 | 8.71143 | 85° | 38km/h | 3767m | -3.1m/s | -2.9°C | 42.6% | 647.5hPa | 2.7V | 07:29:00 | 03:07:37 | 00:00:00 | |
| DB0NH | 2026-09-01 13:25:28 | 51.58550 | 8.71128 | 84° | 38km/h | 3770m | -3.1m/s | -2.9°C | 42.7% | 647.2hPa | 2.6V | 00:00:00 | 03:07:36 | 00:00:00 | |
| HSKMA3-T | 2026-09-01 13:25:28 | 51.58550 | 8.71128 | 83° | 38km/h | 3770m | -3.1m/s | -3°C | 47.2% | 647.2hPa | 2.6V | 07:29:48 | 03:07:36 | 00:00:00 | |
| DO3DL | 2026-09-01 13:25:26 | 51.58549 | 8.71113 | 82° | 38km/h | 3773m | -3.1m/s | -3.0°C | 42.2% | 646.9hPa | 2.7V | 07:29:00 | 00:00:00 | 00:00:00 | |
| DB0DAN | 2026-09-01 13:25:25 | 51.58546 | 8.71084 | 83° | 35km/h | 3780m | -3.1m/s | -3°C | 42.9% | 646.43hPa | 2.7V | 00:00:00 | 00:00:00 | 00:00:00 | |
| DM0DOS-11 | 2026-09-01 13:25:25 | 51.58546 | 8.71084 | 83° | 37km/h | 3779m | -3.1m/s | -3°C | 43.6% | 646.4hPa | 2.7V | 07:29:15 | 03:07:33 | 00:00:00 | |
| DM0DOS-11 | 2026-09-01 13:25:25 | 51.58540 | 8.71009 | 84° | 37km/h | 3795m | -3.2m/s | -3.1°C | 45.4% | 645.1hPa | 2.6V | 07:29:20 | 03:07:28 | 00:00:00 | |
| BIOWL1-15 | 2026-09-01 13:25:23 | 51.58544 | 8.71054 | 83° | 38km/h | 3786m | -3.2m/s | -3.1°C | 48.2% | 646hPa | 2.7V | 07:29:48 | 03:07:31 | 00:00:00 | |
| DM0DOS-11 | 2026-09-01 13:25:20 | 51.58535 | 8.70933 | 85° | 38km/h | 3812m | -3.3m/s | -3.2°C | 48.3% | 643.8hPa | 2.7V | 07:29:25 | 03:07:23 | 00:00:00 | |
| HSKMA3-T | 2026-09-01 13:25:17 | 51.58537 | 8.70963 | 82° | 37km/h | 3805m | -3.3m/s | -3.2°C | 52.3% | 644.4hPa | 2.7V | 07:29:48 | 03:07:25 | 00:00:00 | |
| DB0UT-7 | 2026-09-01 13:25:16 | 51.58536 | 8.70948 | 85° | 38km/h | 3808m | -3.4m/s | -3.1°C | 47.9% | 643.9hPa | 2.6V | 00:00:00 | 00:00:00 | 00:00:00 | |
| DM0DOS-11 | 2026-09-01 13:25:15 | 51.58529 | 8.70856 | 84° | 38km/h | 3828m | -3.4m/s | -3.3°C | 53.4% | 642.4hPa | 2.6V | 07:29:30 | 03:07:18 | 00:00:00 | |
| BIOWL1-15 | 2026-09-01 13:25:15 | 51.58533 | 8.70902 | 82° | 38km/h | 3818m | -3.4m/s | -3.2°C | 54.1% | 643.3hPa | 2.7V | 07:29:48 | 03:07:21 | 00:00:00 | |
| DO2JMG | 2026-09-01 13:25:12 | 51.58532 | 8.70886 | 81° | 38km/h | 3822m | -3.3m/s | -3.2°C | 56.9% | 643.1hPa | 2.7V | 07:29:48 | 03:07:20 | 00:00:00 | |
| DJ2DS-15 | 2026-09-01 13:25:12 | 51.58532 | 8.70886 | 81° | 37km/h | 3821m | -3.3m/s | -3.2°C | 51.1% | 643.1hPa | 2.6V | 00:00:00 | 00:00:00 | 00:00:00 | |
| DB0DAN | 2026-09-01 13:25:10 | 51.58529 | 8.70856 | 84° | 37km/h | 3828m | -3.4m/s | -3.3°C | 52.5% | 642.42hPa | 2.6V | 00:00:00 | 00:00:00 | 00:00:00 | |
| DM0DOS-11 | 2026-09-01 13:25:10 | 51.58523 | 8.70781 | 83° | 38km/h | 3845m | -3.4m/s | -3.4°C | 54.6% | 641.2hPa | 2.7V | 07:29:35 | 03:07:13 | 00:00:00 | |
| HSKMA3-T | 2026-09-01 13:25:06 | 51.58524 | 8.70796 | 83° | 37km/h | 3842m | -3.5m/s | -3.4°C | 59.1% | 641.4hPa | 2.6V | 07:29:48 | 03:07:14 | 00:00:00 | |
| DJ2DS-15 | 2026-09-01 13:25:06 | 51.58524 | 8.70796 | 84° | 37km/h | 3842m | -3.4m/s | -3.4°C | 54.3% | 641.4hPa | 2.6V | 00:00:00 | 03:07:14 | 00:00:00 | |
| DM0DOS-11 | 2026-09-01 13:25:05 | 51.58517 | 8.70704 | 83° | 38km/h | 3863m | -3.3m/s | -3.6°C | 56.2% | 639.7hPa | 2.6V | 07:29:40 | 03:07:08 | 00:00:00 | |
| DO2JMG | 2026-09-01 13:25:02 | 51.58519 | 8.70735 | 82° | 37km/h | 3856m | -3.6m/s | -3.6°C | 60.1% | 640.3hPa | 2.7V | 07:29:48 | 03:07:10 | 00:00:00 | |
| BIOWL1-15 | 2026-09-01 13:25:02 | 51.58517 | 8.70704 | 84° | 38km/h | 3863m | -3.3m/s | -3.6°C | 60.8% | 639.7hPa | 2.6V | 07:29:48 | 03:07:08 | 00:00:00 | |
| BIOWL9-15 | 2026-09-01 13:24:59 | 51.58514 | 8.70673 | 81° | 37km/h | 3870m | -3.5m/s | -3.7°C | 56.0% | 639.1hPa | 2.7V | 00:00:00 | 00:00:00 | 00:00:00 | |
| DB0NH | 2026-09-01 13:24:58 | 51.58514 | 8.70673 | 82° | 37km/h | 3870m | -3.5m/s | -3.6°C | 56.9% | 639.1hPa | 2.7V | 00:00:00 | 03:07:06 | 00:00:00 | |
| DO2KSM | 2026-09-01 13:24:56 | 51.58512 | 8.70658 | 84° | 37km/h | 3873m | -3.5m/s | -3.7°C | 56.4% | 638.8hPa | 2.7V | 00:00:00 | 00:00:00 | 00:00:00 | |
| DB0DAN | 2026-09-01 13:24:55 | 51.58511 | 8.70628 | 84° | 37km/h | 3880m | -3.3m/s | -3.8°C | 57% | 638.24hPa | 2.7V | 00:00:00 | 00:00:00 | 00:00:00 | |
| HSKMA3-T | 2026-09-01 13:24:55 | 51.58511 | 8.70628 | 84° | 38km/h | 3880m | -3.3m/s | -3.8°C | 62.3% | 638.2hPa | 2.7V | 07:29:48 | 03:07:03 | 00:00:00 | |
| BIOWL1-15 | 2026-09-01 13:24:52 | 51.58507 | 8.70583 | 84° | 37km/h | 3890m | -3.6m/s | -3.8°C | 62.7% | 637.4hPa | 2.6V | 07:29:48 | 03:07:00 | 00:00:00 | |
| DO2JMG | 2026-09-01 13:24:51 | 51.58506 | 8.70569 | 85° | 37km/h | 3894m | -3.4m/s | -3.9°C | 63.1% | 637.1hPa | 2.6V | 07:30:39 | 03:06:59 | 00:00:00 | |
| DL3AQ-11 | 2026-09-01 13:24:51 | 51.58506 | 8.70554 | 84° | 37km/h | 3897m | -3.5m/s | -3.9°C | 58.0% | 636.8hPa | 2.7V | 00:00:00 | 00:00:00 | 00:00:00 | |
| DK9SH | 2026-09-01 13:24:49 | 51.58506 | 8.70553 | 85° | 38km/h | 3897m | -3.5m/s | -3.9°C | 58.0% | 636.8hPa | 2.7V | 07:30:00 | 00:00:00 | 00:00:00 | |
| DJ2KF-10 | 2026-09-01 13:24:47 | 51.58502 | 8.70509 | 84° | 40km/h | 3908m | -3.5m/s | -4.0°C | 59.7% | 636.0hPa | 2.7V | 00:00:00 | 03:06:55 | 00:00:00 | |
| DM0DOS-11 | 2026-09-01 13:24:46 | 51.58500 | 8.70479 | 84° | 38km/h | 3915m | -3.4m/s | -4.1°C | 60% | 635.5hPa | 2.7V | 07:29:55 | 03:06:53 | 00:00:00 | |
| HSKMA3-T | 2026-09-01 13:24:45 | 51.58500 | 8.70479 | 85° | 38km/h | 3915m | -3.4m/s | -4.1°C | 64.3% | 635.5hPa | 2.7V | 07:30:39 | 03:06:53 | 00:00:00 | |
| DO2JMG | 2026-09-01 13:24:41 | 51.58497 | 8.70420 | 88° | 37km/h | 3929m | -3.6m/s | -4.2°C | 64.9% | 634.4hPa | 2.7V | 07:30:39 | 03:06:49 | 00:00:00 | |
| BIOWL1-15 | 2026-09-01 13:24:41 | 51.58496 | 8.70389 | 85° | 38km/h | 3936m | -3.4m/s | -4.3°C | 65.1% | 633.7hPa | 2.7V | 07:30:39 | 03:06:47 | 00:00:00 | |
| DB0DAN | 2026-09-01 13:24:40 | 51.58496 | 8.70405 | 87° | 37km/h | 3933m | -3.6m/s | -4.2°C | 59.9% | 634.08hPa | 2.7V | 00:00:00 | 00:00:00 | 00:00:00 | |
| DM0DOS-11 | 2026-09-01 13:24:40 | 51.58496 | 8.70405 | 86° | 38km/h | 3932m | -3.6m/s | -4.2°C | 60.9% | 634.1hPa | 2.7V | 07:30:00 | 03:06:48 | 00:00:00 | |
| DM0DOS-11 | 2026-09-01 13:24:40 | 51.58492 | 8.70329 | 84° | 38km/h | 3950m | -3.6m/s | -4.4°C | 62.3% | 632.7hPa | 2.6V | 07:30:05 | 03:06:43 | 00:00:00 | |
| DL3AQ-11 | 2026-09-01 13:24:39 | 51.58496 | 8.70389 | 84° | 38km/h | 3936m | -3.4m/s | -4.3°C | 60.1% | 633.7hPa | 2.7V | 00:00:00 | 00:00:00 | 00:00:00 | |
| DL4BBY-15 | 2026-09-01 13:24:38 | 51.58495 | 8.70374 | 83° | 37km/h | 3939m | -3.3m/s | -6.6°C | 0% | 0hPa | 2.7V | 00:00:00 | 00:00:00 | 00:00:00 | |
| DM0DOS-11 | 2026-09-01 13:24:35 | 51.58486 | 8.70255 | 84° | 37km/h | 3968m | -3.6m/s | -4.5°C | 63.3% | 631.2hPa | 2.7V | 07:30:10 | 03:06:38 | 00:00:00 | |
| HSKMA3-T | 2026-09-01 13:24:34 | 51.58490 | 8.70314 | 82° | 38km/h | 3953m | -3.7m/s | -4.4°C | 66.5% | 632.4hPa | 2.7V | 07:30:39 | 03:06:42 | 00:00:00 | |
| DO2JMG | 2026-09-01 13:24:30 | 51.58486 | 8.70255 | 85° | 38km/h | 3968m | -3.6m/s | -4.5°C | 67.2% | 631.2hPa | 2.7V | 07:30:39 | 03:06:38 | 00:00:00 | |
| BIOWL1-15 | 2026-09-01 13:24:30 | 51.58484 | 8.70225 | 83° | 35km/h | 3975m | -3.6m/s | -4.6°C | 67.9% | 630.6hPa | 2.7V | 07:30:39 | 03:06:36 | 00:00:00 | |
| DM0DOS-11 | 2026-09-01 13:24:30 | 51.58482 | 8.70181 | 84° | 37km/h | 3986m | -3.7m/s | -4.7°C | 64.8% | 629.7hPa | 2.6V | 07:30:15 | 03:06:33 | 00:00:00 | |
| DO9LL-15 | 2026-09-01 13:24:29 | 51.58485 | 8.70240 | 83° | 37km/h | 3971m | -3.6m/s | -4.5°C | 63.5% | 630.9hPa | 2.6V | 00:00:00 | 03:06:37 | 00:00:00 | |
| BIOWL9-15 | 2026-09-01 13:24:28 | 51.58483 | 8.70211 | 85° | 35km/h | 3978m | -3.8m/s | -4.6°C | 63.4% | 630.3hPa | 2.6V | 00:00:00 | 00:00:00 | 00:00:00 | |
| DO3DL | 2026-09-01 13:24:26 | 51.58483 | 8.70211 | 87° | 35km/h | 3979m | -3.8m/s | -4.6°C | 63.4% | 630.3hPa | 2.6V | 07:30:00 | 00:00:00 | 00:00:00 | |
| DB0DAN | 2026-09-01 13:24:25 | 51.58482 | 8.70181 | 84° | 35km/h | 3986m | -3.7m/s | -4.7°C | 63.7% | 629.67hPa | 2.6V | 00:00:00 | 00:00:00 | 00:00:00 | |
| DM0DOS-11 | 2026-09-01 13:24:25 | 51.58477 | 8.70109 | 82° | 37km/h | 4004m | -3.8m/s | -4.8°C | 65.4% | 628.2hPa | 2.7V | 07:30:20 | 03:06:28 | 00:00:00 | |
| HSKMA3-T | 2026-09-01 13:24:23 | 51.58479 | 8.70152 | 83° | 35km/h | 3993m | -3.7m/s | -4.7°C | 69.1% | 629.1hPa | 2.7V | 07:30:39 | 03:06:31 | 00:00:00 | |
| DD1CC3-15 | 2026-09-01 13:24:22 | 51.58479 | 8.70152 | 84° | 35km/h | 3993m | -3.7m/s | -4.7°C | 64.0% | 629.1hPa | 2.7V | 07:30:00 | 00:00:00 | 00:00:00 | |
| DD1CC8 | 2026-09-01 13:24:21 | 51.58478 | 8.70123 | 84° | 37km/h | 4001m | -3.7m/s | -4.8°C | 64.0% | 628.5hPa | 2.7V | 00:00:00 | 00:00:00 | 00:00:00 | |
| DM0DOS-11 | 2026-09-01 13:24:20 | 51.58471 | 8.70036 | 82° | 37km/h | 4023m | -3.7m/s | -5°C | 63.9% | 626.7hPa | 2.7V | 07:30:25 | 03:06:23 | 00:00:00 | |
| BIOWL1-15 | 2026-09-01 13:24:20 | 51.58477 | 8.70109 | 82° | 37km/h | 4004m | -3.8m/s | -4.8°C | 69.2% | 628.2hPa | 2.7V | 07:30:39 | 03:06:28 | 00:00:00 | |
| DO3DL | 2026-09-01 13:24:19 | 51.58477 | 8.70108 | 83° | 37km/h | 4004m | -3.8m/s | -4.8°C | 64.3% | 628.2hPa | 2.6V | 07:30:00 | 00:00:00 | 00:00:00 | |
| DD8BA-10 | 2026-09-01 13:24:16 | 51.58472 | 8.70051 | 84° | 37km/h | 4019m | -3.7m/s | -4.9°C | 63.9% | 627.0hPa | 2.6V | 00:00:00 | 00:00:00 | 00:00:00 | |
| DM0DOS-11 | 2026-09-01 13:24:13 | 51.58467 | 8.69964 | 82° | 35km/h | 4041m | -3.6m/s | -5.1°C | 63.4% | 625.3hPa | 2.6V | 07:30:30 | 03:06:18 | 00:00:00 | |
| HSKMA3-T | 2026-09-01 13:24:12 | 51.58469 | 8.69993 | 86° | 37km/h | 4034m | -3.8m/s | -5°C | 67.1% | 625.9hPa | 2.7V | 07:30:39 | 03:06:20 | 00:00:00 | |
| DB0DAN | 2026-09-01 13:24:10 | 51.58467 | 8.69964 | 83° | 35km/h | 4042m | -3.6m/s | -5.1°C | 62.3% | 625.27hPa | 2.6V | 00:00:00 | 00:00:00 | 00:00:00 | |
| BIOWL1-15 | 2026-09-01 13:24:09 | 51.58464 | 8.69921 | 86° | 37km/h | 4053m | -3.8m/s | -5.2°C | 67% | 624.5hPa | 2.7V | 07:30:39 | 03:06:15 | 00:00:00 | |
| DL4BBY-15 | 2026-09-01 13:24:08 | 51.58465 | 8.69935 | 87° | 37km/h | 4049m | -3.7m/s | -7.5°C | 0% | 0hPa | 2.7V | 00:00:00 | 00:00:00 | 00:00:00 | |
| DD1CC2-15 | 2026-09-01 13:24:07 | 51.58465 | 8.69935 | 87° | 35km/h | 4049m | -3.8m/s | -5.2°C | 62.6% | 624.8hPa | 2.7V | 07:30:00 | 00:00:00 | 00:00:00 | |
| DO3DL | 2026-09-01 13:24:06 | 51.58464 | 8.69921 | 87° | 37km/h | 4053m | -3.8m/s | -5.2°C | 62.2% | 624.5hPa | 2.7V | 07:30:00 | 00:00:00 | 00:00:00 | |
| DM0DOS-11 | 2026-09-01 13:24:05 | 51.58463 | 8.69891 | 83° | 35km/h | 4060m | -3.7m/s | -5.2°C | 61.4% | 623.8hPa | 2.7V | 07:30:35 | 03:06:13 | 00:00:00 | |
| DM0DOS-11 | 2026-09-01 13:24:05 | 51.58459 | 8.69818 | 85° | 35km/h | 4079m | -3.8m/s | -5.3°C | 60.3% | 622.3hPa | 2.7V | 07:30:40 | 03:06:08 | 00:00:00 | |
| HSKMA3-T | 2026-09-01 13:24:02 | 51.58461 | 8.69848 | 87° | 37km/h | 4071m | -3.8m/s | -5.3°C | 64.3% | 622.9hPa | 2.6V | 07:30:39 | 03:06:10 | 00:00:00 | |
| BIOWL1-15 | 2026-09-01 13:23:58 | 51.58457 | 8.69760 | 85° | 37km/h | 4094m | -3.9m/s | -5.5°C | 64.8% | 621.1hPa | 2.7V | 07:31:30 | 03:06:04 | 00:00:00 | |
| BIOWL9-15 | 2026-09-01 13:23:57 | 51.58457 | 8.69760 | 84° | 35km/h | 4094m | -3.9m/s | -5.5°C | 59.7% | 621.1hPa | 2.7V | 00:00:00 | 00:00:00 | 00:00:00 | |
| DB0DAN | 2026-09-01 13:23:55 | 51.58456 | 8.69746 | 86° | 33km/h | 4098m | -3.8m/s | -5.5°C | 59.8% | 620.76hPa | 2.7V | 00:00:00 | 00:00:00 | 00:00:00 | |
| DM0DOS-11 | 2026-09-01 13:23:55 | 51.58456 | 8.69746 | 86° | 35km/h | 4098m | -3.8m/s | -5.5°C | 60.9% | 620.8hPa | 2.7V | 07:30:45 | 03:06:03 | 00:00:00 | |
| DM0DOS-11 | 2026-09-01 13:23:55 | 51.58454 | 8.69673 | 87° | 35km/h | 4117m | -3.9m/s | -5.7°C | 61% | 619.3hPa | 2.6V | 07:30:50 | 03:05:58 | 00:00:00 | |
| HSKMA3-T | 2026-09-01 13:23:52 | 51.58455 | 8.69702 | 86° | 37km/h | 4109m | -3.8m/s | -5.6°C | 64.9% | 620hPa | 2.7V | 07:31:30 | 03:06:00 | 00:00:00 | |
| DL4XJ-10 | 2026-09-01 13:23:51 | 51.58454 | 8.69688 | 87° | 37km/h | 4113m | -3.8m/s | -8.0°C | 0% | 0hPa | 2.7V | 00:00:00 | 00:00:00 | 00:00:00 | |
| DM0DOS-11 | 2026-09-01 13:23:50 | 51.58451 | 8.69600 | 88° | 37km/h | 4136m | -3.9m/s | -5.8°C | 61.5% | 617.8hPa | 2.7V | 07:30:55 | 03:05:53 | 00:00:00 | |
| BIOWL1-15 | 2026-09-01 13:23:47 | 51.58453 | 8.69629 | 86° | 37km/h | 4128m | -3.8m/s | -5.8°C | 65.7% | 618.4hPa | 2.7V | 07:31:30 | 03:05:55 | 00:00:00 | |
| HSKMA3-T | 2026-09-01 13:23:42 | 51.58450 | 8.69556 | 86° | 35km/h | 4147m | -4m/s | -5.9°C | 65% | 616.9hPa | 2.7V | 07:31:30 | 03:05:50 | 00:00:00 | |
| DB0DAN | 2026-09-01 13:23:40 | 51.58449 | 8.69527 | 90° | 35km/h | 4155m | -3.8m/s | -6°C | 59.5% | 616.29hPa | 2.7V | 00:00:00 | 00:00:00 | 00:00:00 | |
| DM0DOS-11 | 2026-09-01 13:23:40 | 51.58448 | 8.69438 | 87° | 37km/h | 4178m | -4m/s | -6.1°C | 58.1% | 614.5hPa | 2.7V | 07:31:06 | 03:05:42 | 00:00:00 | |
| BIOWL1-15 | 2026-09-01 13:23:37 | 51.58449 | 8.69483 | 88° | 35km/h | 4167m | -3.9m/s | -6.1°C | 64.4% | 615.4hPa | 2.7V | 07:31:30 | 03:05:45 | 00:00:00 | |
| HSKMA3-T | 2026-09-01 13:23:32 | 51.58447 | 8.69409 | 87° | 35km/h | 4186m | -3.9m/s | -6.2°C | 61.8% | 613.8hPa | 2.7V | 07:31:30 | 03:05:40 | 00:00:00 | |
| DO2JMG | 2026-09-01 13:23:31 | 51.58447 | 8.69394 | 88° | 37km/h | 4190m | -4m/s | -6.2°C | 61.6% | 613.4hPa | 2.6V | 07:31:30 | 03:05:39 | 00:00:00 | |
| DL4XJ-10 | 2026-09-01 13:23:30 | 51.58446 | 8.69380 | 86° | 38km/h | 4194m | -3.9m/s | -8.6°C | 0% | 0hPa | 2.6V | 00:00:00 | 00:00:00 | 00:00:00 | |
| DM0DOS-11 | 2026-09-01 13:23:29 | 51.58442 | 8.69291 | 85° | 38km/h | 4217m | -3.9m/s | -6.5°C | 57.4% | 611.4hPa | 2.6V | 07:31:16 | 03:05:32 | 00:00:00 | |
| BIOWL1-15 | 2026-09-01 13:23:26 | 51.58442 | 8.69291 | 85° | 38km/h | 4217m | -3.9m/s | -6.5°C | 61.6% | 611.4hPa | 2.6V | 07:31:30 | 03:05:32 | 00:00:00 | |
| DB0DAN | 2026-09-01 13:23:25 | 51.58443 | 8.69306 | 86° | 37km/h | 4213m | -3.8m/s | -6.4°C | 56.2% | 611.68hPa | 2.6V | 00:00:00 | 00:00:00 | 00:00:00 | |
| DM0DOS-11 | 2026-09-01 13:23:24 | 51.58439 | 8.69216 | 83° | 37km/h | 4236m | -3.7m/s | -6.6°C | 57.9% | 609.9hPa | 2.7V | 07:31:21 | 03:05:27 | 00:00:00 | |
| HSKMA3-T | 2026-09-01 13:23:21 | 51.58440 | 8.69246 | 88° | 38km/h | 4228m | -4m/s | -6.6°C | 62% | 610.5hPa | 2.7V | 07:31:30 | 03:05:29 | 00:00:00 | |
| DO2JMG | 2026-09-01 13:23:20 | 51.58440 | 8.69231 | 85° | 38km/h | 4232m | -3.8m/s | -6.6°C | 62.1% | 610.3hPa | 2.7V | 07:31:30 | 03:05:28 | 00:00:00 | |
| BIOWL1-15 | 2026-09-01 13:23:15 | 51.58435 | 8.69127 | 87° | 37km/h | 4260m | -3.8m/s | -6.8°C | 62.2% | 608hPa | 2.7V | 07:31:30 | 03:05:21 | 00:00:00 | |
| DM0DOS-11 | 2026-09-01 13:23:14 | 51.58432 | 8.69051 | 89° | 37km/h | 4279m | -4m/s | -7°C | 58.4% | 606.6hPa | 2.7V | 07:31:32 | 03:05:16 | 00:00:00 | |
| DO3DL | 2026-09-01 13:23:13 | 51.58435 | 8.69141 | 86° | 37km/h | 4256m | -3.9m/s | -6.8°C | 56.7% | 608.4hPa | 2.6V | 07:31:00 | 00:00:00 | 00:00:00 | |
| BIOWL7-15 | 2026-09-01 13:23:12 | 51.58434 | 8.69112 | 89° | 37km/h | 4263m | -3.9m/s | -6.9°C | 56.8% | 607.8hPa | 2.6V | 07:31:00 | 00:00:00 | 00:00:00 | |
| DB0DAN | 2026-09-01 13:23:10 | 51.58433 | 8.69081 | 86° | 35km/h | 4271m | -3.9m/s | -7°C | 57% | 607.2hPa | 2.6V | 00:00:00 | 00:00:00 | 00:00:00 | |
| HSKMA3-T | 2026-09-01 13:23:10 | 51.58433 | 8.69081 | 86° | 37km/h | 4271m | -3.9m/s | -7°C | 62.1% | 607.2hPa | 2.6V | 07:31:30 | 03:05:18 | 00:00:00 | |
| DO2JMG | 2026-09-01 13:23:10 | 51.58433 | 8.69066 | 87° | 37km/h | 4275m | -4m/s | -7°C | 62% | 606.9hPa | 2.7V | 07:32:21 | 03:05:17 | 00:00:00 | |
| BIOWL1-15 | 2026-09-01 13:23:04 | 51.58431 | 8.68989 | 87° | 38km/h | 4294m | -3.8m/s | -7.1°C | 63% | 605.4hPa | 2.7V | 07:32:21 | 03:05:12 | 00:00:00 | |
| DJ2DS-15 | 2026-09-01 13:23:04 | 51.58431 | 8.68989 | 87° | 38km/h | 4294m | -3.8m/s | -7.1°C | 59.0% | 605.4hPa | 2.7V | 00:00:00 | 03:05:12 | 00:00:00 | |
| DM0DOS-11 | 2026-09-01 13:23:03 | 51.58427 | 8.68898 | 88° | 37km/h | 4317m | -3.8m/s | -7.3°C | 59.5% | 603.6hPa | 2.7V | 07:31:42 | 03:05:06 | 00:00:00 | |
| HSKMA3-T | 2026-09-01 13:23:00 | 51.58428 | 8.68927 | 86° | 37km/h | 4310m | -3.8m/s | -7.2°C | 63.2% | 604.1hPa | 2.7V | 07:32:21 | 03:05:08 | 00:00:00 | |
| DO2JMG | 2026-09-01 13:22:58 | 51.58428 | 8.68898 | 88° | 38km/h | 4317m | -3.8m/s | -7.3°C | 63.4% | 603.6hPa | 2.7V | 07:32:21 | 03:05:06 | 00:00:00 | |
| DB0NH | 2026-09-01 13:22:58 | 51.58427 | 8.68898 | 89° | 38km/h | 4317m | -3.8m/s | -7.3°C | 59.5% | 603.6hPa | 2.6V | 00:00:00 | 03:05:06 | 00:00:00 | |
| DD1CC9-15 | 2026-09-01 13:22:57 | 51.58427 | 8.68898 | 89° | 37km/h | 4317m | -3.8m/s | -7.3°C | 58.3% | 603.6hPa | 2.6V | 00:00:00 | 00:00:00 | 00:00:00 | |
| DB0DAN | 2026-09-01 13:22:55 | 51.58426 | 8.68852 | 87° | 35km/h | 4329m | -3.9m/s | -7.4°C | 58.5% | 602.73hPa | 2.6V | 00:00:00 | 00:00:00 | 00:00:00 | |
| BIOWL1-15 | 2026-09-01 13:22:54 | 51.58426 | 8.68838 | 90° | 37km/h | 4333m | -3.9m/s | -7.4°C | 63.7% | 602.4hPa | 2.7V | 07:32:21 | 03:05:02 | 00:00:00 | |
| DM0DOS-11 | 2026-09-01 13:22:53 | 51.58424 | 8.68745 | 88° | 38km/h | 4355m | -3.8m/s | -7.6°C | 60.6% | 600.6hPa | 2.6V | 07:31:52 | 03:04:56 | 00:00:00 | |
| HSKMA3-T | 2026-09-01 13:22:49 | 51.58424 | 8.68760 | 90° | 38km/h | 4351m | -3.6m/s | -7.6°C | 64.4% | 601hPa | 2.6V | 07:32:21 | 03:04:57 | 00:00:00 | |
| DO2JMG | 2026-09-01 13:22:47 | 51.58424 | 8.68729 | 87° | 38km/h | 4359m | -3.6m/s | -7.7°C | 64.7% | 600.4hPa | 2.7V | 07:32:21 | 03:04:55 | 00:00:00 | |
| BIOWL1-15 | 2026-09-01 13:22:44 | 51.58421 | 8.68620 | 90° | 38km/h | 4385m | -3.9m/s | -7.9°C | 65.7% | 598.4hPa | 2.7V | 07:32:21 | 03:04:48 | 00:00:00 | |
| DM0DOS-11 | 2026-09-01 13:22:43 | 51.58422 | 8.68667 | 87° | 40km/h | 4373m | -3.6m/s | -7.8°C | 61.3% | 599.2hPa | 2.7V | 07:31:57 | 03:04:51 | 00:00:00 | |
| DM0DOS-11 | 2026-09-01 13:22:43 | 51.58421 | 8.68588 | 87° | 38km/h | 4392m | -3.8m/s | -8°C | 61.9% | 597.8hPa | 2.7V | 07:32:02 | 03:04:46 | 00:00:00 | |
| DB0DAN | 2026-09-01 13:22:40 | 51.58421 | 8.68620 | 90° | 37km/h | 4385m | -3.9m/s | -7.9°C | 60.3% | 598.38hPa | 2.7V | 00:00:00 | 00:00:00 | 00:00:00 | |
| HSKMA3-T | 2026-09-01 13:22:39 | 51.58421 | 8.68604 | 89° | 40km/h | 4389m | -3.9m/s | -7.9°C | 65.7% | 598.1hPa | 2.7V | 07:32:21 | 03:04:47 | 00:00:00 | |
| DO2JMG | 2026-09-01 13:22:37 | 51.58420 | 8.68573 | 87° | 38km/h | 4396m | -3.7m/s | -8°C | 66% | 597.4hPa | 2.7V | 07:32:21 | 03:04:45 | 00:00:00 | |
| DD8BA-10 | 2026-09-01 13:22:36 | 51.58420 | 8.68557 | 90° | 38km/h | 4400m | -3.8m/s | -8.0°C | 62.0% | 597.2hPa | 2.6V | 00:00:00 | 00:00:00 | 00:00:00 | |
| DM0DOS-11 | 2026-09-01 13:22:33 | 51.58419 | 8.68431 | 87° | 38km/h | 4430m | -3.7m/s | -8.3°C | 63.2% | 594.9hPa | 2.6V | 07:32:12 | 03:04:36 | 00:00:00 | |
| BIOWL1-15 | 2026-09-01 13:22:31 | 51.58419 | 8.68479 | 91° | 38km/h | 4419m | -3.8m/s | -8.3°C | 66.6% | 595.8hPa | 2.7V | 07:32:21 | 03:04:39 | 00:00:00 | |
| DO9LL-15 | 2026-09-01 13:22:29 | 51.58419 | 8.68447 | 88° | 38km/h | 4426m | -3.7m/s | -8.3°C | 63.0% | 595.2hPa | 2.7V | 00:00:00 | 03:04:37 | 00:00:00 | |
| DM0DOS-11 | 2026-09-01 13:22:28 | 51.58418 | 8.68352 | 87° | 38km/h | 4449m | -3.8m/s | -8.5°C | 63.6% | 593.5hPa | 2.7V | 07:32:17 | 03:04:31 | 00:00:00 | |
| HSKMA3-T | 2026-09-01 13:22:28 | 51.58419 | 8.68431 | 88° | 38km/h | 4430m | -3.7m/s | -8.4°C | 67.1% | 594.9hPa | 2.6V | 07:32:21 | 03:04:36 | 00:00:00 | |
| DO2JMG | 2026-09-01 13:22:26 | 51.58419 | 8.68399 | 90° | 40km/h | 4437m | -3.8m/s | -8.4°C | 66.9% | 594.2hPa | 2.7V | 07:32:21 | 03:04:34 | 00:00:00 | |
| DB0DAN | 2026-09-01 13:22:25 | 51.58418 | 8.68383 | 88° | 38km/h | 4441m | -3.8m/s | -8.5°C | 61.8% | 594hPa | 2.7V | 00:00:00 | 00:00:00 | 00:00:00 | |
| BIOWL1-15 | 2026-09-01 13:22:24 | 51.58417 | 8.68305 | 88° | 40km/h | 4460m | -3.7m/s | -8.6°C | 67.2% | 592.6hPa | 2.6V | 07:32:21 | 03:04:28 | 00:00:00 | |
| DJ2DS-15 | 2026-09-01 13:22:24 | 51.58418 | 8.68367 | 87° | 38km/h | 4445m | -3.8m/s | -8.4°C | 63.4% | 593.7hPa | 2.7V | 00:00:00 | 03:04:32 | 00:00:00 | |
| DL3AQ-11 | 2026-09-01 13:22:23 | 51.58418 | 8.68352 | 87° | 37km/h | 4448m | -3.8m/s | -8.5°C | 62.2% | 593.5hPa | 2.7V | 00:00:00 | 00:00:00 | 00:00:00 | |
| DM0DOS-11 | 2026-09-01 13:22:21 | 51.58417 | 8.68274 | 89° | 37km/h | 4467m | -3.7m/s | -8.7°C | 64% | 592.1hPa | 2.7V | 07:32:22 | 03:04:26 | 00:00:00 | |
| HSKMA3-T | 2026-09-01 13:22:17 | 51.58417 | 8.68258 | 91° | 38km/h | 4471m | -3.6m/s | -8.7°C | 67.3% | 591.9hPa | 2.7V | 07:33:12 | 03:04:25 | 00:00:00 | |
| DO2JMG | 2026-09-01 13:22:15 | 51.58417 | 8.68226 | 89° | 40km/h | 4478m | -3.6m/s | -8.8°C | 67.6% | 591.2hPa | 2.7V | 07:33:12 | 03:04:23 | 00:00:00 | |
| DM0DOS-11 | 2026-09-01 13:22:13 | 51.58416 | 8.68195 | 90° | 38km/h | 4485m | -3.6m/s | -8.9°C | 64.6% | 590.7hPa | 2.6V | 07:32:27 | 03:04:21 | 00:00:00 | |
| DM0DOS-11 | 2026-09-01 13:22:13 | 51.58416 | 8.68115 | 91° | 38km/h | 4502m | -3.6m/s | -9°C | 65.1% | 589.4hPa | 2.7V | 07:32:32 | 03:04:16 | 00:00:00 | |
| BIOWL1-15 | 2026-09-01 13:22:12 | 51.58416 | 8.68115 | 92° | 38km/h | 4502m | -3.6m/s | -9°C | 68.1% | 589.4hPa | 2.7V | 07:33:12 | 03:04:16 | 00:00:00 | |
| DB0DAN | 2026-09-01 13:22:10 | 51.58416 | 8.68147 | 89° | 38km/h | 4495m | -3.5m/s | -9°C | 63.5% | 589.98hPa | 2.7V | 00:00:00 | 00:00:00 | 00:00:00 | |
| HSKMA3-T | 2026-09-01 13:22:06 | 51.58417 | 8.68082 | 89° | 40km/h | 4509m | -3.3m/s | -9.1°C | 68.2% | 588.9hPa | 2.6V | 07:33:12 | 03:04:14 | 00:00:00 | |
| DO2JMG | 2026-09-01 13:22:04 | 51.58416 | 8.68050 | 90° | 38km/h | 4516m | -3.4m/s | -9.2°C | 68.5% | 588.4hPa | 2.7V | 07:33:12 | 03:04:12 | 00:00:00 | |
| DM0DOS-11 | 2026-09-01 13:22:04 | 51.58416 | 8.68034 | 91° | 40km/h | 4519m | -3.5m/s | -9.2°C | 66% | 587.9hPa | 2.7V | 07:32:37 | 03:04:11 | 00:00:00 | |
| BIOWL1-15 | 2026-09-01 13:22:00 | 51.58416 | 8.67953 | 91° | 42km/h | 4536m | -3.4m/s | -9.4°C | 69% | 586.9hPa | 2.7V | 07:33:12 | 03:04:06 | 00:00:00 | |
| DL3AQ-11 | 2026-09-01 13:22:00 | 51.58416 | 8.67969 | 91° | 38km/h | 4533m | -3.3m/s | -9.3°C | 65.1% | 587.0hPa | 2.7V | 00:00:00 | 00:00:00 | 00:00:00 | |
| DO3DL | 2026-09-01 13:21:59 | 51.58416 | 8.67985 | 91° | 38km/h | 4530m | -3.3m/s | -9.3°C | 64.9% | 587.3hPa | 2.7V | 07:33:00 | 00:00:00 | 00:00:00 | |
| DM0DOS-11 | 2026-09-01 13:21:58 | 51.58416 | 8.67953 | 90° | 42km/h | 4536m | -3.4m/s | -9.4°C | 66.6% | 586.9hPa | 2.7V | 07:32:42 | 03:04:06 | 00:00:00 | |
| DM0DOS-11 | 2026-09-01 13:21:58 | 51.58414 | 8.67867 | 84° | 44km/h | 4553m | -3.7m/s | -9.5°C | 67.1% | 585.6hPa | 2.6V | 07:32:47 | 03:04:01 | 00:00:00 | |
| HSKMA3-T | 2026-09-01 13:21:56 | 51.58416 | 8.67919 | 88° | 42km/h | 4543m | -3.4m/s | -9.4°C | 69.3% | 586.3hPa | 2.7V | 07:33:12 | 03:04:04 | 00:00:00 | |
| DB0DAN | 2026-09-01 13:21:55 | 51.58415 | 8.67902 | 88° | 40km/h | 4546m | -3.3m/s | -9.5°C | 65.5% | 585.98hPa | 2.7V | 00:00:00 | 00:00:00 | 00:00:00 | |
| DO2JMG | 2026-09-01 13:21:54 | 51.58415 | 8.67884 | 87° | 44km/h | 4549m | -3.5m/s | -9.5°C | 69.3% | 585.8hPa | 2.7V | 07:33:12 | 03:04:02 | 00:00:00 | |
| DM0DOS-11 | 2026-09-01 13:21:53 | 51.58407 | 8.67782 | 80° | 44km/h | 4570m | -3.4m/s | -9.7°C | 67.8% | 584.3hPa | 2.7V | 07:32:52 | 03:03:56 | 00:00:00 | |
| BIOWL9-15 | 2026-09-01 13:21:52 | 51.58413 | 8.67850 | 82° | 40km/h | 4556m | -3.4m/s | -9.6°C | 65.8% | 585.2hPa | 2.6V | 00:00:00 | 00:00:00 | 00:00:00 | |
| DL1XH1-15 | 2026-09-01 13:21:51 | 51.58403 | 8.67748 | 81° | 42km/h | 4577m | -3.4m/s | -9.8°C | 68.4% | 583.6hPa | 2.6V | 07:32:54 | 03:03:54 | 00:00:00 | |
| DL3OBA | 2026-09-01 13:21:50 | 51.58411 | 8.67833 | 83° | 42km/h | 4560m | -3.4m/s | -9.6°C | 65.9% | 585.1hPa | 2.7V | 07:33:00 | 00:00:00 | 00:00:00 | |
| DM0DOS-11 | 2026-09-01 13:21:48 | 51.58400 | 8.67697 | 83° | 44km/h | 4587m | -3.5m/s | -9.8°C | 70.6% | 582.9hPa | 2.7V | 07:32:57 | 03:03:51 | 00:00:00 | |
| BIOWL1-15 | 2026-09-01 13:21:48 | 51.58407 | 8.67782 | 81° | 44km/h | 4570m | -3.4m/s | -9.7°C | 69.3% | 584.3hPa | 2.7V | 07:33:12 | 03:03:56 | 00:00:00 | |
| DL1XH-west | 2026-09-01 13:21:46 | 51.58404 | 8.67748 | 81° | 42km/h | 4577m | -3.4m/s | -9.8°C | 69.7% | 583.6hPa | 2.6V | 07:33:12 | 03:03:54 | 00:00:00 | |
| HSKMA3-T | 2026-09-01 13:21:45 | 51.58402 | 8.67731 | 83° | 42km/h | 4580m | -3.6m/s | -9.8°C | 70.1% | 583.4hPa | 2.6V | 07:33:12 | 03:03:53 | 00:00:00 | |
| DO2JMG | 2026-09-01 13:21:44 | 51.58401 | 8.67714 | 84° | 44km/h | 4584m | -3.5m/s | -9.8°C | 71% | 583.2hPa | 2.7V | 07:33:12 | 03:03:52 | 00:00:00 | |
| DJ2DS-15 | 2026-09-01 13:21:44 | 51.58401 | 8.67714 | 85° | 44km/h | 4584m | -3.5m/s | -9.8°C | 69.3% | 583.2hPa | 2.6V | 00:00:00 | 03:03:52 | 00:00:00 | |
| DM0DOS-11 | 2026-09-01 13:21:43 | 51.58392 | 8.67609 | 81° | 44km/h | 4605m | -3.7m/s | -9.9°C | 72.8% | 581.6hPa | 2.6V | 07:33:02 | 03:03:46 | 00:00:00 | |
| DB0DAN | 2026-09-01 13:21:40 | 51.58395 | 8.67643 | 81° | 40km/h | 4598m | -3.5m/s | -9.9°C | 70% | 582.17hPa | 2.7V | 00:00:00 | 00:00:00 | 00:00:00 | |
| DL1XH1-15 | 2026-09-01 13:21:40 | 51.58387 | 8.67556 | 83° | 44km/h | 4615m | -3.2m/s | -9.9°C | 75.5% | 580.8hPa | 2.7V | 07:33:05 | 03:03:43 | 00:00:00 | |
| BIOWL1-15 | 2026-09-01 13:21:38 | 51.58392 | 8.67609 | 82° | 44km/h | 4605m | -3.7m/s | -9.9°C | 75.5% | 581.6hPa | 2.6V | 07:33:12 | 03:03:46 | 00:00:00 | |
| DL1XH-west | 2026-09-01 13:21:36 | 51.58388 | 8.67574 | 82° | 44km/h | 4612m | -3.2m/s | -9.9°C | 77.6% | 581.1hPa | 2.7V | 07:33:12 | 03:03:44 | 00:00:00 | |
| DD8BA-10 | 2026-09-01 13:21:36 | 51.58388 | 8.67574 | 82° | 44km/h | 4612m | -3.2m/s | -9.9°C | 74.7% | 581.0hPa | 2.7V | 00:00:00 | 00:00:00 | 00:00:00 | |
| DL1XH1-15 | 2026-09-01 13:21:35 | 51.58378 | 8.67466 | 80° | 44km/h | 4630m | -3.1m/s | -9.9°C | 82.1% | 579.7hPa | 2.7V | 07:33:10 | 03:03:38 | 00:00:00 | |
| DM0DOS-11 | 2026-09-01 13:21:34 | 51.58384 | 8.67520 | 81° | 46km/h | 4621m | -3.1m/s | -9.9°C | 79.9% | 580.4hPa | 2.7V | 07:33:07 | 03:03:41 | 00:00:00 | |
| HSKMA3-T | 2026-09-01 13:21:34 | 51.58386 | 8.67538 | 83° | 46km/h | 4618m | -3.2m/s | -9.9°C | 80.9% | 580.7hPa | 2.7V | 07:33:12 | 03:03:42 | 00:00:00 | |
| DO2JMG | 2026-09-01 13:21:31 | 51.58380 | 8.67484 | 80° | 44km/h | 4627m | -2.8m/s | -9.9°C | 84.3% | 579.9hPa | 2.6V | 07:33:12 | 03:03:39 | 00:00:00 | |
| DL1LOL-11 | 2026-09-01 13:21:31 | 51.58380 | 8.67484 | 81° | 44km/h | 4627m | -2.8m/s | -9.9°C | 80.3% | 579.9hPa | 2.6V | 00:00:00 | 00:00:00 | 00:00:00 | |
| DL1XH1-15 | 2026-09-01 13:21:30 | 51.58367 | 8.67365 | 81° | 44km/h | 4647m | -2.7m/s | -10°C | 82.9% | 578.5hPa | 2.6V | 07:33:16 | 03:03:32 | 00:00:00 | |
| DL3OBA | 2026-09-01 13:21:29 | 51.58378 | 8.67466 | 82° | 44km/h | 4630m | -3.1m/s | -9.9°C | 80.3% | 579.7hPa | 2.7V | 07:33:00 | 00:00:00 | 00:00:00 | |
| DM0DOS-11 | 2026-09-01 13:21:28 | 51.58374 | 8.67432 | 77° | 42km/h | 4636m | -2.9m/s | -9.9°C | 82.3% | 579.2hPa | 2.7V | 07:33:12 | 03:03:36 | 00:00:00 | |
| BIOWL1-15 | 2026-09-01 13:21:28 | 51.58374 | 8.67432 | 78° | 42km/h | 4636m | -2.9m/s | -9.9°C | 83.3% | 579.3hPa | 2.7V | 07:33:12 | 03:03:36 | 00:00:00 | |
| DL1XH-west | 2026-09-01 13:21:26 | 51.58369 | 8.67382 | 83° | 42km/h | 4644m | -2.6m/s | -10°C | 82.3% | 578.7hPa | 2.6V | 07:34:03 | 03:03:33 | 00:00:00 | |
| DB0DAN | 2026-09-01 13:21:25 | 51.58369 | 8.67382 | 83° | 40km/h | 4644m | -2.6m/s | -10°C | 81% | 578.7hPa | 2.6V | 00:00:00 | 00:00:00 | 00:00:00 | |
| HSKMA3-T | 2026-09-01 13:21:25 | 51.58367 | 8.67364 | 82° | 44km/h | 4647m | -2.7m/s | -10°C | 82.4% | 578.5hPa | 2.6V | 07:34:03 | 03:03:32 | 00:00:00 | |
| DL1XH1-15 | 2026-09-01 13:21:25 | 51.58357 | 8.67276 | 78° | 46km/h | 4660m | -2.8m/s | -10.1°C | 83.9% | 577.5hPa | 2.7V | 07:33:21 | 03:03:27 | 00:00:00 | |
| DO2JMG | 2026-09-01 13:21:21 | 51.58361 | 8.67312 | 79° | 44km/h | 4655m | -2.4m/s | -10.1°C | 82.9% | 578hPa | 2.7V | 07:34:03 | 03:03:29 | 00:00:00 | |
| BIOWL1-15 | 2026-09-01 13:21:18 | 51.58354 | 8.67258 | 77° | 46km/h | 4663m | -2.8m/s | -10.2°C | 83.8% | 577.3hPa | 2.6V | 07:34:03 | 03:03:26 | 00:00:00 | |
| DL1XH-west | 2026-09-01 13:21:15 | 51.58347 | 8.67204 | 78° | 46km/h | 4671m | -2.6m/s | -10.3°C | 85.1% | 576.8hPa | 2.7V | 07:34:03 | 03:03:23 | 00:00:00 | |
| HSKMA3-T | 2026-09-01 13:21:13 | 51.58342 | 8.67167 | 75° | 46km/h | 4676m | -3.1m/s | -10.3°C | 85.6% | 576.3hPa | 2.7V | 07:34:03 | 03:03:21 | 00:00:00 | |
| DB0DAN | 2026-09-01 13:21:10 | 51.58333 | 8.67114 | 77° | 44km/h | 4685m | -2.8m/s | -10.4°C | 83.3% | 575.54hPa | 2.7V | 00:00:00 | 00:00:00 | 00:00:00 | |
| DO2JMG | 2026-09-01 13:21:10 | 51.58333 | 8.67114 | 77° | 46km/h | 4685m | -2.8m/s | -10.4°C | 85.6% | 575.5hPa | 2.7V | 07:34:03 | 03:03:18 | 00:00:00 | |
| DL3OBA | 2026-09-01 13:21:09 | 51.58333 | 8.67114 | 78° | 46km/h | 4685m | -2.8m/s | -10.4°C | 83.3% | 575.5hPa | 2.7V | 07:34:00 | 00:00:00 | 00:00:00 | |
| DL1XH1-15 | 2026-09-01 13:21:08 | 51.58322 | 8.67044 | 76° | 44km/h | 4696m | -2.5m/s | -10.5°C | 85.9% | 574.9hPa | 2.7V | 07:33:34 | 03:03:14 | 00:00:00 | |
| BIOWL1-15 | 2026-09-01 13:21:07 | 51.58324 | 8.67061 | 75° | 44km/h | 4694m | -2.8m/s | -10.5°C | 85.8% | 575hPa | 2.7V | 07:34:03 | 03:03:15 | 00:00:00 | |
| DL1XH-west | 2026-09-01 13:21:05 | 51.58319 | 8.67026 | 76° | 46km/h | 4699m | -2.6m/s | -10.5°C | 86.5% | 574.6hPa | 2.6V | 07:34:03 | 03:03:13 | 00:00:00 | |
| DJ2DS-15 | 2026-09-01 13:21:04 | 51.58316 | 8.67008 | 75° | 46km/h | 4702m | -2.6m/s | -10.5°C | 85.7% | 574.3hPa | 2.6V | 00:00:00 | 03:03:12 | 00:00:00 | |
| DM0DOS-11 | 2026-09-01 13:21:03 | 51.58300 | 8.66903 | 75° | 44km/h | 4716m | -2.5m/s | -10.6°C | 87.5% | 573.3hPa | 2.6V | 07:33:42 | 03:03:06 | 00:00:00 | |
| HSKMA3-T | 2026-09-01 13:21:02 | 51.58310 | 8.66974 | 76° | 44km/h | 4706m | -2.4m/s | -10.6°C | 86.3% | 574hPa | 2.7V | 07:34:03 | 03:03:10 | 00:00:00 | |
| DL1XH1-15 | 2026-09-01 13:21:01 | 51.58294 | 8.66867 | 76° | 46km/h | 4721m | -2.5m/s | -10.6°C | 87.8% | 572.9hPa | 2.7V | 07:33:44 | 03:03:04 | 00:00:00 | |
| DO2JMG | 2026-09-01 13:21:00 | 51.58305 | 8.66939 | 77° | 46km/h | 4711m | -2.5m/s | -10.5°C | 87.5% | 573.6hPa | 2.7V | 07:34:03 | 03:03:08 | 00:00:00 | |
| BIOWL1-15 | 2026-09-01 13:20:57 | 51.58297 | 8.66885 | 77° | 46km/h | 4719m | -2.4m/s | -10.6°C | 88% | 573.1hPa | 2.6V | 07:34:03 | 03:03:05 | 00:00:00 | |
| DL1XH1-15 | 2026-09-01 13:20:56 | 51.58279 | 8.66778 | 74° | 46km/h | 4734m | -2.7m/s | -10.7°C | 88.5% | 572hPa | 2.6V | 07:33:49 | 03:02:59 | 00:00:00 | |
| DB0DAN | 2026-09-01 13:20:55 | 51.58291 | 8.66849 | 75° | 44km/h | 4724m | -2.5m/s | -10.6°C | 85.7% | 572.72hPa | 2.7V | 00:00:00 | 00:00:00 | 00:00:00 | |
| DL1XH-west | 2026-09-01 13:20:55 | 51.58291 | 8.66849 | 75° | 46km/h | 4724m | -2.5m/s | -10.6°C | 88% | 572.7hPa | 2.7V | 07:34:03 | 03:03:03 | 00:00:00 | |
| DL1CLM-18 | 2026-09-01 13:20:54 | 51.58291 | 8.66849 | 76° | 46km/h | 4724m | -2.5m/s | -10.6°C | 85.7% | 572.7hPa | 2.7V | 00:00:00 | 00:00:00 | 00:00:00 | |
| DM0DOS-11 | 2026-09-01 13:20:53 | 51.58285 | 8.66814 | 75° | 44km/h | 4729m | -2.6m/s | -10.7°C | 88.1% | 572.3hPa | 2.7V | 07:33:47 | 03:03:01 | 00:00:00 | |
| DM0DOS-11 | 2026-09-01 13:20:53 | 51.58271 | 8.66725 | 77° | 46km/h | 4741m | -2.3m/s | -10.7°C | 89.2% | 571.4hPa | 2.7V | 07:33:52 | 03:02:56 | 00:00:00 | |
| HSKMA3-T | 2026-09-01 13:20:52 | 51.58282 | 8.66796 | 76° | 46km/h | 4732m | -2.7m/s | -10.7°C | 88.1% | 572.1hPa | 2.7V | 07:34:03 | 03:03:00 | 00:00:00 | |
| BIOWL1-15 | 2026-09-01 13:20:47 | 51.58269 | 8.66707 | 77° | 47km/h | 4744m | -2.4m/s | -10.7°C | 89.2% | 571.2hPa | 2.7V | 07:34:03 | 03:02:55 | 00:00:00 | |
| DL1XH1-15 | 2026-09-01 13:20:46 | 51.58252 | 8.66598 | 75° | 46km/h | 4757m | -2.1m/s | -10.8°C | 90.5% | 570.2hPa | 2.7V | 07:33:59 | 03:02:49 | 00:00:00 | |
| DO2JMG | 2026-09-01 13:20:45 | 51.58263 | 8.66671 | 76° | 46km/h | 4748m | -2.3m/s | -10.8°C | 89.6% | 570.9hPa | 2.6V | 07:34:03 | 03:02:53 | 00:00:00 | |
| DL1XH-west | 2026-09-01 13:20:44 | 51.58260 | 8.66653 | 77° | 46km/h | 4751m | -2.1m/s | -10.8°C | 89.8% | 570.7hPa | 2.6V | 07:34:03 | 03:02:52 | 00:00:00 | |
| DM0DOS-11 | 2026-09-01 13:20:43 | 51.58258 | 8.66634 | 77° | 47km/h | 4753m | -2.1m/s | -10.8°C | 90.1% | 570.6hPa | 2.7V | 07:33:57 | 03:02:51 | 00:00:00 | |
| HSKMA3-T | 2026-09-01 13:20:41 | 51.58252 | 8.66598 | 76° | 46km/h | 4757m | -2.1m/s | -10.8°C | 90% | 570.2hPa | 2.7V | 07:34:03 | 03:02:49 | 00:00:00 | |
| DL3AQ-11 | 2026-09-01 13:20:40 | 51.58247 | 8.66562 | 78° | 46km/h | 4761m | -2.2m/s | -10.9°C | 88.7% | 570.0hPa | 2.7V | 00:00:00 | 00:00:00 | 00:00:00 | |
| DD8BA-10 | 2026-09-01 13:20:39 | 51.58247 | 8.66562 | 79° | 46km/h | 4762m | -2.1m/s | -10.8°C | 90.7% | 569.9hPa | 2.7V | 00:00:00 | 00:00:00 | 00:00:00 | |
| DM0DOS-11 | 2026-09-01 13:20:38 | 51.58233 | 8.66456 | 77° | 46km/h | 4774m | -2m/s | -10.9°C | 91.5% | 569hPa | 2.7V | 07:34:07 | 03:02:41 | 00:00:00 | |
| BIOWL1-15 | 2026-09-01 13:20:38 | 51.58240 | 8.66510 | 79° | 44km/h | 4768m | -2.2m/s | -10.9°C | 89.6% | 569.4hPa | 2.7V | 07:34:54 | 03:02:44 | 00:00:00 | |
| DL4BBY-15 | 2026-09-01 13:20:38 | 51.58245 | 8.66544 | 77° | 47km/h | 4764m | -2.2m/s | -13.2°C | 0% | 0hPa | 2.7V | 00:00:00 | 00:00:00 | 00:00:00 | |
| DL1XH1-15 | 2026-09-01 13:20:36 | 51.58239 | 8.66510 | 78° | 44km/h | 4768m | -2.2m/s | -10.9°C | 91.1% | 569.4hPa | 2.7V | 07:34:04 | 03:02:44 | 00:00:00 | |
| DL1XH1-15 | 2026-09-01 13:20:36 | 51.58229 | 8.66421 | 81° | 46km/h | 4778m | -1.8m/s | -11°C | 91.8% | 568.8hPa | 2.6V | 07:34:09 | 03:02:39 | 00:00:00 | |
| DO2JMG | 2026-09-01 13:20:34 | 51.58235 | 8.66474 | 78° | 46km/h | 4772m | -2m/s | -10.9°C | 89.2% | 569.1hPa | 2.7V | 07:34:54 | 03:02:42 | 00:00:00 | |
| DL1XH-west | 2026-09-01 13:20:33 | 51.58233 | 8.66456 | 77° | 46km/h | 4774m | -2m/s | -11°C | 89.1% | 569hPa | 2.7V | 07:34:54 | 03:02:41 | 00:00:00 | |
| HSKMA3-T | 2026-09-01 13:20:30 | 51.58227 | 8.66402 | 81° | 47km/h | 4780m | -1.9m/s | -11°C | 89.4% | 568.5hPa | 2.6V | 07:34:54 | 03:02:38 | 00:00:00 | |
| DO9LL-15 | 2026-09-01 13:20:29 | 51.58225 | 8.66382 | 80° | 49km/h | 4782m | -1.6m/s | -11.0°C | 92.1% | 568.3hPa | 2.7V | 00:00:00 | 03:02:37 | 00:00:00 | |
| DB0NH | 2026-09-01 13:20:28 | 51.58222 | 8.66362 | 78° | 49km/h | 4784m | -2.0m/s | -11.0°C | 92.2% | 568.3hPa | 2.7V | 00:00:00 | 03:02:36 | 00:00:00 | |
| DL1XH1-15 | 2026-09-01 13:20:26 | 51.58207 | 8.66230 | 82° | 46km/h | 4798m | -2.1m/s | -11.1°C | 93.2% | 567.1hPa | 2.7V | 07:34:19 | 03:02:29 | 00:00:00 | |
| BIOWL1-15 | 2026-09-01 13:20:26 | 51.58217 | 8.66324 | 79° | 47km/h | 4788m | -2.1m/s | -11.1°C | 91.1% | 568hPa | 2.7V | 07:34:54 | 03:02:34 | 00:00:00 | |
| DB0DAN | 2026-09-01 13:20:25 | 51.58215 | 8.66305 | 80° | 46km/h | 4790m | -2.1m/s | -11.1°C | 91.2% | 567.83hPa | 2.6V | 00:00:00 | 00:00:00 | 00:00:00 | |
| DL1XH-west | 2026-09-01 13:20:23 | 51.58208 | 8.66248 | 81° | 46km/h | 4797m | -2.1m/s | -11.1°C | 92.5% | 567.4hPa | 2.7V | 07:34:54 | 03:02:30 | 00:00:00 | |
| HSKMA3-T | 2026-09-01 13:20:19 | 51.58204 | 8.66192 | 83° | 47km/h | 4803m | -2.1m/s | -11.1°C | 92.5% | 566.9hPa | 2.7V | 07:34:54 | 03:02:27 | 00:00:00 | |
| DL1XH1-15 | 2026-09-01 13:20:16 | 51.58198 | 8.66134 | 80° | 47km/h | 4809m | -2m/s | -11.2°C | 93.1% | 566.4hPa | 2.7V | 07:34:24 | 03:02:24 | 00:00:00 | |
| DL1XH1-15 | 2026-09-01 13:20:16 | 51.58187 | 8.66037 | 82° | 49km/h | 4819m | -2.1m/s | -11.1°C | 93% | 565.7hPa | 2.6V | 07:34:29 | 03:02:19 | 00:00:00 | |
| DB0UT-7 | 2026-09-01 13:20:16 | 51.58198 | 8.66134 | 81° | 49km/h | 4809m | -1.9m/s | -11.1°C | 93.1% | 566.4hPa | 2.7V | 00:00:00 | 00:00:00 | 00:00:00 | |
| BIOWL1-15 | 2026-09-01 13:20:16 | 51.58186 | 8.66017 | 82° | 51km/h | 4821m | -2m/s | -11.1°C | 91.8% | 565.6hPa | 2.7V | 07:34:54 | 03:02:18 | 00:00:00 | |
| DL1LOL-11 | 2026-09-01 13:20:15 | 51.58198 | 8.66134 | 81° | 47km/h | 4809m | -2.0m/s | -11.2°C | 91.0% | 566.4hPa | 2.7V | 00:00:00 | 00:00:00 | 00:00:00 | |
| DD1CC3-15 | 2026-09-01 13:20:14 | 51.58196 | 8.66115 | 82° | 47km/h | 4811m | -2.0m/s | -11.2°C | 91.0% | 566.3hPa | 2.7V | 07:34:00 | 00:00:00 | 00:00:00 | |
| DM0DOS-11 | 2026-09-01 13:20:13 | 51.58191 | 8.66076 | 79° | 47km/h | 4815m | -2.1m/s | -11.1°C | 93.2% | 565.9hPa | 2.7V | 07:34:27 | 03:02:21 | 00:00:00 | |
| DL1XH-west | 2026-09-01 13:20:12 | 51.58189 | 8.66057 | 81° | 47km/h | 4817m | -2m/s | -11.1°C | 92% | 565.9hPa | 2.6V | 07:34:54 | 03:02:20 | 00:00:00 | |
| DJ2KF-10 | 2026-09-01 13:20:12 | 51.58189 | 8.66057 | 81° | 49km/h | 4817m | -1.9m/s | -11.0°C | 93.2% | 565.8hPa | 2.7V | 00:00:00 | 03:02:20 | 00:00:00 | |
| DO3DL | 2026-09-01 13:20:11 | 51.58189 | 8.66057 | 82° | 47km/h | 4817m | -2.0m/s | -11.1°C | 91.1% | 565.9hPa | 2.7V | 07:34:00 | 00:00:00 | 00:00:00 | |
| DB0DAN | 2026-09-01 13:20:10 | 51.58186 | 8.66017 | 82° | 47km/h | 4821m | -2m/s | -11.1°C | 91% | 565.57hPa | 2.7V | 00:00:00 | 00:00:00 | 00:00:00 | |
| DM0DOS-11 | 2026-09-01 13:20:08 | 51.58182 | 8.65978 | 81° | 47km/h | 4825m | -1.9m/s | -11.1°C | 93.5% | 565.3hPa | 2.7V | 07:34:32 | 03:02:16 | 00:00:00 | |
| DL1XH1-15 | 2026-09-01 13:20:08 | 51.58178 | 8.65939 | 81° | 49km/h | 4829m | -2m/s | -11.1°C | 93.8% | 565hPa | 2.7V | 07:34:34 | 03:02:14 | 00:00:00 | |
| HSKMA3-T | 2026-09-01 13:20:08 | 51.58182 | 8.65978 | 81° | 47km/h | 4825m | -2m/s | -11.1°C | 91.9% | 565.3hPa | 2.7V | 07:34:54 | 03:02:16 | 00:00:00 | |
| DO2JMG | 2026-09-01 13:20:07 | 51.58180 | 8.65958 | 83° | 47km/h | 4827m | -1.9m/s | -11.1°C | 91.9% | 565.1hPa | 2.7V | 07:34:54 | 03:02:15 | 00:00:00 | |
| BIOWL1-15 | 2026-09-01 13:20:03 | 51.58173 | 8.65880 | 82° | 47km/h | 4835m | -2m/s | -11.2°C | 92.4% | 564.5hPa | 2.7V | 07:34:54 | 03:02:11 | 00:00:00 | |
| DL1XH-west | 2026-09-01 13:20:02 | 51.58171 | 8.65861 | 83° | 49km/h | 4837m | -1.9m/s | -11.2°C | 92.5% | 564.4hPa | 2.7V | 07:34:54 | 03:02:10 | 00:00:00 | |
| DL1XH1-15 | 2026-09-01 13:20:01 | 51.58159 | 8.65741 | 81° | 51km/h | 4848m | -1.9m/s | -11.3°C | 95.2% | 563.5hPa | 2.7V | 07:34:44 | 03:02:04 | 00:00:00 | |
| BIOWL7-15 | 2026-09-01 13:20:00 | 51.58169 | 8.65841 | 82° | 51km/h | 4839m | -1.8m/s | -11.2°C | 92.5% | 564.2hPa | 2.7V | 00:00:00 | 00:00:00 | 00:00:00 | |
| DD8BA-10 | 2026-09-01 13:19:59 | 51.58165 | 8.65801 | 80° | 49km/h | 4842m | -1.9m/s | -11.2°C | 95.1% | 563.8hPa | 2.7V | 00:00:00 | 00:00:00 | 00:00:00 | |
| DM0DOS-11 | 2026-09-01 13:19:58 | 51.58154 | 8.65680 | 82° | 49km/h | 4854m | -1.9m/s | -11.3°C | 95.5% | 563.1hPa | 2.7V | 07:34:47 | 03:02:01 | 00:00:00 | |
| HSKMA3-T | 2026-09-01 13:19:58 | 51.58163 | 8.65781 | 82° | 49km/h | 4844m | -1.9m/s | -11.3°C | 93.9% | 563.9hPa | 2.6V | 07:34:54 | 03:02:06 | 00:00:00 | |
| DO2JMG | 2026-09-01 13:19:56 | 51.58159 | 8.65741 | 82° | 51km/h | 4848m | -1.9m/s | -11.3°C | 94.8% | 563.5hPa | 2.7V | 07:34:54 | 03:02:04 | 00:00:00 | |
| DL1XH1-15 | 2026-09-01 13:19:56 | 51.58150 | 8.65640 | 82° | 51km/h | 4858m | -1.9m/s | -11.4°C | 95.7% | 562.8hPa | 2.6V | 07:34:49 | 03:01:59 | 00:00:00 | |
| DB0DAN | 2026-09-01 13:19:55 | 51.58157 | 8.65720 | 81° | 49km/h | 4850m | -2.1m/s | -11.3°C | 93.1% | 563.34hPa | 2.7V | 00:00:00 | 00:00:00 | 00:00:00 | |
| BIOWL1-15 | 2026-09-01 13:19:55 | 51.58153 | 8.65680 | 82° | 49km/h | 4854m | -1.9m/s | -11.3°C | 95.3% | 563.1hPa | 2.7V | 07:34:54 | 03:02:01 | 00:00:00 | |
| DM0DOS-11 | 2026-09-01 13:19:53 | 51.58145 | 8.65578 | 83° | 51km/h | 4863m | -1.9m/s | -11.4°C | 95.7% | 562.4hPa | 2.7V | 07:34:52 | 03:01:56 | 00:00:00 | |
| DL1XH-west | 2026-09-01 13:19:51 | 51.58150 | 8.65640 | 82° | 51km/h | 4858m | -1.9m/s | -11.4°C | 95.3% | 562.8hPa | 2.6V | 07:34:54 | 03:01:59 | 00:00:00 | |
| DB0NH | 2026-09-01 13:19:51 | 51.58150 | 8.65640 | 83° | 51km/h | 4858m | -1.9m/s | -11.3°C | 95.7% | 562.7hPa | 2.7V | 00:00:00 | 03:01:59 | 00:00:00 | |
| DD8BA-10 | 2026-09-01 13:19:49 | 51.58147 | 8.65599 | 83° | 51km/h | 4862m | -1.9m/s | -11.4°C | 95.9% | 562.5hPa | 2.7V | 00:00:00 | 00:00:00 | 00:00:00 | |
| DM0DOS-11 | 2026-09-01 13:19:48 | 51.58135 | 8.65477 | 80° | 51km/h | 4872m | -1.9m/s | -11.4°C | 96.2% | 561.7hPa | 2.7V | 07:34:57 | 03:01:51 | 00:00:00 | |
| HSKMA3-T | 2026-09-01 13:19:47 | 51.58144 | 8.65557 | 82° | 53km/h | 4865m | -1.8m/s | -11.4°C | 94.1% | 562.3hPa | 2.7V | 07:34:54 | 03:01:55 | 00:00:00 | |
| DO2JMG | 2026-09-01 13:19:45 | 51.58139 | 8.65517 | 80° | 49km/h | 4869m | -1.6m/s | -11.4°C | 93.7% | 562hPa | 2.6V | 07:35:45 | 03:01:53 | 00:00:00 | |
| DD1CC2-15 | 2026-09-01 13:19:44 | 51.58139 | 8.65517 | 81° | 49km/h | 4869m | -1.6m/s | -11.4°C | 93.4% | 562.0hPa | 2.6V | 07:35:00 | 00:00:00 | 00:00:00 | |
| DM0DOS-11 | 2026-09-01 13:19:43 | 51.58124 | 8.65377 | 80° | 51km/h | 4881m | -1.8m/s | -11.5°C | 96.5% | 561hPa | 2.6V | 07:35:02 | 03:01:46 | 00:00:00 | |
| BIOWL1-15 | 2026-09-01 13:19:42 | 51.58133 | 8.65456 | 79° | 51km/h | 4874m | -2m/s | -11.5°C | 93.3% | 561.6hPa | 2.7V | 07:35:45 | 03:01:50 | 00:00:00 | |
| DL1XH-west | 2026-09-01 13:19:41 | 51.58130 | 8.65437 | 79° | 49km/h | 4876m | -1.9m/s | -11.5°C | 93.5% | 561.5hPa | 2.7V | 07:35:45 | 03:01:49 | 00:00:00 | |
| DB0DAN | 2026-09-01 13:19:40 | 51.58128 | 8.65417 | 80° | 46km/h | 4878m | -1.9m/s | -11.5°C | 93.9% | 561.36hPa | 2.7V | 00:00:00 | 00:00:00 | 00:00:00 | |
| DD8BA-10 | 2026-09-01 13:19:39 | 51.58126 | 8.65397 | 81° | 51km/h | 4880m | -1.6m/s | -11.5°C | 96.8% | 561.2hPa | 2.6V | 00:00:00 | 00:00:00 | 00:00:00 | |
| DM0DOS-11 | 2026-09-01 13:19:38 | 51.58113 | 8.65276 | 81° | 51km/h | 4890m | -2.1m/s | -11.6°C | 96.7% | 560.5hPa | 2.6V | 07:35:07 | 03:01:41 | 00:00:00 | |
| HSKMA3-T | 2026-09-01 13:19:36 | 51.58119 | 8.65336 | 78° | 51km/h | 4885m | -1.8m/s | -11.6°C | 94.5% | 560.8hPa | 2.7V | 07:35:45 | 03:01:44 | 00:00:00 | |
| DO2JMG | 2026-09-01 13:19:34 | 51.58115 | 8.65296 | 82° | 51km/h | 4889m | -1.8m/s | -11.6°C | 94.9% | 560.5hPa | 2.7V | 07:35:45 | 03:01:42 | 00:00:00 | |
| DM0DOS-11 | 2026-09-01 13:19:33 | 51.58103 | 8.65173 | 79° | 53km/h | 4899m | -1.9m/s | -11.8°C | 97.9% | 559.8hPa | 2.7V | 07:35:12 | 03:01:36 | 00:00:00 | |
| BIOWL1-15 | 2026-09-01 13:19:31 | 51.58109 | 8.65235 | 81° | 51km/h | 4894m | -1.5m/s | -11.7°C | 95.4% | 560.1hPa | 2.7V | 07:35:45 | 03:01:39 | 00:00:00 | |
| DL1XH-west | 2026-09-01 13:19:30 | 51.58107 | 8.65215 | 82° | 51km/h | 4896m | -1.7m/s | -11.7°C | 95.7% | 560hPa | 2.7V | 07:35:45 | 03:01:38 | 00:00:00 | |
| HSKMA3-T | 2026-09-01 13:19:25 | 51.58096 | 8.65112 | 81° | 51km/h | 4904m | -1.7m/s | -11.8°C | 95.6% | 559.4hPa | 2.7V | 07:35:45 | 03:01:33 | 00:00:00 | |
| DO2JMG | 2026-09-01 13:19:24 | 51.58094 | 8.65091 | 79° | 51km/h | 4906m | -1.7m/s | -11.8°C | 95.6% | 559.3hPa | 2.7V | 07:35:45 | 03:01:32 | 00:00:00 | |
| DM0DOS-11 | 2026-09-01 13:19:23 | 51.58091 | 8.65071 | 78° | 51km/h | 4908m | -2.2m/s | -11.8°C | 97.8% | 559.2hPa | 2.7V | 07:35:17 | 03:01:31 | 00:00:00 | |
| DM0DOS-11 | 2026-09-01 13:19:23 | 51.58081 | 8.64969 | 78° | 53km/h | 4917m | -1.9m/s | -11.8°C | 94.8% | 558.4hPa | 2.7V | 07:35:22 | 03:01:26 | 00:00:00 | |
| DJ2DS-15 | 2026-09-01 13:19:23 | 51.58091 | 8.65071 | 79° | 51km/h | 4908m | -2.1m/s | -11.7°C | 97.8% | 559.2hPa | 2.7V | 00:00:00 | 03:01:31 | 00:00:00 | |
| DL1XH1-15 | 2026-09-01 13:19:21 | 51.58087 | 8.65031 | 81° | 49km/h | 4912m | -2.2m/s | -11.8°C | 97.6% | 558.8hPa | 2.7V | 07:35:19 | 03:01:29 | 00:00:00 | |
| DL1XH-west | 2026-09-01 13:19:20 | 51.58085 | 8.65011 | 82° | 51km/h | 4914m | -1.8m/s | -11.8°C | 94.6% | 558.8hPa | 2.6V | 07:35:45 | 03:01:28 | 00:00:00 | |
| DD8BA-10 | 2026-09-01 13:19:19 | 51.58083 | 8.64990 | 81° | 49km/h | 4916m | -1.6m/s | -11.7°C | 95.9% | 558.5hPa | 2.6V | 00:00:00 | 00:00:00 | 00:00:00 | |
| DM0DOS-11 | 2026-09-01 13:19:18 | 51.58069 | 8.64870 | 78° | 49km/h | 4927m | -2.1m/s | -11.9°C | 94.9% | 557.8hPa | 2.6V | 07:35:27 | 03:01:21 | 00:00:00 | |
| BIOWL9-15 | 2026-09-01 13:19:17 | 51.58078 | 8.64948 | 77° | 49km/h | 4919m | -1.8m/s | -11.8°C | 92.2% | 558.3hPa | 2.7V | 00:00:00 | 00:00:00 | 00:00:00 | |
| DL1XH1-15 | 2026-09-01 13:19:16 | 51.58065 | 8.64831 | 80° | 47km/h | 4931m | -2.1m/s | -11.9°C | 95.5% | 557.4hPa | 2.7V | 07:35:29 | 03:01:19 | 00:00:00 | |
| HSKMA3-T | 2026-09-01 13:19:15 | 51.58073 | 8.64909 | 81° | 49km/h | 4923m | -2.2m/s | -11.9°C | 91.1% | 558hPa | 2.7V | 07:35:45 | 03:01:23 | 00:00:00 | |
| DO2JMG | 2026-09-01 13:19:14 | 51.58071 | 8.64889 | 80° | 49km/h | 4925m | -2.2m/s | -11.9°C | 91.6% | 557.9hPa | 2.6V | 07:35:45 | 03:01:22 | 00:00:00 | |
| DL4XJ-10 | 2026-09-01 13:19:14 | 51.58071 | 8.64889 | 81° | 51km/h | 4925m | -2.1m/s | -14.2°C | 0% | 0hPa | 2.7V | 00:00:00 | 00:00:00 | 00:00:00 | |
| DJ2DS-15 | 2026-09-01 13:19:12 | 51.58064 | 8.64831 | 80° | 47km/h | 4931m | -2.1m/s | -11.9°C | 93.3% | 557.4hPa | 2.7V | 00:00:00 | 00:00:00 | 00:00:00 | |
| DL1XH1-15 | 2026-09-01 13:19:11 | 51.58053 | 8.64732 | 79° | 53km/h | 4942m | -2.2m/s | -12°C | 94.2% | 556.8hPa | 2.7V | 07:35:34 | 03:01:14 | 00:00:00 | |
| DB0DAN | 2026-09-01 13:19:10 | 51.58062 | 8.64812 | 81° | 47km/h | 4933m | -2.1m/s | -11.9°C | 94.3% | 557.33hPa | 2.7V | 00:00:00 | 00:00:00 | 00:00:00 | |
| BIOWL1-15 | 2026-09-01 13:19:10 | 51.58062 | 8.64812 | 81° | 49km/h | 4933m | -2.1m/s | -11.9°C | 93.6% | 557.3hPa | 2.7V | 07:35:45 | 03:01:18 | 00:00:00 | |
| DL1XH-west | 2026-09-01 13:19:09 | 51.58060 | 8.64792 | 79° | 49km/h | 4935m | -2.3m/s | -11.9°C | 94% | 557.2hPa | 2.7V | 07:35:45 | 03:01:17 | 00:00:00 | |
| DM0DOS-11 | 2026-09-01 13:19:08 | 51.58058 | 8.64772 | 78° | 49km/h | 4937m | -2.4m/s | -11.9°C | 96.1% | 557hPa | 2.6V | 07:35:32 | 03:01:16 | 00:00:00 | |
| DM0DOS-11 | 2026-09-01 13:19:08 | 51.58045 | 8.64669 | 78° | 51km/h | 4949m | -2.4m/s | -12.1°C | 95.4% | 556.1hPa | 2.7V | 07:35:37 | 03:01:11 | 00:00:00 | |
| DL1XH1-15 | 2026-09-01 13:19:05 | 51.58040 | 8.64608 | 84° | 53km/h | 4955m | -1.6m/s | -12.1°C | 96.5% | 555.8hPa | 2.7V | 07:35:40 | 03:01:08 | 00:00:00 | |
| HSKMA3-T | 2026-09-01 13:19:04 | 51.58048 | 8.64689 | 77° | 53km/h | 4947m | -2.4m/s | -12.1°C | 94.2% | 556.4hPa | 2.7V | 07:35:45 | 03:01:12 | 00:00:00 | |
| DO2JMG | 2026-09-01 13:19:03 | 51.58045 | 8.64669 | 78° | 51km/h | 4949m | -2.4m/s | -12.1°C | 93.5% | 556.1hPa | 2.7V | 07:35:45 | 03:01:11 | 00:00:00 | |
| DM0DOS-11 | 2026-09-01 13:19:03 | 51.58036 | 8.64564 | 81° | 53km/h | 4958m | -1.7m/s | -12.1°C | 96.4% | 555.5hPa | 2.7V | 07:35:42 | 03:01:06 | 00:00:00 | |
| BIOWL1-15 | 2026-09-01 13:19:00 | 51.58040 | 8.64608 | 84° | 53km/h | 4955m | -1.6m/s | -12.1°C | 93% | 555.8hPa | 2.7V | 07:35:45 | 03:01:08 | 00:00:00 | |
| DL1XH-west | 2026-09-01 13:18:59 | 51.58038 | 8.64586 | 83° | 55km/h | 4956m | -1.9m/s | -12.1°C | 92.4% | 555.7hPa | 2.7V | 07:35:45 | 03:01:07 | 00:00:00 | |
| DO9LL-15 | 2026-09-01 13:18:59 | 51.58038 | 8.64586 | 83° | 53km/h | 4956m | -1.9m/s | -12.1°C | 96.1% | 555.6hPa | 2.6V | 00:00:00 | 03:01:07 | 00:00:00 | |
| DO3DL | 2026-09-01 13:18:58 | 51.58038 | 8.64586 | 84° | 55km/h | 4956m | -1.9m/s | -12.1°C | 93.8% | 555.7hPa | 2.6V | 07:35:00 | 00:00:00 | 00:00:00 | |
| DB0DAN | 2026-09-01 13:18:55 | 51.58031 | 8.64500 | 84° | 51km/h | 4963m | -1.4m/s | -12.2°C | 94.1% | 555.1hPa | 2.6V | 00:00:00 | 00:00:00 | 00:00:00 | |
| DL1XH1-15 | 2026-09-01 13:18:55 | 51.58024 | 8.64392 | 83° | 55km/h | 4971m | -1.4m/s | -12.2°C | 95.7% | 554.5hPa | 2.7V | 07:35:50 | 03:00:58 | 00:00:00 | |
| HSKMA3-T | 2026-09-01 13:18:53 | 51.58028 | 8.64457 | 82° | 53km/h | 4966m | -1.4m/s | -12.2°C | 90.3% | 554.9hPa | 2.7V | 07:36:36 | 03:01:01 | 00:00:00 | |
| DL3AQ-11 | 2026-09-01 13:18:51 | 51.58024 | 8.64392 | 83° | 53km/h | 4971m | -1.4m/s | -12.2°C | 93.5% | 554.5hPa | 2.7V | 00:00:00 | 00:00:00 | 00:00:00 | |
| DL1XH1-15 | 2026-09-01 13:18:49 | 51.58015 | 8.64263 | 84° | 53km/h | 4980m | -1.5m/s | -12.1°C | 90.4% | 553.9hPa | 2.7V | 07:35:56 | 03:00:52 | 00:00:00 | |
| BIOWL1-15 | 2026-09-01 13:18:49 | 51.58022 | 8.64370 | 83° | 55km/h | 4973m | -1.7m/s | -12.2°C | 90.3% | 554.5hPa | 2.6V | 07:36:36 | 03:00:57 | 00:00:00 | |
| DL1XH-west | 2026-09-01 13:18:48 | 51.58020 | 8.64349 | 83° | 53km/h | 4974m | -1.4m/s | -12.2°C | 89.3% | 554.3hPa | 2.6V | 07:36:36 | 03:00:56 | 00:00:00 | |
| DB0UT-7 | 2026-09-01 13:18:46 | 51.58018 | 8.64306 | 84° | 53km/h | 4977m | -1.5m/s | -12.1°C | 93.1% | 554.0hPa | 2.7V | 00:00:00 | 03:00:54 | 00:00:00 | |
| DL1XH1-15 | 2026-09-01 13:18:44 | 51.58011 | 8.64153 | 85° | 57km/h | 4988m | -1.6m/s | -11.4°C | 76.3% | 553.3hPa | 2.7V | 07:36:01 | 03:00:47 | 00:00:00 | |
| HSKMA3-T | 2026-09-01 13:18:43 | 51.58014 | 8.64241 | 87° | 51km/h | 4982m | -1.6m/s | -12°C | 84.8% | 553.8hPa | 2.6V | 07:36:36 | 03:00:51 | 00:00:00 | |
| BIOWL1-15 | 2026-09-01 13:18:39 | 51.58011 | 8.64153 | 85° | 57km/h | 4988m | -1.6m/s | -11.5°C | 74.7% | 553.3hPa | 2.7V | 07:36:36 | 03:00:47 | 00:00:00 | |
| DL1XH-west | 2026-09-01 13:18:37 | 51.58009 | 8.64108 | 85° | 53km/h | 4991m | -1.6m/s | -11.2°C | 71.4% | 553.1hPa | 2.6V | 07:36:36 | 03:00:45 | 00:00:00 | |
| DJ2DS-15 | 2026-09-01 13:18:36 | 51.58007 | 8.64065 | 86° | 53km/h | 4994m | -1.9m/s | -11.0°C | 64.4% | 552.9hPa | 2.7V | 00:00:00 | 00:00:00 | 00:00:00 | |
| DM0DOS-11 | 2026-09-01 13:18:33 | 51.58005 | 8.64022 | 84° | 51km/h | 4998m | -1.8m/s | -11.1°C | 66.2% | 552.6hPa | 2.7V | 07:36:07 | 03:00:41 | 00:00:00 | |
| HSKMA3-T | 2026-09-01 13:18:32 | 51.58004 | 8.64001 | 87° | 51km/h | 5000m | -2.1m/s | -11.2°C | 68% | 552.4hPa | 2.7V | 07:36:36 | 03:00:40 | 00:00:00 | |
| BIOWL1-15 | 2026-09-01 13:18:31 | 51.58001 | 8.63936 | 85° | 55km/h | 5006m | -1.7m/s | -11.2°C | 67.6% | 552hPa | 2.7V | 07:36:36 | 03:00:37 | 00:00:00 | |
| BUE01 | 2026-09-01 13:18:30 | 51.58001 | 8.63936 | 84° | 53km/h | 5006m | -1.7m/s | -11.2°C | 65.0% | 552.0hPa | 2.6V | 00:00:00 | 00:00:00 | 00:00:00 | |
| DO9LL-15 | 2026-09-01 13:18:29 | 51.58001 | 8.63936 | 85° | 53km/h | 5006m | -1.6m/s | -11.1°C | 66.6% | 552.0hPa | 2.6V | 00:00:00 | 03:00:37 | 00:00:00 | |
| DL1XH1-15 | 2026-09-01 13:18:28 | 51.57995 | 8.63829 | 83° | 53km/h | 5016m | -2.2m/s | -11.1°C | 63.3% | 551.3hPa | 2.6V | 07:36:16 | 03:00:32 | 00:00:00 | |
| DM0DOS-11 | 2026-09-01 13:18:28 | 51.57998 | 8.63872 | 85° | 53km/h | 5012m | -2.1m/s | -11.2°C | 66.5% | 551.7hPa | 2.7V | 07:36:14 | 03:00:34 | 00:00:00 | |
| DL1XH-west | 2026-09-01 13:18:27 | 51.57999 | 8.63893 | 84° | 53km/h | 5010m | -2m/s | -11.2°C | 67.8% | 551.8hPa | 2.7V | 07:36:36 | 03:00:35 | 00:00:00 | |
| HSKMA3-T | 2026-09-01 13:18:22 | 51.57992 | 8.63788 | 86° | 51km/h | 5021m | -2.3m/s | -11°C | 63.9% | 550.9hPa | 2.7V | 07:36:36 | 03:00:30 | 00:00:00 | |
| DJ2KF-10 | 2026-09-01 13:18:21 | 51.57991 | 8.63766 | 86° | 51km/h | 5023m | -2.1m/s | -11.0°C | 61.4% | 550.7hPa | 2.7V | 00:00:00 | 03:00:29 | 00:00:00 | |
| DD8BA-10 | 2026-09-01 13:18:19 | 51.57988 | 8.63723 | 83° | 53km/h | 5027m | -2.1m/s | -11.0°C | 60.7% | 550.4hPa | 2.7V | 00:00:00 | 00:00:00 | 00:00:00 | |
| DL1XH1-15 | 2026-09-01 13:18:18 | 51.57981 | 8.63616 | 84° | 51km/h | 5039m | -2.6m/s | -11.2°C | 61% | 549.6hPa | 2.7V | 07:36:26 | 03:00:22 | 00:00:00 | |
| DM0DOS-11 | 2026-09-01 13:18:18 | 51.57984 | 8.63659 | 85° | 53km/h | 5034m | -2.5m/s | -11.1°C | 60.7% | 550hPa | 2.7V | 07:36:24 | 03:00:24 | 00:00:00 | |
| BIOWL1-15 | 2026-09-01 13:18:18 | 51.57987 | 8.63701 | 83° | 53km/h | 5030m | -2.2m/s | -11.1°C | 63.8% | 550.3hPa | 2.6V | 07:36:36 | 03:00:26 | 00:00:00 | |
| DL1XH-west | 2026-09-01 13:18:16 | 51.57984 | 8.63659 | 86° | 53km/h | 5034m | -2.5m/s | -11.1°C | 64% | 550hPa | 2.7V | 07:36:36 | 03:00:24 | 00:00:00 | |
| DO2JMG | 2026-09-01 13:18:12 | 51.57979 | 8.63574 | 86° | 53km/h | 5044m | -2.6m/s | -11.2°C | 63.5% | 549.3hPa | 2.6V | 07:36:36 | 03:00:20 | 00:00:00 | |
| HSKMA3-T | 2026-09-01 13:18:11 | 51.57978 | 8.63553 | 85° | 53km/h | 5047m | -2.5m/s | -11.2°C | 63.4% | 549.1hPa | 2.7V | 07:36:36 | 03:00:19 | 00:00:00 | |
| DB0DAN | 2026-09-01 13:18:10 | 51.57977 | 8.63532 | 83° | 49km/h | 5049m | -2.4m/s | -11.3°C | 59.5% | 548.98hPa | 2.7V | 00:00:00 | 00:00:00 | 00:00:00 | |
| DL4BBY-15 | 2026-09-01 13:18:10 | 51.57977 | 8.63532 | 84° | 51km/h | 5049m | -2.3m/s | -13.5°C | 0% | 0hPa | 2.7V | 00:00:00 | 00:00:00 | 00:00:00 | |
| DD8BA-10 | 2026-09-01 13:18:09 | 51.57975 | 8.63511 | 84° | 51km/h | 5052m | -2.3m/s | -11.2°C | 62.0% | 548.7hPa | 2.7V | 07:36:00 | 00:00:00 | 00:00:00 | |
| DL1XH1-15 | 2026-09-01 13:18:08 | 51.57968 | 8.63407 | 84° | 51km/h | 5065m | -2.7m/s | -11.4°C | 63.8% | 547.9hPa | 2.7V | 07:36:36 | 03:00:12 | 00:00:00 | |
| BIOWL1-15 | 2026-09-01 13:18:07 | 51.57973 | 8.63470 | 83° | 53km/h | 5057m | -2.6m/s | -11.3°C | 64.7% | 548.4hPa | 2.6V | 07:36:36 | 03:00:15 | 00:00:00 | |
| DL1XH-west | 2026-09-01 13:18:06 | 51.57971 | 8.63448 | 82° | 53km/h | 5059m | -2.6m/s | -11.4°C | 65% | 548.2hPa | 2.6V | 07:36:36 | 03:00:14 | 00:00:00 | |
| HSKMA3-T | 2026-09-01 13:18:01 | 51.57964 | 8.63345 | 84° | 49km/h | 5072m | -2.8m/s | -11.4°C | 66.7% | 547.3hPa | 2.6V | 07:37:27 | 03:00:09 | 00:00:00 | |
| DJ2DS-15 | 2026-09-01 13:18:00 | 51.57961 | 8.63303 | 84° | 53km/h | 5078m | -2.6m/s | -11.5°C | 65.2% | 546.9hPa | 2.7V | 00:00:00 | 00:00:00 | 00:00:00 | |
| DL1ZP-14 | 2026-09-01 13:17:59 | 51.57960 | 8.63281 | 82° | 53km/h | 5080m | -2.7m/s | -11.6°C | 65.3% | 546.7hPa | 2.7V | 00:00:00 | 00:00:00 | 00:00:00 | |
| DL1XH1-15 | 2026-09-01 13:17:58 | 51.57952 | 8.63197 | 80° | 53km/h | 5091m | -2.7m/s | -11.6°C | 70.5% | 545.9hPa | 2.6V | 07:36:46 | 03:00:02 | 00:00:00 | |
| BIOWL1-15 | 2026-09-01 13:17:57 | 51.57958 | 8.63260 | 81° | 53km/h | 5083m | -2.6m/s | -11.6°C | 68.4% | 546.5hPa | 2.7V | 07:37:27 | 03:00:05 | 00:00:00 | |
| DB0DAN | 2026-09-01 13:17:55 | 51.57954 | 8.63218 | 82° | 49km/h | 5089m | -2.8m/s | -11.6°C | 66.4% | 546.09hPa | 2.6V | 00:00:00 | 00:00:00 | 00:00:00 | |
| DL1XH-west | 2026-09-01 13:17:55 | 51.57954 | 8.63218 | 82° | 53km/h | 5088m | -2.8m/s | -11.6°C | 69.5% | 546.1hPa | 2.6V | 07:37:27 | 03:00:03 | 00:00:00 | |
| DO2JMG | 2026-09-01 13:17:51 | 51.57946 | 8.63136 | 82° | 49km/h | 5099m | -2.7m/s | -11.7°C | 72.9% | 545.4hPa | 2.7V | 07:37:27 | 02:59:59 | 00:00:00 | |
| HSKMA3-T | 2026-09-01 13:17:50 | 51.57944 | 8.63116 | 82° | 51km/h | 5102m | -2.7m/s | -11.7°C | 73.2% | 545.1hPa | 2.7V | 07:37:27 | 02:59:58 | 00:00:00 | |
| DD8BA-10 | 2026-09-01 13:17:49 | 51.57942 | 8.63095 | 81° | 49km/h | 5105m | -2.5m/s | -11.7°C | 72.3% | 544.9hPa | 2.7V | 00:00:00 | 00:00:00 | 00:00:00 | |
| DM0DOS-11 | 2026-09-01 13:17:48 | 51.57935 | 8.63035 | 80° | 49km/h | 5113m | -3.1m/s | -11.8°C | 72.2% | 544.4hPa | 2.7V | 07:36:54 | 02:59:54 | 00:00:00 | |
| DL1XH1-15 | 2026-09-01 13:17:48 | 51.57931 | 8.62995 | 78° | 51km/h | 5119m | -2.9m/s | -11.8°C | 71.1% | 544hPa | 2.7V | 07:36:56 | 02:59:52 | 00:00:00 | |
| BIOWL1-15 | 2026-09-01 13:17:47 | 51.57938 | 8.63055 | 79° | 49km/h | 5110m | -2.7m/s | -11.8°C | 73.7% | 544.6hPa | 2.7V | 07:37:27 | 02:59:55 | 00:00:00 | |
| DL1XH-west | 2026-09-01 13:17:45 | 51.57933 | 8.63015 | 81° | 51km/h | 5116m | -2.8m/s | -11.8°C | 72.6% | 544.2hPa | 2.7V | 07:37:27 | 02:59:53 | 00:00:00 | |
| BIOWL9-15 | 2026-09-01 13:17:44 | 51.57931 | 8.62995 | 78° | 51km/h | 5119m | -2.9m/s | -11.8°C | 69.4% | 544.0hPa | 2.7V | 00:00:00 | 00:00:00 | 00:00:00 | |
| DJ2DS-15 | 2026-09-01 13:17:43 | 51.57928 | 8.62975 | 78° | 49km/h | 5122m | -2.9m/s | -11.8°C | 70.9% | 543.8hPa | 2.7V | 00:00:00 | 02:59:51 | 00:00:00 | |
| DL3OBA | 2026-09-01 13:17:42 | 51.57928 | 8.62975 | 79° | 51km/h | 5122m | -3.0m/s | -11.8°C | 69.2% | 543.8hPa | 2.7V | 07:37:00 | 00:00:00 | 00:00:00 | |
| DB0DAN | 2026-09-01 13:17:40 | 51.57921 | 8.62916 | 78° | 47km/h | 5130m | -2.9m/s | -11.8°C | 66.8% | 543.15hPa | 2.7V | 00:00:00 | 00:00:00 | 00:00:00 | |
| DL4BBY-15 | 2026-09-01 13:17:40 | 51.57921 | 8.62916 | 79° | 49km/h | 5132m | -2.8m/s | -14.1°C | 0% | 0hPa | 2.7V | 00:00:00 | 00:00:00 | 00:00:00 | |
| HSKMA3-T | 2026-09-01 13:17:40 | 51.57921 | 8.62916 | 78° | 49km/h | 5130m | -2.9m/s | -11.8°C | 70.3% | 543.1hPa | 2.7V | 07:37:27 | 02:59:48 | 00:00:00 | |
| DD8BA-10 | 2026-09-01 13:17:39 | 51.57918 | 8.62896 | 77° | 49km/h | 5133m | -3.1m/s | -11.8°C | 67.8% | 542.9hPa | 2.7V | 00:00:00 | 00:00:00 | 00:00:00 | |
| DM0DOS-11 | 2026-09-01 13:17:38 | 51.57910 | 8.62838 | 77° | 51km/h | 5143m | -3.1m/s | -11.9°C | 66.6% | 542.3hPa | 2.6V | 07:37:04 | 02:59:44 | 00:00:00 | |
| BIOWL1-15 | 2026-09-01 13:17:36 | 51.57910 | 8.62837 | 78° | 51km/h | 5143m | -3.1m/s | -11.9°C | 68.4% | 542.3hPa | 2.6V | 07:37:27 | 02:59:44 | 00:00:00 | |
| DL1XH-west | 2026-09-01 13:17:35 | 51.57907 | 8.62817 | 76° | 51km/h | 5146m | -3.2m/s | -12°C | 68.7% | 542hPa | 2.7V | 07:37:27 | 02:59:43 | 00:00:00 | |
| HSKMA3-T | 2026-09-01 13:17:29 | 51.57889 | 8.62700 | 76° | 49km/h | 5164m | -3.4m/s | -12°C | 67.4% | 540.8hPa | 2.7V | 07:37:27 | 02:59:37 | 00:00:00 | |
| DO9LL-15 | 2026-09-01 13:17:29 | 51.57889 | 8.62700 | 77° | 49km/h | 5164m | -3.3m/s | -11.9°C | 65.6% | 540.8hPa | 2.6V | 07:37:00 | 02:59:37 | 00:00:00 | |
| DL1XH1-15 | 2026-09-01 13:17:28 | 51.57874 | 8.62602 | 76° | 49km/h | 5180m | -3.1m/s | -12°C | 65.7% | 539.6hPa | 2.6V | 07:37:16 | 02:59:32 | 00:00:00 | |
| DM0DOS-11 | 2026-09-01 13:17:28 | 51.57879 | 8.62641 | 74° | 49km/h | 5174m | -3.3m/s | -12°C | 65.7% | 540.1hPa | 2.7V | 07:37:14 | 02:59:34 | 00:00:00 | |
| BIOWL1-15 | 2026-09-01 13:17:26 | 51.57879 | 8.62641 | 75° | 49km/h | 5174m | -3.3m/s | -12°C | 67% | 540.1hPa | 2.7V | 07:37:27 | 02:59:34 | 00:00:00 | |
| DB0DAN | 2026-09-01 13:17:25 | 51.57876 | 8.62622 | 76° | 46km/h | 5177m | -3m/s | -12°C | 64.2% | 539.82hPa | 2.6V | 00:00:00 | 00:00:00 | 00:00:00 | |
| DL1XH-west | 2026-09-01 13:17:24 | 51.57873 | 8.62602 | 77° | 49km/h | 5180m | -3.1m/s | -12°C | 67.2% | 539.6hPa | 2.6V | 07:37:27 | 02:59:32 | 00:00:00 | |
| DJ2DS-15 | 2026-09-01 13:17:24 | 51.57870 | 8.62583 | 74° | 49km/h | 5183m | -3.2m/s | -12.0°C | 64.2% | 539.5hPa | 2.7V | 00:00:00 | 00:00:00 | 00:00:00 | |
| DJ2DS-15 | 2026-09-01 13:17:23 | 51.57870 | 8.62583 | 75° | 47km/h | 5183m | -3.2m/s | -12.0°C | 65.9% | 539.4hPa | 2.7V | 00:00:00 | 02:59:31 | 00:00:00 | |
| DL3OBA | 2026-09-01 13:17:21 | 51.57867 | 8.62564 | 75° | 47km/h | 5186m | -3.1m/s | -12.0°C | 64.3% | 539.2hPa | 2.7V | 07:37:00 | 00:00:00 | 00:00:00 | |
| DB0NH | 2026-09-01 13:17:19 | 51.57858 | 8.62507 | 75° | 47km/h | 5195m | -3.1m/s | -12.1°C | 66.2% | 538.5hPa | 2.7V | 00:00:00 | 02:59:27 | 00:00:00 | |
| DM0DOS-11 | 2026-09-01 13:17:18 | 51.57848 | 8.62451 | 76° | 47km/h | 5204m | -3.1m/s | -12.2°C | 66% | 537.9hPa | 2.7V | 07:37:24 | 02:59:24 | 00:00:00 | |
| DL1XH1-15 | 2026-09-01 13:17:18 | 51.57843 | 8.62412 | 74° | 49km/h | 5211m | -3.1m/s | -12.2°C | 66.3% | 537.5hPa | 2.6V | 07:37:26 | 02:59:22 | 00:00:00 | |
| HSKMA3-T | 2026-09-01 13:17:18 | 51.57855 | 8.62489 | 74° | 47km/h | 5198m | -3.1m/s | -12.2°C | 68.2% | 538.3hPa | 2.7V | 07:37:27 | 02:59:26 | 00:00:00 | |
| BIOWL1-15 | 2026-09-01 13:17:15 | 51.57846 | 8.62432 | 76° | 49km/h | 5208m | -3.1m/s | -12.2°C | 67.9% | 537.7hPa | 2.7V | 07:37:27 | 02:59:23 | 00:00:00 | |
| DO2JMG | 2026-09-01 13:17:14 | 51.57842 | 8.62412 | 75° | 49km/h | 5211m | -3.1m/s | -12.2°C | 68% | 537.5hPa | 2.6V | 07:37:27 | 02:59:22 | 00:00:00 | |
| DL1XH-west | 2026-09-01 13:17:13 | 51.57839 | 8.62393 | 75° | 49km/h | 5214m | -3.2m/s | -12.2°C | 68.2% | 537.3hPa | 2.6V | 07:37:27 | 02:59:21 | 00:00:00 | |
| DM0DOS-11 | 2026-09-01 13:17:11 | 51.57817 | 8.62260 | 74° | 49km/h | 5236m | -3m/s | -12.2°C | 64.3% | 535.7hPa | 2.7V | 07:37:34 | 02:59:14 | 00:00:00 | |
| DB0DAN | 2026-09-01 13:17:10 | 51.57830 | 8.62335 | 74° | 47km/h | 5223m | -3.2m/s | -12.3°C | 65.1% | 536.52hPa | 2.7V | 00:00:00 | 00:00:00 | 00:00:00 | |
| DL4BBY-15 | 2026-09-01 13:17:10 | 51.57830 | 8.62335 | 74° | 47km/h | 5224m | -3.2m/s | -14.6°C | 0% | 0hPa | 2.7V | 00:00:00 | 00:00:00 | 00:00:00 | |
| DD1CC3-15 | 2026-09-01 13:17:09 | 51.57830 | 8.62335 | 75° | 49km/h | 5223m | -3.2m/s | -12.3°C | 65.1% | 536.5hPa | 2.7V | 07:38:00 | 00:00:00 | 00:00:00 | |
| DL1XH1-15 | 2026-09-01 13:17:08 | 51.57811 | 8.62223 | 74° | 47km/h | 5242m | -3.4m/s | -12.2°C | 62.5% | 535.2hPa | 2.7V | 07:37:36 | 02:59:12 | 00:00:00 | |
| HSKMA3-T | 2026-09-01 13:17:07 | 51.57820 | 8.62279 | 76° | 47km/h | 5233m | -3.2m/s | -12.2°C | 67.5% | 536hPa | 2.6V | 07:38:18 | 02:59:15 | 00:00:00 | |
| BIOWL1-15 | 2026-09-01 13:17:04 | 51.57810 | 8.62223 | 74° | 47km/h | 5242m | -3.4m/s | -12.2°C | 65.1% | 535.3hPa | 2.7V | 07:38:18 | 02:59:12 | 00:00:00 | |
| DL1XH-west | 2026-09-01 13:17:03 | 51.57807 | 8.62205 | 75° | 47km/h | 5245m | -3.3m/s | -12.2°C | 64.8% | 535hPa | 2.7V | 07:38:18 | 02:59:11 | 00:00:00 | |
| DJ2DS-15 | 2026-09-01 13:17:03 | 51.57807 | 8.62205 | 76° | 47km/h | 5245m | -3.2m/s | -12.2°C | 62.1% | 534.9hPa | 2.6V | 00:00:00 | 02:59:11 | 00:00:00 | |
| DL3OBA | 2026-09-01 13:17:01 | 51.57804 | 8.62186 | 75° | 49km/h | 5249m | -3.3m/s | -12.2°C | 60.3% | 534.8hPa | 2.6V | 07:38:00 | 00:00:00 | 00:00:00 | |
| BIOWL7-15 | 2026-09-01 13:17:00 | 51.57801 | 8.62167 | 74° | 47km/h | 5252m | -3.6m/s | -12.3°C | 60.6% | 534.5hPa | 2.6V | 00:00:00 | 00:00:00 | 00:00:00 | |
| DO9LL-15 | 2026-09-01 13:16:59 | 51.57794 | 8.62130 | 75° | 47km/h | 5259m | -3.2m/s | -12.3°C | 62.6% | 534.1hPa | 2.6V | 00:00:00 | 02:59:07 | 00:00:00 | |
| DM0DOS-11 | 2026-09-01 13:16:58 | 51.57784 | 8.62075 | 74° | 46km/h | 5268m | -3.2m/s | -12.4°C | 62.4% | 533.4hPa | 2.6V | 07:37:44 | 02:59:04 | 00:00:00 | |
| DL1XH1-15 | 2026-09-01 13:16:58 | 51.57777 | 8.62037 | 73° | 49km/h | 5275m | -3.5m/s | -12.4°C | 62% | 532.9hPa | 2.7V | 07:37:46 | 02:59:02 | 00:00:00 | |
| HSKMA3-T | 2026-09-01 13:16:57 | 51.57787 | 8.62093 | 73° | 47km/h | 5265m | -3.3m/s | -12.4°C | 65.1% | 533.6hPa | 2.6V | 07:38:18 | 02:59:05 | 00:00:00 | |
| DL1ZP-14 | 2026-09-01 13:16:57 | 51.57784 | 8.62075 | 74° | 46km/h | 5268m | -3.2m/s | -12.4°C | 60.8% | 533.4hPa | 2.6V | 00:00:00 | 00:00:00 | 00:00:00 | |
| SONCRA | 2026-09-01 13:16:56 | 51.57784 | 8.62075 | 74° | 46km/h | 5268m | -3.2m/s | -12.4°C | 60.8% | 533.4hPa | 2.7V | 00:00:00 | 00:00:00 | 00:00:00 | |
| DB0DAN | 2026-09-01 13:16:55 | 51.57781 | 8.62056 | 75° | 46km/h | 5272m | -3.5m/s | -12.4°C | 60.5% | 533.12hPa | 2.7V | 00:00:00 | 00:00:00 | 00:00:00 | |
| BIOWL1-15 | 2026-09-01 13:16:53 | 51.57774 | 8.62019 | 74° | 47km/h | 5279m | -3.4m/s | -12.5°C | 64.7% | 532.7hPa | 2.7V | 07:38:18 | 02:59:01 | 00:00:00 | |
| DO2JMG | 2026-09-01 13:16:52 | 51.57771 | 8.62000 | 75° | 47km/h | 5282m | -3.4m/s | -12.5°C | 64.6% | 532.5hPa | 2.7V | 07:38:18 | 02:59:00 | 00:00:00 | |
| DL3AQ-11 | 2026-09-01 13:16:50 | 51.57764 | 8.61962 | 73° | 47km/h | 5289m | -3.3m/s | -12.6°C | 60.8% | 532.0hPa | 2.6V | 00:00:00 | 00:00:00 | 00:00:00 | |
| DB0NH | 2026-09-01 13:16:49 | 51.57761 | 8.61944 | 73° | 47km/h | 5292m | -3.2m/s | -12.6°C | 62.6% | 531.8hPa | 2.6V | 00:00:00 | 02:58:57 | 00:00:00 | |
| DL1XH1-15 | 2026-09-01 13:16:48 | 51.57744 | 8.61852 | 74° | 46km/h | 5307m | -3.5m/s | -12.7°C | 63.1% | 530.7hPa | 2.6V | 07:37:56 | 02:58:52 | 00:00:00 | |
| HSKMA3-T | 2026-09-01 13:16:47 | 51.57754 | 8.61907 | 75° | 47km/h | 5298m | -3m/s | -12.7°C | 65.1% | 531.3hPa | 2.7V | 07:38:18 | 02:58:55 | 00:00:00 | |
| BIOWL1-15 | 2026-09-01 13:16:42 | 51.57738 | 8.61814 | 75° | 49km/h | 5314m | -3.3m/s | -12.7°C | 65.1% | 530.2hPa | 2.7V | 07:38:18 | 02:58:50 | 00:00:00 | |
| DL1XH-west | 2026-09-01 13:16:41 | 51.57735 | 8.61795 | 73° | 49km/h | 5317m | -3.2m/s | -12.8°C | 65.1% | 530hPa | 2.7V | 07:38:18 | 02:58:49 | 00:00:00 | |
| DB0DAN | 2026-09-01 13:16:40 | 51.57731 | 8.61776 | 74° | 46km/h | 5320m | -3.2m/s | -12.8°C | 61.2% | 529.77hPa | 2.6V | 00:00:00 | 00:00:00 | 00:00:00 | |
| DD1CC1-15 | 2026-09-01 13:16:39 | 51.57731 | 8.61776 | 75° | 47km/h | 5321m | -3.2m/s | -12.8°C | 61.2% | 529.8hPa | 2.6V | 00:00:00 | 00:00:00 | 00:00:00 | |
| DL1XH1-15 | 2026-09-01 13:16:38 | 51.57711 | 8.61664 | 72° | 49km/h | 5340m | -3m/s | -12.9°C | 62.6% | 528.5hPa | 2.6V | 07:38:06 | 02:58:42 | 00:00:00 | |
| HSKMA3-T | 2026-09-01 13:16:36 | 51.57718 | 8.61701 | 73° | 47km/h | 5333m | -3.2m/s | -12.9°C | 64.1% | 528.9hPa | 2.6V | 07:38:18 | 02:58:44 | 00:00:00 | |
| DD1CC8 | 2026-09-01 13:16:36 | 51.57715 | 8.61683 | 73° | 47km/h | 5336m | -3.3m/s | -12.9°C | 60.3% | 528.7hPa | 2.7V | 00:00:00 | 00:00:00 | 00:00:00 | |
| DC6BW-12 | 2026-09-01 13:16:35 | 51.57714 | 8.61683 | 75° | 47km/h | 5337m | -3.3m/s | -12.9°C | 60.2% | 528.7hPa | 2.7V | 07:38:00 | 00:00:00 | 00:00:00 | |
| DL1XH1-15 | 2026-09-01 13:16:33 | 51.57681 | 8.61475 | 75° | 49km/h | 5373m | -3.8m/s | -13.2°C | 62.7% | 526.1hPa | 2.7V | 07:38:16 | 02:58:32 | 00:00:00 | |
| BIOWL1-15 | 2026-09-01 13:16:33 | 51.57700 | 8.61609 | 75° | 46km/h | 5350m | -3.1m/s | -13°C | 64.8% | 527.8hPa | 2.7V | 07:38:18 | 02:58:39 | 00:00:00 | |
| DO2JMG | 2026-09-01 13:16:32 | 51.57704 | 8.61627 | 72° | 46km/h | 5346m | -3.3m/s | -13°C | 65.1% | 527.9hPa | 2.7V | 07:38:18 | 02:58:40 | 00:00:00 | |
| DL1XH-west | 2026-09-01 13:16:30 | 51.57697 | 8.61591 | 77° | 47km/h | 5353m | -3.3m/s | -13°C | 64.8% | 527.6hPa | 2.7V | 07:38:18 | 02:58:38 | 00:00:00 | |
| DD1CC3-15 | 2026-09-01 13:16:30 | 51.57697 | 8.61591 | 78° | 47km/h | 5353m | -3.3m/s | -13.0°C | 60.3% | 527.6hPa | 2.6V | 07:38:00 | 00:00:00 | 00:00:00 | |
| DO9LL-15 | 2026-09-01 13:16:29 | 51.57695 | 8.61572 | 78° | 51km/h | 5356m | -3.3m/s | -13.0°C | 62.1% | 527.2hPa | 2.6V | 00:00:00 | 02:58:37 | 00:00:00 | |
| DD8BA-10 | 2026-09-01 13:16:28 | 51.57692 | 8.61553 | 77° | 49km/h | 5359m | -3.5m/s | -13.0°C | 61.9% | 527.1hPa | 2.7V | 00:00:00 | 00:00:00 | 00:00:00 | |
| DB0DAN | 2026-09-01 13:16:25 | 51.57684 | 8.61495 | 78° | 47km/h | 5369m | -3.3m/s | -13.2°C | 60.6% | 526.31hPa | 2.7V | 00:00:00 | 00:00:00 | 00:00:00 | |
| HSKMA3-T | 2026-09-01 13:16:25 | 51.57684 | 8.61495 | 78° | 49km/h | 5369m | -3.3m/s | -13.2°C | 64.9% | 526.3hPa | 2.7V | 07:38:18 | 02:58:33 | 00:00:00 | |
| BIOWL1-15 | 2026-09-01 13:16:21 | 51.57672 | 8.61417 | 76° | 51km/h | 5384m | -3.5m/s | -13.3°C | 64.2% | 525.5hPa | 2.7V | 07:39:09 | 02:58:29 | 00:00:00 | |
| DL1XH-west | 2026-09-01 13:16:20 | 51.57669 | 8.61397 | 74° | 49km/h | 5387m | -3.5m/s | -13.3°C | 64.4% | 525.1hPa | 2.7V | 07:39:09 | 02:58:28 | 00:00:00 | |
| HSKMA3-T | 2026-09-01 13:16:15 | 51.57653 | 8.61300 | 75° | 51km/h | 5405m | -3.5m/s | -13.5°C | 65.2% | 523.9hPa | 2.6V | 07:39:09 | 02:58:23 | 00:00:00 | |
| DK9SH | 2026-09-01 13:16:14 | 51.57653 | 8.61299 | 76° | 51km/h | 5405m | -3.5m/s | -13.5°C | 61.6% | 523.9hPa | 2.5V | 07:39:00 | 00:00:00 | 00:00:00 | |
| DJ2DS-15 | 2026-09-01 13:16:12 | 51.57641 | 8.61218 | 76° | 51km/h | 5419m | -3.8m/s | -13.7°C | 62.5% | 522.9hPa | 2.5V | 00:00:00 | 00:00:00 | 00:00:00 | |
| DM0DOS-11 | 2026-09-01 13:16:11 | 51.57628 | 8.61113 | 78° | 53km/h | 5437m | -3.8m/s | -13.8°C | 64.6% | 521.8hPa | 2.5V | 07:38:34 | 02:58:14 | 00:00:00 | |
| BIOWL1-15 | 2026-09-01 13:16:11 | 51.57641 | 8.61218 | 76° | 53km/h | 5419m | -3.8m/s | -13.7°C | 66.1% | 522.9hPa | 2.6V | 07:39:09 | 02:58:19 | 00:00:00 | |
| DB0DAN | 2026-09-01 13:16:10 | 51.57638 | 8.61197 | 78° | 49km/h | 5423m | -3.7m/s | -13.7°C | 62.4% | 522.68hPa | 2.7V | 00:00:00 | 00:00:00 | 00:00:00 | |
| DO2JMG | 2026-09-01 13:16:10 | 51.57638 | 8.61197 | 78° | 51km/h | 5423m | -3.7m/s | -13.7°C | 65.9% | 522.7hPa | 2.7V | 07:39:09 | 02:58:18 | 00:00:00 | |
| DL1XH-west | 2026-09-01 13:16:09 | 51.57635 | 8.61176 | 80° | 53km/h | 5426m | -3.5m/s | -13.7°C | 65.8% | 522.5hPa | 2.7V | 07:39:09 | 02:58:17 | 00:00:00 | |
| HSKMA3-T | 2026-09-01 13:16:05 | 51.57625 | 8.61092 | 80° | 53km/h | 5441m | -3.7m/s | -13.9°C | 66.7% | 521.5hPa | 2.6V | 07:39:09 | 02:58:13 | 00:00:00 | |
| DL4XJ-10 | 2026-09-01 13:16:04 | 51.57623 | 8.61071 | 82° | 53km/h | 5445m | -3.8m/s | -16.2°C | 0% | 0hPa | 2.6V | 00:00:00 | 00:00:00 | 00:00:00 | |
| DM0DOS-11 | 2026-09-01 13:16:01 | 51.57607 | 8.60903 | 82° | 53km/h | 5474m | -4m/s | -14.1°C | 64.8% | 519.2hPa | 2.6V | 07:38:44 | 02:58:04 | 00:00:00 | |
| BIOWL1-15 | 2026-09-01 13:16:00 | 51.57614 | 8.60987 | 81° | 51km/h | 5459m | -3.5m/s | -14°C | 67.3% | 520.2hPa | 2.6V | 07:39:09 | 02:58:08 | 00:00:00 | |
| DL1XH-west | 2026-09-01 13:15:58 | 51.57610 | 8.60945 | 81° | 53km/h | 5466m | -4m/s | -14.1°C | 66.9% | 519.7hPa | 2.6V | 07:39:09 | 02:58:06 | 00:00:00 | |
| DD8BA-10 | 2026-09-01 13:15:58 | 51.57610 | 8.60945 | 82° | 55km/h | 5467m | -3.9m/s | -14.1°C | 64.9% | 519.6hPa | 2.5V | 00:00:00 | 00:00:00 | 00:00:00 | |
| DD1CC1-15 | 2026-09-01 13:15:57 | 51.57610 | 8.60945 | 82° | 53km/h | 5467m | -4.0m/s | -14.1°C | 63.0% | 519.7hPa | 2.5V | 00:00:00 | 00:00:00 | 00:00:00 | |
| DL3OBA | 2026-09-01 13:15:56 | 51.57608 | 8.60924 | 82° | 53km/h | 5471m | -4.0m/s | -14.1°C | 62.8% | 519.5hPa | 2.5V | 07:39:00 | 00:00:00 | 00:00:00 | |
| DB0DAN | 2026-09-01 13:15:55 | 51.57605 | 8.60881 | 82° | 51km/h | 5478m | -3.8m/s | -14.2°C | 63.2% | 518.93hPa | 2.5V | 00:00:00 | 00:00:00 | 00:00:00 | |
| HSKMA3-T | 2026-09-01 13:15:54 | 51.57603 | 8.60859 | 81° | 55km/h | 5482m | -3.9m/s | -14.2°C | 66.8% | 518.7hPa | 2.6V | 07:39:09 | 02:58:02 | 00:00:00 | |
| DM0DOS-11 | 2026-09-01 13:15:51 | 51.57587 | 8.60683 | 82° | 55km/h | 5511m | -3.7m/s | -14.4°C | 64.1% | 516.7hPa | 2.6V | 07:38:54 | 02:57:54 | 00:00:00 | |
| DO2JMG | 2026-09-01 13:15:49 | 51.57593 | 8.60749 | 81° | 55km/h | 5500m | -3.8m/s | -14.4°C | 66% | 517.4hPa | 2.6V | 07:39:09 | 02:57:57 | 00:00:00 | |
| DL1XH-west | 2026-09-01 13:15:48 | 51.57591 | 8.60727 | 82° | 55km/h | 5504m | -3.6m/s | -14.3°C | 64.9% | 517.2hPa | 2.7V | 07:39:09 | 02:57:56 | 00:00:00 | |
| HSKMA3-T | 2026-09-01 13:15:43 | 51.57582 | 8.60617 | 83° | 53km/h | 5522m | -3.7m/s | -14.4°C | 63.4% | 515.8hPa | 2.6V | 07:39:09 | 02:57:51 | 00:00:00 | |
| DL4XJ-10 | 2026-09-01 13:15:43 | 51.57582 | 8.60617 | 84° | 57km/h | 5522m | -3.6m/s | -16.7°C | 0% | 0hPa | 2.6V | 00:00:00 | 00:00:00 | 00:00:00 | |
| DD1CC9-15 | 2026-09-01 13:15:42 | 51.57582 | 8.60617 | 84° | 53km/h | 5522m | -3.7m/s | -14.4°C | 60.6% | 515.8hPa | 2.6V | 00:00:00 | 00:00:00 | 00:00:00 | |
| DB0DAN | 2026-09-01 13:15:40 | 51.57576 | 8.60550 | 82° | 53km/h | 5533m | -4m/s | -14.4°C | 58.3% | 515.12hPa | 2.6V | 00:00:00 | 00:00:00 | 00:00:00 | |
| DM0DOS-11 | 2026-09-01 13:15:40 | 51.57570 | 8.60461 | 82° | 55km/h | 5549m | -4m/s | -14.5°C | 59.4% | 514hPa | 2.6V | 07:39:04 | 02:57:44 | 00:00:00 | |
| DO2JMG | 2026-09-01 13:15:39 | 51.57575 | 8.60528 | 84° | 55km/h | 5537m | -4m/s | -14.4°C | 60.2% | 514.9hPa | 2.5V | 07:39:09 | 02:57:47 | 00:00:00 | |
| DL1XH-west | 2026-09-01 13:15:38 | 51.57573 | 8.60506 | 84° | 57km/h | 5542m | -4.1m/s | -14.4°C | 60.4% | 514.5hPa | 2.6V | 07:39:09 | 02:57:46 | 00:00:00 | |
| HSKMA3-T | 2026-09-01 13:15:33 | 51.57566 | 8.60394 | 84° | 57km/h | 5561m | -3.9m/s | -14.6°C | 60.9% | 513.3hPa | 2.5V | 07:39:09 | 02:57:41 | 00:00:00 | |
| DO3DL | 2026-09-01 13:15:32 | 51.57566 | 8.60394 | 85° | 57km/h | 5561m | -3.9m/s | -14.6°C | 57.5% | 513.3hPa | 2.6V | 07:39:00 | 00:00:00 | 00:00:00 | |
| DL3AQ-11 | 2026-09-01 13:15:31 | 51.57562 | 8.60326 | 85° | 55km/h | 5573m | -4.2m/s | -14.7°C | 57.7% | 512.5hPa | 2.6V | 00:00:00 | 00:00:00 | 00:00:00 | |
| DM0DOS-11 | 2026-09-01 13:15:30 | 51.57556 | 8.60234 | 83° | 58km/h | 5590m | -4.4m/s | -14.7°C | 58.3% | 511.3hPa | 2.6V | 07:39:14 | 02:57:34 | 00:00:00 | |
| DO2JMG | 2026-09-01 13:15:29 | 51.57560 | 8.60303 | 85° | 57km/h | 5578m | -4.1m/s | -14.7°C | 61% | 512.1hPa | 2.6V | 07:40:00 | 02:57:37 | 00:00:00 | |
| BIOWL1-15 | 2026-09-01 13:15:28 | 51.57559 | 8.60280 | 84° | 57km/h | 5581m | -4.2m/s | -14.7°C | 60.9% | 511.9hPa | 2.5V | 07:40:00 | 02:57:36 | 00:00:00 | |
| DD8BA-10 | 2026-09-01 13:15:28 | 51.57559 | 8.60280 | 85° | 58km/h | 5582m | -4.2m/s | -14.7°C | 59.3% | 511.8hPa | 2.6V | 07:39:00 | 00:00:00 | 00:00:00 | |
| DL1XH-west | 2026-09-01 13:15:28 | 51.57557 | 8.60257 | 84° | 57km/h | 5586m | -4.3m/s | -14.7°C | 60.6% | 511.5hPa | 2.5V | 07:40:00 | 02:57:35 | 00:00:00 | |
| DD1CC3-15 | 2026-09-01 13:15:27 | 51.57559 | 8.60280 | 85° | 57km/h | 5582m | -4.2m/s | -14.7°C | 57.5% | 511.9hPa | 2.6V | 07:40:00 | 00:00:00 | 00:00:00 | |
| DO3DL | 2026-09-01 13:15:26 | 51.57557 | 8.60257 | 85° | 57km/h | 5586m | -4.3m/s | -14.7°C | 56.9% | 511.5hPa | 2.6V | 07:40:00 | 00:00:00 | 00:00:00 | |
| DB0DAN | 2026-09-01 13:15:25 | 51.57554 | 8.60210 | 82° | 55km/h | 5594m | -4.2m/s | -14.7°C | 56.4% | 510.99hPa | 2.6V | 00:00:00 | 00:00:00 | 00:00:00 | |
| HSKMA3-T | 2026-09-01 13:15:23 | 51.57551 | 8.60164 | 84° | 58km/h | 5603m | -4.1m/s | -14.8°C | 60.1% | 510.5hPa | 2.5V | 07:40:00 | 02:57:31 | 00:00:00 | |
| DL4XJ-10 | 2026-09-01 13:15:23 | 51.57551 | 8.60164 | 84° | 58km/h | 5603m | -4.0m/s | -17.1°C | 0% | 0hPa | 2.6V | 00:00:00 | 00:00:00 | 00:00:00 | |
| DJ2DS-15 | 2026-09-01 13:15:21 | 51.57547 | 8.60116 | 83° | 58km/h | 5611m | -4.1m/s | -14.7°C | 58.0% | 509.9hPa | 2.6V | 00:00:00 | 02:57:29 | 00:00:00 | |
| DM0DOS-11 | 2026-09-01 13:15:20 | 51.57539 | 8.59997 | 84° | 58km/h | 5631m | -4.2m/s | -14.9°C | 58% | 508.4hPa | 2.5V | 07:39:24 | 02:57:24 | 00:00:00 | |
| DO2JMG | 2026-09-01 13:15:19 | 51.57544 | 8.60069 | 84° | 58km/h | 5619m | -4.1m/s | -14.9°C | 60% | 509.3hPa | 2.6V | 07:40:00 | 02:57:27 | 00:00:00 | |
| DB0NH | 2026-09-01 13:15:19 | 51.57544 | 8.60069 | 85° | 58km/h | 5619m | -4.1m/s | -14.8°C | 58.0% | 509.3hPa | 2.6V | 07:39:00 | 02:57:27 | 00:00:00 | |
| DL1XH1-15 | 2026-09-01 13:15:18 | 51.57536 | 8.59948 | 83° | 60km/h | 5640m | -4.3m/s | -15°C | 58.3% | 507.9hPa | 2.6V | 07:39:26 | 02:57:22 | 00:00:00 | |
| BIOWL1-15 | 2026-09-01 13:15:18 | 51.57542 | 8.60045 | 84° | 60km/h | 5623m | -4.3m/s | -14.9°C | 60.2% | 509hPa | 2.6V | 07:40:00 | 02:57:26 | 00:00:00 | |
| DL1XH-west | 2026-09-01 13:15:17 | 51.57541 | 8.60021 | 83° | 60km/h | 5628m | -4.3m/s | -14.9°C | 60.3% | 508.8hPa | 2.5V | 07:40:00 | 02:57:25 | 00:00:00 | |
| HSKMA3-T | 2026-09-01 13:15:12 | 51.57533 | 8.59900 | 84° | 58km/h | 5648m | -4.1m/s | -15.1°C | 60.1% | 507.4hPa | 2.5V | 07:40:00 | 02:57:20 | 00:00:00 | |
| DD1CC1-15 | 2026-09-01 13:15:11 | 51.57532 | 8.59900 | 84° | 58km/h | 5648m | -4.1m/s | -15.1°C | 56.6% | 507.4hPa | 2.6V | 00:00:00 | 00:00:00 | 00:00:00 | |
| DB0DAN | 2026-09-01 13:15:10 | 51.57530 | 8.59852 | 83° | 57km/h | 5656m | -4.2m/s | -15.1°C | 56.7% | 506.84hPa | 2.6V | 00:00:00 | 00:00:00 | 00:00:00 | |
| DL4BBY-15 | 2026-09-01 13:15:10 | 51.57529 | 8.59852 | 84° | 58km/h | 5656m | -4.2m/s | -17.4°C | 0% | 0hPa | 2.6V | 00:00:00 | 00:00:00 | 00:00:00 | |
| DM0DOS-11 | 2026-09-01 13:15:09 | 51.57523 | 8.59757 | 84° | 60km/h | 5673m | -4.2m/s | -15.2°C | 58.7% | 505.7hPa | 2.6V | 07:39:34 | 02:57:14 | 00:00:00 | |
| DO2JMG | 2026-09-01 13:15:08 | 51.57526 | 8.59805 | 84° | 58km/h | 5665m | -4m/s | -15.1°C | 60.3% | 506.2hPa | 2.6V | 07:40:00 | 02:57:16 | 00:00:00 | |
| DL1XH1-15 | 2026-09-01 13:15:08 | 51.57520 | 8.59709 | 82° | 58km/h | 5681m | -4.1m/s | -15.2°C | 58.7% | 505.2hPa | 2.6V | 07:39:36 | 02:57:12 | 00:00:00 | |
| DL1XH-west | 2026-09-01 13:15:07 | 51.57524 | 8.59781 | 85° | 58km/h | 5669m | -3.9m/s | -15.1°C | 60.5% | 505.9hPa | 2.5V | 07:40:00 | 02:57:15 | 00:00:00 | |
| DO3DL | 2026-09-01 13:15:05 | 51.57523 | 8.59757 | 86° | 60km/h | 5673m | -4.2m/s | -15.2°C | 56.9% | 505.7hPa | 2.6V | 07:40:00 | 00:00:00 | 00:00:00 | |
| DL3AQ-11 | 2026-09-01 13:15:04 | 51.57518 | 8.59685 | 84° | 57km/h | 5685m | -4.2m/s | -15.2°C | 56.7% | 504.9hPa | 2.6V | 00:00:00 | 00:00:00 | 00:00:00 | |
| DD1CC8 | 2026-09-01 13:15:02 | 51.57516 | 8.59661 | 84° | 58km/h | 5689m | -4.5m/s | -15.3°C | 56.5% | 504.6hPa | 2.6V | 00:00:00 | 00:00:00 | 00:00:00 | |
| HSKMA3-T | 2026-09-01 13:15:02 | 51.57516 | 8.59661 | 84° | 60km/h | 5689m | -4.5m/s | -15.3°C | 60.6% | 504.6hPa | 2.6V | 07:40:00 | 02:57:10 | 00:00:00 | |
| DJ2DS-15 | 2026-09-01 13:15:01 | 51.57515 | 8.59637 | 84° | 58km/h | 5694m | -4.4m/s | -15.2°C | 58.4% | 504.2hPa | 2.6V | 00:00:00 | 02:57:09 | 00:00:00 | |
| DO9LL-15 | 2026-09-01 13:14:59 | 51.57512 | 8.59590 | 85° | 62km/h | 5703m | -4.3m/s | -15.3°C | 58.7% | 503.7hPa | 2.6V | 00:00:00 | 02:57:07 | 00:00:00 | |
| DL1XH1-15 | 2026-09-01 13:14:58 | 51.57505 | 8.59472 | 85° | 60km/h | 5724m | -4.2m/s | -15.5°C | 58.8% | 502.4hPa | 2.6V | 07:39:46 | 02:57:02 | 00:00:00 | |
| DO2JMG | 2026-09-01 13:14:57 | 51.57509 | 8.59543 | 84° | 58km/h | 5711m | -4.2m/s | -15.4°C | 60.8% | 503.2hPa | 2.6V | 07:40:00 | 02:57:05 | 00:00:00 | |
| BIOWL1-15 | 2026-09-01 13:14:56 | 51.57507 | 8.59519 | 84° | 58km/h | 5715m | -4.3m/s | -15.4°C | 60.9% | 502.9hPa | 2.5V | 07:40:00 | 02:57:04 | 00:00:00 | |
| DB0DAN | 2026-09-01 13:14:55 | 51.57506 | 8.59495 | 85° | 57km/h | 5719m | -4.4m/s | -15.4°C | 56.8% | 502.64hPa | 2.5V | 00:00:00 | 00:00:00 | 00:00:00 | |
| HSKMA3-T | 2026-09-01 13:14:51 | 51.57501 | 8.59400 | 86° | 58km/h | 5736m | -4.4m/s | -15.6°C | 61% | 501.4hPa | 2.5V | 07:40:00 | 02:56:59 | 00:00:00 | |
| DL8OAI-8 | 2026-09-01 13:14:50 | 51.57501 | 8.59400 | 87° | 58km/h | 5737m | -4.4m/s | -15.6°C | 57.5% | 501.4hPa | 2.6V | 00:00:00 | 00:00:00 | 00:00:00 | |
| DB0NH | 2026-09-01 13:14:49 | 51.57498 | 8.59352 | 84° | 60km/h | 5745m | -4.2m/s | -15.6°C | 59.0% | 500.9hPa | 2.6V | 00:00:00 | 02:56:57 | 00:00:00 | |
| DL1XH1-15 | 2026-09-01 13:14:48 | 51.57492 | 8.59233 | 85° | 58km/h | 5766m | -4.3m/s | -15.8°C | 58.8% | 499.5hPa | 2.5V | 07:39:56 | 02:56:52 | 00:00:00 | |
| DO2JMG | 2026-09-01 13:14:46 | 51.57495 | 8.59281 | 86° | 60km/h | 5758m | -4.3m/s | -15.7°C | 61% | 500.1hPa | 2.6V | 07:40:00 | 02:56:54 | 00:00:00 | |
| DL1XH-west | 2026-09-01 13:14:45 | 51.57493 | 8.59256 | 85° | 60km/h | 5762m | -4.2m/s | -15.7°C | 61% | 499.8hPa | 2.5V | 07:40:00 | 02:56:53 | 00:00:00 | |
| DO3DL | 2026-09-01 13:14:44 | 51.57493 | 8.59256 | 86° | 60km/h | 5762m | -4.2m/s | -15.7°C | 56.9% | 499.8hPa | 2.5V | 07:40:00 | 00:00:00 | 00:00:00 | |
| DD1CC2-15 | 2026-09-01 13:14:42 | 51.57491 | 8.59208 | 87° | 60km/h | 5770m | -4.4m/s | -15.8°C | 56.9% | 499.2hPa | 2.5V | 07:40:00 | 00:00:00 | 00:00:00 | |
| DD1CC1-15 | 2026-09-01 13:14:41 | 51.57490 | 8.59184 | 86° | 60km/h | 5775m | -4.4m/s | -15.8°C | 56.9% | 498.9hPa | 2.5V | 00:00:00 | 00:00:00 | 00:00:00 | |
| DB0DAN | 2026-09-01 13:14:40 | 51.57488 | 8.59137 | 87° | 55km/h | 5783m | -4.3m/s | -15.8°C | 57% | 498.36hPa | 2.5V | 00:00:00 | 00:00:00 | 00:00:00 | |
| HSKMA3-T | 2026-09-01 13:14:40 | 51.57488 | 8.59137 | 87° | 58km/h | 5783m | -4.3m/s | -15.8°C | 61.2% | 498.4hPa | 2.5V | 07:40:00 | 02:56:48 | 00:00:00 | |
| DL4BBY-15 | 2026-09-01 13:14:40 | 51.57488 | 8.59137 | 87° | 60km/h | 5784m | -4.2m/s | -18.1°C | 0% | 0hPa | 2.5V | 00:00:00 | 00:00:00 | 00:00:00 | |
| DL4XJ-10 | 2026-09-01 13:14:39 | 51.57487 | 8.59113 | 88° | 58km/h | 5788m | -4.1m/s | -18.2°C | 0% | 0hPa | 2.5V | 00:00:00 | 00:00:00 | 00:00:00 | |
| DL1XH1-15 | 2026-09-01 13:14:38 | 51.57483 | 8.58993 | 86° | 60km/h | 5809m | -4.4m/s | -16.1°C | 59.7% | 496.7hPa | 2.5V | 07:40:06 | 02:56:42 | 00:00:00 | |
| DL1XH-west | 2026-09-01 13:14:35 | 51.57484 | 8.59017 | 88° | 60km/h | 5805m | -4.6m/s | -16.1°C | 61.5% | 497hPa | 2.6V | 07:40:51 | 02:56:43 | 00:00:00 | |
| BIOWL1-15 | 2026-09-01 13:14:34 | 51.57483 | 8.58993 | 87° | 60km/h | 5809m | -4.4m/s | -16.1°C | 61.5% | 496.7hPa | 2.5V | 07:40:51 | 02:56:42 | 00:00:00 | |
| HSKMA3-T | 2026-09-01 13:14:30 | 51.57481 | 8.58897 | 87° | 58km/h | 5827m | -4.1m/s | -16.2°C | 61.3% | 495.6hPa | 2.6V | 07:40:51 | 02:56:38 | 00:00:00 | |
| DL8OAI-8 | 2026-09-01 13:14:29 | 51.57480 | 8.58897 | 88° | 58km/h | 5827m | -4.1m/s | -16.2°C | 57.8% | 495.6hPa | 2.6V | 07:40:00 | 00:00:00 | 00:00:00 | |
| DL1XH1-15 | 2026-09-01 13:14:28 | 51.57478 | 8.58753 | 90° | 60km/h | 5851m | -4.1m/s | -16.4°C | 60.3% | 494hPa | 2.6V | 07:40:16 | 02:56:32 | 00:00:00 | |
| DD8BA-10 | 2026-09-01 13:14:28 | 51.57480 | 8.58849 | 89° | 60km/h | 5835m | -3.9m/s | -16.2°C | 59.9% | 495.0hPa | 2.6V | 00:00:00 | 00:00:00 | 00:00:00 | |
| DD1CC3-15 | 2026-09-01 13:14:26 | 51.57479 | 8.58825 | 89° | 60km/h | 5839m | -4.2m/s | -16.3°C | 58.2% | 494.7hPa | 2.6V | 07:40:00 | 00:00:00 | 00:00:00 | |
| DB0DAN | 2026-09-01 13:14:25 | 51.57478 | 8.58777 | 90° | 57km/h | 5847m | -4m/s | -16.4°C | 58.3% | 494.2hPa | 2.6V | 00:00:00 | 00:00:00 | 00:00:00 | |
| DO2JMG | 2026-09-01 13:14:25 | 51.57478 | 8.58777 | 90° | 58km/h | 5847m | -4m/s | -16.4°C | 61.7% | 494.2hPa | 2.6V | 07:41:42 | 02:56:33 | 00:00:00 | |
| DL1XH-west | 2026-09-01 13:14:24 | 51.57478 | 8.58753 | 90° | 60km/h | 5851m | -4.1m/s | -16.4°C | 61.8% | 494hPa | 2.6V | 07:40:51 | 02:56:32 | 00:00:00 | |
| BIOWL1-15 | 2026-09-01 13:14:23 | 51.57478 | 8.58728 | 89° | 62km/h | 5855m | -4m/s | -16.5°C | 61.8% | 493.7hPa | 2.6V | 07:40:51 | 02:56:31 | 00:00:00 | |
| DM0DOS-11 | 2026-09-01 13:14:21 | 51.57476 | 8.58556 | 91° | 60km/h | 5883m | -3.9m/s | -16.7°C | 61.6% | 491.8hPa | 2.5V | 07:40:24 | 02:56:24 | 00:00:00 | |
| HSKMA3-T | 2026-09-01 13:14:20 | 51.57477 | 8.58654 | 90° | 62km/h | 5867m | -4.1m/s | -16.6°C | 62.2% | 492.9hPa | 2.6V | 07:40:51 | 02:56:28 | 00:00:00 | |
| DB0NH | 2026-09-01 13:14:19 | 51.57477 | 8.58629 | 89° | 64km/h | 5871m | -4.0m/s | -16.6°C | 61.2% | 492.6hPa | 2.6V | 00:00:00 | 02:56:27 | 00:00:00 | |
| DL1XH1-15 | 2026-09-01 13:14:18 | 51.57476 | 8.58480 | 89° | 62km/h | 5895m | -4.1m/s | -16.8°C | 61.9% | 491.1hPa | 2.6V | 07:40:27 | 02:56:21 | 00:00:00 | |
| DO2JMG | 2026-09-01 13:14:14 | 51.57476 | 8.58505 | 90° | 62km/h | 5891m | -3.8m/s | -16.8°C | 62.8% | 491.3hPa | 2.5V | 07:41:42 | 02:56:22 | 00:00:00 | |
| DL1XH-west | 2026-09-01 13:14:13 | 51.57476 | 8.58480 | 90° | 62km/h | 5895m | -4.1m/s | -16.8°C | 63.1% | 491.1hPa | 2.6V | 07:40:51 | 02:56:21 | 00:00:00 | |
| BIOWL1-15 | 2026-09-01 13:14:12 | 51.57476 | 8.58455 | 91° | 62km/h | 5899m | -3.9m/s | -16.9°C | 63.2% | 490.8hPa | 2.6V | 07:40:51 | 02:56:20 | 00:00:00 | |
| DL3AQ-11 | 2026-09-01 13:14:11 | 51.57477 | 8.58403 | 90° | 62km/h | 5907m | -3.9m/s | -16.9°C | 60.0% | 490.3hPa | 2.5V | 00:00:00 | 00:00:00 | 00:00:00 | |
| DL4BBY-15 | 2026-09-01 13:14:10 | 51.57477 | 8.58403 | 91° | 64km/h | 5907m | -3.9m/s | -19.2°C | 0% | 0hPa | 2.5V | 00:00:00 | 00:00:00 | 00:00:00 | |
| DB0DAN | 2026-09-01 13:14:10 | 51.57477 | 8.58403 | 90° | 60km/h | 5907m | -3.9m/s | -16.9°C | 60% | 490.3hPa | 2.6V | 00:00:00 | 00:00:00 | 00:00:00 | |
| HSKMA3-T | 2026-09-01 13:14:10 | 51.57477 | 8.58403 | 90° | 64km/h | 5907m | -3.9m/s | -16.9°C | 63.2% | 490.3hPa | 2.6V | 07:40:51 | 02:56:18 | 00:00:00 | |
| DL1XH1-15 | 2026-09-01 13:14:08 | 51.57479 | 8.58224 | 92° | 64km/h | 5934m | -4m/s | -17.1°C | 61.8% | 488.5hPa | 2.5V | 07:40:37 | 02:56:11 | 00:00:00 | |
| DO2JMG | 2026-09-01 13:14:05 | 51.57479 | 8.58250 | 91° | 62km/h | 5930m | -4m/s | -17.1°C | 62.9% | 488.8hPa | 2.5V | 07:41:42 | 02:56:12 | 00:00:00 | |
| BIOWL1-15 | 2026-09-01 13:14:03 | 51.57480 | 8.58173 | 91° | 64km/h | 5942m | -3.9m/s | -17.2°C | 63% | 488hPa | 2.6V | 07:40:51 | 02:56:09 | 00:00:00 | |
| DL1XH-west | 2026-09-01 13:14:03 | 51.57479 | 8.58224 | 92° | 64km/h | 5934m | -4m/s | -17.1°C | 62.8% | 488.5hPa | 2.5V | 07:40:51 | 02:56:11 | 00:00:00 | |
| HSKMA3-T | 2026-09-01 13:13:59 | 51.57481 | 8.58121 | 93° | 64km/h | 5950m | -3.9m/s | -17.3°C | 63.2% | 487.4hPa | 2.5V | 07:40:51 | 02:56:07 | 00:00:00 | |
| DL1XH1-15 | 2026-09-01 13:13:58 | 51.57484 | 8.57965 | 90° | 64km/h | 5973m | -3.8m/s | -17.5°C | 63% | 485.9hPa | 2.5V | 07:40:47 | 02:56:01 | 00:00:00 | |
| DL1XH-west | 2026-09-01 13:13:52 | 51.57484 | 8.57939 | 91° | 64km/h | 5977m | -3.9m/s | -17.5°C | 63.5% | 485.7hPa | 2.6V | 07:40:51 | 02:56:00 | 00:00:00 | |
| BIOWL1-15 | 2026-09-01 13:13:50 | 51.57485 | 8.57887 | 92° | 64km/h | 5985m | -3.9m/s | -17.5°C | 63.3% | 485.2hPa | 2.6V | 07:40:51 | 02:55:58 | 00:00:00 | |
| HSKMA3-T | 2026-09-01 13:13:49 | 51.57486 | 8.57861 | 91° | 64km/h | 5989m | -4m/s | -17.6°C | 63.2% | 484.8hPa | 2.5V | 07:40:51 | 02:55:57 | 00:00:00 | |
| DB0NH | 2026-09-01 13:13:49 | 51.57486 | 8.57861 | 91° | 66km/h | 5989m | -3.9m/s | -17.5°C | 62.6% | 484.8hPa | 2.6V | 00:00:00 | 02:55:57 | 00:00:00 | |
| DM0DOS-11 | 2026-09-01 13:13:48 | 51.57487 | 8.57784 | 91° | 64km/h | 6001m | -4m/s | -17.7°C | 62.5% | 484.1hPa | 2.6V | 07:40:54 | 02:55:54 | 00:00:00 | |
| DL1XH1-15 | 2026-09-01 13:13:48 | 51.57489 | 8.57706 | 92° | 64km/h | 6012m | -3.9m/s | -17.7°C | 62.4% | 483.3hPa | 2.5V | 07:40:57 | 02:55:51 | 00:00:00 | |
| DJ2DS-15 | 2026-09-01 13:13:47 | 51.57487 | 8.57810 | 92° | 62km/h | 5997m | -3.8m/s | -17.7°C | 60.5% | 484.4hPa | 2.6V | 00:00:00 | 00:00:00 | 00:00:00 | |
| AU51GT2 | 2026-09-01 13:13:46 | 51.57488 | 8.57758 | 91° | 62km/h | 6005m | -3.9m/s | -17.7°C | 60.3% | 483.9hPa | 2.6V | 00:00:00 | 00:00:00 | 00:00:00 | |
| DL1XH-west | 2026-09-01 13:13:42 | 51.57490 | 8.57680 | 91° | 66km/h | 6016m | -3.6m/s | -17.8°C | 63.4% | 483.2hPa | 2.6V | 07:41:42 | 02:55:50 | 00:00:00 | |
| DO2JMG | 2026-09-01 13:13:41 | 51.57490 | 8.57653 | 90° | 64km/h | 6020m | -3.8m/s | -17.8°C | 63.4% | 482.9hPa | 2.6V | 07:41:42 | 02:55:49 | 00:00:00 | |
| BIOWL1-15 | 2026-09-01 13:13:40 | 51.57490 | 8.57627 | 91° | 64km/h | 6024m | -3.7m/s | -17.9°C | 63.4% | 482.7hPa | 2.6V | 07:41:42 | 02:55:48 | 00:00:00 | |
| DM0DOS-11 | 2026-09-01 13:13:39 | 51.57492 | 8.57522 | 92° | 64km/h | 6039m | -3.6m/s | -18°C | 63.1% | 481.6hPa | 2.6V | 07:41:04 | 02:55:44 | 00:00:00 | |
| HSKMA3-T | 2026-09-01 13:13:39 | 51.57491 | 8.57601 | 92° | 66km/h | 6027m | -3.8m/s | -17.9°C | 63.4% | 482.4hPa | 2.5V | 07:41:42 | 02:55:47 | 00:00:00 | |
| DL1XH-west | 2026-09-01 13:13:32 | 51.57495 | 8.57417 | 92° | 64km/h | 6053m | -3.6m/s | -18.1°C | 63.5% | 480.8hPa | 2.6V | 07:41:42 | 02:55:40 | 00:00:00 | |
| DO2JMG | 2026-09-01 13:13:31 | 51.57495 | 8.57391 | 93° | 64km/h | 6057m | -3.8m/s | -18.1°C | 63.5% | 480.5hPa | 2.6V | 07:41:42 | 02:55:39 | 00:00:00 | |
| BIOWL1-15 | 2026-09-01 13:13:29 | 51.57497 | 8.57338 | 91° | 68km/h | 6064m | -3.7m/s | -18.2°C | 63.4% | 479.9hPa | 2.5V | 07:41:42 | 02:55:37 | 00:00:00 | |
| HSKMA3-T | 2026-09-01 13:13:28 | 51.57497 | 8.57311 | 91° | 66km/h | 6068m | -3.7m/s | -18.2°C | 63.4% | 479.8hPa | 2.5V | 07:41:42 | 02:55:36 | 00:00:00 | |
| DL8OAI-8 | 2026-09-01 13:13:27 | 51.57497 | 8.57311 | 92° | 66km/h | 6068m | -3.7m/s | -18.2°C | 60.8% | 479.8hPa | 2.6V | 07:41:00 | 00:00:00 | 00:00:00 | |
| DD8BA-10 | 2026-09-01 13:13:26 | 51.57497 | 8.57257 | 92° | 68km/h | 6076m | -3.6m/s | -18.3°C | 63.3% | 479.2hPa | 2.6V | 00:00:00 | 00:00:00 | 00:00:00 | |
| DD1CC9-15 | 2026-09-01 13:13:25 | 51.57497 | 8.57257 | 92° | 68km/h | 6076m | -3.6m/s | -18.3°C | 61.1% | 479.3hPa | 2.6V | 07:41:00 | 00:00:00 | 00:00:00 | |
| DL8DAS-14 | 2026-09-01 13:13:24 | 51.57498 | 8.57203 | 89° | 66km/h | 6083m | -3.7m/s | -18.4°C | 61.4% | 478.8hPa | 2.6V | 00:00:00 | 00:00:00 | 00:00:00 | |
| DM0DOS-11 | 2026-09-01 13:13:21 | 51.57498 | 8.56986 | 91° | 68km/h | 6112m | -3.7m/s | -18.5°C | 64.7% | 477hPa | 2.6V | 07:41:24 | 02:55:24 | 00:00:00 | |
| BIOWL1-15 | 2026-09-01 13:13:21 | 51.57498 | 8.57066 | 89° | 66km/h | 6101m | -3.8m/s | -18.4°C | 64.5% | 477.7hPa | 2.5V | 07:41:42 | 02:55:27 | 00:00:00 | |
| DL1XH-west | 2026-09-01 13:13:21 | 51.57498 | 8.57121 | 91° | 69km/h | 6094m | -3.7m/s | -18.4°C | 64.1% | 478.1hPa | 2.6V | 07:41:42 | 02:55:29 | 00:00:00 | |
| DJ2DS-15 | 2026-09-01 13:13:21 | 51.57498 | 8.57121 | 91° | 66km/h | 6094m | -3.6m/s | -18.4°C | 64.4% | 478.1hPa | 2.6V | 07:41:00 | 02:55:29 | 00:00:00 | |
| DD1CC2-15 | 2026-09-01 13:13:20 | 51.57498 | 8.57121 | 92° | 69km/h | 6094m | -3.7m/s | -18.4°C | 62.2% | 478.2hPa | 2.5V | 07:41:00 | 00:00:00 | 00:00:00 | |
| DO3DL | 2026-09-01 13:13:19 | 51.57498 | 8.57066 | 90° | 66km/h | 6101m | -3.8m/s | -18.4°C | 62.5% | 477.7hPa | 2.5V | 07:41:00 | 00:00:00 | 00:00:00 | |
| DL1XH1-15 | 2026-09-01 13:13:18 | 51.57499 | 8.56906 | 91° | 66km/h | 6123m | -3.6m/s | -18.5°C | 64.4% | 476.3hPa | 2.5V | 07:41:27 | 02:55:21 | 00:00:00 | |
| HSKMA3-T | 2026-09-01 13:13:17 | 51.57498 | 8.57013 | 92° | 66km/h | 6108m | -3.5m/s | -18.5°C | 64.3% | 477.2hPa | 2.6V | 07:41:42 | 02:55:25 | 00:00:00 | |
| DL1XH-west | 2026-09-01 13:13:11 | 51.57499 | 8.56852 | 90° | 66km/h | 6130m | -3.6m/s | -18.5°C | 63.9% | 475.9hPa | 2.6V | 07:41:42 | 02:55:19 | 00:00:00 | |
| DO2JMG | 2026-09-01 13:13:10 | 51.57499 | 8.56825 | 90° | 66km/h | 6133m | -3.6m/s | -18.6°C | 63.8% | 475.6hPa | 2.6V | 07:41:42 | 02:55:18 | 00:00:00 | |
| BIOWL1-15 | 2026-09-01 13:13:10 | 51.57500 | 8.56772 | 91° | 66km/h | 6141m | -3.6m/s | -18.6°C | 63% | 475.2hPa | 2.5V | 07:41:42 | 02:55:16 | 00:00:00 | |
| HSKMA3-T | 2026-09-01 13:13:07 | 51.57500 | 8.56745 | 89° | 66km/h | 6144m | -3.7m/s | -18.6°C | 62.8% | 474.9hPa | 2.6V | 07:41:42 | 02:55:15 | 00:00:00 | |
| DL1XH-west | 2026-09-01 13:13:01 | 51.57500 | 8.56586 | 91° | 66km/h | 6166m | -3.5m/s | -18.7°C | 61% | 473.6hPa | 2.6V | 07:41:42 | 02:55:09 | 00:00:00 | |
| DO2JMG | 2026-09-01 13:12:59 | 51.57499 | 8.56532 | 89° | 66km/h | 6173m | -3.6m/s | -18.8°C | 59.8% | 473.1hPa | 2.5V | 07:41:42 | 02:55:07 | 00:00:00 | |
| BIOWL1-15 | 2026-09-01 13:12:57 | 51.57499 | 8.56425 | 89° | 66km/h | 6187m | -3.5m/s | -18.8°C | 58% | 472.2hPa | 2.6V | 07:42:33 | 02:55:03 | 00:00:00 | |
| HSKMA3-T | 2026-09-01 13:12:56 | 51.57500 | 8.56452 | 89° | 68km/h | 6184m | -3.6m/s | -18.7°C | 58.4% | 472.5hPa | 2.6V | 07:42:33 | 02:55:04 | 00:00:00 | |
| DB0DAN | 2026-09-01 13:12:55 | 51.57499 | 8.56425 | 89° | 62km/h | 6187m | -3.5m/s | -18.8°C | 55.7% | 472.2hPa | 2.6V | 00:00:00 | 00:00:00 | 00:00:00 | |
| DL8DAS-14 | 2026-09-01 13:12:53 | 51.57499 | 8.56372 | 90° | 66km/h | 6194m | -3.6m/s | -18.8°C | 55.1% | 471.8hPa | 2.5V | 00:00:00 | 00:00:00 | 00:00:00 | |
| DM0DOS-11 | 2026-09-01 13:12:51 | 51.57499 | 8.56186 | 89° | 66km/h | 6219m | -3.5m/s | -18.9°C | 55% | 470.2hPa | 2.5V | 07:41:54 | 02:54:54 | 00:00:00 | |
| DL1XH-west | 2026-09-01 13:12:50 | 51.57498 | 8.56292 | 90° | 64km/h | 6205m | -3.5m/s | -18.8°C | 55.3% | 471.1hPa | 2.6V | 07:42:33 | 02:54:58 | 00:00:00 | |
| DO2JMG | 2026-09-01 13:12:48 | 51.57499 | 8.56239 | 91° | 66km/h | 6212m | -3.4m/s | -18.8°C | 55.7% | 470.7hPa | 2.6V | 07:42:33 | 02:54:56 | 00:00:00 | |
| BIOWL1-15 | 2026-09-01 13:12:47 | 51.57499 | 8.56212 | 89° | 66km/h | 6215m | -3.4m/s | -18.8°C | 55.9% | 470.5hPa | 2.5V | 07:42:33 | 02:54:55 | 00:00:00 | |
| HSKMA3-T | 2026-09-01 13:12:45 | 51.57499 | 8.56159 | 91° | 66km/h | 6222m | -3.7m/s | -18.9°C | 55.9% | 470hPa | 2.6V | 07:42:33 | 02:54:53 | 00:00:00 | |
| AU51GT2 | 2026-09-01 13:12:44 | 51.57499 | 8.56105 | 89° | 64km/h | 6229m | -3.6m/s | -18.9°C | 53.2% | 469.6hPa | 2.5V | 00:00:00 | 00:00:00 | 00:00:00 | |
| DD1CC3-15 | 2026-09-01 13:12:42 | 51.57499 | 8.56105 | 90° | 66km/h | 6229m | -3.6m/s | -18.9°C | 53.2% | 469.6hPa | 2.5V | 07:42:00 | 00:00:00 | 00:00:00 | |
| DM0DOS-11 | 2026-09-01 13:12:41 | 51.57498 | 8.55919 | 89° | 66km/h | 6253m | -3.6m/s | -19.1°C | 55.6% | 468hPa | 2.5V | 07:42:04 | 02:54:44 | 00:00:00 | |
| DB0DAN | 2026-09-01 13:12:40 | 51.57499 | 8.56025 | 89° | 64km/h | 6240m | -3.4m/s | -19.1°C | 53.9% | 468.94hPa | 2.6V | 00:00:00 | 00:00:00 | 00:00:00 | |
| DL1XH-west | 2026-09-01 13:12:40 | 51.57499 | 8.56025 | 89° | 68km/h | 6240m | -3.4m/s | -19.1°C | 56.5% | 468.9hPa | 2.6V | 07:42:33 | 02:54:48 | 00:00:00 | |
| DL4BBY-15 | 2026-09-01 13:12:39 | 51.57499 | 8.55997 | 89° | 64km/h | 6244m | -3.4m/s | -21.3°C | 0% | 0hPa | 2.6V | 00:00:00 | 00:00:00 | 00:00:00 | |
| DL1XH1-15 | 2026-09-01 13:12:38 | 51.57498 | 8.55840 | 91° | 66km/h | 6264m | -3.3m/s | -19.1°C | 54.7% | 467.3hPa | 2.6V | 07:42:07 | 02:54:41 | 00:00:00 | |
| BIOWL1-15 | 2026-09-01 13:12:38 | 51.57498 | 8.55918 | 90° | 66km/h | 6253m | -3.6m/s | -19.1°C | 56.4% | 468hPa | 2.5V | 07:42:33 | 02:54:44 | 00:00:00 | |
| DO2JMG | 2026-09-01 13:12:37 | 51.57498 | 8.55945 | 90° | 66km/h | 6250m | -3.7m/s | -19.1°C | 56.2% | 468.2hPa | 2.5V | 07:42:33 | 02:54:45 | 00:00:00 | |
| HSKMA3-T | 2026-09-01 13:12:34 | 51.57498 | 8.55866 | 91° | 64km/h | 6261m | -3.5m/s | -19.2°C | 56.2% | 467.6hPa | 2.6V | 07:42:33 | 02:54:42 | 00:00:00 | |
| BIOWL9-15 | 2026-09-01 13:12:33 | 51.57498 | 8.55840 | 91° | 64km/h | 6264m | -3.3m/s | -19.2°C | 52.7% | 467.4hPa | 2.5V | 00:00:00 | 00:00:00 | 00:00:00 | |
| DD1CC9-15 | 2026-09-01 13:12:32 | 51.57498 | 8.55840 | 92° | 66km/h | 6264m | -3.3m/s | -19.2°C | 52.7% | 467.3hPa | 2.5V | 07:42:00 | 00:00:00 | 00:00:00 | |
| DM0DOS-11 | 2026-09-01 13:12:31 | 51.57499 | 8.55653 | 89° | 66km/h | 6287m | -3.3m/s | -19.3°C | 53.7% | 465.9hPa | 2.5V | 07:42:14 | 02:54:34 | 00:00:00 | |
| DL1XH-west | 2026-09-01 13:12:29 | 51.57499 | 8.55733 | 92° | 66km/h | 6278m | -3.4m/s | -19.3°C | 54.4% | 466.5hPa | 2.6V | 07:42:33 | 02:54:37 | 00:00:00 | |
| DO2JMG | 2026-09-01 13:12:28 | 51.57499 | 8.55679 | 90° | 66km/h | 6284m | -3.3m/s | -19.3°C | 54.8% | 466.1hPa | 2.6V | 07:42:33 | 02:54:35 | 00:00:00 | |
| BIOWL1-15 | 2026-09-01 13:12:27 | 51.57499 | 8.55627 | 91° | 64km/h | 6291m | -3.3m/s | -19.4°C | 54.8% | 465.7hPa | 2.5V | 07:42:33 | 02:54:33 | 00:00:00 | |
| DB0DAN | 2026-09-01 13:12:25 | 51.57499 | 8.55627 | 90° | 60km/h | 6291m | -3.3m/s | -19.4°C | 52.1% | 465.72hPa | 2.5V | 00:00:00 | 00:00:00 | 00:00:00 | |
| HSKMA3-T | 2026-09-01 13:12:24 | 51.57499 | 8.55600 | 92° | 64km/h | 6294m | -3.4m/s | -19.5°C | 54.8% | 465.5hPa | 2.5V | 07:42:33 | 02:54:32 | 00:00:00 | |
| DJ2KF-10 | 2026-09-01 13:12:24 | 51.57499 | 8.55600 | 92° | 64km/h | 6294m | -3.4m/s | -19.4°C | 54.3% | 465.4hPa | 2.6V | 00:00:00 | 02:54:32 | 00:00:00 | |
| DO3DL | 2026-09-01 13:12:23 | 51.57499 | 8.55600 | 93° | 64km/h | 6294m | -3.4m/s | -19.4°C | 52.2% | 465.5hPa | 2.6V | 07:42:00 | 00:00:00 | 00:00:00 | |
| DL8DAS-14 | 2026-09-01 13:12:22 | 51.57500 | 8.55547 | 89° | 64km/h | 6301m | -3.4m/s | -19.5°C | 52.0% | 465.1hPa | 2.6V | 00:00:00 | 00:00:00 | 00:00:00 | |
| DM0DOS-11 | 2026-09-01 13:12:21 | 51.57502 | 8.55391 | 92° | 64km/h | 6321m | -3.4m/s | -19.7°C | 53.6% | 463.8hPa | 2.6V | 07:42:24 | 02:54:24 | 00:00:00 | |
| DL1XH-west | 2026-09-01 13:12:18 | 51.57501 | 8.55443 | 91° | 66km/h | 6315m | -3.4m/s | -19.6°C | 54.5% | 464.3hPa | 2.6V | 07:42:33 | 02:54:26 | 00:00:00 | |
| DL1XH1-15 | 2026-09-01 13:12:17 | 51.57505 | 8.55288 | 92° | 62km/h | 6335m | -3.2m/s | -19.8°C | 53.7% | 462.9hPa | 2.6V | 07:42:28 | 02:54:20 | 00:00:00 | |
| DO2JMG | 2026-09-01 13:12:16 | 51.57502 | 8.55391 | 93° | 64km/h | 6321m | -3.4m/s | -19.7°C | 54.2% | 463.8hPa | 2.6V | 07:42:33 | 02:54:24 | 00:00:00 | |
| BIOWL1-15 | 2026-09-01 13:12:14 | 51.57504 | 8.55339 | 92° | 64km/h | 6328m | -3.4m/s | -19.7°C | 54.3% | 463.4hPa | 2.5V | 07:42:33 | 02:54:22 | 00:00:00 | |
| AU51GT2 | 2026-09-01 13:12:13 | 51.57507 | 8.55236 | 92° | 64km/h | 6341m | -3.3m/s | -19.8°C | 51.3% | 462.6hPa | 2.6V | 00:00:00 | 00:00:00 | 00:00:00 | |
| DM0DOS-11 | 2026-09-01 13:12:11 | 51.57508 | 8.55134 | 92° | 62km/h | 6354m | -3.4m/s | -19.9°C | 52.9% | 461.7hPa | 2.6V | 07:42:34 | 02:54:14 | 00:00:00 | |
| DL1XH-west | 2026-09-01 13:12:08 | 51.57507 | 8.55184 | 90° | 62km/h | 6348m | -3.2m/s | -19.9°C | 54% | 462.2hPa | 2.6V | 07:42:33 | 02:54:16 | 00:00:00 | |
| DO2JMG | 2026-09-01 13:12:06 | 51.57508 | 8.55134 | 93° | 62km/h | 6354m | -3.4m/s | -19.9°C | 53.5% | 461.7hPa | 2.6V | 07:43:24 | 02:54:14 | 00:00:00 | |
| HSKMA3-T | 2026-09-01 13:12:03 | 51.57509 | 8.55057 | 90° | 62km/h | 6364m | -3.6m/s | -20°C | 53.3% | 461.1hPa | 2.6V | 07:43:24 | 02:54:11 | 00:00:00 | |
| DD1CC3-15 | 2026-09-01 13:12:02 | 51.57509 | 8.55057 | 91° | 62km/h | 6365m | -3.6m/s | -20.0°C | 50.8% | 461.1hPa | 2.6V | 07:43:00 | 00:00:00 | 00:00:00 | |
| DL3AQ-11 | 2026-09-01 13:12:00 | 51.57510 | 8.54957 | 90° | 60km/h | 6378m | -3.3m/s | -20.1°C | 50.1% | 460.2hPa | 2.6V | 00:00:00 | 00:00:00 | 00:00:00 | |
| DJ2DS-15 | 2026-09-01 13:11:59 | 51.57510 | 8.54957 | 90° | 60km/h | 6378m | -3.3m/s | -20.1°C | 50.1% | 460.2hPa | 2.6V | 00:00:00 | 00:00:00 | 00:00:00 | |
| DM0DOS-11 | 2026-09-01 13:11:58 | 51.57511 | 8.54881 | 90° | 62km/h | 6388m | -3.5m/s | -20.2°C | 50.6% | 459.7hPa | 2.6V | 07:42:44 | 02:54:04 | 00:00:00 | |
| DL1XH-west | 2026-09-01 13:11:57 | 51.57511 | 8.54907 | 92° | 62km/h | 6385m | -3.4m/s | -20.2°C | 51.9% | 459.8hPa | 2.6V | 07:43:24 | 02:54:05 | 00:00:00 | |
| DD1CC8 | 2026-09-01 13:11:56 | 51.57512 | 8.54856 | 91° | 60km/h | 6392m | -3.4m/s | -20.2°C | 48.5% | 459.4hPa | 2.5V | 00:00:00 | 00:00:00 | 00:00:00 | |
| DB0DAN | 2026-09-01 13:11:55 | 51.57512 | 8.54856 | 92° | 58km/h | 6392m | -3.4m/s | -20.2°C | 48.5% | 459.44hPa | 2.5V | 00:00:00 | 00:00:00 | 00:00:00 | |
| DO2JMG | 2026-09-01 13:11:55 | 51.57512 | 8.54856 | 92° | 62km/h | 6392m | -3.4m/s | -20.2°C | 51% | 459.4hPa | 2.5V | 07:43:24 | 02:54:03 | 00:00:00 | |
| BIOWL1-15 | 2026-09-01 13:11:53 | 51.57513 | 8.54806 | 92° | 64km/h | 6399m | -3.5m/s | -20.2°C | 52.9% | 459hPa | 2.5V | 07:43:24 | 02:54:01 | 00:00:00 | |
| DL8DAS-14 | 2026-09-01 13:11:51 | 51.57513 | 8.54755 | 89° | 60km/h | 6406m | -3.3m/s | -20.3°C | 52.0% | 458.6hPa | 2.6V | 00:00:00 | 00:00:00 | 00:00:00 | |
| DO3DL | 2026-09-01 13:11:50 | 51.57513 | 8.54755 | 91° | 62km/h | 6406m | -3.3m/s | -20.3°C | 0% | 458.6hPa | 2.6V | 07:43:00 | 00:00:00 | 00:00:00 | |
| DB0NH | 2026-09-01 13:11:49 | 51.57513 | 8.54706 | 91° | 60km/h | 6413m | -3.4m/s | -20.3°C | 53.1% | 458.1hPa | 2.6V | 00:00:00 | 02:53:57 | 00:00:00 | |
| DM0DOS-11 | 2026-09-01 13:11:48 | 51.57513 | 8.54631 | 91° | 58km/h | 6423m | -3.3m/s | -20.3°C | 52.6% | 457.4hPa | 2.5V | 07:42:54 | 02:53:54 | 00:00:00 | |
| DL1XH-west | 2026-09-01 13:11:46 | 51.57514 | 8.54631 | 91° | 60km/h | 6423m | -3.3m/s | -20.3°C | 53.1% | 457.4hPa | 2.5V | 07:43:24 | 02:53:54 | 00:00:00 | |
| DO2JMG | 2026-09-01 13:11:45 | 51.57514 | 8.54607 | 93° | 60km/h | 6426m | -3.3m/s | -20.3°C | 53.1% | 457.3hPa | 2.6V | 07:43:24 | 02:53:53 | 00:00:00 | |
| BIOWL1-15 | 2026-09-01 13:11:42 | 51.57515 | 8.54533 | 91° | 60km/h | 6436m | -3.3m/s | -20.4°C | 52.4% | 456.7hPa | 2.6V | 07:43:24 | 02:53:50 | 00:00:00 | |
| DD1CC3-15 | 2026-09-01 13:11:41 | 51.57515 | 8.54533 | 92° | 60km/h | 6436m | -3.3m/s | -20.4°C | 49.2% | 456.7hPa | 2.5V | 07:43:00 | 00:00:00 | 00:00:00 | |
| DB0DAN | 2026-09-01 13:11:40 | 51.57516 | 8.54484 | 91° | 58km/h | 6443m | -3.6m/s | -20.5°C | 49% | 456.29hPa | 2.5V | 00:00:00 | 00:00:00 | 00:00:00 | |
| DL1XH-west | 2026-09-01 13:11:36 | 51.57517 | 8.54387 | 91° | 60km/h | 6457m | -3.5m/s | -20.6°C | 51.9% | 455.4hPa | 2.6V | 07:43:24 | 02:53:44 | 00:00:00 | |
| DO2JMG | 2026-09-01 13:11:34 | 51.57518 | 8.54339 | 91° | 58km/h | 6464m | -3.4m/s | -20.6°C | 51.5% | 455hPa | 2.5V | 07:43:24 | 02:53:42 | 00:00:00 | |
| BIOWL1-15 | 2026-09-01 13:11:33 | 51.57519 | 8.54266 | 92° | 62km/h | 6474m | -3.4m/s | -20.7°C | 50.6% | 454.4hPa | 2.6V | 07:43:24 | 02:53:39 | 00:00:00 | |
| HSKMA3-T | 2026-09-01 13:11:32 | 51.57519 | 8.54291 | 93° | 60km/h | 6471m | -3.4m/s | -20.7°C | 51% | 454.6hPa | 2.5V | 07:43:24 | 02:53:40 | 00:00:00 | |
| BIOWL7-15 | 2026-09-01 13:11:31 | 51.57518 | 8.54291 | 94° | 60km/h | 6471m | -3.4m/s | -20.7°C | 48.2% | 454.6hPa | 2.6V | 00:00:00 | 00:00:00 | 00:00:00 | |
| DO3DL | 2026-09-01 13:11:30 | 51.57519 | 8.54266 | 92° | 62km/h | 6474m | -3.4m/s | -20.7°C | 47.5% | 454.4hPa | 2.6V | 07:43:00 | 00:00:00 | 00:00:00 | |
| DM0DOS-11 | 2026-09-01 13:11:28 | 51.57521 | 8.54142 | 90° | 60km/h | 6491m | -3.4m/s | -20.7°C | 45.4% | 453.2hPa | 2.6V | 07:43:14 | 02:53:34 | 00:00:00 | |
| DL1XH-west | 2026-09-01 13:11:26 | 51.57521 | 8.54142 | 90° | 60km/h | 6492m | -3.4m/s | -20.7°C | 46.9% | 453.2hPa | 2.6V | 07:43:24 | 02:53:34 | 00:00:00 | |
| DB0DAN | 2026-09-01 13:11:25 | 51.57521 | 8.54118 | 91° | 57km/h | 6495m | -3.4m/s | -20.7°C | 40.1% | 453.07hPa | 2.6V | 00:00:00 | 00:00:00 | 00:00:00 | |
| DO2JMG | 2026-09-01 13:11:24 | 51.57521 | 8.54093 | 92° | 62km/h | 6498m | -3.4m/s | -20.7°C | 42.9% | 452.9hPa | 2.6V | 07:43:24 | 02:53:32 | 00:00:00 | |
| HSKMA3-T | 2026-09-01 13:11:22 | 51.57521 | 8.54042 | 89° | 62km/h | 6505m | -3.3m/s | -20.7°C | 42.4% | 452.5hPa | 2.5V | 07:43:24 | 02:53:30 | 00:00:00 | |
| BIOWL1-15 | 2026-09-01 13:11:22 | 51.57521 | 8.53992 | 90° | 60km/h | 6512m | -3.3m/s | -20.8°C | 42.6% | 452.1hPa | 2.6V | 07:43:24 | 02:53:28 | 00:00:00 | |
| GOEST3-10 | 2026-09-01 13:11:22 | 51.57521 | 8.54042 | 90° | 62km/h | 6505m | -3.3m/s | -20.7°C | 40.5% | 452.4hPa | 2.5V | 00:00:00 | 02:53:30 | 00:00:00 | |
| DM0DOS-11 | 2026-09-01 13:11:21 | 51.57521 | 8.53894 | 89° | 60km/h | 6526m | -3.5m/s | -20.9°C | 43% | 451.2hPa | 2.5V | 07:43:24 | 02:53:24 | 00:00:00 | |
| DJ2DS-15 | 2026-09-01 13:11:21 | 51.57521 | 8.54017 | 89° | 60km/h | 6508m | -3.3m/s | -20.7°C | 40.6% | 452.2hPa | 2.6V | 00:00:00 | 02:53:29 | 00:00:00 | |
| DL8DAS-14 | 2026-09-01 13:11:20 | 51.57521 | 8.53992 | 89° | 58km/h | 6512m | -3.3m/s | -20.8°C | 38.8% | 452.1hPa | 2.6V | 00:00:00 | 00:00:00 | 00:00:00 | |
| DB0NH | 2026-09-01 13:11:19 | 51.57521 | 8.53968 | 91° | 60km/h | 6515m | -3.3m/s | -20.8°C | 40.9% | 451.8hPa | 2.6V | 07:43:00 | 02:53:27 | 00:00:00 | |
| DO3DL | 2026-09-01 13:11:18 | 51.57521 | 8.53943 | 92° | 62km/h | 6518m | -3.5m/s | -20.9°C | 39.7% | 451.7hPa | 2.6V | 07:43:00 | 00:00:00 | 00:00:00 | |
| DL1XH1-15 | 2026-09-01 13:11:17 | 51.57521 | 8.53796 | 90° | 58km/h | 6540m | -3.6m/s | -21°C | 44.8% | 450.3hPa | 2.6V | 07:43:28 | 02:53:20 | 00:00:00 | |
| DL1XH-west | 2026-09-01 13:11:16 | 51.57521 | 8.53894 | 90° | 60km/h | 6526m | -3.5m/s | -20.9°C | 44.6% | 451.2hPa | 2.5V | 07:43:24 | 02:53:24 | 00:00:00 | |
| DO2JMG | 2026-09-01 13:11:14 | 51.57521 | 8.53845 | 90° | 62km/h | 6533m | -3.6m/s | -21°C | 45.6% | 450.7hPa | 2.6V | 07:44:15 | 02:53:22 | 00:00:00 | |
| DD1CC2-15 | 2026-09-01 13:11:12 | 51.57521 | 8.53820 | 90° | 60km/h | 6536m | -3.5m/s | -21.0°C | 42.5% | 450.5hPa | 2.6V | 07:44:00 | 00:00:00 | 00:00:00 | |
| DM0DOS-11 | 2026-09-01 13:11:11 | 51.57521 | 8.53650 | 90° | 60km/h | 6561m | -3.5m/s | -21.1°C | 44.6% | 449.1hPa | 2.6V | 07:43:34 | 02:53:14 | 00:00:00 | |
| HSKMA3-T | 2026-09-01 13:11:11 | 51.57521 | 8.53772 | 91° | 60km/h | 6544m | -3.5m/s | -21°C | 46.9% | 450.1hPa | 2.5V | 07:44:15 | 02:53:19 | 00:00:00 | |
| DB0DAN | 2026-09-01 13:11:10 | 51.57522 | 8.53747 | 91° | 58km/h | 6547m | -3.5m/s | -21°C | 43.7% | 449.89hPa | 2.5V | 00:00:00 | 00:00:00 | 00:00:00 | |
| BIOWL1-15 | 2026-09-01 13:11:09 | 51.57522 | 8.53650 | 91° | 60km/h | 6561m | -3.5m/s | -21.1°C | 46.4% | 449.1hPa | 2.6V | 07:44:15 | 02:53:14 | 00:00:00 | |
| DL4BBY-15 | 2026-09-01 13:11:09 | 51.57521 | 8.53723 | 90° | 58km/h | 6551m | -3.5m/s | -23.2°C | 0% | 0hPa | 2.5V | 00:00:00 | 00:00:00 | 00:00:00 | |
| DL1XH1-15 | 2026-09-01 13:11:07 | 51.57521 | 8.53552 | 90° | 60km/h | 6575m | -3.4m/s | -21.2°C | 44.5% | 448.1hPa | 2.5V | 07:43:38 | 02:53:10 | 00:00:00 | |
| DL1XH-west | 2026-09-01 13:11:05 | 51.57522 | 8.53625 | 89° | 62km/h | 6564m | -3.4m/s | -21.1°C | 46.1% | 448.8hPa | 2.6V | 07:44:15 | 02:53:13 | 00:00:00 | |
| DO2JMG | 2026-09-01 13:11:03 | 51.57521 | 8.53576 | 89° | 58km/h | 6571m | -3.6m/s | -21.2°C | 46.2% | 448.4hPa | 2.5V | 07:44:15 | 02:53:11 | 00:00:00 | |
| HSKMA3-T | 2026-09-01 13:11:01 | 51.57521 | 8.53527 | 89° | 60km/h | 6578m | -3.5m/s | -21.2°C | 46.3% | 448hPa | 2.6V | 07:44:15 | 02:53:09 | 00:00:00 | |
| DJ2DS-15 | 2026-09-01 13:11:01 | 51.57521 | 8.53527 | 90° | 58km/h | 6578m | -3.4m/s | -21.2°C | 44.5% | 447.9hPa | 2.6V | 00:00:00 | 02:53:09 | 00:00:00 | |
| GOEST3-10 | 2026-09-01 13:11:00 | 51.57521 | 8.53503 | 89° | 60km/h | 6582m | -3.5m/s | -21.2°C | 44.3% | 447.8hPa | 2.6V | 00:00:00 | 02:53:08 | 00:00:00 | |
| DM0DOS-11 | 2026-09-01 13:10:58 | 51.57519 | 8.53407 | 87° | 58km/h | 6596m | -3.7m/s | -21.4°C | 43.8% | 446.9hPa | 2.6V | 07:43:44 | 02:53:04 | 00:00:00 | |
| BIOWL1-15 | 2026-09-01 13:10:58 | 51.57520 | 8.53455 | 89° | 58km/h | 6589m | -3.6m/s | -21.3°C | 45.9% | 447.3hPa | 2.5V | 07:44:15 | 02:53:06 | 00:00:00 | |
| DL1XH-west | 2026-09-01 13:10:55 | 51.57518 | 8.53383 | 88° | 57km/h | 6600m | -3.6m/s | -21.4°C | 45.7% | 446.7hPa | 2.6V | 07:44:15 | 02:53:03 | 00:00:00 | |
| DO2JMG | 2026-09-01 13:10:52 | 51.57518 | 8.53313 | 90° | 60km/h | 6610m | -3.4m/s | -21.5°C | 45.9% | 446.1hPa | 2.5V | 07:44:15 | 02:53:00 | 00:00:00 | |
| HSKMA3-T | 2026-09-01 13:10:51 | 51.57518 | 8.53289 | 89° | 58km/h | 6614m | -3.6m/s | -21.5°C | 45.9% | 445.8hPa | 2.6V | 07:44:15 | 02:52:59 | 00:00:00 | |
| BIOWL1-15 | 2026-09-01 13:10:47 | 51.57517 | 8.53193 | 88° | 60km/h | 6628m | -3.6m/s | -21.6°C | 46.5% | 445hPa | 2.5V | 07:44:15 | 02:52:55 | 00:00:00 | |
| DL1XH-west | 2026-09-01 13:10:44 | 51.57516 | 8.53121 | 87° | 60km/h | 6639m | -3.6m/s | -21.8°C | 46.9% | 444.3hPa | 2.6V | 07:44:15 | 02:52:52 | 00:00:00 | |
| DO2JMG | 2026-09-01 13:10:42 | 51.57513 | 8.53072 | 85° | 58km/h | 6646m | -3.8m/s | -21.8°C | 47% | 443.9hPa | 2.6V | 07:44:15 | 02:52:50 | 00:00:00 | |
| HSKMA3-T | 2026-09-01 13:10:41 | 51.57512 | 8.53049 | 86° | 57km/h | 6650m | -3.5m/s | -21.9°C | 47.2% | 443.7hPa | 2.5V | 07:44:15 | 02:52:49 | 00:00:00 | |
| DB0DAN | 2026-09-01 13:10:40 | 51.57512 | 8.53026 | 88° | 53km/h | 6653m | -3.4m/s | -21.9°C | 43.1% | 443.48hPa | 2.5V | 00:00:00 | 00:00:00 | 00:00:00 | |
| BIOWL1-15 | 2026-09-01 13:10:36 | 51.57510 | 8.52934 | 90° | 57km/h | 6668m | -3.5m/s | -22°C | 47.5% | 442.5hPa | 2.6V | 07:44:15 | 02:52:44 | 00:00:00 | |
| DL1XH-west | 2026-09-01 13:10:33 | 51.57510 | 8.52862 | 88° | 60km/h | 6678m | -3.5m/s | -22.1°C | 47.6% | 442hPa | 2.6V | 07:44:15 | 02:52:41 | 00:00:00 | |
| DO2JMG | 2026-09-01 13:10:31 | 51.57509 | 8.52814 | 88° | 57km/h | 6685m | -3.5m/s | -22.2°C | 47.7% | 441.5hPa | 2.6V | 07:44:15 | 02:52:39 | 00:00:00 | |
| HSKMA3-T | 2026-09-01 13:10:30 | 51.57508 | 8.52791 | 89° | 58km/h | 6689m | -3.6m/s | -22.2°C | 47.9% | 441.4hPa | 2.5V | 07:44:15 | 02:52:38 | 00:00:00 | |
| GOEST3-10 | 2026-09-01 13:10:30 | 51.57508 | 8.52790 | 90° | 58km/h | 6689m | -3.6m/s | -22.1°C | 45.9% | 441.3hPa | 2.5V | 00:00:00 | 02:52:38 | 00:00:00 | |
| DD1CC1-15 | 2026-09-01 13:10:29 | 51.57508 | 8.52790 | 90° | 58km/h | 6689m | -3.6m/s | -22.2°C | 43.8% | 441.4hPa | 2.6V | 00:00:00 | 00:00:00 | 00:00:00 | |
| DM0DOS-11 | 2026-09-01 13:10:28 | 51.57507 | 8.52694 | 88° | 58km/h | 6703m | -3.5m/s | -22.4°C | 46.5% | 440.5hPa | 2.6V | 07:44:14 | 02:52:34 | 00:00:00 | |
| DL1XH1-15 | 2026-09-01 13:10:27 | 51.57505 | 8.52598 | 88° | 57km/h | 6718m | -3.6m/s | -22.4°C | 46.9% | 439.5hPa | 2.5V | 07:44:18 | 02:52:30 | 00:00:00 | |
| BIOWL1-15 | 2026-09-01 13:10:26 | 51.57507 | 8.52694 | 88° | 58km/h | 6703m | -3.5m/s | -22.4°C | 48.5% | 440.5hPa | 2.6V | 07:44:15 | 02:52:34 | 00:00:00 | |
| DL1XH-west | 2026-09-01 13:10:22 | 51.57505 | 8.52598 | 88° | 57km/h | 6718m | -3.6m/s | -22.5°C | 48.9% | 439.5hPa | 2.5V | 07:45:06 | 02:52:30 | 00:00:00 | |
| HSKMA3-T | 2026-09-01 13:10:20 | 51.57505 | 8.52551 | 91° | 60km/h | 6725m | -3.5m/s | -22.6°C | 49% | 439.2hPa | 2.6V | 07:45:06 | 02:52:28 | 00:00:00 | |
| DB0NH | 2026-09-01 13:10:19 | 51.57506 | 8.52527 | 91° | 60km/h | 6729m | -3.7m/s | -22.5°C | 46.9% | 438.9hPa | 2.6V | 00:00:00 | 02:52:27 | 00:00:00 | |
| DL8DAS-14 | 2026-09-01 13:10:18 | 51.57506 | 8.52503 | 90° | 58km/h | 6732m | -3.5m/s | -22.6°C | 44.5% | 438.7hPa | 2.5V | 00:00:00 | 00:00:00 | 00:00:00 | |
| DL1XH1-15 | 2026-09-01 13:10:17 | 51.57505 | 8.52355 | 88° | 58km/h | 6754m | -3.8m/s | -22.8°C | 46.6% | 437.5hPa | 2.5V | 07:44:28 | 02:52:20 | 00:00:00 | |
| BIOWL1-15 | 2026-09-01 13:10:16 | 51.57506 | 8.52454 | 91° | 62km/h | 6739m | -3.4m/s | -22.6°C | 48.1% | 438.3hPa | 2.5V | 07:45:06 | 02:52:24 | 00:00:00 | |
| DL1XH-west | 2026-09-01 13:10:11 | 51.57504 | 8.52332 | 89° | 60km/h | 6758m | -3.6m/s | -22.8°C | 48.7% | 437.2hPa | 2.5V | 07:45:06 | 02:52:19 | 00:00:00 | |
| HSKMA3-T | 2026-09-01 13:10:09 | 51.57503 | 8.52284 | 87° | 58km/h | 6765m | -3.7m/s | -22.9°C | 48.8% | 436.8hPa | 2.6V | 07:45:06 | 02:52:17 | 00:00:00 | |
| DL4BBY-15 | 2026-09-01 13:10:09 | 51.57503 | 8.52284 | 88° | 60km/h | 6766m | -3.6m/s | -25.1°C | 0% | 0hPa | 2.6V | 00:00:00 | 00:00:00 | 00:00:00 | |
| DD1CC1-15 | 2026-09-01 13:10:08 | 51.57503 | 8.52284 | 88° | 58km/h | 6765m | -3.7m/s | -22.9°C | 44.8% | 436.8hPa | 2.6V | 07:45:00 | 00:00:00 | 00:00:00 | |
| DL1XH1-15 | 2026-09-01 13:10:07 | 51.57505 | 8.52115 | 92° | 60km/h | 6791m | -3.8m/s | -23.1°C | 46.3% | 435.3hPa | 2.6V | 07:44:38 | 02:52:10 | 00:00:00 | |
| BIOWL1-15 | 2026-09-01 13:10:05 | 51.57504 | 8.52188 | 91° | 62km/h | 6779m | -3.5m/s | -23°C | 48.2% | 436hPa | 2.5V | 07:45:06 | 02:52:13 | 00:00:00 | |
| DL1XH-west | 2026-09-01 13:10:00 | 51.57506 | 8.52066 | 90° | 60km/h | 6798m | -3.5m/s | -23.1°C | 48.2% | 434.8hPa | 2.6V | 07:45:06 | 02:52:08 | 00:00:00 | |
| HSKMA3-T | 2026-09-01 13:09:59 | 51.57506 | 8.52041 | 90° | 58km/h | 6801m | -3.6m/s | -23.2°C | 48.5% | 434.6hPa | 2.5V | 07:45:06 | 02:52:07 | 00:00:00 | |
| GOEST3-10 | 2026-09-01 13:09:59 | 51.57506 | 8.52041 | 90° | 60km/h | 6801m | -3.6m/s | -23.1°C | 46.8% | 434.6hPa | 2.5V | 00:00:00 | 00:00:00 | 00:00:00 | |
| DD1CC3-15 | 2026-09-01 13:09:58 | 51.57506 | 8.52041 | 91° | 58km/h | 6801m | -3.6m/s | -23.2°C | 44.6% | 434.6hPa | 2.5V | 07:45:00 | 00:00:00 | 00:00:00 | |
| DL1XH1-15 | 2026-09-01 13:09:57 | 51.57506 | 8.51871 | 90° | 62km/h | 6827m | -3.8m/s | -23.4°C | 47.4% | 433.2hPa | 2.5V | 07:44:48 | 02:52:00 | 00:00:00 | |
| BIOWL1-15 | 2026-09-01 13:09:54 | 51.57506 | 8.51920 | 90° | 58km/h | 6819m | -3.6m/s | -23.4°C | 49.3% | 433.6hPa | 2.5V | 07:45:06 | 02:52:02 | 00:00:00 | |
| DL1XH-west | 2026-09-01 13:09:50 | 51.57506 | 8.51822 | 91° | 60km/h | 6834m | -3.6m/s | -23.5°C | 49.6% | 432.7hPa | 2.6V | 07:45:06 | 02:51:58 | 00:00:00 | |
| DB0NH | 2026-09-01 13:09:49 | 51.57507 | 8.51797 | 92° | 62km/h | 6838m | -3.6m/s | -23.5°C | 47.8% | 432.4hPa | 2.6V | 00:00:00 | 02:51:57 | 00:00:00 | |
| DM0DOS-11 | 2026-09-01 13:09:48 | 51.57507 | 8.51720 | 89° | 60km/h | 6849m | -3.7m/s | -23.6°C | 48.1% | 431.8hPa | 2.6V | 07:44:54 | 02:51:54 | 00:00:00 | |
| HSKMA3-T | 2026-09-01 13:09:48 | 51.57507 | 8.51771 | 91° | 64km/h | 6842m | -3.7m/s | -23.6°C | 49.9% | 432.2hPa | 2.5V | 07:45:06 | 02:51:56 | 00:00:00 | |
| BIOWL1-15 | 2026-09-01 13:09:44 | 51.57508 | 8.51671 | 92° | 62km/h | 6856m | -3.8m/s | -23.7°C | 50.6% | 431.4hPa | 2.6V | 07:45:06 | 02:51:52 | 00:00:00 | |
| DL1XH1-15 | 2026-09-01 13:09:42 | 51.57508 | 8.51621 | 91° | 60km/h | 6864m | -3.8m/s | -23.8°C | 48.4% | 430.8hPa | 2.5V | 07:44:58 | 02:51:50 | 00:00:00 | |
| DL1ZP-14 | 2026-09-01 13:09:42 | 51.57509 | 8.51597 | 92° | 60km/h | 6868m | -3.9m/s | -23.8°C | 46.2% | 430.8hPa | 2.5V | 00:00:00 | 00:00:00 | 00:00:00 | |
| DM0DOS-11 | 2026-09-01 13:09:41 | 51.57511 | 8.51471 | 92° | 62km/h | 6887m | -3.7m/s | -24°C | 49.3% | 429.5hPa | 2.5V | 07:45:04 | 02:51:44 | 00:00:00 | |
| DB0DAN | 2026-09-01 13:09:40 | 51.57510 | 8.51572 | 93° | 60km/h | 6872m | -4m/s | -23.9°C | 46.4% | 430.44hPa | 2.6V | 00:00:00 | 00:00:00 | 00:00:00 | |
| DL1XH-west | 2026-09-01 13:09:40 | 51.57510 | 8.51572 | 93° | 62km/h | 6872m | -4m/s | -23.9°C | 50.9% | 430.4hPa | 2.6V | 07:45:06 | 02:51:48 | 00:00:00 | |
| HSKMA3-T | 2026-09-01 13:09:38 | 51.57511 | 8.51521 | 90° | 62km/h | 6879m | -3.7m/s | -23.9°C | 51.2% | 430hPa | 2.6V | 07:45:06 | 02:51:46 | 00:00:00 | |
| DD1CC3-15 | 2026-09-01 13:09:37 | 51.57511 | 8.51521 | 91° | 62km/h | 6879m | -3.7m/s | -23.9°C | 46.7% | 430.0hPa | 2.5V | 07:45:00 | 00:00:00 | 00:00:00 | |
| DL1XH1-15 | 2026-09-01 13:09:36 | 51.57513 | 8.51369 | 90° | 62km/h | 6902m | -3.9m/s | -24.1°C | 49.4% | 428.6hPa | 2.5V | 07:45:08 | 02:51:40 | 00:00:00 | |
| BIOWL1-15 | 2026-09-01 13:09:35 | 51.57513 | 8.51394 | 90° | 62km/h | 6898m | -3.7m/s | -24.1°C | 51.4% | 428.8hPa | 2.6V | 07:45:57 | 02:51:41 | 00:00:00 | |
| DL1XH-west | 2026-09-01 13:09:29 | 51.57514 | 8.51292 | 90° | 64km/h | 6913m | -3.7m/s | -24.3°C | 51.6% | 428hPa | 2.6V | 07:45:57 | 02:51:37 | 00:00:00 | |
| DO2JMG | 2026-09-01 13:09:28 | 51.57514 | 8.51267 | 89° | 62km/h | 6917m | -3.9m/s | -24.3°C | 51.8% | 427.8hPa | 2.6V | 07:45:57 | 02:51:36 | 00:00:00 | |
| DM0DOS-11 | 2026-09-01 13:09:28 | 51.57514 | 8.51216 | 91° | 64km/h | 6925m | -3.8m/s | -24.3°C | 50% | 427.4hPa | 2.5V | 07:45:14 | 02:51:34 | 00:00:00 | |
| HSKMA3-T | 2026-09-01 13:09:27 | 51.57514 | 8.51241 | 91° | 62km/h | 6921m | -3.8m/s | -24.3°C | 51.9% | 427.6hPa | 2.6V | 07:45:57 | 02:51:35 | 00:00:00 | |
| DB0DAN | 2026-09-01 13:09:25 | 51.57514 | 8.51190 | 91° | 62km/h | 6928m | -3.8m/s | -24.4°C | 47.6% | 427.14hPa | 2.5V | 00:00:00 | 00:00:00 | 00:00:00 | |
| BIOWL1-15 | 2026-09-01 13:09:22 | 51.57514 | 8.51114 | 91° | 62km/h | 6940m | -3.8m/s | -24.5°C | 52.4% | 426.4hPa | 2.6V | 07:45:57 | 02:51:30 | 00:00:00 | |
| DL1XH-west | 2026-09-01 13:09:18 | 51.57516 | 8.51012 | 93° | 64km/h | 6956m | -4m/s | -24.6°C | 53% | 425.5hPa | 2.6V | 07:45:57 | 02:51:26 | 00:00:00 | |
| HSKMA3-T | 2026-09-01 13:09:17 | 51.57517 | 8.50986 | 92° | 64km/h | 6960m | -3.8m/s | -24.7°C | 53.2% | 425.3hPa | 2.6V | 07:45:57 | 02:51:25 | 00:00:00 | |
| BIOWL1-15 | 2026-09-01 13:09:13 | 51.57519 | 8.50831 | 91° | 64km/h | 6983m | -4m/s | -24.9°C | 54.1% | 424hPa | 2.6V | 07:45:57 | 02:51:19 | 00:00:00 | |
| DL4XJ-10 | 2026-09-01 13:09:13 | 51.57518 | 8.50883 | 93° | 64km/h | 6975m | -3.9m/s | -27.0°C | 0% | 0hPa | 2.5V | 00:00:00 | 00:00:00 | 00:00:00 | |
| DD1CC9-15 | 2026-09-01 13:09:12 | 51.57518 | 8.50883 | 93° | 64km/h | 6975m | -4.0m/s | -24.8°C | 49.3% | 424.4hPa | 2.5V | 07:45:00 | 00:00:00 | 00:00:00 | |
| DO3DL | 2026-09-01 13:09:11 | 51.57518 | 8.50857 | 92° | 64km/h | 6980m | -4.1m/s | -24.9°C | 49.5% | 424.2hPa | 2.5V | 07:45:00 | 00:00:00 | 00:00:00 | |
| DB0DAN | 2026-09-01 13:09:10 | 51.57519 | 8.50806 | 92° | 60km/h | 6988m | -4m/s | -24.9°C | 49.7% | 423.68hPa | 2.5V | 00:00:00 | 00:00:00 | 00:00:00 | |
| DL1XH-west | 2026-09-01 13:09:08 | 51.57521 | 8.50754 | 91° | 66km/h | 6995m | -4.1m/s | -25°C | 54.4% | 423.2hPa | 2.5V | 07:45:57 | 02:51:16 | 00:00:00 | |
| DO2JMG | 2026-09-01 13:09:07 | 51.57521 | 8.50728 | 90° | 64km/h | 6999m | -3.9m/s | -25.1°C | 54.5% | 423hPa | 2.6V | 07:45:57 | 02:51:15 | 00:00:00 | |
| HSKMA3-T | 2026-09-01 13:09:06 | 51.57521 | 8.50702 | 90° | 62km/h | 7003m | -3.8m/s | -25.1°C | 54.3% | 422.8hPa | 2.6V | 07:45:57 | 02:51:14 | 00:00:00 | |
| BIOWL1-15 | 2026-09-01 13:09:02 | 51.57522 | 8.50551 | 93° | 62km/h | 7027m | -3.9m/s | -25.3°C | 53.8% | 421.4hPa | 2.5V | 07:45:57 | 02:51:08 | 00:00:00 | |
| DL1XH-west | 2026-09-01 13:08:57 | 51.57523 | 8.50475 | 92° | 62km/h | 7038m | -3.8m/s | -25.4°C | 53.9% | 420.7hPa | 2.6V | 07:45:57 | 02:51:05 | 00:00:00 | |
| HSKMA3-T | 2026-09-01 13:08:56 | 51.57524 | 8.50450 | 94° | 62km/h | 7042m | -4m/s | -25.4°C | 53.6% | 420.5hPa | 2.6V | 07:45:57 | 02:51:04 | 00:00:00 | |
| BIOWL1-15 | 2026-09-01 13:08:52 | 51.57527 | 8.50296 | 92° | 64km/h | 7066m | -4m/s | -25.6°C | 53.2% | 419.1hPa | 2.6V | 07:45:57 | 02:50:58 | 00:00:00 | |
| DL3AQ-11 | 2026-09-01 13:08:51 | 51.57527 | 8.50296 | 91° | 62km/h | 7066m | -4.0m/s | -25.6°C | 48.5% | 419.1hPa | 2.5V | 00:00:00 | 00:00:00 | 00:00:00 | |
| DB0NH | 2026-09-01 13:08:49 | 51.57527 | 8.50270 | 90° | 62km/h | 7071m | -4.1m/s | -25.6°C | 50.9% | 418.8hPa | 2.5V | 00:00:00 | 02:50:57 | 00:00:00 | |
| DM0DOS-11 | 2026-09-01 13:08:48 | 51.57527 | 8.50195 | 91° | 62km/h | 7083m | -4m/s | -25.7°C | 51.1% | 418.2hPa | 2.6V | 07:45:54 | 02:50:54 | 00:00:00 | |
| DL1XH-west | 2026-09-01 13:08:47 | 51.57527 | 8.50220 | 91° | 60km/h | 7079m | -4m/s | -25.7°C | 53.1% | 418.5hPa | 2.6V | 07:45:57 | 02:50:55 | 00:00:00 | |
| HSKMA3-T | 2026-09-01 13:08:46 | 51.57527 | 8.50195 | 92° | 62km/h | 7083m | -4m/s | -25.7°C | 53.2% | 418.2hPa | 2.6V | 07:45:57 | 02:50:54 | 00:00:00 | |
| DL8DAS-14 | 2026-09-01 13:08:45 | 51.57528 | 8.50145 | 90° | 60km/h | 7091m | -4.1m/s | -25.8°C | 48.9% | 417.7hPa | 2.5V | 00:00:00 | 00:00:00 | 00:00:00 | |
| DK9SH | 2026-09-01 13:08:43 | 51.57528 | 8.50145 | 91° | 62km/h | 7091m | -4.1m/s | -25.8°C | 48.9% | 417.7hPa | 2.5V | 07:45:00 | 00:00:00 | 00:00:00 | |
| HTAHTA | 2026-09-01 13:08:42 | 51.57529 | 8.50095 | 92° | 60km/h | 7099m | -4.1m/s | -25.9°C | 49.0% | 417.2hPa | 2.5V | 00:00:00 | 00:00:00 | 00:00:00 | |
| DL1XH1-15 | 2026-09-01 13:08:42 | 51.57529 | 8.50095 | 92° | 62km/h | 7099m | -4.1m/s | -25.9°C | 51.5% | 417.2hPa | 2.6V | 07:45:58 | 02:50:50 | 00:00:00 | |
| DB0DAN | 2026-09-01 13:08:40 | 51.57530 | 8.50044 | 91° | 58km/h | 7107m | -4.2m/s | -26°C | 48.8% | 416.75hPa | 2.5V | 00:00:00 | 00:00:00 | 00:00:00 | |
| BIOWL1-15 | 2026-09-01 13:08:40 | 51.57530 | 8.50044 | 91° | 62km/h | 7107m | -4.2m/s | -26°C | 53.4% | 416.8hPa | 2.5V | 07:46:48 | 02:50:48 | 00:00:00 | |
| DL3AQ-11 | 2026-09-01 13:08:40 | 51.57530 | 8.50019 | 91° | 60km/h | 7112m | -4.2m/s | -26.0°C | 48.5% | 416.5hPa | 2.6V | 00:00:00 | 00:00:00 | 00:00:00 | |
| DL4BBY-15 | 2026-09-01 13:08:39 | 51.57530 | 8.50019 | 92° | 62km/h | 7112m | -4.1m/s | -28.2°C | 0% | 0hPa | 2.6V | 00:00:00 | 00:00:00 | 00:00:00 | |
| DM0DOS-11 | 2026-09-01 13:08:38 | 51.57531 | 8.49943 | 90° | 62km/h | 7124m | -4m/s | -26.1°C | 50.8% | 415.8hPa | 2.6V | 07:46:04 | 02:50:44 | 00:00:00 | |
| DL1XH1-15 | 2026-09-01 13:08:36 | 51.57532 | 8.49841 | 88° | 64km/h | 7140m | -4.2m/s | -26.2°C | 50.4% | 414.8hPa | 2.6V | 07:46:08 | 02:50:40 | 00:00:00 | |
| DL1XH-west | 2026-09-01 13:08:36 | 51.57531 | 8.49943 | 90° | 62km/h | 7124m | -4m/s | -26.1°C | 52.7% | 415.8hPa | 2.6V | 07:46:48 | 02:50:44 | 00:00:00 | |
| HSKMA3-T | 2026-09-01 13:08:35 | 51.57531 | 8.49918 | 91° | 62km/h | 7128m | -4m/s | -26.1°C | 52.5% | 415.6hPa | 2.6V | 07:46:48 | 02:50:43 | 00:00:00 | |
| DL1CLM-18 | 2026-09-01 13:08:34 | 51.57531 | 8.49918 | 92° | 62km/h | 7128m | -4.0m/s | -26.1°C | 47.9% | 415.6hPa | 2.6V | 07:46:00 | 00:00:00 | 00:00:00 | |
| DO3DL | 2026-09-01 13:08:32 | 51.57532 | 8.49867 | 92° | 64km/h | 7137m | -3.8m/s | -26.2°C | 47.7% | 415.2hPa | 2.6V | 07:46:00 | 00:00:00 | 00:00:00 | |
| DD1CC1-15 | 2026-09-01 13:08:31 | 51.57532 | 8.49840 | 90° | 64km/h | 7141m | -4.2m/s | -26.2°C | 47.8% | 414.8hPa | 2.6V | 00:00:00 | 00:00:00 | 00:00:00 | |
| BIOWL1-15 | 2026-09-01 13:08:31 | 51.57531 | 8.49766 | 91° | 60km/h | 7152m | -3.9m/s | -26.3°C | 52.3% | 414.2hPa | 2.5V | 07:46:48 | 02:50:37 | 00:00:00 | |
| DM0DOS-11 | 2026-09-01 13:08:28 | 51.57533 | 8.49691 | 90° | 62km/h | 7164m | -3.9m/s | -26.4°C | 50.4% | 413.5hPa | 2.6V | 07:46:14 | 02:50:34 | 00:00:00 | |
| DL1XH-west | 2026-09-01 13:08:26 | 51.57533 | 8.49666 | 92° | 62km/h | 7168m | -4.3m/s | -26.5°C | 52.4% | 413.2hPa | 2.5V | 07:46:48 | 02:50:33 | 00:00:00 | |
| DB0DAN | 2026-09-01 13:08:25 | 51.57533 | 8.49666 | 92° | 58km/h | 7168m | -4.3m/s | -26.5°C | 47.8% | 413.24hPa | 2.5V | 00:00:00 | 00:00:00 | 00:00:00 | |
| BIOWL9-15 | 2026-09-01 13:08:25 | 51.57533 | 8.49666 | 91° | 60km/h | 7168m | -4.3m/s | -26.5°C | 47.8% | 413.2hPa | 2.6V | 00:00:00 | 00:00:00 | 00:00:00 | |
| DL1XH1-15 | 2026-09-01 13:08:24 | 51.57535 | 8.49590 | 90° | 64km/h | 7180m | -3.9m/s | -26.6°C | 50.7% | 412.6hPa | 2.6V | 07:46:18 | 02:50:30 | 00:00:00 | |
| HSKMA3-T | 2026-09-01 13:08:24 | 51.57534 | 8.49641 | 93° | 62km/h | 7172m | -4.2m/s | -26.5°C | 52.6% | 413hPa | 2.5V | 07:46:48 | 02:50:32 | 00:00:00 | |
| BIOWL1-15 | 2026-09-01 13:08:21 | 51.57535 | 8.49514 | 92° | 62km/h | 7192m | -4m/s | -26.7°C | 53.1% | 411.9hPa | 2.5V | 07:46:48 | 02:50:27 | 00:00:00 | |
| DJ2DS-15 | 2026-09-01 13:08:21 | 51.57535 | 8.49564 | 90° | 62km/h | 7184m | -4.0m/s | -26.6°C | 50.8% | 412.3hPa | 2.6V | 00:00:00 | 02:50:29 | 00:00:00 | |
| DB0NH | 2026-09-01 13:08:19 | 51.57535 | 8.49514 | 92° | 62km/h | 7192m | -4.0m/s | -26.7°C | 51.0% | 411.8hPa | 2.6V | 00:00:00 | 02:50:27 | 00:00:00 | |
| DM0DOS-11 | 2026-09-01 13:08:18 | 51.57536 | 8.49437 | 89° | 62km/h | 7205m | -4m/s | -26.8°C | 51.3% | 411.1hPa | 2.6V | 07:46:24 | 02:50:24 | 00:00:00 | |
| DL4XJ-10 | 2026-09-01 13:08:18 | 51.57536 | 8.49488 | 92° | 62km/h | 7196m | -4.0m/s | -28.9°C | 0% | 0hPa | 2.6V | 00:00:00 | 00:00:00 | 00:00:00 | |
| DL1XH1-15 | 2026-09-01 13:08:17 | 51.57536 | 8.49336 | 88° | 60km/h | 7221m | -3.9m/s | -27°C | 51.4% | 410.3hPa | 2.6V | 07:46:28 | 02:50:20 | 00:00:00 | |
| DL1XH-west | 2026-09-01 13:08:15 | 51.57536 | 8.49412 | 90° | 62km/h | 7209m | -4.2m/s | -26.9°C | 53.6% | 411hPa | 2.5V | 07:46:48 | 02:50:23 | 00:00:00 | |
| HSKMA3-T | 2026-09-01 13:08:13 | 51.57536 | 8.49361 | 89° | 62km/h | 7217m | -4m/s | -26.9°C | 53.6% | 410.4hPa | 2.6V | 07:46:48 | 02:50:21 | 00:00:00 | |
| BIOWL1-15 | 2026-09-01 13:08:11 | 51.57536 | 8.49261 | 90° | 64km/h | 7233m | -4.1m/s | -27.1°C | 53.1% | 409.6hPa | 2.5V | 07:46:48 | 02:50:17 | 00:00:00 | |
| DB0DAN | 2026-09-01 13:08:10 | 51.57535 | 8.49287 | 91° | 58km/h | 7229m | -4m/s | -27°C | 48.3% | 409.74hPa | 2.5V | 00:00:00 | 00:00:00 | 00:00:00 | |
| DL4BBY-15 | 2026-09-01 13:08:10 | 51.57536 | 8.49261 | 91° | 62km/h | 7233m | -4.0m/s | -29.3°C | 0% | 0hPa | 2.5V | 00:00:00 | 00:00:00 | 00:00:00 | |
| DL1ZP-14 | 2026-09-01 13:08:08 | 51.57536 | 8.49235 | 89° | 62km/h | 7237m | -4.1m/s | -27.1°C | 48.2% | 409.3hPa | 2.5V | 00:00:00 | 00:00:00 | 00:00:00 | |
| DL1XH1-15 | 2026-09-01 13:08:07 | 51.57536 | 8.49081 | 89° | 62km/h | 7262m | -4.3m/s | -27.4°C | 51% | 407.8hPa | 2.5V | 07:46:38 | 02:50:10 | 00:00:00 | |
| DM0DOS-11 | 2026-09-01 13:08:07 | 51.57536 | 8.49185 | 91° | 62km/h | 7245m | -4.2m/s | -27.2°C | 51% | 408.8hPa | 2.6V | 07:46:34 | 02:50:14 | 00:00:00 | |
| DL1XH-west | 2026-09-01 13:08:04 | 51.57536 | 8.49132 | 89° | 64km/h | 7254m | -4.1m/s | -27.3°C | 53.4% | 408.2hPa | 2.5V | 07:46:48 | 02:50:12 | 00:00:00 | |
| HSKMA3-T | 2026-09-01 13:08:03 | 51.57536 | 8.49106 | 88° | 64km/h | 7258m | -4.2m/s | -27.3°C | 53.4% | 408.1hPa | 2.5V | 07:46:48 | 02:50:11 | 00:00:00 | |
| DO2JMG | 2026-09-01 13:08:02 | 51.57536 | 8.49081 | 89° | 62km/h | 7262m | -4.3m/s | -27.4°C | 53.3% | 407.9hPa | 2.5V | 07:46:48 | 02:50:10 | 00:00:00 | |
| DL3OBA | 2026-09-01 13:08:01 | 51.57536 | 8.49081 | 90° | 62km/h | 7262m | -4.3m/s | -27.4°C | 48.3% | 407.8hPa | 2.6V | 07:46:00 | 00:00:00 | 00:00:00 | |
| DL3AQ-11 | 2026-09-01 13:07:59 | 51.57535 | 8.49004 | 87° | 60km/h | 7275m | -4.3m/s | -27.5°C | 48.3% | 407.2hPa | 2.6V | 00:00:00 | 00:00:00 | 00:00:00 | |
| DM0DOS-11 | 2026-09-01 13:07:58 | 51.57534 | 8.48928 | 89° | 64km/h | 7288m | -4.3m/s | -27.6°C | 51.3% | 406.4hPa | 2.6V | 07:46:44 | 02:50:04 | 00:00:00 | |
| BIOWL1-15 | 2026-09-01 13:07:58 | 51.57534 | 8.48979 | 89° | 62km/h | 7280m | -4.1m/s | -27.5°C | 53.4% | 407hPa | 2.5V | 07:46:48 | 02:50:06 | 00:00:00 | |
| DL8OAI-8 | 2026-09-01 13:07:57 | 51.57534 | 8.48979 | 90° | 62km/h | 7280m | -4.1m/s | -27.5°C | 48.6% | 407.0hPa | 2.6V | 07:46:00 | 00:00:00 | 00:00:00 | |
| DL1XH1-15 | 2026-09-01 13:07:56 | 51.57532 | 8.48825 | 87° | 64km/h | 7305m | -4.5m/s | -27.8°C | 51.6% | 405.4hPa | 2.6V | 07:46:48 | 02:50:00 | 00:00:00 | |
| HSKMA3-T | 2026-09-01 13:07:52 | 51.57532 | 8.48825 | 88° | 64km/h | 7305m | -4.5m/s | -27.8°C | 53.6% | 405.4hPa | 2.6V | 07:46:48 | 02:50:00 | 00:00:00 | |
| DO2JMG | 2026-09-01 13:07:51 | 51.57531 | 8.48800 | 86° | 62km/h | 7310m | -4.2m/s | -27.8°C | 53.4% | 405.2hPa | 2.6V | 07:47:39 | 02:49:59 | 00:00:00 | |
| BIOWL1-15 | 2026-09-01 13:07:48 | 51.57530 | 8.48725 | 88° | 64km/h | 7322m | -4.2m/s | -27.9°C | 53% | 404.5hPa | 2.5V | 07:47:39 | 02:49:56 | 00:00:00 | |
| DM0DOS-11 | 2026-09-01 13:07:47 | 51.57528 | 8.48674 | 86° | 60km/h | 7331m | -4.3m/s | -27.9°C | 50.4% | 404.1hPa | 2.6V | 07:46:54 | 02:49:54 | 00:00:00 | |
| DJ2DS-15 | 2026-09-01 13:07:47 | 51.57528 | 8.48674 | 86° | 60km/h | 7330m | -4.4m/s | -28.0°C | 47.7% | 404.1hPa | 2.5V | 00:00:00 | 00:00:00 | 00:00:00 | |
| DD8BA-10 | 2026-09-01 13:07:46 | 51.57528 | 8.48674 | 87° | 64km/h | 7331m | -4.3m/s | -27.9°C | 50.4% | 404.0hPa | 2.5V | 00:00:00 | 00:00:00 | 00:00:00 | |
| DL1XH1-15 | 2026-09-01 13:07:44 | 51.57526 | 8.48572 | 86° | 64km/h | 7348m | -4.2m/s | -28.1°C | 50.1% | 403.1hPa | 2.5V | 07:46:58 | 02:49:50 | 00:00:00 | |
| HSKMA3-T | 2026-09-01 13:07:41 | 51.57525 | 8.48546 | 87° | 64km/h | 7352m | -4.4m/s | -28.1°C | 52.3% | 402.9hPa | 2.5V | 07:47:39 | 02:49:49 | 00:00:00 | |
| BIOWL1-15 | 2026-09-01 13:07:37 | 51.57522 | 8.48441 | 86° | 66km/h | 7369m | -4.4m/s | -28.3°C | 52.6% | 401.8hPa | 2.5V | 07:47:39 | 02:49:45 | 00:00:00 | |
| DL1XH-west | 2026-09-01 13:07:36 | 51.57511 | 8.48121 | 86° | 68km/h | 7422m | -4.3m/s | -28.7°C | 50.5% | 398.9hPa | 2.6V | 07:47:39 | 02:49:33 | 00:00:00 | |
| HSKMA3-T | 2026-09-01 13:07:31 | 51.57516 | 8.48281 | 88° | 64km/h | 7395m | -4.4m/s | -28.5°C | 52.2% | 400.4hPa | 2.6V | 07:47:39 | 02:49:39 | 00:00:00 | |
| BIOWL1-15 | 2026-09-01 13:07:27 | 51.57512 | 8.48175 | 87° | 66km/h | 7413m | -4.2m/s | -28.7°C | 51.5% | 399.5hPa | 2.6V | 07:47:39 | 02:49:35 | 00:00:00 | |
| DD1CC2-15 | 2026-09-01 13:07:26 | 51.57512 | 8.48175 | 88° | 66km/h | 7413m | -4.2m/s | -28.7°C | 46.7% | 399.5hPa | 2.6V | 07:47:00 | 00:00:00 | 00:00:00 | |
| DB0DAN | 2026-09-01 13:07:25 | 51.57511 | 8.48121 | 86° | 64km/h | 7422m | -4.3m/s | -28.7°C | 45.6% | 398.93hPa | 2.6V | 00:00:00 | 00:00:00 | 00:00:00 | |
| DL1XH-west | 2026-09-01 13:07:21 | 51.57507 | 8.48015 | 87° | 66km/h | 7439m | -4.4m/s | -28.8°C | 48.5% | 397.9hPa | 2.6V | 07:47:39 | 02:49:29 | 00:00:00 | |
| HSKMA3-T | 2026-09-01 13:07:20 | 51.57506 | 8.47988 | 86° | 66km/h | 7443m | -4.3m/s | -28.9°C | 48.5% | 397.8hPa | 2.6V | 07:47:39 | 02:49:28 | 00:00:00 | |
| BIOWL1-15 | 2026-09-01 13:07:16 | 51.57503 | 8.47882 | 86° | 66km/h | 7461m | -4.3m/s | -29°C | 48.1% | 396.8hPa | 2.5V | 07:47:39 | 02:49:24 | 00:00:00 | |
| DD8BA-10 | 2026-09-01 13:07:16 | 51.57503 | 8.47882 | 87° | 64km/h | 7461m | -4.2m/s | -28.9°C | 45.6% | 396.8hPa | 2.5V | 00:00:00 | 00:00:00 | 00:00:00 | |
| DL1XH1-15 | 2026-09-01 13:07:15 | 51.57499 | 8.47751 | 85° | 64km/h | 7482m | -4.4m/s | -29.2°C | 45.6% | 395.6hPa | 2.5V | 07:47:29 | 02:49:19 | 00:00:00 | |
| DL1XH-west | 2026-09-01 13:07:11 | 51.57498 | 8.47751 | 86° | 64km/h | 7482m | -4.4m/s | -29.2°C | 48.2% | 395.6hPa | 2.5V | 07:47:39 | 02:49:19 | 00:00:00 | |
| DB0DAN | 2026-09-01 13:07:10 | 51.57497 | 8.47725 | 86° | 60km/h | 7486m | -4.2m/s | -29.2°C | 43.1% | 395.35hPa | 2.5V | 00:00:00 | 00:00:00 | 00:00:00 | |
| HSKMA3-T | 2026-09-01 13:07:10 | 51.57497 | 8.47725 | 87° | 62km/h | 7486m | -4.2m/s | -29.2°C | 48.2% | 395.4hPa | 2.5V | 07:47:39 | 02:49:18 | 00:00:00 | |
| DO2JMG | 2026-09-01 13:07:09 | 51.57497 | 8.47700 | 88° | 64km/h | 7490m | -4.5m/s | -29.3°C | 48.2% | 395.1hPa | 2.6V | 07:47:39 | 02:49:17 | 00:00:00 | |
| BIOWL1-15 | 2026-09-01 13:07:06 | 51.57494 | 8.47621 | 85° | 64km/h | 7503m | -4.5m/s | -29.4°C | 48.4% | 394.4hPa | 2.5V | 07:47:39 | 02:49:14 | 00:00:00 | |
| DD8BA-10 | 2026-09-01 13:07:06 | 51.57494 | 8.47621 | 86° | 66km/h | 7503m | -4.4m/s | -29.3°C | 45.7% | 394.3hPa | 2.5V | 00:00:00 | 00:00:00 | 00:00:00 | |
| DL1NUX | 2026-09-01 13:07:05 | 51.57487 | 8.47464 | 86° | 66km/h | 7529m | -4.2m/s | -29.6°C | 45.9% | 393hPa | 2.6V | 07:47:40 | 02:49:08 | 00:00:00 | |
| DL3AQ-11 | 2026-09-01 13:07:04 | 51.57491 | 8.47543 | 85° | 64km/h | 7516m | -4.4m/s | -29.5°C | 43.0% | 393.7hPa | 2.6V | 00:00:00 | 00:00:00 | 00:00:00 | |
| AU51GT2 | 2026-09-01 13:07:02 | 51.57489 | 8.47516 | 85° | 64km/h | 7521m | -4.5m/s | -29.6°C | 43.2% | 393.5hPa | 2.6V | 00:00:00 | 00:00:00 | 00:00:00 | |
| DJ2DS-15 | 2026-09-01 13:07:01 | 51.57488 | 8.47490 | 87° | 66km/h | 7525m | -4.2m/s | -29.5°C | 45.9% | 393.2hPa | 2.6V | 00:00:00 | 02:49:09 | 00:00:00 | |
| DM0DOS-11 | 2026-09-01 13:07:00 | 51.57482 | 8.47358 | 86° | 66km/h | 7547m | -4.4m/s | -29.8°C | 45.5% | 392hPa | 2.6V | 07:47:44 | 02:49:04 | 00:00:00 | |
| DL1XH-west | 2026-09-01 13:07:00 | 51.57487 | 8.47464 | 87° | 66km/h | 7529m | -4.2m/s | -29.6°C | 48.4% | 393.1hPa | 2.6V | 07:48:30 | 02:49:08 | 00:00:00 | |
| HSKMA3-T | 2026-09-01 13:06:59 | 51.57486 | 8.47437 | 85° | 68km/h | 7534m | -4.3m/s | -29.7°C | 48.3% | 392.7hPa | 2.6V | 07:48:30 | 02:49:07 | 00:00:00 | |
| BIOWL1-15 | 2026-09-01 13:06:56 | 51.57482 | 8.47358 | 87° | 66km/h | 7547m | -4.4m/s | -29.8°C | 47.9% | 392hPa | 2.6V | 07:48:30 | 02:49:04 | 00:00:00 | |
| DB0DAN | 2026-09-01 13:06:55 | 51.57481 | 8.47331 | 87° | 64km/h | 7551m | -4.3m/s | -29.8°C | 42.6% | 391.75hPa | 2.6V | 00:00:00 | 00:00:00 | 00:00:00 | |
| DL1NUX | 2026-09-01 13:06:55 | 51.57473 | 8.47198 | 84° | 66km/h | 7572m | -4.4m/s | -30°C | 44% | 390.6hPa | 2.6V | 07:47:50 | 02:48:58 | 00:00:00 | |
| DL1XH-west | 2026-09-01 13:06:50 | 51.57473 | 8.47198 | 85° | 66km/h | 7572m | -4.4m/s | -30°C | 46.4% | 390.6hPa | 2.6V | 07:48:30 | 02:48:58 | 00:00:00 | |
| DM0DOS-11 | 2026-09-01 13:06:49 | 51.57467 | 8.47092 | 84° | 68km/h | 7591m | -4.4m/s | -30.1°C | 40.2% | 389.6hPa | 2.6V | 07:47:54 | 02:48:54 | 00:00:00 | |
| DO2JMG | 2026-09-01 13:06:49 | 51.57472 | 8.47172 | 84° | 66km/h | 7577m | -4.6m/s | -30.1°C | 45.4% | 390.3hPa | 2.5V | 07:48:30 | 02:48:57 | 00:00:00 | |
| HSKMA3-T | 2026-09-01 13:06:48 | 51.57470 | 8.47145 | 85° | 66km/h | 7582m | -4.8m/s | -30.1°C | 44.5% | 390.1hPa | 2.5V | 07:48:30 | 02:48:56 | 00:00:00 | |
| BIOWL1-15 | 2026-09-01 13:06:47 | 51.57466 | 8.47065 | 83° | 66km/h | 7595m | -4.4m/s | -30.1°C | 42.2% | 389.4hPa | 2.6V | 07:48:30 | 02:48:53 | 00:00:00 | |
| DD8BA-10 | 2026-09-01 13:06:46 | 51.57467 | 8.47092 | 85° | 66km/h | 7591m | -4.4m/s | -30.0°C | 40.2% | 389.6hPa | 2.6V | 00:00:00 | 00:00:00 | 00:00:00 | |
| DL1NUX | 2026-09-01 13:06:45 | 51.57457 | 8.46932 | 83° | 64km/h | 7617m | -4.4m/s | -30.2°C | 39.1% | 388.1hPa | 2.6V | 07:48:00 | 02:48:48 | 00:00:00 | |
| DO2KSM | 2026-09-01 13:06:42 | 51.57460 | 8.46985 | 86° | 66km/h | 7608m | -4.5m/s | -30.1°C | 36.5% | 388.7hPa | 2.6V | 07:48:00 | 00:00:00 | 00:00:00 | |
| DB0DAN | 2026-09-01 13:06:40 | 51.57457 | 8.46932 | 83° | 60km/h | 7617m | -4.4m/s | -30.2°C | 36.6% | 388.15hPa | 2.6V | 00:00:00 | 00:00:00 | 00:00:00 | |
| DL1XH-west | 2026-09-01 13:06:39 | 51.57455 | 8.46907 | 85° | 64km/h | 7622m | -4.2m/s | -30.2°C | 42% | 387.9hPa | 2.6V | 07:48:30 | 02:48:47 | 00:00:00 | |
| DL4BBY-15 | 2026-09-01 13:06:39 | 51.57455 | 8.46906 | 86° | 64km/h | 7622m | -4.2m/s | -32.4°C | 0% | 0hPa | 2.5V | 00:00:00 | 00:00:00 | 00:00:00 | |
| DL3OBA | 2026-09-01 13:06:38 | 51.57455 | 8.46906 | 86° | 64km/h | 7622m | -4.2m/s | -30.2°C | 36.8% | 387.9hPa | 2.5V | 07:48:00 | 00:00:00 | 00:00:00 | |
| DM0DOS-11 | 2026-09-01 13:06:37 | 51.57451 | 8.46827 | 82° | 66km/h | 7634m | -4.2m/s | -30.3°C | 39.5% | 387.3hPa | 2.5V | 07:48:04 | 02:48:44 | 00:00:00 | |
| HSKMA3-T | 2026-09-01 13:06:37 | 51.57453 | 8.46853 | 85° | 68km/h | 7630m | -4.5m/s | -30.3°C | 42.2% | 387.5hPa | 2.5V | 07:48:30 | 02:48:45 | 00:00:00 | |
| SO1NDE-10 | 2026-09-01 13:06:37 | 51.57453 | 8.46853 | 85° | 73km/h | 7630m | -4.5m/s | -30.3°C | 39.5% | 387.5hPa | 2.5V | 00:00:00 | 02:48:45 | 00:00:00 | |
| DL1XH1-15 | 2026-09-01 13:06:36 | 51.57442 | 8.46696 | 83° | 64km/h | 7656m | -4.5m/s | -30.6°C | 40.2% | 386hPa | 2.5V | 07:48:09 | 02:48:39 | 00:00:00 | |
| DO9LL-15 | 2026-09-01 13:06:36 | 51.57451 | 8.46827 | 83° | 64km/h | 7635m | -4.2m/s | -30.3°C | 39.5% | 387.2hPa | 2.5V | 00:00:00 | 02:48:44 | 00:00:00 | |
| DL1NUX | 2026-09-01 13:06:35 | 51.57440 | 8.46670 | 84° | 66km/h | 7661m | -4.6m/s | -30.6°C | 40.2% | 385.8hPa | 2.5V | 07:48:10 | 02:48:38 | 00:00:00 | |
| BIOWL1-15 | 2026-09-01 13:06:35 | 51.57449 | 8.46801 | 84° | 64km/h | 7639m | -4.3m/s | -30.4°C | 42.5% | 387hPa | 2.5V | 07:48:30 | 02:48:43 | 00:00:00 | |
| DJ2DS-15 | 2026-09-01 13:06:35 | 51.57447 | 8.46775 | 84° | 64km/h | 7643m | -4.5m/s | -30.4°C | 37.2% | 386.8hPa | 2.6V | 00:00:00 | 00:00:00 | 00:00:00 | |
| DL4XJ-10 | 2026-09-01 13:06:34 | 51.57447 | 8.46775 | 85° | 64km/h | 7643m | -4.5m/s | -32.6°C | 0% | 0hPa | 2.6V | 00:00:00 | 00:00:00 | 00:00:00 | |
| WPPR-10 | 2026-09-01 13:06:33 | 51.57442 | 8.46696 | 83° | 62km/h | 7656m | -4.5m/s | -30.6°C | 37.6% | 386.0hPa | 2.6V | 00:00:00 | 00:00:00 | 00:00:00 | |
| DM0DOS-11 | 2026-09-01 13:06:31 | 51.57433 | 8.46566 | 85° | 64km/h | 7678m | -4.4m/s | -30.7°C | 40.8% | 384.8hPa | 2.6V | 07:48:14 | 02:48:34 | 00:00:00 | |
| DO2JMG | 2026-09-01 13:06:29 | 51.57436 | 8.46617 | 82° | 64km/h | 7670m | -4.3m/s | -30.7°C | 43.3% | 385.3hPa | 2.6V | 07:48:30 | 02:48:36 | 00:00:00 | |
| HSKMA3-T | 2026-09-01 13:06:27 | 51.57434 | 8.46592 | 83° | 64km/h | 7674m | -4.3m/s | -30.7°C | 43.4% | 385.1hPa | 2.6V | 07:48:30 | 02:48:35 | 00:00:00 | |
| BIOWL1-15 | 2026-09-01 13:06:27 | 51.57431 | 8.46540 | 84° | 66km/h | 7683m | -4.4m/s | -30.8°C | 43.6% | 384.6hPa | 2.5V | 07:48:30 | 02:48:33 | 00:00:00 | |
| DD8BA-10 | 2026-09-01 13:06:26 | 51.57432 | 8.46566 | 86° | 64km/h | 7679m | -4.3m/s | -30.7°C | 40.8% | 384.8hPa | 2.6V | 00:00:00 | 00:00:00 | 00:00:00 | |
| DD1CC2-15 | 2026-09-01 13:06:25 | 51.57432 | 8.46566 | 86° | 64km/h | 7679m | -4.4m/s | -30.7°C | 38.1% | 384.8hPa | 2.6V | 07:48:00 | 00:00:00 | 00:00:00 | |
| DJ2DS-15 | 2026-09-01 13:06:21 | 51.57424 | 8.46436 | 84° | 64km/h | 7701m | -4.6m/s | -30.9°C | 41.0% | 383.6hPa | 2.6V | 00:00:00 | 02:48:29 | 00:00:00 | |
| DK9SH | 2026-09-01 13:06:20 | 51.57424 | 8.46436 | 84° | 66km/h | 7701m | -4.6m/s | -31.0°C | 38.3% | 383.6hPa | 2.6V | 07:48:00 | 00:00:00 | 00:00:00 | |
| DM0DOS-11 | 2026-09-01 13:06:19 | 51.57414 | 8.46306 | 82° | 64km/h | 7723m | -4.4m/s | -31.1°C | 41.4% | 382.4hPa | 2.6V | 07:48:24 | 02:48:24 | 00:00:00 | |
| DL1XH-west | 2026-09-01 13:06:18 | 51.57418 | 8.46358 | 84° | 64km/h | 7714m | -4.3m/s | -31.1°C | 43.7% | 382.8hPa | 2.5V | 07:48:30 | 02:48:26 | 00:00:00 | |
| DO2JMG | 2026-09-01 13:06:17 | 51.57416 | 8.46332 | 83° | 66km/h | 7718m | -4.6m/s | -31.1°C | 43.9% | 382.7hPa | 2.5V | 07:48:30 | 02:48:25 | 00:00:00 | |
| HSKMA3-T | 2026-09-01 13:06:16 | 51.57414 | 8.46306 | 82° | 64km/h | 7723m | -4.4m/s | -31.2°C | 44% | 382.4hPa | 2.6V | 07:48:30 | 02:48:24 | 00:00:00 | |
| BIOWL1-15 | 2026-09-01 13:06:15 | 51.57409 | 8.46229 | 83° | 66km/h | 7736m | -4.4m/s | -31.3°C | 44.4% | 381.7hPa | 2.5V | 07:48:30 | 02:48:21 | 00:00:00 | |
| DL4XJ-10 | 2026-09-01 13:06:14 | 51.57411 | 8.46255 | 85° | 64km/h | 7731m | -4.3m/s | -33.4°C | 0% | 0hPa | 2.5V | 00:00:00 | 00:00:00 | 00:00:00 | |
| DO3DL | 2026-09-01 13:06:13 | 51.57411 | 8.46255 | 86° | 64km/h | 7731m | -4.4m/s | -31.2°C | 39.0% | 381.9hPa | 2.5V | 07:48:00 | 00:00:00 | 00:00:00 | |
| DD1CC3-15 | 2026-09-01 13:06:12 | 51.57409 | 8.46229 | 84° | 66km/h | 7736m | -4.4m/s | -31.3°C | 39.0% | 381.7hPa | 2.5V | 07:48:00 | 00:00:00 | 00:00:00 | |
| DL3AQ-11 | 2026-09-01 13:06:11 | 51.57404 | 8.46152 | 84° | 64km/h | 7748m | -4.2m/s | -31.4°C | 39.5% | 381.0hPa | 2.5V | 00:00:00 | 00:00:00 | 00:00:00 | |
| DL8DAS-14 | 2026-09-01 13:06:10 | 51.57404 | 8.46152 | 84° | 64km/h | 7748m | -4.2m/s | -31.4°C | 39.5% | 381.0hPa | 2.5V | 00:00:00 | 00:00:00 | 00:00:00 | |
| DJ2KF-10 | 2026-09-01 13:06:09 | 51.57402 | 8.46125 | 85° | 62km/h | 7753m | -4.3m/s | -31.4°C | 42.4% | 380.7hPa | 2.5V | 00:00:00 | 02:48:17 | 00:00:00 | |
| DM0DOS-11 | 2026-09-01 13:06:07 | 51.57397 | 8.46048 | 85° | 64km/h | 7765m | -4.1m/s | -31.6°C | 42.7% | 380hPa | 2.5V | 07:48:34 | 02:48:14 | 00:00:00 | |
| DL1XH-west | 2026-09-01 13:06:07 | 51.57399 | 8.46074 | 85° | 64km/h | 7761m | -4.3m/s | -31.5°C | 45.2% | 380.3hPa | 2.5V | 07:49:21 | 02:48:15 | 00:00:00 | |
| DO2JMG | 2026-09-01 13:06:06 | 51.57398 | 8.46048 | 86° | 64km/h | 7765m | -4.1m/s | -31.6°C | 45.3% | 380hPa | 2.5V | 07:50:12 | 02:48:14 | 00:00:00 | |
| HSKMA3-T | 2026-09-01 13:06:05 | 51.57396 | 8.46021 | 85° | 66km/h | 7770m | -4.5m/s | -31.6°C | 45.4% | 379.9hPa | 2.5V | 07:49:21 | 02:48:13 | 00:00:00 | |
| BIOWL1-15 | 2026-09-01 13:06:03 | 51.57393 | 8.45969 | 85° | 64km/h | 7778m | -4.5m/s | -31.7°C | 45.5% | 379.4hPa | 2.6V | 07:49:21 | 02:48:11 | 00:00:00 | |
| WPPR-10 | 2026-09-01 13:06:02 | 51.57390 | 8.45917 | 83° | 62km/h | 7787m | -4.3m/s | -31.8°C | 40.5% | 378.9hPa | 2.6V | 00:00:00 | 00:00:00 | 00:00:00 | |
| DM0DOS-11 | 2026-09-01 13:06:01 | 51.57383 | 8.45794 | 83° | 58km/h | 7808m | -4.2m/s | -32°C | 43.8% | 377.7hPa | 2.6V | 07:48:44 | 02:48:04 | 00:00:00 | |
| HSKMA3-T | 2026-09-01 13:05:55 | 51.57381 | 8.45770 | 85° | 58km/h | 7812m | -4.3m/s | -32°C | 45.9% | 377.5hPa | 2.5V | 07:49:21 | 02:48:03 | 00:00:00 | |
| BIOWL1-15 | 2026-09-01 13:05:53 | 51.57379 | 8.45722 | 86° | 60km/h | 7820m | -4.1m/s | -32.1°C | 46% | 377.1hPa | 2.5V | 07:49:21 | 02:48:01 | 00:00:00 | |
| BIOWL9-15 | 2026-09-01 13:05:50 | 51.57374 | 8.45648 | 83° | 58km/h | 7833m | -4.3m/s | -32.2°C | 41.1% | 376.4hPa | 2.6V | 00:00:00 | 00:00:00 | 00:00:00 | |
| DM0DOS-11 | 2026-09-01 13:05:49 | 51.57367 | 8.45547 | 82° | 62km/h | 7850m | -4.3m/s | -32.4°C | 41.5% | 375.5hPa | 2.6V | 07:48:54 | 02:47:54 | 00:00:00 | |
| DL1XH-west | 2026-09-01 13:05:45 | 51.57364 | 8.45497 | 85° | 64km/h | 7858m | -4.1m/s | -32.4°C | 41.2% | 375.1hPa | 2.6V | 07:49:21 | 02:47:52 | 00:00:00 | |
| HSKMA3-T | 2026-09-01 13:05:45 | 51.57365 | 8.45522 | 85° | 62km/h | 7854m | -4.2m/s | -32.4°C | 42% | 375.4hPa | 2.6V | 07:49:21 | 02:47:53 | 00:00:00 | |
| BIOWL1-15 | 2026-09-01 13:05:43 | 51.57356 | 8.45371 | 86° | 64km/h | 7879m | -4.3m/s | -32.5°C | 37.2% | 374hPa | 2.6V | 07:49:21 | 02:47:47 | 00:00:00 | |
| DB0DAN | 2026-09-01 13:05:40 | 51.57357 | 8.45397 | 86° | 58km/h | 7875m | -4.3m/s | -32.5°C | 33.7% | 374.19hPa | 2.6V | 00:00:00 | 00:00:00 | 00:00:00 | |
| DL8DAS-14 | 2026-09-01 13:05:39 | 51.57355 | 8.45346 | 86° | 62km/h | 7883m | -4.3m/s | -32.6°C | 31.9% | 373.8hPa | 2.5V | 00:00:00 | 00:00:00 | 00:00:00 | |
| DM0DOS-11 | 2026-09-01 13:05:37 | 51.57354 | 8.45295 | 87° | 64km/h | 7892m | -4.3m/s | -32.6°C | 33.3% | 373.3hPa | 2.5V | 07:49:04 | 02:47:44 | 00:00:00 | |
| HSKMA3-T | 2026-09-01 13:05:35 | 51.57353 | 8.45269 | 87° | 66km/h | 7896m | -4.3m/s | -32.6°C | 34.2% | 373.1hPa | 2.5V | 07:49:21 | 02:47:43 | 00:00:00 | |
| DL1XH-west | 2026-09-01 13:05:35 | 51.57352 | 8.45243 | 87° | 64km/h | 7900m | -4.1m/s | -32.6°C | 33% | 372.9hPa | 2.6V | 07:49:21 | 02:47:42 | 00:00:00 | |
| BUE01 | 2026-09-01 13:05:34 | 51.57351 | 8.45217 | 85° | 62km/h | 7904m | -4.2m/s | -32.7°C | 28.1% | 372.6hPa | 2.6V | 00:00:00 | 00:00:00 | 00:00:00 | |
| DL1ZP-14 | 2026-09-01 13:05:33 | 51.57351 | 8.45217 | 85° | 62km/h | 7904m | -4.2m/s | -32.7°C | 28.1% | 372.6hPa | 2.6V | 00:00:00 | 00:00:00 | 00:00:00 | |
| DM0DOS-11 | 2026-09-01 13:05:31 | 51.57346 | 8.45038 | 86° | 64km/h | 7934m | -4m/s | -32.4°C | 23.2% | 371.1hPa | 2.6V | 07:49:14 | 02:47:34 | 00:00:00 | |
| BIOWL1-15 | 2026-09-01 13:05:28 | 51.57347 | 8.45089 | 88° | 62km/h | 7925m | -4.5m/s | -32.5°C | 26.8% | 371.6hPa | 2.6V | 07:49:21 | 02:47:36 | 00:00:00 | |
| HSKMA3-T | 2026-09-01 13:05:25 | 51.57345 | 8.45012 | 85° | 64km/h | 7938m | -4.1m/s | -32.4°C | 24.4% | 370.8hPa | 2.5V | 07:49:21 | 02:47:33 | 00:00:00 | |
| DL1XH-west | 2026-09-01 13:05:24 | 51.57343 | 8.44987 | 86° | 62km/h | 7942m | -4.3m/s | -32.4°C | 24.1% | 370.7hPa | 2.5V | 07:49:21 | 02:47:32 | 00:00:00 | |
| DL1XH1-15 | 2026-09-01 13:05:23 | 51.57342 | 8.44909 | 88° | 66km/h | 7955m | -4.2m/s | -32.5°C | 21.4% | 370hPa | 2.6V | 07:49:19 | 02:47:29 | 00:00:00 | |
| DJ2DS-15 | 2026-09-01 13:05:22 | 51.57342 | 8.44935 | 88° | 64km/h | 7951m | -4.0m/s | -32.4°C | 19.7% | 370.2hPa | 2.6V | 00:00:00 | 00:00:00 | 00:00:00 | |
| DJ2DS-15 | 2026-09-01 13:05:21 | 51.57342 | 8.44908 | 89° | 66km/h | 7955m | -4.1m/s | -32.4°C | 21.4% | 370.0hPa | 2.6V | 07:49:00 | 02:47:29 | 00:00:00 | |
| DL3AQ-11 | 2026-09-01 13:05:20 | 51.57340 | 8.44855 | 88° | 64km/h | 7963m | -4.4m/s | -32.5°C | 18.6% | 369.6hPa | 2.6V | 00:00:00 | 00:00:00 | 00:00:00 | |
| DM0DOS-11 | 2026-09-01 13:05:19 | 51.57340 | 8.44775 | 88° | 68km/h | 7976m | -4.3m/s | -32.5°C | 18.2% | 368.9hPa | 2.6V | 07:49:24 | 02:47:24 | 00:00:00 | |
| BIOWL1-15 | 2026-09-01 13:05:17 | 51.57340 | 8.44802 | 90° | 68km/h | 7972m | -4.4m/s | -32.5°C | 20.6% | 369.1hPa | 2.5V | 07:50:12 | 02:47:25 | 00:00:00 | |
| HSKMA3-T | 2026-09-01 13:05:15 | 51.57340 | 8.44748 | 90° | 66km/h | 7980m | -4.5m/s | -32.5°C | 17.9% | 368.7hPa | 2.6V | 07:50:12 | 02:47:23 | 00:00:00 | |
| DL1XH-west | 2026-09-01 13:05:14 | 51.57340 | 8.44721 | 91° | 68km/h | 7985m | -4.4m/s | -32.3°C | 16.1% | 368.4hPa | 2.6V | 07:50:12 | 02:47:22 | 00:00:00 | |
| BIOWL1-15 | 2026-09-01 13:05:07 | 51.57343 | 8.44506 | 92° | 64km/h | 8017m | -4.1m/s | -31.8°C | 8.5% | 366.7hPa | 2.5V | 07:50:12 | 02:47:14 | 00:00:00 | |
| HSKMA3-T | 2026-09-01 13:05:04 | 51.57344 | 8.44453 | 94° | 68km/h | 8026m | -3.8m/s | -31.7°C | 8.3% | 366.3hPa | 2.6V | 07:50:12 | 02:47:12 | 00:00:00 | |
| DL1XH-west | 2026-09-01 13:05:03 | 51.57345 | 8.44426 | 93° | 68km/h | 8030m | -4.1m/s | -31.7°C | 8.4% | 366.1hPa | 2.6V | 07:50:12 | 02:47:11 | 00:00:00 | |
| DL1XH1-15 | 2026-09-01 13:05:03 | 51.57347 | 8.44372 | 94° | 66km/h | 8038m | -4.3m/s | -31.7°C | 8.3% | 365.7hPa | 2.5V | 07:49:39 | 02:47:09 | 00:00:00 | |
| SONCRA | 2026-09-01 13:05:03 | 51.57346 | 8.44399 | 92° | 66km/h | 8034m | -3.9m/s | -31.7°C | 7.1% | 365.9hPa | 2.5V | 00:00:00 | 00:00:00 | 00:00:00 | |
| DL1ZP-14 | 2026-09-01 13:05:02 | 51.57349 | 8.44318 | 93° | 66km/h | 8046m | -4.2m/s | -31.8°C | 7.3% | 365.2hPa | 2.5V | 00:00:00 | 00:00:00 | 00:00:00 | |
| DJ2DS-15 | 2026-09-01 13:05:01 | 51.57347 | 8.44372 | 95° | 66km/h | 8038m | -4.3m/s | -31.7°C | 8.3% | 365.6hPa | 2.6V | 00:00:00 | 02:47:09 | 00:00:00 | |
| DO3DL | 2026-09-01 13:05:00 | 51.57347 | 8.44372 | 95° | 66km/h | 8038m | -4.3m/s | -31.7°C | 7.1% | 365.7hPa | 2.6V | 07:50:00 | 00:00:00 | 00:00:00 | |
| DM0DOS-11 | 2026-09-01 13:04:59 | 51.57353 | 8.44238 | 93° | 68km/h | 8059m | -4.3m/s | -31.8°C | 9% | 364.6hPa | 2.6V | 07:49:44 | 02:47:04 | 00:00:00 | |
| BIOWL1-15 | 2026-09-01 13:04:56 | 51.57354 | 8.44211 | 93° | 66km/h | 8063m | -4.2m/s | -31.8°C | 9.7% | 364.4hPa | 2.5V | 07:50:12 | 02:47:03 | 00:00:00 | |
| DB0DAN | 2026-09-01 13:04:55 | 51.57354 | 8.44211 | 93° | 62km/h | 8063m | -4.2m/s | -31.8°C | 7.9% | 364.35hPa | 2.5V | 00:00:00 | 00:00:00 | 00:00:00 | |
| HSKMA3-T | 2026-09-01 13:04:54 | 51.57355 | 8.44185 | 94° | 64km/h | 8067m | -4.3m/s | -31.8°C | 9.8% | 364.2hPa | 2.5V | 07:50:12 | 02:47:02 | 00:00:00 | |
| DL1XH-west | 2026-09-01 13:04:52 | 51.57357 | 8.44134 | 94° | 64km/h | 8076m | -4.4m/s | -31.8°C | 9.8% | 363.7hPa | 2.6V | 07:50:12 | 02:47:00 | 00:00:00 | |
| DO2JMG | 2026-09-01 13:04:50 | 51.57360 | 8.44083 | 96° | 62km/h | 8084m | -4.2m/s | -31.9°C | 9.9% | 363.4hPa | 2.6V | 07:50:12 | 02:46:58 | 00:00:00 | |
| BIOWL1-15 | 2026-09-01 13:04:46 | 51.57367 | 8.43980 | 94° | 66km/h | 8099m | -3.8m/s | -31.9°C | 9.8% | 362.6hPa | 2.6V | 07:50:12 | 02:46:54 | 00:00:00 | |
| DD8BA-10 | 2026-09-01 13:04:46 | 51.57367 | 8.43980 | 94° | 66km/h | 8100m | -3.8m/s | -31.9°C | 9.3% | 362.5hPa | 2.5V | 07:49:00 | 00:00:00 | 00:00:00 | |
| DL1XH-15 | 2026-09-01 13:04:43 | 51.57373 | 8.43821 | 94° | 66km/h | 8124m | -4.2m/s | -32°C | 9.3% | 361.2hPa | 2.5V | 07:50:00 | 02:46:48 | 00:00:00 | |
| HSKMA3-T | 2026-09-01 13:04:43 | 51.57370 | 8.43901 | 94° | 68km/h | 8112m | -4.1m/s | -32°C | 9.9% | 361.9hPa | 2.5V | 07:50:12 | 02:46:51 | 00:00:00 | |
| DL1XH-west | 2026-09-01 13:04:41 | 51.57376 | 8.43740 | 93° | 66km/h | 8137m | -4m/s | -32.2°C | 9.8% | 360.7hPa | 2.6V | 07:50:12 | 02:46:45 | 00:00:00 | |
| DO2JMG | 2026-09-01 13:04:39 | 51.57374 | 8.43794 | 94° | 68km/h | 8128m | -4m/s | -32.1°C | 9.8% | 361.1hPa | 2.5V | 07:50:12 | 02:46:47 | 00:00:00 | |
| BIOWL1-15 | 2026-09-01 13:04:35 | 51.57379 | 8.43688 | 96° | 64km/h | 8145m | -4m/s | -32.2°C | 9.7% | 360.3hPa | 2.5V | 07:50:12 | 02:46:43 | 00:00:00 | |
| DL3OBA | 2026-09-01 13:04:35 | 51.57378 | 8.43688 | 97° | 64km/h | 8145m | -4.0m/s | -32.2°C | 7.9% | 360.3hPa | 2.6V | 07:50:00 | 00:00:00 | 00:00:00 | |
| DD1CC1-15 | 2026-09-01 13:04:34 | 51.57378 | 8.43688 | 97° | 64km/h | 8145m | -4.0m/s | -32.2°C | 7.9% | 360.3hPa | 2.6V | 07:50:00 | 00:00:00 | 00:00:00 | |
| DO3DL | 2026-09-01 13:04:33 | 51.57380 | 8.43662 | 98° | 68km/h | 8149m | -3.9m/s | -32.2°C | 7.9% | 360.1hPa | 2.6V | 07:50:00 | 00:00:00 | 00:00:00 | |
| DL1XH1-15 | 2026-09-01 13:04:32 | 51.57384 | 8.43580 | 93° | 66km/h | 8159m | -3.6m/s | -32.2°C | 9% | 359.5hPa | 2.6V | 07:50:09 | 02:46:39 | 00:00:00 | |
| HSKMA3-T | 2026-09-01 13:04:32 | 51.57383 | 8.43607 | 94° | 68km/h | 8156m | -3.6m/s | -32.2°C | 9.5% | 359.7hPa | 2.6V | 07:50:12 | 02:46:40 | 00:00:00 | |
| DL1XH-west | 2026-09-01 13:04:30 | 51.57386 | 8.43553 | 95° | 66km/h | 8163m | -3.5m/s | -32.2°C | 9.4% | 359.4hPa | 2.5V | 07:50:12 | 02:46:38 | 00:00:00 | |
| DM0DOS-11 | 2026-09-01 13:04:29 | 51.57392 | 8.43444 | 95° | 68km/h | 8179m | -4m/s | -32.3°C | 8.8% | 358.5hPa | 2.6V | 07:50:14 | 02:46:34 | 00:00:00 | |
| DO2JMG | 2026-09-01 13:04:28 | 51.57389 | 8.43499 | 96° | 68km/h | 8170m | -4m/s | -32.3°C | 9.3% | 358.9hPa | 2.5V | 07:50:12 | 02:46:36 | 00:00:00 | |
| BIOWL1-15 | 2026-09-01 13:04:25 | 51.57394 | 8.43417 | 97° | 68km/h | 8183m | -3.9m/s | -32.3°C | 9.1% | 358.3hPa | 2.6V | 07:51:03 | 02:46:33 | 00:00:00 | |
| DD1CC2-15 | 2026-09-01 13:04:23 | 51.57396 | 8.43389 | 97° | 69km/h | 8187m | -3.9m/s | -32.4°C | 7.4% | 358.1hPa | 2.6V | 07:51:00 | 00:00:00 | 00:00:00 | |
| DL1XH1-15 | 2026-09-01 13:04:22 | 51.57402 | 8.43306 | 97° | 69km/h | 8199m | -4m/s | -32.3°C | 8.2% | 357.6hPa | 2.6V | 07:50:19 | 02:46:29 | 00:00:00 | |
| HSKMA3-T | 2026-09-01 13:04:22 | 51.57400 | 8.43334 | 97° | 68km/h | 8195m | -3.8m/s | -32.4°C | 8.7% | 357.7hPa | 2.5V | 07:51:03 | 02:46:30 | 00:00:00 | |
| DL1XH-west | 2026-09-01 13:04:20 | 51.57404 | 8.43277 | 97° | 71km/h | 8202m | -4m/s | -32.3°C | 8.4% | 357.3hPa | 2.6V | 07:51:03 | 02:46:28 | 00:00:00 | |
| DM0DOS-11 | 2026-09-01 13:04:19 | 51.57410 | 8.43164 | 96° | 69km/h | 8217m | -3.5m/s | -32.4°C | 8.4% | 356.6hPa | 2.5V | 07:50:24 | 02:46:24 | 00:00:00 | |
| DO2JMG | 2026-09-01 13:04:17 | 51.57408 | 8.43192 | 95° | 69km/h | 8213m | -3.3m/s | -32.4°C | 8.5% | 356.8hPa | 2.5V | 07:51:03 | 02:46:25 | 00:00:00 | |
| BIOWL1-15 | 2026-09-01 13:04:14 | 51.57415 | 8.43078 | 94° | 69km/h | 8228m | -3.8m/s | -32.4°C | 9.4% | 356hPa | 2.5V | 07:51:03 | 02:46:21 | 00:00:00 | |
| DB0NH | 2026-09-01 13:04:14 | 51.57414 | 8.43106 | 96° | 77km/h | 8224m | -3.8m/s | -32.3°C | 8.8% | 356.1hPa | 2.6V | 00:00:00 | 02:46:22 | 00:00:00 | |
| DL1XH-15 | 2026-09-01 13:04:13 | 51.57422 | 8.42963 | 94° | 73km/h | 8243m | -3.9m/s | -32.4°C | 9.7% | 355.2hPa | 2.5V | 07:50:31 | 02:46:17 | 00:00:00 | |
| HSKMA3-T | 2026-09-01 13:04:12 | 51.57417 | 8.43050 | 95° | 69km/h | 8232m | -4m/s | -32.4°C | 9.6% | 355.8hPa | 2.5V | 07:51:03 | 02:46:20 | 00:00:00 | |
| DM0DOS-11 | 2026-09-01 13:04:11 | 51.57428 | 8.42844 | 92° | 75km/h | 8259m | -3.7m/s | -32.4°C | 10.7% | 354.4hPa | 2.6V | 07:50:35 | 02:46:13 | 00:00:00 | |
| DL1XH-west | 2026-09-01 13:04:09 | 51.57422 | 8.42963 | 94° | 73km/h | 8243m | -3.9m/s | -32.4°C | 10.5% | 355.2hPa | 2.5V | 07:51:03 | 02:46:17 | 00:00:00 | |
| DO2JMG | 2026-09-01 13:04:06 | 51.57426 | 8.42874 | 94° | 75km/h | 8255m | -3.8m/s | -32.4°C | 11.4% | 354.6hPa | 2.6V | 07:51:03 | 02:46:14 | 00:00:00 | |
| DL1XH1-15 | 2026-09-01 13:04:06 | 51.57430 | 8.42727 | 91° | 73km/h | 8274m | -4m/s | -32.6°C | 11.2% | 353.7hPa | 2.5V | 07:50:39 | 02:46:09 | 00:00:00 | |
| DL8DAS-14 | 2026-09-01 13:04:06 | 51.57428 | 8.42844 | 92° | 73km/h | 8259m | -3.7m/s | -32.5°C | 9.3% | 354.4hPa | 2.6V | 00:00:00 | 00:00:00 | 00:00:00 | |
| GOEST3-10 | 2026-09-01 13:04:05 | 51.57427 | 8.42844 | 93° | 75km/h | 8259m | -3.7m/s | -32.4°C | 10.7% | 354.4hPa | 2.6V | 00:00:00 | 02:46:13 | 00:00:00 | |
| DL1XH-15 | 2026-09-01 13:04:04 | 51.57430 | 8.42669 | 89° | 69km/h | 8282m | -4m/s | -32.6°C | 11.5% | 353.3hPa | 2.6V | 07:50:41 | 02:46:07 | 00:00:00 | |
| BIOWL1-15 | 2026-09-01 13:04:03 | 51.57429 | 8.42785 | 92° | 71km/h | 8266m | -3.8m/s | -32.5°C | 12.1% | 354.1hPa | 2.5V | 07:51:03 | 02:46:11 | 00:00:00 | |
| HSKMA3-T | 2026-09-01 13:04:02 | 51.57429 | 8.42756 | 92° | 71km/h | 8270m | -3.8m/s | -32.5°C | 12.3% | 353.9hPa | 2.5V | 07:51:03 | 02:46:10 | 00:00:00 | |
| DL1XH-west | 2026-09-01 13:03:59 | 51.57430 | 8.42669 | 90° | 69km/h | 8282m | -4m/s | -32.6°C | 12.7% | 353.3hPa | 2.6V | 07:51:03 | 02:46:07 | 00:00:00 | |
| NBG1-10 | 2026-09-01 13:03:59 | 51.57430 | 8.42669 | 90° | 77km/h | 8282m | -4.0m/s | -32.6°C | 11.5% | 353.3hPa | 2.5V | 00:00:00 | 02:46:07 | 00:00:00 | |
| DL1XH1-15 | 2026-09-01 13:03:56 | 51.57436 | 8.42431 | 90° | 73km/h | 8312m | -3.5m/s | -32.8°C | 10.8% | 351.9hPa | 2.5V | 07:50:49 | 02:45:59 | 00:00:00 | |
| DO2JMG | 2026-09-01 13:03:55 | 51.57435 | 8.42553 | 94° | 77km/h | 8297m | -3.4m/s | -32.8°C | 12.8% | 352.5hPa | 2.5V | 07:51:03 | 02:46:03 | 00:00:00 | |
| DO3DL | 2026-09-01 13:03:54 | 51.57434 | 8.42553 | 95° | 77km/h | 8297m | -3.4m/s | -32.8°C | 10.0% | 352.5hPa | 2.6V | 07:51:00 | 00:00:00 | 00:00:00 | |
| DL1XH-15 | 2026-09-01 13:03:53 | 51.57438 | 8.42370 | 92° | 77km/h | 8320m | -3.8m/s | -32.9°C | 10.3% | 351.5hPa | 2.6V | 07:50:51 | 02:45:57 | 00:00:00 | |
| HSKMA3-T | 2026-09-01 13:03:51 | 51.57436 | 8.42431 | 91° | 73km/h | 8313m | -3.5m/s | -32.8°C | 11.9% | 351.9hPa | 2.5V | 07:51:03 | 02:45:59 | 00:00:00 | |
| DC6BW-12 | 2026-09-01 13:03:50 | 51.57436 | 8.42430 | 92° | 73km/h | 8313m | -3.5m/s | -32.8°C | 9.4% | 351.9hPa | 2.5V | 07:51:00 | 00:00:00 | 00:00:00 | |
| DM0DOS-11 | 2026-09-01 13:03:49 | 51.57438 | 8.42278 | 90° | 75km/h | 8331m | -3.8m/s | -33°C | 10.1% | 350.9hPa | 2.5V | 07:50:54 | 02:45:54 | 00:00:00 | |
| DL1XH-west | 2026-09-01 13:03:49 | 51.57437 | 8.42370 | 92° | 77km/h | 8320m | -3.8m/s | -32.9°C | 11.2% | 351.5hPa | 2.6V | 07:51:03 | 02:45:57 | 00:00:00 | |
| DD1CC3-15 | 2026-09-01 13:03:49 | 51.57438 | 8.42370 | 93° | 77km/h | 8320m | -3.8m/s | -32.9°C | 8.9% | 351.5hPa | 2.5V | 07:51:00 | 00:00:00 | 00:00:00 | |
| DL8OAI-8 | 2026-09-01 13:03:48 | 51.57438 | 8.42370 | 93° | 77km/h | 8320m | -3.8m/s | -32.9°C | 8.9% | 351.5hPa | 2.5V | 07:51:00 | 00:00:00 | 00:00:00 | |
| DO3DL | 2026-09-01 13:03:47 | 51.57438 | 8.42339 | 92° | 77km/h | 8323m | -3.7m/s | -32.9°C | 8.8% | 351.3hPa | 2.5V | 07:51:00 | 00:00:00 | 00:00:00 | |
| DL1XH1-15 | 2026-09-01 13:03:46 | 51.57438 | 8.42123 | 90° | 77km/h | 8350m | -3.6m/s | -33.1°C | 10.1% | 350hPa | 2.5V | 07:50:59 | 02:45:49 | 00:00:00 | |
| DO2JMG | 2026-09-01 13:03:44 | 51.57438 | 8.42216 | 90° | 77km/h | 8339m | -4.1m/s | -33.1°C | 11.1% | 350.5hPa | 2.6V | 07:51:03 | 02:45:52 | 00:00:00 | |
| BIOWL1-15 | 2026-09-01 13:03:42 | 51.57438 | 8.42092 | 91° | 77km/h | 8354m | -3.7m/s | -33.2°C | 11% | 349.7hPa | 2.5V | 07:51:03 | 02:45:48 | 00:00:00 | |
| HSKMA3-T | 2026-09-01 13:03:41 | 51.57438 | 8.42123 | 91° | 77km/h | 8350m | -3.6m/s | -33.2°C | 11% | 350hPa | 2.5V | 07:51:03 | 02:45:49 | 00:00:00 | |
| DL1XH-west | 2026-09-01 13:03:39 | 51.57438 | 8.42060 | 89° | 78km/h | 8358m | -4m/s | -33.2°C | 10.9% | 349.6hPa | 2.6V | 07:51:03 | 02:45:47 | 00:00:00 | |
| DO2JMG | 2026-09-01 13:03:34 | 51.57438 | 8.41904 | 89° | 78km/h | 8378m | -3.9m/s | -33.4°C | 11.1% | 348.6hPa | 2.5V | 07:51:54 | 02:45:42 | 00:00:00 | |
| HSKMA3-T | 2026-09-01 13:03:31 | 51.57438 | 8.41809 | 90° | 80km/h | 8389m | -3.5m/s | -33.4°C | 11.4% | 348hPa | 2.5V | 07:51:54 | 02:45:39 | 00:00:00 | |
| BIOWL1-15 | 2026-09-01 13:03:30 | 51.57436 | 8.41713 | 87° | 77km/h | 8400m | -3.6m/s | -33.5°C | 11.8% | 347.5hPa | 2.6V | 07:51:54 | 02:45:36 | 00:00:00 | |
| DL1XH-west | 2026-09-01 13:03:29 | 51.57437 | 8.41744 | 87° | 78km/h | 8396m | -3.3m/s | -33.5°C | 11.6% | 347.7hPa | 2.6V | 07:51:54 | 02:45:37 | 00:00:00 | |
| DO2KSM | 2026-09-01 13:03:28 | 51.57437 | 8.41744 | 88° | 78km/h | 8396m | -3.3m/s | -33.5°C | 9.2% | 347.7hPa | 2.6V | 07:51:00 | 00:00:00 | 00:00:00 | |
| DM0DOS-11 | 2026-09-01 13:03:28 | 51.57434 | 8.41649 | 86° | 80km/h | 8407m | -3.9m/s | -33.6°C | 10.9% | 347.1hPa | 2.5V | 07:51:14 | 02:45:34 | 00:00:00 | |
| DL1XH-15 | 2026-09-01 13:03:27 | 51.57431 | 8.41584 | 86° | 78km/h | 8415m | -4.1m/s | -33.7°C | 11.3% | 346.7hPa | 2.6V | 07:51:16 | 02:45:32 | 00:00:00 | |
| DO2JMG | 2026-09-01 13:03:24 | 51.57431 | 8.41584 | 86° | 78km/h | 8415m | -4.1m/s | -33.7°C | 12.4% | 346.7hPa | 2.6V | 07:51:54 | 02:45:32 | 00:00:00 | |
| HSKMA3-T | 2026-09-01 13:03:20 | 51.57429 | 8.41452 | 92° | 82km/h | 8431m | -4m/s | -33.8°C | 13.1% | 345.9hPa | 2.5V | 07:51:54 | 02:45:28 | 00:00:00 | |
| DL3AQ-11 | 2026-09-01 13:03:19 | 51.57430 | 8.41419 | 93° | 82km/h | 8434m | -3.2m/s | -33.8°C | 10.3% | 345.8hPa | 2.5V | 00:00:00 | 00:00:00 | 00:00:00 | |
| DM0DOS-11 | 2026-09-01 13:03:18 | 51.57436 | 8.41318 | 95° | 82km/h | 8445m | -4m/s | -34°C | 12.1% | 345.2hPa | 2.5V | 07:51:24 | 02:45:24 | 00:00:00 | |
| DL1XH-west | 2026-09-01 13:03:18 | 51.57432 | 8.41385 | 96° | 84km/h | 8438m | -3.4m/s | -33.9°C | 13.2% | 345.6hPa | 2.6V | 07:51:54 | 02:45:26 | 00:00:00 | |
| BIOWL1-15 | 2026-09-01 13:03:17 | 51.57438 | 8.41286 | 95° | 78km/h | 8449m | -3.7m/s | -34°C | 13.5% | 345hPa | 2.5V | 07:51:54 | 02:45:23 | 00:00:00 | |
| DD1CC9-15 | 2026-09-01 13:03:16 | 51.57436 | 8.41318 | 96° | 82km/h | 8445m | -4.1m/s | -34.0°C | 10.6% | 345.2hPa | 2.5V | 07:51:00 | 00:00:00 | 00:00:00 | |
| DL1XH1-15 | 2026-09-01 13:03:15 | 51.57438 | 8.41168 | 83° | 71km/h | 8464m | -3m/s | -34.1°C | 12.8% | 344.3hPa | 2.5V | 07:51:29 | 02:45:19 | 00:00:00 | |
| DO2JMG | 2026-09-01 13:03:15 | 51.57439 | 8.41255 | 94° | 75km/h | 8453m | -3.7m/s | -34°C | 13.7% | 344.8hPa | 2.6V | 07:51:54 | 02:45:22 | 00:00:00 | |
| HSKMA3-T | 2026-09-01 13:03:09 | 51.57433 | 8.41107 | 82° | 80km/h | 8471m | -3.9m/s | -34.2°C | 14.7% | 343.8hPa | 2.6V | 07:51:54 | 02:45:17 | 00:00:00 | |
| DL1XH-west | 2026-09-01 13:03:08 | 51.57432 | 8.40901 | 94° | 78km/h | 8493m | -4.2m/s | -34.3°C | 16.6% | 342.9hPa | 2.6V | 07:51:54 | 02:45:11 | 00:00:00 | |
| DM0DOS-11 | 2026-09-01 13:03:08 | 51.57428 | 8.41001 | 91° | 88km/h | 8482m | -3.5m/s | -34.2°C | 14.3% | 343.4hPa | 2.5V | 07:51:34 | 02:45:14 | 00:00:00 | |
| BIOWL1-15 | 2026-09-01 13:03:05 | 51.57429 | 8.40966 | 93° | 86km/h | 8485m | -4.1m/s | -34.3°C | 16.3% | 343.2hPa | 2.5V | 07:51:54 | 02:45:13 | 00:00:00 | |
| DO2JMG | 2026-09-01 13:03:04 | 51.57431 | 8.40932 | 95° | 80km/h | 8489m | -3.8m/s | -34.3°C | 16.5% | 343hPa | 2.5V | 07:51:54 | 02:45:12 | 00:00:00 | |
| DL1XH1-15 | 2026-09-01 13:03:04 | 51.57434 | 8.40842 | 91° | 68km/h | 8500m | -4m/s | -34.4°C | 15.1% | 342.4hPa | 2.5V | 07:51:39 | 02:45:09 | 00:00:00 | |
| HSKMA3-T | 2026-09-01 13:02:59 | 51.57432 | 8.40787 | 82° | 68km/h | 8508m | -3.8m/s | -34.4°C | 16.4% | 342hPa | 2.5V | 07:51:54 | 02:45:07 | 00:00:00 | |
| DL1ZP-14 | 2026-09-01 13:02:58 | 51.57426 | 8.40729 | 78° | 77km/h | 8516m | -4.3m/s | -34.5°C | 12.5% | 341.7hPa | 2.6V | 00:00:00 | 00:00:00 | 00:00:00 | |
| DM0DOS-11 | 2026-09-01 13:02:57 | 51.57422 | 8.40698 | 79° | 80km/h | 8519m | -4m/s | -34.5°C | 14.1% | 341.5hPa | 2.6V | 07:51:44 | 02:45:04 | 00:00:00 | |
| DD8BA-10 | 2026-09-01 13:02:56 | 51.57422 | 8.40697 | 80° | 82km/h | 8520m | -4.0m/s | -34.4°C | 14.1% | 341.4hPa | 2.6V | 00:00:00 | 00:00:00 | 00:00:00 | |
| DD1CC9-15 | 2026-09-01 13:02:55 | 51.57422 | 8.40697 | 80° | 80km/h | 8520m | -4.0m/s | -34.5°C | 12.4% | 341.5hPa | 2.6V | 07:51:00 | 00:00:00 | 00:00:00 | |
| DL1XH1-15 | 2026-09-01 13:02:54 | 51.57412 | 8.40523 | 91° | 86km/h | 8539m | -3.8m/s | -34.6°C | 14.8% | 340.6hPa | 2.6V | 07:51:49 | 02:44:59 | 00:00:00 | |
| DL1NUX | 2026-09-01 13:02:54 | 51.57414 | 8.40457 | 94° | 77km/h | 8546m | -3.9m/s | -34.7°C | 15.1% | 340.2hPa | 2.5V | 07:51:51 | 02:44:57 | 00:00:00 | |
| DL1XH-west | 2026-09-01 13:02:54 | 51.57415 | 8.40629 | 82° | 89km/h | 8527m | -3.9m/s | -34.6°C | 15.9% | 341.1hPa | 2.5V | 07:51:54 | 02:45:02 | 00:00:00 | |
| DO2JMG | 2026-09-01 13:02:53 | 51.57412 | 8.40593 | 86° | 89km/h | 8531m | -4.5m/s | -34.6°C | 16.1% | 340.9hPa | 2.5V | 07:51:54 | 02:45:01 | 00:00:00 | |
| DM0DOS-11 | 2026-09-01 13:02:51 | 51.57416 | 8.40371 | 86° | 66km/h | 8558m | -3.8m/s | -34.8°C | 15.4% | 339.6hPa | 2.5V | 07:51:54 | 02:44:54 | 00:00:00 | |
| HSKMA3-T | 2026-09-01 13:02:48 | 51.57416 | 8.40427 | 94° | 73km/h | 8550m | -3.8m/s | -34.7°C | 17% | 340hPa | 2.6V | 07:51:54 | 02:44:56 | 00:00:00 | |
| DC6BW-12 | 2026-09-01 13:02:47 | 51.57416 | 8.40427 | 95° | 73km/h | 8550m | -3.8m/s | -34.7°C | 13.4% | 340.0hPa | 2.6V | 07:51:00 | 00:00:00 | 00:00:00 | |
| DD8BA-10 | 2026-09-01 13:02:46 | 51.57416 | 8.40371 | 87° | 77km/h | 8558m | -3.8m/s | -34.7°C | 15.4% | 339.6hPa | 2.6V | 00:00:00 | 00:00:00 | 00:00:00 | |
| DL1LOL-11 | 2026-09-01 13:02:45 | 51.57414 | 8.40344 | 84° | 68km/h | 8562m | -4.0m/s | -34.8°C | 13.6% | 339.4hPa | 2.6V | 00:00:00 | 00:00:00 | 00:00:00 | |
| DL1XH1-15 | 2026-09-01 13:02:44 | 51.57401 | 8.40224 | 81° | 82km/h | 8577m | -4m/s | -35°C | 15.4% | 338.7hPa | 2.6V | 07:51:59 | 02:44:49 | 00:00:00 | |
| DL1NUX | 2026-09-01 13:02:44 | 51.57397 | 8.40156 | 87° | 86km/h | 8585m | -3.5m/s | -35°C | 15.3% | 338.3hPa | 2.5V | 07:52:01 | 02:44:47 | 00:00:00 | |
| BIOWL1-15 | 2026-09-01 13:02:43 | 51.57409 | 8.40288 | 78° | 75km/h | 8570m | -4m/s | -34.9°C | 17.2% | 339.1hPa | 2.6V | 07:52:45 | 02:44:51 | 00:00:00 | |
| DO3DL | 2026-09-01 13:02:42 | 51.57408 | 8.40288 | 79° | 75km/h | 8570m | -4.0m/s | -34.9°C | 13.5% | 339.1hPa | 2.6V | 07:52:00 | 00:00:00 | 00:00:00 | |
| DJ2DS-15 | 2026-09-01 13:02:41 | 51.57401 | 8.40224 | 82° | 78km/h | 8578m | -4.0m/s | -34.9°C | 15.4% | 338.7hPa | 2.6V | 07:51:00 | 02:44:49 | 00:00:00 | |
| DL3AQ-11 | 2026-09-01 13:02:40 | 51.57397 | 8.40156 | 87° | 84km/h | 8585m | -3.5m/s | -35.0°C | 13.4% | 338.3hPa | 2.6V | 00:00:00 | 00:00:00 | 00:00:00 | |
| DL4BBY-15 | 2026-09-01 13:02:39 | 51.57397 | 8.40156 | 88° | 80km/h | 8585m | -3.4m/s | -37.1°C | 0% | 0hPa | 2.6V | 00:00:00 | 00:00:00 | 00:00:00 | |
| DM0DOS-11 | 2026-09-01 13:02:38 | 51.57398 | 8.40058 | 92° | 75km/h | 8596m | -3.7m/s | -35.1°C | 15.4% | 337.8hPa | 2.6V | 07:52:04 | 02:44:44 | 00:00:00 | |
| HSKMA3-T | 2026-09-01 13:02:37 | 51.57397 | 8.40089 | 92° | 78km/h | 8592m | -3.6m/s | -35°C | 17.3% | 337.9hPa | 2.6V | 07:52:45 | 02:44:45 | 00:00:00 | |
| DD1CC8 | 2026-09-01 13:02:37 | 51.57398 | 8.40058 | 92° | 73km/h | 8596m | -3.7m/s | -35.1°C | 13.6% | 337.8hPa | 2.6V | 00:00:00 | 00:00:00 | 00:00:00 | |
| DL4XJ-10 | 2026-09-01 13:02:36 | 51.57397 | 8.40058 | 93° | 73km/h | 8596m | -3.7m/s | -37.2°C | 0% | 0hPa | 2.6V | 00:00:00 | 00:00:00 | 00:00:00 | |
| DD1CC9-15 | 2026-09-01 13:02:35 | 51.57398 | 8.40058 | 94° | 75km/h | 8596m | -3.7m/s | -35.1°C | 13.6% | 337.8hPa | 2.6V | 07:52:00 | 00:00:00 | 00:00:00 | |
| DL1XH1-15 | 2026-09-01 13:02:34 | 51.57393 | 8.39915 | 80° | 77km/h | 8615m | -3.9m/s | -35.3°C | 15.7% | 336.8hPa | 2.6V | 07:52:09 | 02:44:39 | 00:00:00 | |
| DL1NUX | 2026-09-01 13:02:34 | 51.57386 | 8.39850 | 81° | 84km/h | 8623m | -3.8m/s | -35.3°C | 15.6% | 336.4hPa | 2.5V | 07:52:11 | 02:44:37 | 00:00:00 | |
| DO2JMG | 2026-09-01 13:02:33 | 51.57396 | 8.39944 | 82° | 71km/h | 8612m | -3.7m/s | -35.2°C | 17.5% | 337hPa | 2.6V | 07:52:45 | 02:44:40 | 00:00:00 | |
| DL3OBA | 2026-09-01 13:02:30 | 51.57393 | 8.39914 | 81° | 77km/h | 8615m | -3.9m/s | -35.3°C | 13.8% | 336.8hPa | 2.6V | 07:52:00 | 00:00:00 | 00:00:00 | |
| DO3DL | 2026-09-01 13:02:29 | 51.57390 | 8.39883 | 82° | 80km/h | 8619m | -3.6m/s | -35.3°C | 13.7% | 336.6hPa | 2.6V | 07:52:00 | 00:00:00 | 00:00:00 | |
| DC6BW-12 | 2026-09-01 13:02:28 | 51.57384 | 8.39815 | 84° | 86km/h | 8627m | -4.2m/s | -35.4°C | 13.8% | 336.3hPa | 2.6V | 07:52:00 | 00:00:00 | 00:00:00 | |
| DM0DOS-11 | 2026-09-01 13:02:27 | 51.57380 | 8.39746 | 87° | 84km/h | 8635m | -3.7m/s | -35.4°C | 16.2% | 335.9hPa | 2.6V | 07:52:14 | 02:44:34 | 00:00:00 | |
| SONCRA | 2026-09-01 13:02:27 | 51.57380 | 8.39746 | 87° | 84km/h | 8635m | -3.7m/s | -35.4°C | 14.2% | 335.9hPa | 2.6V | 00:00:00 | 00:00:00 | 00:00:00 | |
| DL1XH1-15 | 2026-09-01 13:02:26 | 51.57373 | 8.39596 | 78° | 71km/h | 8653m | -4.3m/s | -35.6°C | 16.4% | 334.9hPa | 2.6V | 07:52:19 | 02:44:29 | 00:00:00 | |
| HSKMA3-T | 2026-09-01 13:02:26 | 51.57380 | 8.39746 | 87° | 84km/h | 8635m | -3.7m/s | -35.4°C | 17.7% | 335.9hPa | 2.6V | 07:52:45 | 02:44:34 | 00:00:00 | |
| DD8BA-10 | 2026-09-01 13:02:26 | 51.57380 | 8.39746 | 88° | 78km/h | 8635m | -3.7m/s | -35.4°C | 16.2% | 335.8hPa | 2.6V | 00:00:00 | 00:00:00 | 00:00:00 | |
| DO2KSM | 2026-09-01 13:02:25 | 51.57380 | 8.39746 | 88° | 84km/h | 8635m | -3.7m/s | -35.4°C | 14.2% | 335.9hPa | 2.6V | 07:52:00 | 00:00:00 | 00:00:00 | |
| DL1NUX | 2026-09-01 13:02:24 | 51.57365 | 8.39536 | 76° | 78km/h | 8662m | -4.1m/s | -35.7°C | 16% | 334.4hPa | 2.6V | 07:52:21 | 02:44:27 | 00:00:00 | |
| BIOWL1-15 | 2026-09-01 13:02:22 | 51.57365 | 8.39536 | 77° | 80km/h | 8662m | -4.1m/s | -35.7°C | 17.8% | 334.5hPa | 2.6V | 07:52:45 | 02:44:27 | 00:00:00 | |
| DL1XH-west | 2026-09-01 13:02:21 | 51.57373 | 8.39596 | 79° | 71km/h | 8653m | -4.3m/s | -35.6°C | 18.3% | 334.9hPa | 2.6V | 07:52:45 | 02:44:29 | 00:00:00 | |
| HSKMA3-T | 2026-09-01 13:02:16 | 51.57353 | 8.39434 | 83° | 89km/h | 8674m | -3.9m/s | -35.7°C | 17.6% | 333.9hPa | 2.5V | 07:52:45 | 02:44:24 | 00:00:00 | |
| DD8BA-10 | 2026-09-01 13:02:16 | 51.57353 | 8.39434 | 83° | 80km/h | 8674m | -3.8m/s | -35.7°C | 15.9% | 333.8hPa | 2.5V | 00:00:00 | 00:00:00 | 00:00:00 | |
| GOEST3-10 | 2026-09-01 13:02:15 | 51.57351 | 8.39397 | 86° | 88km/h | 8678m | -3.7m/s | -35.7°C | 16.0% | 333.7hPa | 2.5V | 07:52:00 | 00:00:00 | 00:00:00 | |
| DL1XH1-15 | 2026-09-01 13:02:14 | 51.57352 | 8.39256 | 93° | 80km/h | 8694m | -4.2m/s | -35.7°C | 17.3% | 333hPa | 2.5V | 07:52:29 | 02:44:19 | 00:00:00 | |
| DL1NUX | 2026-09-01 13:02:14 | 51.57354 | 8.39194 | 91° | 71km/h | 8701m | -4m/s | -35.8°C | 18.3% | 332.6hPa | 2.6V | 07:52:31 | 02:44:17 | 00:00:00 | |
| BIOWL1-15 | 2026-09-01 13:02:12 | 51.57354 | 8.39166 | 89° | 69km/h | 8706m | -4.3m/s | -35.8°C | 21% | 332.4hPa | 2.6V | 07:52:45 | 02:44:16 | 00:00:00 | |
| DL1XH-west | 2026-09-01 13:02:11 | 51.57352 | 8.39256 | 94° | 80km/h | 8694m | -4.2m/s | -35.7°C | 19.3% | 333hPa | 2.5V | 07:52:45 | 02:44:19 | 00:00:00 | |
| HSKMA3-T | 2026-09-01 13:02:06 | 51.57351 | 8.39111 | 81° | 69km/h | 8714m | -3.9m/s | -35.9°C | 21.5% | 332hPa | 2.5V | 07:52:45 | 02:44:14 | 00:00:00 | |
| DD1CC8 | 2026-09-01 13:02:06 | 51.57348 | 8.39083 | 77° | 71km/h | 8718m | -4.1m/s | -35.9°C | 17.1% | 331.8hPa | 2.5V | 00:00:00 | 00:00:00 | 00:00:00 | |
| GOEST3-10 | 2026-09-01 13:02:05 | 51.57347 | 8.39082 | 78° | 73km/h | 8718m | -4.1m/s | -35.8°C | 19.3% | 331.7hPa | 2.5V | 00:00:00 | 00:00:00 | 00:00:00 | |
| DL1NUX | 2026-09-01 13:02:04 | 51.57321 | 8.38886 | 83° | 91km/h | 8742m | -4.2m/s | -36.1°C | 19.6% | 330.6hPa | 2.5V | 07:52:41 | 02:44:07 | 00:00:00 | |
| DO2JMG | 2026-09-01 13:02:00 | 51.57324 | 8.38922 | 80° | 91km/h | 8738m | -4m/s | -36.1°C | 22% | 330.8hPa | 2.5V | 07:52:45 | 02:44:08 | 00:00:00 | |
| BIOWL1-15 | 2026-09-01 13:02:00 | 51.57319 | 8.38849 | 87° | 91km/h | 8746m | -3.8m/s | -36.2°C | 21.9% | 330.5hPa | 2.5V | 07:52:45 | 02:44:06 | 00:00:00 | |
| DL3AQ-11 | 2026-09-01 13:02:00 | 51.57321 | 8.38886 | 83° | 91km/h | 8742m | -4.3m/s | -36.2°C | 17.4% | 330.6hPa | 2.6V | 00:00:00 | 00:00:00 | 00:00:00 | |
| HTAHTA | 2026-09-01 13:01:59 | 51.57319 | 8.38849 | 86° | 89km/h | 8746m | -3.8m/s | -36.2°C | 17.4% | 330.5hPa | 2.6V | 00:00:00 | 00:00:00 | 00:00:00 | |
| DO3DL | 2026-09-01 13:01:57 | 51.57318 | 8.38812 | 91° | 89km/h | 8750m | -3.9m/s | -36.2°C | 17.4% | 330.3hPa | 2.6V | 07:52:00 | 00:00:00 | 00:00:00 | |
| DL1XH1-15 | 2026-09-01 13:01:56 | 51.57319 | 8.38626 | 84° | 68km/h | 8775m | -3.9m/s | -36.4°C | 19.7% | 329.1hPa | 2.6V | 07:52:49 | 02:43:59 | 00:00:00 | |
| HSKMA3-T | 2026-09-01 13:01:56 | 51.57318 | 8.38777 | 92° | 84km/h | 8754m | -4.2m/s | -36.2°C | 21.9% | 330.1hPa | 2.6V | 07:52:45 | 02:44:04 | 00:00:00 | |
| SONCRA | 2026-09-01 13:01:56 | 51.57319 | 8.38744 | 92° | 78km/h | 8758m | -4.1m/s | -36.3°C | 17.2% | 330.0hPa | 2.5V | 00:00:00 | 00:00:00 | 00:00:00 | |
| DB0DAN | 2026-09-01 13:01:55 | 51.57319 | 8.38744 | 93° | 77km/h | 8758m | -4.1m/s | -36.3°C | 17.2% | 329.98hPa | 2.5V | 00:00:00 | 00:00:00 | 00:00:00 | |
| DL1NUX | 2026-09-01 13:01:54 | 51.57313 | 8.38570 | 76° | 71km/h | 8783m | -4m/s | -36.5°C | 19.5% | 328.7hPa | 2.5V | 07:52:51 | 02:43:57 | 00:00:00 | |
| AU51GT2 | 2026-09-01 13:01:52 | 51.57320 | 8.38654 | 87° | 69km/h | 8771m | -4.0m/s | -36.4°C | 17.4% | 329.2hPa | 2.6V | 00:00:00 | 00:00:00 | 00:00:00 | |
| DM0DOS-11 | 2026-09-01 13:01:51 | 51.57292 | 8.38444 | 76° | 89km/h | 8800m | -4.5m/s | -36.7°C | 20% | 328hPa | 2.6V | 07:52:55 | 02:43:53 | 00:00:00 | |
| BIOWL1-15 | 2026-09-01 13:01:50 | 51.57308 | 8.38541 | 75° | 77km/h | 8787m | -4.1m/s | -36.5°C | 21.8% | 328.5hPa | 2.5V | 07:53:36 | 02:43:56 | 00:00:00 | |
| DL1XH-west | 2026-09-01 13:01:50 | 51.57317 | 8.38598 | 80° | 69km/h | 8779m | -4.3m/s | -36.4°C | 21.9% | 328.9hPa | 2.6V | 07:53:36 | 02:43:58 | 00:00:00 | |
| DO2JMG | 2026-09-01 13:01:49 | 51.57313 | 8.38570 | 77° | 71km/h | 8783m | -4m/s | -36.5°C | 21.9% | 328.7hPa | 2.5V | 07:53:36 | 02:43:57 | 00:00:00 | |
| HSKMA3-T | 2026-09-01 13:01:45 | 51.57292 | 8.38444 | 77° | 89km/h | 8800m | -4.5m/s | -36.7°C | 22.2% | 328hPa | 2.6V | 07:53:36 | 02:43:53 | 00:00:00 | |
| DL1XH1-15 | 2026-09-01 13:01:44 | 51.57279 | 8.38297 | 87° | 91km/h | 8816m | -4m/s | -36.8°C | 20.3% | 327.1hPa | 2.6V | 07:52:59 | 02:43:49 | 00:00:00 | |
| DL1NUX | 2026-09-01 13:01:44 | 51.57279 | 8.38227 | 91° | 82km/h | 8824m | -4m/s | -36.9°C | 20.5% | 326.7hPa | 2.6V | 07:53:01 | 02:43:47 | 00:00:00 | |
| DL1XH-west | 2026-09-01 13:01:40 | 51.57279 | 8.38262 | 90° | 86km/h | 8820m | -4.3m/s | -36.8°C | 22.6% | 326.9hPa | 2.6V | 07:53:36 | 02:43:48 | 00:00:00 | |
| DO2JMG | 2026-09-01 13:01:39 | 51.57279 | 8.38227 | 92° | 82km/h | 8824m | -4m/s | -36.9°C | 22.7% | 326.7hPa | 2.6V | 07:53:36 | 02:43:47 | 00:00:00 | |
| BIOWL1-15 | 2026-09-01 13:01:39 | 51.57280 | 8.38166 | 90° | 71km/h | 8832m | -4.2m/s | -36.9°C | 23% | 326.3hPa | 2.5V | 07:53:36 | 02:43:45 | 00:00:00 | |
| HSKMA3-T | 2026-09-01 13:01:34 | 51.57275 | 8.38082 | 79° | 69km/h | 8845m | -4.3m/s | -37°C | 23.6% | 325.8hPa | 2.6V | 07:53:36 | 02:43:42 | 00:00:00 | |
| DL1XH1-15 | 2026-09-01 13:01:33 | 51.57261 | 8.37994 | 74° | 82km/h | 8857m | -4.2m/s | -37.2°C | 21.4% | 325.2hPa | 2.5V | 07:53:09 | 02:43:39 | 00:00:00 | |
| DL1XH-west | 2026-09-01 13:01:30 | 51.57255 | 8.37961 | 75° | 88km/h | 8861m | -4m/s | -37.2°C | 23.8% | 325hPa | 2.5V | 07:53:36 | 02:43:38 | 00:00:00 | |
| DO2JMG | 2026-09-01 13:01:29 | 51.57245 | 8.37890 | 80° | 93km/h | 8869m | -4.4m/s | -37.3°C | 23.8% | 324.6hPa | 2.6V | 07:53:36 | 02:43:36 | 00:00:00 | |
| DL1XH-15 | 2026-09-01 13:01:29 | 51.57237 | 8.37779 | 87° | 88km/h | 8881m | -4.1m/s | -37.4°C | 21.8% | 324.1hPa | 2.5V | 07:53:15 | 02:43:33 | 00:00:00 | |
| BIOWL1-15 | 2026-09-01 13:01:28 | 51.57239 | 8.37815 | 85° | 91km/h | 8877m | -3.9m/s | -37.4°C | 24% | 324.3hPa | 2.5V | 07:53:36 | 02:43:34 | 00:00:00 | |
| HSKMA3-T | 2026-09-01 13:01:24 | 51.57237 | 8.37745 | 89° | 82km/h | 8885m | -4.1m/s | -37.4°C | 24.1% | 323.9hPa | 2.5V | 07:53:36 | 02:43:32 | 00:00:00 | |
| DO3DL | 2026-09-01 13:01:23 | 51.57236 | 8.37745 | 90° | 82km/h | 8885m | -4.1m/s | -37.4°C | 19.4% | 323.9hPa | 2.6V | 07:53:00 | 00:00:00 | 00:00:00 | |
| DL1XH1-15 | 2026-09-01 13:01:22 | 51.57234 | 8.37654 | 83° | 69km/h | 8897m | -4.1m/s | -37.5°C | 21.7% | 323.3hPa | 2.6V | 07:53:19 | 02:43:29 | 00:00:00 | |
| AU51GT2 | 2026-09-01 13:01:21 | 51.57234 | 8.37654 | 83° | 69km/h | 8897m | -4.1m/s | -37.5°C | 19.2% | 323.3hPa | 2.6V | 00:00:00 | 00:00:00 | 00:00:00 | |
| DM0DOS-11 | 2026-09-01 13:01:20 | 51.57201 | 8.37432 | 79° | 93km/h | 8927m | -4.5m/s | -37.9°C | 22% | 321.9hPa | 2.6V | 07:53:26 | 02:43:22 | 00:00:00 | |
| DL1XH-west | 2026-09-01 13:01:19 | 51.57227 | 8.37598 | 76° | 73km/h | 8906m | -4.1m/s | -37.6°C | 24.1% | 322.9hPa | 2.5V | 07:53:36 | 02:43:27 | 00:00:00 | |
| DD1CC2-15 | 2026-09-01 13:01:19 | 51.57227 | 8.37597 | 77° | 73km/h | 8906m | -4.1m/s | -37.6°C | 19.3% | 322.9hPa | 2.6V | 07:53:00 | 00:00:00 | 00:00:00 | |
| DO2JMG | 2026-09-01 13:01:19 | 51.57223 | 8.37568 | 74° | 77km/h | 8910m | -4m/s | -37.7°C | 24.1% | 322.7hPa | 2.5V | 07:53:36 | 02:43:26 | 00:00:00 | |
| DB0NH | 2026-09-01 13:01:16 | 51.57211 | 8.37503 | 76° | 80km/h | 8919m | -4.1m/s | -37.8°C | 21.9% | 322.3hPa | 2.6V | 00:00:00 | 02:43:24 | 00:00:00 | |
| DL1NUX | 2026-09-01 13:01:14 | 51.57194 | 8.37254 | 90° | 78km/h | 8947m | -4m/s | -38°C | 22.6% | 321hPa | 2.6V | 07:53:31 | 02:43:17 | 00:00:00 | |
| HSKMA3-T | 2026-09-01 13:01:13 | 51.57197 | 8.37395 | 83° | 93km/h | 8931m | -4m/s | -37.9°C | 24.3% | 321.8hPa | 2.5V | 07:53:36 | 02:43:21 | 00:00:00 | |
| DL4XJ-10 | 2026-09-01 13:01:13 | 51.57197 | 8.37395 | 83° | 82km/h | 8932m | -3.9m/s | -40.0°C | 0% | 0hPa | 2.5V | 00:00:00 | 00:00:00 | 00:00:00 | |
| BIOWL9-15 | 2026-09-01 13:01:11 | 51.57194 | 8.37287 | 90° | 82km/h | 8943m | -3.9m/s | -38.0°C | 19.9% | 321.2hPa | 2.5V | 00:00:00 | 00:00:00 | 00:00:00 | |
| DJ2DS-15 | 2026-09-01 13:01:10 | 51.57194 | 8.37287 | 90° | 82km/h | 8943m | -3.9m/s | -38.0°C | 19.9% | 321.2hPa | 2.5V | 00:00:00 | 00:00:00 | 00:00:00 | |
| DM0DOS-11 | 2026-09-01 13:01:09 | 51.57189 | 8.37138 | 78° | 69km/h | 8964m | -4.5m/s | -38.1°C | 22.8% | 320.2hPa | 2.5V | 07:53:35 | 02:43:13 | 00:00:00 | |
| DL1XH-west | 2026-09-01 13:01:08 | 51.57194 | 8.37223 | 89° | 73km/h | 8952m | -4.6m/s | -38.1°C | 24.8% | 320.8hPa | 2.6V | 07:53:36 | 02:43:16 | 00:00:00 | |
| DO2JMG | 2026-09-01 13:01:07 | 51.57192 | 8.37166 | 83° | 68km/h | 8960m | -3.9m/s | -38.1°C | 25.1% | 320.4hPa | 2.5V | 07:53:36 | 02:43:14 | 00:00:00 | |
| DL1XH-15 | 2026-09-01 13:01:06 | 51.57169 | 8.37016 | 75° | 88km/h | 8980m | -4m/s | -38.4°C | 23.2% | 319.4hPa | 2.5V | 07:53:39 | 02:43:09 | 00:00:00 | |
| DO9LL-15 | 2026-09-01 13:01:06 | 51.57192 | 8.37166 | 84° | 82km/h | 8960m | -3.8m/s | -38.0°C | 22.8% | 320.3hPa | 2.5V | 00:00:00 | 02:43:14 | 00:00:00 | |
| DL1NUX | 2026-09-01 13:01:04 | 51.57160 | 8.36944 | 81° | 93km/h | 8989m | -4.3m/s | -38.4°C | 23.3% | 319hPa | 2.5V | 07:53:41 | 02:43:07 | 00:00:00 | |
| HSKMA3-T | 2026-09-01 13:01:03 | 51.57180 | 8.37080 | 74° | 77km/h | 8972m | -4m/s | -38.3°C | 25.2% | 319.8hPa | 2.6V | 07:54:27 | 02:43:11 | 00:00:00 | |
| SO1NDE-10 | 2026-09-01 13:01:03 | 51.57180 | 8.37080 | 75° | 82km/h | 8972m | -4.0m/s | -38.2°C | 22.9% | 319.8hPa | 2.5V | 07:53:00 | 02:43:11 | 00:00:00 | |
| DJ2DS-15 | 2026-09-01 13:01:00 | 51.57164 | 8.36980 | 79° | 84km/h | 8985m | -4.0m/s | -38.4°C | 23.3% | 319.2hPa | 2.5V | 00:00:00 | 02:43:08 | 00:00:00 | |
| DM0DOS-11 | 2026-09-01 13:00:59 | 51.57156 | 8.36800 | 90° | 82km/h | 9005m | -4.3m/s | -38.5°C | 24.1% | 318.3hPa | 2.5V | 07:53:45 | 02:43:03 | 00:00:00 | |
| DL1XH-west | 2026-09-01 13:00:58 | 51.57157 | 8.36907 | 85° | 91km/h | 8993m | -4m/s | -38.4°C | 25.7% | 318.9hPa | 2.6V | 07:54:27 | 02:43:06 | 00:00:00 | |
| DO2JMG | 2026-09-01 13:00:55 | 51.57156 | 8.36800 | 91° | 82km/h | 9005m | -4.3m/s | -38.5°C | 26.2% | 318.3hPa | 2.5V | 07:54:27 | 02:43:03 | 00:00:00 | |
| BIOWL1-15 | 2026-09-01 13:00:53 | 51.57124 | 8.36529 | 74° | 88km/h | 9043m | -4.2m/s | -38.9°C | 28.3% | 316.5hPa | 2.5V | 07:54:27 | 02:42:54 | 00:00:00 | |
| HSKMA3-T | 2026-09-01 13:00:52 | 51.57154 | 8.36709 | 84° | 69km/h | 9018m | -4m/s | -38.6°C | 26.9% | 317.7hPa | 2.5V | 07:54:27 | 02:43:00 | 00:00:00 | |
| WPPR-10 | 2026-09-01 13:00:52 | 51.57147 | 8.36653 | 75° | 71km/h | 9026m | -4.3m/s | -38.7°C | 22.4% | 317.3hPa | 2.6V | 00:00:00 | 00:00:00 | 00:00:00 | |
| DL3AQ-11 | 2026-09-01 13:00:51 | 51.57147 | 8.36653 | 75° | 71km/h | 9026m | -4.3m/s | -38.7°C | 22.4% | 317.3hPa | 2.6V | 00:00:00 | 00:00:00 | 00:00:00 | |
| AU51GT2 | 2026-09-01 13:00:50 | 51.57147 | 8.36653 | 75° | 71km/h | 9026m | -4.3m/s | -38.7°C | 22.4% | 317.3hPa | 2.6V | 00:00:00 | 00:00:00 | 00:00:00 | |
| DM0DOS-11 | 2026-09-01 13:00:49 | 51.57118 | 8.36493 | 76° | 91km/h | 9047m | -4.4m/s | -39°C | 26.4% | 316.3hPa | 2.6V | 07:53:55 | 02:42:53 | 00:00:00 | |
| DL1XH-west | 2026-09-01 13:00:47 | 51.57130 | 8.36562 | 73° | 84km/h | 9039m | -4.5m/s | -38.9°C | 28.1% | 316.7hPa | 2.5V | 07:54:27 | 02:42:55 | 00:00:00 | |
| DO2JMG | 2026-09-01 13:00:44 | 51.57113 | 8.36457 | 79° | 93km/h | 9052m | -4.1m/s | -39°C | 28.5% | 316.1hPa | 2.6V | 07:54:27 | 02:42:52 | 00:00:00 | |
| DC6BW-12 | 2026-09-01 13:00:44 | 51.57118 | 8.36493 | 77° | 91km/h | 9048m | -4.4m/s | -39.0°C | 23.5% | 316.3hPa | 2.5V | 07:54:00 | 00:00:00 | 00:00:00 | |
| DL1XH-15 | 2026-09-01 13:00:43 | 51.57103 | 8.36243 | 87° | 75km/h | 9077m | -4m/s | -39.1°C | 27.7% | 314.9hPa | 2.5V | 07:54:02 | 02:42:46 | 00:00:00 | |
| HSKMA3-T | 2026-09-01 13:00:42 | 51.57107 | 8.36381 | 85° | 93km/h | 9060m | -4.4m/s | -39°C | 28.9% | 315.7hPa | 2.5V | 07:54:27 | 02:42:50 | 00:00:00 | |
| DL1XH1-15 | 2026-09-01 13:00:41 | 51.57100 | 8.36184 | 80° | 71km/h | 9085m | -4.2m/s | -39.2°C | 28.2% | 314.6hPa | 2.5V | 07:54:04 | 02:42:44 | 00:00:00 | |
| DL1XH1-15 | 2026-09-01 13:00:41 | 51.57072 | 8.36026 | 75° | 91km/h | 9106m | -4.1m/s | -39.5°C | 29.8% | 313.6hPa | 2.5V | 07:54:09 | 02:42:39 | 00:00:00 | |
| DD1CC3-15 | 2026-09-01 13:00:41 | 51.57106 | 8.36381 | 86° | 93km/h | 9060m | -4.4m/s | -39.0°C | 24.0% | 315.7hPa | 2.6V | 07:54:00 | 00:00:00 | 00:00:00 | |
| DL3AQ-11 | 2026-09-01 13:00:40 | 51.57104 | 8.36274 | 89° | 80km/h | 9073m | -4.4m/s | -39.1°C | 24.4% | 315.2hPa | 2.6V | 00:00:00 | 00:00:00 | 00:00:00 | |
| DL4BBY-15 | 2026-09-01 13:00:39 | 51.57104 | 8.36274 | 90° | 84km/h | 9073m | -4.3m/s | -41.2°C | 0% | 0hPa | 2.6V | 00:00:00 | 00:00:00 | 00:00:00 | |
| DM0DOS-11 | 2026-09-01 13:00:38 | 51.57096 | 8.36155 | 76° | 73km/h | 9089m | -4m/s | -39.2°C | 28.5% | 314.4hPa | 2.6V | 07:54:05 | 02:42:43 | 00:00:00 | |
| DL1XH-west | 2026-09-01 13:00:37 | 51.57102 | 8.36213 | 85° | 73km/h | 9081m | -4m/s | -39.2°C | 30.2% | 314.8hPa | 2.5V | 07:54:27 | 02:42:45 | 00:00:00 | |
| BIOWL1-15 | 2026-09-01 13:00:35 | 51.57096 | 8.36155 | 76° | 73km/h | 9089m | -4m/s | -39.2°C | 30.9% | 314.4hPa | 2.6V | 07:54:27 | 02:42:43 | 00:00:00 | |
| DL1NUX | 2026-09-01 13:00:34 | 51.57063 | 8.35952 | 80° | 95km/h | 9114m | -4.1m/s | -39.5°C | 30.1% | 313.2hPa | 2.5V | 07:54:11 | 02:42:37 | 00:00:00 | |
| DO2JMG | 2026-09-01 13:00:33 | 51.57085 | 8.36094 | 73° | 82km/h | 9097m | -4.6m/s | -39.4°C | 31.6% | 314.1hPa | 2.6V | 07:54:27 | 02:42:41 | 00:00:00 | |
| HSKMA3-T | 2026-09-01 13:00:32 | 51.57079 | 8.36061 | 73° | 88km/h | 9102m | -4.3m/s | -39.4°C | 31.8% | 313.9hPa | 2.5V | 07:54:27 | 02:42:40 | 00:00:00 | |
| DB0ND-19 | 2026-09-01 13:00:30 | 51.57063 | 8.35952 | 80° | 95km/h | 9114m | -4.1m/s | -39.5°C | 26.9% | 313.2hPa | 2.5V | 00:00:00 | 00:00:00 | 00:00:00 | |
| DL8DAS-14 | 2026-09-01 13:00:29 | 51.57060 | 8.35914 | 84° | 93km/h | 9118m | -4.3m/s | -39.5°C | 27.0% | 313.1hPa | 2.5V | 00:00:00 | 00:00:00 | 00:00:00 | |
| DM0DOS-11 | 2026-09-01 13:00:28 | 51.57056 | 8.35805 | 89° | 82km/h | 9132m | -4.3m/s | -39.6°C | 30.7% | 312.5hPa | 2.5V | 07:54:15 | 02:42:33 | 00:00:00 | |
| DL1XH-west | 2026-09-01 13:00:26 | 51.57057 | 8.35840 | 89° | 88km/h | 9127m | -4.2m/s | -39.6°C | 32.6% | 312.7hPa | 2.6V | 07:54:27 | 02:42:34 | 00:00:00 | |
| DD8BA-10 | 2026-09-01 13:00:26 | 51.57057 | 8.35840 | 89° | 78km/h | 9128m | -4.2m/s | -39.5°C | 30.6% | 312.6hPa | 2.6V | 00:00:00 | 00:00:00 | 00:00:00 | |
| DL3OBA | 2026-09-01 13:00:25 | 51.57057 | 8.35840 | 90° | 88km/h | 9128m | -4.2m/s | -39.6°C | 27.4% | 312.7hPa | 2.6V | 00:00:00 | 00:00:00 | 00:00:00 | |
| DL1XH1-15 | 2026-09-01 13:00:24 | 51.57051 | 8.35684 | 79° | 71km/h | 9149m | -4.4m/s | -39.8°C | 31% | 311.7hPa | 2.6V | 07:54:19 | 02:42:29 | 00:00:00 | |
| BIOWL1-15 | 2026-09-01 13:00:24 | 51.57056 | 8.35773 | 89° | 78km/h | 9136m | -4.6m/s | -39.7°C | 32.8% | 312.3hPa | 2.5V | 07:54:27 | 02:42:32 | 00:00:00 | |
| DL1NUX | 2026-09-01 13:00:24 | 51.57042 | 8.35626 | 72° | 77km/h | 9157m | -4.5m/s | -39.9°C | 31.2% | 311.2hPa | 2.6V | 07:54:21 | 02:42:27 | 00:00:00 | |
| DO2JMG | 2026-09-01 13:00:23 | 51.57056 | 8.35742 | 87° | 73km/h | 9140m | -4.2m/s | -39.7°C | 32.9% | 312hPa | 2.5V | 07:54:27 | 02:42:31 | 00:00:00 | |
| HSKMA3-T | 2026-09-01 13:00:21 | 51.57051 | 8.35684 | 80° | 71km/h | 9149m | -4.4m/s | -39.8°C | 33% | 311.7hPa | 2.6V | 07:54:27 | 02:42:29 | 00:00:00 | |
| WPPR-10 | 2026-09-01 13:00:21 | 51.57048 | 8.35656 | 75° | 73km/h | 9153m | -4.2m/s | -39.8°C | 27.7% | 311.5hPa | 2.6V | 00:00:00 | 00:00:00 | 00:00:00 | |
| DJ2DS-15 | 2026-09-01 13:00:20 | 51.57047 | 8.35656 | 76° | 82km/h | 9153m | -4.2m/s | -39.8°C | 31.0% | 311.4hPa | 2.6V | 00:00:00 | 02:42:28 | 00:00:00 | |
| AU51GT2 | 2026-09-01 13:00:19 | 51.57042 | 8.35626 | 72° | 77km/h | 9157m | -4.5m/s | -39.9°C | 28.0% | 311.2hPa | 2.5V | 00:00:00 | 00:00:00 | 00:00:00 | |
| DM0DOS-11 | 2026-09-01 13:00:18 | 51.57018 | 8.35490 | 77° | 95km/h | 9174m | -4.1m/s | -40.1°C | 32.7% | 310.5hPa | 2.5V | 07:54:25 | 02:42:23 | 00:00:00 | |
| DL1XH-west | 2026-09-01 13:00:16 | 51.57023 | 8.35527 | 75° | 93km/h | 9170m | -4.5m/s | -40.1°C | 34.3% | 310.7hPa | 2.5V | 07:54:27 | 02:42:24 | 00:00:00 | |
| DL1NUX | 2026-09-01 13:00:14 | 51.57005 | 8.35271 | 89° | 80km/h | 9200m | -4.1m/s | -40.2°C | 31.2% | 309.3hPa | 2.5V | 07:54:31 | 02:42:17 | 00:00:00 | |
| BIOWL1-15 | 2026-09-01 13:00:13 | 51.57005 | 8.35240 | 89° | 75km/h | 9204m | -4.6m/s | -40.3°C | 32.5% | 309.1hPa | 2.5V | 07:55:18 | 02:42:16 | 00:00:00 | |
| DO2JMG | 2026-09-01 13:00:13 | 51.57007 | 8.35376 | 86° | 93km/h | 9187m | -4.3m/s | -40.2°C | 34.7% | 309.9hPa | 2.6V | 07:55:18 | 02:42:20 | 00:00:00 | |
| HSKMA3-T | 2026-09-01 13:00:10 | 51.57005 | 8.35305 | 89° | 84km/h | 9196m | -4.1m/s | -40.2°C | 33.5% | 309.5hPa | 2.5V | 07:55:18 | 02:42:18 | 00:00:00 | |
| DL1XH-west | 2026-09-01 13:00:06 | 51.57003 | 8.35182 | 83° | 69km/h | 9213m | -4.3m/s | -40.4°C | 32.2% | 308.7hPa | 2.6V | 07:55:18 | 02:42:14 | 00:00:00 | |
| DO9LL-15 | 2026-09-01 13:00:06 | 51.57003 | 8.35182 | 83° | 82km/h | 9213m | -4.2m/s | -40.3°C | 30.4% | 308.7hPa | 2.6V | 00:00:00 | 02:42:14 | 00:00:00 | |
| DL1NUX | 2026-09-01 13:00:04 | 51.56965 | 8.34968 | 75° | 93km/h | 9243m | -4.5m/s | -40.7°C | 29.4% | 307.4hPa | 2.6V | 07:54:41 | 02:42:07 | 00:00:00 | |
| DO2JMG | 2026-09-01 13:00:02 | 51.56985 | 8.35068 | 71° | 78km/h | 9231m | -4.5m/s | -40.5°C | 32% | 307.9hPa | 2.5V | 07:55:18 | 02:42:10 | 00:00:00 | |
| BIOWL1-15 | 2026-09-01 13:00:01 | 51.56978 | 8.35037 | 71° | 84km/h | 9235m | -4.3m/s | -40.6°C | 31.9% | 307.7hPa | 2.5V | 07:55:18 | 02:42:09 | 00:00:00 | |
| HSKMA3-T | 2026-09-01 13:00:00 | 51.56971 | 8.35003 | 73° | 89km/h | 9239m | -4.5m/s | -40.7°C | 31.7% | 307.6hPa | 2.6V | 07:55:18 | 02:42:08 | 00:00:00 | |
| DL3AQ-11 | 2026-09-01 12:59:59 | 51.56965 | 8.34968 | 75° | 91km/h | 9244m | -4.5m/s | -40.7°C | 26.2% | 307.4hPa | 2.5V | 00:00:00 | 00:00:00 | 00:00:00 | |
| DL1XH-15 | 2026-09-01 12:59:58 | 51.56952 | 8.34855 | 84° | 95km/h | 9256m | -4.5m/s | -40.7°C | 28.6% | 306.8hPa | 2.5V | 07:54:44 | 02:42:04 | 00:00:00 | |
| DL1XH-west | 2026-09-01 12:59:55 | 51.56950 | 8.34817 | 87° | 91km/h | 9261m | -4.2m/s | -40.7°C | 30.3% | 306.6hPa | 2.5V | 07:55:18 | 02:42:03 | 00:00:00 | |
| DO2JMG | 2026-09-01 12:59:52 | 51.56949 | 8.34714 | 89° | 78km/h | 9274m | -4.3m/s | -40.8°C | 30.1% | 306hPa | 2.6V | 07:55:18 | 02:42:00 | 00:00:00 | |
| BIOWL1-15 | 2026-09-01 12:59:50 | 51.56947 | 8.34654 | 85° | 71km/h | 9283m | -4.1m/s | -40.9°C | 29.9% | 305.6hPa | 2.5V | 07:55:18 | 02:41:58 | 00:00:00 | |
| HSKMA3-T | 2026-09-01 12:59:49 | 51.56945 | 8.34626 | 80° | 69km/h | 9287m | -4.5m/s | -40.9°C | 29.7% | 305.4hPa | 2.5V | 07:55:18 | 02:41:57 | 00:00:00 | |
| DM0DOS-11 | 2026-09-01 12:59:48 | 51.56924 | 8.34509 | 71° | 84km/h | 9304m | -4.1m/s | -41°C | 26.3% | 304.6hPa | 2.6V | 07:54:55 | 02:41:53 | 00:00:00 | |
| DL1XH-west | 2026-09-01 12:59:45 | 51.56924 | 8.34509 | 71° | 84km/h | 9304m | -4.1m/s | -41°C | 28.7% | 304.6hPa | 2.6V | 07:55:18 | 02:41:53 | 00:00:00 | |
| DL1XH1-15 | 2026-09-01 12:59:43 | 51.56902 | 8.34368 | 81° | 93km/h | 9321m | -4.2m/s | -41.1°C | 26.7% | 303.9hPa | 2.5V | 07:54:59 | 02:41:49 | 00:00:00 | |
| DO2JMG | 2026-09-01 12:59:41 | 51.56902 | 8.34368 | 82° | 93km/h | 9321m | -4.2m/s | -41.1°C | 28.8% | 303.9hPa | 2.5V | 07:55:18 | 02:41:49 | 00:00:00 | |
| DL1XH-15 | 2026-09-01 12:59:41 | 51.56895 | 8.34193 | 88° | 77km/h | 9343m | -4.4m/s | -41.3°C | 27% | 302.9hPa | 2.5V | 07:55:04 | 02:41:44 | 00:00:00 | |
| BIOWL1-15 | 2026-09-01 12:59:39 | 51.56888 | 8.34103 | 77° | 75km/h | 9356m | -4.2m/s | -41.4°C | 28.9% | 302.3hPa | 2.5V | 07:55:18 | 02:41:41 | 00:00:00 | |
| HSKMA3-T | 2026-09-01 12:59:39 | 51.56897 | 8.34294 | 87° | 89km/h | 9330m | -4.4m/s | -41.2°C | 28.9% | 303.5hPa | 2.6V | 07:55:18 | 02:41:47 | 00:00:00 | |
| DL4BBY-15 | 2026-09-01 12:59:39 | 51.56897 | 8.34294 | 88° | 82km/h | 9331m | -4.3m/s | -43.3°C | 0% | 0hPa | 2.5V | 00:00:00 | 00:00:00 | 00:00:00 | |
| BIOWL9-15 | 2026-09-01 12:59:38 | 51.56896 | 8.34225 | 89° | 80km/h | 9339m | -4.4m/s | -41.3°C | 23.9% | 303.1hPa | 2.5V | 00:00:00 | 00:00:00 | 00:00:00 | |
| DL1XH1-15 | 2026-09-01 12:59:36 | 51.56878 | 8.34041 | 73° | 86km/h | 9365m | -4.3m/s | -41.5°C | 26.2% | 302hPa | 2.5V | 07:55:09 | 02:41:39 | 00:00:00 | |
| DL1XH-west | 2026-09-01 12:59:35 | 51.56894 | 8.34162 | 85° | 73km/h | 9348m | -4.7m/s | -41.3°C | 28.9% | 302.7hPa | 2.6V | 07:55:18 | 02:41:43 | 00:00:00 | |
| DD1CC2-15 | 2026-09-01 12:59:34 | 51.56894 | 8.34162 | 86° | 73km/h | 9348m | -4.7m/s | -41.3°C | 23.8% | 302.7hPa | 2.5V | 07:55:00 | 00:00:00 | 00:00:00 | |
| SO1NDE-10 | 2026-09-01 12:59:33 | 51.56888 | 8.34103 | 77° | 80km/h | 9356m | -4.1m/s | -41.4°C | 26.7% | 302.3hPa | 2.5V | 00:00:00 | 02:41:41 | 00:00:00 | |
| DL1NUX | 2026-09-01 12:59:32 | 51.56857 | 8.33895 | 82° | 93km/h | 9383m | -4.4m/s | -41.6°C | 25.7% | 301.2hPa | 2.5V | 07:55:13 | 02:41:35 | 00:00:00 | |
| DO2JMG | 2026-09-01 12:59:30 | 51.56871 | 8.34006 | 74° | 89km/h | 9369m | -5m/s | -41.6°C | 28.4% | 301.8hPa | 2.6V | 07:55:18 | 02:41:38 | 00:00:00 | |
| HSKMA3-T | 2026-09-01 12:59:29 | 51.56861 | 8.33933 | 80° | 95km/h | 9379m | -4.4m/s | -41.6°C | 28.1% | 301.4hPa | 2.5V | 07:55:18 | 02:41:36 | 00:00:00 | |
| DM0DOS-11 | 2026-09-01 12:59:27 | 51.56854 | 8.33823 | 88° | 86km/h | 9391m | -4.1m/s | -41.7°C | 25.7% | 300.8hPa | 2.6V | 07:55:15 | 02:41:33 | 00:00:00 | |
| BIOWL1-15 | 2026-09-01 12:59:24 | 51.56853 | 8.33757 | 89° | 75km/h | 9400m | -4.2m/s | -41.8°C | 28.1% | 300.4hPa | 2.5V | 07:55:18 | 02:41:31 | 00:00:00 | |
| DL1XH-west | 2026-09-01 12:59:24 | 51.56853 | 8.33789 | 89° | 80km/h | 9396m | -4.5m/s | -41.7°C | 28% | 300.6hPa | 2.5V | 07:55:18 | 02:41:32 | 00:00:00 | |
| DL1XH1-15 | 2026-09-01 12:59:23 | 51.56850 | 8.33700 | 82° | 68km/h | 9409m | -5m/s | -41.8°C | 26.3% | 300hPa | 2.5V | 07:55:19 | 02:41:29 | 00:00:00 | |
| DL1NUX | 2026-09-01 12:59:22 | 51.56832 | 8.33586 | 71° | 80km/h | 9427m | -4.2m/s | -42°C | 26.8% | 299.2hPa | 2.5V | 07:55:23 | 02:41:25 | 00:00:00 | |
| DO2JMG | 2026-09-01 12:59:19 | 51.56843 | 8.33645 | 75° | 71km/h | 9418m | -4.3m/s | -41.9°C | 28.6% | 299.6hPa | 2.6V | 07:56:09 | 02:41:27 | 00:00:00 | |
| HSKMA3-T | 2026-09-01 12:59:18 | 51.56838 | 8.33616 | 73° | 75km/h | 9423m | -4.5m/s | -42°C | 28.8% | 299.4hPa | 2.6V | 07:56:09 | 02:41:26 | 00:00:00 | |
| DJ2DS-15 | 2026-09-01 12:59:18 | 51.56838 | 8.33616 | 73° | 82km/h | 9423m | -4.4m/s | -41.9°C | 26.5% | 299.4hPa | 2.6V | 00:00:00 | 02:41:26 | 00:00:00 | |
| DM0DOS-11 | 2026-09-01 12:59:17 | 51.56820 | 8.33520 | 75° | 89km/h | 9436m | -4.4m/s | -42.2°C | 27.5% | 298.9hPa | 2.5V | 07:55:25 | 02:41:23 | 00:00:00 | |
| DL1XH-west | 2026-09-01 12:59:14 | 51.56814 | 8.33485 | 78° | 91km/h | 9440m | -4.5m/s | -42.2°C | 29.4% | 298.7hPa | 2.5V | 07:56:09 | 02:41:22 | 00:00:00 | |
| BIOWL1-15 | 2026-09-01 12:59:13 | 51.56810 | 8.33448 | 82° | 91km/h | 9445m | -4.2m/s | -42.2°C | 29.5% | 298.5hPa | 2.6V | 07:56:09 | 02:41:21 | 00:00:00 | |
| DL1XH1-15 | 2026-09-01 12:59:12 | 51.56806 | 8.33376 | 87° | 88km/h | 9453m | -4.3m/s | -42.2°C | 27.6% | 298.1hPa | 2.6V | 07:55:29 | 02:41:19 | 00:00:00 | |
| DB0DAN | 2026-09-01 12:59:10 | 51.56806 | 8.33342 | 90° | 78km/h | 9457m | -4.5m/s | -42.3°C | 24.4% | 297.9hPa | 2.5V | 00:00:00 | 00:00:00 | 00:00:00 | |
| DM0DOS-11 | 2026-09-01 12:59:10 | 51.56798 | 8.33195 | 76° | 69km/h | 9480m | -4.5m/s | -42.5°C | 27.7% | 296.9hPa | 2.5V | 07:55:35 | 02:41:13 | 00:00:00 | |
| DO2JMG | 2026-09-01 12:59:08 | 51.56805 | 8.33279 | 88° | 73km/h | 9467m | -4.4m/s | -42.4°C | 29.7% | 297.5hPa | 2.5V | 07:56:09 | 02:41:16 | 00:00:00 | |
| HSKMA3-T | 2026-09-01 12:59:07 | 51.56804 | 8.33250 | 85° | 69km/h | 9471m | -4.2m/s | -42.4°C | 29.8% | 297.3hPa | 2.6V | 07:56:09 | 02:41:15 | 00:00:00 | |
| BIOWL9-15 | 2026-09-01 12:59:07 | 51.56802 | 8.33223 | 79° | 68km/h | 9476m | -4.7m/s | -42.5°C | 24.3% | 297.1hPa | 2.6V | 00:00:00 | 00:00:00 | 00:00:00 | |
| DL1XH1-15 | 2026-09-01 12:59:06 | 51.56775 | 8.33072 | 74° | 88km/h | 9498m | -4.7m/s | -42.7°C | 27.8% | 296.1hPa | 2.6V | 07:55:39 | 02:41:09 | 00:00:00 | |
| DD8BA-10 | 2026-09-01 12:59:06 | 51.56801 | 8.33223 | 80° | 84km/h | 9476m | -4.6m/s | -42.4°C | 27.6% | 297.1hPa | 2.6V | 00:00:00 | 00:00:00 | 00:00:00 | |
| DL1NUX | 2026-09-01 12:59:05 | 51.56770 | 8.33037 | 76° | 91km/h | 9503m | -4.6m/s | -42.8°C | 27.6% | 295.9hPa | 2.6V | 07:55:40 | 02:41:08 | 00:00:00 | |
| DL1XH-west | 2026-09-01 12:59:04 | 51.56793 | 8.33167 | 73° | 75km/h | 9484m | -4.3m/s | -42.5°C | 29.9% | 296.7hPa | 2.5V | 07:56:09 | 02:41:12 | 00:00:00 | |
| BIOWL1-15 | 2026-09-01 12:59:02 | 51.56781 | 8.33106 | 73° | 84km/h | 9494m | -4.4m/s | -42.7°C | 30.1% | 296.3hPa | 2.5V | 07:56:09 | 02:41:10 | 00:00:00 | |
| SO1NDE-10 | 2026-09-01 12:59:02 | 51.56781 | 8.33106 | 73° | 80km/h | 9494m | -4.3m/s | -42.6°C | 27.8% | 296.2hPa | 2.6V | 00:00:00 | 02:41:10 | 00:00:00 | |
| DC6BW-12 | 2026-09-01 12:59:01 | 51.56781 | 8.33106 | 74° | 84km/h | 9494m | -4.4m/s | -42.7°C | 24.5% | 296.3hPa | 2.6V | 07:56:00 | 00:00:00 | 00:00:00 | |
| DM0DOS-11 | 2026-09-01 12:59:00 | 51.56757 | 8.32854 | 90° | 86km/h | 9525m | -4.4m/s | -42.9°C | 27.5% | 294.9hPa | 2.6V | 07:55:45 | 02:41:03 | 00:00:00 | |
| DO2JMG | 2026-09-01 12:58:58 | 51.56761 | 8.32963 | 83° | 93km/h | 9512m | -4.6m/s | -42.8°C | 30% | 295.5hPa | 2.5V | 07:56:09 | 02:41:06 | 00:00:00 | |
| HSKMA3-T | 2026-09-01 12:58:57 | 51.56759 | 8.32926 | 86° | 91km/h | 9516m | -4.5m/s | -42.8°C | 30% | 295.3hPa | 2.5V | 07:56:09 | 02:41:05 | 00:00:00 | |
| DL1XH1-15 | 2026-09-01 12:58:57 | 51.56758 | 8.32730 | 88° | 69km/h | 9544m | -4.8m/s | -43°C | 28% | 294.1hPa | 2.5V | 07:55:49 | 02:40:59 | 00:00:00 | |
| DB0DAN | 2026-09-01 12:58:55 | 51.56757 | 8.32854 | 90° | 80km/h | 9525m | -4.4m/s | -42.9°C | 24.1% | 294.92hPa | 2.6V | 00:00:00 | 00:00:00 | 00:00:00 | |
| DL1XH-west | 2026-09-01 12:58:55 | 51.56757 | 8.32821 | 92° | 80km/h | 9530m | -4.5m/s | -42.9°C | 29.8% | 294.7hPa | 2.6V | 07:56:09 | 02:41:02 | 00:00:00 | |
| BIOWL1-15 | 2026-09-01 12:58:51 | 51.56758 | 8.32730 | 89° | 69km/h | 9544m | -4.8m/s | -43°C | 29.8% | 294.1hPa | 2.5V | 07:56:09 | 02:40:59 | 00:00:00 | |
| DL3AQ-11 | 2026-09-01 12:58:51 | 51.56757 | 8.32703 | 86° | 66km/h | 9548m | -5.0m/s | -43.0°C | 24.7% | 293.9hPa | 2.5V | 00:00:00 | 00:00:00 | 00:00:00 | |
| DM0DOS-11 | 2026-09-01 12:58:50 | 51.56739 | 8.32567 | 72° | 77km/h | 9571m | -4.8m/s | -43.2°C | 27.8% | 292.9hPa | 2.5V | 07:55:55 | 02:40:53 | 00:00:00 | |
| HSKMA3-T | 2026-09-01 12:58:47 | 51.56749 | 8.32623 | 76° | 68km/h | 9562m | -4.5m/s | -43.1°C | 29.8% | 293.4hPa | 2.6V | 07:56:09 | 02:40:55 | 00:00:00 | |
| DL1XH1-15 | 2026-09-01 12:58:46 | 51.56716 | 8.32434 | 78° | 91km/h | 9590m | -4.3m/s | -43.4°C | 27.3% | 292.2hPa | 2.5V | 07:55:59 | 02:40:49 | 00:00:00 | |
| DD8BA-10 | 2026-09-01 12:58:46 | 51.56745 | 8.32596 | 74° | 84km/h | 9567m | -4.3m/s | -43.1°C | 27.9% | 293.0hPa | 2.5V | 00:00:00 | 00:00:00 | 00:00:00 | |
| DL1NUX | 2026-09-01 12:58:45 | 51.56712 | 8.32397 | 82° | 91km/h | 9594m | -4.6m/s | -43.4°C | 27.1% | 291.9hPa | 2.5V | 07:56:00 | 02:40:48 | 00:00:00 | |
| DL1XH-west | 2026-09-01 12:58:43 | 51.56727 | 8.32504 | 74° | 86km/h | 9580m | -4.5m/s | -43.4°C | 29.8% | 292.5hPa | 2.6V | 07:56:09 | 02:40:51 | 00:00:00 | |
| BIOWL1-15 | 2026-09-01 12:58:43 | 51.56716 | 8.32434 | 79° | 91km/h | 9590m | -4.4m/s | -43.4°C | 29.7% | 292.2hPa | 2.5V | 07:56:09 | 02:40:49 | 00:00:00 | |
| HSKMA3-T | 2026-09-01 12:58:37 | 51.56708 | 8.32291 | 90° | 82km/h | 9608m | -4.9m/s | -43.4°C | 29.5% | 291.3hPa | 2.6V | 07:56:09 | 02:40:45 | 00:00:00 | |
| DL1XH1-15 | 2026-09-01 12:58:36 | 51.56701 | 8.32121 | 74° | 68km/h | 9635m | -4.4m/s | -43.7°C | 27.2% | 290.2hPa | 2.6V | 07:56:09 | 02:40:39 | 00:00:00 | |
| BIOWL9-15 | 2026-09-01 12:58:36 | 51.56709 | 8.32228 | 90° | 71km/h | 9617m | -4.3m/s | -43.5°C | 23.8% | 290.9hPa | 2.6V | 00:00:00 | 00:00:00 | 00:00:00 | |
| DL1NUX | 2026-09-01 12:58:35 | 51.56696 | 8.32094 | 72° | 73km/h | 9640m | -4.4m/s | -43.7°C | 27.3% | 290hPa | 2.6V | 07:56:10 | 02:40:38 | 00:00:00 | |
| DO2JMG | 2026-09-01 12:58:34 | 51.56708 | 8.32200 | 87° | 68km/h | 9621m | -4.8m/s | -43.6°C | 29.6% | 290.8hPa | 2.5V | 07:56:09 | 02:40:42 | 00:00:00 | |
| DL1XH-west | 2026-09-01 12:58:33 | 51.56707 | 8.32173 | 84° | 66km/h | 9626m | -4.5m/s | -43.6°C | 29.6% | 290.5hPa | 2.5V | 07:56:09 | 02:40:41 | 00:00:00 | |
| DD1CC2-15 | 2026-09-01 12:58:33 | 51.56707 | 8.32173 | 85° | 66km/h | 9626m | -4.5m/s | -43.6°C | 23.8% | 290.5hPa | 2.5V | 00:00:00 | 00:00:00 | 00:00:00 | |
| DL1XH-15 | 2026-09-01 12:58:32 | 51.56690 | 8.32065 | 71° | 77km/h | 9644m | -4.8m/s | -43.8°C | 27.6% | 289.8hPa | 2.5V | 07:56:11 | 02:40:37 | 00:00:00 | |
| SO1NDE-10 | 2026-09-01 12:58:32 | 51.56704 | 8.32147 | 79° | 80km/h | 9631m | -4.5m/s | -43.6°C | 27.3% | 290.3hPa | 2.6V | 00:00:00 | 02:40:40 | 00:00:00 | |
| DD1CC9-15 | 2026-09-01 12:58:31 | 51.56701 | 8.32121 | 76° | 68km/h | 9635m | -4.4m/s | -43.7°C | 23.7% | 290.2hPa | 2.6V | 07:56:00 | 00:00:00 | 00:00:00 | |
| DM0DOS-11 | 2026-09-01 12:58:30 | 51.56668 | 8.31930 | 81° | 91km/h | 9662m | -4.3m/s | -43.9°C | 28% | 289hPa | 2.6V | 07:56:15 | 02:40:33 | 00:00:00 | |
| BIOWL1-15 | 2026-09-01 12:58:30 | 51.56696 | 8.32094 | 72° | 73km/h | 9640m | -4.4m/s | -43.7°C | 29.8% | 290hPa | 2.6V | 07:57:00 | 02:40:38 | 00:00:00 | |
| HSKMA3-T | 2026-09-01 12:58:27 | 51.56678 | 8.32001 | 75° | 88km/h | 9653m | -4.8m/s | -43.9°C | 30.1% | 289.4hPa | 2.5V | 07:57:00 | 02:40:35 | 00:00:00 | |
| DD8BA-10 | 2026-09-01 12:58:26 | 51.56673 | 8.31966 | 79° | 80km/h | 9658m | -4.5m/s | -43.9°C | 28.0% | 289.1hPa | 2.6V | 00:00:00 | 00:00:00 | 00:00:00 | |
| DL1NUX | 2026-09-01 12:58:25 | 51.56664 | 8.31760 | 89° | 73km/h | 9685m | -4.6m/s | -44.1°C | 29.3% | 288hPa | 2.6V | 07:56:20 | 02:40:28 | 00:00:00 | |
| DL1XH-west | 2026-09-01 12:58:23 | 51.56664 | 8.31858 | 88° | 88km/h | 9672m | -4.5m/s | -44°C | 30.6% | 288.6hPa | 2.5V | 07:57:00 | 02:40:31 | 00:00:00 | |
| DL1XH-15 | 2026-09-01 12:58:22 | 51.56663 | 8.31731 | 86° | 69km/h | 9690m | -4.4m/s | -44.1°C | 29.4% | 287.7hPa | 2.5V | 07:56:21 | 02:40:27 | 00:00:00 | |
| HTAHTA | 2026-09-01 12:58:21 | 51.56663 | 8.31731 | 86° | 69km/h | 9690m | -4.4m/s | -44.1°C | 25.8% | 287.8hPa | 2.6V | 00:00:00 | 00:00:00 | 00:00:00 | |
| DM0DOS-11 | 2026-09-01 12:58:20 | 51.56649 | 8.31619 | 72° | 77km/h | 9708m | -5m/s | -44.3°C | 30.1% | 287hPa | 2.6V | 07:56:25 | 02:40:23 | 00:00:00 | |
| BIOWL1-15 | 2026-09-01 12:58:19 | 51.56663 | 8.31731 | 87° | 69km/h | 9690m | -4.4m/s | -44.1°C | 31.7% | 287.8hPa | 2.5V | 07:57:00 | 02:40:27 | 00:00:00 | |
| BUE01 | 2026-09-01 12:58:19 | 51.56662 | 8.31703 | 82° | 66km/h | 9694m | -4.7m/s | -44.2°C | 25.9% | 287.6hPa | 2.5V | 00:00:00 | 00:00:00 | 00:00:00 | |
| DL1ZP-14 | 2026-09-01 12:58:18 | 51.56662 | 8.31703 | 82° | 66km/h | 9694m | -4.7m/s | -44.2°C | 25.9% | 287.6hPa | 2.5V | 00:00:00 | 00:00:00 | 00:00:00 | |
| DJ2DS-15 | 2026-09-01 12:58:17 | 51.56658 | 8.31676 | 78° | 80km/h | 9699m | -4.5m/s | -44.1°C | 29.7% | 287.4hPa | 2.5V | 00:00:00 | 02:40:25 | 00:00:00 | |
| DL1XH1-15 | 2026-09-01 12:58:16 | 51.56625 | 8.31483 | 79° | 93km/h | 9727m | -4.7m/s | -44.5°C | 31.4% | 286.1hPa | 2.5V | 07:56:29 | 02:40:19 | 00:00:00 | |
| HSKMA3-T | 2026-09-01 12:58:16 | 51.56654 | 8.31648 | 74° | 71km/h | 9703m | -4.3m/s | -44.3°C | 32.3% | 287.1hPa | 2.5V | 07:57:00 | 02:40:24 | 00:00:00 | |
| DO2JMG | 2026-09-01 12:58:12 | 51.56630 | 8.31520 | 76° | 91km/h | 9722m | -5.1m/s | -44.5°C | 33.1% | 286.4hPa | 2.5V | 07:57:00 | 02:40:20 | 00:00:00 | |
| DL1XH-15 | 2026-09-01 12:58:12 | 51.56619 | 8.31409 | 84° | 91km/h | 9736m | -4.7m/s | -44.5°C | 31.8% | 285.8hPa | 2.6V | 07:56:31 | 02:40:17 | 00:00:00 | |
| BIOWL1-15 | 2026-09-01 12:58:10 | 51.56617 | 8.31372 | 87° | 89km/h | 9741m | -4.8m/s | -44.6°C | 34% | 285.6hPa | 2.6V | 07:57:00 | 02:40:16 | 00:00:00 | |
| DL4BBY-15 | 2026-09-01 12:58:09 | 51.56619 | 8.31409 | 85° | 80km/h | 9737m | -4.6m/s | -46.7°C | 0% | 0hPa | 2.5V | 00:00:00 | 00:00:00 | 00:00:00 | |
| DL1XH1-15 | 2026-09-01 12:58:06 | 51.56604 | 8.31164 | 72° | 71km/h | 9773m | -4.8m/s | -44.9°C | 31.4% | 284.2hPa | 2.5V | 07:56:39 | 02:40:09 | 00:00:00 | |
| HSKMA3-T | 2026-09-01 12:58:05 | 51.56616 | 8.31273 | 88° | 73km/h | 9755m | -4.3m/s | -44.7°C | 34.3% | 285hPa | 2.5V | 07:57:00 | 02:40:13 | 00:00:00 | |
| DJ2KF-10 | 2026-09-01 12:58:05 | 51.56616 | 8.31273 | 89° | 82km/h | 9755m | -4.3m/s | -44.7°C | 32.1% | 285.0hPa | 2.6V | 00:00:00 | 02:40:13 | 00:00:00 | |
| DJ8HS-15 | 2026-09-01 12:58:04 | 51.56615 | 8.31245 | 85° | 77km/h | 9759m | -4.4m/s | -44.7°C | 32.1% | 284.8hPa | 2.6V | 00:00:00 | 02:40:12 | 00:00:00 | |
| DO3DL | 2026-09-01 12:58:03 | 51.56615 | 8.31245 | 86° | 69km/h | 9759m | -4.4m/s | -44.8°C | 28.1% | 284.8hPa | 2.6V | 07:57:00 | 00:00:00 | 00:00:00 | |
| DL1XH-15 | 2026-09-01 12:58:02 | 51.56593 | 8.31105 | 72° | 82km/h | 9783m | -4.8m/s | -45°C | 31.3% | 283.9hPa | 2.6V | 07:56:41 | 02:40:07 | 00:00:00 | |
| DL1XH-west | 2026-09-01 12:58:01 | 51.56605 | 8.31164 | 73° | 71km/h | 9773m | -4.8m/s | -44.9°C | 34.2% | 284.2hPa | 2.5V | 07:57:00 | 02:40:09 | 00:00:00 | |
| BIOWL1-15 | 2026-09-01 12:57:58 | 51.56586 | 8.31072 | 74° | 86km/h | 9787m | -4.4m/s | -45.1°C | 33.9% | 283.6hPa | 2.6V | 07:57:00 | 02:40:06 | 00:00:00 | |
| DJ2DS-15 | 2026-09-01 12:57:57 | 51.56580 | 8.31037 | 77° | 82km/h | 9792m | -4.4m/s | -45.1°C | 31.2% | 283.4hPa | 2.6V | 00:00:00 | 02:40:05 | 00:00:00 | |
| DL1XH1-15 | 2026-09-01 12:57:56 | 51.56569 | 8.30822 | 90° | 80km/h | 9820m | -4.8m/s | -45.3°C | 31.9% | 282.1hPa | 2.6V | 07:56:49 | 02:39:59 | 00:00:00 | |
| HSKMA3-T | 2026-09-01 12:57:54 | 51.56570 | 8.30927 | 86° | 91km/h | 9806m | -4.9m/s | -45.2°C | 33.6% | 282.8hPa | 2.5V | 07:57:00 | 02:40:02 | 00:00:00 | |
| DB0ND-19 | 2026-09-01 12:57:54 | 51.56569 | 8.30891 | 88° | 88km/h | 9811m | -4.8m/s | -45.2°C | 27.6% | 282.6hPa | 2.5V | 00:00:00 | 00:00:00 | 00:00:00 | |
| DL4XJ-10 | 2026-09-01 12:57:53 | 51.56569 | 8.30891 | 89° | 78km/h | 9811m | -4.7m/s | -47.3°C | 0% | 0hPa | 2.5V | 00:00:00 | 00:00:00 | 00:00:00 | |
| DL1XH-15 | 2026-09-01 12:57:52 | 51.56569 | 8.30761 | 88° | 71km/h | 9830m | -5m/s | -45.4°C | 31.7% | 281.8hPa | 2.5V | 07:56:51 | 02:39:57 | 00:00:00 | |
| DL1XH-west | 2026-09-01 12:57:50 | 51.56569 | 8.30791 | 91° | 75km/h | 9825m | -4.8m/s | -45.3°C | 33.8% | 282hPa | 2.5V | 07:57:00 | 02:39:58 | 00:00:00 | |
| DO2JMG | 2026-09-01 12:57:49 | 51.56569 | 8.30761 | 89° | 71km/h | 9830m | -5.1m/s | -45.4°C | 33.7% | 281.8hPa | 2.5V | 07:57:00 | 02:39:57 | 00:00:00 | |
| BIOWL1-15 | 2026-09-01 12:57:47 | 51.56566 | 8.30706 | 82° | 66km/h | 9840m | -4.7m/s | -45.4°C | 33.6% | 281.4hPa | 2.6V | 07:57:00 | 02:39:55 | 00:00:00 | |
| DL1XH1-15 | 2026-09-01 12:57:46 | 51.56537 | 8.30523 | 78° | 91km/h | 9868m | -4.4m/s | -45.7°C | 31.1% | 280.2hPa | 2.6V | 07:56:59 | 02:39:49 | 00:00:00 | |
| DD8BA-10 | 2026-09-01 12:57:46 | 51.56563 | 8.30680 | 78° | 82km/h | 9844m | -4.7m/s | -45.4°C | 31.3% | 281.2hPa | 2.5V | 00:00:00 | 00:00:00 | 00:00:00 | |
| DL1NUX | 2026-09-01 12:57:45 | 51.56533 | 8.30487 | 82° | 91km/h | 9872m | -4.5m/s | -45.8°C | 31.2% | 280hPa | 2.5V | 07:57:00 | 02:39:48 | 00:00:00 | |
| HSKMA3-T | 2026-09-01 12:57:44 | 51.56553 | 8.30623 | 73° | 77km/h | 9854m | -4.8m/s | -45.6°C | 33.7% | 280.8hPa | 2.5V | 07:57:00 | 02:39:52 | 00:00:00 | |
| DL1XH-west | 2026-09-01 12:57:39 | 51.56531 | 8.30450 | 86° | 91km/h | 9877m | -5m/s | -45.8°C | 33.8% | 279.9hPa | 2.5V | 07:57:51 | 02:39:47 | 00:00:00 | |
| BIOWL1-15 | 2026-09-01 12:57:39 | 51.56529 | 8.30379 | 90° | 84km/h | 9886m | -4.7m/s | -45.8°C | 34% | 279.4hPa | 2.6V | 07:57:51 | 02:39:45 | 00:00:00 | |
| DO2JMG | 2026-09-01 12:57:38 | 51.56530 | 8.30414 | 88° | 88km/h | 9882m | -4.6m/s | -45.8°C | 33.9% | 279.6hPa | 2.5V | 07:57:51 | 02:39:46 | 00:00:00 | |
| DJ2DS-15 | 2026-09-01 12:57:37 | 51.56529 | 8.30379 | 91° | 80km/h | 9886m | -4.6m/s | -45.8°C | 31.7% | 279.3hPa | 2.6V | 00:00:00 | 02:39:45 | 00:00:00 | |
| DL1XH1-15 | 2026-09-01 12:57:36 | 51.56524 | 8.30203 | 75° | 68km/h | 9915m | -5m/s | -46.1°C | 32.4% | 278.2hPa | 2.6V | 07:57:09 | 02:39:39 | 00:00:00 | |
| DD8BA-10 | 2026-09-01 12:57:36 | 51.56530 | 8.30345 | 92° | 73km/h | 9891m | -5.1m/s | -45.8°C | 31.9% | 279.2hPa | 2.6V | 00:00:00 | 00:00:00 | 00:00:00 | |
| DL1NUX | 2026-09-01 12:57:35 | 51.56519 | 8.30176 | 72° | 71km/h | 9920m | -4.7m/s | -46.1°C | 32.7% | 278hPa | 2.5V | 07:57:10 | 02:39:38 | 00:00:00 | |
| HSKMA3-T | 2026-09-01 12:57:34 | 51.56530 | 8.30284 | 89° | 71km/h | 9901m | -4.8m/s | -46°C | 34.5% | 278.8hPa | 2.5V | 07:57:51 | 02:39:42 | 00:00:00 | |
| DJ2KF-10 | 2026-09-01 12:57:34 | 51.56530 | 8.30284 | 89° | 78km/h | 9901m | -4.7m/s | -45.9°C | 32.3% | 278.7hPa | 2.5V | 00:00:00 | 02:39:42 | 00:00:00 | |
| DL4XJ-10 | 2026-09-01 12:57:33 | 51.56529 | 8.30256 | 86° | 75km/h | 9906m | -4.7m/s | -48.1°C | 0% | 0hPa | 2.6V | 00:00:00 | 00:00:00 | 00:00:00 | |
| SO1NDE-10 | 2026-09-01 12:57:32 | 51.56527 | 8.30230 | 81° | 78km/h | 9911m | -4.6m/s | -46.0°C | 32.3% | 278.3hPa | 2.6V | 00:00:00 | 02:39:40 | 00:00:00 | |
| DL1XH-15 | 2026-09-01 12:57:31 | 51.56493 | 8.30054 | 73° | 88km/h | 9939m | -5.2m/s | -46.3°C | 33.5% | 277.1hPa | 2.6V | 07:57:14 | 02:39:34 | 00:00:00 | |
| DL1XH-west | 2026-09-01 12:57:29 | 51.56513 | 8.30148 | 71° | 75km/h | 9925m | -4.7m/s | -46.2°C | 35.3% | 277.8hPa | 2.5V | 07:57:51 | 02:39:37 | 00:00:00 | |
| BIOWL1-15 | 2026-09-01 12:57:28 | 51.56493 | 8.30054 | 73° | 88km/h | 9940m | -5.2m/s | -46.3°C | 35.7% | 277.1hPa | 2.6V | 07:57:51 | 02:39:34 | 00:00:00 | |
| DL8OAI-8 | 2026-09-01 12:57:27 | 51.56507 | 8.30119 | 72° | 80km/h | 9930m | -5.1m/s | -46.2°C | 0% | 277.6hPa | 2.5V | 07:57:00 | 00:00:00 | 00:00:00 | |
| DM0DOS-11 | 2026-09-01 12:57:26 | 51.56487 | 8.30019 | 75° | 91km/h | 9944m | -4.7m/s | -46.4°C | 33.5% | 277hPa | 2.5V | 07:57:15 | 02:39:33 | 00:00:00 | |
| HSKMA3-T | 2026-09-01 12:57:23 | 51.56478 | 8.29946 | 82° | 91km/h | 9954m | -4.8m/s | -46.4°C | 35.9% | 276.6hPa | 2.5V | 07:57:51 | 02:39:31 | 00:00:00 | |
| DB0ND-19 | 2026-09-01 12:57:23 | 51.56476 | 8.29909 | 85° | 89km/h | 9958m | -4.8m/s | -46.5°C | 29.3% | 276.4hPa | 2.6V | 00:00:00 | 00:00:00 | 00:00:00 | |
| DL8DAS-14 | 2026-09-01 12:57:22 | 51.56476 | 8.29909 | 85° | 89km/h | 9958m | -4.8m/s | -46.5°C | 29.3% | 276.4hPa | 2.6V | 00:00:00 | 00:00:00 | 00:00:00 | |
| DL1XH-15 | 2026-09-01 12:57:21 | 51.56472 | 8.29722 | 81° | 66km/h | 9988m | -5.2m/s | -46.7°C | 35.1% | 275.1hPa | 2.6V | 07:57:24 | 02:39:24 | 00:00:00 | |
| DO2JMG | 2026-09-01 12:57:20 | 51.56474 | 8.29840 | 90° | 82km/h | 9968m | -4.9m/s | -46.5°C | 36.3% | 276hPa | 2.5V | 07:57:51 | 02:39:28 | 00:00:00 | |
| DL1XH-west | 2026-09-01 12:57:19 | 51.56474 | 8.29807 | 90° | 77km/h | 9973m | -4.9m/s | -46.6°C | 36.5% | 275.8hPa | 2.5V | 07:57:51 | 02:39:27 | 00:00:00 | |
| BIOWL1-15 | 2026-09-01 12:57:18 | 51.56472 | 8.29722 | 82° | 66km/h | 9988m | -5.2m/s | -46.7°C | 37.3% | 275.1hPa | 2.6V | 07:57:51 | 02:39:24 | 00:00:00 | |
| DJ2DS-15 | 2026-09-01 12:57:17 | 51.56473 | 8.29749 | 87° | 75km/h | 9983m | -4.9m/s | -46.6°C | 34.8% | 275.3hPa | 2.6V | 07:57:00 | 02:39:25 | 00:00:00 | |
| DM0DOS-11 | 2026-09-01 12:57:16 | 51.56469 | 8.29696 | 77° | 66km/h | 9993m | -4.7m/s | -46.7°C | 35.6% | 274.9hPa | 2.5V | 07:57:25 | 02:39:23 | 00:00:00 | |
| DD8BA-10 | 2026-09-01 12:57:16 | 51.56471 | 8.29722 | 82° | 78km/h | 9988m | -5.2m/s | -46.6°C | 35.1% | 275.1hPa | 2.5V | 00:00:00 | 00:00:00 | 00:00:00 | |
| DL1NUX | 2026-09-01 12:57:15 | 51.56436 | 8.29554 | 70° | 86km/h | 10017m | -5.2m/s | -46.9°C | 37% | 273.9hPa | 2.5V | 07:57:30 | 02:39:18 | 00:00:00 | |
| HSKMA3-T | 2026-09-01 12:57:13 | 51.56458 | 8.29644 | 69° | 73km/h | 10002m | -5.1m/s | -46.8°C | 38.4% | 274.6hPa | 2.5V | 07:57:51 | 02:39:21 | 00:00:00 | |
| DL4XJ-10 | 2026-09-01 12:57:13 | 51.56458 | 8.29644 | 70° | 77km/h | 10003m | -5.1m/s | -48.9°C | 0% | 0hPa | 2.6V | 00:00:00 | 00:00:00 | 00:00:00 | |
| DD1CC1-15 | 2026-09-01 12:57:12 | 51.56458 | 8.29643 | 70° | 73km/h | 10002m | -5.1m/s | -46.8°C | 31.7% | 274.6hPa | 2.6V | 07:57:00 | 00:00:00 | 00:00:00 | |
| DL1XH-15 | 2026-09-01 12:57:11 | 51.56414 | 8.29415 | 83° | 88km/h | 10036m | -4.7m/s | -47°C | 37% | 273.2hPa | 2.6V | 07:57:34 | 02:39:14 | 00:00:00 | |
| DM0DOS-11 | 2026-09-01 12:57:10 | 51.56413 | 8.29381 | 85° | 82km/h | 10041m | -4.9m/s | -47.1°C | 37.1% | 273hPa | 2.5V | 07:57:35 | 02:39:13 | 00:00:00 | |
| DL1XH-west | 2026-09-01 12:57:08 | 51.56423 | 8.29486 | 75° | 89km/h | 10027m | -4.8m/s | -47°C | 39.1% | 273.6hPa | 2.5V | 07:57:51 | 02:39:16 | 00:00:00 | |
| DD1CC9-15 | 2026-09-01 12:57:07 | 51.56423 | 8.29486 | 76° | 89km/h | 10027m | -4.8m/s | -47.0°C | 32.5% | 273.6hPa | 2.6V | 07:57:00 | 00:00:00 | 00:00:00 | |
| DD8BA-10 | 2026-09-01 12:57:06 | 51.56414 | 8.29415 | 84° | 71km/h | 10036m | -4.6m/s | -47.0°C | 37.0% | 273.1hPa | 2.6V | 00:00:00 | 00:00:00 | 00:00:00 | |
| DL1NUX | 2026-09-01 12:57:05 | 51.56403 | 8.29240 | 75° | 62km/h | 10065m | -5m/s | -47.2°C | 37.5% | 272hPa | 2.5V | 07:57:40 | 02:39:08 | 00:00:00 | |
| BIOWL1-15 | 2026-09-01 12:57:05 | 51.56412 | 8.29381 | 86° | 82km/h | 10041m | -4.9m/s | -47.1°C | 39.3% | 273hPa | 2.5V | 07:57:51 | 02:39:13 | 00:00:00 | |
| DO2JMG | 2026-09-01 12:57:04 | 51.56411 | 8.29349 | 87° | 77km/h | 10046m | -4.5m/s | -47.1°C | 39.3% | 272.8hPa | 2.5V | 07:57:51 | 02:39:12 | 00:00:00 | |
| HSKMA3-T | 2026-09-01 12:57:03 | 51.56410 | 8.29319 | 87° | 71km/h | 10050m | -4.8m/s | -47.2°C | 39.3% | 272.6hPa | 2.5V | 07:57:51 | 02:39:11 | 00:00:00 | |
| SO1NDE-10 | 2026-09-01 12:57:02 | 51.56409 | 8.29291 | 84° | 78km/h | 10056m | -5.0m/s | -47.2°C | 37.2% | 272.4hPa | 2.6V | 07:57:00 | 02:39:10 | 00:00:00 | |
| DL1XH-15 | 2026-09-01 12:57:01 | 51.56378 | 8.29137 | 65° | 77km/h | 10085m | -4.7m/s | -47.3°C | 38.3% | 271.2hPa | 2.6V | 07:57:44 | 02:39:04 | 00:00:00 | |
| DO1YAY-16 | 2026-09-01 12:57:01 | 51.56406 | 8.29265 | 80° | 62km/h | 10061m | -4.8m/s | -47.2°C | 32.7% | 272.2hPa | 2.5V | 00:00:00 | 00:00:00 | 00:00:00 | |
| DK9SH | 2026-09-01 12:57:00 | 51.56406 | 8.29265 | 81° | 64km/h | 10061m | -4.8m/s | -47.2°C | 32.7% | 272.2hPa | 2.5V | 07:57:00 | 00:00:00 | 00:00:00 | |
| GOEST3-10 | 2026-09-01 12:56:59 | 51.56398 | 8.29215 | 72° | 73km/h | 10071m | -5.0m/s | -47.1°C | 37.5% | 271.7hPa | 2.5V | 00:00:00 | 02:39:07 | 00:00:00 | |
| DM0DOS-11 | 2026-09-01 12:56:58 | 51.56369 | 8.29107 | 66° | 82km/h | 10090m | -5m/s | -47.3°C | 38.6% | 270.9hPa | 2.5V | 07:57:45 | 02:39:03 | 00:00:00 | |
| DL1XH-west | 2026-09-01 12:56:58 | 51.56393 | 8.29190 | 68° | 68km/h | 10075m | -5.1m/s | -47.2°C | 39.9% | 271.6hPa | 2.5V | 07:57:51 | 02:39:06 | 00:00:00 | |
| DJ2DS-15 | 2026-09-01 12:56:57 | 51.56386 | 8.29164 | 66° | 80km/h | 10081m | -4.8m/s | -47.2°C | 38.0% | 271.3hPa | 2.5V | 00:00:00 | 02:39:05 | 00:00:00 | |
| DO9LL-15 | 2026-09-01 12:56:56 | 51.56378 | 8.29137 | 66° | 78km/h | 10086m | -4.6m/s | -47.2°C | 38.3% | 271.1hPa | 2.5V | 00:00:00 | 02:39:04 | 00:00:00 | |
| DL1NUX | 2026-09-01 12:56:55 | 51.56337 | 8.28937 | 80° | 86km/h | 10114m | -4.6m/s | -47.5°C | 39.6% | 270hPa | 2.5V | 07:57:50 | 02:38:58 | 00:00:00 | |
| BIOWL1-15 | 2026-09-01 12:56:55 | 51.56370 | 8.29107 | 66° | 82km/h | 10090m | -5m/s | -47.3°C | 40.9% | 270.9hPa | 2.5V | 07:57:51 | 02:39:03 | 00:00:00 | |
| DO2JMG | 2026-09-01 12:56:53 | 51.56353 | 8.29042 | 71° | 89km/h | 10100m | -4.8m/s | -47.4°C | 41.4% | 270.5hPa | 2.5V | 07:57:51 | 02:39:01 | 00:00:00 | |
| HSKMA3-T | 2026-09-01 12:56:52 | 51.56347 | 8.29007 | 74° | 89km/h | 10105m | -4.8m/s | -47.4°C | 41.6% | 270.4hPa | 2.6V | 07:57:51 | 02:39:00 | 00:00:00 | |
| DL1XH-west | 2026-09-01 12:56:48 | 51.56332 | 8.28872 | 83° | 75km/h | 10123m | -4.5m/s | -47.6°C | 42.2% | 269.6hPa | 2.5V | 07:58:42 | 02:38:56 | 00:00:00 | |
| DD1CC1-15 | 2026-09-01 12:56:47 | 51.56332 | 8.28872 | 84° | 75km/h | 10123m | -4.5m/s | -47.6°C | 35.0% | 269.6hPa | 2.5V | 07:58:00 | 00:00:00 | 00:00:00 | |
| DM0DOS-11 | 2026-09-01 12:56:46 | 51.56321 | 8.28791 | 70° | 66km/h | 10137m | -4.5m/s | -47.7°C | 39.9% | 269hPa | 2.5V | 07:57:55 | 02:38:53 | 00:00:00 | |
| DL1XH-15 | 2026-09-01 12:56:46 | 51.56326 | 8.28816 | 76° | 66km/h | 10132m | -4.5m/s | -47.7°C | 40.2% | 269.2hPa | 2.6V | 07:57:54 | 02:38:54 | 00:00:00 | |
| BIOWL1-15 | 2026-09-01 12:56:45 | 51.56321 | 8.28791 | 71° | 66km/h | 10137m | -4.5m/s | -47.7°C | 42.6% | 269.1hPa | 2.5V | 07:58:42 | 02:38:53 | 00:00:00 | |
| HSKMA3-T | 2026-09-01 12:56:42 | 51.56298 | 8.28713 | 63° | 77km/h | 10152m | -4.8m/s | -47.8°C | 42.2% | 268.5hPa | 2.6V | 07:58:42 | 02:38:50 | 00:00:00 | |
| DD1CC2-15 | 2026-09-01 12:56:41 | 51.56298 | 8.28713 | 64° | 77km/h | 10152m | -4.8m/s | -47.8°C | 35.0% | 268.5hPa | 2.5V | 07:58:00 | 00:00:00 | 00:00:00 | |
| DM0DOS-11 | 2026-09-01 12:56:40 | 51.56245 | 8.28480 | 79° | 88km/h | 10186m | -4.7m/s | -48.1°C | 39.4% | 267.1hPa | 2.5V | 07:58:05 | 02:38:43 | 00:00:00 | |
| AA1-15 | 2026-09-01 12:56:38 | 51.56263 | 8.28586 | 71° | 91km/h | 10171m | -4.7m/s | -48°C | 41.6% | 267.6hPa | 2.5V | 07:58:42 | 02:38:46 | 00:00:00 | |
| DL1XH-west | 2026-09-01 12:56:37 | 51.56256 | 8.28551 | 74° | 91km/h | 10176m | -4.7m/s | -48°C | 41.5% | 267.5hPa | 2.6V | 07:58:42 | 02:38:45 | 00:00:00 | |
| BIOWL1-15 | 2026-09-01 12:56:35 | 51.56245 | 8.28480 | 79° | 88km/h | 10186m | -4.7m/s | -48.1°C | 41.1% | 267.1hPa | 2.5V | 07:58:42 | 02:38:43 | 00:00:00 | |
| HSKMA3-T | 2026-09-01 12:56:31 | 51.56232 | 8.28357 | 78° | 68km/h | 10204m | -5.1m/s | -48.3°C | 40.3% | 266.3hPa | 2.6V | 07:58:42 | 02:38:39 | 00:00:00 | |
| DL4XJ-10 | 2026-09-01 12:56:31 | 51.56232 | 8.28357 | 78° | 77km/h | 10204m | -5.1m/s | -50.3°C | 0% | 0hPa | 2.6V | 00:00:00 | 00:00:00 | 00:00:00 | |
| DO3DL | 2026-09-01 12:56:29 | 51.56228 | 8.28331 | 75° | 66km/h | 10209m | -4.6m/s | -48.3°C | 33.4% | 266.1hPa | 2.6V | 07:58:00 | 00:00:00 | 00:00:00 | |
| GOEST3-10 | 2026-09-01 12:56:27 | 51.56209 | 8.28256 | 63° | 80km/h | 10224m | -4.6m/s | -48.3°C | 38.0% | 265.5hPa | 2.6V | 00:00:00 | 02:38:35 | 00:00:00 | |
| DM0DOS-11 | 2026-09-01 12:56:26 | 51.56190 | 8.28201 | 62° | 82km/h | 10233m | -4.7m/s | -48.5°C | 38.1% | 265.1hPa | 2.5V | 07:58:15 | 02:38:33 | 00:00:00 | |
| DL1XH-west | 2026-09-01 12:56:26 | 51.56200 | 8.28230 | 62° | 77km/h | 10228m | -4.7m/s | -48.4°C | 40.6% | 265.3hPa | 2.6V | 07:58:42 | 02:38:34 | 00:00:00 | |
| AA1-15 | 2026-09-01 12:56:25 | 51.56191 | 8.28201 | 62° | 82km/h | 10233m | -4.7m/s | -48.5°C | 40.8% | 265.1hPa | 2.5V | 07:58:42 | 02:38:33 | 00:00:00 | |
| DB0DAN | 2026-09-01 12:56:25 | 51.56191 | 8.28201 | 62° | 78km/h | 10233m | -4.7m/s | -48.5°C | 33.2% | 265.13hPa | 2.5V | 00:00:00 | 00:00:00 | 00:00:00 | |
| BIOWL1-15 | 2026-09-01 12:56:24 | 51.56181 | 8.28171 | 64° | 88km/h | 10238m | -4.7m/s | -48.6°C | 40.9% | 265hPa | 2.5V | 07:58:42 | 02:38:32 | 00:00:00 | |
| DJ8HS-15 | 2026-09-01 12:56:24 | 51.56181 | 8.28171 | 65° | 82km/h | 10238m | -4.6m/s | -48.6°C | 38.0% | 264.9hPa | 2.5V | 00:00:00 | 02:38:32 | 00:00:00 | |
| DO3DL | 2026-09-01 12:56:23 | 51.56181 | 8.28171 | 65° | 88km/h | 10238m | -4.7m/s | -48.6°C | 33.2% | 265.0hPa | 2.5V | 07:58:00 | 00:00:00 | 00:00:00 | |
| DB0ND-19 | 2026-09-01 12:56:21 | 51.56150 | 8.28032 | 77° | 88km/h | 10257m | -4.6m/s | -48.7°C | 33.7% | 264.2hPa | 2.5V | 00:00:00 | 00:00:00 | 00:00:00 | |
| DM0DOS-11 | 2026-09-01 12:56:20 | 51.56132 | 8.27879 | 74° | 66km/h | 10281m | -4.8m/s | -48.8°C | 41.4% | 263.2hPa | 2.5V | 07:58:25 | 02:38:23 | 00:00:00 | |
| HSKMA3-T | 2026-09-01 12:56:20 | 51.56150 | 8.28032 | 77° | 89km/h | 10257m | -4.6m/s | -48.7°C | 41.3% | 264.2hPa | 2.5V | 07:58:42 | 02:38:28 | 00:00:00 | |
| DO2JMG | 2026-09-01 12:56:16 | 51.56136 | 8.27906 | 78° | 69km/h | 10276m | -4.8m/s | -48.8°C | 42.6% | 263.4hPa | 2.6V | 07:58:42 | 02:38:24 | 00:00:00 | |
| DL1XH1-15 | 2026-09-01 12:56:16 | 51.56105 | 8.27778 | 61° | 75km/h | 10300m | -4.8m/s | -49°C | 41.9% | 262.4hPa | 2.6V | 07:58:29 | 02:38:19 | 00:00:00 | |
| DL1XH-west | 2026-09-01 12:56:15 | 51.56132 | 8.27879 | 75° | 66km/h | 10281m | -4.9m/s | -48.8°C | 43.1% | 263.2hPa | 2.5V | 07:58:42 | 02:38:23 | 00:00:00 | |
| BIOWL1-15 | 2026-09-01 12:56:14 | 51.56127 | 8.27854 | 71° | 66km/h | 10286m | -4.9m/s | -48.9°C | 43.4% | 263hPa | 2.5V | 07:58:42 | 02:38:22 | 00:00:00 | |
| HSKMA3-T | 2026-09-01 12:56:10 | 51.56096 | 8.27750 | 62° | 80km/h | 10305m | -4.6m/s | -49.1°C | 44.7% | 262.2hPa | 2.5V | 07:58:42 | 02:38:18 | 00:00:00 | |
| DL4BBY-15 | 2026-09-01 12:56:09 | 51.56086 | 8.27720 | 63° | 80km/h | 10310m | -4.4m/s | -51.3°C | 0% | 0hPa | 2.6V | 00:00:00 | 00:00:00 | 00:00:00 | |
| DL1XH1-15 | 2026-09-01 12:56:07 | 51.56039 | 8.27455 | 78° | 69km/h | 10349m | -4.7m/s | -49.5°C | 45.4% | 260.4hPa | 2.6V | 07:58:39 | 02:38:09 | 00:00:00 | |
| BIOWL1-15 | 2026-09-01 12:56:05 | 51.56045 | 8.27515 | 80° | 80km/h | 10339m | -4.7m/s | -49.4°C | 46.3% | 260.8hPa | 2.5V | 07:58:42 | 02:38:11 | 00:00:00 | |
| DL1XH-west | 2026-09-01 12:56:05 | 51.56054 | 8.27583 | 76° | 89km/h | 10329m | -5.2m/s | -49.3°C | 46% | 261.3hPa | 2.5V | 07:58:42 | 02:38:13 | 00:00:00 | |
| AA1-15 | 2026-09-01 12:56:04 | 51.56049 | 8.27548 | 79° | 86km/h | 10334m | -4.8m/s | -49.3°C | 46.1% | 261.1hPa | 2.5V | 07:58:42 | 02:38:12 | 00:00:00 | |
| HSKMA3-T | 2026-09-01 12:56:00 | 51.56035 | 8.27428 | 75° | 66km/h | 10353m | -5.1m/s | -49.5°C | 46.9% | 260.3hPa | 2.5V | 07:58:42 | 02:38:08 | 00:00:00 | |
| DL3AQ-11 | 2026-09-01 12:56:00 | 51.56029 | 8.27403 | 69° | 64km/h | 10358m | -4.8m/s | -49.5°C | 39.7% | 260.1hPa | 2.6V | 00:00:00 | 00:00:00 | 00:00:00 | |
| DL1XH-15 | 2026-09-01 12:55:59 | 51.56006 | 8.27327 | 60° | 77km/h | 10373m | -4.6m/s | -49.7°C | 44.7% | 259.5hPa | 2.6V | 07:58:44 | 02:38:04 | 00:00:00 | |
| DK9SH | 2026-09-01 12:55:58 | 51.56030 | 8.27403 | 71° | 66km/h | 10359m | -4.8m/s | -49.5°C | 39.7% | 260.0hPa | 2.6V | 07:58:00 | 00:00:00 | 00:00:00 | |
| DL1XH1-15 | 2026-09-01 12:55:57 | 51.55960 | 8.27164 | 72° | 93km/h | 10397m | -5m/s | -49.9°C | 44.9% | 258.6hPa | 2.6V | 07:58:49 | 02:37:59 | 00:00:00 | |
| DM0DOS-11 | 2026-09-01 12:55:56 | 51.55996 | 8.27298 | 61° | 84km/h | 10378m | -4.8m/s | -49.8°C | 44.6% | 259.3hPa | 2.5V | 07:58:45 | 02:38:03 | 00:00:00 | |
| DO9LL-15 | 2026-09-01 12:55:56 | 51.56006 | 8.27327 | 61° | 80km/h | 10373m | -4.6m/s | -49.6°C | 44.7% | 259.4hPa | 2.6V | 00:00:00 | 02:38:04 | 00:00:00 | |
| DL1NUX | 2026-09-01 12:55:55 | 51.55954 | 8.27128 | 75° | 91km/h | 10403m | -5m/s | -49.9°C | 45.1% | 258.3hPa | 2.5V | 07:58:50 | 02:37:58 | 00:00:00 | |
| DL1XH-west | 2026-09-01 12:55:54 | 51.55954 | 8.27128 | 76° | 91km/h | 10403m | -5m/s | -49.9°C | 47.3% | 258.3hPa | 2.5V | 07:59:33 | 02:37:58 | 00:00:00 | |
| DO2JMG | 2026-09-01 12:55:54 | 51.55986 | 8.27267 | 64° | 88km/h | 10383m | -4.9m/s | -49.8°C | 47.2% | 259.1hPa | 2.5V | 07:59:33 | 02:38:02 | 00:00:00 | |
| AA1-15 | 2026-09-01 12:55:53 | 51.55977 | 8.27234 | 67° | 91km/h | 10388m | -4.6m/s | -49.9°C | 47.2% | 259hPa | 2.5V | 07:59:33 | 02:38:01 | 00:00:00 | |
| GOEST3-10 | 2026-09-01 12:55:51 | 51.55954 | 8.27128 | 76° | 84km/h | 10403m | -5.0m/s | -49.9°C | 45.1% | 258.3hPa | 2.5V | 00:00:00 | 02:37:58 | 00:00:00 | |
| DL1XH-15 | 2026-09-01 12:55:50 | 51.55938 | 8.26995 | 80° | 75km/h | 10423m | -5m/s | -50.1°C | 46.6% | 257.5hPa | 2.6V | 07:58:54 | 02:37:54 | 00:00:00 | |
| HSKMA3-T | 2026-09-01 12:55:50 | 51.55949 | 8.27092 | 78° | 88km/h | 10408m | -5.6m/s | -50°C | 47.3% | 258.1hPa | 2.5V | 07:59:33 | 02:37:57 | 00:00:00 | |
| EDDB2-12 | 2026-09-01 12:55:48 | 51.55945 | 8.27058 | 79° | 84km/h | 10413m | -5.1m/s | -50.0°C | 40.3% | 257.9hPa | 2.6V | 00:00:00 | 00:00:00 | 00:00:00 | |
| DL4XJ-10 | 2026-09-01 12:55:47 | 51.55941 | 8.27025 | 81° | 78km/h | 10419m | -5.1m/s | -52.1°C | 0% | 0hPa | 2.6V | 00:00:00 | 00:00:00 | 00:00:00 | |
| DL1XH1-15 | 2026-09-01 12:55:46 | 51.55910 | 8.26865 | 61° | 71km/h | 10448m | -5.1m/s | -50.3°C | 45.5% | 256.6hPa | 2.6V | 07:58:59 | 02:37:49 | 00:00:00 | |
| DJ2DS-15 | 2026-09-01 12:55:46 | 51.55935 | 8.26966 | 77° | 68km/h | 10428m | -4.7m/s | -50.1°C | 41.0% | 257.4hPa | 2.5V | 00:00:00 | 00:00:00 | 00:00:00 | |
| DM0DOS-11 | 2026-09-01 12:55:45 | 51.55935 | 8.26966 | 77° | 69km/h | 10428m | -4.7m/s | -50.1°C | 46.8% | 257.4hPa | 2.5V | 07:58:55 | 02:37:53 | 00:00:00 | |
| DL1NUX | 2026-09-01 12:55:45 | 51.55902 | 8.26839 | 61° | 75km/h | 10453m | -4.7m/s | -50.4°C | 45% | 256.4hPa | 2.5V | 07:59:00 | 02:37:48 | 00:00:00 | |
| DO2JMG | 2026-09-01 12:55:44 | 51.55930 | 8.26940 | 74° | 66km/h | 10433m | -4.6m/s | -50.2°C | 47.9% | 257.2hPa | 2.5V | 07:59:33 | 02:37:52 | 00:00:00 | |
| BIOWL1-15 | 2026-09-01 12:55:43 | 51.55925 | 8.26914 | 69° | 64km/h | 10438m | -4.7m/s | -50.2°C | 47.9% | 257hPa | 2.5V | 07:59:33 | 02:37:51 | 00:00:00 | |
| AA1-15 | 2026-09-01 12:55:42 | 51.55919 | 8.26890 | 64° | 68km/h | 10442m | -5.2m/s | -50.3°C | 47.7% | 256.8hPa | 2.6V | 07:59:33 | 02:37:50 | 00:00:00 | |
| HSKMA3-T | 2026-09-01 12:55:38 | 51.55883 | 8.26781 | 64° | 86km/h | 10462m | -4.8m/s | -50.5°C | 46.8% | 256hPa | 2.5V | 07:59:33 | 02:37:46 | 00:00:00 | |
| DK9SH | 2026-09-01 12:55:37 | 51.55883 | 8.26781 | 65° | 86km/h | 10463m | -4.8m/s | -50.5°C | 38.7% | 256.0hPa | 2.5V | 07:59:00 | 00:00:00 | 00:00:00 | |
| DC6BW-12 | 2026-09-01 12:55:36 | 51.55873 | 8.26749 | 68° | 89km/h | 10467m | -5.0m/s | -50.5°C | 38.2% | 255.8hPa | 2.5V | 07:59:00 | 00:00:00 | 00:00:00 | |
| DM0DOS-11 | 2026-09-01 12:55:35 | 51.55857 | 8.26679 | 72° | 93km/h | 10478m | -5.1m/s | -50.6°C | 43.6% | 255.4hPa | 2.5V | 07:59:05 | 02:37:43 | 00:00:00 | |
| DL1NUX | 2026-09-01 12:55:35 | 51.55836 | 8.26505 | 84° | 78km/h | 10503m | -5m/s | -50.7°C | 42.7% | 254.4hPa | 2.5V | 07:59:10 | 02:37:38 | 00:00:00 | |
| BIOWL1-15 | 2026-09-01 12:55:33 | 51.55846 | 8.26607 | 79° | 91km/h | 10488m | -5.1m/s | -50.6°C | 45.3% | 255hPa | 2.5V | 07:59:33 | 02:37:41 | 00:00:00 | |
| DL1XH1-15 | 2026-09-01 12:55:32 | 51.55839 | 8.26537 | 82° | 84km/h | 10498m | -5.1m/s | -50.7°C | 43% | 254.6hPa | 2.6V | 07:59:09 | 02:37:39 | 00:00:00 | |
| DO2JMG | 2026-09-01 12:55:31 | 51.55839 | 8.26537 | 83° | 84km/h | 10498m | -5.1m/s | -50.7°C | 44.9% | 254.6hPa | 2.6V | 07:59:33 | 02:37:39 | 00:00:00 | |
| HSKMA3-T | 2026-09-01 12:55:28 | 51.55832 | 8.26446 | 82° | 69km/h | 10513m | -5m/s | -50.8°C | 43.9% | 254hPa | 2.5V | 07:59:33 | 02:37:36 | 00:00:00 | |
| DL4XJ-10 | 2026-09-01 12:55:27 | 51.55829 | 8.26419 | 79° | 77km/h | 10519m | -4.8m/s | -53.0°C | 0% | 0hPa | 2.5V | 00:00:00 | 00:00:00 | 00:00:00 | |
| DL1CLM-18 | 2026-09-01 12:55:26 | 51.55829 | 8.26419 | 79° | 66km/h | 10519m | -4.9m/s | -50.9°C | 36.2% | 253.8hPa | 2.5V | 00:00:00 | 00:00:00 | 00:00:00 | |
| DM0DOS-11 | 2026-09-01 12:55:25 | 51.55819 | 8.26368 | 67° | 68km/h | 10528m | -4.7m/s | -51°C | 40.5% | 253.4hPa | 2.5V | 07:59:15 | 02:37:33 | 00:00:00 | |
| DL1NUX | 2026-09-01 12:55:25 | 51.55777 | 8.26220 | 68° | 91km/h | 10553m | -4.9m/s | -51.3°C | 40.3% | 252.4hPa | 2.5V | 07:59:20 | 02:37:28 | 00:00:00 | |
| DL1XH-west | 2026-09-01 12:55:23 | 51.55804 | 8.26315 | 63° | 78km/h | 10538m | -4.7m/s | -51.1°C | 42.7% | 253.1hPa | 2.5V | 07:59:33 | 02:37:31 | 00:00:00 | |
| DO2JMG | 2026-09-01 12:55:21 | 51.55785 | 8.26254 | 66° | 88km/h | 10548m | -5.4m/s | -51.2°C | 42.5% | 252.7hPa | 2.6V | 07:59:33 | 02:37:29 | 00:00:00 | |
| DL1XH-15 | 2026-09-01 12:55:21 | 51.55754 | 8.26077 | 81° | 86km/h | 10573m | -5.3m/s | -51.4°C | 39.8% | 251.7hPa | 2.6V | 07:59:24 | 02:37:24 | 00:00:00 | |
| AA1-15 | 2026-09-01 12:55:20 | 51.55777 | 8.26220 | 69° | 91km/h | 10553m | -4.9m/s | -51.3°C | 42.4% | 252.4hPa | 2.5V | 07:59:33 | 02:37:28 | 00:00:00 | |
| HSKMA3-T | 2026-09-01 12:55:17 | 51.55758 | 8.26113 | 79° | 91km/h | 10568m | -4.7m/s | -51.3°C | 41.8% | 251.8hPa | 2.6V | 07:59:33 | 02:37:25 | 00:00:00 | |
| DL1XH1-15 | 2026-09-01 12:55:16 | 51.55740 | 8.25930 | 74° | 64km/h | 10597m | -5.2m/s | -51.6°C | 40.7% | 250.7hPa | 2.6V | 07:59:29 | 02:37:19 | 00:00:00 | |
| DD8BA-10 | 2026-09-01 12:55:16 | 51.55754 | 8.26077 | 82° | 71km/h | 10573m | -5.3m/s | -51.3°C | 39.8% | 251.6hPa | 2.5V | 00:00:00 | 00:00:00 | 00:00:00 | |
| DL1NUX | 2026-09-01 12:55:15 | 51.55735 | 8.25906 | 70° | 64km/h | 10602m | -5.2m/s | -51.6°C | 40.7% | 250.5hPa | 2.5V | 07:59:30 | 02:37:18 | 00:00:00 | |
| DL1XH-west | 2026-09-01 12:55:12 | 51.55744 | 8.25956 | 79° | 66km/h | 10592m | -4.8m/s | -51.5°C | 42.3% | 250.9hPa | 2.6V | 07:59:33 | 02:37:20 | 00:00:00 | |
| DL1XH-15 | 2026-09-01 12:55:12 | 51.55704 | 8.25802 | 62° | 78km/h | 10623m | -4.9m/s | -51.8°C | 39.9% | 249.6hPa | 2.6V | 07:59:34 | 02:37:14 | 00:00:00 | |
| DO2JMG | 2026-09-01 12:55:10 | 51.55735 | 8.25906 | 70° | 64km/h | 10602m | -5.3m/s | -51.6°C | 42.4% | 250.5hPa | 2.5V | 07:59:33 | 02:37:18 | 00:00:00 | |
| WPPR-10 | 2026-09-01 12:55:10 | 51.55735 | 8.25906 | 70° | 64km/h | 10602m | -5.3m/s | -51.6°C | 35.1% | 250.5hPa | 2.6V | 00:00:00 | 00:00:00 | 00:00:00 | |
| AU51GT2 | 2026-09-01 12:55:09 | 51.55721 | 8.25856 | 64° | 69km/h | 10613m | -5.2m/s | -51.7°C | 34.6% | 250.1hPa | 2.6V | 00:00:00 | 00:00:00 | 00:00:00 | |
| DL4XJ-10 | 2026-09-01 12:55:07 | 51.55713 | 8.25829 | 63° | 78km/h | 10619m | -5.3m/s | -53.9°C | 0% | 0hPa | 2.6V | 00:00:00 | 00:00:00 | 00:00:00 | |
| DL1XH1-15 | 2026-09-01 12:55:06 | 51.55663 | 8.25636 | 76° | 91km/h | 10649m | -4.8m/s | -52°C | 38.7% | 248.7hPa | 2.6V | 07:59:39 | 02:37:09 | 00:00:00 | |
| HSKMA3-T | 2026-09-01 12:55:06 | 51.55704 | 8.25802 | 62° | 78km/h | 10623m | -4.9m/s | -51.8°C | 41.9% | 249.6hPa | 2.6V | 08:00:24 | 02:37:14 | 00:00:00 | |
| AA1-15 | 2026-09-01 12:55:05 | 51.55695 | 8.25772 | 64° | 84km/h | 10628m | -5.1m/s | -51.9°C | 41.7% | 249.5hPa | 2.5V | 08:02:57 | 02:37:13 | 00:00:00 | |
| DL1NUX | 2026-09-01 12:55:05 | 51.55658 | 8.25599 | 79° | 89km/h | 10653m | -4.8m/s | -52.1°C | 38.7% | 248.5hPa | 2.5V | 07:59:40 | 02:37:08 | 00:00:00 | |
| BIOWL1-15 | 2026-09-01 12:55:03 | 51.55663 | 8.25636 | 76° | 91km/h | 10649m | -4.8m/s | -52.1°C | 41.1% | 248.7hPa | 2.6V | 08:00:24 | 02:37:09 | 00:00:00 | |
| DL1XH-west | 2026-09-01 12:55:02 | 51.55669 | 8.25672 | 73° | 93km/h | 10644m | -5.2m/s | -52.1°C | 41.2% | 248.9hPa | 2.6V | 08:00:24 | 02:37:10 | 00:00:00 | |
| SO1NDE-10 | 2026-09-01 12:55:01 | 51.55663 | 8.25636 | 77° | 77km/h | 10649m | -4.8m/s | -52.0°C | 38.7% | 248.7hPa | 2.5V | 00:00:00 | 02:37:09 | 00:00:00 | |
| DM0DOS-11 | 2026-09-01 12:55:00 | 51.55645 | 8.25444 | 79° | 66km/h | 10679m | -5.2m/s | -52.2°C | 40.2% | 247.5hPa | 2.5V | 07:59:45 | 02:37:03 | 00:00:00 | |
| DO2JMG | 2026-09-01 12:54:59 | 51.55654 | 8.25565 | 82° | 86km/h | 10659m | -5.3m/s | -52.1°C | 41.1% | 248.3hPa | 2.5V | 08:00:24 | 02:37:07 | 00:00:00 | |
| HSKMA3-T | 2026-09-01 12:54:56 | 51.55647 | 8.25471 | 83° | 69km/h | 10674m | -5.2m/s | -52.2°C | 41.3% | 247.8hPa | 2.6V | 08:00:24 | 02:37:04 | 00:00:00 | |
| DJ2DS-15 | 2026-09-01 12:54:56 | 51.55647 | 8.25471 | 83° | 77km/h | 10674m | -5.2m/s | -52.2°C | 40.1% | 247.7hPa | 2.5V | 00:00:00 | 02:37:04 | 00:00:00 | |
| DL1NUX | 2026-09-01 12:54:54 | 51.55615 | 8.25320 | 61° | 73km/h | 10704m | -5.2m/s | -52.4°C | 40.3% | 246.6hPa | 2.5V | 07:59:50 | 02:36:58 | 00:00:00 | |
| AA1-15 | 2026-09-01 12:54:53 | 51.55637 | 8.25394 | 71° | 62km/h | 10689m | -4.9m/s | -52.3°C | 41.7% | 247.1hPa | 2.5V | 08:02:57 | 02:37:01 | 00:00:00 | |
| DL1XH-west | 2026-09-01 12:54:51 | 51.55623 | 8.25345 | 63° | 69km/h | 10699m | -4.9m/s | -52.3°C | 42% | 246.8hPa | 2.6V | 08:00:24 | 02:36:59 | 00:00:00 | |
| DO2JMG | 2026-09-01 12:54:49 | 51.55606 | 8.25293 | 62° | 78km/h | 10709m | -5m/s | -52.5°C | 42.3% | 246.4hPa | 2.5V | 08:00:24 | 02:36:57 | 00:00:00 | |
| GOEST3-10 | 2026-09-01 12:54:49 | 51.55606 | 8.25293 | 62° | 86km/h | 10709m | -4.9m/s | -52.4°C | 40.3% | 246.3hPa | 2.5V | 00:00:00 | 02:36:57 | 00:00:00 | |
| DO3DL | 2026-09-01 12:54:48 | 51.55606 | 8.25293 | 63° | 78km/h | 10709m | -5.0m/s | -52.5°C | 34.5% | 246.4hPa | 2.6V | 08:00:00 | 00:00:00 | 00:00:00 | |
| DL4XJ-10 | 2026-09-01 12:54:47 | 51.55587 | 8.25232 | 66° | 80km/h | 10720m | -4.8m/s | -54.7°C | 0% | 0hPa | 2.6V | 00:00:00 | 00:00:00 | 00:00:00 | |
| DL1XH1-15 | 2026-09-01 12:54:46 | 51.55550 | 8.25027 | 82° | 80km/h | 10749m | -5m/s | -52.8°C | 43.1% | 244.8hPa | 2.6V | 07:59:59 | 02:36:49 | 00:00:00 | |
| HSKMA3-T | 2026-09-01 12:54:46 | 51.55578 | 8.25199 | 68° | 89km/h | 10724m | -4.9m/s | -52.7°C | 42.9% | 245.8hPa | 2.6V | 08:00:24 | 02:36:54 | 00:00:00 | |
| HTAHTA | 2026-09-01 12:54:44 | 51.55563 | 8.25130 | 74° | 89km/h | 10734m | -4.9m/s | -52.7°C | 35.6% | 245.4hPa | 2.5V | 00:00:00 | 00:00:00 | 00:00:00 | |
| DL1XH-west | 2026-09-01 12:54:40 | 51.55548 | 8.24995 | 83° | 75km/h | 10754m | -5m/s | -52.8°C | 45.2% | 244.7hPa | 2.5V | 08:00:24 | 02:36:48 | 00:00:00 | |
| DO2JMG | 2026-09-01 12:54:38 | 51.55543 | 8.24940 | 79° | 64km/h | 10764m | -5.2m/s | -52.9°C | 46.3% | 244.2hPa | 2.5V | 08:00:24 | 02:36:46 | 00:00:00 | |
| AA1-15 | 2026-09-01 12:54:36 | 51.55534 | 8.24891 | 69° | 62km/h | 10774m | -5.2m/s | -52.9°C | 47% | 243.9hPa | 2.6V | 08:02:57 | 02:36:44 | 00:00:00 | |
| DD8BA-10 | 2026-09-01 12:54:36 | 51.55534 | 8.24890 | 70° | 78km/h | 10774m | -5.2m/s | -52.8°C | 45.2% | 243.8hPa | 2.6V | 00:00:00 | 00:00:00 | 00:00:00 | |
| DL1NUX | 2026-09-01 12:54:35 | 51.55483 | 8.24730 | 65° | 88km/h | 10804m | -5m/s | -53.2°C | 47.3% | 242.8hPa | 2.5V | 08:00:10 | 02:36:38 | 00:00:00 | |
| HSKMA3-T | 2026-09-01 12:54:35 | 51.55528 | 8.24867 | 65° | 64km/h | 10779m | -5m/s | -52.9°C | 47.3% | 243.7hPa | 2.5V | 08:00:24 | 02:36:43 | 00:00:00 | |
| BIOWL1-15 | 2026-09-01 12:54:32 | 51.55483 | 8.24730 | 66° | 88km/h | 10804m | -5m/s | -53.2°C | 49% | 242.8hPa | 2.5V | 08:00:24 | 02:36:38 | 00:00:00 | |
| DL1XH-west | 2026-09-01 12:54:29 | 51.55474 | 8.24697 | 69° | 89km/h | 10809m | -5.4m/s | -53.3°C | 49.4% | 242.5hPa | 2.5V | 08:00:24 | 02:36:37 | 00:00:00 | |
| DO2JMG | 2026-09-01 12:54:28 | 51.55466 | 8.24662 | 72° | 91km/h | 10815m | -4.9m/s | -53.3°C | 49.5% | 242.3hPa | 2.5V | 08:00:24 | 02:36:36 | 00:00:00 | |
| DL4XJ-10 | 2026-09-01 12:54:27 | 51.55460 | 8.24627 | 76° | 78km/h | 10819m | -5.0m/s | -55.4°C | 0% | 0hPa | 2.6V | 00:00:00 | 00:00:00 | 00:00:00 | |
| DL1XH1-15 | 2026-09-01 12:54:26 | 51.55438 | 8.24448 | 74° | 62km/h | 10849m | -5.1m/s | -53.6°C | 50.1% | 241hPa | 2.6V | 08:00:19 | 02:36:29 | 00:00:00 | |
| DO9LL-15 | 2026-09-01 12:54:26 | 51.55455 | 8.24593 | 79° | 75km/h | 10824m | -5.0m/s | -53.3°C | 48.6% | 242.0hPa | 2.6V | 08:00:00 | 02:36:34 | 00:00:00 | |
| DL1NUX | 2026-09-01 12:54:25 | 51.55433 | 8.24425 | 69° | 62km/h | 10854m | -5.1m/s | -53.6°C | 49.8% | 240.9hPa | 2.5V | 08:00:20 | 02:36:28 | 00:00:00 | |
| HSKMA3-T | 2026-09-01 12:54:24 | 51.55448 | 8.24529 | 81° | 75km/h | 10834m | -4.9m/s | -53.5°C | 50% | 241.6hPa | 2.5V | 08:00:24 | 02:36:32 | 00:00:00 | |
| BIOWL1-15 | 2026-09-01 12:54:21 | 51.55427 | 8.24401 | 65° | 64km/h | 10859m | -5.2m/s | -53.7°C | 49.9% | 240.7hPa | 2.5V | 08:00:24 | 02:36:27 | 00:00:00 | |
| DL1XH-west | 2026-09-01 12:54:18 | 51.55419 | 8.24377 | 62° | 68km/h | 10864m | -4.9m/s | -53.7°C | 49.6% | 240.5hPa | 2.5V | 08:00:24 | 02:36:26 | 00:00:00 | |
| DO2JMG | 2026-09-01 12:54:17 | 51.55411 | 8.24352 | 61° | 73km/h | 10869m | -5.2m/s | -53.8°C | 49.3% | 240.3hPa | 2.6V | 08:00:24 | 02:36:25 | 00:00:00 | |
| DL1XH-15 | 2026-09-01 12:54:16 | 51.55392 | 8.24296 | 63° | 84km/h | 10879m | -4.9m/s | -53.9°C | 46.9% | 239.9hPa | 2.5V | 08:00:25 | 02:36:23 | 00:00:00 | |
| DL1XH1-15 | 2026-09-01 12:54:16 | 51.55361 | 8.24162 | 75° | 89km/h | 10898m | -4.9m/s | -54°C | 45.9% | 239.1hPa | 2.6V | 08:00:29 | 02:36:19 | 00:00:00 | |
| AA1-15 | 2026-09-01 12:54:15 | 51.55392 | 8.24296 | 63° | 84km/h | 10879m | -4.9m/s | -53.9°C | 48.4% | 239.9hPa | 2.5V | 08:02:57 | 02:36:23 | 00:00:00 | |
| DL1NUX | 2026-09-01 12:54:15 | 51.55356 | 8.24127 | 78° | 88km/h | 10903m | -5.3m/s | -54°C | 45.7% | 239hPa | 2.5V | 08:00:30 | 02:36:18 | 00:00:00 | |
| HSKMA3-T | 2026-09-01 12:54:13 | 51.55374 | 8.24231 | 69° | 89km/h | 10889m | -4.9m/s | -54°C | 47.7% | 239.5hPa | 2.5V | 08:01:15 | 02:36:21 | 00:00:00 | |
| BIOWL1-15 | 2026-09-01 12:54:09 | 51.55352 | 8.24092 | 81° | 84km/h | 10908m | -5.4m/s | -54°C | 46.5% | 238.8hPa | 2.5V | 08:01:15 | 02:36:17 | 00:00:00 | |
| DL1XH-west | 2026-09-01 12:54:07 | 51.55346 | 8.24027 | 83° | 78km/h | 10919m | -5.5m/s | -54.1°C | 45.9% | 238.4hPa | 2.6V | 08:01:15 | 02:36:15 | 00:00:00 | |
| DL4XJ-10 | 2026-09-01 12:54:07 | 51.55346 | 8.24027 | 84° | 75km/h | 10919m | -5.5m/s | -56.2°C | 0% | 0hPa | 2.5V | 00:00:00 | 00:00:00 | 00:00:00 | |
| DL1XH-15 | 2026-09-01 12:54:06 | 51.55342 | 8.23967 | 83° | 69km/h | 10930m | -5.2m/s | -54.2°C | 45% | 237.9hPa | 2.5V | 08:00:35 | 02:36:13 | 00:00:00 | |
| DD8BA-10 | 2026-09-01 12:54:06 | 51.55344 | 8.23996 | 84° | 69km/h | 10925m | -5.5m/s | -54.1°C | 45.1% | 238.1hPa | 2.6V | 08:00:00 | 00:00:00 | 00:00:00 | |
| DL1NUX | 2026-09-01 12:54:05 | 51.55321 | 8.23844 | 63° | 66km/h | 10955m | -4.8m/s | -54.2°C | 43.4% | 237hPa | 2.5V | 08:00:40 | 02:36:08 | 00:00:00 | |
| HSKMA3-T | 2026-09-01 12:54:02 | 51.55333 | 8.23891 | 73° | 60km/h | 10945m | -5.1m/s | -54.2°C | 44.2% | 237.3hPa | 2.6V | 08:01:15 | 02:36:10 | 00:00:00 | |
| DL3AQ-11 | 2026-09-01 12:54:01 | 51.55313 | 8.23819 | 62° | 71km/h | 10959m | -4.9m/s | -54.3°C | 37.0% | 236.8hPa | 2.5V | 00:00:00 | 00:00:00 | 00:00:00 | |
| BIOWL1-15 | 2026-09-01 12:54:01 | 51.55304 | 8.23793 | 62° | 77km/h | 10964m | -5m/s | -54.3°C | 44.5% | 236.7hPa | 2.5V | 08:01:15 | 02:36:06 | 00:00:00 | |
| DJ2DS-15 | 2026-09-01 12:53:57 | 51.55295 | 8.23763 | 64° | 82km/h | 10969m | -5.0m/s | -54.4°C | 36.7% | 236.5hPa | 2.5V | 00:00:00 | 00:00:00 | 00:00:00 | |
| DL1XH-15 | 2026-09-01 12:53:56 | 51.55278 | 8.23698 | 70° | 89km/h | 10979m | -5.1m/s | -54.5°C | 42.7% | 236.1hPa | 2.5V | 08:00:45 | 02:36:03 | 00:00:00 | |
| DL1XH-west | 2026-09-01 12:53:56 | 51.55286 | 8.23732 | 68° | 88km/h | 10974m | -5.3m/s | -54.4°C | 44.5% | 236.3hPa | 2.6V | 08:01:15 | 02:36:04 | 00:00:00 | |
| DO9LL-15 | 2026-09-01 12:53:56 | 51.55286 | 8.23732 | 68° | 78km/h | 10974m | -5.2m/s | -54.4°C | 42.9% | 236.3hPa | 2.5V | 00:00:00 | 02:36:04 | 00:00:00 | |
| DL1NUX | 2026-09-01 12:53:55 | 51.55258 | 8.23529 | 85° | 73km/h | 11004m | -4.3m/s | -54.6°C | 44.7% | 235.2hPa | 2.5V | 08:00:50 | 02:35:58 | 00:00:00 | |
| HSKMA3-T | 2026-09-01 12:53:51 | 51.55260 | 8.23560 | 84° | 80km/h | 10999m | -5.5m/s | -54.6°C | 44.7% | 235.4hPa | 2.6V | 08:01:15 | 02:35:59 | 00:00:00 | |
| BIOWL1-15 | 2026-09-01 12:53:47 | 51.55250 | 8.23449 | 75° | 60km/h | 11018m | -5.1m/s | -54.6°C | 44.9% | 234.7hPa | 2.6V | 08:01:15 | 02:35:55 | 00:00:00 | |
| DO2JMG | 2026-09-01 12:53:46 | 51.55246 | 8.23425 | 72° | 62km/h | 11022m | -4.8m/s | -54.6°C | 45.1% | 234.5hPa | 2.6V | 08:01:15 | 02:35:54 | 00:00:00 | |
| DL1XH-15 | 2026-09-01 12:53:46 | 51.55240 | 8.23402 | 65° | 66km/h | 11027m | -5.1m/s | -54.6°C | 45.1% | 234.3hPa | 2.5V | 08:00:55 | 02:35:53 | 00:00:00 | |
| DL1XH-west | 2026-09-01 12:53:45 | 51.55240 | 8.23402 | 66° | 66km/h | 11027m | -5.1m/s | -54.6°C | 45.3% | 234.3hPa | 2.5V | 08:01:15 | 02:35:53 | 00:00:00 | |
| DJ8HS-15 | 2026-09-01 12:53:45 | 51.55233 | 8.23377 | 65° | 78km/h | 11033m | -5.2m/s | -54.6°C | 45.2% | 234.0hPa | 2.5V | 00:00:00 | 02:35:52 | 00:00:00 | |
| DL3AQ-11 | 2026-09-01 12:53:44 | 51.55225 | 8.23350 | 64° | 75km/h | 11038m | -5.6m/s | -54.7°C | 38.6% | 233.9hPa | 2.5V | 00:00:00 | 00:00:00 | 00:00:00 | |
| DL1NUX | 2026-09-01 12:53:43 | 51.55198 | 8.23261 | 68° | 86km/h | 11054m | -5.4m/s | -54.8°C | 45.3% | 233.4hPa | 2.5V | 08:01:00 | 02:35:48 | 00:00:00 | |
| HSKMA3-T | 2026-09-01 12:53:41 | 51.55207 | 8.23292 | 64° | 84km/h | 11048m | -5.6m/s | -54.8°C | 46.1% | 233.5hPa | 2.6V | 08:01:15 | 02:35:49 | 00:00:00 | |
| DB0DAN | 2026-09-01 12:53:40 | 51.55198 | 8.23261 | 68° | 82km/h | 11054m | -5.4m/s | -54.8°C | 38.7% | 233.42hPa | 2.5V | 00:00:00 | 00:00:00 | 00:00:00 | |
| DO2JMG | 2026-09-01 12:53:36 | 51.55173 | 8.23119 | 80° | 93km/h | 11075m | -6m/s | -54.9°C | 47.1% | 232.6hPa | 2.6V | 08:01:15 | 02:35:44 | 00:00:00 | |
| DL1XH-west | 2026-09-01 12:53:35 | 51.55169 | 8.23082 | 81° | 93km/h | 11080m | -4.9m/s | -54.9°C | 47.4% | 232.4hPa | 2.5V | 08:01:15 | 02:35:43 | 00:00:00 | |
| DJ2KF-10 | 2026-09-01 12:53:34 | 51.55167 | 8.23046 | 86° | 78km/h | 11085m | -4.6m/s | -54.9°C | 46.3% | 232.2hPa | 2.6V | 00:00:00 | 02:35:42 | 00:00:00 | |
| DK9SH | 2026-09-01 12:53:33 | 51.55167 | 8.23046 | 86° | 86km/h | 11085m | -4.6m/s | -54.9°C | 39.6% | 232.2hPa | 2.6V | 08:01:00 | 00:00:00 | 00:00:00 | |
| DL1XH1-15 | 2026-09-01 12:53:32 | 51.55162 | 8.22949 | 86° | 73km/h | 11100m | -4.9m/s | -55°C | 47.6% | 231.6hPa | 2.6V | 08:01:09 | 02:35:39 | 00:00:00 | |
| AA1-15 | 2026-09-01 12:53:31 | 51.55162 | 8.22949 | 87° | 73km/h | 11100m | -4.9m/s | -55°C | 48.4% | 231.6hPa | 2.6V | 08:02:57 | 02:35:39 | 00:00:00 | |
| HSKMA3-T | 2026-09-01 12:53:30 | 51.55161 | 8.22921 | 85° | 68km/h | 11105m | -4.7m/s | -55.1°C | 48.6% | 231.4hPa | 2.5V | 08:01:15 | 02:35:38 | 00:00:00 | |
| GOEST3-10 | 2026-09-01 12:53:29 | 51.55158 | 8.22893 | 81° | 68km/h | 11110m | -5.5m/s | -55.1°C | 48.4% | 231.3hPa | 2.6V | 00:00:00 | 02:35:37 | 00:00:00 | |
| DO3DL | 2026-09-01 12:53:28 | 51.55158 | 8.22893 | 81° | 66km/h | 11110m | -5.5m/s | -55.1°C | 41.5% | 231.3hPa | 2.6V | 08:01:00 | 00:00:00 | 00:00:00 | |
| DL4XJ-10 | 2026-09-01 12:53:27 | 51.55151 | 8.22842 | 72° | 78km/h | 11119m | -4.6m/s | -57.3°C | 0% | 0hPa | 2.6V | 00:00:00 | 00:00:00 | 00:00:00 | |
| DL1XH1-15 | 2026-09-01 12:53:26 | 51.55105 | 8.22663 | 72° | 91km/h | 11149m | -4.5m/s | -55.4°C | 49.4% | 229.8hPa | 2.6V | 08:01:19 | 02:35:29 | 00:00:00 | |
| DO9LL-15 | 2026-09-01 12:53:26 | 51.55145 | 8.22817 | 68° | 82km/h | 11124m | -4.9m/s | -55.2°C | 48.7% | 230.8hPa | 2.5V | 00:00:00 | 02:35:34 | 00:00:00 | |
| BIOWL1-15 | 2026-09-01 12:53:26 | 51.55145 | 8.22817 | 68° | 69km/h | 11124m | -4.9m/s | -55.3°C | 49.5% | 230.8hPa | 2.6V | 08:01:15 | 02:35:34 | 00:00:00 | |
| DL1NUX | 2026-09-01 12:53:25 | 51.55099 | 8.22627 | 75° | 95km/h | 11154m | -5.4m/s | -55.4°C | 49.7% | 229.7hPa | 2.5V | 08:01:20 | 02:35:28 | 00:00:00 | |
| DL1XH-west | 2026-09-01 12:53:25 | 51.55137 | 8.22790 | 66° | 73km/h | 11129m | -4.8m/s | -55.3°C | 49.6% | 230.6hPa | 2.5V | 08:01:15 | 02:35:33 | 00:00:00 | |
| AA1-15 | 2026-09-01 12:53:21 | 51.55105 | 8.22664 | 73° | 91km/h | 11149m | -4.5m/s | -55.4°C | 50.4% | 229.8hPa | 2.6V | 08:02:57 | 02:35:29 | 00:00:00 | |
| HSKMA3-T | 2026-09-01 12:53:19 | 51.55094 | 8.22590 | 81° | 91km/h | 11159m | -5.4m/s | -55.4°C | 51.1% | 229.5hPa | 2.5V | 08:02:06 | 02:35:27 | 00:00:00 | |
| DD1CC8 | 2026-09-01 12:53:18 | 51.55091 | 8.22554 | 82° | 91km/h | 11165m | -4.8m/s | -55.5°C | 43.3% | 229.3hPa | 2.5V | 00:00:00 | 00:00:00 | 00:00:00 | |
| DM0DOS-11 | 2026-09-01 12:53:17 | 51.55087 | 8.22451 | 88° | 77km/h | 11179m | -5.2m/s | -55.5°C | 51.6% | 228.8hPa | 2.5V | 08:01:25 | 02:35:23 | 00:00:00 | |
| BIOWL1-15 | 2026-09-01 12:53:16 | 51.55068 | 8.22287 | 67° | 75km/h | 11208m | -4.9m/s | -55.7°C | 54.3% | 227.7hPa | 2.5V | 08:02:06 | 02:35:17 | 00:00:00 | |
| DO2JMG | 2026-09-01 12:53:15 | 51.55086 | 8.22393 | 84° | 68km/h | 11189m | -4.8m/s | -55.6°C | 52.9% | 228.4hPa | 2.5V | 08:02:06 | 02:35:21 | 00:00:00 | |
| DL1XH-west | 2026-09-01 12:53:14 | 51.55087 | 8.22421 | 88° | 71km/h | 11184m | -5.6m/s | -55.6°C | 52.5% | 228.6hPa | 2.5V | 08:02:06 | 02:35:22 | 00:00:00 | |
| DL1XH1-15 | 2026-09-01 12:53:14 | 51.55080 | 8.22340 | 74° | 64km/h | 11199m | -4.6m/s | -55.6°C | 53.1% | 228hPa | 2.6V | 08:01:29 | 02:35:19 | 00:00:00 | |
| HTAHTA | 2026-09-01 12:53:11 | 51.55074 | 8.22315 | 71° | 68km/h | 11204m | -5.1m/s | -55.7°C | 46.0% | 227.9hPa | 2.5V | 00:00:00 | 00:00:00 | 00:00:00 | |
| DL1XH-15 | 2026-09-01 12:53:10 | 51.55038 | 8.22159 | 73° | 91km/h | 11227m | -5.1m/s | -55.9°C | 55.1% | 227hPa | 2.5V | 08:01:35 | 02:35:13 | 00:00:00 | |
| HSKMA3-T | 2026-09-01 12:53:08 | 51.55060 | 8.22259 | 68° | 78km/h | 11213m | -4.4m/s | -55.7°C | 54.7% | 227.6hPa | 2.5V | 08:02:06 | 02:35:16 | 00:00:00 | |
| DL1ZP-14 | 2026-09-01 12:53:08 | 51.55052 | 8.22228 | 68° | 86km/h | 11218m | -5.3m/s | -55.8°C | 47.0% | 227.4hPa | 2.6V | 00:00:00 | 00:00:00 | 00:00:00 | |
| DL4XJ-10 | 2026-09-01 12:53:07 | 51.55052 | 8.22227 | 69° | 80km/h | 11218m | -5.3m/s | -57.9°C | 0% | 0hPa | 2.6V | 00:00:00 | 00:00:00 | 00:00:00 | |
| DL1XH1-15 | 2026-09-01 12:53:06 | 51.55022 | 8.22014 | 86° | 88km/h | 11248m | -4.8m/s | -56°C | 58% | 226.3hPa | 2.6V | 08:01:39 | 02:35:09 | 00:00:00 | |
| DD8BA-10 | 2026-09-01 12:53:06 | 51.55045 | 8.22194 | 72° | 86km/h | 11223m | -4.6m/s | -55.8°C | 54.8% | 227.1hPa | 2.6V | 00:00:00 | 00:00:00 | 00:00:00 | |
| DL1NUX | 2026-09-01 12:53:05 | 51.55021 | 8.21979 | 88° | 84km/h | 11253m | -4.5m/s | -56.1°C | 59.1% | 226.1hPa | 2.5V | 08:01:40 | 02:35:08 | 00:00:00 | |
| DL1XH-west | 2026-09-01 12:53:03 | 51.55027 | 8.22086 | 80° | 93km/h | 11238m | -5.7m/s | -56°C | 56.9% | 226.7hPa | 2.5V | 08:02:06 | 02:35:11 | 00:00:00 | |
| BIOWL1-15 | 2026-09-01 12:52:58 | 51.55020 | 8.21914 | 88° | 75km/h | 11262m | -5.5m/s | -56.2°C | 59.9% | 225.8hPa | 2.5V | 08:02:06 | 02:35:06 | 00:00:00 | |
| DM0DOS-11 | 2026-09-01 12:52:57 | 51.55006 | 8.21783 | 69° | 64km/h | 11288m | -5.1m/s | -56.4°C | 62.6% | 224.8hPa | 2.5V | 08:01:47 | 02:35:01 | 00:00:00 | |
| HSKMA3-T | 2026-09-01 12:52:57 | 51.55020 | 8.21885 | 87° | 69km/h | 11268m | -5.4m/s | -56.2°C | 60.4% | 225.6hPa | 2.6V | 08:02:06 | 02:35:05 | 00:00:00 | |
| DD1CC1-15 | 2026-09-01 12:52:56 | 51.55018 | 8.21858 | 84° | 66km/h | 11273m | -5.1m/s | -56.2°C | 53.5% | 225.5hPa | 2.6V | 00:00:00 | 00:00:00 | 00:00:00 | |
| GOEST3-10 | 2026-09-01 12:52:55 | 51.55012 | 8.21807 | 74° | 69km/h | 11283m | -5.2m/s | -56.3°C | 62.4% | 225.0hPa | 2.6V | 00:00:00 | 00:00:00 | 00:00:00 | |
| DB0DAN | 2026-09-01 12:52:55 | 51.55015 | 8.21832 | 78° | 60km/h | 11278m | -4.6m/s | -56.3°C | 53.9% | 225.23hPa | 2.5V | 00:00:00 | 00:00:00 | 00:00:00 | |
| DL1NUX | 2026-09-01 12:52:54 | 51.54985 | 8.21702 | 67° | 80km/h | 11303m | -5.3m/s | -56.5°C | 62.3% | 224.3hPa | 2.6V | 08:01:50 | 02:34:58 | 00:00:00 | |
| AA1-15 | 2026-09-01 12:52:54 | 51.55012 | 8.21807 | 73° | 62km/h | 11283m | -5.2m/s | -56.3°C | 61.9% | 225hPa | 2.5V | 08:02:57 | 02:35:02 | 00:00:00 | |
| DO1YAY-16 | 2026-09-01 12:52:53 | 51.55000 | 8.21758 | 67° | 68km/h | 11293m | -5.1m/s | -56.4°C | 54.4% | 224.7hPa | 2.6V | 00:00:00 | 00:00:00 | 00:00:00 | |
| DL1XH-west | 2026-09-01 12:52:53 | 51.55007 | 8.21783 | 70° | 64km/h | 11288m | -5.1m/s | -56.4°C | 62.4% | 224.9hPa | 2.5V | 08:02:06 | 02:35:01 | 00:00:00 | |
| DL1XH1-15 | 2026-09-01 12:52:52 | 51.54993 | 8.21731 | 65° | 75km/h | 11298m | -5.5m/s | -56.4°C | 62.5% | 224.6hPa | 2.6V | 08:01:49 | 02:34:59 | 00:00:00 | |
| DL3AQ-11 | 2026-09-01 12:52:51 | 51.54985 | 8.21702 | 67° | 80km/h | 11303m | -5.3m/s | -56.5°C | 54.1% | 224.3hPa | 2.6V | 00:00:00 | 00:00:00 | 00:00:00 | |
| DL1XH-15 | 2026-09-01 12:52:50 | 51.54953 | 8.21531 | 80° | 93km/h | 11328m | -4.8m/s | -56.7°C | 61.4% | 223.5hPa | 2.6V | 08:01:55 | 02:34:53 | 00:00:00 | |
| BIOWL1-15 | 2026-09-01 12:52:50 | 51.54970 | 8.21638 | 72° | 89km/h | 11314m | -4.9m/s | -56.6°C | 62.6% | 224hPa | 2.5V | 08:02:06 | 02:34:56 | 00:00:00 | |
| HSKMA3-T | 2026-09-01 12:52:47 | 51.54963 | 8.21604 | 73° | 91km/h | 11318m | -5m/s | -56.6°C | 62.3% | 223.8hPa | 2.5V | 08:02:06 | 02:34:55 | 00:00:00 | |
| DD1CC8 | 2026-09-01 12:52:47 | 51.54957 | 8.21568 | 78° | 89km/h | 11323m | -4.5m/s | -56.7°C | 53.2% | 223.6hPa | 2.6V | 00:00:00 | 00:00:00 | 00:00:00 | |
| DD8BA-10 | 2026-09-01 12:52:46 | 51.54957 | 8.21568 | 79° | 78km/h | 11324m | -4.5m/s | -56.6°C | 61.4% | 223.6hPa | 2.6V | 00:00:00 | 00:00:00 | 00:00:00 | |
| DL1NUX | 2026-09-01 12:52:45 | 51.54948 | 8.21363 | 88° | 73km/h | 11353m | -5m/s | -56.9°C | 64.7% | 222.6hPa | 2.6V | 08:02:00 | 02:34:48 | 00:00:00 | |
| DM0DOS-11 | 2026-09-01 12:52:45 | 51.54949 | 8.21459 | 87° | 86km/h | 11338m | -5.7m/s | -56.8°C | 62.2% | 223.1hPa | 2.5V | 08:01:57 | 02:34:51 | 00:00:00 | |
| DL1XH-west | 2026-09-01 12:52:42 | 51.54948 | 8.21425 | 89° | 84km/h | 11343m | -5.2m/s | -56.8°C | 62% | 222.9hPa | 2.5V | 08:02:06 | 02:34:50 | 00:00:00 | |
| DL1XH-15 | 2026-09-01 12:52:40 | 51.54930 | 8.21230 | 67° | 75km/h | 11377m | -5m/s | -57.1°C | 64% | 221.8hPa | 2.6V | 08:02:05 | 02:34:43 | 00:00:00 | |
| AA1-15 | 2026-09-01 12:52:39 | 51.54947 | 8.21335 | 86° | 66km/h | 11358m | -4.4m/s | -56.9°C | 62.1% | 222.4hPa | 2.6V | 08:02:57 | 02:34:47 | 00:00:00 | |
| BIOWL1-15 | 2026-09-01 12:52:37 | 51.54914 | 8.21172 | 70° | 84km/h | 11387m | -4.9m/s | -57.1°C | 61.2% | 221.4hPa | 2.5V | 08:02:57 | 02:34:41 | 00:00:00 | |
| DM0DOS-11 | 2026-09-01 12:52:37 | 51.54914 | 8.21171 | 69° | 84km/h | 11387m | -4.9m/s | -57.1°C | 62% | 221.4hPa | 2.5V | 08:02:07 | 02:34:41 | 00:00:00 | |
| HSKMA3-T | 2026-09-01 12:52:36 | 51.54936 | 8.21258 | 70° | 69km/h | 11372m | -4.6m/s | -57.1°C | 61.9% | 221.9hPa | 2.5V | 08:02:06 | 02:34:44 | 00:00:00 | |
| DO2JMG | 2026-09-01 12:52:32 | 51.54906 | 8.21139 | 68° | 89km/h | 11392m | -5.2m/s | -57.2°C | 60.6% | 221.2hPa | 2.5V | 08:02:57 | 02:34:40 | 00:00:00 | |
| DL1XH-west | 2026-09-01 12:52:31 | 51.54899 | 8.21104 | 72° | 93km/h | 11397m | -5m/s | -57.2°C | 60.1% | 221.1hPa | 2.5V | 08:02:57 | 02:34:39 | 00:00:00 | |
| SO1NDE-10 | 2026-09-01 12:52:31 | 51.54899 | 8.21104 | 72° | 88km/h | 11397m | -5.0m/s | -57.1°C | 60.0% | 221.0hPa | 2.5V | 00:00:00 | 02:34:39 | 00:00:00 | |
| DK9SH | 2026-09-01 12:52:30 | 51.54899 | 8.21104 | 73° | 93km/h | 11397m | -5.0m/s | -57.2°C | 51.7% | 221.1hPa | 2.5V | 08:02:00 | 00:00:00 | 00:00:00 | |
| DL1XH-15 | 2026-09-01 12:52:29 | 51.54874 | 8.20847 | 89° | 84km/h | 11434m | -4.8m/s | -57.3°C | 58.2% | 219.8hPa | 2.5V | 08:02:16 | 02:34:32 | 00:00:00 | |
| HSKMA3-T | 2026-09-01 12:52:25 | 51.54875 | 8.20882 | 88° | 88km/h | 11429m | -5.1m/s | -57.3°C | 57.5% | 220hPa | 2.5V | 08:02:57 | 02:34:33 | 00:00:00 | |
| DM0DOS-11 | 2026-09-01 12:52:24 | 51.54874 | 8.20815 | 89° | 77km/h | 11439m | -4.5m/s | -57.3°C | 58.7% | 219.6hPa | 2.6V | 08:02:17 | 02:34:31 | 00:00:00 | |
| DL1XH-west | 2026-09-01 12:52:21 | 51.54873 | 8.20756 | 84° | 69km/h | 11447m | -5m/s | -57.4°C | 56.7% | 219.4hPa | 2.5V | 08:02:57 | 02:34:29 | 00:00:00 | |
| GOEST3-10 | 2026-09-01 12:52:20 | 51.54865 | 8.20701 | 74° | 82km/h | 11457m | -4.4m/s | -57.4°C | 59.1% | 219.0hPa | 2.5V | 00:00:00 | 02:34:27 | 00:00:00 | |
| DL1XH-15 | 2026-09-01 12:52:19 | 51.54829 | 8.20542 | 72° | 93km/h | 11481m | -5.2m/s | -57.6°C | 54.3% | 218.2hPa | 2.5V | 08:02:26 | 02:34:22 | 00:00:00 | |
| AA1-15 | 2026-09-01 12:52:19 | 51.54860 | 8.20672 | 70° | 77km/h | 11461m | -5.3m/s | -57.5°C | 55.6% | 218.8hPa | 2.6V | 08:02:57 | 02:34:26 | 00:00:00 | |
| DM0DOS-11 | 2026-09-01 12:52:18 | 51.54822 | 8.20505 | 71° | 100km/h | 11486m | -5.6m/s | -57.6°C | 53.3% | 217.9hPa | 2.5V | 08:02:27 | 02:34:21 | 00:00:00 | |
| DL1NUX | 2026-09-01 12:52:16 | 51.54805 | 8.20384 | 81° | 104km/h | 11503m | -5.5m/s | -57.7°C | 51.2% | 217.3hPa | 2.6V | 08:02:30 | 02:34:18 | 00:00:00 | |
| BIOWL1-15 | 2026-09-01 12:52:15 | 51.54837 | 8.20577 | 70° | 91km/h | 11476m | -5.2m/s | -57.5°C | 54.4% | 218.3hPa | 2.5V | 08:02:57 | 02:34:23 | 00:00:00 | |
| HSKMA3-T | 2026-09-01 12:52:15 | 51.54829 | 8.20542 | 72° | 93km/h | 11481m | -5.2m/s | -57.6°C | 53.8% | 218.2hPa | 2.5V | 08:02:57 | 02:34:22 | 00:00:00 | |
| GOEST3-10 | 2026-09-01 12:52:14 | 51.54829 | 8.20542 | 73° | 100km/h | 11481m | -5.1m/s | -57.5°C | 54.3% | 218.1hPa | 2.6V | 00:00:00 | 00:00:00 | 00:00:00 | |
| DL1XH1-15 | 2026-09-01 12:52:13 | 51.54809 | 8.20425 | 78° | 102km/h | 11497m | -6.2m/s | -57.6°C | 51.6% | 217.5hPa | 2.6V | 08:02:29 | 02:34:19 | 00:00:00 | |
| DL1XH-west | 2026-09-01 12:52:10 | 51.54805 | 8.20384 | 82° | 104km/h | 11504m | -5.5m/s | -57.7°C | 51.6% | 217.4hPa | 2.6V | 08:02:57 | 02:34:18 | 00:00:00 | |
| DO2JMG | 2026-09-01 12:52:09 | 51.54802 | 8.20343 | 84° | 102km/h | 11509m | -4.6m/s | -57.7°C | 51% | 217.2hPa | 2.5V | 08:02:57 | 02:34:17 | 00:00:00 | |
| DL1XH-15 | 2026-09-01 12:52:09 | 51.54799 | 8.20157 | 89° | 80km/h | 11534m | -4.6m/s | -57.7°C | 49.7% | 216.3hPa | 2.5V | 08:02:36 | 02:34:12 | 00:00:00 | |
| DL4BBY-15 | 2026-09-01 12:52:09 | 51.54801 | 8.20343 | 85° | 88km/h | 11509m | -4.5m/s | -59.8°C | 0% | 0hPa | 2.5V | 00:00:00 | 00:00:00 | 00:00:00 | |
| DM0DOS-11 | 2026-09-01 12:52:08 | 51.54798 | 8.20126 | 86° | 75km/h | 11539m | -4.8m/s | -57.7°C | 49.3% | 216.2hPa | 2.5V | 08:02:37 | 02:34:11 | 00:00:00 | |
| AA1-15 | 2026-09-01 12:52:06 | 51.54799 | 8.20191 | 90° | 86km/h | 11529m | -5.3m/s | -57.8°C | 49.1% | 216.5hPa | 2.6V | 08:02:57 | 02:34:13 | 00:00:00 | |
| GOEST3-10 | 2026-09-01 12:52:06 | 51.54799 | 8.20157 | 90° | 75km/h | 11534m | -4.5m/s | -57.7°C | 49.7% | 216.3hPa | 2.5V | 00:00:00 | 00:00:00 | 00:00:00 | |
| DL1NUX | 2026-09-01 12:52:05 | 51.54789 | 8.20038 | 75° | 73km/h | 11554m | -5.1m/s | -57.8°C | 47.7% | 215.7hPa | 2.6V | 08:02:40 | 02:34:08 | 00:00:00 | |
| BIOWL1-15 | 2026-09-01 12:52:04 | 51.54799 | 8.20157 | 89° | 80km/h | 11534m | -4.6m/s | -57.7°C | 48.7% | 216.3hPa | 2.5V | 08:02:57 | 02:34:12 | 00:00:00 | |
| HSKMA3-T | 2026-09-01 12:52:04 | 51.54798 | 8.20126 | 86° | 75km/h | 11539m | -4.8m/s | -57.8°C | 48.3% | 216.2hPa | 2.5V | 08:02:57 | 02:34:11 | 00:00:00 | |
| DL1XH-west | 2026-09-01 12:52:00 | 51.54789 | 8.20038 | 75° | 73km/h | 11554m | -5.1m/s | -57.8°C | 47.2% | 215.7hPa | 2.6V | 08:02:57 | 02:34:08 | 00:00:00 | |
| DL3AQ-11 | 2026-09-01 12:52:00 | 51.54783 | 8.20008 | 71° | 78km/h | 11559m | -5.3m/s | -57.8°C | 39.8% | 215.5hPa | 2.6V | 00:00:00 | 00:00:00 | 00:00:00 | |
| DL1XH-15 | 2026-09-01 12:51:59 | 51.54744 | 8.19836 | 71° | 102km/h | 11586m | -5.3m/s | -57.9°C | 45.6% | 214.6hPa | 2.6V | 08:02:46 | 02:34:02 | 00:00:00 | |
| GOEST3-10 | 2026-09-01 12:51:59 | 51.54783 | 8.20008 | 72° | 88km/h | 11559m | -5.3m/s | -57.7°C | 47.3% | 215.4hPa | 2.6V | 00:00:00 | 02:34:07 | 00:00:00 | |
| DM0DOS-11 | 2026-09-01 12:51:57 | 51.54737 | 8.19796 | 75° | 104km/h | 11591m | -4.6m/s | -57.9°C | 45.3% | 214.5hPa | 2.6V | 08:02:47 | 02:34:01 | 00:00:00 | |
| DO2JMG | 2026-09-01 12:51:56 | 51.54761 | 8.19911 | 71° | 93km/h | 11575m | -5.3m/s | -57.8°C | 45.9% | 214.9hPa | 2.5V | 08:02:57 | 02:34:04 | 00:00:00 | |
| BIOWL1-15 | 2026-09-01 12:51:54 | 51.54727 | 8.19713 | 84° | 106km/h | 11600m | -4.7m/s | -57.9°C | 44.5% | 214.1hPa | 2.5V | 08:02:57 | 02:33:59 | 00:00:00 | |
| DL1XH1-15 | 2026-09-01 12:51:53 | 51.54728 | 8.19713 | 83° | 106km/h | 11600m | -4.7m/s | -57.9°C | 44.9% | 214.1hPa | 2.5V | 08:02:49 | 02:33:59 | 00:00:00 | |
| HSKMA3-T | 2026-09-01 12:51:52 | 51.54731 | 8.19755 | 80° | 104km/h | 11596m | -4.5m/s | -57.9°C | 44.8% | 214.3hPa | 2.5V | 08:02:57 | 02:34:00 | 00:00:00 | |
| DL1XH-west | 2026-09-01 12:51:49 | 51.54723 | 8.19631 | 88° | 97km/h | 11611m | -5.6m/s | -57.9°C | 44% | 213.8hPa | 2.5V | 08:02:57 | 02:33:57 | 00:00:00 | |
| GOEST3-10 | 2026-09-01 12:51:49 | 51.54723 | 8.19630 | 88° | 86km/h | 11611m | -5.5m/s | -57.8°C | 44.5% | 213.8hPa | 2.5V | 08:02:00 | 02:33:57 | 00:00:00 | |
| DK9SH | 2026-09-01 12:51:48 | 51.54723 | 8.19630 | 89° | 97km/h | 11611m | -5.6m/s | -57.9°C | 37.2% | 213.8hPa | 2.5V | 08:02:00 | 00:00:00 | 00:00:00 | |
| DC6BW-12 | 2026-09-01 12:51:47 | 51.54722 | 8.19593 | 90° | 89km/h | 11616m | -4.7m/s | -57.9°C | 37.2% | 213.6hPa | 2.5V | 08:02:00 | 00:00:00 | 00:00:00 | |
| DM0DOS-11 | 2026-09-01 12:51:46 | 51.54716 | 8.19430 | 81° | 71km/h | 11642m | -5.4m/s | -58°C | 42.9% | 212.7hPa | 2.5V | 08:02:57 | 02:33:51 | 00:00:00 | |
| DO2JMG | 2026-09-01 12:51:45 | 51.54720 | 8.19490 | 87° | 78km/h | 11631m | -5m/s | -58°C | 42.9% | 213.1hPa | 2.5V | 08:02:57 | 02:33:53 | 00:00:00 | |
| DD1CC8 | 2026-09-01 12:51:45 | 51.54719 | 8.19459 | 84° | 75km/h | 11636m | -5.9m/s | -58.0°C | 36.0% | 213.0hPa | 2.6V | 00:00:00 | 00:00:00 | 00:00:00 | |
| DL3AQ-11 | 2026-09-01 12:51:44 | 51.54716 | 8.19430 | 81° | 71km/h | 11642m | -5.4m/s | -58.1°C | 35.6% | 212.7hPa | 2.6V | 00:00:00 | 00:00:00 | 00:00:00 | |
| DL1XH1-15 | 2026-09-01 12:51:43 | 51.54708 | 8.19372 | 72° | 75km/h | 11653m | -5.2m/s | -58.1°C | 42.4% | 212.3hPa | 2.6V | 08:02:59 | 02:33:49 | 00:00:00 | |
| HSKMA3-T | 2026-09-01 12:51:41 | 51.54708 | 8.19372 | 73° | 75km/h | 11653m | -5.2m/s | -58.1°C | 41.5% | 212.3hPa | 2.6V | 08:03:48 | 02:33:49 | 00:00:00 | |
| DL1XH-west | 2026-09-01 12:51:39 | 51.54695 | 8.19312 | 69° | 82km/h | 11663m | -4.7m/s | -58.1°C | 40.6% | 212hPa | 2.5V | 08:03:48 | 02:33:47 | 00:00:00 | |
| HTAHTA | 2026-09-01 12:51:38 | 51.54678 | 8.19244 | 70° | 97km/h | 11673m | -5.2m/s | -58.2°C | 33.2% | 211.7hPa | 2.6V | 00:00:00 | 00:00:00 | 00:00:00 | |
| AM1SDL-15 | 2026-09-01 12:51:37 | 51.54678 | 8.19244 | 71° | 97km/h | 11673m | -5.1m/s | -58.2°C | 40.3% | 211.7hPa | 2.6V | 00:00:00 | 02:33:45 | 00:00:00 | |
| DD8BA-10 | 2026-09-01 12:51:36 | 51.54669 | 8.19206 | 71° | 97km/h | 11679m | -5.2m/s | -58.2°C | 39.8% | 211.5hPa | 2.6V | 00:00:00 | 00:00:00 | 00:00:00 | |
| DL1NUX | 2026-09-01 12:51:35 | 51.54639 | 8.18963 | 88° | 93km/h | 11710m | -5.5m/s | -58.3°C | 37.4% | 210.5hPa | 2.6V | 08:03:10 | 02:33:38 | 00:00:00 | |
| DL1ZP-14 | 2026-09-01 12:51:35 | 51.54654 | 8.19126 | 77° | 102km/h | 11689m | -4.7m/s | -58.3°C | 32.0% | 211.2hPa | 2.6V | 00:00:00 | 00:00:00 | 00:00:00 | |
| DO2JMG | 2026-09-01 12:51:35 | 51.54654 | 8.19126 | 77° | 104km/h | 11689m | -4.7m/s | -58.3°C | 38.2% | 211.2hPa | 2.6V | 08:04:39 | 02:33:42 | 00:00:00 | |
| DL1XH1-15 | 2026-09-01 12:51:34 | 51.54641 | 8.19002 | 86° | 99km/h | 11705m | -4.8m/s | -58.3°C | 37.7% | 210.6hPa | 2.5V | 08:03:09 | 02:33:39 | 00:00:00 | |
| DJ2DS-15 | 2026-09-01 12:51:34 | 51.54648 | 8.19085 | 77° | 104km/h | 11694m | -5.7m/s | -58.3°C | 31.4% | 211.0hPa | 2.5V | 00:00:00 | 00:00:00 | 00:00:00 | |
| DL1XH-15 | 2026-09-01 12:51:33 | 51.54635 | 8.18828 | 83° | 73km/h | 11731m | -5m/s | -58.3°C | 36.2% | 209.8hPa | 2.5V | 08:03:14 | 02:33:34 | 00:00:00 | |
| HSKMA3-T | 2026-09-01 12:51:32 | 51.54640 | 8.19002 | 87° | 99km/h | 11705m | -4.8m/s | -58.3°C | 36.5% | 210.6hPa | 2.5V | 08:03:48 | 02:33:39 | 00:00:00 | |
| BIOWL1-15 | 2026-09-01 12:51:30 | 51.54639 | 8.18963 | 88° | 93km/h | 11710m | -5.5m/s | -58.3°C | 36% | 210.5hPa | 2.6V | 08:03:48 | 02:33:38 | 00:00:00 | |
| DL1XH-west | 2026-09-01 12:51:28 | 51.54638 | 8.18890 | 89° | 80km/h | 11720m | -4.4m/s | -58.3°C | 35% | 210.1hPa | 2.5V | 08:03:48 | 02:33:36 | 00:00:00 | |
| DC6BW-12 | 2026-09-01 12:51:27 | 51.54637 | 8.18858 | 88° | 78km/h | 11725m | -5.8m/s | -58.3°C | 29.5% | 210.0hPa | 2.5V | 08:03:00 | 00:00:00 | 00:00:00 | |
| DO9LL-15 | 2026-09-01 12:51:26 | 51.54635 | 8.18827 | 84° | 84km/h | 11731m | -5.0m/s | -58.2°C | 36.2% | 209.8hPa | 2.5V | 00:00:00 | 02:33:34 | 00:00:00 | |
| DL1NUX | 2026-09-01 12:51:25 | 51.54601 | 8.18643 | 68° | 95km/h | 11761m | -4.7m/s | -58.3°C | 34% | 208.8hPa | 2.5V | 08:03:20 | 02:33:28 | 00:00:00 | |
| DO2JMG | 2026-09-01 12:51:24 | 51.54629 | 8.18770 | 76° | 73km/h | 11742m | -5.1m/s | -58.3°C | 33% | 209.4hPa | 2.6V | 08:04:39 | 02:33:32 | 00:00:00 | |
| DJ8HS-15 | 2026-09-01 12:51:24 | 51.54629 | 8.18770 | 76° | 84km/h | 11742m | -5.1m/s | -58.2°C | 35.7% | 209.4hPa | 2.5V | 00:00:00 | 02:33:32 | 00:00:00 | |
| DL1XH1-15 | 2026-09-01 12:51:23 | 51.54609 | 8.18678 | 70° | 86km/h | 11757m | -4.3m/s | -58.3°C | 34.8% | 208.9hPa | 2.5V | 08:03:19 | 02:33:29 | 00:00:00 | |
| AA1-15 | 2026-09-01 12:51:21 | 51.54609 | 8.18678 | 71° | 86km/h | 11757m | -4.3m/s | -58.3°C | 31.5% | 208.9hPa | 2.5V | 08:03:48 | 02:33:29 | 00:00:00 | |
| BIOWL9-15 | 2026-09-01 12:51:21 | 51.54601 | 8.18644 | 68° | 93km/h | 11762m | -4.7m/s | -58.3°C | 27.3% | 208.8hPa | 2.5V | 00:00:00 | 00:00:00 | 00:00:00 | |
| DL3AQ-11 | 2026-09-01 12:51:20 | 51.54593 | 8.18606 | 73° | 99km/h | 11766m | -5.2m/s | -58.2°C | 26.6% | 208.6hPa | 2.5V | 00:00:00 | 00:00:00 | 00:00:00 | |
| HSKMA3-T | 2026-09-01 12:51:20 | 51.54601 | 8.18644 | 69° | 95km/h | 11762m | -4.7m/s | -58.3°C | 30.9% | 208.8hPa | 2.5V | 08:03:48 | 02:33:28 | 00:00:00 | |
| GOEST3-10 | 2026-09-01 12:51:19 | 51.54593 | 8.18606 | 74° | 100km/h | 11766m | -5.2m/s | -58.2°C | 33.3% | 208.6hPa | 2.5V | 00:00:00 | 02:33:27 | 00:00:00 | |
| DL1XH-15 | 2026-09-01 12:51:18 | 51.54575 | 8.18372 | 90° | 88km/h | 11797m | -5.5m/s | -57.8°C | 28.4% | 207.7hPa | 2.6V | 08:03:27 | 02:33:21 | 00:00:00 | |
| DL1XH-west | 2026-09-01 12:51:17 | 51.54582 | 8.18527 | 81° | 100km/h | 11776m | -4.6m/s | -58.1°C | 29% | 208.3hPa | 2.6V | 08:03:48 | 02:33:25 | 00:00:00 | |
| DJ2DS-15 | 2026-09-01 12:51:16 | 51.54579 | 8.18486 | 85° | 88km/h | 11781m | -5.4m/s | -58.0°C | 30.4% | 208.1hPa | 2.5V | 08:03:00 | 02:33:24 | 00:00:00 | |
| DL1NUX | 2026-09-01 12:51:15 | 51.54575 | 8.18272 | 90° | 77km/h | 11813m | -5.5m/s | -57.4°C | 27.4% | 207.1hPa | 2.5V | 08:03:30 | 02:33:18 | 00:00:00 | |
| DO2JMG | 2026-09-01 12:51:13 | 51.54575 | 8.18372 | 90° | 88km/h | 11797m | -5.5m/s | -57.8°C | 26.6% | 207.7hPa | 2.6V | 08:04:39 | 02:33:21 | 00:00:00 | |
| DL1XH1-15 | 2026-09-01 12:51:13 | 51.54575 | 8.18303 | 91° | 78km/h | 11808m | -5m/s | -57.5°C | 27.6% | 207.3hPa | 2.5V | 08:03:29 | 02:33:19 | 00:00:00 | |
| AA1-15 | 2026-09-01 12:51:09 | 51.54575 | 8.18241 | 88° | 71km/h | 11818m | -5.1m/s | -57.3°C | 24.7% | 206.9hPa | 2.5V | 08:03:48 | 02:33:17 | 00:00:00 | |
| DL1XH-west | 2026-09-01 12:51:06 | 51.54567 | 8.18156 | 76° | 73km/h | 11834m | -5.1m/s | -57°C | 23.9% | 206.5hPa | 2.5V | 08:03:48 | 02:33:14 | 00:00:00 | |
| DD8BA-10 | 2026-09-01 12:51:06 | 51.54567 | 8.18156 | 77° | 91km/h | 11834m | -5.1m/s | -56.9°C | 26.6% | 206.4hPa | 2.5V | 08:03:00 | 00:00:00 | 00:00:00 | |
| DL1NUX | 2026-09-01 12:51:05 | 51.54528 | 8.17954 | 77° | 97km/h | 11865m | -5.7m/s | -56.6°C | 22.6% | 205.4hPa | 2.5V | 08:03:40 | 02:33:08 | 00:00:00 | |
| DL3AQ-11 | 2026-09-01 12:51:04 | 51.54548 | 8.18062 | 69° | 86km/h | 11849m | -5.4m/s | -56.7°C | 19.1% | 205.9hPa | 2.5V | 00:00:00 | 00:00:00 | 00:00:00 | |
| DL1XH1-15 | 2026-09-01 12:51:03 | 51.54534 | 8.17991 | 75° | 93km/h | 11859m | -5.1m/s | -56.6°C | 23.3% | 205.6hPa | 2.5V | 08:03:39 | 02:33:09 | 00:00:00 | |
| HSKMA3-T | 2026-09-01 12:50:59 | 51.54524 | 8.17915 | 81° | 99km/h | 11871m | -6.2m/s | -56.4°C | 21.1% | 205.2hPa | 2.6V | 08:03:48 | 02:33:07 | 00:00:00 | |
| BIOWL1-15 | 2026-09-01 12:50:58 | 51.54515 | 8.17671 | 94° | 93km/h | 11903m | -4.8m/s | -55.5°C | 19.1% | 204.2hPa | 2.6V | 08:03:48 | 02:33:01 | 00:00:00 | |
| AA1-15 | 2026-09-01 12:50:58 | 51.54520 | 8.17875 | 82° | 100km/h | 11876m | -5m/s | -56.3°C | 20.6% | 205hPa | 2.6V | 08:03:48 | 02:33:06 | 00:00:00 | |
| DL1XH-west | 2026-09-01 12:50:56 | 51.54515 | 8.17791 | 85° | 104km/h | 11888m | -5.5m/s | -56°C | 19.9% | 204.6hPa | 2.5V | 08:03:48 | 02:33:04 | 00:00:00 | |
| DL1NUX | 2026-09-01 12:50:55 | 51.54519 | 8.17566 | 92° | 80km/h | 11918m | -5.5m/s | -55.3°C | 18.7% | 203.6hPa | 2.5V | 08:03:50 | 02:32:58 | 00:00:00 | |
| GOEST3-10 | 2026-09-01 12:50:54 | 51.54514 | 8.17710 | 92° | 89km/h | 11898m | -4.6m/s | -55.6°C | 19.2% | 204.2hPa | 2.6V | 00:00:00 | 00:00:00 | 00:00:00 | |
| DL1XH1-15 | 2026-09-01 12:50:53 | 51.54518 | 8.17599 | 93° | 86km/h | 11913m | -5.4m/s | -55.3°C | 18.7% | 203.8hPa | 2.6V | 08:03:49 | 02:32:59 | 00:00:00 | |
| HSKMA3-T | 2026-09-01 12:50:48 | 51.54518 | 8.17504 | 85° | 71km/h | 11928m | -5.1m/s | -55.2°C | 18.5% | 203.3hPa | 2.5V | 08:04:39 | 02:32:56 | 00:00:00 | |
| DL1XH-west | 2026-09-01 12:50:46 | 51.54512 | 8.17445 | 76° | 77km/h | 11939m | -5m/s | -55.2°C | 18.3% | 202.9hPa | 2.6V | 08:04:39 | 02:32:54 | 00:00:00 | |
| DM0DOS-11 | 2026-09-01 12:50:45 | 51.54490 | 8.17300 | 82° | 102km/h | 11960m | -4.8m/s | -55.2°C | 18% | 202.3hPa | 2.5V | 08:03:58 | 02:32:50 | 00:00:00 | |
| DL1NUX | 2026-09-01 12:50:44 | 51.54484 | 8.17215 | 86° | 108km/h | 11970m | -5.8m/s | -55.1°C | 17.3% | 202hPa | 2.6V | 08:04:00 | 02:32:48 | 00:00:00 | |
| BIOWL1-15 | 2026-09-01 12:50:44 | 51.54487 | 8.17258 | 83° | 106km/h | 11965m | -6m/s | -55.2°C | 17.7% | 202.2hPa | 2.5V | 08:04:39 | 02:32:49 | 00:00:00 | |
| HSKMA3-T | 2026-09-01 12:50:38 | 51.54484 | 8.17130 | 93° | 104km/h | 11982m | -5.2m/s | -55.1°C | 17% | 201.6hPa | 2.5V | 08:04:39 | 02:32:46 | 00:00:00 | |
| DD1CC1-15 | 2026-09-01 12:50:37 | 51.54484 | 8.17130 | 94° | 104km/h | 11982m | -5.2m/s | -55.1°C | 12.6% | 201.6hPa | 2.5V | 08:04:00 | 00:00:00 | 00:00:00 | |
| DL1XH1-15 | 2026-09-01 12:50:36 | 51.54503 | 8.16878 | 96° | 75km/h | 12019m | -5.7m/s | -55.3°C | 16.1% | 200.4hPa | 2.5V | 08:04:09 | 02:32:39 | 00:00:00 | |
| DL1XH-west | 2026-09-01 12:50:36 | 51.54488 | 8.17049 | 97° | 97km/h | 11992m | -5m/s | -55.2°C | 16.7% | 201.2hPa | 2.5V | 08:04:39 | 02:32:44 | 00:00:00 | |
| DD8BA-10 | 2026-09-01 12:50:36 | 51.54488 | 8.17049 | 97° | 80km/h | 11993m | -5.0m/s | -55.1°C | 16.5% | 201.2hPa | 2.5V | 00:00:00 | 00:00:00 | 00:00:00 | |
| DM0DOS-11 | 2026-09-01 12:50:35 | 51.54501 | 8.16909 | 98° | 78km/h | 12013m | -5.7m/s | -55.3°C | 16.2% | 200.5hPa | 2.6V | 08:04:08 | 02:32:40 | 00:00:00 | |
| AA1-15 | 2026-09-01 12:50:33 | 51.54498 | 8.16941 | 99° | 82km/h | 12008m | -5.6m/s | -55.2°C | 16.2% | 200.7hPa | 2.6V | 08:04:39 | 02:32:41 | 00:00:00 | |
| BIOWL1-15 | 2026-09-01 12:50:32 | 51.54501 | 8.16909 | 98° | 78km/h | 12013m | -5.7m/s | -55.3°C | 16.1% | 200.5hPa | 2.6V | 08:04:39 | 02:32:40 | 00:00:00 | |
| DL1XH-15 | 2026-09-01 12:50:31 | 51.54504 | 8.16791 | 84° | 71km/h | 12036m | -5.6m/s | -55.4°C | 16% | 199.8hPa | 2.6V | 08:04:12 | 02:32:36 | 00:00:00 | |
| HSKMA3-T | 2026-09-01 12:50:27 | 51.54502 | 8.16761 | 82° | 78km/h | 12041m | -5.3m/s | -55.3°C | 15.2% | 199.6hPa | 2.6V | 08:04:39 | 02:32:35 | 00:00:00 | |
| DL1XH-west | 2026-09-01 12:50:25 | 51.54495 | 8.16695 | 80° | 86km/h | 12051m | -5.1m/s | -55.3°C | 14.8% | 199.3hPa | 2.5V | 08:04:39 | 02:32:33 | 00:00:00 | |
| DJ8HS-15 | 2026-09-01 12:50:24 | 51.54491 | 8.16660 | 78° | 86km/h | 12056m | -5.5m/s | -55.2°C | 15.2% | 199.1hPa | 2.5V | 00:00:00 | 02:32:32 | 00:00:00 | |
| DL1XH1-15 | 2026-09-01 12:50:23 | 51.54481 | 8.16542 | 86° | 102km/h | 12073m | -5.9m/s | -55.3°C | 15.1% | 198.6hPa | 2.5V | 08:04:19 | 02:32:29 | 00:00:00 | |
| DL1NUX | 2026-09-01 12:50:23 | 51.54481 | 8.16422 | 96° | 95km/h | 12088m | -6.5m/s | -55.4°C | 14.5% | 198.2hPa | 2.6V | 08:04:22 | 02:32:26 | 00:00:00 | |
| AA1-15 | 2026-09-01 12:50:22 | 51.54483 | 8.16583 | 83° | 99km/h | 12068m | -5.8m/s | -55.2°C | 14.3% | 198.8hPa | 2.6V | 08:04:39 | 02:32:30 | 00:00:00 | |
| BIOWL1-15 | 2026-09-01 12:50:21 | 51.54481 | 8.16542 | 86° | 102km/h | 12073m | -5.9m/s | -55.3°C | 14.2% | 198.6hPa | 2.5V | 08:04:39 | 02:32:29 | 00:00:00 | |
| DO2JMG | 2026-09-01 12:50:20 | 51.54479 | 8.16501 | 87° | 102km/h | 12079m | -5.4m/s | -55.3°C | 14% | 198.5hPa | 2.5V | 08:04:39 | 02:32:28 | 00:00:00 | |
| HSKMA3-T | 2026-09-01 12:50:17 | 51.54485 | 8.16384 | 100° | 95km/h | 12094m | -6.5m/s | -55.4°C | 13.4% | 197.9hPa | 2.6V | 08:04:39 | 02:32:25 | 00:00:00 | |
| DL1XH1-15 | 2026-09-01 12:50:16 | 51.54503 | 8.16189 | 92° | 69km/h | 12133m | -5.8m/s | -55.1°C | 12.6% | 196.8hPa | 2.5V | 08:04:29 | 02:32:19 | 00:00:00 | |
| DL1XH-west | 2026-09-01 12:50:14 | 51.54496 | 8.16280 | 101° | 80km/h | 12114m | -6.7m/s | -55.2°C | 12.7% | 197.4hPa | 2.6V | 08:04:39 | 02:32:22 | 00:00:00 | |
| DL1NUX | 2026-09-01 12:50:13 | 51.54499 | 8.16105 | 78° | 73km/h | 12150m | -5.7m/s | -54.9°C | 11.9% | 196.3hPa | 2.6V | 08:04:32 | 02:32:16 | 00:00:00 | |
| DL1XH-15 | 2026-09-01 12:50:11 | 51.54491 | 8.16042 | 79° | 84km/h | 12161m | -5.7m/s | -54.8°C | 11.7% | 196hPa | 2.6V | 08:04:34 | 02:32:14 | 00:00:00 | |
| AA1-15 | 2026-09-01 12:50:11 | 51.54503 | 8.16189 | 93° | 69km/h | 12133m | -5.8m/s | -55.1°C | 11.9% | 196.8hPa | 2.5V | 08:04:39 | 02:32:19 | 00:00:00 | |
| DB0DAN | 2026-09-01 12:50:10 | 51.54503 | 8.16161 | 88° | 66km/h | 12139m | -5.7m/s | -55.1°C | 8.7% | 196.68hPa | 2.5V | 00:00:00 | 00:00:00 | 00:00:00 | |
| BIOWL1-15 | 2026-09-01 12:50:10 | 51.54503 | 8.16161 | 88° | 69km/h | 12139m | -5.7m/s | -55.1°C | 11.7% | 196.7hPa | 2.5V | 08:04:39 | 02:32:18 | 00:00:00 | |
| HSKMA3-T | 2026-09-01 12:50:06 | 51.54491 | 8.16042 | 80° | 86km/h | 12161m | -5.7m/s | -54.8°C | 11% | 196hPa | 2.6V | 08:04:39 | 02:32:14 | 00:00:00 | |
| DD8BA-10 | 2026-09-01 12:50:06 | 51.54491 | 8.16042 | 80° | 89km/h | 12161m | -5.6m/s | -54.7°C | 11.7% | 195.9hPa | 2.6V | 00:00:00 | 00:00:00 | 00:00:00 | |
| DM0DOS-11 | 2026-09-01 12:50:05 | 51.54483 | 8.15895 | 91° | 95km/h | 12182m | -5.2m/s | -54.7°C | 11.3% | 195.3hPa | 2.5V | 08:04:38 | 02:32:10 | 00:00:00 | |
| DL1XH-west | 2026-09-01 12:50:04 | 51.54485 | 8.15971 | 84° | 93km/h | 12172m | -5.5m/s | -54.8°C | 10.8% | 195.7hPa | 2.5V | 08:04:39 | 02:32:12 | 00:00:00 | |
| GOEST3-10 | 2026-09-01 12:50:04 | 51.54484 | 8.15971 | 85° | 93km/h | 12172m | -5.4m/s | -54.7°C | 11.5% | 195.6hPa | 2.5V | 00:00:00 | 00:00:00 | 00:00:00 | |
| DL1NUX | 2026-09-01 12:50:03 | 51.54490 | 8.15748 | 99° | 80km/h | 12204m | -5.6m/s | -54.8°C | 11.6% | 194.7hPa | 2.5V | 08:04:42 | 02:32:06 | 00:00:00 | |
| AA1-15 | 2026-09-01 12:50:00 | 51.54485 | 8.15819 | 95° | 93km/h | 12193m | -5.7m/s | -54.7°C | 10.4% | 195hPa | 2.6V | 08:05:30 | 02:32:08 | 00:00:00 | |
| DL1XH-15 | 2026-09-01 12:50:00 | 51.54498 | 8.15659 | 96° | 68km/h | 12221m | -5.9m/s | -55°C | 11.7% | 194.1hPa | 2.5V | 08:04:45 | 02:32:03 | 00:00:00 | |
| DO2JMG | 2026-09-01 12:49:59 | 51.54487 | 8.15783 | 97° | 89km/h | 12198m | -5.9m/s | -54.8°C | 10.5% | 194.8hPa | 2.6V | 08:05:30 | 02:32:07 | 00:00:00 | |
| HSKMA3-T | 2026-09-01 12:49:56 | 51.54496 | 8.15687 | 98° | 73km/h | 12215m | -5.9m/s | -54.9°C | 10.3% | 194.3hPa | 2.5V | 08:05:30 | 02:32:04 | 00:00:00 | |
| DD8BA-10 | 2026-09-01 12:49:56 | 51.54496 | 8.15687 | 98° | 68km/h | 12215m | -5.8m/s | -54.9°C | 11.6% | 194.2hPa | 2.6V | 00:00:00 | 00:00:00 | 00:00:00 | |
| DM0DOS-11 | 2026-09-01 12:49:55 | 51.54498 | 8.15583 | 82° | 62km/h | 12238m | -5.8m/s | -55°C | 11.5% | 193.5hPa | 2.6V | 08:04:48 | 02:32:00 | 00:00:00 | |
| DL1XH-west | 2026-09-01 12:49:53 | 51.54499 | 8.15608 | 87° | 62km/h | 12232m | -5.7m/s | -55°C | 10% | 193.8hPa | 2.6V | 08:05:30 | 02:32:01 | 00:00:00 | |
| BIOWL1-15 | 2026-09-01 12:49:48 | 51.54482 | 8.15481 | 74° | 73km/h | 12262m | -7m/s | -55°C | 9.4% | 192.9hPa | 2.5V | 08:05:30 | 02:31:56 | 00:00:00 | |
| HSKMA3-T | 2026-09-01 12:49:45 | 51.54463 | 8.15388 | 72° | 86km/h | 12281m | -6m/s | -54.9°C | 8.9% | 192.3hPa | 2.6V | 08:05:30 | 02:31:53 | 00:00:00 | |
| DJ2DS-15 | 2026-09-01 12:49:45 | 51.54457 | 8.15354 | 77° | 88km/h | 12287m | -5.4m/s | -54.9°C | 6.6% | 192.1hPa | 2.5V | 00:00:00 | 00:00:00 | 00:00:00 | |
| DL1XH-15 | 2026-09-01 12:49:44 | 51.54452 | 8.15318 | 79° | 95km/h | 12292m | -5.2m/s | -54.9°C | 9.9% | 191.9hPa | 2.5V | 08:04:57 | 02:31:51 | 00:00:00 | |
| DL1XH-west | 2026-09-01 12:49:43 | 51.54452 | 8.15318 | 79° | 95km/h | 12292m | -5.3m/s | -54.9°C | 8.6% | 191.9hPa | 2.5V | 08:05:30 | 02:31:51 | 00:00:00 | |
| AA1-15 | 2026-09-01 12:49:39 | 51.54440 | 8.15125 | 92° | 88km/h | 12324m | -5.5m/s | -54.7°C | 8% | 191.1hPa | 2.6V | 08:05:30 | 02:31:46 | 00:00:00 | |
| BIOWL1-15 | 2026-09-01 12:49:37 | 51.54441 | 8.15090 | 93° | 82km/h | 12329m | -5.9m/s | -54.7°C | 8% | 190.9hPa | 2.5V | 08:05:30 | 02:31:45 | 00:00:00 | |
| DL8DAS-14 | 2026-09-01 12:49:37 | 51.54441 | 8.15090 | 93° | 82km/h | 12329m | -5.9m/s | -54.7°C | 6.2% | 190.9hPa | 2.6V | 00:00:00 | 00:00:00 | 00:00:00 | |
| DL1XH1-15 | 2026-09-01 12:49:36 | 51.54432 | 8.14921 | 72° | 71km/h | 12362m | -6m/s | -54.7°C | 9.4% | 189.9hPa | 2.6V | 08:05:09 | 02:31:39 | 00:00:00 | |
| HSKMA3-T | 2026-09-01 12:49:35 | 51.54443 | 8.15028 | 90° | 71km/h | 12341m | -4.9m/s | -54.6°C | 7.7% | 190.6hPa | 2.5V | 08:05:30 | 02:31:43 | 00:00:00 | |
| DM0DOS-11 | 2026-09-01 12:49:35 | 51.54437 | 8.14947 | 74° | 66km/h | 12357m | -5.5m/s | -54.7°C | 9.5% | 190.1hPa | 2.6V | 08:05:08 | 02:31:40 | 00:00:00 | |
| DL1XH-west | 2026-09-01 12:49:32 | 51.54437 | 8.14947 | 75° | 66km/h | 12357m | -5.5m/s | -54.7°C | 7.5% | 190.1hPa | 2.6V | 08:05:30 | 02:31:40 | 00:00:00 | |
| DO2JMG | 2026-09-01 12:49:31 | 51.54432 | 8.14921 | 73° | 71km/h | 12362m | -6m/s | -54.7°C | 7.4% | 189.9hPa | 2.6V | 08:05:30 | 02:31:39 | 00:00:00 | |
| AA1-15 | 2026-09-01 12:49:27 | 51.54397 | 8.14763 | 74° | 93km/h | 12390m | -5.7m/s | -54.3°C | 6.6% | 189.1hPa | 2.6V | 08:05:30 | 02:31:34 | 00:00:00 | |
| DL1XH1-15 | 2026-09-01 12:49:27 | 51.54377 | 8.14562 | 84° | 106km/h | 12418m | -6.7m/s | -54.4°C | 8% | 188.2hPa | 2.5V | 08:05:19 | 02:31:29 | 00:00:00 | |
| HSKMA3-T | 2026-09-01 12:49:25 | 51.54391 | 8.14726 | 77° | 97km/h | 12395m | -5.4m/s | -54.3°C | 6.5% | 188.9hPa | 2.6V | 08:05:30 | 02:31:33 | 00:00:00 | |
| DL1XH-15 | 2026-09-01 12:49:24 | 51.54382 | 8.14646 | 82° | 102km/h | 12406m | -5.6m/s | -54.4°C | 8.2% | 188.5hPa | 2.5V | 08:05:17 | 02:31:31 | 00:00:00 | |
| GOEST3-10 | 2026-09-01 12:49:24 | 51.54386 | 8.14687 | 80° | 102km/h | 12401m | -5.6m/s | -54.3°C | 8.3% | 188.7hPa | 2.6V | 00:00:00 | 00:00:00 | 00:00:00 | |
| DL1NUX | 2026-09-01 12:49:23 | 51.54375 | 8.14441 | 92° | 95km/h | 12438m | -5.6m/s | -54.4°C | 7.8% | 187.6hPa | 2.6V | 08:05:22 | 02:31:26 | 00:00:00 | |
| DL1XH-west | 2026-09-01 12:49:22 | 51.54379 | 8.14605 | 84° | 106km/h | 12412m | -6.1m/s | -54.4°C | 6.1% | 188.3hPa | 2.5V | 08:05:30 | 02:31:30 | 00:00:00 | |
| DO2JMG | 2026-09-01 12:49:20 | 51.54375 | 8.14520 | 87° | 102km/h | 12425m | -6.9m/s | -54.4°C | 5.9% | 188hPa | 2.5V | 08:05:30 | 02:31:28 | 00:00:00 | |
| GOEST3-10 | 2026-09-01 12:49:19 | 51.54374 | 8.14480 | 92° | 91km/h | 12432m | -6.1m/s | -54.4°C | 7.8% | 187.8hPa | 2.6V | 00:00:00 | 02:31:27 | 00:00:00 | |
| DL1XH-15 | 2026-09-01 12:49:18 | 51.54380 | 8.14268 | 87° | 75km/h | 12468m | -5.7m/s | -53.9°C | 7.4% | 186.8hPa | 2.5V | 08:05:27 | 02:31:21 | 00:00:00 | |
| AA1-15 | 2026-09-01 12:49:17 | 51.54376 | 8.14403 | 94° | 93km/h | 12443m | -6.3m/s | -54.3°C | 5.5% | 187.5hPa | 2.6V | 08:05:30 | 02:31:25 | 00:00:00 | |
| BIOWL9-15 | 2026-09-01 12:49:17 | 51.54378 | 8.14366 | 94° | 88km/h | 12450m | -6.4m/s | -54.2°C | 4.6% | 187.3hPa | 2.6V | 00:00:00 | 00:00:00 | 00:00:00 | |
| DB0UT-7 | 2026-09-01 12:49:16 | 51.54378 | 8.14366 | 95° | 86km/h | 12450m | -6.4m/s | -54.2°C | 7.7% | 187.2hPa | 2.6V | 00:00:00 | 00:00:00 | 00:00:00 | |
| DM0DOS-11 | 2026-09-01 12:49:15 | 51.54379 | 8.14238 | 83° | 73km/h | 12473m | -5.9m/s | -53.8°C | 7.4% | 186.6hPa | 2.6V | 08:05:28 | 02:31:20 | 00:00:00 | |
| HSKMA3-T | 2026-09-01 12:49:14 | 51.54380 | 8.14299 | 92° | 78km/h | 12462m | -5.6m/s | -54°C | 5.3% | 187hPa | 2.5V | 08:05:30 | 02:31:22 | 00:00:00 | |
| DJ2DS-15 | 2026-09-01 12:49:14 | 51.54380 | 8.14299 | 92° | 89km/h | 12462m | -5.6m/s | -53.9°C | 7.6% | 186.9hPa | 2.5V | 00:00:00 | 02:31:22 | 00:00:00 | |
| DL1NUX | 2026-09-01 12:49:13 | 51.54359 | 8.14112 | 73° | 91km/h | 12500m | -6.2m/s | -53.6°C | 6.9% | 185.9hPa | 2.5V | 08:05:32 | 02:31:16 | 00:00:00 | |
| DL1XH-west | 2026-09-01 12:49:12 | 51.54379 | 8.14238 | 83° | 73km/h | 12474m | -5.9m/s | -53.8°C | 5.1% | 186.6hPa | 2.6V | 08:05:30 | 02:31:20 | 00:00:00 | |
| DO2JMG | 2026-09-01 12:49:10 | 51.54372 | 8.14178 | 74° | 78km/h | 12486m | -5.9m/s | -53.7°C | 4.8% | 186.3hPa | 2.6V | 08:05:30 | 02:31:18 | 00:00:00 | |
| AA1-15 | 2026-09-01 12:49:06 | 51.54347 | 8.14037 | 77° | 99km/h | 12512m | -5.5m/s | -53.6°C | 4.5% | 185.7hPa | 2.5V | 08:06:21 | 02:31:14 | 00:00:00 | |
| DL1XH1-15 | 2026-09-01 12:49:06 | 51.54332 | 8.13826 | 89° | 104km/h | 12543m | -6.5m/s | -53.5°C | 6.5% | 184.8hPa | 2.5V | 08:05:39 | 02:31:09 | 00:00:00 | |
| DD8BA-10 | 2026-09-01 12:49:06 | 51.54347 | 8.14036 | 78° | 99km/h | 12512m | -5.5m/s | -53.5°C | 6.7% | 185.6hPa | 2.5V | 00:00:00 | 00:00:00 | 00:00:00 | |
| AM1SDL-15 | 2026-09-01 12:49:05 | 51.54342 | 8.13997 | 79° | 99km/h | 12518m | -5.9m/s | -53.5°C | 6.6% | 185.4hPa | 2.6V | 00:00:00 | 02:31:13 | 00:00:00 | |
| DO2KSM | 2026-09-01 12:49:04 | 51.54342 | 8.13997 | 80° | 102km/h | 12518m | -5.9m/s | -53.5°C | 3.8% | 185.5hPa | 2.5V | 08:06:00 | 00:00:00 | 00:00:00 | |
| DM0DOS-11 | 2026-09-01 12:49:03 | 51.54332 | 8.13869 | 88° | 104km/h | 12536m | -5.7m/s | -53.6°C | 6.6% | 185hPa | 2.5V | 08:05:38 | 02:31:10 | 00:00:00 | |
| BIOWL1-15 | 2026-09-01 12:49:03 | 51.54334 | 8.13911 | 85° | 108km/h | 12530m | -6.4m/s | -53.6°C | 4.2% | 185.1hPa | 2.6V | 08:06:21 | 02:31:11 | 00:00:00 | |
| DL1XH-west | 2026-09-01 12:49:01 | 51.54332 | 8.13826 | 90° | 104km/h | 12543m | -6.5m/s | -53.5°C | 4.1% | 184.8hPa | 2.5V | 08:06:21 | 02:31:09 | 00:00:00 | |
| SONCRA | 2026-09-01 12:49:00 | 51.54334 | 8.13745 | 94° | 93km/h | 12555m | -5.1m/s | -53.5°C | 3.5% | 184.4hPa | 2.5V | 00:00:00 | 00:00:00 | 00:00:00 | |
| WPPR-10 | 2026-09-01 12:48:57 | 51.54338 | 8.13673 | 95° | 84km/h | 12567m | -5.3m/s | -53.4°C | 3.4% | 184.1hPa | 2.5V | 00:00:00 | 00:00:00 | 00:00:00 | |
| DM0DOS-11 | 2026-09-01 12:48:56 | 51.54341 | 8.13520 | 83° | 69km/h | 12596m | -6.1m/s | -52.9°C | 5.7% | 183.2hPa | 2.5V | 08:05:48 | 02:31:00 | 00:00:00 | |
| AA1-15 | 2026-09-01 12:48:55 | 51.54342 | 8.13608 | 93° | 77km/h | 12578m | -5.7m/s | -53.1°C | 3.5% | 183.8hPa | 2.5V | 08:06:21 | 02:31:03 | 00:00:00 | |
| DL4XJ-10 | 2026-09-01 12:48:55 | 51.54341 | 8.13608 | 94° | 82km/h | 12578m | -5.7m/s | -55.2°C | 0% | 0hPa | 2.5V | 00:00:00 | 00:00:00 | 00:00:00 | |
| DJ2DS-15 | 2026-09-01 12:48:54 | 51.54342 | 8.13578 | 91° | 82km/h | 12584m | -5.8m/s | -53.0°C | 5.9% | 183.5hPa | 2.5V | 00:00:00 | 02:31:02 | 00:00:00 | |
| DL1NUX | 2026-09-01 12:48:53 | 51.54323 | 8.13397 | 72° | 88km/h | 12620m | -5.6m/s | -52.9°C | 5.8% | 182.6hPa | 2.5V | 08:05:52 | 02:30:56 | 00:00:00 | |
| HSKMA3-T | 2026-09-01 12:48:53 | 51.54342 | 8.13549 | 87° | 71km/h | 12590m | -6.1m/s | -52.9°C | 3.4% | 183.4hPa | 2.5V | 08:06:21 | 02:31:01 | 00:00:00 | |
| BIOWL1-15 | 2026-09-01 12:48:52 | 51.54338 | 8.13492 | 78° | 73km/h | 12602m | -5.9m/s | -52.9°C | 3.2% | 183hPa | 2.6V | 08:06:21 | 02:30:59 | 00:00:00 | |
| DL1XH-west | 2026-09-01 12:48:50 | 51.54334 | 8.13462 | 75° | 78km/h | 12608m | -5.5m/s | -52.9°C | 3.2% | 182.9hPa | 2.6V | 08:06:21 | 02:30:58 | 00:00:00 | |
| GOEST3-10 | 2026-09-01 12:48:49 | 51.54329 | 8.13431 | 78° | 93km/h | 12614m | -5.9m/s | -52.9°C | 5.8% | 182.7hPa | 2.6V | 08:05:00 | 02:30:57 | 00:00:00 | |
| DL1XH1-15 | 2026-09-01 12:48:47 | 51.54309 | 8.13126 | 97° | 89km/h | 12662m | -5.5m/s | -52.7°C | 5.5% | 181.4hPa | 2.5V | 08:05:59 | 02:30:49 | 00:00:00 | |
| DM0DOS-11 | 2026-09-01 12:48:46 | 51.54307 | 8.13163 | 94° | 95km/h | 12656m | -5.9m/s | -52.7°C | 5.5% | 181.6hPa | 2.6V | 08:05:58 | 02:30:50 | 00:00:00 | |
| AA1-15 | 2026-09-01 12:48:44 | 51.54307 | 8.13244 | 85° | 100km/h | 12642m | -6.4m/s | -52.7°C | 3% | 182hPa | 2.6V | 08:06:21 | 02:30:52 | 00:00:00 | |
| DO1YAY-16 | 2026-09-01 12:48:44 | 51.54307 | 8.13244 | 85° | 99km/h | 12643m | -6.4m/s | -52.7°C | 2.9% | 182.0hPa | 2.6V | 00:00:00 | 00:00:00 | 00:00:00 | |
| HSKMA3-T | 2026-09-01 12:48:42 | 51.54307 | 8.13163 | 95° | 95km/h | 12656m | -5.9m/s | -52.7°C | 3% | 181.7hPa | 2.6V | 08:06:21 | 02:30:50 | 00:00:00 | |
| BIOWL1-15 | 2026-09-01 12:48:41 | 51.54309 | 8.13126 | 98° | 89km/h | 12662m | -5.5m/s | -52.7°C | 3% | 181.4hPa | 2.5V | 08:06:21 | 02:30:49 | 00:00:00 | |
| DL1XH-west | 2026-09-01 12:48:40 | 51.54312 | 8.13091 | 98° | 84km/h | 12668m | -5.4m/s | -52.7°C | 2.9% | 181.2hPa | 2.5V | 08:06:21 | 02:30:48 | 00:00:00 | |
| DL3AQ-11 | 2026-09-01 12:48:40 | 51.54315 | 8.13058 | 98° | 78km/h | 12674m | -5.7m/s | -52.7°C | 2.8% | 181.1hPa | 2.5V | 00:00:00 | 00:00:00 | 00:00:00 | |
| DD1CC8 | 2026-09-01 12:48:39 | 51.54318 | 8.13028 | 98° | 73km/h | 12679m | -5.7m/s | -52.8°C | 2.9% | 180.9hPa | 2.5V | 00:00:00 | 00:00:00 | 00:00:00 | |
| AM1SDL-15 | 2026-09-01 12:48:38 | 51.54318 | 8.13027 | 99° | 75km/h | 12679m | -5.7m/s | -52.7°C | 5.5% | 180.9hPa | 2.5V | 00:00:00 | 02:30:46 | 00:00:00 | |
| DM0DOS-11 | 2026-09-01 12:48:37 | 51.54316 | 8.12868 | 75° | 69km/h | 12716m | -5.9m/s | -52.9°C | 5.4% | 179.9hPa | 2.5V | 08:06:08 | 02:30:40 | 00:00:00 | |
| DL1XH1-15 | 2026-09-01 12:48:36 | 51.54311 | 8.12840 | 73° | 75km/h | 12722m | -5.9m/s | -52.9°C | 5.4% | 179.7hPa | 2.5V | 08:06:09 | 02:30:39 | 00:00:00 | |
| DO2JMG | 2026-09-01 12:48:35 | 51.54322 | 8.12946 | 90° | 64km/h | 12697m | -6.6m/s | -52.9°C | 2.8% | 180.4hPa | 2.6V | 08:06:21 | 02:30:43 | 00:00:00 | |
| AA1-15 | 2026-09-01 12:48:33 | 51.54320 | 8.12895 | 80° | 66km/h | 12710m | -6m/s | -52.9°C | 2.8% | 180.1hPa | 2.5V | 08:06:21 | 02:30:41 | 00:00:00 | |
| DL1NUX | 2026-09-01 12:48:33 | 51.54295 | 8.12741 | 76° | 91km/h | 12740m | -5.8m/s | -52.9°C | 5.3% | 179.2hPa | 2.6V | 08:06:12 | 02:30:36 | 00:00:00 | |
| HSKMA3-T | 2026-09-01 12:48:31 | 51.54311 | 8.12840 | 74° | 75km/h | 12722m | -5.9m/s | -52.9°C | 2.8% | 179.7hPa | 2.5V | 08:06:21 | 02:30:39 | 00:00:00 | |
| DL1XH-west | 2026-09-01 12:48:29 | 51.54295 | 8.12741 | 77° | 91km/h | 12740m | -5.8m/s | -52.9°C | 2.7% | 179.3hPa | 2.6V | 08:06:21 | 02:30:36 | 00:00:00 | |
| DL1ZP-14 | 2026-09-01 12:48:29 | 51.54290 | 8.12704 | 79° | 95km/h | 12746m | -5.8m/s | -52.9°C | 2.6% | 179.1hPa | 2.5V | 00:00:00 | 00:00:00 | 00:00:00 | |
| DL1XH1-15 | 2026-09-01 12:48:27 | 51.54289 | 8.12476 | 97° | 84km/h | 12781m | -5.6m/s | -52.6°C | 5.2% | 178hPa | 2.6V | 08:06:19 | 02:30:29 | 00:00:00 | |
| AM1SDL-15 | 2026-09-01 12:48:27 | 51.54286 | 8.12666 | 83° | 91km/h | 12752m | -5.9m/s | -52.8°C | 5.1% | 178.9hPa | 2.5V | 00:00:00 | 02:30:34 | 00:00:00 | |
| DM0DOS-11 | 2026-09-01 12:48:26 | 51.54286 | 8.12511 | 95° | 89km/h | 12775m | -5.6m/s | -52.7°C | 5.1% | 178.2hPa | 2.6V | 08:06:18 | 02:30:30 | 00:00:00 | |
| DO2JMG | 2026-09-01 12:48:24 | 51.54284 | 8.12587 | 90° | 97km/h | 12764m | -6m/s | -52.7°C | 2.5% | 178.5hPa | 2.5V | 08:06:21 | 02:30:32 | 00:00:00 | |
| AA1-15 | 2026-09-01 12:48:22 | 51.54286 | 8.12511 | 96° | 89km/h | 12775m | -5.6m/s | -52.7°C | 2.4% | 178.3hPa | 2.6V | 08:06:21 | 02:30:30 | 00:00:00 | |
| HSKMA3-T | 2026-09-01 12:48:21 | 51.54289 | 8.12476 | 98° | 84km/h | 12781m | -5.6m/s | -52.7°C | 2.5% | 178hPa | 2.6V | 08:06:21 | 02:30:29 | 00:00:00 | |
| DL1XH-west | 2026-09-01 12:48:18 | 51.54296 | 8.12385 | 95° | 68km/h | 12798m | -5.6m/s | -52.5°C | 2.5% | 177.6hPa | 2.5V | 08:07:12 | 02:30:26 | 00:00:00 | |
| DD1CC9-15 | 2026-09-01 12:48:18 | 51.54296 | 8.12385 | 96° | 68km/h | 12798m | -5.6m/s | -52.5°C | 2.6% | 177.6hPa | 2.5V | 08:07:00 | 00:00:00 | 00:00:00 | |
| DL1XH1-15 | 2026-09-01 12:48:16 | 51.54277 | 8.12201 | 70° | 77km/h | 12840m | -6.5m/s | -52.8°C | 5% | 176.4hPa | 2.5V | 08:06:29 | 02:30:19 | 00:00:00 | |
| DO2JMG | 2026-09-01 12:48:13 | 51.54288 | 8.12256 | 74° | 68km/h | 12828m | -6m/s | -52.7°C | 2.3% | 176.8hPa | 2.5V | 08:07:12 | 02:30:21 | 00:00:00 | |
| AA1-15 | 2026-09-01 12:48:11 | 51.54277 | 8.12201 | 71° | 77km/h | 12840m | -6.5m/s | -52.8°C | 2.3% | 176.4hPa | 2.5V | 08:07:12 | 02:30:19 | 00:00:00 | |
| BIOWL1-15 | 2026-09-01 12:48:11 | 51.54263 | 8.12138 | 71° | 88km/h | 12853m | -6.1m/s | -52.9°C | 2.2% | 176.1hPa | 2.6V | 08:07:12 | 02:30:17 | 00:00:00 | |
| HSKMA3-T | 2026-09-01 12:48:10 | 51.54270 | 8.12171 | 70° | 82km/h | 12847m | -6.3m/s | -52.8°C | 2.2% | 176.3hPa | 2.5V | 08:07:12 | 02:30:18 | 00:00:00 | |
| DL1XH-west | 2026-09-01 12:48:07 | 51.54250 | 8.12067 | 76° | 95km/h | 12865m | -5.6m/s | -52.9°C | 2.1% | 175.8hPa | 2.6V | 08:07:12 | 02:30:15 | 00:00:00 | |
| DO2JMG | 2026-09-01 12:48:02 | 51.54238 | 8.11873 | 91° | 91km/h | 12895m | -6.4m/s | -53°C | 1.9% | 175hPa | 2.6V | 08:07:12 | 02:30:10 | 00:00:00 | |
| AA1-15 | 2026-09-01 12:48:02 | 51.54239 | 8.11836 | 92° | 88km/h | 12901m | -6.4m/s | -53°C | 1.9% | 174.8hPa | 2.6V | 08:07:12 | 02:30:09 | 00:00:00 | |
| HSKMA3-T | 2026-09-01 12:48:00 | 51.54240 | 8.11802 | 93° | 82km/h | 12907m | -5.9m/s | -53.1°C | 1.9% | 174.7hPa | 2.6V | 08:07:12 | 02:30:08 | 00:00:00 | |
| BIOWL1-15 | 2026-09-01 12:47:58 | 51.54210 | 8.11560 | 71° | 88km/h | 12953m | -6.3m/s | -52.7°C | 1.5% | 173.4hPa | 2.5V | 08:07:12 | 02:30:00 | 00:00:00 | |
| DL1XH-west | 2026-09-01 12:47:57 | 51.54235 | 8.11683 | 76° | 71km/h | 12930m | -5.1m/s | -53°C | 1.8% | 174.1hPa | 2.5V | 08:07:12 | 02:30:04 | 00:00:00 | |
| WPPR-10 | 2026-09-01 12:47:55 | 51.54230 | 8.11654 | 71° | 75km/h | 12935m | -5.5m/s | -52.9°C | 2.1% | 173.9hPa | 2.5V | 00:00:00 | 00:00:00 | 00:00:00 | |
| DJ2DS-15 | 2026-09-01 12:47:54 | 51.54223 | 8.11624 | 71° | 84km/h | 12941m | -5.5m/s | -52.8°C | 4.7% | 173.7hPa | 2.5V | 00:00:00 | 02:30:02 | 00:00:00 | |
| DO9LL-15 | 2026-09-01 12:47:53 | 51.54217 | 8.11593 | 72° | 82km/h | 12947m | -6.1m/s | -52.7°C | 4.7% | 173.6hPa | 2.5V | 00:00:00 | 02:30:01 | 00:00:00 | |
| DM0DOS-11 | 2026-09-01 12:47:51 | 51.54203 | 8.11525 | 75° | 91km/h | 12959m | -5.5m/s | -52.6°C | 4.5% | 173.3hPa | 2.5V | 08:06:49 | 02:29:59 | 00:00:00 | |
| AA1-15 | 2026-09-01 12:47:51 | 51.54203 | 8.11525 | 75° | 91km/h | 12959m | -5.5m/s | -52.6°C | 1.3% | 173.3hPa | 2.5V | 08:07:12 | 02:29:59 | 00:00:00 | |
| HSKMA3-T | 2026-09-01 12:47:50 | 51.54198 | 8.11488 | 78° | 95km/h | 12965m | -5.5m/s | -52.7°C | 1.4% | 173.2hPa | 2.5V | 08:07:12 | 02:29:58 | 00:00:00 | |
| DL1XH-west | 2026-09-01 12:47:46 | 51.54189 | 8.11329 | 90° | 99km/h | 12987m | -6.3m/s | -52.4°C | 1.2% | 172.4hPa | 2.6V | 08:07:12 | 02:29:54 | 00:00:00 | |
| DO2JMG | 2026-09-01 12:47:45 | 51.54190 | 8.11290 | 93° | 95km/h | 12994m | -6.1m/s | -52.3°C | 1.2% | 172.3hPa | 2.5V | 08:07:12 | 02:29:53 | 00:00:00 | |
| BIOWL1-15 | 2026-09-01 12:47:43 | 51.54196 | 8.11182 | 97° | 84km/h | 13013m | -6.5m/s | -51.6°C | 1% | 171.8hPa | 2.5V | 08:07:12 | 02:29:50 | 00:00:00 | |
| AM1SDL-15 | 2026-09-01 12:47:42 | 51.54196 | 8.11182 | 97° | 75km/h | 13013m | -6.4m/s | -51.6°C | 4.0% | 171.8hPa | 2.5V | 08:06:00 | 02:29:50 | 00:00:00 | |
| DL1XH-15 | 2026-09-01 12:47:41 | 51.54201 | 8.11012 | 79° | 66km/h | 13052m | -6.2m/s | -51.3°C | 3.9% | 170.8hPa | 2.5V | 08:07:04 | 02:29:44 | 00:00:00 | |
| AA1-15 | 2026-09-01 12:47:40 | 51.54201 | 8.11119 | 96° | 73km/h | 13026m | -6.9m/s | -51.4°C | 0.8% | 171.5hPa | 2.6V | 08:07:12 | 02:29:48 | 00:00:00 | |
| DB0DAN | 2026-09-01 12:47:40 | 51.54201 | 8.11119 | 96° | 69km/h | 13026m | -6.9m/s | -51.4°C | 1.6% | 171.46hPa | 2.6V | 00:00:00 | 00:00:00 | 00:00:00 | |
| HSKMA3-T | 2026-09-01 12:47:39 | 51.54202 | 8.11091 | 94° | 69km/h | 13033m | -6.4m/s | -51.4°C | 0.9% | 171.3hPa | 2.6V | 08:07:12 | 02:29:47 | 00:00:00 | |
| DL1XH-west | 2026-09-01 12:47:36 | 51.54172 | 8.10823 | 79° | 97km/h | 13088m | -6.2m/s | -51.5°C | 0.7% | 169.8hPa | 2.5V | 08:07:12 | 02:29:38 | 00:00:00 | |
| DO2JMG | 2026-09-01 12:47:34 | 51.54193 | 8.10958 | 72° | 73km/h | 13064m | -5.9m/s | -51.4°C | 0.8% | 170.4hPa | 2.6V | 08:07:12 | 02:29:42 | 00:00:00 | |
| BIOWL1-15 | 2026-09-01 12:47:31 | 51.54176 | 8.10860 | 76° | 91km/h | 13082m | -6.2m/s | -51.5°C | 0.8% | 170hPa | 2.5V | 08:07:12 | 02:29:39 | 00:00:00 | |
| AA1-15 | 2026-09-01 12:47:29 | 51.54168 | 8.10785 | 83° | 95km/h | 13095m | -6m/s | -51.5°C | 0.8% | 169.7hPa | 2.5V | 08:07:12 | 02:29:37 | 00:00:00 | |
| HSKMA3-T | 2026-09-01 12:47:28 | 51.54165 | 8.10746 | 85° | 97km/h | 13101m | -6.5m/s | -51.5°C | 0.7% | 169.5hPa | 2.5V | 08:07:12 | 02:29:36 | 00:00:00 | |
| DL1XH-west | 2026-09-01 12:47:26 | 51.54167 | 8.10632 | 96° | 89km/h | 13118m | -6m/s | -51.5°C | 0.9% | 169hPa | 2.6V | 08:08:03 | 02:29:33 | 00:00:00 | |
| DO2JMG | 2026-09-01 12:47:24 | 51.54169 | 8.10597 | 98° | 84km/h | 13124m | -5.7m/s | -51.4°C | 0.8% | 168.9hPa | 2.5V | 08:08:54 | 02:29:32 | 00:00:00 | |
| DL4XJ-10 | 2026-09-01 12:47:24 | 51.54169 | 8.10597 | 98° | 78km/h | 13124m | -5.7m/s | -53.5°C | 0% | 0hPa | 2.5V | 00:00:00 | 00:00:00 | 00:00:00 | |
| AU51GT2 | 2026-09-01 12:47:23 | 51.54172 | 8.10565 | 100° | 73km/h | 13130m | -5.3m/s | -51.3°C | 1.6% | 168.8hPa | 2.5V | 00:00:00 | 00:00:00 | 00:00:00 | |
| DL1XH-15 | 2026-09-01 12:47:22 | 51.54177 | 8.10510 | 94° | 66km/h | 13140m | -6.2m/s | -51.2°C | 3.8% | 168.4hPa | 2.5V | 08:07:19 | 02:29:29 | 00:00:00 | |
| BIOWL1-15 | 2026-09-01 12:47:20 | 51.54178 | 8.10459 | 86° | 60km/h | 13152m | -6.2m/s | -51.3°C | 0.7% | 168.1hPa | 2.6V | 08:08:03 | 02:29:27 | 00:00:00 | |
| DL1NUX | 2026-09-01 12:47:20 | 51.54161 | 8.10351 | 73° | 84km/h | 13175m | -6m/s | -51.5°C | 3.8% | 167.5hPa | 2.5V | 08:07:25 | 02:29:23 | 00:00:00 | |
| AA1-15 | 2026-09-01 12:47:18 | 51.54176 | 8.10435 | 79° | 62km/h | 13158m | -5.6m/s | -51.3°C | 0.8% | 167.9hPa | 2.6V | 08:08:03 | 02:29:26 | 00:00:00 | |
| HSKMA3-T | 2026-09-01 12:47:17 | 51.54172 | 8.10409 | 74° | 69km/h | 13163m | -6m/s | -51.4°C | 0.8% | 167.8hPa | 2.5V | 08:08:03 | 02:29:25 | 00:00:00 | |
| DL1XH-west | 2026-09-01 12:47:15 | 51.54161 | 8.10351 | 73° | 84km/h | 13175m | -6m/s | -51.5°C | 0.8% | 167.5hPa | 2.5V | 08:08:03 | 02:29:23 | 00:00:00 | |
| DO2JMG | 2026-09-01 12:47:14 | 51.54150 | 8.10280 | 80° | 95km/h | 13187m | -6.2m/s | -51.6°C | 0.7% | 167.2hPa | 2.6V | 08:08:54 | 02:29:21 | 00:00:00 | |
| DL1XH1-15 | 2026-09-01 12:47:14 | 51.54146 | 8.10203 | 89° | 95km/h | 13198m | -5.8m/s | -51.5°C | 3.8% | 166.9hPa | 2.6V | 08:07:29 | 02:29:19 | 00:00:00 | |
| DJ2DS-15 | 2026-09-01 12:47:14 | 51.54155 | 8.10317 | 77° | 77km/h | 13180m | -6.0m/s | -51.5°C | 3.8% | 167.3hPa | 2.5V | 00:00:00 | 02:29:22 | 00:00:00 | |
| DL1XH-15 | 2026-09-01 12:47:13 | 51.54146 | 8.10166 | 93° | 89km/h | 13204m | -5.7m/s | -51.5°C | 3.8% | 166.8hPa | 2.5V | 08:07:30 | 02:29:18 | 00:00:00 | |
| HSKMA3-T | 2026-09-01 12:47:07 | 51.54155 | 8.10061 | 100° | 82km/h | 13222m | -6.6m/s | -51.6°C | 0.8% | 166.3hPa | 2.5V | 08:08:03 | 02:29:15 | 00:00:00 | |
| DL1XH-west | 2026-09-01 12:47:04 | 51.54164 | 8.09975 | 100° | 64km/h | 13241m | -5.8m/s | -51.8°C | 0.8% | 165.8hPa | 2.6V | 08:08:03 | 02:29:12 | 00:00:00 | |
| DO2JMG | 2026-09-01 12:47:02 | 51.54167 | 8.09927 | 91° | 58km/h | 13252m | -6m/s | -51.9°C | 0.8% | 165.5hPa | 2.5V | 08:08:54 | 02:29:10 | 00:00:00 | |
| DO2KSM | 2026-09-01 12:47:02 | 51.54167 | 8.09927 | 92° | 58km/h | 13252m | -6.0m/s | -51.9°C | 1.6% | 165.5hPa | 2.5V | 08:08:00 | 00:00:00 | 00:00:00 | |
| DL1XH-15 | 2026-09-01 12:47:00 | 51.54165 | 8.09880 | 79° | 58km/h | 13264m | -5.7m/s | -52°C | 3.9% | 165.2hPa | 2.5V | 08:07:40 | 02:29:08 | 00:00:00 | |
| HSKMA3-T | 2026-09-01 12:46:56 | 51.54148 | 8.09774 | 74° | 78km/h | 13289m | -6.4m/s | -52.1°C | 0.7% | 164.6hPa | 2.5V | 08:08:03 | 02:29:04 | 00:00:00 | |
| DL1XH-west | 2026-09-01 12:46:53 | 51.54137 | 8.09674 | 85° | 88km/h | 13305m | -5.7m/s | -52.1°C | 0.8% | 164.2hPa | 2.5V | 08:08:03 | 02:29:01 | 00:00:00 | |
| BIOWL1-15 | 2026-09-01 12:46:48 | 51.54147 | 8.09501 | 102° | 77km/h | 13335m | -6.1m/s | -52.2°C | 0.8% | 163.5hPa | 2.5V | 08:08:03 | 02:28:56 | 00:00:00 | |
| HSKMA3-T | 2026-09-01 12:46:46 | 51.54155 | 8.09444 | 102° | 69km/h | 13347m | -6.1m/s | -52.1°C | 0.7% | 163.2hPa | 2.5V | 08:08:03 | 02:28:54 | 00:00:00 | |
| AA1-15 | 2026-09-01 12:46:45 | 51.54159 | 8.09418 | 102° | 60km/h | 13353m | -5.5m/s | -52.1°C | 0.7% | 163hPa | 2.6V | 08:08:03 | 02:28:53 | 00:00:00 | |
| DJ2DS-15 | 2026-09-01 12:46:45 | 51.54161 | 8.09395 | 96° | 58km/h | 13358m | -5.9m/s | -52.1°C | 1.5% | 162.8hPa | 2.5V | 00:00:00 | 00:00:00 | 00:00:00 | |
| DL1XH-west | 2026-09-01 12:46:42 | 51.54162 | 8.09350 | 84° | 57km/h | 13369m | -5.6m/s | -52.2°C | 0.8% | 162.6hPa | 2.5V | 08:08:03 | 02:28:50 | 00:00:00 | |
| HSKMA3-T | 2026-09-01 12:46:36 | 51.54139 | 8.09183 | 80° | 86km/h | 13404m | -5.6m/s | -52.1°C | 0.7% | 161.7hPa | 2.6V | 08:08:54 | 02:28:44 | 00:00:00 | |
| DO2JMG | 2026-09-01 12:46:35 | 51.54135 | 8.09148 | 83° | 91km/h | 13410m | -6.1m/s | -52°C | 0.7% | 161.5hPa | 2.5V | 08:08:54 | 02:28:43 | 00:00:00 | |
| AA1-15 | 2026-09-01 12:46:35 | 51.54134 | 8.09111 | 87° | 89km/h | 13416m | -4.9m/s | -52°C | 0.6% | 161.3hPa | 2.5V | 08:10:36 | 02:28:42 | 00:00:00 | |
| DD1CC9-15 | 2026-09-01 12:46:35 | 51.54136 | 8.09147 | 84° | 91km/h | 13410m | -6.1m/s | -52.0°C | 1.5% | 161.5hPa | 2.5V | 08:08:00 | 00:00:00 | 00:00:00 | |
| DO9LL-15 | 2026-09-01 12:46:34 | 51.54134 | 8.09111 | 88° | 68km/h | 13416m | -4.9m/s | -51.9°C | 3.9% | 161.3hPa | 2.5V | 00:00:00 | 02:28:42 | 00:00:00 | |
| DM0DOS-11 | 2026-09-01 12:46:33 | 51.54139 | 8.09003 | 101° | 82km/h | 13432m | -5.4m/s | -52°C | 3.9% | 161hPa | 2.6V | 08:08:09 | 02:28:39 | 00:00:00 | |
| DL1XH-west | 2026-09-01 12:46:32 | 51.54139 | 8.09003 | 102° | 82km/h | 13432m | -5.4m/s | -52°C | 0.6% | 161hPa | 2.6V | 08:08:54 | 02:28:39 | 00:00:00 | |
| DO3DL | 2026-09-01 12:46:30 | 51.54139 | 8.09003 | 103° | 82km/h | 13432m | -5.4m/s | -52.0°C | 1.5% | 161.0hPa | 2.5V | 08:08:00 | 00:00:00 | 00:00:00 | |
| EDDB2-12 | 2026-09-01 12:46:29 | 51.54149 | 8.08943 | 104° | 71km/h | 13444m | -6.5m/s | -52.0°C | 1.5% | 160.7hPa | 2.5V | 00:00:00 | 00:00:00 | 00:00:00 | |
| AM1SDL-15 | 2026-09-01 12:46:28 | 51.54153 | 8.08915 | 105° | 66km/h | 13450m | -6.5m/s | -51.9°C | 3.9% | 160.5hPa | 2.5V | 00:00:00 | 02:28:36 | 00:00:00 | |
| DB0NH | 2026-09-01 12:46:27 | 51.54157 | 8.08890 | 101° | 62km/h | 13457m | -6.2m/s | -51.9°C | 3.9% | 160.3hPa | 2.5V | 00:00:00 | 02:28:35 | 00:00:00 | |
| DL1NUX | 2026-09-01 12:46:26 | 51.54150 | 8.08752 | 72° | 68km/h | 13491m | -6.2m/s | -52°C | 3.8% | 159.5hPa | 2.5V | 08:08:19 | 02:28:29 | 00:00:00 | |
| HSKMA3-T | 2026-09-01 12:46:25 | 51.54161 | 8.08845 | 92° | 53km/h | 13468m | -5.9m/s | -51.9°C | 0.6% | 160hPa | 2.5V | 08:08:54 | 02:28:33 | 00:00:00 | |
| DO2JMG | 2026-09-01 12:46:24 | 51.54160 | 8.08823 | 85° | 55km/h | 13474m | -5.7m/s | -51.9°C | 0.6% | 159.9hPa | 2.6V | 08:08:54 | 02:28:32 | 00:00:00 | |
| DO3DL | 2026-09-01 12:46:24 | 51.54160 | 8.08823 | 86° | 55km/h | 13474m | -5.7m/s | -51.9°C | 1.4% | 159.9hPa | 2.5V | 08:08:00 | 00:00:00 | 00:00:00 | |
| DL1XH-15 | 2026-09-01 12:46:23 | 51.54136 | 8.08664 | 76° | 82km/h | 13511m | -6.3m/s | -51.9°C | 3.8% | 159hPa | 2.5V | 08:08:22 | 02:28:26 | 00:00:00 | |
| DL1XH-west | 2026-09-01 12:46:20 | 51.54145 | 8.08725 | 72° | 73km/h | 13497m | -6.7m/s | -52°C | 0.6% | 159.3hPa | 2.5V | 08:08:54 | 02:28:28 | 00:00:00 | |
| BIOWL1-15 | 2026-09-01 12:46:19 | 51.54132 | 8.08632 | 80° | 82km/h | 13517m | -5.7m/s | -51.8°C | 0.5% | 158.8hPa | 2.6V | 08:08:54 | 02:28:25 | 00:00:00 | |
| DC6BW-12 | 2026-09-01 12:46:17 | 51.54136 | 8.08664 | 78° | 82km/h | 13511m | -6.3m/s | -51.9°C | 1.4% | 159.0hPa | 2.5V | 08:08:00 | 00:00:00 | 00:00:00 | |
| DL1XH1-15 | 2026-09-01 12:46:16 | 51.54139 | 8.08447 | 102° | 62km/h | 13550m | -5.7m/s | -51.8°C | 3.9% | 158.1hPa | 2.5V | 08:08:29 | 02:28:19 | 00:00:00 | |
| DB0UT-7 | 2026-09-01 12:46:16 | 51.54129 | 8.08599 | 87° | 62km/h | 13522m | -4.7m/s | -51.7°C | 3.8% | 158.7hPa | 2.6V | 00:00:00 | 00:00:00 | 00:00:00 | |
| DL1NUX | 2026-09-01 12:46:15 | 51.54142 | 8.08423 | 100° | 58km/h | 13556m | -5.8m/s | -51.8°C | 3.8% | 158hPa | 2.6V | 08:08:30 | 02:28:18 | 00:00:00 | |
| HSKMA3-T | 2026-09-01 12:46:14 | 51.54130 | 8.08532 | 95° | 80km/h | 13532m | -5.8m/s | -51.8°C | 0.6% | 158.5hPa | 2.5V | 08:08:54 | 02:28:22 | 00:00:00 | |
| AA1-15 | 2026-09-01 12:46:13 | 51.54132 | 8.08501 | 97° | 73km/h | 13538m | -5.7m/s | -51.8°C | 0.5% | 158.4hPa | 2.5V | 08:10:36 | 02:28:21 | 00:00:00 | |
| DL1XH-west | 2026-09-01 12:46:09 | 51.54145 | 8.08401 | 101° | 53km/h | 13562m | -6.1m/s | -51.7°C | 0.6% | 157.8hPa | 2.6V | 08:08:54 | 02:28:17 | 00:00:00 | |
| BIOWL1-15 | 2026-09-01 12:46:08 | 51.54150 | 8.08341 | 87° | 46km/h | 13581m | -6.2m/s | -51.6°C | 0.5% | 157.4hPa | 2.5V | 08:08:54 | 02:28:14 | 00:00:00 | |
| DL1XH1-15 | 2026-09-01 12:46:06 | 51.54133 | 8.08250 | 62° | 55km/h | 13612m | -6.2m/s | -51.5°C | 3.7% | 156.6hPa | 2.6V | 08:08:39 | 02:28:09 | 00:00:00 | |
| DL1NUX | 2026-09-01 12:46:05 | 51.54126 | 8.08230 | 62° | 58km/h | 13618m | -6.1m/s | -51.4°C | 3.6% | 156.4hPa | 2.5V | 08:08:40 | 02:28:08 | 00:00:00 | |
| HSKMA3-T | 2026-09-01 12:46:03 | 51.54143 | 8.08287 | 70° | 47km/h | 13599m | -6.4m/s | -51.6°C | 0.5% | 156.9hPa | 2.6V | 08:08:54 | 02:28:11 | 00:00:00 | |
| DL1XH-west | 2026-09-01 12:45:58 | 51.54113 | 8.08184 | 68° | 68km/h | 13630m | -5.6m/s | -51.2°C | 0.2% | 156.2hPa | 2.5V | 08:08:54 | 02:28:06 | 00:00:00 | |
| EDDB2-12 | 2026-09-01 12:45:58 | 51.54113 | 8.08184 | 67° | 68km/h | 13630m | -5.6m/s | -51.2°C | 1.2% | 156.2hPa | 2.5V | 00:00:00 | 00:00:00 | 00:00:00 | |
| DL1XH1-15 | 2026-09-01 12:45:57 | 51.54088 | 8.07976 | 90° | 68km/h | 13670m | -6.2m/s | -51°C | 3.5% | 155.2hPa | 2.5V | 08:08:49 | 02:27:59 | 00:00:00 | |
| HSKMA3-T | 2026-09-01 12:45:53 | 51.54089 | 8.08035 | 85° | 77km/h | 13658m | -5.9m/s | -51°C | 0.3% | 155.4hPa | 2.5V | 08:08:54 | 02:28:01 | 00:00:00 | |
| DO2JMG | 2026-09-01 12:45:52 | 51.54088 | 8.08005 | 89° | 73km/h | 13664m | -6.2m/s | -51°C | 0.3% | 155.3hPa | 2.5V | 08:08:54 | 02:28:00 | 00:00:00 | |
| AA1-15 | 2026-09-01 12:45:49 | 51.54089 | 8.07927 | 92° | 55km/h | 13682m | -6.5m/s | -50.9°C | 0.2% | 154.9hPa | 2.6V | 08:10:36 | 02:27:57 | 00:00:00 | |
| DL1NUX | 2026-09-01 12:45:49 | 51.54077 | 8.07837 | 58° | 51km/h | 13712m | -6.4m/s | -50.6°C | 3.4% | 154.2hPa | 2.5V | 08:08:56 | 02:27:52 | 00:00:00 | |
| DL1XH-west | 2026-09-01 12:45:48 | 51.54090 | 8.07907 | 89° | 47km/h | 13688m | -6.4m/s | -50.7°C | 0.3% | 154.7hPa | 2.6V | 08:08:54 | 02:27:56 | 00:00:00 | |
| DL1XH1-15 | 2026-09-01 12:45:46 | 51.54053 | 8.07777 | 58° | 68km/h | 13730m | -6.5m/s | -50.7°C | 3.4% | 153.7hPa | 2.6V | 08:08:59 | 02:27:49 | 00:00:00 | |
| BIOWL1-15 | 2026-09-01 12:45:43 | 51.54069 | 8.07819 | 58° | 55km/h | 13718m | -6.1m/s | -50.6°C | 0.2% | 154hPa | 2.5V | 08:09:45 | 02:27:51 | 00:00:00 | |
| HSKMA3-T | 2026-09-01 12:45:42 | 51.54062 | 8.07799 | 59° | 60km/h | 13724m | -6.3m/s | -50.7°C | 0.2% | 153.9hPa | 2.6V | 08:09:45 | 02:27:50 | 00:00:00 | |
| DO3DL | 2026-09-01 12:45:42 | 51.54062 | 8.07799 | 60° | 60km/h | 13724m | -6.3m/s | -50.7°C | 1.2% | 153.9hPa | 2.5V | 08:09:00 | 00:00:00 | 00:00:00 | |
| DD1CC1-15 | 2026-09-01 12:45:40 | 51.54053 | 8.07777 | 60° | 68km/h | 13730m | -6.5m/s | -50.7°C | 1.2% | 153.7hPa | 2.5V | 00:00:00 | 00:00:00 | 00:00:00 | |
| DL1XH-15 | 2026-09-01 12:45:39 | 51.54027 | 8.07695 | 65° | 82km/h | 13750m | -7.2m/s | -50.8°C | 3.4% | 153.2hPa | 2.5V | 08:09:02 | 02:27:46 | 00:00:00 | |
| DL1NUX | 2026-09-01 12:45:39 | 51.54002 | 8.07565 | 82° | 80km/h | 13776m | -5.7m/s | -50.9°C | 3.4% | 152.7hPa | 2.6V | 08:09:06 | 02:27:42 | 00:00:00 | |
| DL1XH-west | 2026-09-01 12:45:37 | 51.54019 | 8.07664 | 69° | 84km/h | 13757m | -6.9m/s | -50.9°C | 0.2% | 153.1hPa | 2.5V | 08:09:45 | 02:27:45 | 00:00:00 | |
| GOEST3-10 | 2026-09-01 12:45:37 | 51.54019 | 8.07664 | 69° | 77km/h | 13757m | -6.9m/s | -50.8°C | 3.3% | 153.1hPa | 2.6V | 00:00:00 | 02:27:45 | 00:00:00 | |
| DC6BW-12 | 2026-09-01 12:45:36 | 51.54019 | 8.07664 | 70° | 84km/h | 13757m | -6.9m/s | -50.8°C | 1.2% | 153.1hPa | 2.6V | 08:09:00 | 00:00:00 | 00:00:00 | |
| DD8BA-10 | 2026-09-01 12:45:35 | 51.54006 | 8.07597 | 78° | 66km/h | 13771m | -6.0m/s | -50.8°C | 3.3% | 152.7hPa | 2.6V | 00:00:00 | 00:00:00 | 00:00:00 | |
| DO9LL-15 | 2026-09-01 12:45:34 | 51.54002 | 8.07565 | 83° | 69km/h | 13776m | -5.7m/s | -50.8°C | 3.4% | 152.6hPa | 2.6V | 00:00:00 | 02:27:42 | 00:00:00 | |
| DM0DOS-11 | 2026-09-01 12:45:33 | 51.53997 | 8.07402 | 82° | 51km/h | 13813m | -6m/s | -51°C | 3.6% | 151.8hPa | 2.6V | 08:09:12 | 02:27:36 | 00:00:00 | |
| DO2JMG | 2026-09-01 12:45:32 | 51.53999 | 8.07502 | 88° | 77km/h | 13788m | -6.4m/s | -50.9°C | 0.2% | 152.3hPa | 2.5V | 08:09:45 | 02:27:40 | 00:00:00 | |
| HSKMA3-T | 2026-09-01 12:45:31 | 51.53998 | 8.07473 | 90° | 68km/h | 13794m | -5.9m/s | -50.9°C | 0.2% | 152.2hPa | 2.5V | 08:09:45 | 02:27:39 | 00:00:00 | |
| DL1CLM-18 | 2026-09-01 12:45:30 | 51.53999 | 8.07473 | 91° | 68km/h | 13794m | -5.9m/s | -50.9°C | 1.2% | 152.2hPa | 2.5V | 00:00:00 | 00:00:00 | 00:00:00 | |
| DL1NUX | 2026-09-01 12:45:29 | 51.53977 | 8.07322 | 60° | 60km/h | 13838m | -6.2m/s | -51.1°C | 3.5% | 151.2hPa | 2.5V | 08:09:16 | 02:27:32 | 00:00:00 | |
| DL1XH-west | 2026-09-01 12:45:26 | 51.53990 | 8.07362 | 67° | 53km/h | 13826m | -6.2m/s | -51°C | 0.3% | 151.5hPa | 2.6V | 08:09:45 | 02:27:34 | 00:00:00 | |
| AA1-15 | 2026-09-01 12:45:23 | 51.53969 | 8.07300 | 58° | 66km/h | 13845m | -6.6m/s | -51.2°C | 0.3% | 151.1hPa | 2.5V | 08:10:36 | 02:27:31 | 00:00:00 | |
| DO2JMG | 2026-09-01 12:45:21 | 51.53949 | 8.07250 | 57° | 80km/h | 13858m | -7.2m/s | -51.2°C | 0.2% | 150.7hPa | 2.6V | 08:09:45 | 02:27:29 | 00:00:00 | |
| BIOWL1-15 | 2026-09-01 12:45:21 | 51.53888 | 8.06933 | 84° | 62km/h | 13922m | -6.2m/s | -51.1°C | 0.2% | 149.3hPa | 2.5V | 08:09:45 | 02:27:19 | 00:00:00 | |
| DL1XH1-15 | 2026-09-01 12:45:20 | 51.53928 | 8.07191 | 61° | 88km/h | 13873m | -7.3m/s | -51.2°C | 3.4% | 150.4hPa | 2.6V | 08:09:21 | 02:27:27 | 00:00:00 | |
| HSKMA3-T | 2026-09-01 12:45:20 | 51.53939 | 8.07222 | 59° | 84km/h | 13866m | -7.3m/s | -51.2°C | 0.2% | 150.6hPa | 2.6V | 08:09:45 | 02:27:28 | 00:00:00 | |
| DL1XH-15 | 2026-09-01 12:45:20 | 51.53918 | 8.07159 | 64° | 91km/h | 13880m | -6.7m/s | -51.1°C | 3.4% | 150.3hPa | 2.5V | 08:09:22 | 02:27:26 | 00:00:00 | |
| AU51GT2 | 2026-09-01 12:45:20 | 51.53928 | 8.07191 | 61° | 88km/h | 13873m | -7.3m/s | -51.2°C | 1.2% | 150.4hPa | 2.6V | 00:00:00 | 00:00:00 | 00:00:00 | |
| S3001 | 2026-09-01 12:45:19 | 51.53902 | 8.07089 | 74° | 91km/h | 13892m | -5.9m/s | -51.0°C | 1.2% | 150.0hPa | 2.6V | 00:00:00 | 00:00:00 | 00:00:00 | |
| DL1NUX | 2026-09-01 12:45:18 | 51.53893 | 8.07020 | 82° | 82km/h | 13904m | -5.7m/s | -51°C | 3.4% | 149.7hPa | 2.6V | 08:09:26 | 02:27:22 | 00:00:00 | |
| DL1XH-west | 2026-09-01 12:45:17 | 51.53897 | 8.07054 | 78° | 88km/h | 13898m | -6.1m/s | -51°C | 0.1% | 149.9hPa | 2.5V | 08:09:45 | 02:27:23 | 00:00:00 | |
| DD8BA-10 | 2026-09-01 12:45:15 | 51.53897 | 8.07054 | 79° | 68km/h | 13898m | -6.0m/s | -50.9°C | 3.4% | 149.8hPa | 2.6V | 00:00:00 | 00:00:00 | 00:00:00 | |
| DJ2DS-15 | 2026-09-01 12:45:14 | 51.53893 | 8.07020 | 83° | 78km/h | 13904m | -5.7m/s | -51.0°C | 3.4% | 149.7hPa | 2.6V | 08:09:00 | 02:27:22 | 00:00:00 | |
| GOEST3-10 | 2026-09-01 12:45:10 | 51.53885 | 8.06908 | 79° | 60km/h | 13929m | -6.1m/s | -51.1°C | 3.5% | 149.2hPa | 2.5V | 00:00:00 | 00:00:00 | 00:00:00 | |
| HSKMA3-T | 2026-09-01 12:45:10 | 51.53885 | 8.06908 | 79° | 60km/h | 13929m | -6.2m/s | -51.1°C | 0.2% | 149.2hPa | 2.5V | 08:09:45 | 02:27:18 | 00:00:00 | |
| DL1XH-15 | 2026-09-01 12:45:09 | 51.53877 | 8.06864 | 65° | 58km/h | 13942m | -6.3m/s | -51.1°C | 3.5% | 148.9hPa | 2.5V | 08:09:32 | 02:27:16 | 00:00:00 | |
| AA1-15 | 2026-09-01 12:45:06 | 51.53862 | 8.06821 | 57° | 68km/h | 13954m | -6.1m/s | -51.1°C | 0.3% | 148.6hPa | 2.6V | 08:10:36 | 02:27:14 | 00:00:00 | |
| DL1XH-west | 2026-09-01 12:45:04 | 51.53841 | 8.06771 | 58° | 82km/h | 13967m | -6.5m/s | -51.2°C | 0.3% | 148.3hPa | 2.5V | 08:09:45 | 02:27:12 | 00:00:00 | |
| HSKMA3-T | 2026-09-01 12:45:00 | 51.53799 | 8.06641 | 70° | 93km/h | 13993m | -5.5m/s | -51.2°C | 0.4% | 147.8hPa | 2.6V | 08:09:45 | 02:27:08 | 00:00:00 | |
| DO2JMG | 2026-09-01 12:44:59 | 51.53792 | 8.06605 | 74° | 93km/h | 13999m | -5.7m/s | -51.2°C | 0.3% | 147.7hPa | 2.6V | 08:09:45 | 02:27:07 | 00:00:00 | |
| DL1XH-15 | 2026-09-01 12:44:59 | 51.53786 | 8.06569 | 77° | 93km/h | 14004m | -5.5m/s | -51.2°C | 3.6% | 147.5hPa | 2.6V | 08:09:42 | 02:27:06 | 00:00:00 | |
| DL8DAS-14 | 2026-09-01 12:44:58 | 51.53782 | 8.06532 | 79° | 89km/h | 14010m | -5.8m/s | -51.2°C | 1.2% | 147.3hPa | 2.5V | 00:00:00 | 00:00:00 | 00:00:00 | |
| EDDB2-12 | 2026-09-01 12:44:57 | 51.53778 | 8.06496 | 82° | 88km/h | 14016m | -6.2m/s | -51.2°C | 1.2% | 147.2hPa | 2.5V | 00:00:00 | 00:00:00 | 00:00:00 | |
| DJ2DS-15 | 2026-09-01 12:44:56 | 51.53778 | 8.06496 | 82° | 88km/h | 14016m | -6.2m/s | -51.2°C | 1.2% | 147.2hPa | 2.5V | 00:00:00 | 00:00:00 | 00:00:00 | |
| DD8BA-10 | 2026-09-01 12:44:55 | 51.53776 | 8.06460 | 85° | 68km/h | 14022m | -6.2m/s | -51.2°C | 3.5% | 147.0hPa | 2.5V | 00:00:00 | 00:00:00 | 00:00:00 | |
| DJ2DS-15 | 2026-09-01 12:44:54 | 51.53774 | 8.06427 | 87° | 75km/h | 14028m | -6.7m/s | -51.2°C | 3.4% | 146.9hPa | 2.5V | 00:00:00 | 02:27:02 | 00:00:00 | |
| DL1XH1-15 | 2026-09-01 12:44:53 | 51.53772 | 8.06286 | 82° | 57km/h | 14061m | -5.9m/s | -51°C | 3.4% | 146.1hPa | 2.5V | 08:09:51 | 02:26:57 | 00:00:00 | |
| DL1XH-west | 2026-09-01 12:44:53 | 51.53774 | 8.06394 | 89° | 78km/h | 14035m | -7m/s | -51.2°C | 0.2% | 146.7hPa | 2.6V | 08:10:36 | 02:27:01 | 00:00:00 | |
| HSKMA3-T | 2026-09-01 12:44:50 | 51.53773 | 8.06309 | 88° | 62km/h | 14056m | -6.1m/s | -51°C | 0.2% | 146.3hPa | 2.5V | 08:10:36 | 02:26:58 | 00:00:00 | |
| DO2JMG | 2026-09-01 12:44:49 | 51.53772 | 8.06286 | 82° | 57km/h | 14062m | -5.9m/s | -51°C | 0.2% | 146.2hPa | 2.5V | 08:12:18 | 02:26:57 | 00:00:00 | |
| BIOWL1-15 | 2026-09-01 12:44:48 | 51.53769 | 8.06264 | 77° | 53km/h | 14067m | -5.9m/s | -51.1°C | 0.2% | 145.9hPa | 2.5V | 08:10:36 | 02:26:56 | 00:00:00 | |
| DL1NUX | 2026-09-01 12:44:47 | 51.53747 | 8.06170 | 66° | 73km/h | 14090m | -5.9m/s | -51°C | 3.6% | 145.5hPa | 2.6V | 08:09:56 | 02:26:52 | 00:00:00 | |
| DL1XH-west | 2026-09-01 12:44:43 | 51.53740 | 8.06141 | 69° | 80km/h | 14096m | -6.4m/s | -50.9°C | 0.4% | 145.4hPa | 2.5V | 08:10:36 | 02:26:51 | 00:00:00 | |
| AA1-15 | 2026-09-01 12:44:42 | 51.53728 | 8.06075 | 79° | 88km/h | 14108m | -6.1m/s | -50.9°C | 0.3% | 145.1hPa | 2.5V | 08:10:36 | 02:26:49 | 00:00:00 | |
| DL1XH1-15 | 2026-09-01 12:44:41 | 51.53722 | 8.06004 | 86° | 88km/h | 14121m | -5.8m/s | -50.9°C | 3.6% | 144.8hPa | 2.6V | 08:10:01 | 02:26:47 | 00:00:00 | |
| HSKMA3-T | 2026-09-01 12:44:39 | 51.53722 | 8.06004 | 87° | 88km/h | 14121m | -5.9m/s | -50.9°C | 0.3% | 144.8hPa | 2.6V | 08:10:36 | 02:26:47 | 00:00:00 | |
| DO2JMG | 2026-09-01 12:44:38 | 51.53721 | 8.05968 | 89° | 89km/h | 14126m | -6.3m/s | -50.9°C | 0.3% | 144.6hPa | 2.6V | 08:12:18 | 02:26:46 | 00:00:00 | |
| BIOWL1-15 | 2026-09-01 12:44:38 | 51.53727 | 8.05832 | 101° | 78km/h | 14152m | -7m/s | -50.7°C | 0.3% | 144.1hPa | 2.5V | 08:10:36 | 02:26:42 | 00:00:00 | |
| DL1NUX | 2026-09-01 12:44:37 | 51.53727 | 8.05832 | 100° | 78km/h | 14152m | -7m/s | -50.7°C | 3.5% | 144.1hPa | 2.5V | 08:10:06 | 02:26:42 | 00:00:00 | |
| DO1YAY-16 | 2026-09-01 12:44:36 | 51.53724 | 8.05864 | 97° | 80km/h | 14145m | -7.0m/s | -50.8°C | 1.2% | 144.2hPa | 2.5V | 00:00:00 | 00:00:00 | 00:00:00 | |
| DD8BA-10 | 2026-09-01 12:44:35 | 51.53724 | 8.05864 | 98° | 58km/h | 14145m | -6.9m/s | -50.7°C | 3.5% | 144.2hPa | 2.5V | 00:00:00 | 00:00:00 | 00:00:00 | |
| DJ2KF-10 | 2026-09-01 12:44:34 | 51.53727 | 8.05832 | 101° | 57km/h | 14152m | -6.9m/s | -50.7°C | 3.5% | 144.0hPa | 2.5V | 00:00:00 | 02:26:42 | 00:00:00 | |
| DL1XH1-15 | 2026-09-01 12:44:33 | 51.53748 | 8.05706 | 106° | 51km/h | 14186m | -6.2m/s | -50.5°C | 3.4% | 143.3hPa | 2.5V | 08:10:11 | 02:26:37 | 00:00:00 | |
| DL1XH-west | 2026-09-01 12:44:32 | 51.53736 | 8.05775 | 105° | 68km/h | 14166m | -6.7m/s | -50.7°C | 0.2% | 143.8hPa | 2.6V | 08:10:36 | 02:26:40 | 00:00:00 | |
| HSKMA3-T | 2026-09-01 12:44:29 | 51.53748 | 8.05706 | 106° | 51km/h | 14186m | -6.2m/s | -50.5°C | 0.2% | 143.3hPa | 2.5V | 08:10:36 | 02:26:37 | 00:00:00 | |
| DO2JMG | 2026-09-01 12:44:28 | 51.53753 | 8.05669 | 97° | 46km/h | 14198m | -6.6m/s | -50.5°C | 0.2% | 143hPa | 2.5V | 08:12:18 | 02:26:35 | 00:00:00 | |
| BIOWL1-15 | 2026-09-01 12:44:26 | 51.53753 | 8.05651 | 90° | 46km/h | 14205m | -6.6m/s | -50.5°C | 0.1% | 142.9hPa | 2.5V | 08:10:36 | 02:26:34 | 00:00:00 | |
| DB0DAN | 2026-09-01 12:44:25 | 51.53752 | 8.05632 | 80° | 47km/h | 14211m | -6.2m/s | -50.5°C | 1.2% | 142.81hPa | 2.6V | 00:00:00 | 00:00:00 | 00:00:00 | |
| DL1XH-west | 2026-09-01 12:44:22 | 51.53742 | 8.05563 | 80° | 69km/h | 14229m | -5.9m/s | -50.6°C | 0.2% | 142.4hPa | 2.5V | 08:10:36 | 02:26:30 | 00:00:00 | |
| AA1-15 | 2026-09-01 12:44:21 | 51.53740 | 8.05534 | 84° | 73km/h | 14235m | -5.6m/s | -50.6°C | 0.2% | 142.3hPa | 2.5V | 08:10:36 | 02:26:29 | 00:00:00 | |
| EDDB2-11 | 2026-09-01 12:44:21 | 51.53739 | 8.05503 | 89° | 75km/h | 14241m | -5.5m/s | -50.6°C | 1.2% | 142.1hPa | 2.6V | 00:00:00 | 00:00:00 | 00:00:00 | |
| DM0DOS-11 | 2026-09-01 12:44:20 | 51.53741 | 8.05440 | 96° | 80km/h | 14252m | -6m/s | -50.6°C | 3.5% | 141.9hPa | 2.6V | 08:10:22 | 02:26:26 | 00:00:00 | |
| DL1XH1-15 | 2026-09-01 12:44:20 | 51.53739 | 8.05472 | 92° | 78km/h | 14246m | -6m/s | -50.6°C | 3.4% | 142hPa | 2.5V | 08:10:21 | 02:26:27 | 00:00:00 | |
| HSKMA3-T | 2026-09-01 12:44:19 | 51.53739 | 8.05472 | 93° | 78km/h | 14246m | -6m/s | -50.6°C | 0.2% | 142hPa | 2.5V | 08:10:36 | 02:26:27 | 00:00:00 | |
| BIOWL1-15 | 2026-09-01 12:44:16 | 51.53749 | 8.05380 | 105° | 75km/h | 14264m | -6.8m/s | -50.5°C | 0.3% | 141.6hPa | 2.6V | 08:10:36 | 02:26:24 | 00:00:00 | |
| DJ8HS-15 | 2026-09-01 12:44:16 | 51.53749 | 8.05380 | 105° | 57km/h | 14264m | -6.7m/s | -50.4°C | 3.4% | 141.5hPa | 2.6V | 00:00:00 | 02:26:24 | 00:00:00 | |
| DL1XH1-15 | 2026-09-01 12:44:15 | 51.53780 | 8.05242 | 97° | 35km/h | 14310m | -6.7m/s | -50.3°C | 3.4% | 140.6hPa | 2.6V | 08:10:31 | 02:26:17 | 00:00:00 | |
| DL1XH-west | 2026-09-01 12:44:12 | 51.53771 | 8.05288 | 114° | 49km/h | 14290m | -6.5m/s | -50.4°C | 0.2% | 141hPa | 2.5V | 08:10:36 | 02:26:20 | 00:00:00 | |
| AA1-15 | 2026-09-01 12:44:10 | 51.53778 | 8.05256 | 106° | 37km/h | 14303m | -7.1m/s | -50.3°C | 0.2% | 140.7hPa | 2.6V | 08:10:36 | 02:26:18 | 00:00:00 | |
| GOEST3-10 | 2026-09-01 12:44:10 | 51.53778 | 8.05256 | 106° | 37km/h | 14303m | -7.1m/s | -50.3°C | 3.4% | 140.6hPa | 2.5V | 00:00:00 | 00:00:00 | 00:00:00 | |
| DM0DOS-11 | 2026-09-01 12:44:09 | 51.53780 | 8.05229 | 88° | 33km/h | 14316m | -6.7m/s | -50.3°C | 3.4% | 140.4hPa | 2.5V | 08:10:32 | 02:26:16 | 00:00:00 | |
| DL1NUX | 2026-09-01 12:44:09 | 51.53766 | 8.05164 | 64° | 55km/h | 14344m | -7.3m/s | -50.4°C | 3.3% | 139.8hPa | 2.6V | 08:10:36 | 02:26:12 | 00:00:00 | |
| HSKMA3-T | 2026-09-01 12:44:08 | 51.53780 | 8.05229 | 88° | 33km/h | 14316m | -6.7m/s | -50.3°C | 0.2% | 140.4hPa | 2.5V | 08:10:36 | 02:26:16 | 00:00:00 | |
| BIOWL1-15 | 2026-09-01 12:44:05 | 51.53772 | 8.05183 | 65° | 49km/h | 14337m | -7.3m/s | -50.4°C | 0.2% | 140hPa | 2.5V | 08:10:36 | 02:26:13 | 00:00:00 | |
| DL1XH-west | 2026-09-01 12:44:01 | 51.53750 | 8.05093 | 76° | 68km/h | 14366m | -6.4m/s | -50.6°C | 0.1% | 139.4hPa | 2.5V | 08:11:27 | 02:26:09 | 00:00:00 | |
| AA1-15 | 2026-09-01 12:43:59 | 51.53744 | 8.05035 | 85° | 73km/h | 14378m | -5.9m/s | -50.7°C | 0.1% | 139.1hPa | 2.5V | 08:11:27 | 02:26:07 | 00:00:00 | |
| DM0DOS-11 | 2026-09-01 12:43:59 | 51.53743 | 8.05006 | 89° | 73km/h | 14384m | -5.9m/s | -50.7°C | 3.3% | 138.9hPa | 2.5V | 08:10:42 | 02:26:06 | 00:00:00 | |
| DL1NUX | 2026-09-01 12:43:59 | 51.53754 | 8.04901 | 106° | 55km/h | 14409m | -6.6m/s | -50.8°C | 3.4% | 138.5hPa | 2.5V | 08:10:46 | 02:26:02 | 00:00:00 | |
| HSKMA3-T | 2026-09-01 12:43:58 | 51.53743 | 8.05006 | 90° | 73km/h | 14384m | -5.9m/s | -50.7°C | 0.2% | 139hPa | 2.5V | 08:11:27 | 02:26:06 | 00:00:00 | |
| DO2JMG | 2026-09-01 12:43:56 | 51.53747 | 8.04949 | 100° | 68km/h | 14396m | -6.7m/s | -50.8°C | 0.2% | 138.7hPa | 2.6V | 08:12:18 | 02:26:04 | 00:00:00 | |
| DL8DAS-14 | 2026-09-01 12:43:56 | 51.53750 | 8.04923 | 104° | 60km/h | 14402m | -6.7m/s | -50.8°C | 1.2% | 138.6hPa | 2.5V | 00:00:00 | 00:00:00 | 00:00:00 | |
| DD8BA-10 | 2026-09-01 12:43:55 | 51.53750 | 8.04923 | 105° | 46km/h | 14402m | -6.6m/s | -50.7°C | 3.4% | 138.5hPa | 2.5V | 00:00:00 | 00:00:00 | 00:00:00 | |
| DL1XH1-15 | 2026-09-01 12:43:54 | 51.53759 | 8.04823 | 72° | 37km/h | 14442m | -6.9m/s | -51°C | 3.5% | 137.8hPa | 2.5V | 08:10:51 | 02:25:57 | 00:00:00 | |
| BIOWL1-15 | 2026-09-01 12:43:54 | 51.53754 | 8.04901 | 106° | 55km/h | 14409m | -6.6m/s | -50.8°C | 0.3% | 138.5hPa | 2.5V | 08:11:27 | 02:26:02 | 00:00:00 | |
| DL1XH-west | 2026-09-01 12:43:50 | 51.53737 | 8.04751 | 62° | 62km/h | 14469m | -6.8m/s | -51.2°C | 0.2% | 137.2hPa | 2.6V | 08:11:27 | 02:25:53 | 00:00:00 | |
| AA1-15 | 2026-09-01 12:43:49 | 51.53759 | 8.04823 | 73° | 37km/h | 14442m | -6.9m/s | -51°C | 0.3% | 137.8hPa | 2.5V | 08:11:27 | 02:25:57 | 00:00:00 | |
| HSKMA3-T | 2026-09-01 12:43:47 | 51.53750 | 8.04791 | 61° | 49km/h | 14455m | -6.5m/s | -51.1°C | 0.3% | 137.5hPa | 2.5V | 08:11:27 | 02:25:55 | 00:00:00 | |
| DO2JMG | 2026-09-01 12:43:46 | 51.53744 | 8.04772 | 60° | 57km/h | 14462m | -6.5m/s | -51.2°C | 0.3% | 137.3hPa | 2.6V | 08:12:18 | 02:25:54 | 00:00:00 | |
| S3001 | 2026-09-01 12:43:46 | 51.53737 | 8.04751 | 61° | 60km/h | 14469m | -6.8m/s | -51.2°C | 1.2% | 137.2hPa | 2.5V | 00:00:00 | 00:00:00 | 00:00:00 | |
| DL1NUX | 2026-09-01 12:43:45 | 51.53729 | 8.04728 | 63° | 68km/h | 14476m | -7.2m/s | -51.3°C | 3.5% | 137hPa | 2.5V | 08:10:56 | 02:25:52 | 00:00:00 | |
| DD8BA-10 | 2026-09-01 12:43:45 | 51.53736 | 8.04751 | 62° | 73km/h | 14469m | -6.7m/s | -51.2°C | 3.4% | 137.1hPa | 2.6V | 00:00:00 | 00:00:00 | 00:00:00 | |
| DL1XH1-15 | 2026-09-01 12:43:44 | 51.53703 | 8.04580 | 83° | 80km/h | 14512m | -7m/s | -51.6°C | 3.5% | 136.3hPa | 2.6V | 08:11:01 | 02:25:47 | 00:00:00 | |
| DJ2DS-15 | 2026-09-01 12:43:44 | 51.53729 | 8.04728 | 63° | 66km/h | 14476m | -7.2m/s | -51.3°C | 1.2% | 137.0hPa | 2.5V | 00:00:00 | 00:00:00 | 00:00:00 | |
| BIOWL1-15 | 2026-09-01 12:43:43 | 51.53722 | 8.04702 | 67° | 71km/h | 14483m | -7.4m/s | -51.3°C | 0.2% | 136.9hPa | 2.5V | 08:11:27 | 02:25:51 | 00:00:00 | |
| DO3DL | 2026-09-01 12:43:42 | 51.53716 | 8.04674 | 72° | 77km/h | 14490m | -7.5m/s | -51.4°C | 1.1% | 136.7hPa | 2.5V | 08:11:00 | 00:00:00 | 00:00:00 | |
| DD1CC2-15 | 2026-09-01 12:43:41 | 51.53716 | 8.04674 | 72° | 77km/h | 14490m | -7.5m/s | -51.4°C | 1.2% | 136.7hPa | 2.5V | 00:00:00 | 00:00:00 | 00:00:00 | |
| GOEST3-10 | 2026-09-01 12:43:40 | 51.53705 | 8.04612 | 80° | 75km/h | 14505m | -7.3m/s | -51.5°C | 3.4% | 136.4hPa | 2.5V | 00:00:00 | 00:00:00 | 00:00:00 | |
| DM0DOS-11 | 2026-09-01 12:43:39 | 51.53701 | 8.04548 | 87° | 78km/h | 14520m | -7m/s | -51.6°C | 3.5% | 136.1hPa | 2.5V | 08:11:02 | 02:25:46 | 00:00:00 | |
| DL1NUX | 2026-09-01 12:43:39 | 51.53705 | 8.04442 | 94° | 53km/h | 14547m | -6.9m/s | -51.8°C | 3.6% | 135.6hPa | 2.6V | 08:11:06 | 02:25:42 | 00:00:00 | |
| DL4BBY-15 | 2026-09-01 12:43:39 | 51.53703 | 8.04580 | 84° | 66km/h | 14513m | -6.9m/s | -53.7°C | 0% | 0hPa | 2.6V | 00:00:00 | 00:00:00 | 00:00:00 | |
| DL1XH-15 | 2026-09-01 12:43:38 | 51.53705 | 8.04422 | 89° | 47km/h | 14553m | -6.4m/s | -51.8°C | 3.6% | 135.5hPa | 2.6V | 08:11:07 | 02:25:41 | 00:00:00 | |
| HSKMA3-T | 2026-09-01 12:43:37 | 51.53701 | 8.04517 | 91° | 73km/h | 14527m | -6.9m/s | -51.7°C | 0.3% | 136hPa | 2.5V | 08:11:27 | 02:25:45 | 00:00:00 | |
| DL1XH-west | 2026-09-01 12:43:35 | 51.53703 | 8.04464 | 96° | 58km/h | 14540m | -6.2m/s | -51.8°C | 0.3% | 135.8hPa | 2.5V | 08:11:27 | 02:25:43 | 00:00:00 | |
| DD8BA-10 | 2026-09-01 12:43:35 | 51.53703 | 8.04464 | 97° | 53km/h | 14540m | -6.2m/s | -51.7°C | 3.6% | 135.7hPa | 2.5V | 08:11:00 | 00:00:00 | 00:00:00 | |
| DL1XH1-15 | 2026-09-01 12:43:34 | 51.53693 | 8.04353 | 60° | 51km/h | 14580m | -7m/s | -52°C | 3.7% | 134.9hPa | 2.5V | 08:11:11 | 02:25:37 | 00:00:00 | |
| BIOWL1-15 | 2026-09-01 12:43:34 | 51.53705 | 8.04404 | 82° | 42km/h | 14560m | -6.3m/s | -51.9°C | 0.4% | 135.3hPa | 2.6V | 08:11:27 | 02:25:40 | 00:00:00 | |
| DJ2KF-10 | 2026-09-01 12:43:34 | 51.53705 | 8.04442 | 95° | 62km/h | 14547m | -6.8m/s | -51.8°C | 3.6% | 135.5hPa | 2.5V | 00:00:00 | 02:25:42 | 00:00:00 | |
| DC6BW-12 | 2026-09-01 12:43:33 | 51.53705 | 8.04442 | 96° | 53km/h | 14547m | -6.9m/s | -51.8°C | 1.2% | 135.6hPa | 2.5V | 08:11:00 | 00:00:00 | 00:00:00 | |
| DD1CC3-15 | 2026-09-01 12:43:32 | 51.53705 | 8.04422 | 90° | 47km/h | 14554m | -6.4m/s | -51.8°C | 1.3% | 135.5hPa | 2.5V | 08:11:00 | 00:00:00 | 00:00:00 | |
| GOEST3-10 | 2026-09-01 12:43:30 | 51.53699 | 8.04371 | 67° | 57km/h | 14574m | -7.0m/s | -51.9°C | 3.7% | 135.0hPa | 2.5V | 00:00:00 | 00:00:00 | 00:00:00 | |
| DM0DOS-11 | 2026-09-01 12:43:29 | 51.53687 | 8.04334 | 58° | 55km/h | 14587m | -6.8m/s | -52°C | 3.7% | 134.8hPa | 2.5V | 08:11:12 | 02:25:36 | 00:00:00 | |
| DL1NUX | 2026-09-01 12:43:29 | 51.53654 | 8.04240 | 63° | 75km/h | 14615m | -6.4m/s | -52.1°C | 3.8% | 134.2hPa | 2.5V | 08:11:16 | 02:25:32 | 00:00:00 | |
| AA1-15 | 2026-09-01 12:43:27 | 51.53679 | 8.04314 | 59° | 60km/h | 14595m | -6.8m/s | -52.1°C | 0.4% | 134.6hPa | 2.6V | 08:11:27 | 02:25:35 | 00:00:00 | |
| HSKMA3-T | 2026-09-01 12:43:26 | 51.53671 | 8.04291 | 60° | 66km/h | 14602m | -6.6m/s | -52.1°C | 0.5% | 134.5hPa | 2.6V | 08:11:27 | 02:25:34 | 00:00:00 | |
| DL1XH-west | 2026-09-01 12:43:25 | 51.53662 | 8.04267 | 62° | 71km/h | 14608m | -6.3m/s | -52.1°C | 0.4% | 134.3hPa | 2.6V | 08:11:27 | 02:25:33 | 00:00:00 | |
| DL1XH1-15 | 2026-09-01 12:43:24 | 51.53622 | 8.04081 | 79° | 86km/h | 14649m | -7.5m/s | -52.2°C | 3.7% | 133.4hPa | 2.6V | 08:11:21 | 02:25:27 | 00:00:00 | |
| EDDB2-12 | 2026-09-01 12:43:23 | 51.53646 | 8.04212 | 67° | 78km/h | 14621m | -6.6m/s | -52.1°C | 1.3% | 134.1hPa | 2.5V | 00:00:00 | 00:00:00 | 00:00:00 | |
| DM0DOS-11 | 2026-09-01 12:43:23 | 51.53619 | 8.04047 | 83° | 86km/h | 14657m | -7.4m/s | -52.2°C | 3.7% | 133.3hPa | 2.6V | 08:11:22 | 02:25:26 | 00:00:00 | |
| DO3DL | 2026-09-01 12:43:22 | 51.53646 | 8.04212 | 68° | 78km/h | 14621m | -6.6m/s | -52.1°C | 1.3% | 134.1hPa | 2.5V | 08:11:00 | 00:00:00 | 00:00:00 | |
| DD1CC2-15 | 2026-09-01 12:43:21 | 51.53638 | 8.04181 | 71° | 82km/h | 14628m | -6.9m/s | -52.2°C | 1.3% | 133.9hPa | 2.5V | 00:00:00 | 00:00:00 | 00:00:00 | |
| GOEST3-10 | 2026-09-01 12:43:20 | 51.53626 | 8.04115 | 77° | 84km/h | 14642m | -7.5m/s | -52.1°C | 3.7% | 133.6hPa | 2.5V | 00:00:00 | 00:00:00 | 00:00:00 | |
| EDDB2-11 | 2026-09-01 12:43:19 | 51.53619 | 8.04047 | 83° | 84km/h | 14657m | -7.4m/s | -52.2°C | 1.2% | 133.3hPa | 2.5V | 00:00:00 | 00:00:00 | 00:00:00 | |
| DL1XH-15 | 2026-09-01 12:43:18 | 51.53621 | 8.03920 | 97° | 71km/h | 14686m | -7.8m/s | -52.1°C | 3.6% | 132.7hPa | 2.5V | 08:11:26 | 02:25:22 | 00:00:00 | |
| DL1XH-west | 2026-09-01 12:43:15 | 51.53618 | 8.03950 | 96° | 77km/h | 14678m | -7.4m/s | -52.1°C | 0.4% | 132.9hPa | 2.5V | 08:11:27 | 02:25:23 | 00:00:00 | |
| BIOWL1-15 | 2026-09-01 12:43:12 | 51.53624 | 8.03779 | 70° | 44km/h | 14738m | -7.5m/s | -51.9°C | 0.3% | 131.7hPa | 2.5V | 08:12:18 | 02:25:15 | 00:00:00 | |
| DM0DOS-11 | 2026-09-01 12:43:10 | 51.53627 | 8.03795 | 77° | 42km/h | 14730m | -7.6m/s | -51.9°C | 3.6% | 131.8hPa | 2.5V | 08:11:32 | 02:25:16 | 00:00:00 | |
| DL1XH1-15 | 2026-09-01 12:43:09 | 51.53629 | 8.03812 | 84° | 42km/h | 14723m | -7.5m/s | -51.9°C | 3.6% | 131.9hPa | 2.5V | 08:11:31 | 02:25:17 | 00:00:00 | |
| DL4BBY-15 | 2026-09-01 12:43:09 | 51.53629 | 8.03812 | 85° | 55km/h | 14723m | -7.4m/s | -54.0°C | 0% | 0hPa | 2.6V | 00:00:00 | 00:00:00 | 00:00:00 | |
| DL1NUX | 2026-09-01 12:43:08 | 51.53607 | 8.03721 | 64° | 62km/h | 14760m | -7.1m/s | -52.1°C | 3.6% | 131.2hPa | 2.6V | 08:11:36 | 02:25:12 | 00:00:00 | |
| DL1XH-west | 2026-09-01 12:43:05 | 51.53614 | 8.03742 | 63° | 57km/h | 14753m | -7m/s | -52°C | 0.3% | 131.3hPa | 2.6V | 08:12:18 | 02:25:13 | 00:00:00 | |
| BIOWL1-15 | 2026-09-01 12:43:03 | 51.53590 | 8.03640 | 79° | 75km/h | 14781m | -6.9m/s | -52.2°C | 0.3% | 130.8hPa | 2.5V | 08:12:18 | 02:25:09 | 00:00:00 | |
| DO1YAY-16 | 2026-09-01 12:43:03 | 51.53594 | 8.03669 | 72° | 71km/h | 14774m | -6.9m/s | -52.2°C | 1.2% | 130.9hPa | 2.5V | 00:00:00 | 00:00:00 | 00:00:00 | |
| DD1CC2-15 | 2026-09-01 12:43:01 | 51.53594 | 8.03669 | 74° | 73km/h | 14774m | -6.9m/s | -52.2°C | 1.3% | 130.9hPa | 2.5V | 08:12:00 | 00:00:00 | 00:00:00 | |
| GOEST3-10 | 2026-09-01 12:43:00 | 51.53587 | 8.03610 | 87° | 68km/h | 14788m | -7.1m/s | -52.2°C | 3.7% | 130.6hPa | 2.5V | 00:00:00 | 00:00:00 | 00:00:00 | |
| DM0DOS-11 | 2026-09-01 12:42:58 | 51.53588 | 8.03551 | 97° | 69km/h | 14802m | -7.1m/s | -52.1°C | 3.7% | 130.3hPa | 2.6V | 08:11:42 | 02:25:06 | 00:00:00 | |
| DL1XH-west | 2026-09-01 12:42:54 | 51.53602 | 8.03460 | 107° | 46km/h | 14831m | -7.2m/s | -51.9°C | 0.4% | 129.7hPa | 2.5V | 08:12:18 | 02:25:02 | 00:00:00 | |
| DM0DOS-11 | 2026-09-01 12:42:53 | 51.53597 | 8.03379 | 56° | 40km/h | 14875m | -7.4m/s | -51.9°C | 3.6% | 128.9hPa | 2.6V | 08:11:52 | 02:24:56 | 00:00:00 | |
| BIOWL1-15 | 2026-09-01 12:42:52 | 51.53605 | 8.03404 | 72° | 31km/h | 14860m | -7.3m/s | -51.8°C | 0.3% | 129.2hPa | 2.5V | 08:12:18 | 02:24:58 | 00:00:00 | |
| DL3AQ-11 | 2026-09-01 12:42:51 | 51.53605 | 8.03404 | 72° | 29km/h | 14860m | -7.3m/s | -51.8°C | 1.2% | 129.2hPa | 2.6V | 00:00:00 | 00:00:00 | 00:00:00 | |
| HTAHTA | 2026-09-01 12:42:50 | 51.53591 | 8.03365 | 53° | 44km/h | 14882m | -7.3m/s | -51.9°C | 1.2% | 128.7hPa | 2.6V | 00:00:00 | 00:00:00 | 00:00:00 | |
| EDDB2-11 | 2026-09-01 12:42:48 | 51.53591 | 8.03365 | 53° | 44km/h | 14882m | -7.3m/s | -51.9°C | 1.2% | 128.7hPa | 2.6V | 00:00:00 | 00:00:00 | 00:00:00 | |
| DL1XH-15 | 2026-09-01 12:42:47 | 51.53551 | 8.03260 | 67° | 73km/h | 14920m | -7.5m/s | -52°C | 3.5% | 128hPa | 2.6V | 08:11:58 | 02:24:50 | 00:00:00 | |
| AA1-15 | 2026-09-01 12:42:44 | 51.53567 | 8.03310 | 59° | 64km/h | 14904m | -7.6m/s | -51.9°C | 0.3% | 128.2hPa | 2.5V | 08:13:09 | 02:24:52 | 00:00:00 | |
| DL1XH-west | 2026-09-01 12:42:43 | 51.53559 | 8.03286 | 63° | 69km/h | 14912m | -7.8m/s | -51.9°C | 0.3% | 128.1hPa | 2.6V | 08:12:18 | 02:24:51 | 00:00:00 | |
| BIOWL1-15 | 2026-09-01 12:42:39 | 51.53537 | 8.03119 | 94° | 62km/h | 14955m | -7m/s | -52°C | 0.4% | 127.3hPa | 2.5V | 08:12:18 | 02:24:45 | 00:00:00 | |
| DL4BBY-15 | 2026-09-01 12:42:39 | 51.53538 | 8.03174 | 85° | 60km/h | 14942m | -7.0m/s | -54.0°C | 0% | 0hPa | 2.5V | 00:00:00 | 00:00:00 | 00:00:00 | |
| DL1XH-15 | 2026-09-01 12:42:37 | 51.53541 | 8.03027 | 79° | 35km/h | 14990m | -7.1m/s | -52.1°C | 3.7% | 126.6hPa | 2.5V | 08:12:08 | 02:24:40 | 00:00:00 | |
| DM0DOS-11 | 2026-09-01 12:42:37 | 51.53539 | 8.03096 | 97° | 55km/h | 14961m | -6.9m/s | -52°C | 3.6% | 127.2hPa | 2.6V | 08:12:04 | 02:24:44 | 00:00:00 | |
| DO2JMG | 2026-09-01 12:42:34 | 51.53542 | 8.03057 | 95° | 42km/h | 14976m | -7.3m/s | -52.1°C | 0.4% | 126.9hPa | 2.6V | 08:12:18 | 02:24:42 | 00:00:00 | |
| AA1-15 | 2026-09-01 12:42:34 | 51.53539 | 8.03013 | 67° | 37km/h | 14997m | -6.8m/s | -52.2°C | 0.4% | 126.5hPa | 2.5V | 08:13:09 | 02:24:39 | 00:00:00 | |
| HSKMA3-T | 2026-09-01 12:42:33 | 51.53542 | 8.03041 | 89° | 37km/h | 14983m | -7.2m/s | -52.1°C | 0.4% | 126.7hPa | 2.5V | 08:12:18 | 02:24:41 | 00:00:00 | |
| DM0DOS-11 | 2026-09-01 12:42:32 | 51.53502 | 8.02925 | 57° | 69km/h | 15031m | -6.9m/s | -52.4°C | 3.6% | 125.8hPa | 2.5V | 08:12:14 | 02:24:34 | 00:00:00 | |
| BIOWL1-15 | 2026-09-01 12:42:29 | 51.53511 | 8.02948 | 55° | 64km/h | 15024m | -6.8m/s | -52.4°C | 0.4% | 125.9hPa | 2.6V | 08:12:18 | 02:24:35 | 00:00:00 | |
| DL1NUX | 2026-09-01 12:42:28 | 51.53476 | 8.02843 | 69° | 80km/h | 15053m | -7.2m/s | -52.5°C | 3.6% | 125.3hPa | 2.6V | 08:12:17 | 02:24:31 | 00:00:00 | |
| SO1NDE-10 | 2026-09-01 12:42:28 | 51.53520 | 8.02967 | 53° | 71km/h | 15017m | -7.0m/s | -52.3°C | 3.6% | 126.0hPa | 2.6V | 00:00:00 | 02:24:36 | 00:00:00 | |
| DD1CC8 | 2026-09-01 12:42:26 | 51.53492 | 8.02900 | 61° | 73km/h | 15038m | -7.1m/s | -52.5°C | 1.2% | 125.6hPa | 2.5V | 00:00:00 | 00:00:00 | 00:00:00 | |
| GOEST3-10 | 2026-09-01 12:42:25 | 51.53492 | 8.02900 | 62° | 78km/h | 15038m | -7.1m/s | -52.4°C | 3.6% | 125.6hPa | 2.5V | 00:00:00 | 02:24:33 | 00:00:00 | |
| DL1XH1-15 | 2026-09-01 12:42:24 | 51.53460 | 8.02715 | 87° | 78km/h | 15081m | -7m/s | -52.5°C | 3.7% | 124.8hPa | 2.5V | 08:12:21 | 02:24:27 | 00:00:00 | |
| DO2JMG | 2026-09-01 12:42:23 | 51.53476 | 8.02843 | 70° | 80km/h | 15053m | -7.2m/s | -52.5°C | 0.3% | 125.3hPa | 2.6V | 08:12:18 | 02:24:31 | 00:00:00 | |
| DL1XH-west | 2026-09-01 12:42:22 | 51.53469 | 8.02811 | 74° | 82km/h | 15060m | -7.1m/s | -52.5°C | 0.3% | 125.2hPa | 2.6V | 08:12:18 | 02:24:30 | 00:00:00 | |
| DL1XH-15 | 2026-09-01 12:42:22 | 51.53469 | 8.02811 | 73° | 82km/h | 15060m | -7.1m/s | -52.5°C | 3.6% | 125.2hPa | 2.6V | 08:12:18 | 02:24:30 | 00:00:00 | |
| EDDB2-12 | 2026-09-01 12:42:21 | 51.53461 | 8.02747 | 82° | 80km/h | 15074m | -7.0m/s | -52.5°C | 1.2% | 124.9hPa | 2.5V | 00:00:00 | 00:00:00 | 00:00:00 | |
| DM0DOS-11 | 2026-09-01 12:42:20 | 51.53462 | 8.02605 | 93° | 57km/h | 15109m | -6.9m/s | -52.6°C | 3.8% | 124.3hPa | 2.5V | 08:12:25 | 02:24:23 | 00:00:00 | |
| GOEST3-10 | 2026-09-01 12:42:20 | 51.53461 | 8.02747 | 83° | 73km/h | 15074m | -7.0m/s | -52.5°C | 3.7% | 124.9hPa | 2.6V | 00:00:00 | 00:00:00 | 00:00:00 | |
| HTAHTA | 2026-09-01 12:42:19 | 51.53459 | 8.02684 | 90° | 73km/h | 15088m | -6.9m/s | -52.5°C | 1.2% | 124.7hPa | 2.6V | 00:00:00 | 00:00:00 | 00:00:00 | |
| DL1NUX | 2026-09-01 12:42:18 | 51.53461 | 8.02564 | 81° | 47km/h | 15123m | -6.7m/s | -52.7°C | 3.9% | 124hPa | 2.6V | 08:12:27 | 02:24:21 | 00:00:00 | |
| BIOWL1-15 | 2026-09-01 12:42:17 | 51.53460 | 8.02655 | 94° | 68km/h | 15095m | -6.9m/s | -52.6°C | 0.4% | 124.5hPa | 2.6V | 08:13:09 | 02:24:25 | 00:00:00 | |
| DL1ZP-14 | 2026-09-01 12:42:16 | 51.53462 | 8.02605 | 93° | 55km/h | 15109m | -6.9m/s | -52.6°C | 1.2% | 124.3hPa | 2.5V | 00:00:00 | 00:00:00 | 00:00:00 | |
| GOEST3-10 | 2026-09-01 12:42:15 | 51.53462 | 8.02605 | 94° | 51km/h | 15109m | -6.8m/s | -52.6°C | 3.8% | 124.2hPa | 2.5V | 00:00:00 | 02:24:23 | 00:00:00 | |
| DL1XH1-15 | 2026-09-01 12:42:14 | 51.53441 | 8.02485 | 62° | 62km/h | 15149m | -6.7m/s | -52.9°C | 3.9% | 123.5hPa | 2.5V | 08:12:31 | 02:24:17 | 00:00:00 | |
| AA1-15 | 2026-09-01 12:42:13 | 51.53461 | 8.02564 | 81° | 47km/h | 15123m | -6.7m/s | -52.7°C | 0.5% | 124hPa | 2.6V | 08:13:09 | 02:24:21 | 00:00:00 | |
| DL1XH-15 | 2026-09-01 12:42:12 | 51.53454 | 8.02527 | 66° | 51km/h | 15136m | -6.7m/s | -52.8°C | 3.9% | 123.8hPa | 2.6V | 08:12:29 | 02:24:19 | 00:00:00 | |
| DL1XH-west | 2026-09-01 12:42:12 | 51.53458 | 8.02546 | 73° | 47km/h | 15129m | -6.4m/s | -52.8°C | 0.5% | 123.9hPa | 2.6V | 08:13:09 | 02:24:20 | 00:00:00 | |
| HSKMA3-T | 2026-09-01 12:42:11 | 51.53454 | 8.02527 | 67° | 51km/h | 15136m | -6.7m/s | -52.8°C | 0.6% | 123.8hPa | 2.6V | 08:13:09 | 02:24:19 | 00:00:00 | |
| DL3AQ-11 | 2026-09-01 12:42:11 | 51.53448 | 8.02507 | 63° | 57km/h | 15142m | -6.6m/s | -52.9°C | 1.3% | 123.7hPa | 2.6V | 00:00:00 | 00:00:00 | 00:00:00 | |
| GOEST3-10 | 2026-09-01 12:42:10 | 51.53448 | 8.02507 | 64° | 68km/h | 15143m | -6.6m/s | -52.8°C | 3.9% | 123.6hPa | 2.6V | 00:00:00 | 00:00:00 | 00:00:00 | |
| DM0DOS-11 | 2026-09-01 12:42:09 | 51.53408 | 8.02380 | 66° | 82km/h | 15177m | -7m/s | -53°C | 4% | 123hPa | 2.6V | 08:12:35 | 02:24:13 | 00:00:00 | |
| DL4BBY-15 | 2026-09-01 12:42:09 | 51.53441 | 8.02485 | 63° | 71km/h | 15149m | -6.7m/s | -55.0°C | 0% | 0hPa | 2.5V | 00:00:00 | 00:00:00 | 00:00:00 | |
| DL1NUX | 2026-09-01 12:42:08 | 51.53394 | 8.02315 | 72° | 88km/h | 15191m | -6.8m/s | -53°C | 4% | 122.7hPa | 2.5V | 08:12:37 | 02:24:11 | 00:00:00 | |
| BIOWL1-15 | 2026-09-01 12:42:06 | 51.53401 | 8.02348 | 70° | 86km/h | 15184m | -7m/s | -53°C | 0.5% | 122.8hPa | 2.6V | 08:13:09 | 02:24:12 | 00:00:00 | |
| DO2JMG | 2026-09-01 12:42:03 | 51.53388 | 8.02280 | 76° | 89km/h | 15198m | -7m/s | -53°C | 0.6% | 122.6hPa | 2.5V | 08:13:09 | 02:24:10 | 00:00:00 | |
| DL1XH-15 | 2026-09-01 12:42:03 | 51.53382 | 8.02244 | 78° | 91km/h | 15205m | -7.1m/s | -52.9°C | 3.9% | 122.4hPa | 2.5V | 08:12:39 | 02:24:09 | 00:00:00 | |
| DL1XH1-15 | 2026-09-01 12:42:02 | 51.53377 | 8.02171 | 86° | 91km/h | 15219m | -7.4m/s | -52.7°C | 3.8% | 122.2hPa | 2.6V | 08:12:41 | 02:24:07 | 00:00:00 | |
| DL1XH-west | 2026-09-01 12:42:02 | 51.53383 | 8.02244 | 79° | 91km/h | 15205m | -7.1m/s | -52.9°C | 0.5% | 122.4hPa | 2.5V | 08:13:09 | 02:24:09 | 00:00:00 | |
| HSKMA3-T | 2026-09-01 12:42:00 | 51.53379 | 8.02208 | 83° | 91km/h | 15212m | -7.4m/s | -52.8°C | 0.5% | 122.3hPa | 2.5V | 08:13:09 | 02:24:08 | 00:00:00 | |
| DL3AQ-11 | 2026-09-01 12:42:00 | 51.53377 | 8.02171 | 86° | 91km/h | 15219m | -7.4m/s | -52.7°C | 1.3% | 122.2hPa | 2.6V | 00:00:00 | 00:00:00 | 00:00:00 | |
| DL1NUX | 2026-09-01 12:41:58 | 51.53386 | 8.01968 | 101° | 71km/h | 15263m | -7.6m/s | -52.3°C | 3.7% | 121.3hPa | 2.6V | 08:12:47 | 02:24:01 | 00:00:00 | |
| BIOWL1-15 | 2026-09-01 12:41:56 | 51.53377 | 8.02063 | 95° | 84km/h | 15241m | -7.3m/s | -52.6°C | 0.5% | 121.8hPa | 2.5V | 08:13:09 | 02:24:04 | 00:00:00 | |
| DD1CC8 | 2026-09-01 12:41:55 | 51.53383 | 8.01998 | 99° | 77km/h | 15256m | -7.4m/s | -52.5°C | 1.2% | 121.5hPa | 2.5V | 00:00:00 | 00:00:00 | 00:00:00 | |
| DL1XH1-15 | 2026-09-01 12:41:54 | 51.53399 | 8.01874 | 97° | 49km/h | 15294m | -7.4m/s | -51.9°C | 3.7% | 120.7hPa | 2.5V | 08:12:51 | 02:23:57 | 00:00:00 | |
| AA1-15 | 2026-09-01 12:41:52 | 51.53390 | 8.01941 | 103° | 66km/h | 15271m | -7.6m/s | -52.1°C | 0.4% | 121.2hPa | 2.6V | 08:13:09 | 02:24:00 | 00:00:00 | |
| DL1XH-15 | 2026-09-01 12:41:52 | 51.53394 | 8.01916 | 103° | 58km/h | 15279m | -7.5m/s | -52°C | 3.7% | 121hPa | 2.5V | 08:12:49 | 02:23:59 | 00:00:00 | |
| DO2JMG | 2026-09-01 12:41:51 | 51.53394 | 8.01916 | 104° | 58km/h | 15279m | -7.5m/s | -52°C | 0.4% | 121hPa | 2.5V | 08:13:09 | 02:23:59 | 00:00:00 | |
| HSKMA3-T | 2026-09-01 12:41:50 | 51.53397 | 8.01894 | 102° | 53km/h | 15286m | -7.5m/s | -51.9°C | 0.4% | 120.9hPa | 2.5V | 08:13:09 | 02:23:58 | 00:00:00 | |
| GOEST3-10 | 2026-09-01 12:41:50 | 51.53397 | 8.01894 | 102° | 47km/h | 15287m | -7.4m/s | -51.9°C | 3.7% | 120.8hPa | 2.5V | 00:00:00 | 00:00:00 | 00:00:00 | |
| DD1CC2-15 | 2026-09-01 12:41:49 | 51.53397 | 8.01894 | 103° | 53km/h | 15287m | -7.5m/s | -51.9°C | 1.3% | 120.9hPa | 2.5V | 08:13:00 | 00:00:00 | 00:00:00 | |
| DO2KSM | 2026-09-01 12:41:48 | 51.53399 | 8.01874 | 99° | 49km/h | 15294m | -7.4m/s | -51.9°C | 1.2% | 120.7hPa | 2.5V | 08:13:00 | 00:00:00 | 00:00:00 | |
| DL1XH-15 | 2026-09-01 12:41:46 | 51.53370 | 8.01703 | 74° | 77km/h | 15351m | -7m/s | -52.2°C | 3.6% | 119.7hPa | 2.5V | 08:12:59 | 02:23:49 | 00:00:00 | |
| EDDB2-11 | 2026-09-01 12:41:46 | 51.53393 | 8.01801 | 68° | 51km/h | 15323m | -6.8m/s | -52.0°C | 1.2% | 120.2hPa | 2.6V | 00:00:00 | 00:00:00 | 00:00:00 | |
| DL1NUX | 2026-09-01 12:41:45 | 51.53382 | 8.01757 | 67° | 66km/h | 15336m | -7m/s | -52.2°C | 3.6% | 120hPa | 2.6V | 08:12:57 | 02:23:51 | 00:00:00 | |
| DL1XH1-15 | 2026-09-01 12:41:44 | 51.53363 | 8.01639 | 85° | 84km/h | 15364m | -6.9m/s | -52.2°C | 3.6% | 119.5hPa | 2.6V | 08:13:01 | 02:23:47 | 00:00:00 | |
| AA1-15 | 2026-09-01 12:41:42 | 51.53375 | 8.01731 | 71° | 71km/h | 15343m | -7.2m/s | -52.2°C | 0.4% | 119.9hPa | 2.5V | 08:13:09 | 02:23:50 | 00:00:00 | |
| DL1XH-west | 2026-09-01 12:41:40 | 51.53365 | 8.01672 | 79° | 80km/h | 15357m | -6.5m/s | -52.2°C | 0.4% | 119.6hPa | 2.5V | 08:13:09 | 02:23:48 | 00:00:00 | |
| HSKMA3-T | 2026-09-01 12:41:39 | 51.53363 | 8.01639 | 85° | 84km/h | 15364m | -6.9m/s | -52.2°C | 0.3% | 119.5hPa | 2.6V | 08:13:09 | 02:23:47 | 00:00:00 | |
| DL4BBY-15 | 2026-09-01 12:41:39 | 51.53363 | 8.01638 | 86° | 62km/h | 15364m | -6.8m/s | -54.2°C | 0% | 0hPa | 2.6V | 00:00:00 | 00:00:00 | 00:00:00 | |
| GOEST3-10 | 2026-09-01 12:41:38 | 51.53362 | 8.01605 | 91° | 78km/h | 15371m | -6.7m/s | -52.1°C | 3.6% | 119.3hPa | 2.6V | 00:00:00 | 00:00:00 | 00:00:00 | |
| DO3DL | 2026-09-01 12:41:37 | 51.53362 | 8.01605 | 92° | 84km/h | 15371m | -6.7m/s | -52.1°C | 1.2% | 119.3hPa | 2.6V | 08:13:00 | 00:00:00 | 00:00:00 | |
| DJ8HS-15 | 2026-09-01 12:41:36 | 51.53366 | 8.01539 | 101° | 62km/h | 15385m | -6.7m/s | -52.0°C | 3.6% | 119.0hPa | 2.6V | 00:00:00 | 02:23:44 | 00:00:00 | |
| DL1NUX | 2026-09-01 12:41:35 | 51.53381 | 8.01456 | 109° | 62km/h | 15405m | -6.8m/s | -52.1°C | 3.7% | 118.7hPa | 2.6V | 08:13:07 | 02:23:41 | 00:00:00 | |
| DL1XH1-15 | 2026-09-01 12:41:34 | 51.53394 | 8.01382 | 91° | 38km/h | 15432m | -7m/s | -52.3°C | 3.8% | 118.2hPa | 2.5V | 08:13:11 | 02:23:37 | 00:00:00 | |
| DD8BA-10 | 2026-09-01 12:41:34 | 51.53375 | 8.01481 | 109° | 49km/h | 15398m | -7.0m/s | -52.1°C | 3.7% | 118.8hPa | 2.6V | 00:00:00 | 00:00:00 | 00:00:00 | |
| GOEST3-10 | 2026-09-01 12:41:33 | 51.53381 | 8.01456 | 110° | 47km/h | 15406m | -6.7m/s | -52.1°C | 3.7% | 118.6hPa | 2.5V | 00:00:00 | 02:23:41 | 00:00:00 | |
| DL1XH-15 | 2026-09-01 12:41:32 | 51.53390 | 8.01415 | 106° | 47km/h | 15418m | -6.4m/s | -52.2°C | 3.8% | 118.4hPa | 2.5V | 08:13:09 | 02:23:39 | 00:00:00 | |
| AA1-15 | 2026-09-01 12:41:31 | 51.53390 | 8.01415 | 107° | 47km/h | 15419m | -6.4m/s | -52.2°C | 0.5% | 118.4hPa | 2.5V | 08:13:09 | 02:23:39 | 00:00:00 | |
| DO2JMG | 2026-09-01 12:41:30 | 51.53393 | 8.01398 | 101° | 40km/h | 15425m | -6.8m/s | -52.3°C | 0.5% | 118.3hPa | 2.5V | 08:14:00 | 02:23:38 | 00:00:00 | |
| HSKMA3-T | 2026-09-01 12:41:29 | 51.53394 | 8.01382 | 92° | 38km/h | 15432m | -7m/s | -52.3°C | 0.5% | 118.2hPa | 2.5V | 08:14:00 | 02:23:37 | 00:00:00 | |
| SO1NDE-10 | 2026-09-01 12:41:29 | 51.53393 | 8.01366 | 83° | 55km/h | 15440m | -7.4m/s | -52.3°C | 3.7% | 118.0hPa | 2.5V | 00:00:00 | 02:23:36 | 00:00:00 | |
| GOEST3-10 | 2026-09-01 12:41:28 | 51.53393 | 8.01366 | 83° | 46km/h | 15440m | -7.4m/s | -52.3°C | 3.7% | 118.0hPa | 2.5V | 00:00:00 | 00:00:00 | 00:00:00 | |
| DL1XH-15 | 2026-09-01 12:41:26 | 51.53363 | 8.01212 | 79° | 75km/h | 15489m | -6.6m/s | -52.5°C | 3.7% | 117.2hPa | 2.6V | 08:13:19 | 02:23:29 | 00:00:00 | |
| DO2KSM | 2026-09-01 12:41:25 | 51.53383 | 8.01313 | 69° | 53km/h | 15462m | -7.2m/s | -52.4°C | 1.2% | 117.7hPa | 2.5V | 08:14:00 | 00:00:00 | 00:00:00 | |
| DL1XH1-15 | 2026-09-01 12:41:24 | 51.53359 | 8.01150 | 89° | 77km/h | 15502m | -6.4m/s | -52.3°C | 3.6% | 117hPa | 2.5V | 08:13:21 | 02:23:27 | 00:00:00 | |
| BIOWL1-15 | 2026-09-01 12:41:24 | 51.53360 | 8.01119 | 95° | 75km/h | 15509m | -6.8m/s | -52.3°C | 0.3% | 116.8hPa | 2.5V | 08:14:00 | 02:23:26 | 00:00:00 | |
| AA1-15 | 2026-09-01 12:41:21 | 51.53363 | 8.01212 | 79° | 75km/h | 15489m | -6.6m/s | -52.5°C | 0.4% | 117.2hPa | 2.6V | 08:14:00 | 02:23:29 | 00:00:00 | |
| DO2JMG | 2026-09-01 12:41:20 | 51.53360 | 8.01181 | 85° | 77km/h | 15496m | -6.8m/s | -52.4°C | 0.4% | 117.1hPa | 2.6V | 08:14:00 | 02:23:28 | 00:00:00 | |
| HSKMA3-T | 2026-09-01 12:41:19 | 51.53359 | 8.01150 | 89° | 77km/h | 15502m | -6.4m/s | -52.3°C | 0.3% | 117hPa | 2.5V | 08:14:00 | 02:23:27 | 00:00:00 | |
| EDDB2-12 | 2026-09-01 12:41:19 | 51.53360 | 8.01119 | 94° | 75km/h | 15509m | -6.8m/s | -52.3°C | 1.2% | 116.8hPa | 2.5V | 00:00:00 | 00:00:00 | 00:00:00 | |
| DL1NUX | 2026-09-01 12:41:18 | 51.53380 | 8.00988 | 110° | 55km/h | 15545m | -7.4m/s | -52.4°C | 3.7% | 116.1hPa | 2.5V | 08:13:27 | 02:23:21 | 00:00:00 | |
| AA1-15 | 2026-09-01 12:41:10 | 51.53392 | 8.00935 | 107° | 38km/h | 15567m | -7.3m/s | -52.4°C | 0.3% | 115.8hPa | 2.5V | 08:14:00 | 02:23:18 | 00:00:00 | |
| DL1XH1-15 | 2026-09-01 12:41:09 | 51.53385 | 8.00857 | 60° | 42km/h | 15611m | -7.3m/s | -52.6°C | 3.7% | 115hPa | 2.5V | 08:13:36 | 02:23:12 | 00:00:00 | |
| DL1XH-west | 2026-09-01 12:41:09 | 51.53394 | 8.00921 | 101° | 33km/h | 15574m | -7.4m/s | -52.4°C | 0.4% | 115.6hPa | 2.5V | 08:14:00 | 02:23:17 | 00:00:00 | |
| DL1NUX | 2026-09-01 12:41:08 | 51.53379 | 8.00842 | 58° | 47km/h | 15618m | -7.2m/s | -52.7°C | 3.7% | 114.8hPa | 2.5V | 08:13:37 | 02:23:11 | 00:00:00 | |
| BIOWL1-15 | 2026-09-01 12:41:07 | 51.53394 | 8.00896 | 82° | 31km/h | 15589m | -7.2m/s | -52.4°C | 0.4% | 115.4hPa | 2.6V | 08:14:00 | 02:23:15 | 00:00:00 | |
| DO3DL | 2026-09-01 12:41:05 | 51.53392 | 8.00884 | 73° | 33km/h | 15596m | -7.2m/s | -52.4°C | 1.2% | 115.3hPa | 2.5V | 08:14:00 | 00:00:00 | 00:00:00 | |
| DL1XH-15 | 2026-09-01 12:41:04 | 51.53352 | 8.00758 | 68° | 68km/h | 15647m | -7.1m/s | -52.9°C | 3.7% | 114.3hPa | 2.5V | 08:13:41 | 02:23:07 | 00:00:00 | |
| DO2JMG | 2026-09-01 12:41:00 | 51.53359 | 8.00782 | 65° | 64km/h | 15640m | -7.2m/s | -52.9°C | 0.3% | 114.5hPa | 2.6V | 08:14:00 | 02:23:08 | 00:00:00 | |
| AA1-15 | 2026-09-01 12:40:59 | 51.53352 | 8.00758 | 68° | 68km/h | 15647m | -7.1m/s | -52.9°C | 0.3% | 114.3hPa | 2.5V | 08:14:00 | 02:23:07 | 00:00:00 | |
| DL1XH1-15 | 2026-09-01 12:40:58 | 51.53341 | 8.00703 | 76° | 75km/h | 15661m | -7.2m/s | -52.9°C | 3.7% | 114hPa | 2.5V | 08:13:43 | 02:23:05 | 00:00:00 | |
| DL1XH-west | 2026-09-01 12:40:58 | 51.53346 | 8.00731 | 72° | 71km/h | 15654m | -7.1m/s | -52.9°C | 0.3% | 114.2hPa | 2.5V | 08:14:00 | 02:23:06 | 00:00:00 | |
| BIOWL1-15 | 2026-09-01 12:40:56 | 51.53337 | 8.00672 | 81° | 77km/h | 15669m | -7.5m/s | -52.8°C | 0.2% | 114hPa | 2.5V | 08:14:00 | 02:23:04 | 00:00:00 | |
| DL1NUX | 2026-09-01 12:40:56 | 51.53339 | 8.00524 | 101° | 66km/h | 15705m | -7.1m/s | -52.6°C | 3.7% | 113.3hPa | 2.5V | 08:13:49 | 02:22:59 | 00:00:00 | |
| DJ8HS-15 | 2026-09-01 12:40:56 | 51.53337 | 8.00672 | 81° | 58km/h | 15669m | -7.5m/s | -52.8°C | 3.6% | 113.9hPa | 2.5V | 00:00:00 | 02:23:04 | 00:00:00 | |
| DD8BA-10 | 2026-09-01 12:40:54 | 51.53333 | 8.00611 | 89° | 57km/h | 15683m | -7.2m/s | -52.7°C | 3.7% | 113.6hPa | 2.5V | 00:00:00 | 00:00:00 | 00:00:00 | |
| GOEST3-10 | 2026-09-01 12:40:53 | 51.53334 | 8.00580 | 94° | 66km/h | 15690m | -7.4m/s | -52.6°C | 3.7% | 113.5hPa | 2.5V | 00:00:00 | 02:23:01 | 00:00:00 | |
| DL1XH-15 | 2026-09-01 12:40:52 | 51.53346 | 8.00477 | 106° | 55km/h | 15719m | -7.1m/s | -52.6°C | 3.7% | 113.1hPa | 2.5V | 08:13:51 | 02:22:57 | 00:00:00 | |
| DL3AQ-11 | 2026-09-01 12:40:51 | 51.53342 | 8.00499 | 104° | 60km/h | 15712m | -6.8m/s | -52.6°C | 1.1% | 113.2hPa | 2.6V | 00:00:00 | 00:00:00 | 00:00:00 | |
| DL1XH1-15 | 2026-09-01 12:40:50 | 51.53352 | 8.00438 | 103° | 44km/h | 15733m | -7.3m/s | -52.6°C | 3.7% | 112.8hPa | 2.6V | 08:13:53 | 02:22:55 | 00:00:00 | |
| DO2JMG | 2026-09-01 12:40:49 | 51.53346 | 8.00477 | 107° | 55km/h | 15719m | -7.1m/s | -52.6°C | 0.3% | 113.1hPa | 2.5V | 08:14:00 | 02:22:57 | 00:00:00 | |
| GOEST3-10 | 2026-09-01 12:40:48 | 51.53349 | 8.00456 | 106° | 42km/h | 15726m | -7.2m/s | -52.5°C | 3.7% | 112.9hPa | 2.6V | 00:00:00 | 00:00:00 | 00:00:00 | |
| DL1XH-west | 2026-09-01 12:40:48 | 51.53349 | 8.00456 | 106° | 49km/h | 15726m | -7.3m/s | -52.6°C | 0.3% | 112.9hPa | 2.6V | 08:14:00 | 02:22:56 | 00:00:00 | |
| DD1CC9-15 | 2026-09-01 12:40:47 | 51.53349 | 8.00456 | 107° | 49km/h | 15726m | -7.3m/s | -52.6°C | 1.2% | 112.9hPa | 2.6V | 00:00:00 | 00:00:00 | 00:00:00 | |
| DL1NUX | 2026-09-01 12:40:46 | 51.53343 | 8.00344 | 62° | 51km/h | 15777m | -7.4m/s | -52.4°C | 3.6% | 112hPa | 2.6V | 08:13:59 | 02:22:49 | 00:00:00 | |
| BIOWL1-15 | 2026-09-01 12:40:45 | 51.53355 | 8.00406 | 91° | 37km/h | 15748m | -7.4m/s | -52.5°C | 0.3% | 112.6hPa | 2.5V | 08:14:00 | 02:22:53 | 00:00:00 | |
| DJ2DS-15 | 2026-09-01 12:40:44 | 51.53352 | 8.00377 | 71° | 38km/h | 15763m | -7.1m/s | -52.4°C | 1.1% | 112.3hPa | 2.5V | 00:00:00 | 00:00:00 | 00:00:00 | |
| GOEST3-10 | 2026-09-01 12:40:43 | 51.53352 | 8.00377 | 72° | 51km/h | 15763m | -7.1m/s | -52.3°C | 3.6% | 112.3hPa | 2.5V | 00:00:00 | 02:22:51 | 00:00:00 | |
| DL1XH-15 | 2026-09-01 12:40:42 | 51.53329 | 8.00303 | 63° | 64km/h | 15792m | -7m/s | -52.5°C | 3.6% | 111.8hPa | 2.5V | 08:14:01 | 02:22:47 | 00:00:00 | |
| DO2JMG | 2026-09-01 12:40:39 | 51.53329 | 8.00302 | 64° | 64km/h | 15792m | -7m/s | -52.6°C | 0.2% | 111.8hPa | 2.5V | 08:14:51 | 02:22:47 | 00:00:00 | |
| DL4BBY-15 | 2026-09-01 12:40:39 | 51.53329 | 8.00302 | 64° | 68km/h | 15792m | -7.0m/s | -54.6°C | 0% | 0hPa | 2.6V | 00:00:00 | 00:00:00 | 00:00:00 | |
| DL1XH1-15 | 2026-09-01 12:40:38 | 51.53315 | 8.00251 | 69° | 75km/h | 15806m | -7.2m/s | -52.6°C | 3.6% | 111.5hPa | 2.6V | 08:14:03 | 02:22:45 | 00:00:00 | |
| AA1-15 | 2026-09-01 12:40:38 | 51.53322 | 8.00278 | 66° | 69km/h | 15799m | -7.2m/s | -52.6°C | 0.2% | 111.7hPa | 2.5V | 08:15:42 | 02:22:46 | 00:00:00 | |
| HSKMA3-T | 2026-09-01 12:40:37 | 51.53315 | 8.00251 | 70° | 75km/h | 15806m | -7.2m/s | -52.6°C | 0.2% | 111.5hPa | 2.6V | 08:14:51 | 02:22:45 | 00:00:00 | |
| DM0DOS-11 | 2026-09-01 12:40:36 | 51.53304 | 8.00191 | 77° | 80km/h | 15820m | -7.2m/s | -52.6°C | 3.6% | 111.3hPa | 2.6V | 08:14:05 | 02:22:43 | 00:00:00 | |
| BIOWL1-15 | 2026-09-01 12:40:35 | 51.53300 | 8.00158 | 82° | 82km/h | 15828m | -7.4m/s | -52.6°C | 0.2% | 111.2hPa | 2.5V | 08:14:51 | 02:22:42 | 00:00:00 | |
| DD8BA-10 | 2026-09-01 12:40:34 | 51.53300 | 8.00158 | 82° | 73km/h | 15828m | -7.4m/s | -52.6°C | 3.6% | 111.2hPa | 2.5V | 08:14:00 | 00:00:00 | 00:00:00 | |
| DL1XH-15 | 2026-09-01 12:40:33 | 51.53303 | 7.99995 | 99° | 75km/h | 15866m | -7.7m/s | -52.6°C | 3.6% | 110.6hPa | 2.6V | 08:14:11 | 02:22:37 | 00:00:00 | |
| DL1XH1-15 | 2026-09-01 12:40:33 | 51.53310 | 7.99940 | 104° | 64km/h | 15880m | -7.2m/s | -52.6°C | 3.6% | 110.3hPa | 2.5V | 08:14:13 | 02:22:35 | 00:00:00 | |
| DO2JMG | 2026-09-01 12:40:29 | 51.53303 | 7.99995 | 100° | 75km/h | 15866m | -7.7m/s | -52.6°C | 0.2% | 110.6hPa | 2.6V | 08:14:51 | 02:22:37 | 00:00:00 | |
| DL1XH-west | 2026-09-01 12:40:27 | 51.53310 | 7.99940 | 105° | 64km/h | 15880m | -7.2m/s | -52.6°C | 0.2% | 110.3hPa | 2.5V | 08:14:51 | 02:22:35 | 00:00:00 | |
| HSKMA3-T | 2026-09-01 12:40:26 | 51.53314 | 7.99916 | 106° | 57km/h | 15888m | -6.8m/s | -52.6°C | 0.2% | 110.1hPa | 2.5V | 08:14:51 | 02:22:34 | 00:00:00 | |
| DM0DOS-11 | 2026-09-01 12:40:26 | 51.53318 | 7.99895 | 105° | 49km/h | 15894m | -6.9m/s | -52.6°C | 3.7% | 110hPa | 2.5V | 08:14:15 | 02:22:33 | 00:00:00 | |
| AM1SDL-15 | 2026-09-01 12:40:26 | 51.53314 | 7.99916 | 107° | 66km/h | 15888m | -6.8m/s | -52.5°C | 3.7% | 110.1hPa | 2.6V | 00:00:00 | 02:22:34 | 00:00:00 | |
| DL3AQ-11 | 2026-09-01 12:40:24 | 51.53322 | 7.99861 | 92° | 38km/h | 15909m | -7.6m/s | -52.6°C | 1.1% | 109.8hPa | 2.6V | 00:00:00 | 00:00:00 | 00:00:00 | |
| GOEST3-10 | 2026-09-01 12:40:23 | 51.53322 | 7.99860 | 93° | 44km/h | 15909m | -7.5m/s | -52.6°C | 3.7% | 109.7hPa | 2.6V | 00:00:00 | 02:22:31 | 00:00:00 | |
| DL1XH1-15 | 2026-09-01 12:40:22 | 51.53300 | 7.99747 | 71° | 68km/h | 15953m | -7.3m/s | -52.6°C | 3.7% | 109.1hPa | 2.6V | 08:14:23 | 02:22:25 | 00:00:00 | |
| DD1CC1-15 | 2026-09-01 12:40:21 | 51.53321 | 7.99845 | 84° | 38km/h | 15917m | -7.5m/s | -52.6°C | 1.1% | 109.7hPa | 2.5V | 08:14:00 | 00:00:00 | 00:00:00 | |
| DM0DOS-11 | 2026-09-01 12:40:20 | 51.53292 | 7.99690 | 81° | 75km/h | 15968m | -7m/s | -52.6°C | 3.6% | 108.8hPa | 2.5V | 08:14:25 | 02:22:23 | 00:00:00 | |
| DO2JMG | 2026-09-01 12:40:18 | 51.53306 | 7.99771 | 68° | 62km/h | 15946m | -7.1m/s | -52.6°C | 0.3% | 109.2hPa | 2.5V | 08:14:51 | 02:22:26 | 00:00:00 | |
| DL1XH-west | 2026-09-01 12:40:17 | 51.53300 | 7.99747 | 72° | 68km/h | 15954m | -7.3m/s | -52.7°C | 0.3% | 109.1hPa | 2.6V | 08:14:51 | 02:22:25 | 00:00:00 | |
| HSKMA3-T | 2026-09-01 12:40:15 | 51.53292 | 7.99690 | 82° | 77km/h | 15968m | -7m/s | -52.6°C | 0.2% | 108.8hPa | 2.5V | 08:14:51 | 02:22:23 | 00:00:00 | |
| BIOWL1-15 | 2026-09-01 12:40:14 | 51.53290 | 7.99659 | 87° | 77km/h | 15975m | -7m/s | -52.6°C | 0.2% | 108.7hPa | 2.5V | 08:14:51 | 02:22:22 | 00:00:00 | |
| DD8BA-10 | 2026-09-01 12:40:14 | 51.53290 | 7.99659 | 87° | 69km/h | 15975m | -7.0m/s | -52.5°C | 3.6% | 108.7hPa | 2.5V | 00:00:00 | 00:00:00 | 00:00:00 | |
| GOEST3-10 | 2026-09-01 12:40:13 | 51.53289 | 7.99628 | 92° | 75km/h | 15982m | -7.1m/s | -52.4°C | 3.6% | 108.6hPa | 2.5V | 08:14:00 | 02:22:21 | 00:00:00 | |
| DL1XH-15 | 2026-09-01 12:40:12 | 51.53292 | 7.99567 | 99° | 75km/h | 15996m | -7.2m/s | -52.4°C | 3.5% | 108.3hPa | 2.6V | 08:14:29 | 02:22:19 | 00:00:00 | |
| DL1XH1-15 | 2026-09-01 12:40:12 | 51.53312 | 7.99456 | 112° | 66km/h | 16026m | -7.4m/s | -52.2°C | 3.5% | 107.8hPa | 2.5V | 08:14:33 | 02:22:15 | 00:00:00 | |
| BUE01 | 2026-09-01 12:40:12 | 51.53290 | 7.99597 | 95° | 75km/h | 15989m | -7.1m/s | -52.5°C | 1.0% | 108.5hPa | 2.6V | 00:00:00 | 00:00:00 | 00:00:00 | |
| DB0NH | 2026-09-01 12:40:11 | 51.53292 | 7.99567 | 100° | 58km/h | 15996m | -7.1m/s | -52.3°C | 3.5% | 108.3hPa | 2.6V | 00:00:00 | 02:22:19 | 00:00:00 | |
| DM0DOS-11 | 2026-09-01 12:40:10 | 51.53325 | 7.99411 | 117° | 57km/h | 16041m | -7.4m/s | -52.1°C | 3.5% | 107.6hPa | 2.6V | 08:14:35 | 02:22:13 | 00:00:00 | |
| DO2JMG | 2026-09-01 12:40:08 | 51.53306 | 7.99481 | 109° | 69km/h | 16018m | -7.8m/s | -52.3°C | 0.1% | 108hPa | 2.5V | 08:14:51 | 02:22:16 | 00:00:00 | |
| DL1XH-west | 2026-09-01 12:40:07 | 51.53312 | 7.99456 | 112° | 66km/h | 16026m | -7.4m/s | -52.2°C | 0.1% | 107.8hPa | 2.5V | 08:14:51 | 02:22:15 | 00:00:00 | |
| AA1-15 | 2026-09-01 12:40:05 | 51.53325 | 7.99411 | 118° | 57km/h | 16041m | -7.4m/s | -52.1°C | 0.1% | 107.6hPa | 2.6V | 08:15:42 | 02:22:13 | 00:00:00 | |
| BIOWL1-15 | 2026-09-01 12:40:05 | 51.53338 | 7.99375 | 121° | 47km/h | 16056m | -7.5m/s | -52°C | 0.1% | 107.3hPa | 2.6V | 08:14:51 | 02:22:11 | 00:00:00 | |
| HSKMA3-T | 2026-09-01 12:40:04 | 51.53331 | 7.99392 | 120° | 51km/h | 16049m | -7.7m/s | -52°C | 0.1% | 107.4hPa | 2.6V | 08:14:51 | 02:22:12 | 00:00:00 | |
| DJ2KF-10 | 2026-09-01 12:40:04 | 51.53331 | 7.99392 | 121° | 51km/h | 16049m | -7.7m/s | -52.0°C | 3.5% | 107.4hPa | 2.5V | 00:00:00 | 02:22:12 | 00:00:00 | |
| DL1XH-15 | 2026-09-01 12:40:02 | 51.53348 | 7.99346 | 118° | 37km/h | 16071m | -7.7m/s | -52°C | 3.6% | 107hPa | 2.5V | 08:14:39 | 02:22:09 | 00:00:00 | |
| GOEST3-10 | 2026-09-01 12:40:02 | 51.53343 | 7.99360 | 121° | 33km/h | 16064m | -7.6m/s | -51.9°C | 3.5% | 107.1hPa | 2.5V | 00:00:00 | 02:22:10 | 00:00:00 | |
| DO2KSM | 2026-09-01 12:40:01 | 51.53343 | 7.99360 | 122° | 42km/h | 16064m | -7.6m/s | -52.0°C | 1.0% | 107.2hPa | 2.5V | 08:14:00 | 00:00:00 | 00:00:00 | |
| DM0DOS-11 | 2026-09-01 12:40:00 | 51.53350 | 7.99271 | 70° | 42km/h | 16116m | -7.2m/s | -51.8°C | 3.5% | 106.3hPa | 2.5V | 08:14:45 | 02:22:03 | 00:00:00 | |
| DL1XH1-15 | 2026-09-01 12:40:00 | 51.53355 | 7.99299 | 81° | 31km/h | 16102m | -7.3m/s | -51.9°C | 3.5% | 106.5hPa | 2.5V | 08:14:43 | 02:22:05 | 00:00:00 | |
| DL3AQ-11 | 2026-09-01 12:40:00 | 51.53354 | 7.99322 | 104° | 27km/h | 16087m | -7.5m/s | -52.0°C | 1.0% | 106.8hPa | 2.6V | 00:00:00 | 00:00:00 | 00:00:00 | |
| DL1NUX | 2026-09-01 12:39:59 | 51.53346 | 7.99254 | 69° | 47km/h | 16124m | -7.3m/s | -51.8°C | 3.5% | 106.2hPa | 2.6V | 08:14:46 | 02:22:02 | 00:00:00 | |
| DO2JMG | 2026-09-01 12:39:58 | 51.53355 | 7.99311 | 93° | 27km/h | 16094m | -7.6m/s | -51.9°C | 0.1% | 106.7hPa | 2.6V | 08:14:51 | 02:22:06 | 00:00:00 | |
| DL1XH-west | 2026-09-01 12:39:57 | 51.53355 | 7.99299 | 82° | 31km/h | 16102m | -7.3m/s | -51.9°C | 0.1% | 106.6hPa | 2.5V | 08:14:51 | 02:22:05 | 00:00:00 | |
| BIOWL1-15 | 2026-09-01 12:39:55 | 51.53342 | 7.99235 | 70° | 53km/h | 16131m | -7.6m/s | -51.9°C | 0.1% | 106.1hPa | 2.6V | 08:14:51 | 02:22:01 | 00:00:00 | |
| HSKMA3-T | 2026-09-01 12:39:54 | 51.53346 | 7.99254 | 69° | 47km/h | 16124m | -7.3m/s | -51.9°C | 0.1% | 106.2hPa | 2.6V | 08:14:51 | 02:22:02 | 00:00:00 | |
| DL1XH-15 | 2026-09-01 12:39:52 | 51.53332 | 7.99190 | 73° | 62km/h | 16147m | -8m/s | -51.9°C | 3.5% | 105.8hPa | 2.5V | 08:14:49 | 02:21:59 | 00:00:00 | |
| GOEST3-10 | 2026-09-01 12:39:52 | 51.53337 | 7.99213 | 72° | 66km/h | 16139m | -7.8m/s | -51.8°C | 3.5% | 105.9hPa | 2.6V | 00:00:00 | 02:22:00 | 00:00:00 | |
| BIOWL7-15 | 2026-09-01 12:39:51 | 51.53337 | 7.99213 | 73° | 58km/h | 16139m | -7.8m/s | -51.9°C | 1.0% | 106.0hPa | 2.6V | 08:14:00 | 00:00:00 | 00:00:00 | |
| DM0DOS-11 | 2026-09-01 12:39:50 | 51.53319 | 7.99021 | 94° | 73km/h | 16195m | -7.5m/s | -51.6°C | 3.5% | 105hPa | 2.6V | 08:14:55 | 02:21:53 | 00:00:00 | |
| DL1XH1-15 | 2026-09-01 12:39:50 | 51.53319 | 7.99081 | 86° | 73km/h | 16179m | -8.1m/s | -51.5°C | 3.5% | 105.2hPa | 2.6V | 08:14:53 | 02:21:55 | 00:00:00 | |
| DL1XH-west | 2026-09-01 12:39:47 | 51.53319 | 7.99081 | 86° | 73km/h | 16179m | -8.1m/s | -51.5°C | 0.1% | 105.2hPa | 2.6V | 08:15:42 | 02:21:55 | 00:00:00 | |
| EDDB2-12 | 2026-09-01 12:39:46 | 51.53319 | 7.99021 | 94° | 73km/h | 16195m | -7.5m/s | -51.6°C | 1.0% | 105.0hPa | 2.5V | 00:00:00 | 00:00:00 | 00:00:00 | |
| AA1-15 | 2026-09-01 12:39:43 | 51.53325 | 7.98963 | 103° | 69km/h | 16210m | -7.3m/s | -51.6°C | 0.1% | 104.8hPa | 2.5V | 08:15:42 | 02:21:51 | 00:00:00 | |
| BIOWL1-15 | 2026-09-01 12:39:42 | 51.53329 | 7.98937 | 108° | 64km/h | 16217m | -7.7m/s | -51.6°C | 0.1% | 104.7hPa | 2.5V | 08:15:42 | 02:21:50 | 00:00:00 | |
| GOEST3-10 | 2026-09-01 12:39:42 | 51.53329 | 7.98937 | 108° | 55km/h | 16217m | -7.6m/s | -51.6°C | 3.5% | 104.7hPa | 2.5V | 00:00:00 | 02:21:50 | 00:00:00 | |
| DB0NH | 2026-09-01 12:39:41 | 51.53334 | 7.98913 | 111° | 44km/h | 16225m | -7.6m/s | -51.6°C | 3.4% | 104.5hPa | 2.6V | 00:00:00 | 02:21:49 | 00:00:00 | |
| DM0DOS-11 | 2026-09-01 12:39:40 | 51.53357 | 7.98813 | 102° | 33km/h | 16273m | -8.1m/s | -51.2°C | 3.4% | 103.8hPa | 2.6V | 08:15:05 | 02:21:43 | 00:00:00 | |
| DO2JMG | 2026-09-01 12:39:37 | 51.53352 | 7.98840 | 110° | 38km/h | 16257m | -7.9m/s | -51.4°C | 0.1% | 104hPa | 2.5V | 08:15:42 | 02:21:45 | 00:00:00 | |
| DL1XH-west | 2026-09-01 12:39:36 | 51.53355 | 7.98826 | 107° | 35km/h | 16265m | -8.5m/s | -51.3°C | 0% | 103.9hPa | 2.6V | 08:15:42 | 02:21:44 | 00:00:00 | |
| DJ8HS-15 | 2026-09-01 12:39:36 | 51.53355 | 7.98826 | 107° | 47km/h | 16265m | -8.5m/s | -51.3°C | 3.4% | 103.9hPa | 2.5V | 00:00:00 | 02:21:44 | 00:00:00 | |
| DL1NUX | 2026-09-01 12:39:35 | 51.53357 | 7.98788 | 80° | 31km/h | 16289m | -8.3m/s | -51°C | 3.4% | 103.5hPa | 2.5V | 08:15:07 | 02:21:41 | 00:00:00 | |
| BIOWL1-15 | 2026-09-01 12:39:32 | 51.53355 | 7.98776 | 71° | 33km/h | 16297m | -7.9m/s | -50.8°C | 0% | 103.4hPa | 2.5V | 08:15:42 | 02:21:40 | 00:00:00 | |
| DJ2DS-15 | 2026-09-01 12:39:32 | 51.53352 | 7.98763 | 64° | 35km/h | 16305m | -7.8m/s | -50.7°C | 0.9% | 103.2hPa | 2.5V | 00:00:00 | 00:00:00 | 00:00:00 | |
| DL3AQ-11 | 2026-09-01 12:39:31 | 51.53348 | 7.98749 | 61° | 40km/h | 16313m | -7.6m/s | -50.7°C | 0.9% | 103.1hPa | 2.5V | 00:00:00 | 00:00:00 | 00:00:00 | |
| DM0DOS-11 | 2026-09-01 12:39:30 | 51.53320 | 7.98647 | 75° | 64km/h | 16353m | -8.4m/s | -50.7°C | 3.2% | 102.5hPa | 2.5V | 08:15:15 | 02:21:33 | 00:00:00 | |
| AA1-15 | 2026-09-01 12:39:28 | 51.53336 | 7.98715 | 64° | 53km/h | 16329m | -8m/s | -50.6°C | 0% | 102.9hPa | 2.6V | 08:15:42 | 02:21:36 | 00:00:00 | |
| DO2JMG | 2026-09-01 12:39:26 | 51.53325 | 7.98672 | 71° | 62km/h | 16345m | -8.4m/s | -50.7°C | 0% | 102.6hPa | 2.5V | 08:15:42 | 02:21:34 | 00:00:00 | |
| DL1XH-15 | 2026-09-01 12:39:26 | 51.53316 | 7.98546 | 99° | 58km/h | 16386m | -7.7m/s | -50.8°C | 3.1% | 102hPa | 2.5V | 08:15:19 | 02:21:29 | 00:00:00 | |
| DL1XH-west | 2026-09-01 12:39:25 | 51.53320 | 7.98647 | 76° | 64km/h | 16353m | -8.4m/s | -50.7°C | 0% | 102.5hPa | 2.5V | 08:15:42 | 02:21:33 | 00:00:00 | |
| BIOWL1-15 | 2026-09-01 12:39:22 | 51.53315 | 7.98571 | 93° | 62km/h | 16378m | -7.8m/s | -50.8°C | 0% | 102.2hPa | 2.6V | 08:15:42 | 02:21:30 | 00:00:00 | |
| HSKMA3-T | 2026-09-01 12:39:21 | 51.53317 | 7.98546 | 99° | 58km/h | 16386m | -7.7m/s | -50.8°C | 0% | 102hPa | 2.5V | 08:15:42 | 02:21:29 | 00:00:00 | |
| DL1XH1-15 | 2026-09-01 12:39:20 | 51.53332 | 7.98472 | 116° | 37km/h | 16417m | -8.1m/s | -51°C | 3.2% | 101.6hPa | 2.6V | 08:15:23 | 02:21:25 | 00:00:00 | |
| DL3AQ-11 | 2026-09-01 12:39:20 | 51.53323 | 7.98504 | 110° | 47km/h | 16401m | -7.8m/s | -50.9°C | 0.9% | 101.8hPa | 2.5V | 00:00:00 | 00:00:00 | 00:00:00 | |
| DL1NUX | 2026-09-01 12:39:19 | 51.53341 | 7.98436 | 89° | 13km/h | 16449m | -8.1m/s | -51°C | 3.3% | 101hPa | 2.5V | 08:15:27 | 02:21:21 | 00:00:00 | |
| AA1-15 | 2026-09-01 12:39:18 | 51.53328 | 7.98487 | 114° | 42km/h | 16409m | -8m/s | -50.9°C | 0% | 101.7hPa | 2.6V | 08:15:42 | 02:21:26 | 00:00:00 | |
| GOEST3-10 | 2026-09-01 12:39:17 | 51.53332 | 7.98472 | 117° | 24km/h | 16417m | -8.0m/s | -50.9°C | 3.2% | 101.5hPa | 2.5V | 00:00:00 | 00:00:00 | 00:00:00 | |
| DM0DOS-11 | 2026-09-01 12:39:16 | 51.53339 | 7.98450 | 115° | 24km/h | 16433m | -7.9m/s | -50.9°C | 3.3% | 101.3hPa | 2.5V | 08:15:25 | 02:21:23 | 00:00:00 | |
| DO2JMG | 2026-09-01 12:39:15 | 51.53339 | 7.98450 | 115° | 24km/h | 16433m | -7.9m/s | -50.9°C | 0% | 101.3hPa | 2.5V | 08:15:42 | 02:21:23 | 00:00:00 | |
| DL1XH-west | 2026-09-01 12:39:14 | 51.53341 | 7.98443 | 108° | 18km/h | 16441m | -8m/s | -50.9°C | 0% | 101.1hPa | 2.5V | 08:15:42 | 02:21:22 | 00:00:00 | |
| BIOWL1-15 | 2026-09-01 12:39:13 | 51.53339 | 7.98427 | 45° | 16km/h | 16465m | -7.7m/s | -51°C | 0% | 100.8hPa | 2.6V | 08:15:42 | 02:21:19 | 00:00:00 | |
| DL1XH-15 | 2026-09-01 12:39:11 | 51.53339 | 7.98427 | 44° | 15km/h | 16465m | -7.7m/s | -51°C | 3.3% | 100.8hPa | 2.6V | 08:15:29 | 02:21:19 | 00:00:00 | |
| HSKMA3-T | 2026-09-01 12:39:10 | 51.53335 | 7.98422 | 33° | 22km/h | 16473m | -7.9m/s | -51°C | 0% | 100.6hPa | 2.6V | 08:15:42 | 02:21:18 | 00:00:00 | |
| DM0DOS-11 | 2026-09-01 12:39:10 | 51.53298 | 7.98374 | 49° | 51km/h | 16512m | -7.5m/s | -51.4°C | 3.3% | 100hPa | 2.6V | 08:15:35 | 02:21:13 | 00:00:00 | |
| BUE01 | 2026-09-01 12:39:10 | 51.53329 | 7.98417 | 31° | 27km/h | 16481m | -7.8m/s | -51.0°C | 0.9% | 100.5hPa | 2.5V | 00:00:00 | 00:00:00 | 00:00:00 | |
| DL4BBY-15 | 2026-09-01 12:39:09 | 51.53330 | 7.98416 | 32° | 44km/h | 16481m | -7.7m/s | -53.1°C | 0% | 0hPa | 2.5V | 00:00:00 | 00:00:00 | 00:00:00 | |
| DL1XH1-15 | 2026-09-01 12:39:08 | 51.53315 | 7.98400 | 38° | 40km/h | 16497m | -7.7m/s | -51.2°C | 3.3% | 100.2hPa | 2.5V | 08:15:33 | 02:21:15 | 00:00:00 | |
| AA1-15 | 2026-09-01 12:39:07 | 51.53315 | 7.98400 | 39° | 40km/h | 16497m | -7.7m/s | -51.2°C | 0% | 100.2hPa | 2.5V | 08:15:42 | 02:21:15 | 00:00:00 | |
| S3001 | 2026-09-01 12:39:06 | 51.53307 | 7.98389 | 43° | 46km/h | 16504m | -7.4m/s | -51.4°C | 0.9% | 100.2hPa | 2.5V | 00:00:00 | 00:00:00 | 00:00:00 | |
| DL1NUX | 2026-09-01 12:39:05 | 51.53283 | 7.98338 | 61° | 57km/h | 16527m | -7.8m/s | -51.5°C | 3.3% | 99.8hPa | 2.5V | 08:15:37 | 02:21:11 | 00:00:00 | |
| DL1XH-west | 2026-09-01 12:39:04 | 51.53290 | 7.98357 | 56° | 55km/h | 16520m | -7.8m/s | -51.5°C | 0% | 99.9hPa | 2.6V | 08:15:42 | 02:21:12 | 00:00:00 | |
| DO9LL-15 | 2026-09-01 12:39:04 | 51.53290 | 7.98357 | 56° | 42km/h | 16520m | -7.8m/s | -51.4°C | 3.3% | 99.9hPa | 2.6V | 00:00:00 | 02:21:12 | 00:00:00 | |
| DD1CC3-15 | 2026-09-01 12:39:03 | 51.53290 | 7.98357 | 56° | 55km/h | 16520m | -7.8m/s | -51.5°C | 0.9% | 99.9hPa | 2.5V | 08:15:00 | 00:00:00 | 00:00:00 | |
| DL1XH1-15 | 2026-09-01 12:39:02 | 51.53266 | 7.98183 | 100° | 46km/h | 16583m | -7.8m/s | -51.5°C | 3.3% | 98.9hPa | 2.5V | 08:15:44 | 02:21:04 | 00:00:00 | |
| HSKMA3-T | 2026-09-01 12:39:00 | 51.53264 | 7.98225 | 88° | 57km/h | 16567m | -7.6m/s | -51.4°C | 0% | 99.2hPa | 2.6V | 08:15:42 | 02:21:06 | 00:00:00 | |
| DM0DOS-11 | 2026-09-01 12:38:58 | 51.53268 | 7.98166 | 104° | 40km/h | 16590m | -7.4m/s | -51.5°C | 3.4% | 98.8hPa | 2.5V | 08:15:45 | 02:21:03 | 00:00:00 | |
| DO3DL | 2026-09-01 12:38:58 | 51.53264 | 7.98225 | 89° | 57km/h | 16567m | -7.6m/s | -51.4°C | 0.9% | 99.2hPa | 2.6V | 08:15:00 | 00:00:00 | 00:00:00 | |
| DL1NUX | 2026-09-01 12:38:57 | 51.53274 | 7.98134 | 97° | 16km/h | 16613m | -7.7m/s | -51.5°C | 3.4% | 98.5hPa | 2.6V | 08:15:48 | 02:21:00 | 00:00:00 | |
| AA1-15 | 2026-09-01 12:38:57 | 51.53266 | 7.98183 | 100° | 46km/h | 16583m | -7.8m/s | -51.5°C | 0% | 98.9hPa | 2.5V | 08:16:33 | 02:21:04 | 00:00:00 | |
| DJ2DS-15 | 2026-09-01 12:38:55 | 51.53268 | 7.98166 | 104° | 38km/h | 16590m | -7.4m/s | -51.5°C | 0.9% | 98.8hPa | 2.5V | 00:00:00 | 00:00:00 | 00:00:00 | |
| DD8BA-10 | 2026-09-01 12:38:54 | 51.53271 | 7.98153 | 108° | 27km/h | 16598m | -7.3m/s | -51.4°C | 3.4% | 98.6hPa | 2.5V | 00:00:00 | 00:00:00 | 00:00:00 | |
| DL1CLM-18 | 2026-09-01 12:38:53 | 51.53271 | 7.98153 | 109° | 31km/h | 16598m | -7.3m/s | -51.4°C | 0.9% | 98.7hPa | 2.5V | 00:00:00 | 00:00:00 | 00:00:00 | |
| DO2JMG | 2026-09-01 12:38:53 | 51.53273 | 7.98142 | 107° | 24km/h | 16605m | -7.5m/s | -51.4°C | 0% | 98.6hPa | 2.6V | 08:16:33 | 02:21:01 | 00:00:00 | |
| GOEST3-10 | 2026-09-01 12:38:52 | 51.53274 | 7.98134 | 98° | 20km/h | 16613m | -7.7m/s | -51.4°C | 3.4% | 98.4hPa | 2.5V | 00:00:00 | 02:21:00 | 00:00:00 | |
| DL1XH1-15 | 2026-09-01 12:38:51 | 51.53239 | 7.98086 | 38° | 49km/h | 16668m | -7.4m/s | -51.7°C | 3.4% | 97.6hPa | 2.5V | 08:15:55 | 02:20:53 | 00:00:00 | |
| BIOWL1-15 | 2026-09-01 12:38:50 | 51.53239 | 7.98086 | 39° | 49km/h | 16668m | -7.4m/s | -51.8°C | 0% | 97.7hPa | 2.5V | 08:16:33 | 02:20:53 | 00:00:00 | |
| HSKMA3-T | 2026-09-01 12:38:48 | 51.53263 | 7.98112 | 31° | 29km/h | 16645m | -7.9m/s | -51.6°C | 0% | 98hPa | 2.5V | 08:16:33 | 02:20:56 | 00:00:00 | |
| DM0DOS-11 | 2026-09-01 12:38:48 | 51.53239 | 7.98086 | 38° | 49km/h | 16668m | -7.4m/s | -51.7°C | 3.4% | 97.6hPa | 2.5V | 08:15:55 | 02:20:53 | 00:00:00 | |
| DL1NUX | 2026-09-01 12:38:47 | 51.53209 | 7.98037 | 53° | 62km/h | 16690m | -7.7m/s | -51.5°C | 3.3% | 97.3hPa | 2.6V | 08:15:58 | 02:20:50 | 00:00:00 | |
| AA1-15 | 2026-09-01 12:38:46 | 51.53248 | 7.98097 | 35° | 42km/h | 16660m | -7.3m/s | -51.7°C | 0.1% | 97.8hPa | 2.6V | 08:16:33 | 02:20:54 | 00:00:00 | |
| DL8DAS-14 | 2026-09-01 12:38:46 | 51.53239 | 7.98086 | 38° | 47km/h | 16668m | -7.4m/s | -51.8°C | 0.9% | 97.7hPa | 2.5V | 00:00:00 | 00:00:00 | 00:00:00 | |
| DO2JMG | 2026-09-01 12:38:43 | 51.53219 | 7.98056 | 48° | 58km/h | 16683m | -7.5m/s | -51.6°C | 0% | 97.5hPa | 2.5V | 08:16:33 | 02:20:51 | 00:00:00 | |
| DL1XH-west | 2026-09-01 12:38:42 | 51.53209 | 7.98037 | 53° | 62km/h | 16690m | -7.7m/s | -51.6°C | 0% | 97.3hPa | 2.6V | 08:16:33 | 02:20:50 | 00:00:00 | |
| GOEST3-10 | 2026-09-01 12:38:42 | 51.53209 | 7.98036 | 54° | 62km/h | 16691m | -7.6m/s | -51.5°C | 3.3% | 97.3hPa | 2.6V | 08:15:00 | 02:20:50 | 00:00:00 | |
| DB0NH | 2026-09-01 12:38:41 | 51.53201 | 7.98016 | 59° | 47km/h | 16698m | -7.9m/s | -51.5°C | 3.3% | 97.1hPa | 2.5V | 00:00:00 | 02:20:49 | 00:00:00 | |
| DL3AQ-11 | 2026-09-01 12:38:40 | 51.53187 | 7.97969 | 70° | 62km/h | 16714m | -7.9m/s | -51.6°C | 0.9% | 97.0hPa | 2.5V | 00:00:00 | 00:00:00 | 00:00:00 | |
| DL1XH-15 | 2026-09-01 12:38:39 | 51.53178 | 7.97897 | 87° | 57km/h | 16737m | -7.6m/s | -51.7°C | 3.3% | 96.6hPa | 2.5V | 08:16:04 | 02:20:44 | 00:00:00 | |
| BIOWL1-15 | 2026-09-01 12:38:38 | 51.53182 | 7.97945 | 76° | 62km/h | 16722m | -7.7m/s | -51.7°C | 0% | 96.8hPa | 2.5V | 08:16:33 | 02:20:46 | 00:00:00 | |
| DL1NUX | 2026-09-01 12:38:37 | 51.53185 | 7.97822 | 106° | 37km/h | 16768m | -8.2m/s | -51.8°C | 3.5% | 96.1hPa | 2.5V | 08:16:08 | 02:20:40 | 00:00:00 | |
| GOEST3-10 | 2026-09-01 12:38:37 | 51.53179 | 7.97921 | 82° | 51km/h | 16730m | -7.7m/s | -51.6°C | 3.3% | 96.7hPa | 2.6V | 00:00:00 | 00:00:00 | 00:00:00 | |
| DM0DOS-11 | 2026-09-01 12:38:36 | 51.53178 | 7.97875 | 94° | 53km/h | 16744m | -7.6m/s | -51.7°C | 3.3% | 96.5hPa | 2.6V | 08:16:05 | 02:20:43 | 00:00:00 | |
| AA1-15 | 2026-09-01 12:38:35 | 51.53178 | 7.97875 | 95° | 53km/h | 16744m | -7.6m/s | -51.8°C | 0% | 96.5hPa | 2.6V | 08:16:33 | 02:20:43 | 00:00:00 | |
| DO2JMG | 2026-09-01 12:38:32 | 51.53185 | 7.97822 | 106° | 37km/h | 16768m | -8.3m/s | -51.8°C | 0% | 96.1hPa | 2.5V | 08:16:33 | 02:20:40 | 00:00:00 | |
| DL1XH-west | 2026-09-01 12:38:32 | 51.53187 | 7.97809 | 107° | 31km/h | 16777m | -8.3m/s | -51.9°C | 0% | 96hPa | 2.5V | 08:16:33 | 02:20:39 | 00:00:00 | |
| DL1XH-15 | 2026-09-01 12:38:31 | 51.53183 | 7.97770 | 42° | 26km/h | 16816m | -7.8m/s | -52.1°C | 3.6% | 95.4hPa | 2.5V | 08:16:14 | 02:20:34 | 00:00:00 | |
| DL1XH1-15 | 2026-09-01 12:38:30 | 51.53177 | 7.97761 | 42° | 35km/h | 16824m | -7.8m/s | -52.2°C | 3.6% | 95.3hPa | 2.5V | 08:16:15 | 02:20:33 | 00:00:00 | |
| HSKMA3-T | 2026-09-01 12:38:28 | 51.53187 | 7.97776 | 50° | 20km/h | 16809m | -7.9m/s | -52°C | 0.1% | 95.5hPa | 2.5V | 08:16:33 | 02:20:35 | 00:00:00 | |
| DL1NUX | 2026-09-01 12:38:27 | 51.53155 | 7.97720 | 57° | 55km/h | 16847m | -8.1m/s | -52.3°C | 3.6% | 95hPa | 2.6V | 08:16:18 | 02:20:30 | 00:00:00 | |
| AA1-15 | 2026-09-01 12:38:25 | 51.53170 | 7.97751 | 46° | 42km/h | 16832m | -7.8m/s | -52.3°C | 0.1% | 95.2hPa | 2.6V | 08:16:33 | 02:20:32 | 00:00:00 | |
| DO2JMG | 2026-09-01 12:38:22 | 51.53155 | 7.97720 | 58° | 55km/h | 16847m | -8.1m/s | -52.3°C | 0.2% | 95hPa | 2.6V | 08:16:33 | 02:20:30 | 00:00:00 | |
| DL1XH-west | 2026-09-01 12:38:21 | 51.53137 | 7.97548 | 101° | 64km/h | 16905m | -8.3m/s | -51.7°C | 0.1% | 94.2hPa | 2.6V | 08:16:33 | 02:20:23 | 00:00:00 | |
| DO2KSM | 2026-09-01 12:38:21 | 51.53148 | 7.97700 | 65° | 58km/h | 16856m | -8.3m/s | -52.3°C | 1.0% | 94.9hPa | 2.6V | 08:16:00 | 00:00:00 | 00:00:00 | |
| DL1XH-15 | 2026-09-01 12:38:20 | 51.53135 | 7.97574 | 95° | 66km/h | 16896m | -8.2m/s | -51.8°C | 3.5% | 94.3hPa | 2.6V | 08:16:24 | 02:20:24 | 00:00:00 | |
| DJ2DS-15 | 2026-09-01 12:38:19 | 51.53138 | 7.97652 | 77° | 64km/h | 16872m | -8.2m/s | -52.1°C | 1.0% | 94.6hPa | 2.6V | 00:00:00 | 00:00:00 | 00:00:00 | |
| DM0DOS-11 | 2026-09-01 12:38:18 | 51.53137 | 7.97548 | 101° | 62km/h | 16905m | -8.3m/s | -51.7°C | 3.5% | 94.2hPa | 2.6V | 08:16:25 | 02:20:23 | 00:00:00 | |
| HSKMA3-T | 2026-09-01 12:38:17 | 51.53134 | 7.97600 | 89° | 66km/h | 16888m | -8.2m/s | -52°C | 0% | 94.4hPa | 2.6V | 08:16:33 | 02:20:25 | 00:00:00 | |
| AA1-15 | 2026-09-01 12:38:13 | 51.53146 | 7.97502 | 112° | 57km/h | 16921m | -8.2m/s | -51.4°C | 0% | 93.9hPa | 2.5V | 08:16:33 | 02:20:21 | 00:00:00 | |
| DO2JMG | 2026-09-01 12:38:11 | 51.53158 | 7.97464 | 121° | 47km/h | 16937m | -7.9m/s | -51.3°C | 0% | 93.7hPa | 2.6V | 08:16:33 | 02:20:19 | 00:00:00 | |
| DL3AQ-11 | 2026-09-01 12:38:11 | 51.53164 | 7.97449 | 125° | 40km/h | 16945m | -7.8m/s | -51.2°C | 0.9% | 93.5hPa | 2.6V | 00:00:00 | 00:00:00 | 00:00:00 | |
| DL1XH-15 | 2026-09-01 12:38:10 | 51.53180 | 7.97412 | 106° | 16km/h | 16978m | -8.2m/s | -50.9°C | 3.3% | 93.1hPa | 2.6V | 08:16:34 | 02:20:14 | 00:00:00 | |
| DL1XH-west | 2026-09-01 12:38:08 | 51.53174 | 7.97427 | 126° | 27km/h | 16961m | -8.4m/s | -51°C | 0% | 93.3hPa | 2.5V | 08:16:33 | 02:20:16 | 00:00:00 | |
| HSKMA3-T | 2026-09-01 12:38:07 | 51.53178 | 7.97419 | 121° | 22km/h | 16970m | -8.3m/s | -50.9°C | 0% | 93.2hPa | 2.5V | 08:16:33 | 02:20:15 | 00:00:00 | |
| DL1NUX | 2026-09-01 12:38:07 | 51.53170 | 7.97383 | 47° | 33km/h | 17011m | -8m/s | -50.9°C | 3.3% | 92.6hPa | 2.5V | 08:16:38 | 02:20:10 | 00:00:00 | |
| GOEST3-10 | 2026-09-01 12:38:07 | 51.53177 | 7.97419 | 121° | 20km/h | 16970m | -8.3m/s | -50.9°C | 3.3% | 93.2hPa | 2.6V | 00:00:00 | 00:00:00 | 00:00:00 | |
| DM0DOS-11 | 2026-09-01 12:38:06 | 51.53180 | 7.97406 | 80° | 15km/h | 16986m | -8.4m/s | -50.9°C | 3.3% | 93hPa | 2.6V | 08:16:35 | 02:20:13 | 00:00:00 | |
| AA1-15 | 2026-09-01 12:38:03 | 51.53170 | 7.97383 | 47° | 33km/h | 17011m | -8m/s | -50.9°C | 0% | 92.6hPa | 2.5V | 08:17:24 | 02:20:10 | 00:00:00 | |
| DO2JMG | 2026-09-01 12:38:01 | 51.53164 | 7.97372 | 50° | 40km/h | 17019m | -8.1m/s | -51°C | 0% | 92.5hPa | 2.5V | 08:17:24 | 02:20:09 | 00:00:00 | |
| DL1XH-15 | 2026-09-01 12:38:00 | 51.53136 | 7.97274 | 81° | 60km/h | 17059m | -7.9m/s | -50.9°C | 3.2% | 91.9hPa | 2.5V | 08:16:44 | 02:20:04 | 00:00:00 | |
| DL1XH1-15 | 2026-09-01 12:38:00 | 51.53135 | 7.97250 | 89° | 60km/h | 17067m | -8.2m/s | -50.9°C | 3.2% | 91.8hPa | 2.6V | 08:16:45 | 02:20:03 | 00:00:00 | |
| DL1XH-west | 2026-09-01 12:37:58 | 51.53144 | 7.97320 | 67° | 58km/h | 17044m | -8m/s | -51°C | 0% | 92.1hPa | 2.5V | 08:17:24 | 02:20:06 | 00:00:00 | |
| HSKMA3-T | 2026-09-01 12:37:56 | 51.53136 | 7.97274 | 82° | 60km/h | 17059m | -7.9m/s | -50.9°C | 0% | 92hPa | 2.5V | 08:17:24 | 02:20:04 | 00:00:00 | |
| AA1-15 | 2026-09-01 12:37:51 | 51.53147 | 7.97170 | 120° | 40km/h | 17099m | -8.1m/s | -50.9°C | 0% | 91.4hPa | 2.5V | 08:17:24 | 02:19:59 | 00:00:00 | |
| BIOWL1-15 | 2026-09-01 12:37:48 | 51.53161 | 7.97140 | 137° | 20km/h | 17124m | -8.6m/s | -50.9°C | 0% | 91hPa | 2.6V | 08:17:24 | 02:19:56 | 00:00:00 | |
| DO2JMG | 2026-09-01 12:37:47 | 51.53164 | 7.97136 | 137° | 13km/h | 17133m | -8.5m/s | -50.8°C | 0% | 90.9hPa | 2.6V | 08:17:24 | 02:19:55 | 00:00:00 | |
| HSKMA3-T | 2026-09-01 12:37:45 | 51.53166 | 7.97131 | 36° | 7km/h | 17149m | -8.1m/s | -50.9°C | 0% | 90.7hPa | 2.5V | 08:17:24 | 02:19:53 | 00:00:00 | |
| DL3AQ-11 | 2026-09-01 12:37:44 | 51.53159 | 7.97127 | 21° | 22km/h | 17165m | -7.6m/s | -51.1°C | 0.9% | 90.5hPa | 2.6V | 00:00:00 | 00:00:00 | 00:00:00 | |
| DJ2DS-15 | 2026-09-01 12:37:43 | 51.53159 | 7.97127 | 21° | 22km/h | 17165m | -7.6m/s | -51.1°C | 0.9% | 90.5hPa | 2.6V | 00:00:00 | 00:00:00 | 00:00:00 | |
| DL1NUX | 2026-09-01 12:37:42 | 51.53146 | 7.97115 | 32° | 37km/h | 17181m | -8.2m/s | -51.2°C | 3.3% | 90.2hPa | 2.6V | 08:16:59 | 02:19:49 | 00:00:00 | |
| AA1-15 | 2026-09-01 12:37:41 | 51.53146 | 7.97115 | 33° | 37km/h | 17181m | -8.2m/s | -51.2°C | 0% | 90.3hPa | 2.6V | 08:17:24 | 02:19:49 | 00:00:00 | |
| DL1XH-15 | 2026-09-01 12:37:41 | 51.53130 | 7.97095 | 44° | 44km/h | 17198m | -8.2m/s | -51.1°C | 3.3% | 90hPa | 2.5V | 08:17:01 | 02:19:47 | 00:00:00 | |
| BIOWL1-15 | 2026-09-01 12:37:38 | 51.53122 | 7.97081 | 52° | 47km/h | 17206m | -8.3m/s | -51.1°C | 0% | 89.9hPa | 2.5V | 08:17:24 | 02:19:46 | 00:00:00 | |
| DO2JMG | 2026-09-01 12:37:37 | 51.53115 | 7.97065 | 59° | 51km/h | 17214m | -8.4m/s | -51°C | 0% | 89.8hPa | 2.6V | 08:17:24 | 02:19:45 | 00:00:00 | |
| BUE01 | 2026-09-01 12:37:37 | 51.53109 | 7.97046 | 65° | 53km/h | 17223m | -8.3m/s | -50.9°C | 0.8% | 89.6hPa | 2.6V | 00:00:00 | 00:00:00 | 00:00:00 | |
| DL1NUX | 2026-09-01 12:37:36 | 51.53101 | 7.96939 | 99° | 51km/h | 17265m | -8.3m/s | -50.8°C | 3.3% | 89.1hPa | 2.6V | 08:17:09 | 02:19:39 | 00:00:00 | |
| DM0DOS-11 | 2026-09-01 12:37:36 | 51.53104 | 7.97026 | 72° | 55km/h | 17231m | -8.3m/s | -50.8°C | 3.2% | 89.5hPa | 2.6V | 08:17:05 | 02:19:43 | 00:00:00 | |
| HSKMA3-T | 2026-09-01 12:37:35 | 51.53104 | 7.97026 | 73° | 55km/h | 17231m | -8.3m/s | -50.8°C | 0% | 89.5hPa | 2.6V | 08:17:24 | 02:19:43 | 00:00:00 | |
| AA1-15 | 2026-09-01 12:37:30 | 51.53107 | 7.96903 | 111° | 40km/h | 17281m | -7.9m/s | -50.9°C | 0% | 88.9hPa | 2.5V | 08:17:24 | 02:19:37 | 00:00:00 | |
| DL1XH-15 | 2026-09-01 12:37:30 | 51.53107 | 7.96903 | 111° | 40km/h | 17281m | -7.8m/s | -50.9°C | 3.3% | 88.9hPa | 2.5V | 08:17:11 | 02:19:37 | 00:00:00 | |
| DL1XH1-15 | 2026-09-01 12:37:30 | 51.53118 | 7.96861 | 102° | 16km/h | 17314m | -8.2m/s | -51°C | 3.3% | 88.4hPa | 2.6V | 08:17:15 | 02:19:33 | 00:00:00 | |
| BIOWL1-15 | 2026-09-01 12:37:27 | 51.53114 | 7.96878 | 116° | 27km/h | 17297m | -8.1m/s | -51°C | 0% | 88.7hPa | 2.5V | 08:17:24 | 02:19:35 | 00:00:00 | |
| DO3MHA-11 | 2026-09-01 12:37:27 | 51.53114 | 7.96878 | 117° | 27km/h | 17298m | -8.1m/s | -50.9°C | 3.3% | 88.6hPa | 2.5V | 00:00:00 | 02:19:35 | 00:00:00 | |
| DL1NUX | 2026-09-01 12:37:26 | 51.53110 | 7.96838 | 37° | 24km/h | 17347m | -8.2m/s | -50.9°C | 3.3% | 88hPa | 2.5V | 08:17:19 | 02:19:29 | 00:00:00 | |
| HSKMA3-T | 2026-09-01 12:37:24 | 51.53118 | 7.96855 | 82° | 15km/h | 17322m | -8.3m/s | -51°C | 0% | 88.3hPa | 2.6V | 08:17:24 | 02:19:32 | 00:00:00 | |
| DO2JMG | 2026-09-01 12:37:21 | 51.53110 | 7.96838 | 38° | 24km/h | 17347m | -8.2m/s | -50.9°C | 0% | 88hPa | 2.5V | 08:17:24 | 02:19:29 | 00:00:00 | |
| AA1-15 | 2026-09-01 12:37:19 | 51.53091 | 7.96817 | 33° | 38km/h | 17372m | -8.6m/s | -50.9°C | 0% | 87.7hPa | 2.6V | 08:17:24 | 02:19:26 | 00:00:00 | |
| BIOWL1-15 | 2026-09-01 12:37:17 | 51.53083 | 7.96808 | 35° | 42km/h | 17381m | -8.9m/s | -50.9°C | 0% | 87.5hPa | 2.6V | 08:17:24 | 02:19:25 | 00:00:00 | |
| DL1XH-west | 2026-09-01 12:37:16 | 51.53074 | 7.96797 | 38° | 47km/h | 17390m | -9.2m/s | -50.9°C | 0% | 87.4hPa | 2.5V | 08:17:24 | 02:19:24 | 00:00:00 | |
| DL1XH1-15 | 2026-09-01 12:37:15 | 51.53064 | 7.96784 | 41° | 51km/h | 17400m | -9.1m/s | -50.9°C | 3.3% | 87.3hPa | 2.5V | 08:17:25 | 02:19:23 | 00:00:00 | |
| DJ8HS-15 | 2026-09-01 12:37:15 | 51.53064 | 7.96784 | 42° | 51km/h | 17400m | -9.1m/s | -50.8°C | 3.3% | 87.2hPa | 2.5V | 00:00:00 | 02:19:23 | 00:00:00 | |
| DL1NUX | 2026-09-01 12:37:14 | 51.53026 | 7.96709 | 59° | 68km/h | 17435m | -8.8m/s | -50.9°C | 3.3% | 86.7hPa | 2.5V | 08:17:29 | 02:19:19 | 00:00:00 | |
| HSKMA3-T | 2026-09-01 12:37:14 | 51.53054 | 7.96769 | 46° | 57km/h | 17408m | -8.6m/s | -50.9°C | 0% | 87.1hPa | 2.5V | 08:18:15 | 02:19:22 | 00:00:00 | |
| DO2JMG | 2026-09-01 12:37:11 | 51.53026 | 7.96709 | 60° | 68km/h | 17435m | -8.8m/s | -50.9°C | 0% | 86.8hPa | 2.5V | 08:18:15 | 02:19:19 | 00:00:00 | |
| AA1-15 | 2026-09-01 12:37:08 | 51.53006 | 7.96632 | 74° | 69km/h | 17460m | -8.1m/s | -50.9°C | 0% | 86.4hPa | 2.6V | 08:18:15 | 02:19:16 | 00:00:00 | |
| DM0DOS-11 | 2026-09-01 12:37:08 | 51.52999 | 7.96554 | 89° | 62km/h | 17486m | -8.9m/s | -51°C | 3.3% | 86.1hPa | 2.5V | 08:17:35 | 02:19:13 | 00:00:00 | |
| BIOWL1-15 | 2026-09-01 12:37:07 | 51.53002 | 7.96606 | 80° | 68km/h | 17469m | -8.4m/s | -50.9°C | 0% | 86.3hPa | 2.6V | 08:18:15 | 02:19:15 | 00:00:00 | |
| DL1XH-west | 2026-09-01 12:37:06 | 51.53000 | 7.96579 | 85° | 64km/h | 17477m | -8.8m/s | -51°C | 0% | 86.2hPa | 2.6V | 08:18:15 | 02:19:14 | 00:00:00 | |
| HSKMA3-T | 2026-09-01 12:37:03 | 51.53001 | 7.96508 | 98° | 51km/h | 17504m | -8.9m/s | -51.1°C | 0% | 85.8hPa | 2.5V | 08:18:15 | 02:19:11 | 00:00:00 | |
| DO2JMG | 2026-09-01 12:37:00 | 51.53007 | 7.96457 | 104° | 33km/h | 17530m | -8.8m/s | -50.9°C | 0% | 85.5hPa | 2.5V | 08:18:15 | 02:19:08 | 00:00:00 | |
| DL1XH-15 | 2026-09-01 12:36:58 | 51.52990 | 7.96395 | 39° | 40km/h | 17592m | -9.2m/s | -49.8°C | 3.1% | 84.7hPa | 2.5V | 08:17:47 | 02:19:01 | 00:00:00 | |
| AA1-15 | 2026-09-01 12:36:58 | 51.53009 | 7.96427 | 76° | 20km/h | 17557m | -8.7m/s | -50.4°C | 0% | 85.2hPa | 2.6V | 08:18:15 | 02:19:05 | 00:00:00 | |
| GOEST3-10 | 2026-09-01 12:36:57 | 51.53009 | 7.96427 | 76° | 29km/h | 17557m | -8.6m/s | -50.3°C | 3.3% | 85.1hPa | 2.6V | 00:00:00 | 00:00:00 | 00:00:00 | |
| DM0DOS-11 | 2026-09-01 12:36:56 | 51.53003 | 7.96412 | 43° | 27km/h | 17574m | -8.7m/s | -50°C | 3.2% | 85hPa | 2.6V | 08:17:45 | 02:19:03 | 00:00:00 | |
| DL1XH-west | 2026-09-01 12:36:56 | 51.53007 | 7.96420 | 56° | 22km/h | 17565m | -8.6m/s | -50.2°C | 0% | 85hPa | 2.6V | 08:18:15 | 02:19:04 | 00:00:00 | |
| HSKMA3-T | 2026-09-01 12:36:52 | 51.52982 | 7.96383 | 43° | 46km/h | 17601m | -9m/s | -49.8°C | 0% | 84.6hPa | 2.5V | 08:18:15 | 02:19:00 | 00:00:00 | |
| DO2JMG | 2026-09-01 12:36:50 | 51.52965 | 7.96351 | 55° | 58km/h | 17619m | -8.7m/s | -49.9°C | 0% | 84.4hPa | 2.6V | 08:18:15 | 02:18:58 | 00:00:00 | |
| DO1YAY-16 | 2026-09-01 12:36:50 | 51.52965 | 7.96351 | 55° | 57km/h | 17619m | -8.7m/s | -49.9°C | 0.8% | 84.4hPa | 2.5V | 00:00:00 | 00:00:00 | 00:00:00 | |
| DL1XH-15 | 2026-09-01 12:36:48 | 51.52946 | 7.96174 | 104° | 64km/h | 17679m | -9.2m/s | -49.8°C | 3% | 83.6hPa | 2.5V | 08:17:57 | 02:18:51 | 00:00:00 | |
| AA1-15 | 2026-09-01 12:36:47 | 51.52945 | 7.96281 | 77° | 68km/h | 17644m | -8.4m/s | -49.9°C | 0% | 84hPa | 2.5V | 08:18:15 | 02:18:55 | 00:00:00 | |
| BIOWL1-15 | 2026-09-01 12:36:46 | 51.52942 | 7.96254 | 85° | 68km/h | 17653m | -8.9m/s | -49.8°C | 0% | 83.9hPa | 2.6V | 08:18:15 | 02:18:54 | 00:00:00 | |
| DL1XH-west | 2026-09-01 12:36:45 | 51.52942 | 7.96227 | 91° | 68km/h | 17661m | -8.6m/s | -49.8°C | 0% | 83.8hPa | 2.6V | 08:18:15 | 02:18:53 | 00:00:00 | |
| DD1CC8 | 2026-09-01 12:36:44 | 51.52943 | 7.96200 | 97° | 66km/h | 17670m | -8.8m/s | -49.8°C | 0.8% | 83.7hPa | 2.5V | 00:00:00 | 00:00:00 | 00:00:00 | |
| HSKMA3-T | 2026-09-01 12:36:41 | 51.52957 | 7.96128 | 116° | 58km/h | 17698m | -9.1m/s | -49.8°C | 0% | 83.3hPa | 2.5V | 08:18:15 | 02:18:49 | 00:00:00 | |
| DL1NUX | 2026-09-01 12:36:41 | 51.52956 | 7.96128 | 115° | 58km/h | 17698m | -9.1m/s | -49.8°C | 3.1% | 83.3hPa | 2.5V | 08:17:59 | 02:18:49 | 00:00:00 | |
| DO2JMG | 2026-09-01 12:36:40 | 51.52963 | 7.96108 | 121° | 53km/h | 17707m | -8.9m/s | -49.8°C | 0% | 83.2hPa | 2.5V | 08:18:15 | 02:18:48 | 00:00:00 | |
| DO3MHA-12 | 2026-09-01 12:36:39 | 51.52970 | 7.96091 | 128° | 24km/h | 17716m | -8.8m/s | -49.7°C | 3.1% | 83.0hPa | 2.6V | 00:00:00 | 02:18:47 | 00:00:00 | |
| DL1XH-15 | 2026-09-01 12:36:38 | 51.52998 | 7.96047 | 97° | 7km/h | 17770m | -8.9m/s | -49.6°C | 3.1% | 82.4hPa | 2.6V | 08:18:07 | 02:18:41 | 00:00:00 | |
| AA1-15 | 2026-09-01 12:36:37 | 51.52990 | 7.96060 | 142° | 26km/h | 17742m | -9.1m/s | -49.8°C | 0% | 82.7hPa | 2.5V | 08:18:15 | 02:18:44 | 00:00:00 | |
| GOEST3-10 | 2026-09-01 12:36:37 | 51.52984 | 7.96067 | 139° | 20km/h | 17734m | -8.7m/s | -49.8°C | 3.1% | 82.8hPa | 2.5V | 00:00:00 | 00:00:00 | 00:00:00 | |
| DL1NUX | 2026-09-01 12:36:36 | 51.52995 | 7.96040 | 43° | 18km/h | 17788m | -8.9m/s | -49.6°C | 3.1% | 82.2hPa | 2.5V | 08:18:09 | 02:18:39 | 00:00:00 | |
| DL1XH-west | 2026-09-01 12:36:35 | 51.52994 | 7.96054 | 142° | 18km/h | 17752m | -9.3m/s | -49.7°C | 0% | 82.6hPa | 2.5V | 08:18:15 | 02:18:43 | 00:00:00 | |
| HSKMA3-T | 2026-09-01 12:36:30 | 51.52991 | 7.96034 | 44° | 26km/h | 17797m | -8.7m/s | -49.7°C | 0% | 82.1hPa | 2.5V | 08:18:15 | 02:18:38 | 00:00:00 | |
| DO2JMG | 2026-09-01 12:36:30 | 51.52986 | 7.96025 | 48° | 33km/h | 17806m | -8.6m/s | -49.7°C | 0% | 82hPa | 2.5V | 08:18:15 | 02:18:37 | 00:00:00 | |
| DL1XH-15 | 2026-09-01 12:36:28 | 51.52961 | 7.95919 | 89° | 53km/h | 17857m | -8.6m/s | -49.7°C | 3% | 81.3hPa | 2.5V | 08:30:00 | 02:18:31 | 00:00:00 | |
| DL1XH-west | 2026-09-01 12:36:25 | 51.52961 | 7.95919 | 90° | 53km/h | 17857m | -8.6m/s | -49.7°C | 0% | 81.3hPa | 2.5V | 08:19:06 | 02:18:31 | 00:00:00 | |
| DO3DL | 2026-09-01 12:36:25 | 51.52965 | 7.95961 | 76° | 53km/h | 17840m | -8.5m/s | -49.8°C | 0.8% | 81.6hPa | 2.6V | 08:18:00 | 00:00:00 | 00:00:00 | |
| DL1NUX | 2026-09-01 12:36:24 | 51.52964 | 7.95878 | 104° | 47km/h | 17875m | -8.3m/s | -49.8°C | 3.1% | 81.1hPa | 2.6V | 08:18:19 | 02:18:29 | 00:00:00 | |
| DO2JMG | 2026-09-01 12:36:20 | 51.52971 | 7.95847 | 118° | 35km/h | 17891m | -8.5m/s | -49.8°C | 0% | 81hPa | 2.5V | 08:19:57 | 02:18:27 | 00:00:00 | |
| WEDDY | 2026-09-01 12:36:20 | 51.52967 | 7.95861 | 112° | 42km/h | 17883m | -8.4m/s | -49.8°C | 0.8% | 81.0hPa | 2.6V | 08:19:00 | 00:00:00 | 00:00:00 | |
| DO1YAY-16 | 2026-09-01 12:36:19 | 51.52971 | 7.95847 | 118° | 35km/h | 17891m | -8.5m/s | -49.8°C | 0.8% | 81.0hPa | 2.6V | 00:00:00 | 00:00:00 | 00:00:00 | |
| DO3MHA-11 | 2026-09-01 12:36:18 | 51.52976 | 7.95836 | 126° | 18km/h | 17900m | -8.2m/s | -49.7°C | 3.1% | 80.8hPa | 2.6V | 00:00:00 | 02:18:26 | 00:00:00 | |
| DD1CC2-15 | 2026-09-01 12:36:17 | 51.52980 | 7.95827 | 130° | 22km/h | 17909m | -8.4m/s | -49.8°C | 0.8% | 80.7hPa | 2.6V | 08:19:00 | 00:00:00 | 00:00:00 | |
| DL1NUX | 2026-09-01 12:36:16 | 51.52981 | 7.95807 | 23° | 16km/h | 17961m | -8.6m/s | -50°C | 3.1% | 80.1hPa | 2.6V | 08:18:29 | 02:18:19 | 00:00:00 | |
| AA1-15 | 2026-09-01 12:36:13 | 51.52986 | 7.95812 | 55° | 5km/h | 17943m | -8.7m/s | -49.9°C | 0% | 80.3hPa | 2.5V | 08:19:06 | 02:18:21 | 00:00:00 | |
| BIOWL1-15 | 2026-09-01 12:36:12 | 51.52976 | 7.95803 | 25° | 24km/h | 17969m | -8.7m/s | -50°C | 0% | 80hPa | 2.6V | 08:19:06 | 02:18:18 | 00:00:00 | |
| DL1XH-west | 2026-09-01 12:36:12 | 51.52984 | 7.95809 | 29° | 11km/h | 17952m | -8.9m/s | -50°C | 0% | 80.2hPa | 2.5V | 08:19:06 | 02:18:20 | 00:00:00 | |
| HSKMA3-T | 2026-09-01 12:36:09 | 51.52970 | 7.95798 | 29° | 29km/h | 17978m | -8.8m/s | -50°C | 0% | 79.8hPa | 2.5V | 08:19:06 | 02:18:17 | 00:00:00 | |
| DO2JMG | 2026-09-01 12:36:08 | 51.52963 | 7.95792 | 33° | 37km/h | 17987m | -8.7m/s | -49.9°C | 0% | 79.8hPa | 2.5V | 08:19:57 | 02:18:16 | 00:00:00 | |
| BIOWL1-15 | 2026-09-01 12:36:06 | 51.52913 | 7.95702 | 63° | 60km/h | 18041m | -9.4m/s | -49.9°C | 0% | 79.1hPa | 2.5V | 08:19:06 | 02:18:10 | 00:00:00 | |
| AA1-15 | 2026-09-01 12:36:04 | 51.52920 | 7.95723 | 57° | 58km/h | 18031m | -9m/s | -49.9°C | 0% | 79.2hPa | 2.5V | 08:19:06 | 02:18:11 | 00:00:00 | |
| DL1XH-15 | 2026-09-01 12:36:02 | 51.52906 | 7.95680 | 68° | 60km/h | 18050m | -9.3m/s | -50°C | 3.1% | 78.9hPa | 2.5V | 08:30:00 | 02:18:09 | 00:00:00 | |
| DL1XH-west | 2026-09-01 12:36:01 | 51.52906 | 7.95680 | 68° | 62km/h | 18050m | -9.3m/s | -50°C | 0% | 79hPa | 2.5V | 08:19:06 | 02:18:09 | 00:00:00 | |
| HSKMA3-T | 2026-09-01 12:35:59 | 51.52898 | 7.95632 | 80° | 60km/h | 18068m | -8.7m/s | -50.1°C | 0% | 78.8hPa | 2.6V | 08:19:06 | 02:18:07 | 00:00:00 | |
| DO2JMG | 2026-09-01 12:35:58 | 51.52896 | 7.95608 | 86° | 58km/h | 18077m | -8.7m/s | -50.1°C | 0% | 78.7hPa | 2.5V | 08:19:57 | 02:18:06 | 00:00:00 | |
| GOEST3-10 | 2026-09-01 12:35:57 | 51.52895 | 7.95585 | 92° | 49km/h | 18086m | -8.5m/s | -50.1°C | 3.1% | 78.5hPa | 2.5V | 00:00:00 | 00:00:00 | 00:00:00 | |
| SO1NDE-10 | 2026-09-01 12:35:56 | 51.52897 | 7.95563 | 98° | 38km/h | 18094m | -8.7m/s | -50.2°C | 3.1% | 78.4hPa | 2.5V | 00:00:00 | 02:18:04 | 00:00:00 | |
| DJ8HS-15 | 2026-09-01 12:35:55 | 51.52899 | 7.95542 | 103° | 37km/h | 18103m | -8.6m/s | -50.3°C | 3.2% | 78.3hPa | 2.5V | 00:00:00 | 02:18:03 | 00:00:00 | |
| WEDDY | 2026-09-01 12:35:54 | 51.52902 | 7.95524 | 108° | 44km/h | 18112m | -8.6m/s | -50.3°C | 0.8% | 78.2hPa | 2.5V | 08:19:00 | 00:00:00 | 00:00:00 | |
| DL1NUX | 2026-09-01 12:35:53 | 51.52912 | 7.95484 | 115° | 27km/h | 18139m | -8.9m/s | -50.2°C | 3.2% | 77.9hPa | 2.5V | 08:18:49 | 02:17:59 | 00:00:00 | |
| AA1-15 | 2026-09-01 12:35:53 | 51.52909 | 7.95495 | 114° | 33km/h | 18130m | -9.4m/s | -50.3°C | 0% | 78hPa | 2.5V | 08:19:06 | 02:18:00 | 00:00:00 | |
| DL1XH-15 | 2026-09-01 12:35:52 | 51.52914 | 7.95475 | 114° | 20km/h | 18148m | -9.2m/s | -50°C | 3.2% | 77.8hPa | 2.5V | 08:30:00 | 02:17:58 | 00:00:00 | |
| DL1XH-west | 2026-09-01 12:35:50 | 51.52914 | 7.95475 | 115° | 20km/h | 18148m | -9.2m/s | -50.1°C | 0% | 77.8hPa | 2.5V | 08:19:06 | 02:17:58 | 00:00:00 | |
| HSKMA3-T | 2026-09-01 12:35:49 | 51.52916 | 7.95469 | 105° | 13km/h | 18157m | -9.3m/s | -50°C | 0% | 77.7hPa | 2.6V | 08:19:06 | 02:17:57 | 00:00:00 | |
| DO2JMG | 2026-09-01 12:35:48 | 51.52916 | 7.95464 | 76° | 9km/h | 18166m | -9.1m/s | -50°C | 0% | 77.6hPa | 2.6V | 08:19:57 | 02:17:56 | 00:00:00 | |
| DO1YAY-16 | 2026-09-01 12:35:48 | 51.52916 | 7.95464 | 75° | 9km/h | 18167m | -9.1m/s | -50.0°C | 0.8% | 77.6hPa | 2.5V | 00:00:00 | 00:00:00 | 00:00:00 | |
| GOEST3-10 | 2026-09-01 12:35:47 | 51.52914 | 7.95461 | 40° | 26km/h | 18176m | -8.7m/s | -49.9°C | 3.2% | 77.4hPa | 2.5V | 00:00:00 | 00:00:00 | 00:00:00 | |
| DO3DL | 2026-09-01 12:35:46 | 51.52911 | 7.95458 | 25° | 18km/h | 18184m | -8.3m/s | -50.0°C | 0.8% | 77.4hPa | 2.5V | 08:19:00 | 00:00:00 | 00:00:00 | |
| DL1NUX | 2026-09-01 12:35:45 | 51.52874 | 7.95425 | 38° | 47km/h | 18227m | -9.3m/s | -50.1°C | 3.2% | 76.9hPa | 2.5V | 08:18:59 | 02:17:49 | 00:00:00 | |
| DL1XH-west | 2026-09-01 12:35:40 | 51.52865 | 7.95412 | 43° | 51km/h | 18236m | -9.3m/s | -50.1°C | 0% | 76.8hPa | 2.5V | 08:19:06 | 02:17:48 | 00:00:00 | |
| HSKMA3-T | 2026-09-01 12:35:39 | 51.52856 | 7.95397 | 49° | 53km/h | 18246m | -9.2m/s | -50.2°C | 0% | 76.7hPa | 2.5V | 08:19:06 | 02:17:47 | 00:00:00 | |
| BIOWL1-15 | 2026-09-01 12:35:38 | 51.52847 | 7.95380 | 55° | 55km/h | 18255m | -9.2m/s | -50.2°C | 0% | 76.5hPa | 2.6V | 08:19:06 | 02:17:46 | 00:00:00 | |
| DO2JMG | 2026-09-01 12:35:37 | 51.52840 | 7.95361 | 62° | 57km/h | 18264m | -9.1m/s | -50.3°C | 0% | 76.4hPa | 2.6V | 08:19:57 | 02:17:45 | 00:00:00 | |
| AA1-15 | 2026-09-01 12:35:31 | 51.52832 | 7.95239 | 109° | 42km/h | 18319m | -9.2m/s | -50.2°C | 0% | 75.8hPa | 2.6V | 08:19:57 | 02:17:39 | 00:00:00 | |
| DL1XH-west | 2026-09-01 12:35:30 | 51.52836 | 7.95224 | 116° | 38km/h | 18328m | -9.4m/s | -50.2°C | 0% | 75.7hPa | 2.5V | 08:19:57 | 02:17:38 | 00:00:00 | |
| HSKMA3-T | 2026-09-01 12:35:29 | 51.52840 | 7.95212 | 124° | 31km/h | 18338m | -9.7m/s | -50.1°C | 0% | 75.6hPa | 2.5V | 08:19:57 | 02:17:37 | 00:00:00 | |
| BIOWL1-15 | 2026-09-01 12:35:28 | 51.52845 | 7.95203 | 132° | 26km/h | 18347m | -9.8m/s | -50°C | 0% | 75.5hPa | 2.5V | 08:19:57 | 02:17:36 | 00:00:00 | |
| DO2JMG | 2026-09-01 12:35:27 | 51.52849 | 7.95197 | 141° | 18km/h | 18357m | -9.6m/s | -49.9°C | 0% | 75.3hPa | 2.6V | 08:19:57 | 02:17:35 | 00:00:00 | |
| GOEST3-10 | 2026-09-01 12:35:27 | 51.52849 | 7.95197 | 141° | 11km/h | 18357m | -9.6m/s | -49.8°C | 3.2% | 75.3hPa | 2.6V | 00:00:00 | 00:00:00 | 00:00:00 | |
| DL1NUX | 2026-09-01 12:35:26 | 51.52839 | 7.95196 | 3° | 29km/h | 18416m | -9.3m/s | -50°C | 3.2% | 74.6hPa | 2.6V | 08:19:19 | 02:17:29 | 00:00:00 | |
| DL1XH-west | 2026-09-01 12:35:19 | 51.52820 | 7.95190 | 21° | 44km/h | 18435m | -9.4m/s | -50.1°C | 0% | 74.4hPa | 2.5V | 08:19:57 | 02:17:27 | 00:00:00 | |
| HSKMA3-T | 2026-09-01 12:35:18 | 51.52810 | 7.95181 | 30° | 49km/h | 18445m | -9.6m/s | -50.2°C | 0% | 74.3hPa | 2.5V | 08:19:57 | 02:17:26 | 00:00:00 | |
| BIOWL1-15 | 2026-09-01 12:35:18 | 51.52782 | 7.95137 | 59° | 55km/h | 18473m | -9.3m/s | -50.1°C | 0% | 74hPa | 2.6V | 08:19:57 | 02:17:23 | 00:00:00 | |
| DO2JMG | 2026-09-01 12:35:16 | 51.52790 | 7.95155 | 49° | 55km/h | 18464m | -9.4m/s | -50.2°C | 0% | 74.1hPa | 2.6V | 08:19:57 | 02:17:24 | 00:00:00 | |
| DL1XH1-15 | 2026-09-01 12:35:16 | 51.52782 | 7.95137 | 58° | 55km/h | 18473m | -9.3m/s | -50°C | 3.2% | 74hPa | 2.6V | 08:19:25 | 02:17:23 | 00:00:00 | |
| DL1NUX | 2026-09-01 12:35:16 | 51.52772 | 7.95057 | 98° | 46km/h | 18510m | -9.4m/s | -49.8°C | 3.1% | 73.6hPa | 2.6V | 08:19:29 | 02:17:19 | 00:00:00 | |
| DJ8HS-15 | 2026-09-01 12:35:15 | 51.52782 | 7.95137 | 59° | 33km/h | 18474m | -9.3m/s | -50.0°C | 3.2% | 73.9hPa | 2.6V | 00:00:00 | 02:17:23 | 00:00:00 | |
| DD8BA-10 | 2026-09-01 12:35:14 | 51.52776 | 7.95117 | 69° | 37km/h | 18483m | -8.8m/s | -50.0°C | 3.1% | 73.8hPa | 2.5V | 00:00:00 | 00:00:00 | 00:00:00 | |
| DO2KSM | 2026-09-01 12:35:13 | 51.52776 | 7.95117 | 70° | 55km/h | 18483m | -8.9m/s | -50.0°C | 0.8% | 73.9hPa | 2.5V | 08:19:00 | 00:00:00 | 00:00:00 | |
| GOEST3-10 | 2026-09-01 12:35:12 | 51.52771 | 7.95076 | 90° | 40km/h | 18501m | -9.1m/s | -49.8°C | 3.1% | 73.6hPa | 2.5V | 00:00:00 | 02:17:20 | 00:00:00 | |
| DJ2DS-15 | 2026-09-01 12:35:11 | 51.52772 | 7.95057 | 99° | 31km/h | 18510m | -9.3m/s | -49.7°C | 3.1% | 73.5hPa | 2.6V | 00:00:00 | 02:17:19 | 00:00:00 | |
| DL1XH1-15 | 2026-09-01 12:35:10 | 51.52795 | 7.94998 | 160° | 11km/h | 18568m | -9.2m/s | -49.6°C | 3.2% | 72.9hPa | 2.6V | 08:19:35 | 02:17:13 | 00:00:00 | |
| DL1XH-west | 2026-09-01 12:35:09 | 51.52778 | 7.95025 | 119° | 37km/h | 18529m | -9.7m/s | -49.7°C | 0% | 73.4hPa | 2.6V | 08:19:57 | 02:17:17 | 00:00:00 | |
| HSKMA3-T | 2026-09-01 12:35:08 | 51.52783 | 7.95014 | 128° | 31km/h | 18539m | -9.8m/s | -49.6°C | 0% | 73.2hPa | 2.5V | 08:19:57 | 02:17:16 | 00:00:00 | |
| BIOWL1-15 | 2026-09-01 12:35:06 | 51.52797 | 7.94997 | 192° | 4km/h | 18577m | -9.1m/s | -49.6°C | 0% | 72.8hPa | 2.6V | 08:19:57 | 02:17:12 | 00:00:00 | |
| DL1NUX | 2026-09-01 12:35:06 | 51.52790 | 7.94998 | 5° | 22km/h | 18604m | -9.3m/s | -49.8°C | 3.2% | 72.6hPa | 2.5V | 08:19:39 | 02:17:09 | 00:00:00 | |
| DO2JMG | 2026-09-01 12:35:01 | 51.52790 | 7.94998 | 6° | 22km/h | 18604m | -9.3m/s | -49.8°C | 0% | 72.6hPa | 2.5V | 08:19:57 | 02:17:09 | 00:00:00 | |
| DL1ZP-14 | 2026-09-01 12:35:01 | 51.52784 | 7.94996 | 16° | 27km/h | 18614m | -9.7m/s | -49.8°C | 0.8% | 72.5hPa | 2.6V | 00:00:00 | 00:00:00 | 00:00:00 | |
| DM0DOS-11 | 2026-09-01 12:35:00 | 51.52747 | 7.94943 | 64° | 47km/h | 18663m | -9.1m/s | -49.8°C | 3.1% | 71.9hPa | 2.5V | 08:19:45 | 02:17:03 | 00:00:00 | |
| DL1XH-west | 2026-09-01 12:34:58 | 51.52768 | 7.94984 | 35° | 38km/h | 18634m | -9.8m/s | -49.7°C | 0% | 72.2hPa | 2.6V | 08:19:57 | 02:17:06 | 00:00:00 | |
| HSKMA3-T | 2026-09-01 12:34:57 | 51.52761 | 7.94973 | 45° | 44km/h | 18644m | -9.8m/s | -49.8°C | 0% | 72.1hPa | 2.5V | 08:19:57 | 02:17:05 | 00:00:00 | |
| BIOWL1-15 | 2026-09-01 12:34:56 | 51.52744 | 7.94868 | 108° | 42km/h | 18699m | -9m/s | -49.4°C | 0% | 71.5hPa | 2.5V | 08:19:57 | 02:16:59 | 00:00:00 | |
| DO2JMG | 2026-09-01 12:34:50 | 51.52748 | 7.94854 | 118° | 37km/h | 18708m | -9.4m/s | -49.3°C | 0% | 71.4hPa | 2.5V | 08:19:57 | 02:16:58 | 00:00:00 | |
| DL1XH-west | 2026-09-01 12:34:48 | 51.52763 | 7.94829 | 159° | 20km/h | 18738m | -10.3m/s | -49.2°C | 0% | 71.1hPa | 2.6V | 08:19:57 | 02:16:55 | 00:00:00 | |
| GOEST3-10 | 2026-09-01 12:34:47 | 51.52763 | 7.94829 | 159° | 16km/h | 18738m | -10.3m/s | -49.2°C | 3.0% | 71.1hPa | 2.5V | 00:00:00 | 00:00:00 | 00:00:00 | |
| DL1NUX | 2026-09-01 12:34:46 | 51.52763 | 7.94855 | 322° | 29km/h | 18798m | -9.8m/s | -49.4°C | 3% | 70.4hPa | 2.5V | 08:19:59 | 02:16:49 | 00:00:00 | |
| BIOWL1-15 | 2026-09-01 12:34:46 | 51.52767 | 7.94827 | 184° | 15km/h | 18748m | -10.5m/s | -49.2°C | 0% | 71hPa | 2.5V | 08:19:57 | 02:16:54 | 00:00:00 | |
| DO1YAY-16 | 2026-09-01 12:34:46 | 51.52770 | 7.94829 | 222° | 11km/h | 18759m | -10.4m/s | -49.2°C | 0.7% | 70.9hPa | 2.5V | 00:00:00 | 00:00:00 | 00:00:00 | |
| DO2JMG | 2026-09-01 12:34:41 | 51.52757 | 7.94862 | 335° | 33km/h | 18808m | -9.4m/s | -49.5°C | 0% | 70.4hPa | 2.5V | 08:20:48 | 02:16:48 | 00:00:00 | |
| DM0DOS-11 | 2026-09-01 12:34:40 | 51.52708 | 7.94853 | 30° | 46km/h | 18855m | -9.4m/s | -49.8°C | 3% | 69.9hPa | 2.5V | 08:20:05 | 02:16:43 | 00:00:00 | |
| BIOWL1-15 | 2026-09-01 12:34:39 | 51.52699 | 7.94843 | 44° | 44km/h | 18864m | -9.6m/s | -50°C | 0% | 69.8hPa | 2.5V | 08:20:48 | 02:16:42 | 00:00:00 | |
| DL1XH-west | 2026-09-01 12:34:38 | 51.52718 | 7.94861 | 21° | 44km/h | 18845m | -9m/s | -49.8°C | 0% | 70hPa | 2.6V | 08:20:48 | 02:16:44 | 00:00:00 | |
| AA1-15 | 2026-09-01 12:34:37 | 51.52729 | 7.94866 | 10° | 42km/h | 18836m | -9.1m/s | -49.7°C | 0% | 70.1hPa | 2.6V | 08:20:48 | 02:16:45 | 00:00:00 | |
| HSKMA3-T | 2026-09-01 12:34:35 | 51.52708 | 7.94853 | 31° | 46km/h | 18855m | -9.4m/s | -49.8°C | 0% | 69.9hPa | 2.5V | 08:20:48 | 02:16:43 | 00:00:00 | |
| DO2JMG | 2026-09-01 12:34:29 | 51.52684 | 7.94778 | 102° | 26km/h | 18913m | -9.9m/s | -50.3°C | 0% | 69.2hPa | 2.5V | 08:20:48 | 02:16:37 | 00:00:00 | |
| DL1XH-west | 2026-09-01 12:34:28 | 51.52689 | 7.94763 | 134° | 16km/h | 18933m | -9.4m/s | -50.5°C | 0% | 69.1hPa | 2.6V | 08:20:48 | 02:16:35 | 00:00:00 | |
| AA1-15 | 2026-09-01 12:34:27 | 51.52691 | 7.94760 | 170° | 11km/h | 18942m | -9.5m/s | -50.5°C | 0% | 68.9hPa | 2.6V | 08:20:48 | 02:16:34 | 00:00:00 | |
| DL1XH1-15 | 2026-09-01 12:34:26 | 51.52694 | 7.94761 | 218° | 11km/h | 18952m | -9m/s | -50.6°C | 3.3% | 68.8hPa | 2.6V | 08:20:15 | 02:16:33 | 00:00:00 | |
| HSKMA3-T | 2026-09-01 12:34:24 | 51.52695 | 7.94766 | 256° | 15km/h | 18961m | -9.2m/s | -50.7°C | 0% | 68.8hPa | 2.5V | 08:20:48 | 02:16:32 | 00:00:00 | |
| DL3AQ-11 | 2026-09-01 12:34:24 | 51.52695 | 7.94773 | 275° | 20km/h | 18970m | -9.3m/s | -50.8°C | 0.8% | 68.7hPa | 2.6V | 00:00:00 | 00:00:00 | 00:00:00 | |
| GOEST3-10 | 2026-09-01 12:34:22 | 51.52694 | 7.94782 | 292° | 37km/h | 18980m | -9.4m/s | -50.9°C | 3.4% | 68.5hPa | 2.6V | 00:00:00 | 02:16:30 | 00:00:00 | |
| DM0DOS-11 | 2026-09-01 12:34:21 | 51.52629 | 7.94827 | 9° | 53km/h | 19049m | -10.1m/s | -51.2°C | 3.4% | 67.8hPa | 2.6V | 08:20:25 | 02:16:23 | 00:00:00 | |
| DO2JMG | 2026-09-01 12:34:18 | 51.52666 | 7.94820 | 338° | 46km/h | 19020m | -9.9m/s | -51.2°C | 0.1% | 68.1hPa | 2.5V | 08:20:48 | 02:16:26 | 00:00:00 | |
| DL1XH-west | 2026-09-01 12:34:16 | 51.52642 | 7.94828 | 359° | 53km/h | 19040m | -9.7m/s | -51.3°C | 0.1% | 67.9hPa | 2.6V | 08:20:48 | 02:16:24 | 00:00:00 | |
| AA1-15 | 2026-09-01 12:34:15 | 51.52629 | 7.94827 | 9° | 53km/h | 19050m | -10.1m/s | -51.2°C | 0% | 67.8hPa | 2.6V | 08:20:48 | 02:16:23 | 00:00:00 | |
| HSKMA3-T | 2026-09-01 12:34:14 | 51.52615 | 7.94822 | 17° | 55km/h | 19060m | -10.7m/s | -51.2°C | 0.1% | 67.7hPa | 2.6V | 08:20:48 | 02:16:22 | 00:00:00 | |
| BIOWL1-15 | 2026-09-01 12:34:13 | 51.52576 | 7.94771 | 62° | 44km/h | 19099m | -9.2m/s | -50.5°C | 0% | 67.3hPa | 2.6V | 08:20:48 | 02:16:18 | 00:00:00 | |
| DO2JMG | 2026-09-01 12:34:07 | 51.52571 | 7.94728 | 98° | 27km/h | 19129m | -10.4m/s | -50.4°C | 0% | 67hPa | 2.5V | 08:20:48 | 02:16:15 | 00:00:00 | |
| DM0DOS-11 | 2026-09-01 12:34:07 | 51.52575 | 7.94712 | 132° | 13km/h | 19150m | -9.7m/s | -50.4°C | 3.1% | 66.7hPa | 2.6V | 08:20:35 | 02:16:13 | 00:00:00 | |
| AA1-15 | 2026-09-01 12:34:06 | 51.52577 | 7.94710 | 176° | 7km/h | 19160m | -10m/s | -50.4°C | 0% | 66.7hPa | 2.6V | 08:20:48 | 02:16:12 | 00:00:00 | |
| DL1XH-west | 2026-09-01 12:34:05 | 51.52575 | 7.94712 | 133° | 15km/h | 19150m | -9.7m/s | -50.4°C | 0% | 66.7hPa | 2.6V | 08:20:48 | 02:16:13 | 00:00:00 | |
| BIOWL1-15 | 2026-09-01 12:34:03 | 51.52578 | 7.94712 | 259° | 7km/h | 19170m | -9.2m/s | -50.4°C | 0% | 66.6hPa | 2.6V | 08:20:48 | 02:16:11 | 00:00:00 | |
| DO2JMG | 2026-09-01 12:33:58 | 51.52542 | 7.94748 | 351° | 47km/h | 19230m | -10.1m/s | -50.8°C | 0% | 65.9hPa | 2.5V | 08:20:48 | 02:16:05 | 00:00:00 | |
| DL1XH-west | 2026-09-01 12:33:55 | 51.52516 | 7.94747 | 10° | 55km/h | 19250m | -9.7m/s | -50.9°C | 0% | 65.7hPa | 2.5V | 08:20:48 | 02:16:03 | 00:00:00 | |
| HSKMA3-T | 2026-09-01 12:33:53 | 51.52488 | 7.94730 | 29° | 60km/h | 19269m | -9.5m/s | -50.9°C | 0% | 65.5hPa | 2.6V | 08:20:48 | 02:16:01 | 00:00:00 | |
| BIOWL1-15 | 2026-09-01 12:33:52 | 51.52454 | 7.94682 | 56° | 58km/h | 19299m | -10.3m/s | -50.9°C | 0% | 65.2hPa | 2.5V | 08:21:39 | 02:15:58 | 00:00:00 | |
| DO2KSM | 2026-09-01 12:33:52 | 51.52475 | 7.94717 | 39° | 62km/h | 19280m | -9.7m/s | -50.9°C | 0.8% | 65.5hPa | 2.5V | 08:20:00 | 00:00:00 | 00:00:00 | |
| DD1CC1-15 | 2026-09-01 12:33:51 | 51.52464 | 7.94700 | 47° | 60km/h | 19289m | -9.5m/s | -50.9°C | 0.8% | 65.4hPa | 2.5V | 00:00:00 | 00:00:00 | 00:00:00 | |
| DM0DOS-11 | 2026-09-01 12:33:50 | 51.52441 | 7.94595 | 100° | 29km/h | 19347m | -9.7m/s | -50.9°C | 3.3% | 64.7hPa | 2.5V | 08:20:55 | 02:15:53 | 00:00:00 | |
| DO2JMG | 2026-09-01 12:33:46 | 51.52440 | 7.94608 | 93° | 35km/h | 19338m | -9.4m/s | -50.9°C | 0% | 64.9hPa | 2.5V | 08:21:39 | 02:15:54 | 00:00:00 | |
| DL1XH-west | 2026-09-01 12:33:45 | 51.52441 | 7.94595 | 101° | 29km/h | 19347m | -9.7m/s | -50.9°C | 0% | 64.7hPa | 2.5V | 08:21:39 | 02:15:53 | 00:00:00 | |
| HSKMA3-T | 2026-09-01 12:33:42 | 51.52445 | 7.94576 | 108° | 5km/h | 19377m | -9.9m/s | -51.1°C | 0.1% | 64.4hPa | 2.6V | 08:21:39 | 02:15:50 | 00:00:00 | |
| BIOWL1-15 | 2026-09-01 12:33:41 | 51.52439 | 7.94580 | 347° | 22km/h | 19408m | -9.6m/s | -51.1°C | 0.1% | 64.2hPa | 2.5V | 08:21:39 | 02:15:47 | 00:00:00 | |
| DL4BBY-15 | 2026-09-01 12:33:39 | 51.52439 | 7.94580 | 348° | 37km/h | 19408m | -9.6m/s | -53.2°C | 0% | 0hPa | 2.6V | 00:00:00 | 00:00:00 | 00:00:00 | |
| DD1CC8 | 2026-09-01 12:33:38 | 51.52425 | 7.94581 | 2° | 35km/h | 19427m | -9.3m/s | -51.0°C | 0.9% | 64.0hPa | 2.6V | 00:00:00 | 00:00:00 | 00:00:00 | |
| GOEST3-10 | 2026-09-01 12:33:37 | 51.52425 | 7.94581 | 3° | 46km/h | 19428m | -9.2m/s | -50.9°C | 3.4% | 63.9hPa | 2.6V | 00:00:00 | 00:00:00 | 00:00:00 | |
| DL1NUX | 2026-09-01 12:33:36 | 51.52362 | 7.94522 | 51° | 57km/h | 19488m | -10.2m/s | -50.8°C | 3.2% | 63.4hPa | 2.6V | 08:21:09 | 02:15:39 | 00:00:00 | |
| DO2JMG | 2026-09-01 12:33:36 | 51.52404 | 7.94574 | 21° | 47km/h | 19447m | -9.6m/s | -50.9°C | 0% | 63.8hPa | 2.5V | 08:21:39 | 02:15:43 | 00:00:00 | |
| DM0DOS-11 | 2026-09-01 12:33:35 | 51.52404 | 7.94574 | 21° | 47km/h | 19447m | -9.6m/s | -50.9°C | 3.3% | 63.8hPa | 2.5V | 08:21:05 | 02:15:43 | 00:00:00 | |
| DL1XH-west | 2026-09-01 12:33:34 | 51.52393 | 7.94565 | 30° | 51km/h | 19457m | -9.9m/s | -50.8°C | 0% | 63.7hPa | 2.5V | 08:21:39 | 02:15:42 | 00:00:00 | |
| AA1-15 | 2026-09-01 12:33:31 | 51.52362 | 7.94522 | 52° | 57km/h | 19488m | -10.2m/s | -50.8°C | 0% | 63.4hPa | 2.6V | 08:21:39 | 02:15:39 | 00:00:00 | |
| DJ2DS-15 | 2026-09-01 12:33:31 | 51.52354 | 7.94503 | 60° | 55km/h | 19498m | -9.4m/s | -50.8°C | 0.8% | 63.3hPa | 2.5V | 00:00:00 | 00:00:00 | 00:00:00 | |
| WEDDY | 2026-09-01 12:33:30 | 51.52354 | 7.94503 | 62° | 55km/h | 19498m | -9.4m/s | -50.8°C | 0.8% | 63.3hPa | 2.5V | 00:00:00 | 00:00:00 | 00:00:00 | |
| Es werden nur die letzten 3500 von 8191 Frames angezeigt. GPX/KML und Diagramme bleiben verfügbar. | |||||||||||||||